<?xml version="1.0" encoding="UTF-8" standalone="no" ?>
<gpx xmlns="http://www.topografix.com/GPX/1/1" xmlns:xsi="http://www.w3.org/2001/XMLSchema-instance" xsi:schemaLocation="http://www.topografix.com/GPX/1/1 http://www.topografix.com/GPX/1/1/gpx.xsd" version="1.1" creator="VisuGPX - https://www.visugpx.com">
  <metadata>
    <name>GOTOES Export</name>
  </metadata>
  <trk>
    <name><![CDATA[GOTOES Export]]></name>
    <trkseg>
      <trkpt lat="48.52076" lon="-2.7261">
        <ele>62.3</ele>
        <time>2020-08-12T06:52:01Z</time>
      </trkpt>
      <trkpt lat="48.52076" lon="-2.7261">
        <ele>62.3</ele>
        <time>2020-08-12T06:52:01Z</time>
      </trkpt>
      <trkpt lat="48.52075" lon="-2.72573">
        <ele>62.5</ele>
        <time>2020-08-12T06:55:45Z</time>
      </trkpt>
      <trkpt lat="48.52065" lon="-2.72533">
        <ele>61.9</ele>
        <time>2020-08-12T06:55:55Z</time>
      </trkpt>
      <trkpt lat="48.52065" lon="-2.72533">
        <ele>61.9</ele>
        <time>2020-08-12T06:55:59Z</time>
      </trkpt>
      <trkpt lat="48.52065" lon="-2.72533">
        <ele>61.9</ele>
        <time>2020-08-12T06:56:04Z</time>
      </trkpt>
      <trkpt lat="48.52055" lon="-2.72579">
        <ele>62.1</ele>
        <time>2020-08-12T06:59:00Z</time>
      </trkpt>
      <trkpt lat="48.52054" lon="-2.7259">
        <ele>62.1</ele>
        <time>2020-08-12T06:59:04Z</time>
      </trkpt>
      <trkpt lat="48.52052" lon="-2.7261">
        <ele>62</ele>
        <time>2020-08-12T06:59:10Z</time>
      </trkpt>
      <trkpt lat="48.52052" lon="-2.72618">
        <ele>61.9</ele>
        <time>2020-08-12T06:59:20Z</time>
      </trkpt>
      <trkpt lat="48.52056" lon="-2.72661">
        <ele>62</ele>
        <time>2020-08-12T06:59:24Z</time>
      </trkpt>
      <trkpt lat="48.5209" lon="-2.72674">
        <ele>62.9</ele>
        <time>2020-08-12T06:59:39Z</time>
      </trkpt>
      <trkpt lat="48.52106" lon="-2.72679">
        <ele>62.8</ele>
        <time>2020-08-12T06:59:46Z</time>
      </trkpt>
      <trkpt lat="48.5213" lon="-2.72685">
        <ele>62.8</ele>
        <time>2020-08-12T06:59:56Z</time>
      </trkpt>
      <trkpt lat="48.52143" lon="-2.72689">
        <ele>62.8</ele>
        <time>2020-08-12T07:00:01Z</time>
      </trkpt>
      <trkpt lat="48.52161" lon="-2.72697">
        <ele>62.9</ele>
        <time>2020-08-12T07:00:07Z</time>
      </trkpt>
      <trkpt lat="48.5217" lon="-2.72698">
        <ele>62.7</ele>
        <time>2020-08-12T07:00:11Z</time>
      </trkpt>
      <trkpt lat="48.52192" lon="-2.727">
        <ele>62.6</ele>
        <time>2020-08-12T07:00:18Z</time>
      </trkpt>
      <trkpt lat="48.522" lon="-2.72711">
        <ele>62.6</ele>
        <time>2020-08-12T07:00:23Z</time>
      </trkpt>
      <trkpt lat="48.52211" lon="-2.72737">
        <ele>62.6</ele>
        <time>2020-08-12T07:00:31Z</time>
      </trkpt>
      <trkpt lat="48.52226" lon="-2.72759">
        <ele>62.9</ele>
        <time>2020-08-12T07:00:40Z</time>
      </trkpt>
      <trkpt lat="48.52234" lon="-2.72789">
        <ele>62.8</ele>
        <time>2020-08-12T07:00:47Z</time>
      </trkpt>
      <trkpt lat="48.52236" lon="-2.72805">
        <ele>62.8</ele>
        <time>2020-08-12T07:00:52Z</time>
      </trkpt>
      <trkpt lat="48.52249" lon="-2.72846">
        <ele>62.8</ele>
        <time>2020-08-12T07:00:59Z</time>
      </trkpt>
      <trkpt lat="48.52254" lon="-2.72855">
        <ele>62.4</ele>
        <time>2020-08-12T07:01:06Z</time>
      </trkpt>
      <trkpt lat="48.52271" lon="-2.72849">
        <ele>62.3</ele>
        <time>2020-08-12T07:01:12Z</time>
      </trkpt>
      <trkpt lat="48.5231" lon="-2.72839">
        <ele>62.1</ele>
        <time>2020-08-12T07:01:19Z</time>
      </trkpt>
      <trkpt lat="48.52348" lon="-2.72834">
        <ele>61.6</ele>
        <time>2020-08-12T07:01:29Z</time>
      </trkpt>
      <trkpt lat="48.52383" lon="-2.7283">
        <ele>62.2</ele>
        <time>2020-08-12T07:01:38Z</time>
      </trkpt>
      <trkpt lat="48.52427" lon="-2.72825">
        <ele>61.4</ele>
        <time>2020-08-12T07:01:49Z</time>
      </trkpt>
      <trkpt lat="48.52436" lon="-2.72825">
        <ele>61.1</ele>
        <time>2020-08-12T07:01:51Z</time>
      </trkpt>
      <trkpt lat="48.5247" lon="-2.72806">
        <ele>60.1</ele>
        <time>2020-08-12T07:01:58Z</time>
      </trkpt>
      <trkpt lat="48.52494" lon="-2.72786">
        <ele>59.8</ele>
        <time>2020-08-12T07:02:03Z</time>
      </trkpt>
      <trkpt lat="48.5255" lon="-2.7274">
        <ele>57.1</ele>
        <time>2020-08-12T07:02:14Z</time>
      </trkpt>
      <trkpt lat="48.5256" lon="-2.72732">
        <ele>56.9</ele>
        <time>2020-08-12T07:02:16Z</time>
      </trkpt>
      <trkpt lat="48.52577" lon="-2.72715">
        <ele>56.8</ele>
        <time>2020-08-12T07:02:21Z</time>
      </trkpt>
      <trkpt lat="48.52621" lon="-2.72665">
        <ele>55.1</ele>
        <time>2020-08-12T07:02:31Z</time>
      </trkpt>
      <trkpt lat="48.52632" lon="-2.72654">
        <ele>54.9</ele>
        <time>2020-08-12T07:02:34Z</time>
      </trkpt>
      <trkpt lat="48.52647" lon="-2.72629">
        <ele>54.8</ele>
        <time>2020-08-12T07:02:40Z</time>
      </trkpt>
      <trkpt lat="48.52658" lon="-2.72595">
        <ele>54.4</ele>
        <time>2020-08-12T07:02:46Z</time>
      </trkpt>
      <trkpt lat="48.52661" lon="-2.72581">
        <ele>54</ele>
        <time>2020-08-12T07:02:48Z</time>
      </trkpt>
      <trkpt lat="48.52672" lon="-2.72553">
        <ele>50.3</ele>
        <time>2020-08-12T07:02:52Z</time>
      </trkpt>
      <trkpt lat="48.52702" lon="-2.72509">
        <ele>49.2</ele>
        <time>2020-08-12T07:02:59Z</time>
      </trkpt>
      <trkpt lat="48.52716" lon="-2.7249">
        <ele>49.7</ele>
        <time>2020-08-12T07:03:03Z</time>
      </trkpt>
      <trkpt lat="48.5272" lon="-2.72482">
        <ele>49.6</ele>
        <time>2020-08-12T07:03:06Z</time>
      </trkpt>
      <trkpt lat="48.52726" lon="-2.72482">
        <ele>49.4</ele>
        <time>2020-08-12T07:03:11Z</time>
      </trkpt>
      <trkpt lat="48.52727" lon="-2.72493">
        <ele>49.1</ele>
        <time>2020-08-12T07:03:15Z</time>
      </trkpt>
      <trkpt lat="48.52731" lon="-2.72518">
        <ele>47.6</ele>
        <time>2020-08-12T07:03:21Z</time>
      </trkpt>
      <trkpt lat="48.52735" lon="-2.72546">
        <ele>46.5</ele>
        <time>2020-08-12T07:03:27Z</time>
      </trkpt>
      <trkpt lat="48.52736" lon="-2.72561">
        <ele>45.2</ele>
        <time>2020-08-12T07:03:29Z</time>
      </trkpt>
      <trkpt lat="48.52731" lon="-2.726">
        <ele>42</ele>
        <time>2020-08-12T07:03:36Z</time>
      </trkpt>
      <trkpt lat="48.52725" lon="-2.72636">
        <ele>41.4</ele>
        <time>2020-08-12T07:03:42Z</time>
      </trkpt>
      <trkpt lat="48.52722" lon="-2.72685">
        <ele>37.3</ele>
        <time>2020-08-12T07:03:50Z</time>
      </trkpt>
      <trkpt lat="48.52721" lon="-2.72711">
        <ele>37.2</ele>
        <time>2020-08-12T07:03:54Z</time>
      </trkpt>
      <trkpt lat="48.5272" lon="-2.72759">
        <ele>32.4</ele>
        <time>2020-08-12T07:04:01Z</time>
      </trkpt>
      <trkpt lat="48.5272" lon="-2.72767">
        <ele>32.5</ele>
        <time>2020-08-12T07:04:02Z</time>
      </trkpt>
      <trkpt lat="48.52721" lon="-2.7281">
        <ele>30.9</ele>
        <time>2020-08-12T07:04:07Z</time>
      </trkpt>
      <trkpt lat="48.52722" lon="-2.72836">
        <ele>27.7</ele>
        <time>2020-08-12T07:04:10Z</time>
      </trkpt>
      <trkpt lat="48.52727" lon="-2.7286">
        <ele>27.9</ele>
        <time>2020-08-12T07:04:15Z</time>
      </trkpt>
      <trkpt lat="48.52727" lon="-2.7286">
        <ele>27.9</ele>
        <time>2020-08-12T07:04:17Z</time>
      </trkpt>
      <trkpt lat="48.52739" lon="-2.72913">
        <ele>22</ele>
        <time>2020-08-12T07:04:22Z</time>
      </trkpt>
      <trkpt lat="48.5274" lon="-2.72966">
        <ele>26.4</ele>
        <time>2020-08-12T07:04:27Z</time>
      </trkpt>
      <trkpt lat="48.5274" lon="-2.72986">
        <ele>24</ele>
        <time>2020-08-12T07:04:29Z</time>
      </trkpt>
      <trkpt lat="48.52741" lon="-2.73032">
        <ele>25.2</ele>
        <time>2020-08-12T07:04:35Z</time>
      </trkpt>
      <trkpt lat="48.52745" lon="-2.73057">
        <ele>23.7</ele>
        <time>2020-08-12T07:04:38Z</time>
      </trkpt>
      <trkpt lat="48.5275" lon="-2.73076">
        <ele>13.2</ele>
        <time>2020-08-12T07:04:41Z</time>
      </trkpt>
      <trkpt lat="48.52758" lon="-2.73099">
        <ele>12.4</ele>
        <time>2020-08-12T07:04:46Z</time>
      </trkpt>
      <trkpt lat="48.52761" lon="-2.73109">
        <ele>12.1</ele>
        <time>2020-08-12T07:04:51Z</time>
      </trkpt>
      <trkpt lat="48.52761" lon="-2.73109">
        <ele>12.1</ele>
        <time>2020-08-12T07:04:52Z</time>
      </trkpt>
      <trkpt lat="48.52762" lon="-2.73115">
        <ele>12</ele>
        <time>2020-08-12T07:05:08Z</time>
      </trkpt>
      <trkpt lat="48.52766" lon="-2.73126">
        <ele>12.1</ele>
        <time>2020-08-12T07:05:13Z</time>
      </trkpt>
      <trkpt lat="48.52768" lon="-2.73132">
        <ele>12.2</ele>
        <time>2020-08-12T07:05:15Z</time>
      </trkpt>
      <trkpt lat="48.52773" lon="-2.73172">
        <ele>14.2</ele>
        <time>2020-08-12T07:05:25Z</time>
      </trkpt>
      <trkpt lat="48.52774" lon="-2.73218">
        <ele>14.3</ele>
        <time>2020-08-12T07:05:34Z</time>
      </trkpt>
      <trkpt lat="48.52779" lon="-2.73268">
        <ele>16.4</ele>
        <time>2020-08-12T07:05:43Z</time>
      </trkpt>
      <trkpt lat="48.52785" lon="-2.7332">
        <ele>16.7</ele>
        <time>2020-08-12T07:05:52Z</time>
      </trkpt>
      <trkpt lat="48.52786" lon="-2.73371">
        <ele>17.2</ele>
        <time>2020-08-12T07:06:01Z</time>
      </trkpt>
      <trkpt lat="48.52784" lon="-2.73423">
        <ele>16.9</ele>
        <time>2020-08-12T07:06:10Z</time>
      </trkpt>
      <trkpt lat="48.52777" lon="-2.73487">
        <ele>16.9</ele>
        <time>2020-08-12T07:06:21Z</time>
      </trkpt>
      <trkpt lat="48.52772" lon="-2.73515">
        <ele>15.1</ele>
        <time>2020-08-12T07:06:26Z</time>
      </trkpt>
      <trkpt lat="48.52756" lon="-2.7356">
        <ele>12.5</ele>
        <time>2020-08-12T07:06:35Z</time>
      </trkpt>
      <trkpt lat="48.52734" lon="-2.73602">
        <ele>9.9</ele>
        <time>2020-08-12T07:06:45Z</time>
      </trkpt>
      <trkpt lat="48.52719" lon="-2.73623">
        <ele>9.3</ele>
        <time>2020-08-12T07:06:51Z</time>
      </trkpt>
      <trkpt lat="48.527" lon="-2.73633">
        <ele>9</ele>
        <time>2020-08-12T07:06:58Z</time>
      </trkpt>
      <trkpt lat="48.52677" lon="-2.73641">
        <ele>8.4</ele>
        <time>2020-08-12T07:07:05Z</time>
      </trkpt>
      <trkpt lat="48.52649" lon="-2.73655">
        <ele>9</ele>
        <time>2020-08-12T07:07:14Z</time>
      </trkpt>
      <trkpt lat="48.52627" lon="-2.73665">
        <ele>9.8</ele>
        <time>2020-08-12T07:07:21Z</time>
      </trkpt>
      <trkpt lat="48.52597" lon="-2.73676">
        <ele>7.1</ele>
        <time>2020-08-12T07:07:29Z</time>
      </trkpt>
      <trkpt lat="48.52571" lon="-2.73685">
        <ele>8</ele>
        <time>2020-08-12T07:07:36Z</time>
      </trkpt>
      <trkpt lat="48.52551" lon="-2.73697">
        <ele>8.1</ele>
        <time>2020-08-12T07:07:42Z</time>
      </trkpt>
      <trkpt lat="48.5253" lon="-2.73716">
        <ele>7.9</ele>
        <time>2020-08-12T07:07:49Z</time>
      </trkpt>
      <trkpt lat="48.52492" lon="-2.73763">
        <ele>6.3</ele>
        <time>2020-08-12T07:08:00Z</time>
      </trkpt>
      <trkpt lat="48.52481" lon="-2.73781">
        <ele>6.5</ele>
        <time>2020-08-12T07:08:04Z</time>
      </trkpt>
      <trkpt lat="48.52458" lon="-2.73822">
        <ele>6.9</ele>
        <time>2020-08-12T07:08:13Z</time>
      </trkpt>
      <trkpt lat="48.5244" lon="-2.7386">
        <ele>7.5</ele>
        <time>2020-08-12T07:08:21Z</time>
      </trkpt>
      <trkpt lat="48.52416" lon="-2.73921">
        <ele>10.2</ele>
        <time>2020-08-12T07:08:33Z</time>
      </trkpt>
      <trkpt lat="48.52408" lon="-2.73947">
        <ele>10.9</ele>
        <time>2020-08-12T07:08:43Z</time>
      </trkpt>
      <trkpt lat="48.52395" lon="-2.74024">
        <ele>12.9</ele>
        <time>2020-08-12T07:08:51Z</time>
      </trkpt>
      <trkpt lat="48.52394" lon="-2.7403">
        <ele>13</ele>
        <time>2020-08-12T07:08:56Z</time>
      </trkpt>
      <trkpt lat="48.52405" lon="-2.7406">
        <ele>12</ele>
        <time>2020-08-12T07:09:02Z</time>
      </trkpt>
      <trkpt lat="48.52412" lon="-2.74121">
        <ele>14.5</ele>
        <time>2020-08-12T07:09:11Z</time>
      </trkpt>
      <trkpt lat="48.52412" lon="-2.74142">
        <ele>13.9</ele>
        <time>2020-08-12T07:09:16Z</time>
      </trkpt>
      <trkpt lat="48.52434" lon="-2.74157">
        <ele>7.5</ele>
        <time>2020-08-12T07:09:22Z</time>
      </trkpt>
      <trkpt lat="48.52464" lon="-2.74167">
        <ele>7.8</ele>
        <time>2020-08-12T07:09:30Z</time>
      </trkpt>
      <trkpt lat="48.52493" lon="-2.74178">
        <ele>7.5</ele>
        <time>2020-08-12T07:09:38Z</time>
      </trkpt>
      <trkpt lat="48.52496" lon="-2.74179">
        <ele>7.5</ele>
        <time>2020-08-12T07:09:39Z</time>
      </trkpt>
      <trkpt lat="48.52511" lon="-2.74173">
        <ele>12.2</ele>
        <time>2020-08-12T07:09:43Z</time>
      </trkpt>
      <trkpt lat="48.52517" lon="-2.74139">
        <ele>10.2</ele>
        <time>2020-08-12T07:09:50Z</time>
      </trkpt>
      <trkpt lat="48.52527" lon="-2.74091">
        <ele>9.1</ele>
        <time>2020-08-12T07:09:59Z</time>
      </trkpt>
      <trkpt lat="48.52534" lon="-2.7407">
        <ele>6.9</ele>
        <time>2020-08-12T07:10:03Z</time>
      </trkpt>
      <trkpt lat="48.52564" lon="-2.74001">
        <ele>7</ele>
        <time>2020-08-12T07:10:15Z</time>
      </trkpt>
      <trkpt lat="48.52589" lon="-2.73959">
        <ele>8.3</ele>
        <time>2020-08-12T07:10:23Z</time>
      </trkpt>
      <trkpt lat="48.52619" lon="-2.73929">
        <ele>8.5</ele>
        <time>2020-08-12T07:10:31Z</time>
      </trkpt>
      <trkpt lat="48.52665" lon="-2.73903">
        <ele>8.1</ele>
        <time>2020-08-12T07:10:41Z</time>
      </trkpt>
      <trkpt lat="48.52679" lon="-2.73895">
        <ele>13.5</ele>
        <time>2020-08-12T07:10:44Z</time>
      </trkpt>
      <trkpt lat="48.52687" lon="-2.7389">
        <ele>14.2</ele>
        <time>2020-08-12T07:10:46Z</time>
      </trkpt>
      <trkpt lat="48.52732" lon="-2.73863">
        <ele>16</ele>
        <time>2020-08-12T07:10:58Z</time>
      </trkpt>
      <trkpt lat="48.52771" lon="-2.73836">
        <ele>22.9</ele>
        <time>2020-08-12T07:11:07Z</time>
      </trkpt>
      <trkpt lat="48.52813" lon="-2.73806">
        <ele>18.1</ele>
        <time>2020-08-12T07:11:18Z</time>
      </trkpt>
      <trkpt lat="48.52849" lon="-2.73774">
        <ele>23.2</ele>
        <time>2020-08-12T07:11:28Z</time>
      </trkpt>
      <trkpt lat="48.52872" lon="-2.73743">
        <ele>18.4</ele>
        <time>2020-08-12T07:11:36Z</time>
      </trkpt>
      <trkpt lat="48.52893" lon="-2.73705">
        <ele>19.2</ele>
        <time>2020-08-12T07:11:44Z</time>
      </trkpt>
      <trkpt lat="48.52905" lon="-2.73673">
        <ele>19.6</ele>
        <time>2020-08-12T07:11:50Z</time>
      </trkpt>
      <trkpt lat="48.52917" lon="-2.73626">
        <ele>26.7</ele>
        <time>2020-08-12T07:11:58Z</time>
      </trkpt>
      <trkpt lat="48.52929" lon="-2.73553">
        <ele>22.1</ele>
        <time>2020-08-12T07:12:09Z</time>
      </trkpt>
      <trkpt lat="48.52938" lon="-2.73481">
        <ele>18.6</ele>
        <time>2020-08-12T07:12:19Z</time>
      </trkpt>
      <trkpt lat="48.5295" lon="-2.73392">
        <ele>16.6</ele>
        <time>2020-08-12T07:12:31Z</time>
      </trkpt>
      <trkpt lat="48.52952" lon="-2.73318">
        <ele>14</ele>
        <time>2020-08-12T07:12:41Z</time>
      </trkpt>
      <trkpt lat="48.52944" lon="-2.73248">
        <ele>11.9</ele>
        <time>2020-08-12T07:12:51Z</time>
      </trkpt>
      <trkpt lat="48.52942" lon="-2.73227">
        <ele>12.1</ele>
        <time>2020-08-12T07:12:54Z</time>
      </trkpt>
      <trkpt lat="48.52939" lon="-2.73199">
        <ele>12.1</ele>
        <time>2020-08-12T07:12:58Z</time>
      </trkpt>
      <trkpt lat="48.52938" lon="-2.73153">
        <ele>10.4</ele>
        <time>2020-08-12T07:13:04Z</time>
      </trkpt>
      <trkpt lat="48.52944" lon="-2.73076">
        <ele>9.8</ele>
        <time>2020-08-12T07:13:14Z</time>
      </trkpt>
      <trkpt lat="48.52954" lon="-2.73032">
        <ele>10.8</ele>
        <time>2020-08-12T07:13:23Z</time>
      </trkpt>
      <trkpt lat="48.52977" lon="-2.72942">
        <ele>11.9</ele>
        <time>2020-08-12T07:13:33Z</time>
      </trkpt>
      <trkpt lat="48.52992" lon="-2.72864">
        <ele>9.9</ele>
        <time>2020-08-12T07:13:44Z</time>
      </trkpt>
      <trkpt lat="48.53002" lon="-2.72788">
        <ele>16.6</ele>
        <time>2020-08-12T07:13:54Z</time>
      </trkpt>
      <trkpt lat="48.53004" lon="-2.72766">
        <ele>14.4</ele>
        <time>2020-08-12T07:13:57Z</time>
      </trkpt>
      <trkpt lat="48.53015" lon="-2.72719">
        <ele>14.4</ele>
        <time>2020-08-12T07:14:04Z</time>
      </trkpt>
      <trkpt lat="48.53028" lon="-2.72688">
        <ele>14.8</ele>
        <time>2020-08-12T07:14:09Z</time>
      </trkpt>
      <trkpt lat="48.53054" lon="-2.72641">
        <ele>13.5</ele>
        <time>2020-08-12T07:14:18Z</time>
      </trkpt>
      <trkpt lat="48.53077" lon="-2.72599">
        <ele>11.9</ele>
        <time>2020-08-12T07:14:26Z</time>
      </trkpt>
      <trkpt lat="48.531" lon="-2.72557">
        <ele>15.3</ele>
        <time>2020-08-12T07:14:34Z</time>
      </trkpt>
      <trkpt lat="48.53126" lon="-2.7252">
        <ele>16.1</ele>
        <time>2020-08-12T07:14:42Z</time>
      </trkpt>
      <trkpt lat="48.53158" lon="-2.72478">
        <ele>12.8</ele>
        <time>2020-08-12T07:14:51Z</time>
      </trkpt>
      <trkpt lat="48.53191" lon="-2.72434">
        <ele>19.5</ele>
        <time>2020-08-12T07:15:01Z</time>
      </trkpt>
      <trkpt lat="48.53206" lon="-2.72416">
        <ele>16.7</ele>
        <time>2020-08-12T07:15:11Z</time>
      </trkpt>
      <trkpt lat="48.53243" lon="-2.72369">
        <ele>17.7</ele>
        <time>2020-08-12T07:15:19Z</time>
      </trkpt>
      <trkpt lat="48.53268" lon="-2.72334">
        <ele>23.1</ele>
        <time>2020-08-12T07:15:29Z</time>
      </trkpt>
      <trkpt lat="48.53293" lon="-2.72301">
        <ele>20.3</ele>
        <time>2020-08-12T07:15:39Z</time>
      </trkpt>
      <trkpt lat="48.53308" lon="-2.72279">
        <ele>20</ele>
        <time>2020-08-12T07:15:46Z</time>
      </trkpt>
      <trkpt lat="48.53327" lon="-2.72248">
        <ele>18.5</ele>
        <time>2020-08-12T07:15:56Z</time>
      </trkpt>
      <trkpt lat="48.53344" lon="-2.72219">
        <ele>23.4</ele>
        <time>2020-08-12T07:16:05Z</time>
      </trkpt>
      <trkpt lat="48.53368" lon="-2.72191">
        <ele>23.9</ele>
        <time>2020-08-12T07:16:15Z</time>
      </trkpt>
      <trkpt lat="48.53382" lon="-2.72174">
        <ele>24.9</ele>
        <time>2020-08-12T07:16:22Z</time>
      </trkpt>
      <trkpt lat="48.53399" lon="-2.72157">
        <ele>22.2</ele>
        <time>2020-08-12T07:16:31Z</time>
      </trkpt>
      <trkpt lat="48.53417" lon="-2.72137">
        <ele>28.2</ele>
        <time>2020-08-12T07:16:41Z</time>
      </trkpt>
      <trkpt lat="48.53434" lon="-2.72119">
        <ele>27.4</ele>
        <time>2020-08-12T07:16:51Z</time>
      </trkpt>
      <trkpt lat="48.53449" lon="-2.72103">
        <ele>27.7</ele>
        <time>2020-08-12T07:17:00Z</time>
      </trkpt>
      <trkpt lat="48.53458" lon="-2.72092">
        <ele>28.6</ele>
        <time>2020-08-12T07:17:06Z</time>
      </trkpt>
      <trkpt lat="48.5347" lon="-2.72079">
        <ele>24.9</ele>
        <time>2020-08-12T07:17:14Z</time>
      </trkpt>
      <trkpt lat="48.53477" lon="-2.72072">
        <ele>25.9</ele>
        <time>2020-08-12T07:17:18Z</time>
      </trkpt>
      <trkpt lat="48.53496" lon="-2.72049">
        <ele>25.3</ele>
        <time>2020-08-12T07:17:30Z</time>
      </trkpt>
      <trkpt lat="48.53512" lon="-2.7203">
        <ele>33.6</ele>
        <time>2020-08-12T07:17:40Z</time>
      </trkpt>
      <trkpt lat="48.53526" lon="-2.7201">
        <ele>33.2</ele>
        <time>2020-08-12T07:17:50Z</time>
      </trkpt>
      <trkpt lat="48.53539" lon="-2.71989">
        <ele>30.6</ele>
        <time>2020-08-12T07:17:59Z</time>
      </trkpt>
      <trkpt lat="48.53554" lon="-2.71966">
        <ele>31.4</ele>
        <time>2020-08-12T07:18:09Z</time>
      </trkpt>
      <trkpt lat="48.53571" lon="-2.71947">
        <ele>31.1</ele>
        <time>2020-08-12T07:18:18Z</time>
      </trkpt>
      <trkpt lat="48.53587" lon="-2.71932">
        <ele>33.2</ele>
        <time>2020-08-12T07:18:27Z</time>
      </trkpt>
      <trkpt lat="48.53602" lon="-2.7192">
        <ele>33.3</ele>
        <time>2020-08-12T07:18:35Z</time>
      </trkpt>
      <trkpt lat="48.53618" lon="-2.71917">
        <ele>34.4</ele>
        <time>2020-08-12T07:18:43Z</time>
      </trkpt>
      <trkpt lat="48.53634" lon="-2.71919">
        <ele>34.7</ele>
        <time>2020-08-12T07:18:51Z</time>
      </trkpt>
      <trkpt lat="48.53648" lon="-2.71927">
        <ele>34.6</ele>
        <time>2020-08-12T07:18:58Z</time>
      </trkpt>
      <trkpt lat="48.53662" lon="-2.71944">
        <ele>35.7</ele>
        <time>2020-08-12T07:19:07Z</time>
      </trkpt>
      <trkpt lat="48.53664" lon="-2.71948">
        <ele>36.1</ele>
        <time>2020-08-12T07:19:10Z</time>
      </trkpt>
      <trkpt lat="48.5368" lon="-2.71939">
        <ele>34.2</ele>
        <time>2020-08-12T07:19:16Z</time>
      </trkpt>
      <trkpt lat="48.5368" lon="-2.71939">
        <ele>34.2</ele>
        <time>2020-08-12T07:19:18Z</time>
      </trkpt>
      <trkpt lat="48.53682" lon="-2.71939">
        <ele>34.2</ele>
        <time>2020-08-12T07:24:05Z</time>
      </trkpt>
      <trkpt lat="48.53682" lon="-2.71939">
        <ele>34.2</ele>
        <time>2020-08-12T07:24:12Z</time>
      </trkpt>
      <trkpt lat="48.53682" lon="-2.71939">
        <ele>34.2</ele>
        <time>2020-08-12T07:24:15Z</time>
      </trkpt>
      <trkpt lat="48.53691" lon="-2.71982">
        <ele>37.7</ele>
        <time>2020-08-12T07:24:22Z</time>
      </trkpt>
      <trkpt lat="48.53688" lon="-2.71985">
        <ele>38.3</ele>
        <time>2020-08-12T07:24:24Z</time>
      </trkpt>
      <trkpt lat="48.53692" lon="-2.72013">
        <ele>42.6</ele>
        <time>2020-08-12T07:24:30Z</time>
      </trkpt>
      <trkpt lat="48.53695" lon="-2.72023">
        <ele>42.5</ele>
        <time>2020-08-12T07:24:38Z</time>
      </trkpt>
      <trkpt lat="48.53713" lon="-2.7207">
        <ele>42.3</ele>
        <time>2020-08-12T07:24:46Z</time>
      </trkpt>
      <trkpt lat="48.53721" lon="-2.72091">
        <ele>42.2</ele>
        <time>2020-08-12T07:24:52Z</time>
      </trkpt>
      <trkpt lat="48.53735" lon="-2.72127">
        <ele>41.9</ele>
        <time>2020-08-12T07:25:00Z</time>
      </trkpt>
      <trkpt lat="48.53754" lon="-2.72175">
        <ele>39.7</ele>
        <time>2020-08-12T07:25:08Z</time>
      </trkpt>
      <trkpt lat="48.53777" lon="-2.72223">
        <ele>39.4</ele>
        <time>2020-08-12T07:25:15Z</time>
      </trkpt>
      <trkpt lat="48.53811" lon="-2.72283">
        <ele>39.3</ele>
        <time>2020-08-12T07:25:24Z</time>
      </trkpt>
      <trkpt lat="48.53833" lon="-2.72323">
        <ele>38.6</ele>
        <time>2020-08-12T07:25:30Z</time>
      </trkpt>
      <trkpt lat="48.53836" lon="-2.72331">
        <ele>37.8</ele>
        <time>2020-08-12T07:25:31Z</time>
      </trkpt>
      <trkpt lat="48.53856" lon="-2.72393">
        <ele>39.3</ele>
        <time>2020-08-12T07:25:38Z</time>
      </trkpt>
      <trkpt lat="48.53868" lon="-2.72428">
        <ele>42.2</ele>
        <time>2020-08-12T07:25:43Z</time>
      </trkpt>
      <trkpt lat="48.53878" lon="-2.72455">
        <ele>42.9</ele>
        <time>2020-08-12T07:25:49Z</time>
      </trkpt>
      <trkpt lat="48.53893" lon="-2.7248">
        <ele>43.6</ele>
        <time>2020-08-12T07:25:58Z</time>
      </trkpt>
      <trkpt lat="48.53909" lon="-2.72507">
        <ele>45.8</ele>
        <time>2020-08-12T07:26:08Z</time>
      </trkpt>
      <trkpt lat="48.53919" lon="-2.72525">
        <ele>46.1</ele>
        <time>2020-08-12T07:26:15Z</time>
      </trkpt>
      <trkpt lat="48.53937" lon="-2.72552">
        <ele>46.9</ele>
        <time>2020-08-12T07:26:24Z</time>
      </trkpt>
      <trkpt lat="48.5396" lon="-2.72585">
        <ele>49.3</ele>
        <time>2020-08-12T07:26:34Z</time>
      </trkpt>
      <trkpt lat="48.5398" lon="-2.72611">
        <ele>49.4</ele>
        <time>2020-08-12T07:26:42Z</time>
      </trkpt>
      <trkpt lat="48.5401" lon="-2.72642">
        <ele>50.1</ele>
        <time>2020-08-12T07:26:53Z</time>
      </trkpt>
      <trkpt lat="48.54038" lon="-2.72668">
        <ele>52.5</ele>
        <time>2020-08-12T07:27:03Z</time>
      </trkpt>
      <trkpt lat="48.54057" lon="-2.72683">
        <ele>52.8</ele>
        <time>2020-08-12T07:27:11Z</time>
      </trkpt>
      <trkpt lat="48.54076" lon="-2.72696">
        <ele>53.1</ele>
        <time>2020-08-12T07:27:20Z</time>
      </trkpt>
      <trkpt lat="48.54093" lon="-2.7271">
        <ele>53.7</ele>
        <time>2020-08-12T07:27:29Z</time>
      </trkpt>
      <trkpt lat="48.54107" lon="-2.72724">
        <ele>54</ele>
        <time>2020-08-12T07:27:38Z</time>
      </trkpt>
      <trkpt lat="48.54121" lon="-2.72739">
        <ele>54</ele>
        <time>2020-08-12T07:27:47Z</time>
      </trkpt>
      <trkpt lat="48.54121" lon="-2.72739">
        <ele>54</ele>
        <time>2020-08-12T07:27:55Z</time>
      </trkpt>
      <trkpt lat="48.54149" lon="-2.72765">
        <ele>55.3</ele>
        <time>2020-08-12T07:28:00Z</time>
      </trkpt>
      <trkpt lat="48.54159" lon="-2.72774">
        <ele>55.4</ele>
        <time>2020-08-12T07:28:03Z</time>
      </trkpt>
      <trkpt lat="48.54171" lon="-2.72786">
        <ele>52.2</ele>
        <time>2020-08-12T07:28:11Z</time>
      </trkpt>
      <trkpt lat="48.54194" lon="-2.72839">
        <ele>54.3</ele>
        <time>2020-08-12T07:28:18Z</time>
      </trkpt>
      <trkpt lat="48.54199" lon="-2.72864">
        <ele>54.2</ele>
        <time>2020-08-12T07:28:22Z</time>
      </trkpt>
      <trkpt lat="48.54202" lon="-2.7292">
        <ele>56.2</ele>
        <time>2020-08-12T07:28:28Z</time>
      </trkpt>
      <trkpt lat="48.54205" lon="-2.72975">
        <ele>56.5</ele>
        <time>2020-08-12T07:28:34Z</time>
      </trkpt>
      <trkpt lat="48.54207" lon="-2.72982">
        <ele>56.5</ele>
        <time>2020-08-12T07:28:35Z</time>
      </trkpt>
      <trkpt lat="48.54225" lon="-2.7302">
        <ele>57.2</ele>
        <time>2020-08-12T07:28:42Z</time>
      </trkpt>
      <trkpt lat="48.54238" lon="-2.73049">
        <ele>57.7</ele>
        <time>2020-08-12T07:28:50Z</time>
      </trkpt>
      <trkpt lat="48.54251" lon="-2.73075">
        <ele>58.8</ele>
        <time>2020-08-12T07:28:58Z</time>
      </trkpt>
      <trkpt lat="48.54264" lon="-2.73106">
        <ele>60.5</ele>
        <time>2020-08-12T07:29:08Z</time>
      </trkpt>
      <trkpt lat="48.54272" lon="-2.73133">
        <ele>61.2</ele>
        <time>2020-08-12T07:29:18Z</time>
      </trkpt>
      <trkpt lat="48.54276" lon="-2.73153">
        <ele>61.5</ele>
        <time>2020-08-12T07:29:26Z</time>
      </trkpt>
      <trkpt lat="48.54277" lon="-2.73178">
        <ele>63.5</ele>
        <time>2020-08-12T07:29:35Z</time>
      </trkpt>
      <trkpt lat="48.54277" lon="-2.732">
        <ele>64</ele>
        <time>2020-08-12T07:29:42Z</time>
      </trkpt>
      <trkpt lat="48.54275" lon="-2.73224">
        <ele>64.6</ele>
        <time>2020-08-12T07:29:51Z</time>
      </trkpt>
      <trkpt lat="48.54274" lon="-2.73232">
        <ele>64.8</ele>
        <time>2020-08-12T07:29:59Z</time>
      </trkpt>
      <trkpt lat="48.54274" lon="-2.73232">
        <ele>64.8</ele>
        <time>2020-08-12T07:30:06Z</time>
      </trkpt>
      <trkpt lat="48.54264" lon="-2.73285">
        <ele>68.2</ele>
        <time>2020-08-12T07:30:14Z</time>
      </trkpt>
      <trkpt lat="48.54261" lon="-2.73317">
        <ele>69.6</ele>
        <time>2020-08-12T07:30:25Z</time>
      </trkpt>
      <trkpt lat="48.54259" lon="-2.73337">
        <ele>71.4</ele>
        <time>2020-08-12T07:30:32Z</time>
      </trkpt>
      <trkpt lat="48.54256" lon="-2.73365">
        <ele>72</ele>
        <time>2020-08-12T07:30:41Z</time>
      </trkpt>
      <trkpt lat="48.54255" lon="-2.73388">
        <ele>72.4</ele>
        <time>2020-08-12T07:30:49Z</time>
      </trkpt>
      <trkpt lat="48.54253" lon="-2.73418">
        <ele>73.2</ele>
        <time>2020-08-12T07:30:59Z</time>
      </trkpt>
      <trkpt lat="48.54251" lon="-2.73436">
        <ele>73.8</ele>
        <time>2020-08-12T07:31:05Z</time>
      </trkpt>
      <trkpt lat="48.54247" lon="-2.73467">
        <ele>73.7</ele>
        <time>2020-08-12T07:31:15Z</time>
      </trkpt>
      <trkpt lat="48.54243" lon="-2.73492">
        <ele>74.4</ele>
        <time>2020-08-12T07:31:23Z</time>
      </trkpt>
      <trkpt lat="48.5424" lon="-2.73518">
        <ele>75.5</ele>
        <time>2020-08-12T07:31:31Z</time>
      </trkpt>
      <trkpt lat="48.54236" lon="-2.73548">
        <ele>76.1</ele>
        <time>2020-08-12T07:31:40Z</time>
      </trkpt>
      <trkpt lat="48.54232" lon="-2.73577">
        <ele>76.8</ele>
        <time>2020-08-12T07:31:48Z</time>
      </trkpt>
      <trkpt lat="48.54229" lon="-2.73595">
        <ele>78.2</ele>
        <time>2020-08-12T07:31:53Z</time>
      </trkpt>
      <trkpt lat="48.54223" lon="-2.73639">
        <ele>79</ele>
        <time>2020-08-12T07:32:05Z</time>
      </trkpt>
      <trkpt lat="48.54217" lon="-2.73675">
        <ele>80.3</ele>
        <time>2020-08-12T07:32:15Z</time>
      </trkpt>
      <trkpt lat="48.54214" lon="-2.73707">
        <ele>80.3</ele>
        <time>2020-08-12T07:32:23Z</time>
      </trkpt>
      <trkpt lat="48.5421" lon="-2.73742">
        <ele>80.4</ele>
        <time>2020-08-12T07:32:32Z</time>
      </trkpt>
      <trkpt lat="48.54207" lon="-2.73777">
        <ele>80.7</ele>
        <time>2020-08-12T07:32:41Z</time>
      </trkpt>
      <trkpt lat="48.54204" lon="-2.73807">
        <ele>80.8</ele>
        <time>2020-08-12T07:32:49Z</time>
      </trkpt>
      <trkpt lat="48.54201" lon="-2.73838">
        <ele>81.5</ele>
        <time>2020-08-12T07:32:58Z</time>
      </trkpt>
      <trkpt lat="48.54198" lon="-2.7387">
        <ele>81.7</ele>
        <time>2020-08-12T07:33:07Z</time>
      </trkpt>
      <trkpt lat="48.54198" lon="-2.73896">
        <ele>82</ele>
        <time>2020-08-12T07:33:14Z</time>
      </trkpt>
      <trkpt lat="48.54199" lon="-2.73922">
        <ele>83</ele>
        <time>2020-08-12T07:33:22Z</time>
      </trkpt>
      <trkpt lat="48.54203" lon="-2.73962">
        <ele>83.3</ele>
        <time>2020-08-12T07:33:31Z</time>
      </trkpt>
      <trkpt lat="48.54206" lon="-2.73988">
        <ele>83.5</ele>
        <time>2020-08-12T07:33:38Z</time>
      </trkpt>
      <trkpt lat="48.54209" lon="-2.7401">
        <ele>84.5</ele>
        <time>2020-08-12T07:33:45Z</time>
      </trkpt>
      <trkpt lat="48.54215" lon="-2.74055">
        <ele>84.9</ele>
        <time>2020-08-12T07:33:58Z</time>
      </trkpt>
      <trkpt lat="48.54216" lon="-2.74064">
        <ele>85</ele>
        <time>2020-08-12T07:34:02Z</time>
      </trkpt>
      <trkpt lat="48.54217" lon="-2.74071">
        <ele>85.1</ele>
        <time>2020-08-12T07:34:06Z</time>
      </trkpt>
      <trkpt lat="48.54221" lon="-2.74106">
        <ele>85.8</ele>
        <time>2020-08-12T07:34:16Z</time>
      </trkpt>
      <trkpt lat="48.54224" lon="-2.74135">
        <ele>85.8</ele>
        <time>2020-08-12T07:34:24Z</time>
      </trkpt>
      <trkpt lat="48.54224" lon="-2.74176">
        <ele>86.1</ele>
        <time>2020-08-12T07:34:35Z</time>
      </trkpt>
      <trkpt lat="48.54223" lon="-2.7422">
        <ele>86.2</ele>
        <time>2020-08-12T07:34:45Z</time>
      </trkpt>
      <trkpt lat="48.54218" lon="-2.74262">
        <ele>86.4</ele>
        <time>2020-08-12T07:34:53Z</time>
      </trkpt>
      <trkpt lat="48.54212" lon="-2.74296">
        <ele>86.5</ele>
        <time>2020-08-12T07:35:00Z</time>
      </trkpt>
      <trkpt lat="48.54205" lon="-2.74335">
        <ele>87</ele>
        <time>2020-08-12T07:35:08Z</time>
      </trkpt>
      <trkpt lat="48.54195" lon="-2.74388">
        <ele>87.4</ele>
        <time>2020-08-12T07:35:19Z</time>
      </trkpt>
      <trkpt lat="48.54185" lon="-2.7444">
        <ele>88.4</ele>
        <time>2020-08-12T07:35:29Z</time>
      </trkpt>
      <trkpt lat="48.54178" lon="-2.74483">
        <ele>89.1</ele>
        <time>2020-08-12T07:35:37Z</time>
      </trkpt>
      <trkpt lat="48.54169" lon="-2.74528">
        <ele>89.3</ele>
        <time>2020-08-12T07:35:45Z</time>
      </trkpt>
      <trkpt lat="48.54159" lon="-2.74586">
        <ele>89.2</ele>
        <time>2020-08-12T07:35:55Z</time>
      </trkpt>
      <trkpt lat="48.54146" lon="-2.74654">
        <ele>89.8</ele>
        <time>2020-08-12T07:36:06Z</time>
      </trkpt>
      <trkpt lat="48.54133" lon="-2.74731">
        <ele>90.6</ele>
        <time>2020-08-12T07:36:18Z</time>
      </trkpt>
      <trkpt lat="48.54126" lon="-2.748">
        <ele>91.5</ele>
        <time>2020-08-12T07:36:28Z</time>
      </trkpt>
      <trkpt lat="48.54118" lon="-2.74866">
        <ele>92.3</ele>
        <time>2020-08-12T07:36:38Z</time>
      </trkpt>
      <trkpt lat="48.54111" lon="-2.74931">
        <ele>92.8</ele>
        <time>2020-08-12T07:36:47Z</time>
      </trkpt>
      <trkpt lat="48.54103" lon="-2.75003">
        <ele>93.7</ele>
        <time>2020-08-12T07:36:57Z</time>
      </trkpt>
      <trkpt lat="48.54103" lon="-2.75005">
        <ele>93.7</ele>
        <time>2020-08-12T07:37:01Z</time>
      </trkpt>
      <trkpt lat="48.54113" lon="-2.75033">
        <ele>93.6</ele>
        <time>2020-08-12T07:37:06Z</time>
      </trkpt>
      <trkpt lat="48.54115" lon="-2.75036">
        <ele>93.6</ele>
        <time>2020-08-12T07:37:09Z</time>
      </trkpt>
      <trkpt lat="48.54117" lon="-2.75037">
        <ele>93.6</ele>
        <time>2020-08-12T07:37:13Z</time>
      </trkpt>
      <trkpt lat="48.54095" lon="-2.75064">
        <ele>94.1</ele>
        <time>2020-08-12T07:37:22Z</time>
      </trkpt>
      <trkpt lat="48.54073" lon="-2.75095">
        <ele>95.5</ele>
        <time>2020-08-12T07:37:31Z</time>
      </trkpt>
      <trkpt lat="48.54047" lon="-2.7514">
        <ele>96.1</ele>
        <time>2020-08-12T07:37:41Z</time>
      </trkpt>
      <trkpt lat="48.54027" lon="-2.75181">
        <ele>96.6</ele>
        <time>2020-08-12T07:37:50Z</time>
      </trkpt>
      <trkpt lat="48.54012" lon="-2.75224">
        <ele>96.7</ele>
        <time>2020-08-12T07:37:59Z</time>
      </trkpt>
      <trkpt lat="48.53999" lon="-2.75276">
        <ele>97.9</ele>
        <time>2020-08-12T07:38:09Z</time>
      </trkpt>
      <trkpt lat="48.53991" lon="-2.75323">
        <ele>98.2</ele>
        <time>2020-08-12T07:38:18Z</time>
      </trkpt>
      <trkpt lat="48.53985" lon="-2.75362">
        <ele>98.8</ele>
        <time>2020-08-12T07:38:26Z</time>
      </trkpt>
      <trkpt lat="48.53972" lon="-2.75415">
        <ele>99</ele>
        <time>2020-08-12T07:38:36Z</time>
      </trkpt>
      <trkpt lat="48.53963" lon="-2.75448">
        <ele>99.6</ele>
        <time>2020-08-12T07:38:43Z</time>
      </trkpt>
      <trkpt lat="48.5396" lon="-2.75458">
        <ele>99.7</ele>
        <time>2020-08-12T07:38:46Z</time>
      </trkpt>
      <trkpt lat="48.53957" lon="-2.75466">
        <ele>99.8</ele>
        <time>2020-08-12T07:38:51Z</time>
      </trkpt>
      <trkpt lat="48.53951" lon="-2.75458">
        <ele>99.9</ele>
        <time>2020-08-12T07:38:54Z</time>
      </trkpt>
      <trkpt lat="48.53956" lon="-2.75471">
        <ele>99.8</ele>
        <time>2020-08-12T07:38:58Z</time>
      </trkpt>
      <trkpt lat="48.53944" lon="-2.75512">
        <ele>99.9</ele>
        <time>2020-08-12T07:39:07Z</time>
      </trkpt>
      <trkpt lat="48.53936" lon="-2.75539">
        <ele>99.8</ele>
        <time>2020-08-12T07:39:13Z</time>
      </trkpt>
      <trkpt lat="48.53922" lon="-2.75585">
        <ele>99.9</ele>
        <time>2020-08-12T07:39:22Z</time>
      </trkpt>
      <trkpt lat="48.53906" lon="-2.75635">
        <ele>100.8</ele>
        <time>2020-08-12T07:39:31Z</time>
      </trkpt>
      <trkpt lat="48.53894" lon="-2.75669">
        <ele>101.4</ele>
        <time>2020-08-12T07:39:38Z</time>
      </trkpt>
      <trkpt lat="48.53888" lon="-2.75686">
        <ele>101.6</ele>
        <time>2020-08-12T07:39:43Z</time>
      </trkpt>
      <trkpt lat="48.53887" lon="-2.7569">
        <ele>101.6</ele>
        <time>2020-08-12T07:39:45Z</time>
      </trkpt>
      <trkpt lat="48.53886" lon="-2.75693">
        <ele>101.6</ele>
        <time>2020-08-12T07:39:50Z</time>
      </trkpt>
      <trkpt lat="48.53883" lon="-2.75701">
        <ele>101.7</ele>
        <time>2020-08-12T07:40:07Z</time>
      </trkpt>
      <trkpt lat="48.53897" lon="-2.75724">
        <ele>101.6</ele>
        <time>2020-08-12T07:40:13Z</time>
      </trkpt>
      <trkpt lat="48.53914" lon="-2.75748">
        <ele>101.1</ele>
        <time>2020-08-12T07:40:21Z</time>
      </trkpt>
      <trkpt lat="48.53938" lon="-2.75783">
        <ele>99.6</ele>
        <time>2020-08-12T07:40:30Z</time>
      </trkpt>
      <trkpt lat="48.53949" lon="-2.7581">
        <ele>99.4</ele>
        <time>2020-08-12T07:40:37Z</time>
      </trkpt>
      <trkpt lat="48.53952" lon="-2.75825">
        <ele>99.4</ele>
        <time>2020-08-12T07:40:41Z</time>
      </trkpt>
      <trkpt lat="48.53955" lon="-2.75841">
        <ele>100.5</ele>
        <time>2020-08-12T07:40:50Z</time>
      </trkpt>
      <trkpt lat="48.53955" lon="-2.75841">
        <ele>100.5</ele>
        <time>2020-08-12T07:40:52Z</time>
      </trkpt>
      <trkpt lat="48.5396" lon="-2.75881">
        <ele>101.1</ele>
        <time>2020-08-12T07:41:00Z</time>
      </trkpt>
      <trkpt lat="48.53965" lon="-2.75901">
        <ele>101.4</ele>
        <time>2020-08-12T07:41:05Z</time>
      </trkpt>
      <trkpt lat="48.53977" lon="-2.75938">
        <ele>102.5</ele>
        <time>2020-08-12T07:41:13Z</time>
      </trkpt>
      <trkpt lat="48.53988" lon="-2.75961">
        <ele>102.5</ele>
        <time>2020-08-12T07:41:19Z</time>
      </trkpt>
      <trkpt lat="48.53993" lon="-2.7599">
        <ele>102.3</ele>
        <time>2020-08-12T07:41:25Z</time>
      </trkpt>
      <trkpt lat="48.53994" lon="-2.76037">
        <ele>102</ele>
        <time>2020-08-12T07:41:34Z</time>
      </trkpt>
      <trkpt lat="48.54005" lon="-2.76073">
        <ele>100.8</ele>
        <time>2020-08-12T07:41:41Z</time>
      </trkpt>
      <trkpt lat="48.5401" lon="-2.76082">
        <ele>100.8</ele>
        <time>2020-08-12T07:41:44Z</time>
      </trkpt>
      <trkpt lat="48.5401" lon="-2.76085">
        <ele>101.1</ele>
        <time>2020-08-12T07:41:49Z</time>
      </trkpt>
      <trkpt lat="48.5401" lon="-2.76085">
        <ele>101.1</ele>
        <time>2020-08-12T07:41:54Z</time>
      </trkpt>
      <trkpt lat="48.5399" lon="-2.76118">
        <ele>102.5</ele>
        <time>2020-08-12T07:42:03Z</time>
      </trkpt>
      <trkpt lat="48.53966" lon="-2.7615">
        <ele>103.3</ele>
        <time>2020-08-12T07:42:14Z</time>
      </trkpt>
      <trkpt lat="48.53948" lon="-2.76189">
        <ele>104.5</ele>
        <time>2020-08-12T07:42:26Z</time>
      </trkpt>
      <trkpt lat="48.53941" lon="-2.76215">
        <ele>104.5</ele>
        <time>2020-08-12T07:42:34Z</time>
      </trkpt>
      <trkpt lat="48.53934" lon="-2.76238">
        <ele>104.6</ele>
        <time>2020-08-12T07:42:41Z</time>
      </trkpt>
      <trkpt lat="48.53955" lon="-2.76267">
        <ele>104.9</ele>
        <time>2020-08-12T07:42:49Z</time>
      </trkpt>
      <trkpt lat="48.53983" lon="-2.76295">
        <ele>105.3</ele>
        <time>2020-08-12T07:42:58Z</time>
      </trkpt>
      <trkpt lat="48.5402" lon="-2.76336">
        <ele>106.7</ele>
        <time>2020-08-12T07:43:08Z</time>
      </trkpt>
      <trkpt lat="48.5406" lon="-2.76383">
        <ele>106.2</ele>
        <time>2020-08-12T07:43:18Z</time>
      </trkpt>
      <trkpt lat="48.54097" lon="-2.76427">
        <ele>105.4</ele>
        <time>2020-08-12T07:43:27Z</time>
      </trkpt>
      <trkpt lat="48.54141" lon="-2.76485">
        <ele>105.9</ele>
        <time>2020-08-12T07:43:38Z</time>
      </trkpt>
      <trkpt lat="48.54174" lon="-2.76535">
        <ele>105.7</ele>
        <time>2020-08-12T07:43:47Z</time>
      </trkpt>
      <trkpt lat="48.54178" lon="-2.7654">
        <ele>105.7</ele>
        <time>2020-08-12T07:43:48Z</time>
      </trkpt>
      <trkpt lat="48.542" lon="-2.76549">
        <ele>105.6</ele>
        <time>2020-08-12T07:43:52Z</time>
      </trkpt>
      <trkpt lat="48.54205" lon="-2.76547">
        <ele>105.5</ele>
        <time>2020-08-12T07:43:53Z</time>
      </trkpt>
      <trkpt lat="48.54215" lon="-2.76542">
        <ele>105.5</ele>
        <time>2020-08-12T07:43:55Z</time>
      </trkpt>
      <trkpt lat="48.54237" lon="-2.76531">
        <ele>105.3</ele>
        <time>2020-08-12T07:43:59Z</time>
      </trkpt>
      <trkpt lat="48.54274" lon="-2.76522">
        <ele>102.9</ele>
        <time>2020-08-12T07:44:05Z</time>
      </trkpt>
      <trkpt lat="48.54317" lon="-2.7652">
        <ele>101.1</ele>
        <time>2020-08-12T07:44:11Z</time>
      </trkpt>
      <trkpt lat="48.54349" lon="-2.76518">
        <ele>98.2</ele>
        <time>2020-08-12T07:44:16Z</time>
      </trkpt>
      <trkpt lat="48.54369" lon="-2.76523">
        <ele>97.7</ele>
        <time>2020-08-12T07:44:20Z</time>
      </trkpt>
      <trkpt lat="48.54361" lon="-2.76548">
        <ele>98.1</ele>
        <time>2020-08-12T07:44:27Z</time>
      </trkpt>
      <trkpt lat="48.54351" lon="-2.76571">
        <ele>98.7</ele>
        <time>2020-08-12T07:44:34Z</time>
      </trkpt>
      <trkpt lat="48.54336" lon="-2.76604">
        <ele>100.1</ele>
        <time>2020-08-12T07:44:44Z</time>
      </trkpt>
      <trkpt lat="48.54325" lon="-2.76626">
        <ele>102.7</ele>
        <time>2020-08-12T07:44:52Z</time>
      </trkpt>
      <trkpt lat="48.54316" lon="-2.76652">
        <ele>103.1</ele>
        <time>2020-08-12T07:44:59Z</time>
      </trkpt>
      <trkpt lat="48.54313" lon="-2.76682">
        <ele>103.5</ele>
        <time>2020-08-12T07:45:05Z</time>
      </trkpt>
      <trkpt lat="48.54316" lon="-2.76716">
        <ele>103.4</ele>
        <time>2020-08-12T07:45:14Z</time>
      </trkpt>
      <trkpt lat="48.54314" lon="-2.76752">
        <ele>102.9</ele>
        <time>2020-08-12T07:45:21Z</time>
      </trkpt>
      <trkpt lat="48.5432" lon="-2.7679">
        <ele>103</ele>
        <time>2020-08-12T07:45:27Z</time>
      </trkpt>
      <trkpt lat="48.54345" lon="-2.76842">
        <ele>101.7</ele>
        <time>2020-08-12T07:45:37Z</time>
      </trkpt>
      <trkpt lat="48.54353" lon="-2.76857">
        <ele>101.5</ele>
        <time>2020-08-12T07:45:40Z</time>
      </trkpt>
      <trkpt lat="48.54372" lon="-2.76896">
        <ele>101.1</ele>
        <time>2020-08-12T07:45:47Z</time>
      </trkpt>
      <trkpt lat="48.54393" lon="-2.76938">
        <ele>100.2</ele>
        <time>2020-08-12T07:45:55Z</time>
      </trkpt>
      <trkpt lat="48.54411" lon="-2.76979">
        <ele>100.2</ele>
        <time>2020-08-12T07:46:03Z</time>
      </trkpt>
      <trkpt lat="48.54428" lon="-2.77015">
        <ele>100.9</ele>
        <time>2020-08-12T07:46:10Z</time>
      </trkpt>
      <trkpt lat="48.54451" lon="-2.77064">
        <ele>102.2</ele>
        <time>2020-08-12T07:46:20Z</time>
      </trkpt>
      <trkpt lat="48.54472" lon="-2.77109">
        <ele>104.4</ele>
        <time>2020-08-12T07:46:30Z</time>
      </trkpt>
      <trkpt lat="48.54491" lon="-2.77147">
        <ele>105.1</ele>
        <time>2020-08-12T07:46:39Z</time>
      </trkpt>
      <trkpt lat="48.54506" lon="-2.77176">
        <ele>105.7</ele>
        <time>2020-08-12T07:46:46Z</time>
      </trkpt>
      <trkpt lat="48.54527" lon="-2.77214">
        <ele>105.3</ele>
        <time>2020-08-12T07:46:55Z</time>
      </trkpt>
      <trkpt lat="48.54544" lon="-2.77233">
        <ele>105.2</ele>
        <time>2020-08-12T07:47:00Z</time>
      </trkpt>
      <trkpt lat="48.54567" lon="-2.77246">
        <ele>105.1</ele>
        <time>2020-08-12T07:47:06Z</time>
      </trkpt>
      <trkpt lat="48.54598" lon="-2.77253">
        <ele>105.2</ele>
        <time>2020-08-12T07:47:14Z</time>
      </trkpt>
      <trkpt lat="48.54621" lon="-2.77256">
        <ele>105.3</ele>
        <time>2020-08-12T07:47:22Z</time>
      </trkpt>
      <trkpt lat="48.5463" lon="-2.77259">
        <ele>105.3</ele>
        <time>2020-08-12T07:47:28Z</time>
      </trkpt>
      <trkpt lat="48.5463" lon="-2.77259">
        <ele>105.3</ele>
        <time>2020-08-12T07:47:29Z</time>
      </trkpt>
      <trkpt lat="48.54636" lon="-2.77263">
        <ele>105.4</ele>
        <time>2020-08-12T07:47:47Z</time>
      </trkpt>
      <trkpt lat="48.54653" lon="-2.77267">
        <ele>105.3</ele>
        <time>2020-08-12T07:47:53Z</time>
      </trkpt>
      <trkpt lat="48.54657" lon="-2.77267">
        <ele>105.3</ele>
        <time>2020-08-12T07:48:01Z</time>
      </trkpt>
      <trkpt lat="48.54701" lon="-2.77281">
        <ele>105.6</ele>
        <time>2020-08-12T07:48:09Z</time>
      </trkpt>
      <trkpt lat="48.5472" lon="-2.77284">
        <ele>105.6</ele>
        <time>2020-08-12T07:48:16Z</time>
      </trkpt>
      <trkpt lat="48.54743" lon="-2.77286">
        <ele>105.5</ele>
        <time>2020-08-12T07:48:24Z</time>
      </trkpt>
      <trkpt lat="48.54765" lon="-2.77289">
        <ele>106.3</ele>
        <time>2020-08-12T07:48:33Z</time>
      </trkpt>
      <trkpt lat="48.54789" lon="-2.77293">
        <ele>106.7</ele>
        <time>2020-08-12T07:48:41Z</time>
      </trkpt>
      <trkpt lat="48.54813" lon="-2.77296">
        <ele>107.1</ele>
        <time>2020-08-12T07:48:49Z</time>
      </trkpt>
      <trkpt lat="48.54846" lon="-2.77298">
        <ele>107.9</ele>
        <time>2020-08-12T07:48:59Z</time>
      </trkpt>
      <trkpt lat="48.5487" lon="-2.77298">
        <ele>107.9</ele>
        <time>2020-08-12T07:49:06Z</time>
      </trkpt>
      <trkpt lat="48.54887" lon="-2.77293">
        <ele>107.7</ele>
        <time>2020-08-12T07:49:12Z</time>
      </trkpt>
      <trkpt lat="48.54904" lon="-2.77289">
        <ele>107.6</ele>
        <time>2020-08-12T07:49:18Z</time>
      </trkpt>
      <trkpt lat="48.54911" lon="-2.77293">
        <ele>107.7</ele>
        <time>2020-08-12T07:49:22Z</time>
      </trkpt>
      <trkpt lat="48.54908" lon="-2.77306">
        <ele>108</ele>
        <time>2020-08-12T07:49:24Z</time>
      </trkpt>
      <trkpt lat="48.54902" lon="-2.7732">
        <ele>108.3</ele>
        <time>2020-08-12T07:49:31Z</time>
      </trkpt>
      <trkpt lat="48.54883" lon="-2.77365">
        <ele>109.2</ele>
        <time>2020-08-12T07:49:39Z</time>
      </trkpt>
      <trkpt lat="48.54869" lon="-2.77396">
        <ele>109.3</ele>
        <time>2020-08-12T07:49:47Z</time>
      </trkpt>
      <trkpt lat="48.54851" lon="-2.77434">
        <ele>109.5</ele>
        <time>2020-08-12T07:49:57Z</time>
      </trkpt>
      <trkpt lat="48.54837" lon="-2.77466">
        <ele>110</ele>
        <time>2020-08-12T07:50:05Z</time>
      </trkpt>
      <trkpt lat="48.54823" lon="-2.77495">
        <ele>110.5</ele>
        <time>2020-08-12T07:50:12Z</time>
      </trkpt>
      <trkpt lat="48.54808" lon="-2.77537">
        <ele>110.5</ele>
        <time>2020-08-12T07:50:21Z</time>
      </trkpt>
      <trkpt lat="48.54793" lon="-2.77568">
        <ele>110.5</ele>
        <time>2020-08-12T07:50:28Z</time>
      </trkpt>
      <trkpt lat="48.54772" lon="-2.77599">
        <ele>110.8</ele>
        <time>2020-08-12T07:50:36Z</time>
      </trkpt>
      <trkpt lat="48.5475" lon="-2.77627">
        <ele>111.5</ele>
        <time>2020-08-12T07:50:44Z</time>
      </trkpt>
      <trkpt lat="48.5473" lon="-2.77659">
        <ele>111.5</ele>
        <time>2020-08-12T07:50:52Z</time>
      </trkpt>
      <trkpt lat="48.54706" lon="-2.77704">
        <ele>112</ele>
        <time>2020-08-12T07:51:02Z</time>
      </trkpt>
      <trkpt lat="48.54681" lon="-2.7775">
        <ele>112</ele>
        <time>2020-08-12T07:51:12Z</time>
      </trkpt>
      <trkpt lat="48.54668" lon="-2.77775">
        <ele>112</ele>
        <time>2020-08-12T07:51:17Z</time>
      </trkpt>
      <trkpt lat="48.54671" lon="-2.778">
        <ele>112</ele>
        <time>2020-08-12T07:51:21Z</time>
      </trkpt>
      <trkpt lat="48.54702" lon="-2.77829">
        <ele>112</ele>
        <time>2020-08-12T07:51:30Z</time>
      </trkpt>
      <trkpt lat="48.54731" lon="-2.7786">
        <ele>111.8</ele>
        <time>2020-08-12T07:51:39Z</time>
      </trkpt>
      <trkpt lat="48.54759" lon="-2.77894">
        <ele>111.5</ele>
        <time>2020-08-12T07:51:48Z</time>
      </trkpt>
      <trkpt lat="48.5477" lon="-2.77911">
        <ele>111.4</ele>
        <time>2020-08-12T07:51:52Z</time>
      </trkpt>
      <trkpt lat="48.54798" lon="-2.77953">
        <ele>112</ele>
        <time>2020-08-12T07:52:01Z</time>
      </trkpt>
      <trkpt lat="48.54808" lon="-2.77967">
        <ele>112</ele>
        <time>2020-08-12T07:52:04Z</time>
      </trkpt>
      <trkpt lat="48.54815" lon="-2.77985">
        <ele>112.1</ele>
        <time>2020-08-12T07:52:08Z</time>
      </trkpt>
      <trkpt lat="48.54811" lon="-2.77999">
        <ele>112.1</ele>
        <time>2020-08-12T07:52:11Z</time>
      </trkpt>
      <trkpt lat="48.548" lon="-2.78018">
        <ele>112.4</ele>
        <time>2020-08-12T07:52:15Z</time>
      </trkpt>
      <trkpt lat="48.54777" lon="-2.78061">
        <ele>112.6</ele>
        <time>2020-08-12T07:52:24Z</time>
      </trkpt>
      <trkpt lat="48.54761" lon="-2.78099">
        <ele>113.1</ele>
        <time>2020-08-12T07:52:32Z</time>
      </trkpt>
      <trkpt lat="48.54757" lon="-2.78129">
        <ele>113.4</ele>
        <time>2020-08-12T07:52:37Z</time>
      </trkpt>
      <trkpt lat="48.54755" lon="-2.78157">
        <ele>113.7</ele>
        <time>2020-08-12T07:52:42Z</time>
      </trkpt>
      <trkpt lat="48.54741" lon="-2.78199">
        <ele>113.7</ele>
        <time>2020-08-12T07:52:50Z</time>
      </trkpt>
      <trkpt lat="48.54727" lon="-2.78242">
        <ele>113.5</ele>
        <time>2020-08-12T07:52:58Z</time>
      </trkpt>
      <trkpt lat="48.54717" lon="-2.78284">
        <ele>113</ele>
        <time>2020-08-12T07:53:06Z</time>
      </trkpt>
      <trkpt lat="48.54705" lon="-2.78326">
        <ele>112.9</ele>
        <time>2020-08-12T07:53:14Z</time>
      </trkpt>
      <trkpt lat="48.54697" lon="-2.78362">
        <ele>112.7</ele>
        <time>2020-08-12T07:53:21Z</time>
      </trkpt>
      <trkpt lat="48.54691" lon="-2.78402">
        <ele>112.9</ele>
        <time>2020-08-12T07:53:28Z</time>
      </trkpt>
      <trkpt lat="48.54691" lon="-2.78444">
        <ele>113.8</ele>
        <time>2020-08-12T07:53:36Z</time>
      </trkpt>
      <trkpt lat="48.54704" lon="-2.78473">
        <ele>114</ele>
        <time>2020-08-12T07:53:42Z</time>
      </trkpt>
      <trkpt lat="48.54727" lon="-2.7851">
        <ele>114.7</ele>
        <time>2020-08-12T07:53:51Z</time>
      </trkpt>
      <trkpt lat="48.54751" lon="-2.78546">
        <ele>114.7</ele>
        <time>2020-08-12T07:54:00Z</time>
      </trkpt>
      <trkpt lat="48.54785" lon="-2.78593">
        <ele>114.8</ele>
        <time>2020-08-12T07:54:12Z</time>
      </trkpt>
      <trkpt lat="48.54815" lon="-2.78633">
        <ele>115</ele>
        <time>2020-08-12T07:54:23Z</time>
      </trkpt>
      <trkpt lat="48.54841" lon="-2.78668">
        <ele>116.5</ele>
        <time>2020-08-12T07:54:33Z</time>
      </trkpt>
      <trkpt lat="48.54868" lon="-2.78705">
        <ele>117.9</ele>
        <time>2020-08-12T07:54:44Z</time>
      </trkpt>
      <trkpt lat="48.5489" lon="-2.78735">
        <ele>118.5</ele>
        <time>2020-08-12T07:54:53Z</time>
      </trkpt>
      <trkpt lat="48.54913" lon="-2.78767">
        <ele>119.4</ele>
        <time>2020-08-12T07:55:04Z</time>
      </trkpt>
      <trkpt lat="48.54933" lon="-2.78793">
        <ele>120.7</ele>
        <time>2020-08-12T07:55:13Z</time>
      </trkpt>
      <trkpt lat="48.54957" lon="-2.78827">
        <ele>121</ele>
        <time>2020-08-12T07:55:24Z</time>
      </trkpt>
      <trkpt lat="48.54984" lon="-2.78864">
        <ele>122.3</ele>
        <time>2020-08-12T07:55:36Z</time>
      </trkpt>
      <trkpt lat="48.54996" lon="-2.78881">
        <ele>122.6</ele>
        <time>2020-08-12T07:55:42Z</time>
      </trkpt>
      <trkpt lat="48.5501" lon="-2.78898">
        <ele>124</ele>
        <time>2020-08-12T07:55:49Z</time>
      </trkpt>
      <trkpt lat="48.55028" lon="-2.7892">
        <ele>125.2</ele>
        <time>2020-08-12T07:55:57Z</time>
      </trkpt>
      <trkpt lat="48.5504" lon="-2.78936">
        <ele>125.5</ele>
        <time>2020-08-12T07:56:03Z</time>
      </trkpt>
      <trkpt lat="48.55049" lon="-2.78947">
        <ele>125.8</ele>
        <time>2020-08-12T07:56:09Z</time>
      </trkpt>
      <trkpt lat="48.55053" lon="-2.78952">
        <ele>125.9</ele>
        <time>2020-08-12T07:56:16Z</time>
      </trkpt>
      <trkpt lat="48.55053" lon="-2.78952">
        <ele>125.9</ele>
        <time>2020-08-12T07:56:22Z</time>
      </trkpt>
      <trkpt lat="48.55053" lon="-2.78952">
        <ele>125.9</ele>
        <time>2020-08-12T07:56:32Z</time>
      </trkpt>
      <trkpt lat="48.55053" lon="-2.78952">
        <ele>125.9</ele>
        <time>2020-08-12T07:56:40Z</time>
      </trkpt>
      <trkpt lat="48.55131" lon="-2.79027">
        <ele>128.2</ele>
        <time>2020-08-12T07:56:47Z</time>
      </trkpt>
      <trkpt lat="48.55153" lon="-2.79052">
        <ele>128.3</ele>
        <time>2020-08-12T07:56:55Z</time>
      </trkpt>
      <trkpt lat="48.55176" lon="-2.79077">
        <ele>128.3</ele>
        <time>2020-08-12T07:57:03Z</time>
      </trkpt>
      <trkpt lat="48.55196" lon="-2.79099">
        <ele>127.8</ele>
        <time>2020-08-12T07:57:10Z</time>
      </trkpt>
      <trkpt lat="48.55213" lon="-2.79116">
        <ele>127.4</ele>
        <time>2020-08-12T07:57:16Z</time>
      </trkpt>
      <trkpt lat="48.55236" lon="-2.79141">
        <ele>127.2</ele>
        <time>2020-08-12T07:57:23Z</time>
      </trkpt>
      <trkpt lat="48.55243" lon="-2.79149">
        <ele>127.2</ele>
        <time>2020-08-12T07:57:25Z</time>
      </trkpt>
      <trkpt lat="48.55268" lon="-2.79175">
        <ele>125.8</ele>
        <time>2020-08-12T07:57:31Z</time>
      </trkpt>
      <trkpt lat="48.5529" lon="-2.79198">
        <ele>124.9</ele>
        <time>2020-08-12T07:57:36Z</time>
      </trkpt>
      <trkpt lat="48.55294" lon="-2.79203">
        <ele>124.7</ele>
        <time>2020-08-12T07:57:37Z</time>
      </trkpt>
      <trkpt lat="48.55326" lon="-2.79242">
        <ele>123</ele>
        <time>2020-08-12T07:57:44Z</time>
      </trkpt>
      <trkpt lat="48.5535" lon="-2.7927">
        <ele>120.7</ele>
        <time>2020-08-12T07:57:49Z</time>
      </trkpt>
      <trkpt lat="48.55379" lon="-2.79304">
        <ele>119.9</ele>
        <time>2020-08-12T07:57:55Z</time>
      </trkpt>
      <trkpt lat="48.55411" lon="-2.79339">
        <ele>118.8</ele>
        <time>2020-08-12T07:58:02Z</time>
      </trkpt>
      <trkpt lat="48.55446" lon="-2.79375">
        <ele>117.1</ele>
        <time>2020-08-12T07:58:09Z</time>
      </trkpt>
      <trkpt lat="48.5546" lon="-2.79391">
        <ele>116.8</ele>
        <time>2020-08-12T07:58:12Z</time>
      </trkpt>
      <trkpt lat="48.55477" lon="-2.79401">
        <ele>116</ele>
        <time>2020-08-12T07:58:17Z</time>
      </trkpt>
      <trkpt lat="48.55487" lon="-2.79404">
        <ele>115.5</ele>
        <time>2020-08-12T07:58:21Z</time>
      </trkpt>
      <trkpt lat="48.555" lon="-2.7939">
        <ele>115.6</ele>
        <time>2020-08-12T07:58:26Z</time>
      </trkpt>
      <trkpt lat="48.55505" lon="-2.79381">
        <ele>113.1</ele>
        <time>2020-08-12T07:58:28Z</time>
      </trkpt>
      <trkpt lat="48.55524" lon="-2.79369">
        <ele>112.8</ele>
        <time>2020-08-12T07:58:33Z</time>
      </trkpt>
      <trkpt lat="48.55534" lon="-2.79383">
        <ele>112.7</ele>
        <time>2020-08-12T07:58:37Z</time>
      </trkpt>
      <trkpt lat="48.55543" lon="-2.79406">
        <ele>112.6</ele>
        <time>2020-08-12T07:58:44Z</time>
      </trkpt>
      <trkpt lat="48.55552" lon="-2.79431">
        <ele>112.5</ele>
        <time>2020-08-12T07:58:52Z</time>
      </trkpt>
      <trkpt lat="48.55562" lon="-2.79455">
        <ele>112.4</ele>
        <time>2020-08-12T07:58:59Z</time>
      </trkpt>
      <trkpt lat="48.55569" lon="-2.79492">
        <ele>112.2</ele>
        <time>2020-08-12T07:59:07Z</time>
      </trkpt>
      <trkpt lat="48.55574" lon="-2.79541">
        <ele>112.2</ele>
        <time>2020-08-12T07:59:16Z</time>
      </trkpt>
      <trkpt lat="48.55576" lon="-2.79582">
        <ele>112.1</ele>
        <time>2020-08-12T07:59:23Z</time>
      </trkpt>
      <trkpt lat="48.55574" lon="-2.79635">
        <ele>110.5</ele>
        <time>2020-08-12T07:59:32Z</time>
      </trkpt>
      <trkpt lat="48.55573" lon="-2.79648">
        <ele>109.9</ele>
        <time>2020-08-12T07:59:34Z</time>
      </trkpt>
      <trkpt lat="48.55579" lon="-2.79671">
        <ele>107.4</ele>
        <time>2020-08-12T07:59:38Z</time>
      </trkpt>
      <trkpt lat="48.55586" lon="-2.79676">
        <ele>105</ele>
        <time>2020-08-12T07:59:40Z</time>
      </trkpt>
      <trkpt lat="48.55605" lon="-2.79673">
        <ele>102.7</ele>
        <time>2020-08-12T07:59:45Z</time>
      </trkpt>
      <trkpt lat="48.55632" lon="-2.79656">
        <ele>106.7</ele>
        <time>2020-08-12T07:59:53Z</time>
      </trkpt>
      <trkpt lat="48.55666" lon="-2.79647">
        <ele>105.3</ele>
        <time>2020-08-12T08:00:00Z</time>
      </trkpt>
      <trkpt lat="48.55708" lon="-2.79643">
        <ele>103.2</ele>
        <time>2020-08-12T08:00:07Z</time>
      </trkpt>
      <trkpt lat="48.55754" lon="-2.79637">
        <ele>99.2</ele>
        <time>2020-08-12T08:00:14Z</time>
      </trkpt>
      <trkpt lat="48.55767" lon="-2.79638">
        <ele>98.9</ele>
        <time>2020-08-12T08:00:17Z</time>
      </trkpt>
      <trkpt lat="48.55777" lon="-2.79659">
        <ele>98</ele>
        <time>2020-08-12T08:00:23Z</time>
      </trkpt>
      <trkpt lat="48.55788" lon="-2.79698">
        <ele>92</ele>
        <time>2020-08-12T08:00:33Z</time>
      </trkpt>
      <trkpt lat="48.55795" lon="-2.79725">
        <ele>90.9</ele>
        <time>2020-08-12T08:00:41Z</time>
      </trkpt>
      <trkpt lat="48.55798" lon="-2.79736">
        <ele>90.7</ele>
        <time>2020-08-12T08:00:48Z</time>
      </trkpt>
      <trkpt lat="48.55799" lon="-2.79747">
        <ele>90.5</ele>
        <time>2020-08-12T08:03:02Z</time>
      </trkpt>
      <trkpt lat="48.55807" lon="-2.79776">
        <ele>92.4</ele>
        <time>2020-08-12T08:03:10Z</time>
      </trkpt>
      <trkpt lat="48.55818" lon="-2.79813">
        <ele>95.4</ele>
        <time>2020-08-12T08:03:20Z</time>
      </trkpt>
      <trkpt lat="48.55822" lon="-2.7982">
        <ele>96.4</ele>
        <time>2020-08-12T08:03:22Z</time>
      </trkpt>
      <trkpt lat="48.55839" lon="-2.7982">
        <ele>97</ele>
        <time>2020-08-12T08:03:26Z</time>
      </trkpt>
      <trkpt lat="48.55851" lon="-2.79818">
        <ele>95.9</ele>
        <time>2020-08-12T08:03:28Z</time>
      </trkpt>
      <trkpt lat="48.55865" lon="-2.79818">
        <ele>95</ele>
        <time>2020-08-12T08:03:30Z</time>
      </trkpt>
      <trkpt lat="48.55906" lon="-2.79808">
        <ele>93.9</ele>
        <time>2020-08-12T08:03:36Z</time>
      </trkpt>
      <trkpt lat="48.55923" lon="-2.79815">
        <ele>93.3</ele>
        <time>2020-08-12T08:03:40Z</time>
      </trkpt>
      <trkpt lat="48.55927" lon="-2.79832">
        <ele>94.4</ele>
        <time>2020-08-12T08:03:43Z</time>
      </trkpt>
      <trkpt lat="48.55934" lon="-2.79885">
        <ele>97.8</ele>
        <time>2020-08-12T08:03:53Z</time>
      </trkpt>
      <trkpt lat="48.55933" lon="-2.79913">
        <ele>99.7</ele>
        <time>2020-08-12T08:03:59Z</time>
      </trkpt>
      <trkpt lat="48.55935" lon="-2.79939">
        <ele>101.1</ele>
        <time>2020-08-12T08:04:05Z</time>
      </trkpt>
      <trkpt lat="48.55942" lon="-2.7998">
        <ele>101.7</ele>
        <time>2020-08-12T08:04:13Z</time>
      </trkpt>
      <trkpt lat="48.55946" lon="-2.79999">
        <ele>101.9</ele>
        <time>2020-08-12T08:04:16Z</time>
      </trkpt>
      <trkpt lat="48.55959" lon="-2.80035">
        <ele>102.4</ele>
        <time>2020-08-12T08:04:23Z</time>
      </trkpt>
      <trkpt lat="48.55989" lon="-2.80063">
        <ele>101.6</ele>
        <time>2020-08-12T08:04:29Z</time>
      </trkpt>
      <trkpt lat="48.56017" lon="-2.80085">
        <ele>103.5</ele>
        <time>2020-08-12T08:04:34Z</time>
      </trkpt>
      <trkpt lat="48.56033" lon="-2.80098">
        <ele>105</ele>
        <time>2020-08-12T08:04:39Z</time>
      </trkpt>
      <trkpt lat="48.56043" lon="-2.8011">
        <ele>105.7</ele>
        <time>2020-08-12T08:04:46Z</time>
      </trkpt>
      <trkpt lat="48.56043" lon="-2.80113">
        <ele>105.8</ele>
        <time>2020-08-12T08:04:47Z</time>
      </trkpt>
      <trkpt lat="48.56044" lon="-2.80134">
        <ele>106.3</ele>
        <time>2020-08-12T08:04:54Z</time>
      </trkpt>
      <trkpt lat="48.56044" lon="-2.80157">
        <ele>106.7</ele>
        <time>2020-08-12T08:05:02Z</time>
      </trkpt>
      <trkpt lat="48.56041" lon="-2.80172">
        <ele>108.6</ele>
        <time>2020-08-12T08:05:08Z</time>
      </trkpt>
      <trkpt lat="48.5604" lon="-2.80196">
        <ele>108.8</ele>
        <time>2020-08-12T08:05:16Z</time>
      </trkpt>
      <trkpt lat="48.56042" lon="-2.80209">
        <ele>109</ele>
        <time>2020-08-12T08:05:21Z</time>
      </trkpt>
      <trkpt lat="48.56045" lon="-2.80225">
        <ele>109.3</ele>
        <time>2020-08-12T08:05:26Z</time>
      </trkpt>
      <trkpt lat="48.5605" lon="-2.80246">
        <ele>109.5</ele>
        <time>2020-08-12T08:05:33Z</time>
      </trkpt>
      <trkpt lat="48.56057" lon="-2.80271">
        <ele>110.8</ele>
        <time>2020-08-12T08:05:42Z</time>
      </trkpt>
      <trkpt lat="48.56066" lon="-2.80297">
        <ele>111</ele>
        <time>2020-08-12T08:05:52Z</time>
      </trkpt>
      <trkpt lat="48.56068" lon="-2.80301">
        <ele>111.1</ele>
        <time>2020-08-12T08:05:54Z</time>
      </trkpt>
      <trkpt lat="48.56069" lon="-2.80332">
        <ele>111.5</ele>
        <time>2020-08-12T08:06:02Z</time>
      </trkpt>
      <trkpt lat="48.56067" lon="-2.80361">
        <ele>112.4</ele>
        <time>2020-08-12T08:06:10Z</time>
      </trkpt>
      <trkpt lat="48.56067" lon="-2.80389">
        <ele>112.9</ele>
        <time>2020-08-12T08:06:19Z</time>
      </trkpt>
      <trkpt lat="48.56077" lon="-2.80402">
        <ele>113.3</ele>
        <time>2020-08-12T08:06:25Z</time>
      </trkpt>
      <trkpt lat="48.56095" lon="-2.80425">
        <ele>114.6</ele>
        <time>2020-08-12T08:06:36Z</time>
      </trkpt>
      <trkpt lat="48.56113" lon="-2.80447">
        <ele>115.1</ele>
        <time>2020-08-12T08:06:46Z</time>
      </trkpt>
      <trkpt lat="48.56124" lon="-2.80458">
        <ele>115.2</ele>
        <time>2020-08-12T08:06:52Z</time>
      </trkpt>
      <trkpt lat="48.56138" lon="-2.80474">
        <ele>115.4</ele>
        <time>2020-08-12T08:07:00Z</time>
      </trkpt>
      <trkpt lat="48.56157" lon="-2.80498">
        <ele>115.8</ele>
        <time>2020-08-12T08:07:11Z</time>
      </trkpt>
      <trkpt lat="48.56165" lon="-2.8052">
        <ele>115.8</ele>
        <time>2020-08-12T08:07:18Z</time>
      </trkpt>
      <trkpt lat="48.56172" lon="-2.80557">
        <ele>115.7</ele>
        <time>2020-08-12T08:07:26Z</time>
      </trkpt>
      <trkpt lat="48.56179" lon="-2.80598">
        <ele>116</ele>
        <time>2020-08-12T08:07:32Z</time>
      </trkpt>
      <trkpt lat="48.56196" lon="-2.80627">
        <ele>115.4</ele>
        <time>2020-08-12T08:07:37Z</time>
      </trkpt>
      <trkpt lat="48.562" lon="-2.80631">
        <ele>115.4</ele>
        <time>2020-08-12T08:07:38Z</time>
      </trkpt>
      <trkpt lat="48.56236" lon="-2.80651">
        <ele>115.1</ele>
        <time>2020-08-12T08:07:47Z</time>
      </trkpt>
      <trkpt lat="48.56252" lon="-2.8066">
        <ele>114.3</ele>
        <time>2020-08-12T08:07:52Z</time>
      </trkpt>
      <trkpt lat="48.56253" lon="-2.80669">
        <ele>114.7</ele>
        <time>2020-08-12T08:07:56Z</time>
      </trkpt>
      <trkpt lat="48.56251" lon="-2.80693">
        <ele>114</ele>
        <time>2020-08-12T08:08:03Z</time>
      </trkpt>
      <trkpt lat="48.56245" lon="-2.80725">
        <ele>115</ele>
        <time>2020-08-12T08:08:11Z</time>
      </trkpt>
      <trkpt lat="48.56237" lon="-2.80769">
        <ele>114.6</ele>
        <time>2020-08-12T08:08:22Z</time>
      </trkpt>
      <trkpt lat="48.56231" lon="-2.80807">
        <ele>114.4</ele>
        <time>2020-08-12T08:08:31Z</time>
      </trkpt>
      <trkpt lat="48.56223" lon="-2.80857">
        <ele>114</ele>
        <time>2020-08-12T08:08:42Z</time>
      </trkpt>
      <trkpt lat="48.56213" lon="-2.80904">
        <ele>113.7</ele>
        <time>2020-08-12T08:08:53Z</time>
      </trkpt>
      <trkpt lat="48.56213" lon="-2.80908">
        <ele>113.7</ele>
        <time>2020-08-12T08:08:54Z</time>
      </trkpt>
      <trkpt lat="48.56212" lon="-2.80924">
        <ele>113.5</ele>
        <time>2020-08-12T08:08:59Z</time>
      </trkpt>
      <trkpt lat="48.5621" lon="-2.80927">
        <ele>113.5</ele>
        <time>2020-08-12T08:09:00Z</time>
      </trkpt>
      <trkpt lat="48.56197" lon="-2.80946">
        <ele>113.5</ele>
        <time>2020-08-12T08:09:05Z</time>
      </trkpt>
      <trkpt lat="48.56185" lon="-2.80972">
        <ele>113.6</ele>
        <time>2020-08-12T08:09:10Z</time>
      </trkpt>
      <trkpt lat="48.56179" lon="-2.80998">
        <ele>113.8</ele>
        <time>2020-08-12T08:09:15Z</time>
      </trkpt>
      <trkpt lat="48.56179" lon="-2.81003">
        <ele>113.7</ele>
        <time>2020-08-12T08:09:16Z</time>
      </trkpt>
      <trkpt lat="48.56191" lon="-2.81027">
        <ele>113.4</ele>
        <time>2020-08-12T08:09:21Z</time>
      </trkpt>
      <trkpt lat="48.56204" lon="-2.8103">
        <ele>113.3</ele>
        <time>2020-08-12T08:09:24Z</time>
      </trkpt>
      <trkpt lat="48.5623" lon="-2.81033">
        <ele>113.1</ele>
        <time>2020-08-12T08:09:30Z</time>
      </trkpt>
      <trkpt lat="48.56241" lon="-2.81052">
        <ele>112.9</ele>
        <time>2020-08-12T08:09:34Z</time>
      </trkpt>
      <trkpt lat="48.5625" lon="-2.8107">
        <ele>112.2</ele>
        <time>2020-08-12T08:09:37Z</time>
      </trkpt>
      <trkpt lat="48.56269" lon="-2.8109">
        <ele>110.5</ele>
        <time>2020-08-12T08:09:42Z</time>
      </trkpt>
      <trkpt lat="48.56288" lon="-2.81104">
        <ele>109.6</ele>
        <time>2020-08-12T08:09:48Z</time>
      </trkpt>
      <trkpt lat="48.56319" lon="-2.81125">
        <ele>108.9</ele>
        <time>2020-08-12T08:09:54Z</time>
      </trkpt>
      <trkpt lat="48.56344" lon="-2.81136">
        <ele>107</ele>
        <time>2020-08-12T08:09:59Z</time>
      </trkpt>
      <trkpt lat="48.56358" lon="-2.81143">
        <ele>106.8</ele>
        <time>2020-08-12T08:10:03Z</time>
      </trkpt>
      <trkpt lat="48.5639" lon="-2.8116">
        <ele>106.2</ele>
        <time>2020-08-12T08:10:10Z</time>
      </trkpt>
      <trkpt lat="48.5643" lon="-2.81185">
        <ele>104.5</ele>
        <time>2020-08-12T08:10:17Z</time>
      </trkpt>
      <trkpt lat="48.56466" lon="-2.81216">
        <ele>104.3</ele>
        <time>2020-08-12T08:10:23Z</time>
      </trkpt>
      <trkpt lat="48.565" lon="-2.81258">
        <ele>104.7</ele>
        <time>2020-08-12T08:10:30Z</time>
      </trkpt>
      <trkpt lat="48.5652" lon="-2.81283">
        <ele>105.5</ele>
        <time>2020-08-12T08:10:35Z</time>
      </trkpt>
      <trkpt lat="48.56538" lon="-2.81313">
        <ele>105.8</ele>
        <time>2020-08-12T08:10:42Z</time>
      </trkpt>
      <trkpt lat="48.56556" lon="-2.81343">
        <ele>106.9</ele>
        <time>2020-08-12T08:10:51Z</time>
      </trkpt>
      <trkpt lat="48.56574" lon="-2.81366">
        <ele>107.2</ele>
        <time>2020-08-12T08:10:59Z</time>
      </trkpt>
      <trkpt lat="48.56594" lon="-2.8139">
        <ele>108.1</ele>
        <time>2020-08-12T08:11:07Z</time>
      </trkpt>
      <trkpt lat="48.56626" lon="-2.81414">
        <ele>108</ele>
        <time>2020-08-12T08:11:17Z</time>
      </trkpt>
      <trkpt lat="48.56655" lon="-2.8143">
        <ele>108.3</ele>
        <time>2020-08-12T08:11:25Z</time>
      </trkpt>
      <trkpt lat="48.56699" lon="-2.81457">
        <ele>107.8</ele>
        <time>2020-08-12T08:11:36Z</time>
      </trkpt>
      <trkpt lat="48.56732" lon="-2.81484">
        <ele>107.8</ele>
        <time>2020-08-12T08:11:45Z</time>
      </trkpt>
      <trkpt lat="48.56751" lon="-2.81503">
        <ele>108</ele>
        <time>2020-08-12T08:11:51Z</time>
      </trkpt>
      <trkpt lat="48.56759" lon="-2.81507">
        <ele>108.1</ele>
        <time>2020-08-12T08:11:53Z</time>
      </trkpt>
      <trkpt lat="48.56768" lon="-2.81519">
        <ele>108.2</ele>
        <time>2020-08-12T08:11:56Z</time>
      </trkpt>
      <trkpt lat="48.56797" lon="-2.81554">
        <ele>108.3</ele>
        <time>2020-08-12T08:12:05Z</time>
      </trkpt>
      <trkpt lat="48.56829" lon="-2.81589">
        <ele>108.4</ele>
        <time>2020-08-12T08:12:14Z</time>
      </trkpt>
      <trkpt lat="48.56861" lon="-2.81627">
        <ele>107.7</ele>
        <time>2020-08-12T08:12:23Z</time>
      </trkpt>
      <trkpt lat="48.56887" lon="-2.81658">
        <ele>107.5</ele>
        <time>2020-08-12T08:12:30Z</time>
      </trkpt>
      <trkpt lat="48.56921" lon="-2.81693">
        <ele>106.3</ele>
        <time>2020-08-12T08:12:39Z</time>
      </trkpt>
      <trkpt lat="48.5695" lon="-2.81723">
        <ele>105.9</ele>
        <time>2020-08-12T08:12:47Z</time>
      </trkpt>
      <trkpt lat="48.56968" lon="-2.8175">
        <ele>105.7</ele>
        <time>2020-08-12T08:12:53Z</time>
      </trkpt>
      <trkpt lat="48.57008" lon="-2.818">
        <ele>104.2</ele>
        <time>2020-08-12T08:13:05Z</time>
      </trkpt>
      <trkpt lat="48.57028" lon="-2.81819">
        <ele>104</ele>
        <time>2020-08-12T08:13:10Z</time>
      </trkpt>
      <trkpt lat="48.57046" lon="-2.81821">
        <ele>103.6</ele>
        <time>2020-08-12T08:13:14Z</time>
      </trkpt>
      <trkpt lat="48.57058" lon="-2.81817">
        <ele>103.3</ele>
        <time>2020-08-12T08:13:17Z</time>
      </trkpt>
      <trkpt lat="48.57084" lon="-2.81827">
        <ele>101.7</ele>
        <time>2020-08-12T08:13:23Z</time>
      </trkpt>
      <trkpt lat="48.57088" lon="-2.8183">
        <ele>101.7</ele>
        <time>2020-08-12T08:13:24Z</time>
      </trkpt>
      <trkpt lat="48.57103" lon="-2.81845">
        <ele>100.8</ele>
        <time>2020-08-12T08:13:28Z</time>
      </trkpt>
      <trkpt lat="48.57122" lon="-2.81883">
        <ele>100</ele>
        <time>2020-08-12T08:13:35Z</time>
      </trkpt>
      <trkpt lat="48.57128" lon="-2.81894">
        <ele>99.8</ele>
        <time>2020-08-12T08:13:37Z</time>
      </trkpt>
      <trkpt lat="48.57148" lon="-2.81914">
        <ele>99.1</ele>
        <time>2020-08-12T08:13:43Z</time>
      </trkpt>
      <trkpt lat="48.57178" lon="-2.81941">
        <ele>95.5</ele>
        <time>2020-08-12T08:13:49Z</time>
      </trkpt>
      <trkpt lat="48.57208" lon="-2.81974">
        <ele>94</ele>
        <time>2020-08-12T08:13:55Z</time>
      </trkpt>
      <trkpt lat="48.57219" lon="-2.81988">
        <ele>93.6</ele>
        <time>2020-08-12T08:13:58Z</time>
      </trkpt>
      <trkpt lat="48.57235" lon="-2.81995">
        <ele>93</ele>
        <time>2020-08-12T08:14:02Z</time>
      </trkpt>
      <trkpt lat="48.57243" lon="-2.81981">
        <ele>93.2</ele>
        <time>2020-08-12T08:14:05Z</time>
      </trkpt>
      <trkpt lat="48.57263" lon="-2.8193">
        <ele>92.1</ele>
        <time>2020-08-12T08:14:15Z</time>
      </trkpt>
      <trkpt lat="48.57276" lon="-2.81897">
        <ele>92</ele>
        <time>2020-08-12T08:14:22Z</time>
      </trkpt>
      <trkpt lat="48.57294" lon="-2.81855">
        <ele>91.8</ele>
        <time>2020-08-12T08:14:31Z</time>
      </trkpt>
      <trkpt lat="48.5731" lon="-2.81812">
        <ele>92.1</ele>
        <time>2020-08-12T08:14:40Z</time>
      </trkpt>
      <trkpt lat="48.57309" lon="-2.81804">
        <ele>92.2</ele>
        <time>2020-08-12T08:14:45Z</time>
      </trkpt>
      <trkpt lat="48.57313" lon="-2.818">
        <ele>92.2</ele>
        <time>2020-08-12T08:14:59Z</time>
      </trkpt>
      <trkpt lat="48.57317" lon="-2.81796">
        <ele>92.2</ele>
        <time>2020-08-12T08:15:03Z</time>
      </trkpt>
      <trkpt lat="48.57324" lon="-2.8178">
        <ele>92.2</ele>
        <time>2020-08-12T08:15:08Z</time>
      </trkpt>
      <trkpt lat="48.57335" lon="-2.81752">
        <ele>91.9</ele>
        <time>2020-08-12T08:15:15Z</time>
      </trkpt>
      <trkpt lat="48.57347" lon="-2.81717">
        <ele>91.9</ele>
        <time>2020-08-12T08:15:23Z</time>
      </trkpt>
      <trkpt lat="48.57351" lon="-2.81683">
        <ele>92.2</ele>
        <time>2020-08-12T08:15:30Z</time>
      </trkpt>
      <trkpt lat="48.57348" lon="-2.81644">
        <ele>92.6</ele>
        <time>2020-08-12T08:15:38Z</time>
      </trkpt>
      <trkpt lat="48.57349" lon="-2.81609">
        <ele>92.8</ele>
        <time>2020-08-12T08:15:45Z</time>
      </trkpt>
      <trkpt lat="48.57357" lon="-2.81578">
        <ele>93.1</ele>
        <time>2020-08-12T08:15:52Z</time>
      </trkpt>
      <trkpt lat="48.57361" lon="-2.81567">
        <ele>93</ele>
        <time>2020-08-12T08:15:55Z</time>
      </trkpt>
      <trkpt lat="48.57362" lon="-2.81558">
        <ele>92.9</ele>
        <time>2020-08-12T08:16:00Z</time>
      </trkpt>
      <trkpt lat="48.57379" lon="-2.81551">
        <ele>92.7</ele>
        <time>2020-08-12T08:16:14Z</time>
      </trkpt>
      <trkpt lat="48.574" lon="-2.81549">
        <ele>92.3</ele>
        <time>2020-08-12T08:16:20Z</time>
      </trkpt>
      <trkpt lat="48.57436" lon="-2.8155">
        <ele>90.7</ele>
        <time>2020-08-12T08:16:28Z</time>
      </trkpt>
      <trkpt lat="48.5748" lon="-2.81552">
        <ele>90.3</ele>
        <time>2020-08-12T08:16:37Z</time>
      </trkpt>
      <trkpt lat="48.57519" lon="-2.81553">
        <ele>88.7</ele>
        <time>2020-08-12T08:16:45Z</time>
      </trkpt>
      <trkpt lat="48.5757" lon="-2.81555">
        <ele>87.8</ele>
        <time>2020-08-12T08:16:54Z</time>
      </trkpt>
      <trkpt lat="48.57599" lon="-2.81559">
        <ele>86.7</ele>
        <time>2020-08-12T08:16:59Z</time>
      </trkpt>
      <trkpt lat="48.57616" lon="-2.81565">
        <ele>86.6</ele>
        <time>2020-08-12T08:17:02Z</time>
      </trkpt>
      <trkpt lat="48.57667" lon="-2.81595">
        <ele>86.1</ele>
        <time>2020-08-12T08:17:12Z</time>
      </trkpt>
      <trkpt lat="48.57724" lon="-2.81631">
        <ele>86.3</ele>
        <time>2020-08-12T08:17:23Z</time>
      </trkpt>
      <trkpt lat="48.5777" lon="-2.81659">
        <ele>86.3</ele>
        <time>2020-08-12T08:17:32Z</time>
      </trkpt>
      <trkpt lat="48.57809" lon="-2.81666">
        <ele>86.3</ele>
        <time>2020-08-12T08:17:39Z</time>
      </trkpt>
      <trkpt lat="48.57846" lon="-2.81672">
        <ele>85.9</ele>
        <time>2020-08-12T08:17:46Z</time>
      </trkpt>
      <trkpt lat="48.5786" lon="-2.81676">
        <ele>85.8</ele>
        <time>2020-08-12T08:17:49Z</time>
      </trkpt>
      <trkpt lat="48.5787" lon="-2.8167">
        <ele>85.8</ele>
        <time>2020-08-12T08:17:52Z</time>
      </trkpt>
      <trkpt lat="48.57871" lon="-2.81664">
        <ele>86.2</ele>
        <time>2020-08-12T08:17:53Z</time>
      </trkpt>
      <trkpt lat="48.57872" lon="-2.8163">
        <ele>86.2</ele>
        <time>2020-08-12T08:17:58Z</time>
      </trkpt>
      <trkpt lat="48.57885" lon="-2.81566">
        <ele>86.4</ele>
        <time>2020-08-12T08:18:07Z</time>
      </trkpt>
      <trkpt lat="48.57893" lon="-2.81516">
        <ele>86.4</ele>
        <time>2020-08-12T08:18:14Z</time>
      </trkpt>
      <trkpt lat="48.57894" lon="-2.81509">
        <ele>86.3</ele>
        <time>2020-08-12T08:18:15Z</time>
      </trkpt>
      <trkpt lat="48.5791" lon="-2.81454">
        <ele>86.7</ele>
        <time>2020-08-12T08:18:24Z</time>
      </trkpt>
      <trkpt lat="48.57925" lon="-2.81418">
        <ele>86.5</ele>
        <time>2020-08-12T08:18:31Z</time>
      </trkpt>
      <trkpt lat="48.5794" lon="-2.81367">
        <ele>86.2</ele>
        <time>2020-08-12T08:18:41Z</time>
      </trkpt>
      <trkpt lat="48.57948" lon="-2.81317">
        <ele>86.6</ele>
        <time>2020-08-12T08:18:49Z</time>
      </trkpt>
      <trkpt lat="48.57955" lon="-2.81285">
        <ele>86.3</ele>
        <time>2020-08-12T08:18:54Z</time>
      </trkpt>
      <trkpt lat="48.57964" lon="-2.81284">
        <ele>86.1</ele>
        <time>2020-08-12T08:18:59Z</time>
      </trkpt>
      <trkpt lat="48.57998" lon="-2.8129">
        <ele>85.8</ele>
        <time>2020-08-12T08:19:06Z</time>
      </trkpt>
      <trkpt lat="48.58021" lon="-2.81289">
        <ele>83.5</ele>
        <time>2020-08-12T08:19:11Z</time>
      </trkpt>
      <trkpt lat="48.58037" lon="-2.81289">
        <ele>83.1</ele>
        <time>2020-08-12T08:19:16Z</time>
      </trkpt>
      <trkpt lat="48.58065" lon="-2.81287">
        <ele>82.5</ele>
        <time>2020-08-12T08:19:22Z</time>
      </trkpt>
      <trkpt lat="48.58103" lon="-2.81291">
        <ele>80.6</ele>
        <time>2020-08-12T08:19:30Z</time>
      </trkpt>
      <trkpt lat="48.58134" lon="-2.8129">
        <ele>80.4</ele>
        <time>2020-08-12T08:19:37Z</time>
      </trkpt>
      <trkpt lat="48.58171" lon="-2.81283">
        <ele>79.8</ele>
        <time>2020-08-12T08:19:45Z</time>
      </trkpt>
      <trkpt lat="48.58211" lon="-2.81277">
        <ele>79.7</ele>
        <time>2020-08-12T08:19:52Z</time>
      </trkpt>
      <trkpt lat="48.58258" lon="-2.81271">
        <ele>79.3</ele>
        <time>2020-08-12T08:20:00Z</time>
      </trkpt>
      <trkpt lat="48.58289" lon="-2.81278">
        <ele>79.4</ele>
        <time>2020-08-12T08:20:06Z</time>
      </trkpt>
      <trkpt lat="48.58321" lon="-2.81278">
        <ele>79.4</ele>
        <time>2020-08-12T08:20:12Z</time>
      </trkpt>
      <trkpt lat="48.58341" lon="-2.81268">
        <ele>80.1</ele>
        <time>2020-08-12T08:20:16Z</time>
      </trkpt>
      <trkpt lat="48.58382" lon="-2.81229">
        <ele>80.3</ele>
        <time>2020-08-12T08:20:26Z</time>
      </trkpt>
      <trkpt lat="48.58387" lon="-2.81225">
        <ele>80.3</ele>
        <time>2020-08-12T08:20:27Z</time>
      </trkpt>
      <trkpt lat="48.58409" lon="-2.81221">
        <ele>80.6</ele>
        <time>2020-08-12T08:20:32Z</time>
      </trkpt>
      <trkpt lat="48.58435" lon="-2.81223">
        <ele>80.2</ele>
        <time>2020-08-12T08:20:38Z</time>
      </trkpt>
      <trkpt lat="48.58452" lon="-2.81223">
        <ele>79.8</ele>
        <time>2020-08-12T08:20:44Z</time>
      </trkpt>
      <trkpt lat="48.58472" lon="-2.81228">
        <ele>79.5</ele>
        <time>2020-08-12T08:20:52Z</time>
      </trkpt>
      <trkpt lat="48.58488" lon="-2.81237">
        <ele>79.2</ele>
        <time>2020-08-12T08:20:58Z</time>
      </trkpt>
      <trkpt lat="48.58515" lon="-2.81249">
        <ele>78.6</ele>
        <time>2020-08-12T08:21:07Z</time>
      </trkpt>
      <trkpt lat="48.58541" lon="-2.8126">
        <ele>78.5</ele>
        <time>2020-08-12T08:21:14Z</time>
      </trkpt>
      <trkpt lat="48.5856" lon="-2.81266">
        <ele>78.4</ele>
        <time>2020-08-12T08:21:19Z</time>
      </trkpt>
      <trkpt lat="48.58564" lon="-2.81268">
        <ele>78.3</ele>
        <time>2020-08-12T08:21:20Z</time>
      </trkpt>
      <trkpt lat="48.58587" lon="-2.81276">
        <ele>77.8</ele>
        <time>2020-08-12T08:21:26Z</time>
      </trkpt>
      <trkpt lat="48.58621" lon="-2.81289">
        <ele>77.8</ele>
        <time>2020-08-12T08:21:34Z</time>
      </trkpt>
      <trkpt lat="48.58653" lon="-2.81306">
        <ele>77.8</ele>
        <time>2020-08-12T08:21:42Z</time>
      </trkpt>
      <trkpt lat="48.58675" lon="-2.81317">
        <ele>77.5</ele>
        <time>2020-08-12T08:21:49Z</time>
      </trkpt>
      <trkpt lat="48.58694" lon="-2.8133">
        <ele>77.3</ele>
        <time>2020-08-12T08:21:56Z</time>
      </trkpt>
      <trkpt lat="48.58716" lon="-2.81349">
        <ele>77.6</ele>
        <time>2020-08-12T08:22:04Z</time>
      </trkpt>
      <trkpt lat="48.58738" lon="-2.81377">
        <ele>77.5</ele>
        <time>2020-08-12T08:22:11Z</time>
      </trkpt>
      <trkpt lat="48.58763" lon="-2.81412">
        <ele>76.9</ele>
        <time>2020-08-12T08:22:18Z</time>
      </trkpt>
      <trkpt lat="48.58794" lon="-2.81447">
        <ele>76.3</ele>
        <time>2020-08-12T08:22:25Z</time>
      </trkpt>
      <trkpt lat="48.58824" lon="-2.81478">
        <ele>76.1</ele>
        <time>2020-08-12T08:22:32Z</time>
      </trkpt>
      <trkpt lat="48.58844" lon="-2.81494">
        <ele>75.6</ele>
        <time>2020-08-12T08:22:37Z</time>
      </trkpt>
      <trkpt lat="48.58872" lon="-2.81509">
        <ele>75.1</ele>
        <time>2020-08-12T08:22:43Z</time>
      </trkpt>
      <trkpt lat="48.58904" lon="-2.81523">
        <ele>74.6</ele>
        <time>2020-08-12T08:22:50Z</time>
      </trkpt>
      <trkpt lat="48.58923" lon="-2.81532">
        <ele>72.6</ele>
        <time>2020-08-12T08:22:54Z</time>
      </trkpt>
      <trkpt lat="48.58927" lon="-2.81554">
        <ele>72.6</ele>
        <time>2020-08-12T08:22:59Z</time>
      </trkpt>
      <trkpt lat="48.58925" lon="-2.81559">
        <ele>72.7</ele>
        <time>2020-08-12T08:23:00Z</time>
      </trkpt>
      <trkpt lat="48.58914" lon="-2.81598">
        <ele>74.3</ele>
        <time>2020-08-12T08:23:07Z</time>
      </trkpt>
      <trkpt lat="48.58913" lon="-2.81605">
        <ele>74.4</ele>
        <time>2020-08-12T08:23:08Z</time>
      </trkpt>
      <trkpt lat="48.58913" lon="-2.81661">
        <ele>74.2</ele>
        <time>2020-08-12T08:23:17Z</time>
      </trkpt>
      <trkpt lat="48.58916" lon="-2.81717">
        <ele>74.9</ele>
        <time>2020-08-12T08:23:28Z</time>
      </trkpt>
      <trkpt lat="48.58923" lon="-2.81754">
        <ele>74.2</ele>
        <time>2020-08-12T08:23:37Z</time>
      </trkpt>
      <trkpt lat="48.58928" lon="-2.81782">
        <ele>73</ele>
        <time>2020-08-12T08:23:45Z</time>
      </trkpt>
      <trkpt lat="48.58923" lon="-2.81806">
        <ele>73.2</ele>
        <time>2020-08-12T08:23:52Z</time>
      </trkpt>
      <trkpt lat="48.58923" lon="-2.81807">
        <ele>73.2</ele>
        <time>2020-08-12T08:23:54Z</time>
      </trkpt>
      <trkpt lat="48.58924" lon="-2.81812">
        <ele>73.4</ele>
        <time>2020-08-12T08:24:34Z</time>
      </trkpt>
      <trkpt lat="48.58924" lon="-2.81812">
        <ele>73.4</ele>
        <time>2020-08-12T08:24:36Z</time>
      </trkpt>
      <trkpt lat="48.58932" lon="-2.81833">
        <ele>73.6</ele>
        <time>2020-08-12T08:25:15Z</time>
      </trkpt>
      <trkpt lat="48.5895" lon="-2.81857">
        <ele>72.5</ele>
        <time>2020-08-12T08:25:20Z</time>
      </trkpt>
      <trkpt lat="48.58964" lon="-2.81872">
        <ele>72.1</ele>
        <time>2020-08-12T08:25:23Z</time>
      </trkpt>
      <trkpt lat="48.58986" lon="-2.81882">
        <ele>71.5</ele>
        <time>2020-08-12T08:25:28Z</time>
      </trkpt>
      <trkpt lat="48.59027" lon="-2.81882">
        <ele>68.8</ele>
        <time>2020-08-12T08:25:35Z</time>
      </trkpt>
      <trkpt lat="48.59054" lon="-2.81875">
        <ele>68.4</ele>
        <time>2020-08-12T08:25:40Z</time>
      </trkpt>
      <trkpt lat="48.59068" lon="-2.81874">
        <ele>68.2</ele>
        <time>2020-08-12T08:25:44Z</time>
      </trkpt>
      <trkpt lat="48.59073" lon="-2.81881">
        <ele>68.4</ele>
        <time>2020-08-12T08:25:46Z</time>
      </trkpt>
      <trkpt lat="48.59074" lon="-2.81904">
        <ele>69.2</ele>
        <time>2020-08-12T08:25:52Z</time>
      </trkpt>
      <trkpt lat="48.59076" lon="-2.81925">
        <ele>70.1</ele>
        <time>2020-08-12T08:25:59Z</time>
      </trkpt>
      <trkpt lat="48.59081" lon="-2.81942">
        <ele>70.2</ele>
        <time>2020-08-12T08:26:06Z</time>
      </trkpt>
      <trkpt lat="48.59093" lon="-2.81965">
        <ele>70.1</ele>
        <time>2020-08-12T08:26:16Z</time>
      </trkpt>
      <trkpt lat="48.59103" lon="-2.81977">
        <ele>70.2</ele>
        <time>2020-08-12T08:26:23Z</time>
      </trkpt>
      <trkpt lat="48.59117" lon="-2.81989">
        <ele>70.3</ele>
        <time>2020-08-12T08:26:31Z</time>
      </trkpt>
      <trkpt lat="48.59134" lon="-2.8201">
        <ele>71.4</ele>
        <time>2020-08-12T08:26:38Z</time>
      </trkpt>
      <trkpt lat="48.59149" lon="-2.82034">
        <ele>71.6</ele>
        <time>2020-08-12T08:26:45Z</time>
      </trkpt>
      <trkpt lat="48.59161" lon="-2.82055">
        <ele>71.8</ele>
        <time>2020-08-12T08:26:51Z</time>
      </trkpt>
      <trkpt lat="48.59182" lon="-2.82082">
        <ele>70.6</ele>
        <time>2020-08-12T08:26:59Z</time>
      </trkpt>
      <trkpt lat="48.59202" lon="-2.82104">
        <ele>69.4</ele>
        <time>2020-08-12T08:27:05Z</time>
      </trkpt>
      <trkpt lat="48.59229" lon="-2.82133">
        <ele>68.9</ele>
        <time>2020-08-12T08:27:13Z</time>
      </trkpt>
      <trkpt lat="48.59247" lon="-2.82173">
        <ele>69</ele>
        <time>2020-08-12T08:27:22Z</time>
      </trkpt>
      <trkpt lat="48.59261" lon="-2.82191">
        <ele>66.3</ele>
        <time>2020-08-12T08:27:28Z</time>
      </trkpt>
      <trkpt lat="48.59264" lon="-2.82194">
        <ele>66</ele>
        <time>2020-08-12T08:27:31Z</time>
      </trkpt>
      <trkpt lat="48.59261" lon="-2.82211">
        <ele>65.6</ele>
        <time>2020-08-12T08:27:36Z</time>
      </trkpt>
      <trkpt lat="48.59259" lon="-2.82216">
        <ele>65.5</ele>
        <time>2020-08-12T08:27:37Z</time>
      </trkpt>
      <trkpt lat="48.59251" lon="-2.82231">
        <ele>65.6</ele>
        <time>2020-08-12T08:27:40Z</time>
      </trkpt>
      <trkpt lat="48.59252" lon="-2.82241">
        <ele>65.7</ele>
        <time>2020-08-12T08:27:42Z</time>
      </trkpt>
      <trkpt lat="48.59257" lon="-2.82252">
        <ele>64.7</ele>
        <time>2020-08-12T08:27:44Z</time>
      </trkpt>
      <trkpt lat="48.59283" lon="-2.82285">
        <ele>61.4</ele>
        <time>2020-08-12T08:27:50Z</time>
      </trkpt>
      <trkpt lat="48.59313" lon="-2.82315">
        <ele>59.9</ele>
        <time>2020-08-12T08:27:56Z</time>
      </trkpt>
      <trkpt lat="48.59335" lon="-2.82335">
        <ele>57.4</ele>
        <time>2020-08-12T08:28:02Z</time>
      </trkpt>
      <trkpt lat="48.59341" lon="-2.8234">
        <ele>55.7</ele>
        <time>2020-08-12T08:28:04Z</time>
      </trkpt>
      <trkpt lat="48.59352" lon="-2.82339">
        <ele>54.5</ele>
        <time>2020-08-12T08:28:10Z</time>
      </trkpt>
      <trkpt lat="48.59347" lon="-2.82353">
        <ele>53.8</ele>
        <time>2020-08-12T08:28:14Z</time>
      </trkpt>
      <trkpt lat="48.59335" lon="-2.82379">
        <ele>51.3</ele>
        <time>2020-08-12T08:28:21Z</time>
      </trkpt>
      <trkpt lat="48.59335" lon="-2.82389">
        <ele>50.2</ele>
        <time>2020-08-12T08:28:23Z</time>
      </trkpt>
      <trkpt lat="48.59338" lon="-2.82399">
        <ele>49.1</ele>
        <time>2020-08-12T08:28:25Z</time>
      </trkpt>
      <trkpt lat="48.59358" lon="-2.82427">
        <ele>43.1</ele>
        <time>2020-08-12T08:28:31Z</time>
      </trkpt>
      <trkpt lat="48.59371" lon="-2.82445">
        <ele>41.9</ele>
        <time>2020-08-12T08:28:36Z</time>
      </trkpt>
      <trkpt lat="48.59391" lon="-2.82473">
        <ele>39.9</ele>
        <time>2020-08-12T08:28:42Z</time>
      </trkpt>
      <trkpt lat="48.59403" lon="-2.82487">
        <ele>38.2</ele>
        <time>2020-08-12T08:28:47Z</time>
      </trkpt>
      <trkpt lat="48.59412" lon="-2.82494">
        <ele>36.6</ele>
        <time>2020-08-12T08:28:52Z</time>
      </trkpt>
      <trkpt lat="48.59412" lon="-2.82496">
        <ele>36.3</ele>
        <time>2020-08-12T08:28:55Z</time>
      </trkpt>
      <trkpt lat="48.59416" lon="-2.82504">
        <ele>34.3</ele>
        <time>2020-08-12T08:29:12Z</time>
      </trkpt>
      <trkpt lat="48.59425" lon="-2.82513">
        <ele>31</ele>
        <time>2020-08-12T08:29:15Z</time>
      </trkpt>
      <trkpt lat="48.59439" lon="-2.8252">
        <ele>28.9</ele>
        <time>2020-08-12T08:29:18Z</time>
      </trkpt>
      <trkpt lat="48.59461" lon="-2.82526">
        <ele>27.3</ele>
        <time>2020-08-12T08:29:23Z</time>
      </trkpt>
      <trkpt lat="48.59464" lon="-2.82528">
        <ele>27.1</ele>
        <time>2020-08-12T08:29:24Z</time>
      </trkpt>
      <trkpt lat="48.59465" lon="-2.82544">
        <ele>26.2</ele>
        <time>2020-08-12T08:29:28Z</time>
      </trkpt>
      <trkpt lat="48.59453" lon="-2.82554">
        <ele>25.9</ele>
        <time>2020-08-12T08:29:32Z</time>
      </trkpt>
      <trkpt lat="48.59423" lon="-2.82565">
        <ele>25.2</ele>
        <time>2020-08-12T08:29:38Z</time>
      </trkpt>
      <trkpt lat="48.59411" lon="-2.82568">
        <ele>26.7</ele>
        <time>2020-08-12T08:29:41Z</time>
      </trkpt>
      <trkpt lat="48.59407" lon="-2.82579">
        <ele>25.6</ele>
        <time>2020-08-12T08:29:45Z</time>
      </trkpt>
      <trkpt lat="48.59407" lon="-2.82579">
        <ele>25.6</ele>
        <time>2020-08-12T08:29:47Z</time>
      </trkpt>
      <trkpt lat="48.59422" lon="-2.82583">
        <ele>23.7</ele>
        <time>2020-08-12T08:30:02Z</time>
      </trkpt>
      <trkpt lat="48.59443" lon="-2.82577">
        <ele>24.9</ele>
        <time>2020-08-12T08:30:07Z</time>
      </trkpt>
      <trkpt lat="48.59486" lon="-2.8256">
        <ele>24.3</ele>
        <time>2020-08-12T08:30:15Z</time>
      </trkpt>
      <trkpt lat="48.59522" lon="-2.82548">
        <ele>19.7</ele>
        <time>2020-08-12T08:30:21Z</time>
      </trkpt>
      <trkpt lat="48.59546" lon="-2.8253">
        <ele>18.6</ele>
        <time>2020-08-12T08:30:25Z</time>
      </trkpt>
      <trkpt lat="48.59588" lon="-2.82483">
        <ele>11.7</ele>
        <time>2020-08-12T08:30:32Z</time>
      </trkpt>
      <trkpt lat="48.59639" lon="-2.82423">
        <ele>10.4</ele>
        <time>2020-08-12T08:30:41Z</time>
      </trkpt>
      <trkpt lat="48.59649" lon="-2.8241">
        <ele>10.1</ele>
        <time>2020-08-12T08:30:43Z</time>
      </trkpt>
      <trkpt lat="48.59673" lon="-2.82393">
        <ele>8.3</ele>
        <time>2020-08-12T08:30:47Z</time>
      </trkpt>
      <trkpt lat="48.59703" lon="-2.8239">
        <ele>8.2</ele>
        <time>2020-08-12T08:30:52Z</time>
      </trkpt>
      <trkpt lat="48.59729" lon="-2.82397">
        <ele>7.8</ele>
        <time>2020-08-12T08:30:57Z</time>
      </trkpt>
      <trkpt lat="48.59733" lon="-2.82399">
        <ele>7.7</ele>
        <time>2020-08-12T08:30:58Z</time>
      </trkpt>
      <trkpt lat="48.59767" lon="-2.82416">
        <ele>6.8</ele>
        <time>2020-08-12T08:31:06Z</time>
      </trkpt>
      <trkpt lat="48.59771" lon="-2.82417">
        <ele>6.9</ele>
        <time>2020-08-12T08:31:07Z</time>
      </trkpt>
      <trkpt lat="48.59779" lon="-2.82408">
        <ele>6.6</ele>
        <time>2020-08-12T08:31:11Z</time>
      </trkpt>
      <trkpt lat="48.59782" lon="-2.82403">
        <ele>6.6</ele>
        <time>2020-08-12T08:31:13Z</time>
      </trkpt>
      <trkpt lat="48.59785" lon="-2.82398">
        <ele>6.6</ele>
        <time>2020-08-12T08:31:15Z</time>
      </trkpt>
      <trkpt lat="48.59798" lon="-2.82403">
        <ele>6.4</ele>
        <time>2020-08-12T08:31:21Z</time>
      </trkpt>
      <trkpt lat="48.59813" lon="-2.8241">
        <ele>6.3</ele>
        <time>2020-08-12T08:31:28Z</time>
      </trkpt>
      <trkpt lat="48.59832" lon="-2.82419">
        <ele>6.1</ele>
        <time>2020-08-12T08:31:35Z</time>
      </trkpt>
      <trkpt lat="48.59838" lon="-2.82421">
        <ele>6</ele>
        <time>2020-08-12T08:31:37Z</time>
      </trkpt>
      <trkpt lat="48.59852" lon="-2.82414">
        <ele>6</ele>
        <time>2020-08-12T08:31:42Z</time>
      </trkpt>
      <trkpt lat="48.59865" lon="-2.82408">
        <ele>6</ele>
        <time>2020-08-12T08:31:48Z</time>
      </trkpt>
      <trkpt lat="48.59866" lon="-2.82408">
        <ele>6</ele>
        <time>2020-08-12T08:31:50Z</time>
      </trkpt>
      <trkpt lat="48.59882" lon="-2.82417">
        <ele>6</ele>
        <time>2020-08-12T08:32:01Z</time>
      </trkpt>
      <trkpt lat="48.59886" lon="-2.82414">
        <ele>6</ele>
        <time>2020-08-12T08:32:05Z</time>
      </trkpt>
      <trkpt lat="48.59888" lon="-2.82428">
        <ele>6</ele>
        <time>2020-08-12T08:37:26Z</time>
      </trkpt>
      <trkpt lat="48.59894" lon="-2.82444">
        <ele>5.9</ele>
        <time>2020-08-12T08:37:33Z</time>
      </trkpt>
      <trkpt lat="48.59905" lon="-2.82452">
        <ele>5.8</ele>
        <time>2020-08-12T08:37:40Z</time>
      </trkpt>
      <trkpt lat="48.59921" lon="-2.8246">
        <ele>5</ele>
        <time>2020-08-12T08:37:47Z</time>
      </trkpt>
      <trkpt lat="48.59945" lon="-2.8247">
        <ele>5</ele>
        <time>2020-08-12T08:37:57Z</time>
      </trkpt>
      <trkpt lat="48.59966" lon="-2.8248">
        <ele>5</ele>
        <time>2020-08-12T08:38:06Z</time>
      </trkpt>
      <trkpt lat="48.59982" lon="-2.82487">
        <ele>5</ele>
        <time>2020-08-12T08:38:14Z</time>
      </trkpt>
      <trkpt lat="48.59995" lon="-2.82494">
        <ele>5</ele>
        <time>2020-08-12T08:38:20Z</time>
      </trkpt>
      <trkpt lat="48.59999" lon="-2.82496">
        <ele>5</ele>
        <time>2020-08-12T08:38:22Z</time>
      </trkpt>
      <trkpt lat="48.60005" lon="-2.82487">
        <ele>4.9</ele>
        <time>2020-08-12T08:38:26Z</time>
      </trkpt>
      <trkpt lat="48.60008" lon="-2.82454">
        <ele>4.8</ele>
        <time>2020-08-12T08:38:33Z</time>
      </trkpt>
      <trkpt lat="48.60015" lon="-2.82401">
        <ele>4.2</ele>
        <time>2020-08-12T08:38:43Z</time>
      </trkpt>
      <trkpt lat="48.60021" lon="-2.8235">
        <ele>3.5</ele>
        <time>2020-08-12T08:38:52Z</time>
      </trkpt>
      <trkpt lat="48.60019" lon="-2.82318">
        <ele>2.8</ele>
        <time>2020-08-12T08:38:58Z</time>
      </trkpt>
      <trkpt lat="48.60023" lon="-2.82283">
        <ele>2.7</ele>
        <time>2020-08-12T08:39:05Z</time>
      </trkpt>
      <trkpt lat="48.6003" lon="-2.8223">
        <ele>2.4</ele>
        <time>2020-08-12T08:39:16Z</time>
      </trkpt>
      <trkpt lat="48.60031" lon="-2.82214">
        <ele>2.5</ele>
        <time>2020-08-12T08:39:21Z</time>
      </trkpt>
      <trkpt lat="48.60031" lon="-2.82213">
        <ele>2.5</ele>
        <time>2020-08-12T08:39:24Z</time>
      </trkpt>
      <trkpt lat="48.60037" lon="-2.82222">
        <ele>2.4</ele>
        <time>2020-08-12T08:40:27Z</time>
      </trkpt>
      <trkpt lat="48.60038" lon="-2.82226">
        <ele>2.4</ele>
        <time>2020-08-12T08:40:28Z</time>
      </trkpt>
      <trkpt lat="48.60036" lon="-2.82253">
        <ele>2.5</ele>
        <time>2020-08-12T08:40:35Z</time>
      </trkpt>
      <trkpt lat="48.60031" lon="-2.82297">
        <ele>2.7</ele>
        <time>2020-08-12T08:40:44Z</time>
      </trkpt>
      <trkpt lat="48.60025" lon="-2.82344">
        <ele>3.5</ele>
        <time>2020-08-12T08:40:53Z</time>
      </trkpt>
      <trkpt lat="48.60018" lon="-2.82399">
        <ele>4.2</ele>
        <time>2020-08-12T08:41:03Z</time>
      </trkpt>
      <trkpt lat="48.60015" lon="-2.82427">
        <ele>4.8</ele>
        <time>2020-08-12T08:41:08Z</time>
      </trkpt>
      <trkpt lat="48.60009" lon="-2.82468">
        <ele>4.8</ele>
        <time>2020-08-12T08:41:15Z</time>
      </trkpt>
      <trkpt lat="48.60004" lon="-2.82502">
        <ele>5</ele>
        <time>2020-08-12T08:41:22Z</time>
      </trkpt>
      <trkpt lat="48.6001" lon="-2.82526">
        <ele>5</ele>
        <time>2020-08-12T08:41:27Z</time>
      </trkpt>
      <trkpt lat="48.60024" lon="-2.8254">
        <ele>5</ele>
        <time>2020-08-12T08:41:32Z</time>
      </trkpt>
      <trkpt lat="48.60031" lon="-2.82563">
        <ele>5</ele>
        <time>2020-08-12T08:41:38Z</time>
      </trkpt>
      <trkpt lat="48.60038" lon="-2.82611">
        <ele>5.4</ele>
        <time>2020-08-12T08:41:48Z</time>
      </trkpt>
      <trkpt lat="48.60045" lon="-2.82644">
        <ele>5.6</ele>
        <time>2020-08-12T08:41:55Z</time>
      </trkpt>
      <trkpt lat="48.6006" lon="-2.82672">
        <ele>6.3</ele>
        <time>2020-08-12T08:42:03Z</time>
      </trkpt>
      <trkpt lat="48.60075" lon="-2.82693">
        <ele>6.4</ele>
        <time>2020-08-12T08:42:10Z</time>
      </trkpt>
      <trkpt lat="48.60089" lon="-2.82704">
        <ele>9.2</ele>
        <time>2020-08-12T08:42:16Z</time>
      </trkpt>
      <trkpt lat="48.60089" lon="-2.82704">
        <ele>9.2</ele>
        <time>2020-08-12T08:42:18Z</time>
      </trkpt>
      <trkpt lat="48.60099" lon="-2.82702">
        <ele>9.5</ele>
        <time>2020-08-12T08:43:12Z</time>
      </trkpt>
      <trkpt lat="48.60102" lon="-2.82702">
        <ele>9.6</ele>
        <time>2020-08-12T08:43:13Z</time>
      </trkpt>
      <trkpt lat="48.60116" lon="-2.82693">
        <ele>10.4</ele>
        <time>2020-08-12T08:43:19Z</time>
      </trkpt>
      <trkpt lat="48.60123" lon="-2.8269">
        <ele>10.9</ele>
        <time>2020-08-12T08:43:23Z</time>
      </trkpt>
      <trkpt lat="48.60128" lon="-2.82675">
        <ele>11.5</ele>
        <time>2020-08-12T08:43:28Z</time>
      </trkpt>
      <trkpt lat="48.60127" lon="-2.8267">
        <ele>11.4</ele>
        <time>2020-08-12T08:43:29Z</time>
      </trkpt>
      <trkpt lat="48.60124" lon="-2.82633">
        <ele>11.5</ele>
        <time>2020-08-12T08:43:36Z</time>
      </trkpt>
      <trkpt lat="48.6012" lon="-2.82605">
        <ele>11</ele>
        <time>2020-08-12T08:43:41Z</time>
      </trkpt>
      <trkpt lat="48.60116" lon="-2.82561">
        <ele>9.3</ele>
        <time>2020-08-12T08:43:49Z</time>
      </trkpt>
      <trkpt lat="48.60116" lon="-2.82519">
        <ele>8.9</ele>
        <time>2020-08-12T08:43:57Z</time>
      </trkpt>
      <trkpt lat="48.60121" lon="-2.82485">
        <ele>8.3</ele>
        <time>2020-08-12T08:44:04Z</time>
      </trkpt>
      <trkpt lat="48.6013" lon="-2.8246">
        <ele>8.7</ele>
        <time>2020-08-12T08:44:10Z</time>
      </trkpt>
      <trkpt lat="48.60136" lon="-2.8245">
        <ele>9.1</ele>
        <time>2020-08-12T08:44:13Z</time>
      </trkpt>
      <trkpt lat="48.60149" lon="-2.82442">
        <ele>9.8</ele>
        <time>2020-08-12T08:44:18Z</time>
      </trkpt>
      <trkpt lat="48.60174" lon="-2.82452">
        <ele>15.2</ele>
        <time>2020-08-12T08:44:26Z</time>
      </trkpt>
      <trkpt lat="48.60192" lon="-2.82463">
        <ele>15.7</ele>
        <time>2020-08-12T08:44:33Z</time>
      </trkpt>
      <trkpt lat="48.60208" lon="-2.8247">
        <ele>16.2</ele>
        <time>2020-08-12T08:44:40Z</time>
      </trkpt>
      <trkpt lat="48.60225" lon="-2.82476">
        <ele>16.7</ele>
        <time>2020-08-12T08:44:48Z</time>
      </trkpt>
      <trkpt lat="48.60236" lon="-2.82482">
        <ele>16.9</ele>
        <time>2020-08-12T08:44:53Z</time>
      </trkpt>
      <trkpt lat="48.60257" lon="-2.82488">
        <ele>19.9</ele>
        <time>2020-08-12T08:45:03Z</time>
      </trkpt>
      <trkpt lat="48.60275" lon="-2.82496">
        <ele>21.3</ele>
        <time>2020-08-12T08:45:12Z</time>
      </trkpt>
      <trkpt lat="48.60287" lon="-2.82498">
        <ele>22.2</ele>
        <time>2020-08-12T08:45:19Z</time>
      </trkpt>
      <trkpt lat="48.60302" lon="-2.82504">
        <ele>22.8</ele>
        <time>2020-08-12T08:45:27Z</time>
      </trkpt>
      <trkpt lat="48.60316" lon="-2.82504">
        <ele>23.1</ele>
        <time>2020-08-12T08:45:34Z</time>
      </trkpt>
      <trkpt lat="48.60331" lon="-2.82507">
        <ele>23.2</ele>
        <time>2020-08-12T08:45:42Z</time>
      </trkpt>
      <trkpt lat="48.60355" lon="-2.82511">
        <ele>26.4</ele>
        <time>2020-08-12T08:45:53Z</time>
      </trkpt>
      <trkpt lat="48.60366" lon="-2.82516">
        <ele>27.3</ele>
        <time>2020-08-12T08:45:58Z</time>
      </trkpt>
      <trkpt lat="48.60384" lon="-2.82528">
        <ele>28.3</ele>
        <time>2020-08-12T08:46:07Z</time>
      </trkpt>
      <trkpt lat="48.60404" lon="-2.82545">
        <ele>28.7</ele>
        <time>2020-08-12T08:46:17Z</time>
      </trkpt>
      <trkpt lat="48.60417" lon="-2.82556">
        <ele>31.6</ele>
        <time>2020-08-12T08:46:24Z</time>
      </trkpt>
      <trkpt lat="48.60434" lon="-2.82574">
        <ele>31.2</ele>
        <time>2020-08-12T08:46:34Z</time>
      </trkpt>
      <trkpt lat="48.60449" lon="-2.82587">
        <ele>31.5</ele>
        <time>2020-08-12T08:46:42Z</time>
      </trkpt>
      <trkpt lat="48.6046" lon="-2.82595">
        <ele>31.9</ele>
        <time>2020-08-12T08:46:49Z</time>
      </trkpt>
      <trkpt lat="48.60464" lon="-2.82599">
        <ele>32</ele>
        <time>2020-08-12T08:46:52Z</time>
      </trkpt>
      <trkpt lat="48.60466" lon="-2.82607">
        <ele>32.2</ele>
        <time>2020-08-12T08:46:56Z</time>
      </trkpt>
      <trkpt lat="48.60465" lon="-2.82611">
        <ele>32.2</ele>
        <time>2020-08-12T08:46:58Z</time>
      </trkpt>
      <trkpt lat="48.60474" lon="-2.82629">
        <ele>32.7</ele>
        <time>2020-08-12T08:47:08Z</time>
      </trkpt>
      <trkpt lat="48.6048" lon="-2.82643">
        <ele>33</ele>
        <time>2020-08-12T08:47:15Z</time>
      </trkpt>
      <trkpt lat="48.60481" lon="-2.8265">
        <ele>33.2</ele>
        <time>2020-08-12T08:47:18Z</time>
      </trkpt>
      <trkpt lat="48.60481" lon="-2.82654">
        <ele>33.2</ele>
        <time>2020-08-12T08:47:20Z</time>
      </trkpt>
      <trkpt lat="48.60484" lon="-2.82664">
        <ele>33.4</ele>
        <time>2020-08-12T08:47:26Z</time>
      </trkpt>
      <trkpt lat="48.60485" lon="-2.82665">
        <ele>33.4</ele>
        <time>2020-08-12T08:47:27Z</time>
      </trkpt>
      <trkpt lat="48.60487" lon="-2.82676">
        <ele>35.6</ele>
        <time>2020-08-12T08:47:33Z</time>
      </trkpt>
      <trkpt lat="48.60497" lon="-2.82691">
        <ele>36.3</ele>
        <time>2020-08-12T08:47:43Z</time>
      </trkpt>
      <trkpt lat="48.60505" lon="-2.82702">
        <ele>37.3</ele>
        <time>2020-08-12T08:47:51Z</time>
      </trkpt>
      <trkpt lat="48.60513" lon="-2.82716">
        <ele>38</ele>
        <time>2020-08-12T08:48:00Z</time>
      </trkpt>
      <trkpt lat="48.60518" lon="-2.82725">
        <ele>38.4</ele>
        <time>2020-08-12T08:48:06Z</time>
      </trkpt>
      <trkpt lat="48.6053" lon="-2.82735">
        <ele>38.6</ele>
        <time>2020-08-12T08:48:15Z</time>
      </trkpt>
      <trkpt lat="48.60544" lon="-2.82744">
        <ele>38.7</ele>
        <time>2020-08-12T08:48:23Z</time>
      </trkpt>
      <trkpt lat="48.60562" lon="-2.8276">
        <ele>40.9</ele>
        <time>2020-08-12T08:48:34Z</time>
      </trkpt>
      <trkpt lat="48.60578" lon="-2.82778">
        <ele>41.1</ele>
        <time>2020-08-12T08:48:45Z</time>
      </trkpt>
      <trkpt lat="48.60585" lon="-2.82783">
        <ele>42.3</ele>
        <time>2020-08-12T08:48:50Z</time>
      </trkpt>
      <trkpt lat="48.60599" lon="-2.82793">
        <ele>42.8</ele>
        <time>2020-08-12T08:48:58Z</time>
      </trkpt>
      <trkpt lat="48.60607" lon="-2.82802">
        <ele>43.1</ele>
        <time>2020-08-12T08:49:03Z</time>
      </trkpt>
      <trkpt lat="48.60622" lon="-2.82814">
        <ele>43.5</ele>
        <time>2020-08-12T08:49:12Z</time>
      </trkpt>
      <trkpt lat="48.60636" lon="-2.82825">
        <ele>44</ele>
        <time>2020-08-12T08:49:21Z</time>
      </trkpt>
      <trkpt lat="48.60647" lon="-2.82836">
        <ele>45.6</ele>
        <time>2020-08-12T08:49:29Z</time>
      </trkpt>
      <trkpt lat="48.6066" lon="-2.82846">
        <ele>45.8</ele>
        <time>2020-08-12T08:49:38Z</time>
      </trkpt>
      <trkpt lat="48.60674" lon="-2.82854">
        <ele>48</ele>
        <time>2020-08-12T08:49:47Z</time>
      </trkpt>
      <trkpt lat="48.60694" lon="-2.82866">
        <ele>48.9</ele>
        <time>2020-08-12T08:49:58Z</time>
      </trkpt>
      <trkpt lat="48.60713" lon="-2.82884">
        <ele>49.8</ele>
        <time>2020-08-12T08:50:09Z</time>
      </trkpt>
      <trkpt lat="48.6073" lon="-2.82899">
        <ele>50.7</ele>
        <time>2020-08-12T08:50:19Z</time>
      </trkpt>
      <trkpt lat="48.60745" lon="-2.82915">
        <ele>52.3</ele>
        <time>2020-08-12T08:50:29Z</time>
      </trkpt>
      <trkpt lat="48.60763" lon="-2.82936">
        <ele>54.4</ele>
        <time>2020-08-12T08:50:41Z</time>
      </trkpt>
      <trkpt lat="48.60778" lon="-2.82955">
        <ele>55</ele>
        <time>2020-08-12T08:50:51Z</time>
      </trkpt>
      <trkpt lat="48.60795" lon="-2.82975">
        <ele>55.4</ele>
        <time>2020-08-12T08:51:00Z</time>
      </trkpt>
      <trkpt lat="48.60814" lon="-2.82996">
        <ele>56</ele>
        <time>2020-08-12T08:51:10Z</time>
      </trkpt>
      <trkpt lat="48.60833" lon="-2.8302">
        <ele>56.2</ele>
        <time>2020-08-12T08:51:21Z</time>
      </trkpt>
      <trkpt lat="48.60845" lon="-2.83035">
        <ele>58.9</ele>
        <time>2020-08-12T08:51:29Z</time>
      </trkpt>
      <trkpt lat="48.60857" lon="-2.83048">
        <ele>59.2</ele>
        <time>2020-08-12T08:51:36Z</time>
      </trkpt>
      <trkpt lat="48.60869" lon="-2.8306">
        <ele>59.6</ele>
        <time>2020-08-12T08:51:43Z</time>
      </trkpt>
      <trkpt lat="48.60886" lon="-2.83072">
        <ele>60.4</ele>
        <time>2020-08-12T08:51:52Z</time>
      </trkpt>
      <trkpt lat="48.60906" lon="-2.83083">
        <ele>61.8</ele>
        <time>2020-08-12T08:52:02Z</time>
      </trkpt>
      <trkpt lat="48.60927" lon="-2.83091">
        <ele>63.5</ele>
        <time>2020-08-12T08:52:11Z</time>
      </trkpt>
      <trkpt lat="48.60949" lon="-2.83104">
        <ele>64.1</ele>
        <time>2020-08-12T08:52:21Z</time>
      </trkpt>
      <trkpt lat="48.60961" lon="-2.8311">
        <ele>64.4</ele>
        <time>2020-08-12T08:52:27Z</time>
      </trkpt>
      <trkpt lat="48.60969" lon="-2.83106">
        <ele>64.6</ele>
        <time>2020-08-12T08:52:33Z</time>
      </trkpt>
      <trkpt lat="48.6097" lon="-2.83107">
        <ele>64.6</ele>
        <time>2020-08-12T08:52:34Z</time>
      </trkpt>
      <trkpt lat="48.60975" lon="-2.83115">
        <ele>64.6</ele>
        <time>2020-08-12T08:52:41Z</time>
      </trkpt>
      <trkpt lat="48.60976" lon="-2.83116">
        <ele>64.6</ele>
        <time>2020-08-12T08:52:44Z</time>
      </trkpt>
      <trkpt lat="48.6097" lon="-2.83109">
        <ele>64.6</ele>
        <time>2020-08-12T08:53:58Z</time>
      </trkpt>
      <trkpt lat="48.60974" lon="-2.83102">
        <ele>64.7</ele>
        <time>2020-08-12T08:54:02Z</time>
      </trkpt>
      <trkpt lat="48.60985" lon="-2.83089">
        <ele>65.2</ele>
        <time>2020-08-12T08:54:10Z</time>
      </trkpt>
      <trkpt lat="48.60994" lon="-2.83073">
        <ele>65.4</ele>
        <time>2020-08-12T08:54:18Z</time>
      </trkpt>
      <trkpt lat="48.61002" lon="-2.83054">
        <ele>67.3</ele>
        <time>2020-08-12T08:54:26Z</time>
      </trkpt>
      <trkpt lat="48.61009" lon="-2.83031">
        <ele>67.4</ele>
        <time>2020-08-12T08:54:34Z</time>
      </trkpt>
      <trkpt lat="48.61014" lon="-2.8301">
        <ele>67.1</ele>
        <time>2020-08-12T08:54:43Z</time>
      </trkpt>
      <trkpt lat="48.61015" lon="-2.83002">
        <ele>67</ele>
        <time>2020-08-12T08:54:48Z</time>
      </trkpt>
      <trkpt lat="48.6102" lon="-2.82975">
        <ele>67.6</ele>
        <time>2020-08-12T08:54:56Z</time>
      </trkpt>
      <trkpt lat="48.61023" lon="-2.82937">
        <ele>67.9</ele>
        <time>2020-08-12T08:55:05Z</time>
      </trkpt>
      <trkpt lat="48.61027" lon="-2.82907">
        <ele>68.4</ele>
        <time>2020-08-12T08:55:13Z</time>
      </trkpt>
      <trkpt lat="48.61032" lon="-2.82884">
        <ele>68.7</ele>
        <time>2020-08-12T08:55:20Z</time>
      </trkpt>
      <trkpt lat="48.61043" lon="-2.82852">
        <ele>69.2</ele>
        <time>2020-08-12T08:55:29Z</time>
      </trkpt>
      <trkpt lat="48.61053" lon="-2.82827">
        <ele>70.2</ele>
        <time>2020-08-12T08:55:36Z</time>
      </trkpt>
      <trkpt lat="48.61069" lon="-2.82792">
        <ele>70.6</ele>
        <time>2020-08-12T08:55:45Z</time>
      </trkpt>
      <trkpt lat="48.61084" lon="-2.82759">
        <ele>72.8</ele>
        <time>2020-08-12T08:55:54Z</time>
      </trkpt>
      <trkpt lat="48.61096" lon="-2.82722">
        <ele>72.7</ele>
        <time>2020-08-12T08:56:03Z</time>
      </trkpt>
      <trkpt lat="48.61106" lon="-2.82685">
        <ele>72.6</ele>
        <time>2020-08-12T08:56:12Z</time>
      </trkpt>
      <trkpt lat="48.61112" lon="-2.82663">
        <ele>72.6</ele>
        <time>2020-08-12T08:56:18Z</time>
      </trkpt>
      <trkpt lat="48.61116" lon="-2.82636">
        <ele>72.6</ele>
        <time>2020-08-12T08:56:25Z</time>
      </trkpt>
      <trkpt lat="48.61111" lon="-2.82608">
        <ele>72.6</ele>
        <time>2020-08-12T08:56:31Z</time>
      </trkpt>
      <trkpt lat="48.61101" lon="-2.82562">
        <ele>72.3</ele>
        <time>2020-08-12T08:56:40Z</time>
      </trkpt>
      <trkpt lat="48.61095" lon="-2.82526">
        <ele>71.8</ele>
        <time>2020-08-12T08:56:47Z</time>
      </trkpt>
      <trkpt lat="48.61104" lon="-2.82513">
        <ele>71.7</ele>
        <time>2020-08-12T08:56:52Z</time>
      </trkpt>
      <trkpt lat="48.61111" lon="-2.82511">
        <ele>71.7</ele>
        <time>2020-08-12T08:56:54Z</time>
      </trkpt>
      <trkpt lat="48.61137" lon="-2.82506">
        <ele>71.9</ele>
        <time>2020-08-12T08:57:02Z</time>
      </trkpt>
      <trkpt lat="48.6116" lon="-2.82505">
        <ele>72</ele>
        <time>2020-08-12T08:57:09Z</time>
      </trkpt>
      <trkpt lat="48.61191" lon="-2.82506">
        <ele>72.2</ele>
        <time>2020-08-12T08:57:17Z</time>
      </trkpt>
      <trkpt lat="48.61218" lon="-2.82507">
        <ele>72.4</ele>
        <time>2020-08-12T08:57:24Z</time>
      </trkpt>
      <trkpt lat="48.61235" lon="-2.8251">
        <ele>72.6</ele>
        <time>2020-08-12T08:57:30Z</time>
      </trkpt>
      <trkpt lat="48.61255" lon="-2.82514">
        <ele>73.1</ele>
        <time>2020-08-12T08:57:37Z</time>
      </trkpt>
      <trkpt lat="48.61283" lon="-2.82521">
        <ele>73.3</ele>
        <time>2020-08-12T08:57:45Z</time>
      </trkpt>
      <trkpt lat="48.61317" lon="-2.8253">
        <ele>73.6</ele>
        <time>2020-08-12T08:57:55Z</time>
      </trkpt>
      <trkpt lat="48.61349" lon="-2.82539">
        <ele>74</ele>
        <time>2020-08-12T08:58:04Z</time>
      </trkpt>
      <trkpt lat="48.61365" lon="-2.82541">
        <ele>74</ele>
        <time>2020-08-12T08:58:08Z</time>
      </trkpt>
      <trkpt lat="48.61389" lon="-2.82545">
        <ele>74</ele>
        <time>2020-08-12T08:58:14Z</time>
      </trkpt>
      <trkpt lat="48.61407" lon="-2.82548">
        <ele>74</ele>
        <time>2020-08-12T08:58:20Z</time>
      </trkpt>
      <trkpt lat="48.61407" lon="-2.82548">
        <ele>74</ele>
        <time>2020-08-12T08:58:22Z</time>
      </trkpt>
      <trkpt lat="48.61394" lon="-2.82551">
        <ele>74</ele>
        <time>2020-08-12T08:58:43Z</time>
      </trkpt>
      <trkpt lat="48.61389" lon="-2.8255">
        <ele>74</ele>
        <time>2020-08-12T08:58:45Z</time>
      </trkpt>
      <trkpt lat="48.61388" lon="-2.82545">
        <ele>74</ele>
        <time>2020-08-12T08:58:49Z</time>
      </trkpt>
      <trkpt lat="48.61391" lon="-2.82547">
        <ele>74</ele>
        <time>2020-08-12T08:58:52Z</time>
      </trkpt>
      <trkpt lat="48.61383" lon="-2.82549">
        <ele>74</ele>
        <time>2020-08-12T08:58:57Z</time>
      </trkpt>
      <trkpt lat="48.61383" lon="-2.82544">
        <ele>74</ele>
        <time>2020-08-12T08:59:00Z</time>
      </trkpt>
      <trkpt lat="48.61385" lon="-2.82545">
        <ele>74</ele>
        <time>2020-08-12T08:59:01Z</time>
      </trkpt>
      <trkpt lat="48.6139" lon="-2.82558">
        <ele>73.9</ele>
        <time>2020-08-12T08:59:08Z</time>
      </trkpt>
      <trkpt lat="48.61392" lon="-2.82589">
        <ele>73.7</ele>
        <time>2020-08-12T08:59:17Z</time>
      </trkpt>
      <trkpt lat="48.61392" lon="-2.82609">
        <ele>73.6</ele>
        <time>2020-08-12T08:59:23Z</time>
      </trkpt>
      <trkpt lat="48.61395" lon="-2.82638">
        <ele>73.6</ele>
        <time>2020-08-12T08:59:29Z</time>
      </trkpt>
      <trkpt lat="48.61398" lon="-2.82678">
        <ele>74</ele>
        <time>2020-08-12T08:59:36Z</time>
      </trkpt>
      <trkpt lat="48.61402" lon="-2.82725">
        <ele>74.3</ele>
        <time>2020-08-12T08:59:44Z</time>
      </trkpt>
      <trkpt lat="48.61402" lon="-2.8277">
        <ele>74.5</ele>
        <time>2020-08-12T08:59:52Z</time>
      </trkpt>
      <trkpt lat="48.61401" lon="-2.82782">
        <ele>74.4</ele>
        <time>2020-08-12T08:59:55Z</time>
      </trkpt>
      <trkpt lat="48.61404" lon="-2.82785">
        <ele>74.4</ele>
        <time>2020-08-12T09:00:00Z</time>
      </trkpt>
      <trkpt lat="48.61404" lon="-2.82786">
        <ele>74.4</ele>
        <time>2020-08-12T09:00:01Z</time>
      </trkpt>
      <trkpt lat="48.61396" lon="-2.82792">
        <ele>74.3</ele>
        <time>2020-08-12T09:00:10Z</time>
      </trkpt>
      <trkpt lat="48.61384" lon="-2.82806">
        <ele>74.2</ele>
        <time>2020-08-12T09:00:15Z</time>
      </trkpt>
      <trkpt lat="48.61385" lon="-2.82817">
        <ele>74.2</ele>
        <time>2020-08-12T09:00:20Z</time>
      </trkpt>
      <trkpt lat="48.61394" lon="-2.82819">
        <ele>74.2</ele>
        <time>2020-08-12T09:00:25Z</time>
      </trkpt>
      <trkpt lat="48.61408" lon="-2.82801">
        <ele>74.3</ele>
        <time>2020-08-12T09:00:32Z</time>
      </trkpt>
      <trkpt lat="48.61424" lon="-2.82782">
        <ele>74.6</ele>
        <time>2020-08-12T09:00:38Z</time>
      </trkpt>
      <trkpt lat="48.61447" lon="-2.82754">
        <ele>74.7</ele>
        <time>2020-08-12T09:00:46Z</time>
      </trkpt>
      <trkpt lat="48.61467" lon="-2.82727">
        <ele>74.8</ele>
        <time>2020-08-12T09:00:53Z</time>
      </trkpt>
      <trkpt lat="48.6149" lon="-2.827">
        <ele>74.8</ele>
        <time>2020-08-12T09:01:01Z</time>
      </trkpt>
      <trkpt lat="48.61509" lon="-2.8268">
        <ele>75</ele>
        <time>2020-08-12T09:01:07Z</time>
      </trkpt>
      <trkpt lat="48.61523" lon="-2.82687">
        <ele>75</ele>
        <time>2020-08-12T09:01:13Z</time>
      </trkpt>
      <trkpt lat="48.61543" lon="-2.82702">
        <ele>75</ele>
        <time>2020-08-12T09:01:21Z</time>
      </trkpt>
      <trkpt lat="48.61565" lon="-2.82718">
        <ele>75</ele>
        <time>2020-08-12T09:01:28Z</time>
      </trkpt>
      <trkpt lat="48.61594" lon="-2.82739">
        <ele>75.2</ele>
        <time>2020-08-12T09:01:36Z</time>
      </trkpt>
      <trkpt lat="48.61624" lon="-2.82761">
        <ele>75.7</ele>
        <time>2020-08-12T09:01:45Z</time>
      </trkpt>
      <trkpt lat="48.61646" lon="-2.8277">
        <ele>75.9</ele>
        <time>2020-08-12T09:01:52Z</time>
      </trkpt>
      <trkpt lat="48.61662" lon="-2.82771">
        <ele>75.9</ele>
        <time>2020-08-12T09:01:57Z</time>
      </trkpt>
      <trkpt lat="48.61686" lon="-2.82783">
        <ele>76.1</ele>
        <time>2020-08-12T09:02:05Z</time>
      </trkpt>
      <trkpt lat="48.61709" lon="-2.82798">
        <ele>76</ele>
        <time>2020-08-12T09:02:12Z</time>
      </trkpt>
      <trkpt lat="48.61727" lon="-2.82809">
        <ele>76</ele>
        <time>2020-08-12T09:02:17Z</time>
      </trkpt>
      <trkpt lat="48.61761" lon="-2.8283">
        <ele>75.2</ele>
        <time>2020-08-12T09:02:25Z</time>
      </trkpt>
      <trkpt lat="48.61799" lon="-2.82849">
        <ele>74</ele>
        <time>2020-08-12T09:02:32Z</time>
      </trkpt>
      <trkpt lat="48.6184" lon="-2.82866">
        <ele>72</ele>
        <time>2020-08-12T09:02:39Z</time>
      </trkpt>
      <trkpt lat="48.61873" lon="-2.82872">
        <ele>71.8</ele>
        <time>2020-08-12T09:02:44Z</time>
      </trkpt>
      <trkpt lat="48.61906" lon="-2.82893">
        <ele>71.5</ele>
        <time>2020-08-12T09:02:50Z</time>
      </trkpt>
      <trkpt lat="48.61924" lon="-2.82921">
        <ele>71.2</ele>
        <time>2020-08-12T09:02:55Z</time>
      </trkpt>
      <trkpt lat="48.61949" lon="-2.82976">
        <ele>71.9</ele>
        <time>2020-08-12T09:03:04Z</time>
      </trkpt>
      <trkpt lat="48.61966" lon="-2.83029">
        <ele>72.5</ele>
        <time>2020-08-12T09:03:12Z</time>
      </trkpt>
      <trkpt lat="48.61977" lon="-2.83083">
        <ele>72.7</ele>
        <time>2020-08-12T09:03:20Z</time>
      </trkpt>
      <trkpt lat="48.61973" lon="-2.83114">
        <ele>72.7</ele>
        <time>2020-08-12T09:03:25Z</time>
      </trkpt>
      <trkpt lat="48.61971" lon="-2.83119">
        <ele>72.7</ele>
        <time>2020-08-12T09:03:26Z</time>
      </trkpt>
      <trkpt lat="48.61944" lon="-2.8318">
        <ele>73.1</ele>
        <time>2020-08-12T09:03:37Z</time>
      </trkpt>
      <trkpt lat="48.61926" lon="-2.83218">
        <ele>72.9</ele>
        <time>2020-08-12T09:03:45Z</time>
      </trkpt>
      <trkpt lat="48.61916" lon="-2.83239">
        <ele>73.3</ele>
        <time>2020-08-12T09:03:50Z</time>
      </trkpt>
      <trkpt lat="48.61917" lon="-2.83256">
        <ele>72.9</ele>
        <time>2020-08-12T09:03:54Z</time>
      </trkpt>
      <trkpt lat="48.61934" lon="-2.83276">
        <ele>72.7</ele>
        <time>2020-08-12T09:04:00Z</time>
      </trkpt>
      <trkpt lat="48.61957" lon="-2.83304">
        <ele>72.5</ele>
        <time>2020-08-12T09:04:07Z</time>
      </trkpt>
      <trkpt lat="48.61976" lon="-2.83313">
        <ele>72.4</ele>
        <time>2020-08-12T09:04:12Z</time>
      </trkpt>
      <trkpt lat="48.61991" lon="-2.83313">
        <ele>72.3</ele>
        <time>2020-08-12T09:04:16Z</time>
      </trkpt>
      <trkpt lat="48.62025" lon="-2.83321">
        <ele>72.2</ele>
        <time>2020-08-12T09:04:25Z</time>
      </trkpt>
      <trkpt lat="48.62049" lon="-2.83325">
        <ele>72.4</ele>
        <time>2020-08-12T09:04:32Z</time>
      </trkpt>
      <trkpt lat="48.62072" lon="-2.83328">
        <ele>72.7</ele>
        <time>2020-08-12T09:04:38Z</time>
      </trkpt>
      <trkpt lat="48.62085" lon="-2.83329">
        <ele>72.9</ele>
        <time>2020-08-12T09:04:41Z</time>
      </trkpt>
      <trkpt lat="48.62118" lon="-2.83336">
        <ele>72.4</ele>
        <time>2020-08-12T09:04:48Z</time>
      </trkpt>
      <trkpt lat="48.62156" lon="-2.83322">
        <ele>72.1</ele>
        <time>2020-08-12T09:04:56Z</time>
      </trkpt>
      <trkpt lat="48.62166" lon="-2.83319">
        <ele>72.1</ele>
        <time>2020-08-12T09:04:58Z</time>
      </trkpt>
      <trkpt lat="48.62189" lon="-2.83326">
        <ele>71.8</ele>
        <time>2020-08-12T09:05:03Z</time>
      </trkpt>
      <trkpt lat="48.62193" lon="-2.83329">
        <ele>71.8</ele>
        <time>2020-08-12T09:05:04Z</time>
      </trkpt>
      <trkpt lat="48.62222" lon="-2.83365">
        <ele>71.7</ele>
        <time>2020-08-12T09:05:12Z</time>
      </trkpt>
      <trkpt lat="48.62238" lon="-2.83368">
        <ele>71.6</ele>
        <time>2020-08-12T09:05:16Z</time>
      </trkpt>
      <trkpt lat="48.62252" lon="-2.83354">
        <ele>71.2</ele>
        <time>2020-08-12T09:05:20Z</time>
      </trkpt>
      <trkpt lat="48.62259" lon="-2.83347">
        <ele>71.2</ele>
        <time>2020-08-12T09:05:22Z</time>
      </trkpt>
      <trkpt lat="48.62284" lon="-2.83321">
        <ele>71.8</ele>
        <time>2020-08-12T09:05:30Z</time>
      </trkpt>
      <trkpt lat="48.62302" lon="-2.83303">
        <ele>72</ele>
        <time>2020-08-12T09:05:36Z</time>
      </trkpt>
      <trkpt lat="48.62319" lon="-2.83285">
        <ele>72.2</ele>
        <time>2020-08-12T09:05:42Z</time>
      </trkpt>
      <trkpt lat="48.62333" lon="-2.83268">
        <ele>72.5</ele>
        <time>2020-08-12T09:05:48Z</time>
      </trkpt>
      <trkpt lat="48.62345" lon="-2.83267">
        <ele>71.9</ele>
        <time>2020-08-12T09:05:52Z</time>
      </trkpt>
      <trkpt lat="48.62368" lon="-2.83281">
        <ele>71.1</ele>
        <time>2020-08-12T09:05:58Z</time>
      </trkpt>
      <trkpt lat="48.62376" lon="-2.83287">
        <ele>71</ele>
        <time>2020-08-12T09:06:00Z</time>
      </trkpt>
      <trkpt lat="48.62414" lon="-2.83311">
        <ele>70.4</ele>
        <time>2020-08-12T09:06:09Z</time>
      </trkpt>
      <trkpt lat="48.62448" lon="-2.83338">
        <ele>69.9</ele>
        <time>2020-08-12T09:06:18Z</time>
      </trkpt>
      <trkpt lat="48.6248" lon="-2.8337">
        <ele>69.8</ele>
        <time>2020-08-12T09:06:27Z</time>
      </trkpt>
      <trkpt lat="48.62502" lon="-2.8339">
        <ele>69.6</ele>
        <time>2020-08-12T09:06:34Z</time>
      </trkpt>
      <trkpt lat="48.62521" lon="-2.83404">
        <ele>69.7</ele>
        <time>2020-08-12T09:06:40Z</time>
      </trkpt>
      <trkpt lat="48.62548" lon="-2.83425">
        <ele>69.8</ele>
        <time>2020-08-12T09:06:48Z</time>
      </trkpt>
      <trkpt lat="48.62568" lon="-2.83434">
        <ele>69.9</ele>
        <time>2020-08-12T09:06:54Z</time>
      </trkpt>
      <trkpt lat="48.62594" lon="-2.83447">
        <ele>70.5</ele>
        <time>2020-08-12T09:07:02Z</time>
      </trkpt>
      <trkpt lat="48.62627" lon="-2.83465">
        <ele>70.8</ele>
        <time>2020-08-12T09:07:12Z</time>
      </trkpt>
      <trkpt lat="48.62649" lon="-2.83476">
        <ele>71.1</ele>
        <time>2020-08-12T09:07:19Z</time>
      </trkpt>
      <trkpt lat="48.62667" lon="-2.83487">
        <ele>71.2</ele>
        <time>2020-08-12T09:07:25Z</time>
      </trkpt>
      <trkpt lat="48.62687" lon="-2.83497">
        <ele>70.9</ele>
        <time>2020-08-12T09:07:32Z</time>
      </trkpt>
      <trkpt lat="48.62701" lon="-2.83498">
        <ele>70.4</ele>
        <time>2020-08-12T09:07:38Z</time>
      </trkpt>
      <trkpt lat="48.62723" lon="-2.83499">
        <ele>69.8</ele>
        <time>2020-08-12T09:07:45Z</time>
      </trkpt>
      <trkpt lat="48.62746" lon="-2.83494">
        <ele>69.2</ele>
        <time>2020-08-12T09:07:50Z</time>
      </trkpt>
      <trkpt lat="48.62777" lon="-2.83485">
        <ele>67.3</ele>
        <time>2020-08-12T09:07:58Z</time>
      </trkpt>
      <trkpt lat="48.62799" lon="-2.83478">
        <ele>66.6</ele>
        <time>2020-08-12T09:08:03Z</time>
      </trkpt>
      <trkpt lat="48.62827" lon="-2.83463">
        <ele>66.1</ele>
        <time>2020-08-12T09:08:08Z</time>
      </trkpt>
      <trkpt lat="48.62847" lon="-2.8345">
        <ele>63.8</ele>
        <time>2020-08-12T09:08:11Z</time>
      </trkpt>
      <trkpt lat="48.62884" lon="-2.83446">
        <ele>63</ele>
        <time>2020-08-12T09:08:16Z</time>
      </trkpt>
      <trkpt lat="48.6293" lon="-2.8345">
        <ele>60.6</ele>
        <time>2020-08-12T09:08:22Z</time>
      </trkpt>
      <trkpt lat="48.62981" lon="-2.83451">
        <ele>59.9</ele>
        <time>2020-08-12T09:08:28Z</time>
      </trkpt>
      <trkpt lat="48.62999" lon="-2.8345">
        <ele>59.7</ele>
        <time>2020-08-12T09:08:30Z</time>
      </trkpt>
      <trkpt lat="48.6303" lon="-2.83447">
        <ele>57.5</ele>
        <time>2020-08-12T09:08:34Z</time>
      </trkpt>
      <trkpt lat="48.63055" lon="-2.83441">
        <ele>56.8</ele>
        <time>2020-08-12T09:08:39Z</time>
      </trkpt>
      <trkpt lat="48.63091" lon="-2.83439">
        <ele>54.2</ele>
        <time>2020-08-12T09:08:46Z</time>
      </trkpt>
      <trkpt lat="48.63127" lon="-2.83438">
        <ele>53.3</ele>
        <time>2020-08-12T09:08:52Z</time>
      </trkpt>
      <trkpt lat="48.63161" lon="-2.83433">
        <ele>52.2</ele>
        <time>2020-08-12T09:08:57Z</time>
      </trkpt>
      <trkpt lat="48.63209" lon="-2.83425">
        <ele>50.8</ele>
        <time>2020-08-12T09:09:04Z</time>
      </trkpt>
      <trkpt lat="48.63242" lon="-2.83417">
        <ele>49.6</ele>
        <time>2020-08-12T09:09:09Z</time>
      </trkpt>
      <trkpt lat="48.6327" lon="-2.834">
        <ele>46.4</ele>
        <time>2020-08-12T09:09:15Z</time>
      </trkpt>
      <trkpt lat="48.63274" lon="-2.83397">
        <ele>46.1</ele>
        <time>2020-08-12T09:09:16Z</time>
      </trkpt>
      <trkpt lat="48.63287" lon="-2.83386">
        <ele>45.4</ele>
        <time>2020-08-12T09:09:19Z</time>
      </trkpt>
      <trkpt lat="48.63317" lon="-2.83347">
        <ele>43.3</ele>
        <time>2020-08-12T09:09:27Z</time>
      </trkpt>
      <trkpt lat="48.63329" lon="-2.83333">
        <ele>41.1</ele>
        <time>2020-08-12T09:09:31Z</time>
      </trkpt>
      <trkpt lat="48.6334" lon="-2.8332">
        <ele>40.2</ele>
        <time>2020-08-12T09:09:37Z</time>
      </trkpt>
      <trkpt lat="48.6334" lon="-2.8332">
        <ele>40.2</ele>
        <time>2020-08-12T09:09:39Z</time>
      </trkpt>
      <trkpt lat="48.63344" lon="-2.83315">
        <ele>40</ele>
        <time>2020-08-12T09:09:54Z</time>
      </trkpt>
      <trkpt lat="48.63354" lon="-2.83303">
        <ele>39.6</ele>
        <time>2020-08-12T09:09:59Z</time>
      </trkpt>
      <trkpt lat="48.63375" lon="-2.83278">
        <ele>39</ele>
        <time>2020-08-12T09:10:05Z</time>
      </trkpt>
      <trkpt lat="48.63402" lon="-2.83244">
        <ele>36.3</ele>
        <time>2020-08-12T09:10:11Z</time>
      </trkpt>
      <trkpt lat="48.63431" lon="-2.83213">
        <ele>35</ele>
        <time>2020-08-12T09:10:16Z</time>
      </trkpt>
      <trkpt lat="48.63468" lon="-2.83205">
        <ele>34.7</ele>
        <time>2020-08-12T09:10:21Z</time>
      </trkpt>
      <trkpt lat="48.63524" lon="-2.83235">
        <ele>30.7</ele>
        <time>2020-08-12T09:10:28Z</time>
      </trkpt>
      <trkpt lat="48.63547" lon="-2.83247">
        <ele>29</ele>
        <time>2020-08-12T09:10:31Z</time>
      </trkpt>
      <trkpt lat="48.63586" lon="-2.83267">
        <ele>24.5</ele>
        <time>2020-08-12T09:10:36Z</time>
      </trkpt>
      <trkpt lat="48.63611" lon="-2.833">
        <ele>23.7</ele>
        <time>2020-08-12T09:10:40Z</time>
      </trkpt>
      <trkpt lat="48.6363" lon="-2.83351">
        <ele>26.3</ele>
        <time>2020-08-12T09:10:45Z</time>
      </trkpt>
      <trkpt lat="48.63649" lon="-2.83404">
        <ele>26.7</ele>
        <time>2020-08-12T09:10:50Z</time>
      </trkpt>
      <trkpt lat="48.63665" lon="-2.83435">
        <ele>29.6</ele>
        <time>2020-08-12T09:10:53Z</time>
      </trkpt>
      <trkpt lat="48.63679" lon="-2.83451">
        <ele>24.6</ele>
        <time>2020-08-12T09:10:55Z</time>
      </trkpt>
      <trkpt lat="48.63724" lon="-2.83498">
        <ele>21.4</ele>
        <time>2020-08-12T09:11:01Z</time>
      </trkpt>
      <trkpt lat="48.63765" lon="-2.83517">
        <ele>16.4</ele>
        <time>2020-08-12T09:11:06Z</time>
      </trkpt>
      <trkpt lat="48.63782" lon="-2.83513">
        <ele>16.5</ele>
        <time>2020-08-12T09:11:09Z</time>
      </trkpt>
      <trkpt lat="48.63788" lon="-2.83508">
        <ele>16.5</ele>
        <time>2020-08-12T09:11:13Z</time>
      </trkpt>
      <trkpt lat="48.63788" lon="-2.83508">
        <ele>16.5</ele>
        <time>2020-08-12T09:11:15Z</time>
      </trkpt>
      <trkpt lat="48.63791" lon="-2.83515">
        <ele>16.5</ele>
        <time>2020-08-12T09:11:26Z</time>
      </trkpt>
      <trkpt lat="48.63793" lon="-2.83517">
        <ele>16.5</ele>
        <time>2020-08-12T09:11:30Z</time>
      </trkpt>
      <trkpt lat="48.63798" lon="-2.83518">
        <ele>16.5</ele>
        <time>2020-08-12T09:11:38Z</time>
      </trkpt>
      <trkpt lat="48.63802" lon="-2.83516">
        <ele>16.5</ele>
        <time>2020-08-12T09:11:41Z</time>
      </trkpt>
      <trkpt lat="48.63814" lon="-2.83516">
        <ele>16.6</ele>
        <time>2020-08-12T09:11:47Z</time>
      </trkpt>
      <trkpt lat="48.63816" lon="-2.83516">
        <ele>16.6</ele>
        <time>2020-08-12T09:11:48Z</time>
      </trkpt>
      <trkpt lat="48.63839" lon="-2.83514">
        <ele>18.3</ele>
        <time>2020-08-12T09:11:56Z</time>
      </trkpt>
      <trkpt lat="48.63856" lon="-2.83519">
        <ele>19.2</ele>
        <time>2020-08-12T09:12:03Z</time>
      </trkpt>
      <trkpt lat="48.6387" lon="-2.83524">
        <ele>19.9</ele>
        <time>2020-08-12T09:12:10Z</time>
      </trkpt>
      <trkpt lat="48.63882" lon="-2.8353">
        <ele>20.5</ele>
        <time>2020-08-12T09:12:17Z</time>
      </trkpt>
      <trkpt lat="48.63885" lon="-2.8353">
        <ele>20.7</ele>
        <time>2020-08-12T09:12:20Z</time>
      </trkpt>
      <trkpt lat="48.63893" lon="-2.83535">
        <ele>20.9</ele>
        <time>2020-08-12T09:12:26Z</time>
      </trkpt>
      <trkpt lat="48.63901" lon="-2.83542">
        <ele>21.1</ele>
        <time>2020-08-12T09:12:31Z</time>
      </trkpt>
      <trkpt lat="48.63908" lon="-2.8354">
        <ele>21.4</ele>
        <time>2020-08-12T09:12:35Z</time>
      </trkpt>
      <trkpt lat="48.63912" lon="-2.83545">
        <ele>21.4</ele>
        <time>2020-08-12T09:12:39Z</time>
      </trkpt>
      <trkpt lat="48.63914" lon="-2.83545">
        <ele>21.4</ele>
        <time>2020-08-12T09:12:40Z</time>
      </trkpt>
      <trkpt lat="48.63932" lon="-2.83551">
        <ele>26.3</ele>
        <time>2020-08-12T09:12:50Z</time>
      </trkpt>
      <trkpt lat="48.6396" lon="-2.83563">
        <ele>27.6</ele>
        <time>2020-08-12T09:13:06Z</time>
      </trkpt>
      <trkpt lat="48.63973" lon="-2.83569">
        <ele>28.5</ele>
        <time>2020-08-12T09:13:15Z</time>
      </trkpt>
      <trkpt lat="48.63983" lon="-2.83573">
        <ele>29.4</ele>
        <time>2020-08-12T09:13:23Z</time>
      </trkpt>
      <trkpt lat="48.63993" lon="-2.83577">
        <ele>30.5</ele>
        <time>2020-08-12T09:13:30Z</time>
      </trkpt>
      <trkpt lat="48.63995" lon="-2.83578">
        <ele>30.8</ele>
        <time>2020-08-12T09:13:31Z</time>
      </trkpt>
      <trkpt lat="48.64009" lon="-2.83583">
        <ele>32.6</ele>
        <time>2020-08-12T09:13:41Z</time>
      </trkpt>
      <trkpt lat="48.64018" lon="-2.83587">
        <ele>33.5</ele>
        <time>2020-08-12T09:13:48Z</time>
      </trkpt>
      <trkpt lat="48.64034" lon="-2.83592">
        <ele>34.3</ele>
        <time>2020-08-12T09:13:59Z</time>
      </trkpt>
      <trkpt lat="48.64046" lon="-2.83598">
        <ele>34.8</ele>
        <time>2020-08-12T09:14:07Z</time>
      </trkpt>
      <trkpt lat="48.64058" lon="-2.83602">
        <ele>35.3</ele>
        <time>2020-08-12T09:14:15Z</time>
      </trkpt>
      <trkpt lat="48.64079" lon="-2.83611">
        <ele>35.7</ele>
        <time>2020-08-12T09:14:26Z</time>
      </trkpt>
      <trkpt lat="48.641" lon="-2.83621">
        <ele>37.2</ele>
        <time>2020-08-12T09:14:37Z</time>
      </trkpt>
      <trkpt lat="48.64118" lon="-2.83628">
        <ele>37.2</ele>
        <time>2020-08-12T09:14:46Z</time>
      </trkpt>
      <trkpt lat="48.64132" lon="-2.83634">
        <ele>37.2</ele>
        <time>2020-08-12T09:14:53Z</time>
      </trkpt>
      <trkpt lat="48.64146" lon="-2.83639">
        <ele>37.2</ele>
        <time>2020-08-12T09:15:01Z</time>
      </trkpt>
      <trkpt lat="48.64159" lon="-2.83645">
        <ele>37.2</ele>
        <time>2020-08-12T09:15:09Z</time>
      </trkpt>
      <trkpt lat="48.64171" lon="-2.83651">
        <ele>37.2</ele>
        <time>2020-08-12T09:15:16Z</time>
      </trkpt>
      <trkpt lat="48.64186" lon="-2.83655">
        <ele>37.2</ele>
        <time>2020-08-12T09:15:23Z</time>
      </trkpt>
      <trkpt lat="48.64201" lon="-2.83662">
        <ele>37.2</ele>
        <time>2020-08-12T09:15:30Z</time>
      </trkpt>
      <trkpt lat="48.64221" lon="-2.8367">
        <ele>36.7</ele>
        <time>2020-08-12T09:15:38Z</time>
      </trkpt>
      <trkpt lat="48.64247" lon="-2.8368">
        <ele>36.8</ele>
        <time>2020-08-12T09:15:49Z</time>
      </trkpt>
      <trkpt lat="48.64258" lon="-2.83687">
        <ele>36.7</ele>
        <time>2020-08-12T09:15:56Z</time>
      </trkpt>
      <trkpt lat="48.64264" lon="-2.83699">
        <ele>36.6</ele>
        <time>2020-08-12T09:16:04Z</time>
      </trkpt>
      <trkpt lat="48.64265" lon="-2.83701">
        <ele>36.6</ele>
        <time>2020-08-12T09:16:07Z</time>
      </trkpt>
      <trkpt lat="48.64267" lon="-2.83706">
        <ele>36.5</ele>
        <time>2020-08-12T09:16:11Z</time>
      </trkpt>
      <trkpt lat="48.64276" lon="-2.83724">
        <ele>36.3</ele>
        <time>2020-08-12T09:16:17Z</time>
      </trkpt>
      <trkpt lat="48.64276" lon="-2.83744">
        <ele>36.2</ele>
        <time>2020-08-12T09:16:22Z</time>
      </trkpt>
      <trkpt lat="48.64273" lon="-2.83761">
        <ele>36</ele>
        <time>2020-08-12T09:16:27Z</time>
      </trkpt>
      <trkpt lat="48.64275" lon="-2.83759">
        <ele>35.9</ele>
        <time>2020-08-12T09:16:31Z</time>
      </trkpt>
      <trkpt lat="48.64276" lon="-2.83757">
        <ele>35.9</ele>
        <time>2020-08-12T09:16:32Z</time>
      </trkpt>
      <trkpt lat="48.64278" lon="-2.83737">
        <ele>36.2</ele>
        <time>2020-08-12T09:16:39Z</time>
      </trkpt>
      <trkpt lat="48.64275" lon="-2.83722">
        <ele>36.4</ele>
        <time>2020-08-12T09:16:46Z</time>
      </trkpt>
      <trkpt lat="48.64275" lon="-2.83721">
        <ele>36.4</ele>
        <time>2020-08-12T09:16:48Z</time>
      </trkpt>
      <trkpt lat="48.64272" lon="-2.83715">
        <ele>36.4</ele>
        <time>2020-08-12T09:17:09Z</time>
      </trkpt>
      <trkpt lat="48.64265" lon="-2.83691">
        <ele>36.7</ele>
        <time>2020-08-12T09:17:15Z</time>
      </trkpt>
      <trkpt lat="48.64269" lon="-2.83667">
        <ele>36.8</ele>
        <time>2020-08-12T09:17:20Z</time>
      </trkpt>
      <trkpt lat="48.64284" lon="-2.83651">
        <ele>37.3</ele>
        <time>2020-08-12T09:17:25Z</time>
      </trkpt>
      <trkpt lat="48.64296" lon="-2.83631">
        <ele>37.3</ele>
        <time>2020-08-12T09:17:30Z</time>
      </trkpt>
      <trkpt lat="48.64301" lon="-2.83607">
        <ele>37.2</ele>
        <time>2020-08-12T09:17:36Z</time>
      </trkpt>
      <trkpt lat="48.64303" lon="-2.83588">
        <ele>37.2</ele>
        <time>2020-08-12T09:17:42Z</time>
      </trkpt>
      <trkpt lat="48.64293" lon="-2.83568">
        <ele>36.6</ele>
        <time>2020-08-12T09:17:50Z</time>
      </trkpt>
      <trkpt lat="48.64273" lon="-2.83558">
        <ele>36.6</ele>
        <time>2020-08-12T09:17:57Z</time>
      </trkpt>
      <trkpt lat="48.64247" lon="-2.83548">
        <ele>37</ele>
        <time>2020-08-12T09:18:04Z</time>
      </trkpt>
      <trkpt lat="48.64223" lon="-2.83535">
        <ele>37.1</ele>
        <time>2020-08-12T09:18:11Z</time>
      </trkpt>
      <trkpt lat="48.64219" lon="-2.83534">
        <ele>37.1</ele>
        <time>2020-08-12T09:18:15Z</time>
      </trkpt>
      <trkpt lat="48.6421" lon="-2.83521">
        <ele>37.2</ele>
        <time>2020-08-12T09:18:41Z</time>
      </trkpt>
      <trkpt lat="48.64197" lon="-2.83503">
        <ele>37.3</ele>
        <time>2020-08-12T09:18:48Z</time>
      </trkpt>
      <trkpt lat="48.64193" lon="-2.83496">
        <ele>36.9</ele>
        <time>2020-08-12T09:18:53Z</time>
      </trkpt>
      <trkpt lat="48.64187" lon="-2.83483">
        <ele>36.9</ele>
        <time>2020-08-12T09:18:59Z</time>
      </trkpt>
      <trkpt lat="48.64176" lon="-2.83463">
        <ele>36.7</ele>
        <time>2020-08-12T09:19:07Z</time>
      </trkpt>
      <trkpt lat="48.64169" lon="-2.83441">
        <ele>36.6</ele>
        <time>2020-08-12T09:19:13Z</time>
      </trkpt>
      <trkpt lat="48.64162" lon="-2.8343">
        <ele>36.8</ele>
        <time>2020-08-12T09:19:16Z</time>
      </trkpt>
      <trkpt lat="48.64164" lon="-2.8341">
        <ele>36.7</ele>
        <time>2020-08-12T09:19:20Z</time>
      </trkpt>
      <trkpt lat="48.64167" lon="-2.83406">
        <ele>36.3</ele>
        <time>2020-08-12T09:19:21Z</time>
      </trkpt>
      <trkpt lat="48.64184" lon="-2.83386">
        <ele>35.5</ele>
        <time>2020-08-12T09:19:27Z</time>
      </trkpt>
      <trkpt lat="48.64212" lon="-2.83368">
        <ele>34.9</ele>
        <time>2020-08-12T09:19:33Z</time>
      </trkpt>
      <trkpt lat="48.64248" lon="-2.83349">
        <ele>33.9</ele>
        <time>2020-08-12T09:19:39Z</time>
      </trkpt>
      <trkpt lat="48.6426" lon="-2.83344">
        <ele>33</ele>
        <time>2020-08-12T09:19:41Z</time>
      </trkpt>
      <trkpt lat="48.64282" lon="-2.8332">
        <ele>31.6</ele>
        <time>2020-08-12T09:19:46Z</time>
      </trkpt>
      <trkpt lat="48.64297" lon="-2.83247">
        <ele>30.1</ele>
        <time>2020-08-12T09:19:54Z</time>
      </trkpt>
      <trkpt lat="48.6431" lon="-2.83179">
        <ele>29.7</ele>
        <time>2020-08-12T09:20:01Z</time>
      </trkpt>
      <trkpt lat="48.6431" lon="-2.83149">
        <ele>29.7</ele>
        <time>2020-08-12T09:20:05Z</time>
      </trkpt>
      <trkpt lat="48.64309" lon="-2.83142">
        <ele>29.8</ele>
        <time>2020-08-12T09:20:08Z</time>
      </trkpt>
      <trkpt lat="48.6431" lon="-2.8313">
        <ele>29.9</ele>
        <time>2020-08-12T09:20:13Z</time>
      </trkpt>
      <trkpt lat="48.6432" lon="-2.83106">
        <ele>30</ele>
        <time>2020-08-12T09:20:18Z</time>
      </trkpt>
      <trkpt lat="48.64328" lon="-2.83069">
        <ele>30.2</ele>
        <time>2020-08-12T09:20:25Z</time>
      </trkpt>
      <trkpt lat="48.64332" lon="-2.83017">
        <ele>30.2</ele>
        <time>2020-08-12T09:20:34Z</time>
      </trkpt>
      <trkpt lat="48.64334" lon="-2.82978">
        <ele>30.3</ele>
        <time>2020-08-12T09:20:41Z</time>
      </trkpt>
      <trkpt lat="48.64339" lon="-2.8292">
        <ele>29.4</ele>
        <time>2020-08-12T09:20:52Z</time>
      </trkpt>
      <trkpt lat="48.64342" lon="-2.82877">
        <ele>26.9</ele>
        <time>2020-08-12T09:20:59Z</time>
      </trkpt>
      <trkpt lat="48.64346" lon="-2.82843">
        <ele>25.4</ele>
        <time>2020-08-12T09:21:03Z</time>
      </trkpt>
      <trkpt lat="48.64356" lon="-2.82809">
        <ele>23</ele>
        <time>2020-08-12T09:21:08Z</time>
      </trkpt>
      <trkpt lat="48.64364" lon="-2.82792">
        <ele>22.7</ele>
        <time>2020-08-12T09:21:11Z</time>
      </trkpt>
      <trkpt lat="48.64374" lon="-2.82777">
        <ele>22.5</ele>
        <time>2020-08-12T09:21:14Z</time>
      </trkpt>
      <trkpt lat="48.64393" lon="-2.82762">
        <ele>22.4</ele>
        <time>2020-08-12T09:21:18Z</time>
      </trkpt>
      <trkpt lat="48.64412" lon="-2.82755">
        <ele>22.2</ele>
        <time>2020-08-12T09:21:22Z</time>
      </trkpt>
      <trkpt lat="48.6444" lon="-2.82752">
        <ele>20.3</ele>
        <time>2020-08-12T09:21:29Z</time>
      </trkpt>
      <trkpt lat="48.64465" lon="-2.82753">
        <ele>18.6</ele>
        <time>2020-08-12T09:21:34Z</time>
      </trkpt>
      <trkpt lat="48.64497" lon="-2.82756">
        <ele>15.4</ele>
        <time>2020-08-12T09:21:40Z</time>
      </trkpt>
      <trkpt lat="48.64526" lon="-2.82757">
        <ele>13.7</ele>
        <time>2020-08-12T09:21:45Z</time>
      </trkpt>
      <trkpt lat="48.64573" lon="-2.82758">
        <ele>11</ele>
        <time>2020-08-12T09:21:52Z</time>
      </trkpt>
      <trkpt lat="48.64593" lon="-2.82758">
        <ele>9.7</ele>
        <time>2020-08-12T09:21:55Z</time>
      </trkpt>
      <trkpt lat="48.64605" lon="-2.82756">
        <ele>9.9</ele>
        <time>2020-08-12T09:21:57Z</time>
      </trkpt>
      <trkpt lat="48.64645" lon="-2.82753">
        <ele>9.5</ele>
        <time>2020-08-12T09:22:04Z</time>
      </trkpt>
      <trkpt lat="48.64672" lon="-2.82754">
        <ele>8.8</ele>
        <time>2020-08-12T09:22:09Z</time>
      </trkpt>
      <trkpt lat="48.6469" lon="-2.82745">
        <ele>8.9</ele>
        <time>2020-08-12T09:22:13Z</time>
      </trkpt>
      <trkpt lat="48.64728" lon="-2.82714">
        <ele>9.9</ele>
        <time>2020-08-12T09:22:22Z</time>
      </trkpt>
      <trkpt lat="48.64772" lon="-2.82692">
        <ele>13.4</ele>
        <time>2020-08-12T09:22:32Z</time>
      </trkpt>
      <trkpt lat="48.648" lon="-2.82685">
        <ele>13.8</ele>
        <time>2020-08-12T09:22:39Z</time>
      </trkpt>
      <trkpt lat="48.64811" lon="-2.82692">
        <ele>13.9</ele>
        <time>2020-08-12T09:22:43Z</time>
      </trkpt>
      <trkpt lat="48.64829" lon="-2.82697">
        <ele>14.1</ele>
        <time>2020-08-12T09:22:50Z</time>
      </trkpt>
      <trkpt lat="48.64846" lon="-2.82702">
        <ele>17.1</ele>
        <time>2020-08-12T09:22:58Z</time>
      </trkpt>
      <trkpt lat="48.64859" lon="-2.82714">
        <ele>17.7</ele>
        <time>2020-08-12T09:23:06Z</time>
      </trkpt>
      <trkpt lat="48.64874" lon="-2.82735">
        <ele>18.3</ele>
        <time>2020-08-12T09:23:16Z</time>
      </trkpt>
      <trkpt lat="48.64884" lon="-2.82754">
        <ele>19</ele>
        <time>2020-08-12T09:23:25Z</time>
      </trkpt>
      <trkpt lat="48.64896" lon="-2.82771">
        <ele>19.3</ele>
        <time>2020-08-12T09:23:35Z</time>
      </trkpt>
      <trkpt lat="48.64901" lon="-2.82779">
        <ele>19.4</ele>
        <time>2020-08-12T09:23:40Z</time>
      </trkpt>
      <trkpt lat="48.6491" lon="-2.82789">
        <ele>19.4</ele>
        <time>2020-08-12T09:23:49Z</time>
      </trkpt>
      <trkpt lat="48.64912" lon="-2.82792">
        <ele>19.4</ele>
        <time>2020-08-12T09:23:53Z</time>
      </trkpt>
      <trkpt lat="48.64919" lon="-2.82804">
        <ele>20.5</ele>
        <time>2020-08-12T09:24:16Z</time>
      </trkpt>
      <trkpt lat="48.64941" lon="-2.8283">
        <ele>20.5</ele>
        <time>2020-08-12T09:24:26Z</time>
      </trkpt>
      <trkpt lat="48.6496" lon="-2.82845">
        <ele>21</ele>
        <time>2020-08-12T09:24:34Z</time>
      </trkpt>
      <trkpt lat="48.6498" lon="-2.82854">
        <ele>21.2</ele>
        <time>2020-08-12T09:24:41Z</time>
      </trkpt>
      <trkpt lat="48.65003" lon="-2.82864">
        <ele>22.3</ele>
        <time>2020-08-12T09:24:50Z</time>
      </trkpt>
      <trkpt lat="48.65015" lon="-2.82867">
        <ele>22.4</ele>
        <time>2020-08-12T09:24:56Z</time>
      </trkpt>
      <trkpt lat="48.65032" lon="-2.82874">
        <ele>22.7</ele>
        <time>2020-08-12T09:25:02Z</time>
      </trkpt>
      <trkpt lat="48.65049" lon="-2.82891">
        <ele>23</ele>
        <time>2020-08-12T09:25:09Z</time>
      </trkpt>
      <trkpt lat="48.65071" lon="-2.82915">
        <ele>23.5</ele>
        <time>2020-08-12T09:25:19Z</time>
      </trkpt>
      <trkpt lat="48.65088" lon="-2.82935">
        <ele>24.8</ele>
        <time>2020-08-12T09:25:28Z</time>
      </trkpt>
      <trkpt lat="48.651" lon="-2.82947">
        <ele>25.1</ele>
        <time>2020-08-12T09:25:35Z</time>
      </trkpt>
      <trkpt lat="48.6511" lon="-2.82951">
        <ele>25.3</ele>
        <time>2020-08-12T09:25:41Z</time>
      </trkpt>
      <trkpt lat="48.65128" lon="-2.82946">
        <ele>25.5</ele>
        <time>2020-08-12T09:25:49Z</time>
      </trkpt>
      <trkpt lat="48.65144" lon="-2.82942">
        <ele>25.8</ele>
        <time>2020-08-12T09:25:56Z</time>
      </trkpt>
      <trkpt lat="48.65164" lon="-2.82938">
        <ele>26.2</ele>
        <time>2020-08-12T09:26:05Z</time>
      </trkpt>
      <trkpt lat="48.65182" lon="-2.82939">
        <ele>27.5</ele>
        <time>2020-08-12T09:26:14Z</time>
      </trkpt>
      <trkpt lat="48.65196" lon="-2.82938">
        <ele>27.7</ele>
        <time>2020-08-12T09:26:21Z</time>
      </trkpt>
      <trkpt lat="48.65214" lon="-2.82937">
        <ele>28.1</ele>
        <time>2020-08-12T09:26:30Z</time>
      </trkpt>
      <trkpt lat="48.65235" lon="-2.82935">
        <ele>28.6</ele>
        <time>2020-08-12T09:26:38Z</time>
      </trkpt>
      <trkpt lat="48.65256" lon="-2.8293">
        <ele>29.4</ele>
        <time>2020-08-12T09:26:45Z</time>
      </trkpt>
      <trkpt lat="48.65278" lon="-2.82908">
        <ele>29.6</ele>
        <time>2020-08-12T09:26:53Z</time>
      </trkpt>
      <trkpt lat="48.653" lon="-2.82884">
        <ele>29.5</ele>
        <time>2020-08-12T09:27:01Z</time>
      </trkpt>
      <trkpt lat="48.65318" lon="-2.82872">
        <ele>29.5</ele>
        <time>2020-08-12T09:27:08Z</time>
      </trkpt>
      <trkpt lat="48.65329" lon="-2.82869">
        <ele>29.5</ele>
        <time>2020-08-12T09:27:14Z</time>
      </trkpt>
      <trkpt lat="48.65342" lon="-2.82865">
        <ele>29.1</ele>
        <time>2020-08-12T09:27:22Z</time>
      </trkpt>
      <trkpt lat="48.65357" lon="-2.82861">
        <ele>29</ele>
        <time>2020-08-12T09:27:30Z</time>
      </trkpt>
      <trkpt lat="48.65358" lon="-2.82861">
        <ele>29</ele>
        <time>2020-08-12T09:27:33Z</time>
      </trkpt>
      <trkpt lat="48.65362" lon="-2.8286">
        <ele>29</ele>
        <time>2020-08-12T09:27:51Z</time>
      </trkpt>
      <trkpt lat="48.65378" lon="-2.82861">
        <ele>28.8</ele>
        <time>2020-08-12T09:27:56Z</time>
      </trkpt>
      <trkpt lat="48.65402" lon="-2.82868">
        <ele>28.6</ele>
        <time>2020-08-12T09:28:01Z</time>
      </trkpt>
      <trkpt lat="48.65426" lon="-2.8287">
        <ele>27.1</ele>
        <time>2020-08-12T09:28:06Z</time>
      </trkpt>
      <trkpt lat="48.65443" lon="-2.82857">
        <ele>27.2</ele>
        <time>2020-08-12T09:28:11Z</time>
      </trkpt>
      <trkpt lat="48.65469" lon="-2.82835">
        <ele>27.5</ele>
        <time>2020-08-12T09:28:19Z</time>
      </trkpt>
      <trkpt lat="48.65495" lon="-2.8282">
        <ele>27.3</ele>
        <time>2020-08-12T09:28:27Z</time>
      </trkpt>
      <trkpt lat="48.65502" lon="-2.82815">
        <ele>23.8</ele>
        <time>2020-08-12T09:28:31Z</time>
      </trkpt>
      <trkpt lat="48.65497" lon="-2.82813">
        <ele>26.7</ele>
        <time>2020-08-12T09:28:36Z</time>
      </trkpt>
      <trkpt lat="48.65493" lon="-2.82817">
        <ele>26.9</ele>
        <time>2020-08-12T09:28:38Z</time>
      </trkpt>
      <trkpt lat="48.65483" lon="-2.82827">
        <ele>27</ele>
        <time>2020-08-12T09:28:44Z</time>
      </trkpt>
      <trkpt lat="48.65474" lon="-2.82833">
        <ele>26.7</ele>
        <time>2020-08-12T09:28:49Z</time>
      </trkpt>
      <trkpt lat="48.6545" lon="-2.82851">
        <ele>27.3</ele>
        <time>2020-08-12T09:28:58Z</time>
      </trkpt>
      <trkpt lat="48.65446" lon="-2.82867">
        <ele>26.9</ele>
        <time>2020-08-12T09:29:03Z</time>
      </trkpt>
      <trkpt lat="48.65439" lon="-2.82902">
        <ele>26.4</ele>
        <time>2020-08-12T09:29:10Z</time>
      </trkpt>
      <trkpt lat="48.65429" lon="-2.82941">
        <ele>23.9</ele>
        <time>2020-08-12T09:29:15Z</time>
      </trkpt>
      <trkpt lat="48.65419" lon="-2.83001">
        <ele>25.4</ele>
        <time>2020-08-12T09:29:22Z</time>
      </trkpt>
      <trkpt lat="48.65418" lon="-2.83016">
        <ele>23.4</ele>
        <time>2020-08-12T09:29:24Z</time>
      </trkpt>
      <trkpt lat="48.6542" lon="-2.83075">
        <ele>24.8</ele>
        <time>2020-08-12T09:29:32Z</time>
      </trkpt>
      <trkpt lat="48.65423" lon="-2.831">
        <ele>23.5</ele>
        <time>2020-08-12T09:29:37Z</time>
      </trkpt>
      <trkpt lat="48.65422" lon="-2.83147">
        <ele>23.3</ele>
        <time>2020-08-12T09:29:47Z</time>
      </trkpt>
      <trkpt lat="48.65415" lon="-2.83176">
        <ele>26.6</ele>
        <time>2020-08-12T09:29:53Z</time>
      </trkpt>
      <trkpt lat="48.65405" lon="-2.83196">
        <ele>26.1</ele>
        <time>2020-08-12T09:29:59Z</time>
      </trkpt>
      <trkpt lat="48.65398" lon="-2.8322">
        <ele>25.6</ele>
        <time>2020-08-12T09:30:05Z</time>
      </trkpt>
      <trkpt lat="48.6541" lon="-2.83259">
        <ele>24.1</ele>
        <time>2020-08-12T09:30:12Z</time>
      </trkpt>
      <trkpt lat="48.6542" lon="-2.833">
        <ele>19.3</ele>
        <time>2020-08-12T09:30:18Z</time>
      </trkpt>
      <trkpt lat="48.65421" lon="-2.83306">
        <ele>19.3</ele>
        <time>2020-08-12T09:30:19Z</time>
      </trkpt>
      <trkpt lat="48.65425" lon="-2.83347">
        <ele>18.5</ele>
        <time>2020-08-12T09:30:25Z</time>
      </trkpt>
      <trkpt lat="48.65427" lon="-2.83389">
        <ele>16.8</ele>
        <time>2020-08-12T09:30:30Z</time>
      </trkpt>
      <trkpt lat="48.65428" lon="-2.83415">
        <ele>17.2</ele>
        <time>2020-08-12T09:30:35Z</time>
      </trkpt>
      <trkpt lat="48.65428" lon="-2.83434">
        <ele>16.3</ele>
        <time>2020-08-12T09:30:42Z</time>
      </trkpt>
      <trkpt lat="48.65426" lon="-2.83455">
        <ele>15.7</ele>
        <time>2020-08-12T09:30:47Z</time>
      </trkpt>
      <trkpt lat="48.65426" lon="-2.83498">
        <ele>15.7</ele>
        <time>2020-08-12T09:30:55Z</time>
      </trkpt>
      <trkpt lat="48.65428" lon="-2.83541">
        <ele>14.5</ele>
        <time>2020-08-12T09:31:02Z</time>
      </trkpt>
      <trkpt lat="48.65428" lon="-2.83577">
        <ele>14.6</ele>
        <time>2020-08-12T09:31:09Z</time>
      </trkpt>
      <trkpt lat="48.65429" lon="-2.83602">
        <ele>13.3</ele>
        <time>2020-08-12T09:31:15Z</time>
      </trkpt>
      <trkpt lat="48.65429" lon="-2.83619">
        <ele>12.8</ele>
        <time>2020-08-12T09:31:18Z</time>
      </trkpt>
      <trkpt lat="48.65438" lon="-2.83641">
        <ele>12.3</ele>
        <time>2020-08-12T09:31:22Z</time>
      </trkpt>
      <trkpt lat="48.6545" lon="-2.83651">
        <ele>12</ele>
        <time>2020-08-12T09:31:25Z</time>
      </trkpt>
      <trkpt lat="48.65467" lon="-2.83663">
        <ele>11.6</ele>
        <time>2020-08-12T09:31:30Z</time>
      </trkpt>
      <trkpt lat="48.65476" lon="-2.83668">
        <ele>10.5</ele>
        <time>2020-08-12T09:31:34Z</time>
      </trkpt>
      <trkpt lat="48.65475" lon="-2.83662">
        <ele>11.4</ele>
        <time>2020-08-12T09:31:37Z</time>
      </trkpt>
      <trkpt lat="48.65474" lon="-2.83661">
        <ele>11.4</ele>
        <time>2020-08-12T09:31:39Z</time>
      </trkpt>
      <trkpt lat="48.65474" lon="-2.83659">
        <ele>11.5</ele>
        <time>2020-08-12T09:31:41Z</time>
      </trkpt>
      <trkpt lat="48.65464" lon="-2.8365">
        <ele>11.8</ele>
        <time>2020-08-12T09:31:48Z</time>
      </trkpt>
      <trkpt lat="48.65463" lon="-2.83649">
        <ele>11.8</ele>
        <time>2020-08-12T09:31:51Z</time>
      </trkpt>
      <trkpt lat="48.65465" lon="-2.83657">
        <ele>11.7</ele>
        <time>2020-08-12T09:38:04Z</time>
      </trkpt>
      <trkpt lat="48.65466" lon="-2.83656">
        <ele>11.7</ele>
        <time>2020-08-12T09:38:06Z</time>
      </trkpt>
      <trkpt lat="48.65473" lon="-2.8366">
        <ele>11.5</ele>
        <time>2020-08-12T09:38:18Z</time>
      </trkpt>
      <trkpt lat="48.65474" lon="-2.83661">
        <ele>11.4</ele>
        <time>2020-08-12T09:38:19Z</time>
      </trkpt>
      <trkpt lat="48.65485" lon="-2.83668">
        <ele>10.4</ele>
        <time>2020-08-12T09:38:26Z</time>
      </trkpt>
      <trkpt lat="48.65493" lon="-2.83673">
        <ele>10.3</ele>
        <time>2020-08-12T09:38:30Z</time>
      </trkpt>
      <trkpt lat="48.65501" lon="-2.83671">
        <ele>9.6</ele>
        <time>2020-08-12T09:38:35Z</time>
      </trkpt>
      <trkpt lat="48.65507" lon="-2.83662">
        <ele>9.6</ele>
        <time>2020-08-12T09:38:39Z</time>
      </trkpt>
      <trkpt lat="48.65516" lon="-2.83653">
        <ele>9.2</ele>
        <time>2020-08-12T09:38:44Z</time>
      </trkpt>
      <trkpt lat="48.65518" lon="-2.83642">
        <ele>9.2</ele>
        <time>2020-08-12T09:38:49Z</time>
      </trkpt>
      <trkpt lat="48.65518" lon="-2.83641">
        <ele>9.2</ele>
        <time>2020-08-12T09:38:51Z</time>
      </trkpt>
      <trkpt lat="48.65516" lon="-2.83639">
        <ele>9.2</ele>
        <time>2020-08-12T09:39:16Z</time>
      </trkpt>
      <trkpt lat="48.65517" lon="-2.83644">
        <ele>9.2</ele>
        <time>2020-08-12T09:39:23Z</time>
      </trkpt>
      <trkpt lat="48.65517" lon="-2.83645">
        <ele>9.2</ele>
        <time>2020-08-12T09:39:25Z</time>
      </trkpt>
      <trkpt lat="48.65513" lon="-2.83655">
        <ele>9.3</ele>
        <time>2020-08-12T09:39:31Z</time>
      </trkpt>
      <trkpt lat="48.65504" lon="-2.83669">
        <ele>9.6</ele>
        <time>2020-08-12T09:39:39Z</time>
      </trkpt>
      <trkpt lat="48.65503" lon="-2.8367">
        <ele>9.6</ele>
        <time>2020-08-12T09:39:41Z</time>
      </trkpt>
      <trkpt lat="48.65502" lon="-2.83672">
        <ele>9.5</ele>
        <time>2020-08-12T09:39:46Z</time>
      </trkpt>
      <trkpt lat="48.65499" lon="-2.83684">
        <ele>10.4</ele>
        <time>2020-08-12T09:39:53Z</time>
      </trkpt>
      <trkpt lat="48.65502" lon="-2.83694">
        <ele>8.7</ele>
        <time>2020-08-12T09:39:57Z</time>
      </trkpt>
      <trkpt lat="48.65518" lon="-2.8372">
        <ele>8.4</ele>
        <time>2020-08-12T09:40:05Z</time>
      </trkpt>
      <trkpt lat="48.65541" lon="-2.83755">
        <ele>10</ele>
        <time>2020-08-12T09:40:13Z</time>
      </trkpt>
      <trkpt lat="48.65561" lon="-2.8379">
        <ele>10.5</ele>
        <time>2020-08-12T09:40:20Z</time>
      </trkpt>
      <trkpt lat="48.6558" lon="-2.8382">
        <ele>12</ele>
        <time>2020-08-12T09:40:27Z</time>
      </trkpt>
      <trkpt lat="48.65596" lon="-2.83844">
        <ele>14.2</ele>
        <time>2020-08-12T09:40:35Z</time>
      </trkpt>
      <trkpt lat="48.65613" lon="-2.83872">
        <ele>15.4</ele>
        <time>2020-08-12T09:40:46Z</time>
      </trkpt>
      <trkpt lat="48.65627" lon="-2.83894">
        <ele>16</ele>
        <time>2020-08-12T09:40:55Z</time>
      </trkpt>
      <trkpt lat="48.6564" lon="-2.83913">
        <ele>16.6</ele>
        <time>2020-08-12T09:41:03Z</time>
      </trkpt>
      <trkpt lat="48.65651" lon="-2.83933">
        <ele>19.6</ele>
        <time>2020-08-12T09:41:10Z</time>
      </trkpt>
      <trkpt lat="48.65665" lon="-2.83959">
        <ele>20.7</ele>
        <time>2020-08-12T09:41:20Z</time>
      </trkpt>
      <trkpt lat="48.65672" lon="-2.83969">
        <ele>20.4</ele>
        <time>2020-08-12T09:41:24Z</time>
      </trkpt>
      <trkpt lat="48.65686" lon="-2.83972">
        <ele>20.3</ele>
        <time>2020-08-12T09:41:30Z</time>
      </trkpt>
      <trkpt lat="48.65699" lon="-2.83984">
        <ele>20.4</ele>
        <time>2020-08-12T09:41:37Z</time>
      </trkpt>
      <trkpt lat="48.65714" lon="-2.83996">
        <ele>20.3</ele>
        <time>2020-08-12T09:41:45Z</time>
      </trkpt>
      <trkpt lat="48.65727" lon="-2.84009">
        <ele>22.8</ele>
        <time>2020-08-12T09:41:52Z</time>
      </trkpt>
      <trkpt lat="48.65744" lon="-2.84027">
        <ele>23</ele>
        <time>2020-08-12T09:42:01Z</time>
      </trkpt>
      <trkpt lat="48.65759" lon="-2.84048">
        <ele>21.4</ele>
        <time>2020-08-12T09:42:09Z</time>
      </trkpt>
      <trkpt lat="48.65773" lon="-2.84076">
        <ele>22</ele>
        <time>2020-08-12T09:42:19Z</time>
      </trkpt>
      <trkpt lat="48.65783" lon="-2.84097">
        <ele>23.5</ele>
        <time>2020-08-12T09:42:26Z</time>
      </trkpt>
      <trkpt lat="48.65793" lon="-2.84116">
        <ele>23.4</ele>
        <time>2020-08-12T09:42:33Z</time>
      </trkpt>
      <trkpt lat="48.65805" lon="-2.84138">
        <ele>23.3</ele>
        <time>2020-08-12T09:42:42Z</time>
      </trkpt>
      <trkpt lat="48.65811" lon="-2.84157">
        <ele>23.1</ele>
        <time>2020-08-12T09:42:50Z</time>
      </trkpt>
      <trkpt lat="48.65817" lon="-2.84183">
        <ele>24.1</ele>
        <time>2020-08-12T09:42:57Z</time>
      </trkpt>
      <trkpt lat="48.65827" lon="-2.84209">
        <ele>24.6</ele>
        <time>2020-08-12T09:43:03Z</time>
      </trkpt>
      <trkpt lat="48.65844" lon="-2.84228">
        <ele>22.7</ele>
        <time>2020-08-12T09:43:09Z</time>
      </trkpt>
      <trkpt lat="48.65862" lon="-2.84246">
        <ele>22.6</ele>
        <time>2020-08-12T09:43:14Z</time>
      </trkpt>
      <trkpt lat="48.6589" lon="-2.84265">
        <ele>24.2</ele>
        <time>2020-08-12T09:43:21Z</time>
      </trkpt>
      <trkpt lat="48.65911" lon="-2.8428">
        <ele>24.1</ele>
        <time>2020-08-12T09:43:29Z</time>
      </trkpt>
      <trkpt lat="48.65926" lon="-2.84291">
        <ele>23</ele>
        <time>2020-08-12T09:43:36Z</time>
      </trkpt>
      <trkpt lat="48.65941" lon="-2.843">
        <ele>23</ele>
        <time>2020-08-12T09:43:42Z</time>
      </trkpt>
      <trkpt lat="48.65963" lon="-2.8432">
        <ele>22.8</ele>
        <time>2020-08-12T09:43:51Z</time>
      </trkpt>
      <trkpt lat="48.65977" lon="-2.8433">
        <ele>22.5</ele>
        <time>2020-08-12T09:43:56Z</time>
      </trkpt>
      <trkpt lat="48.65996" lon="-2.8435">
        <ele>23.1</ele>
        <time>2020-08-12T09:44:04Z</time>
      </trkpt>
      <trkpt lat="48.66007" lon="-2.84364">
        <ele>23.4</ele>
        <time>2020-08-12T09:44:11Z</time>
      </trkpt>
      <trkpt lat="48.66016" lon="-2.8437">
        <ele>23.6</ele>
        <time>2020-08-12T09:44:16Z</time>
      </trkpt>
      <trkpt lat="48.66036" lon="-2.8439">
        <ele>24</ele>
        <time>2020-08-12T09:44:25Z</time>
      </trkpt>
      <trkpt lat="48.66059" lon="-2.84406">
        <ele>24.6</ele>
        <time>2020-08-12T09:44:36Z</time>
      </trkpt>
      <trkpt lat="48.66078" lon="-2.84422">
        <ele>26.5</ele>
        <time>2020-08-12T09:44:45Z</time>
      </trkpt>
      <trkpt lat="48.66096" lon="-2.84431">
        <ele>27.3</ele>
        <time>2020-08-12T09:44:52Z</time>
      </trkpt>
      <trkpt lat="48.66119" lon="-2.84435">
        <ele>27.8</ele>
        <time>2020-08-12T09:44:59Z</time>
      </trkpt>
      <trkpt lat="48.6615" lon="-2.84436">
        <ele>27.6</ele>
        <time>2020-08-12T09:45:07Z</time>
      </trkpt>
      <trkpt lat="48.66172" lon="-2.84451">
        <ele>28.5</ele>
        <time>2020-08-12T09:45:14Z</time>
      </trkpt>
      <trkpt lat="48.66186" lon="-2.84471">
        <ele>29.3</ele>
        <time>2020-08-12T09:45:21Z</time>
      </trkpt>
      <trkpt lat="48.66201" lon="-2.84495">
        <ele>29.6</ele>
        <time>2020-08-12T09:45:30Z</time>
      </trkpt>
      <trkpt lat="48.66214" lon="-2.84513">
        <ele>31.8</ele>
        <time>2020-08-12T09:45:38Z</time>
      </trkpt>
      <trkpt lat="48.66226" lon="-2.84533">
        <ele>32.2</ele>
        <time>2020-08-12T09:45:47Z</time>
      </trkpt>
      <trkpt lat="48.66238" lon="-2.84552">
        <ele>32.7</ele>
        <time>2020-08-12T09:45:55Z</time>
      </trkpt>
      <trkpt lat="48.66249" lon="-2.84573">
        <ele>33.5</ele>
        <time>2020-08-12T09:46:03Z</time>
      </trkpt>
      <trkpt lat="48.6626" lon="-2.84595">
        <ele>33.9</ele>
        <time>2020-08-12T09:46:12Z</time>
      </trkpt>
      <trkpt lat="48.66269" lon="-2.8462">
        <ele>34.2</ele>
        <time>2020-08-12T09:46:22Z</time>
      </trkpt>
      <trkpt lat="48.66272" lon="-2.84647">
        <ele>35</ele>
        <time>2020-08-12T09:46:32Z</time>
      </trkpt>
      <trkpt lat="48.66274" lon="-2.84666">
        <ele>35.4</ele>
        <time>2020-08-12T09:46:40Z</time>
      </trkpt>
      <trkpt lat="48.66277" lon="-2.84686">
        <ele>37.4</ele>
        <time>2020-08-12T09:46:47Z</time>
      </trkpt>
      <trkpt lat="48.66283" lon="-2.84711">
        <ele>37.7</ele>
        <time>2020-08-12T09:46:55Z</time>
      </trkpt>
      <trkpt lat="48.66291" lon="-2.8475">
        <ele>40.6</ele>
        <time>2020-08-12T09:47:05Z</time>
      </trkpt>
      <trkpt lat="48.66298" lon="-2.84783">
        <ele>41</ele>
        <time>2020-08-12T09:47:14Z</time>
      </trkpt>
      <trkpt lat="48.66305" lon="-2.84816">
        <ele>41.6</ele>
        <time>2020-08-12T09:47:23Z</time>
      </trkpt>
      <trkpt lat="48.6631" lon="-2.84843">
        <ele>43.8</ele>
        <time>2020-08-12T09:47:32Z</time>
      </trkpt>
      <trkpt lat="48.6632" lon="-2.84873">
        <ele>44.4</ele>
        <time>2020-08-12T09:47:42Z</time>
      </trkpt>
      <trkpt lat="48.66332" lon="-2.8491">
        <ele>44.3</ele>
        <time>2020-08-12T09:47:54Z</time>
      </trkpt>
      <trkpt lat="48.66339" lon="-2.84929">
        <ele>44</ele>
        <time>2020-08-12T09:48:01Z</time>
      </trkpt>
      <trkpt lat="48.66345" lon="-2.84949">
        <ele>44.3</ele>
        <time>2020-08-12T09:48:09Z</time>
      </trkpt>
      <trkpt lat="48.66349" lon="-2.8497">
        <ele>44.7</ele>
        <time>2020-08-12T09:48:17Z</time>
      </trkpt>
      <trkpt lat="48.66353" lon="-2.84997">
        <ele>45.4</ele>
        <time>2020-08-12T09:48:23Z</time>
      </trkpt>
      <trkpt lat="48.66358" lon="-2.85029">
        <ele>46.8</ele>
        <time>2020-08-12T09:48:30Z</time>
      </trkpt>
      <trkpt lat="48.66362" lon="-2.85056">
        <ele>47.2</ele>
        <time>2020-08-12T09:48:37Z</time>
      </trkpt>
      <trkpt lat="48.66367" lon="-2.85079">
        <ele>47.4</ele>
        <time>2020-08-12T09:48:44Z</time>
      </trkpt>
      <trkpt lat="48.66374" lon="-2.8511">
        <ele>47.4</ele>
        <time>2020-08-12T09:48:53Z</time>
      </trkpt>
      <trkpt lat="48.66376" lon="-2.85117">
        <ele>47.3</ele>
        <time>2020-08-12T09:48:58Z</time>
      </trkpt>
      <trkpt lat="48.66378" lon="-2.85131">
        <ele>47.1</ele>
        <time>2020-08-12T09:49:39Z</time>
      </trkpt>
      <trkpt lat="48.66384" lon="-2.85156">
        <ele>46.5</ele>
        <time>2020-08-12T09:49:43Z</time>
      </trkpt>
      <trkpt lat="48.66395" lon="-2.85191">
        <ele>45.3</ele>
        <time>2020-08-12T09:49:49Z</time>
      </trkpt>
      <trkpt lat="48.66398" lon="-2.85194">
        <ele>45.2</ele>
        <time>2020-08-12T09:49:50Z</time>
      </trkpt>
      <trkpt lat="48.66409" lon="-2.85196">
        <ele>44.8</ele>
        <time>2020-08-12T09:49:56Z</time>
      </trkpt>
      <trkpt lat="48.66409" lon="-2.85196">
        <ele>44.8</ele>
        <time>2020-08-12T09:49:57Z</time>
      </trkpt>
      <trkpt lat="48.6641" lon="-2.85194">
        <ele>44.8</ele>
        <time>2020-08-12T09:50:04Z</time>
      </trkpt>
      <trkpt lat="48.66407" lon="-2.85195">
        <ele>44.9</ele>
        <time>2020-08-12T09:51:45Z</time>
      </trkpt>
      <trkpt lat="48.66407" lon="-2.85195">
        <ele>44.9</ele>
        <time>2020-08-12T09:51:46Z</time>
      </trkpt>
      <trkpt lat="48.66406" lon="-2.85197">
        <ele>44.9</ele>
        <time>2020-08-12T09:51:56Z</time>
      </trkpt>
      <trkpt lat="48.66404" lon="-2.85215">
        <ele>44.8</ele>
        <time>2020-08-12T09:52:10Z</time>
      </trkpt>
      <trkpt lat="48.66405" lon="-2.85218">
        <ele>44.7</ele>
        <time>2020-08-12T09:52:11Z</time>
      </trkpt>
      <trkpt lat="48.66419" lon="-2.85248">
        <ele>40.5</ele>
        <time>2020-08-12T09:52:17Z</time>
      </trkpt>
      <trkpt lat="48.66445" lon="-2.8528">
        <ele>35.8</ele>
        <time>2020-08-12T09:52:24Z</time>
      </trkpt>
      <trkpt lat="48.66449" lon="-2.85284">
        <ele>35.5</ele>
        <time>2020-08-12T09:52:25Z</time>
      </trkpt>
      <trkpt lat="48.66477" lon="-2.853">
        <ele>33.3</ele>
        <time>2020-08-12T09:52:31Z</time>
      </trkpt>
      <trkpt lat="48.66507" lon="-2.8531">
        <ele>25.5</ele>
        <time>2020-08-12T09:52:37Z</time>
      </trkpt>
      <trkpt lat="48.66534" lon="-2.85331">
        <ele>24</ele>
        <time>2020-08-12T09:52:42Z</time>
      </trkpt>
      <trkpt lat="48.6657" lon="-2.85374">
        <ele>19.1</ele>
        <time>2020-08-12T09:52:48Z</time>
      </trkpt>
      <trkpt lat="48.66614" lon="-2.85429">
        <ele>13.5</ele>
        <time>2020-08-12T09:52:55Z</time>
      </trkpt>
      <trkpt lat="48.66641" lon="-2.85463">
        <ele>13.1</ele>
        <time>2020-08-12T09:53:00Z</time>
      </trkpt>
      <trkpt lat="48.6665" lon="-2.85472">
        <ele>13.1</ele>
        <time>2020-08-12T09:53:02Z</time>
      </trkpt>
      <trkpt lat="48.66671" lon="-2.85496">
        <ele>13.2</ele>
        <time>2020-08-12T09:53:08Z</time>
      </trkpt>
      <trkpt lat="48.66677" lon="-2.85493">
        <ele>13.4</ele>
        <time>2020-08-12T09:53:13Z</time>
      </trkpt>
      <trkpt lat="48.66682" lon="-2.85484">
        <ele>13.5</ele>
        <time>2020-08-12T09:53:28Z</time>
      </trkpt>
      <trkpt lat="48.66678" lon="-2.85479">
        <ele>13.4</ele>
        <time>2020-08-12T09:53:33Z</time>
      </trkpt>
      <trkpt lat="48.66678" lon="-2.85479">
        <ele>13.4</ele>
        <time>2020-08-12T09:53:34Z</time>
      </trkpt>
      <trkpt lat="48.66675" lon="-2.85477">
        <ele>13.3</ele>
        <time>2020-08-12T09:53:51Z</time>
      </trkpt>
      <trkpt lat="48.66679" lon="-2.85476">
        <ele>13.4</ele>
        <time>2020-08-12T09:56:15Z</time>
      </trkpt>
      <trkpt lat="48.66688" lon="-2.85456">
        <ele>13</ele>
        <time>2020-08-12T09:57:47Z</time>
      </trkpt>
      <trkpt lat="48.66694" lon="-2.85436">
        <ele>12.4</ele>
        <time>2020-08-12T09:57:53Z</time>
      </trkpt>
      <trkpt lat="48.66702" lon="-2.85433">
        <ele>12.6</ele>
        <time>2020-08-12T09:57:57Z</time>
      </trkpt>
      <trkpt lat="48.66713" lon="-2.85429">
        <ele>12.9</ele>
        <time>2020-08-12T09:58:04Z</time>
      </trkpt>
      <trkpt lat="48.66714" lon="-2.85429">
        <ele>12.9</ele>
        <time>2020-08-12T09:58:05Z</time>
      </trkpt>
      <trkpt lat="48.66718" lon="-2.85426">
        <ele>12.9</ele>
        <time>2020-08-12T09:58:24Z</time>
      </trkpt>
      <trkpt lat="48.66718" lon="-2.85424">
        <ele>12.9</ele>
        <time>2020-08-12T09:58:26Z</time>
      </trkpt>
      <trkpt lat="48.66719" lon="-2.85413">
        <ele>9.8</ele>
        <time>2020-08-12T09:58:33Z</time>
      </trkpt>
      <trkpt lat="48.6672" lon="-2.85406">
        <ele>9.7</ele>
        <time>2020-08-12T09:58:40Z</time>
      </trkpt>
      <trkpt lat="48.66719" lon="-2.854">
        <ele>9.6</ele>
        <time>2020-08-12T09:59:11Z</time>
      </trkpt>
      <trkpt lat="48.66718" lon="-2.85406">
        <ele>9.7</ele>
        <time>2020-08-12T10:00:02Z</time>
      </trkpt>
      <trkpt lat="48.66716" lon="-2.8541">
        <ele>9.7</ele>
        <time>2020-08-12T10:00:07Z</time>
      </trkpt>
      <trkpt lat="48.66713" lon="-2.85418">
        <ele>12.7</ele>
        <time>2020-08-12T10:00:14Z</time>
      </trkpt>
      <trkpt lat="48.66707" lon="-2.85435">
        <ele>12.9</ele>
        <time>2020-08-12T10:00:21Z</time>
      </trkpt>
      <trkpt lat="48.667" lon="-2.85454">
        <ele>13.3</ele>
        <time>2020-08-12T10:00:27Z</time>
      </trkpt>
      <trkpt lat="48.66689" lon="-2.85478">
        <ele>13.7</ele>
        <time>2020-08-12T10:00:36Z</time>
      </trkpt>
      <trkpt lat="48.66679" lon="-2.85492">
        <ele>13.5</ele>
        <time>2020-08-12T10:00:42Z</time>
      </trkpt>
      <trkpt lat="48.66674" lon="-2.85508">
        <ele>15.3</ele>
        <time>2020-08-12T10:00:47Z</time>
      </trkpt>
      <trkpt lat="48.66665" lon="-2.85546">
        <ele>16.2</ele>
        <time>2020-08-12T10:00:57Z</time>
      </trkpt>
      <trkpt lat="48.66653" lon="-2.8558">
        <ele>16.9</ele>
        <time>2020-08-12T10:01:06Z</time>
      </trkpt>
      <trkpt lat="48.66646" lon="-2.85602">
        <ele>18.6</ele>
        <time>2020-08-12T10:01:12Z</time>
      </trkpt>
      <trkpt lat="48.66639" lon="-2.85624">
        <ele>19.1</ele>
        <time>2020-08-12T10:01:19Z</time>
      </trkpt>
      <trkpt lat="48.66631" lon="-2.85654">
        <ele>19.5</ele>
        <time>2020-08-12T10:01:28Z</time>
      </trkpt>
      <trkpt lat="48.66624" lon="-2.85685">
        <ele>21.8</ele>
        <time>2020-08-12T10:01:38Z</time>
      </trkpt>
      <trkpt lat="48.66623" lon="-2.8571">
        <ele>22.5</ele>
        <time>2020-08-12T10:01:46Z</time>
      </trkpt>
      <trkpt lat="48.66625" lon="-2.85735">
        <ele>23.2</ele>
        <time>2020-08-12T10:01:55Z</time>
      </trkpt>
      <trkpt lat="48.66629" lon="-2.8576">
        <ele>26.5</ele>
        <time>2020-08-12T10:02:04Z</time>
      </trkpt>
      <trkpt lat="48.66629" lon="-2.8579">
        <ele>27.1</ele>
        <time>2020-08-12T10:02:15Z</time>
      </trkpt>
      <trkpt lat="48.66623" lon="-2.85815">
        <ele>27.4</ele>
        <time>2020-08-12T10:02:25Z</time>
      </trkpt>
      <trkpt lat="48.66618" lon="-2.85834">
        <ele>29.1</ele>
        <time>2020-08-12T10:02:33Z</time>
      </trkpt>
      <trkpt lat="48.66614" lon="-2.85852">
        <ele>29</ele>
        <time>2020-08-12T10:02:40Z</time>
      </trkpt>
      <trkpt lat="48.66611" lon="-2.85871">
        <ele>29.2</ele>
        <time>2020-08-12T10:02:46Z</time>
      </trkpt>
      <trkpt lat="48.66605" lon="-2.85901">
        <ele>28.9</ele>
        <time>2020-08-12T10:02:53Z</time>
      </trkpt>
      <trkpt lat="48.66595" lon="-2.85941">
        <ele>29.2</ele>
        <time>2020-08-12T10:03:01Z</time>
      </trkpt>
      <trkpt lat="48.6659" lon="-2.85965">
        <ele>29.2</ele>
        <time>2020-08-12T10:03:06Z</time>
      </trkpt>
      <trkpt lat="48.66588" lon="-2.86011">
        <ele>27.8</ele>
        <time>2020-08-12T10:03:16Z</time>
      </trkpt>
      <trkpt lat="48.66594" lon="-2.86035">
        <ele>28.3</ele>
        <time>2020-08-12T10:03:22Z</time>
      </trkpt>
      <trkpt lat="48.66608" lon="-2.86068">
        <ele>28</ele>
        <time>2020-08-12T10:03:31Z</time>
      </trkpt>
      <trkpt lat="48.66625" lon="-2.86096">
        <ele>28</ele>
        <time>2020-08-12T10:03:39Z</time>
      </trkpt>
      <trkpt lat="48.66643" lon="-2.86108">
        <ele>28.4</ele>
        <time>2020-08-12T10:03:47Z</time>
      </trkpt>
      <trkpt lat="48.66658" lon="-2.86116">
        <ele>28.5</ele>
        <time>2020-08-12T10:03:54Z</time>
      </trkpt>
      <trkpt lat="48.66678" lon="-2.86115">
        <ele>29.8</ele>
        <time>2020-08-12T10:04:03Z</time>
      </trkpt>
      <trkpt lat="48.667" lon="-2.86109">
        <ele>30.1</ele>
        <time>2020-08-12T10:04:12Z</time>
      </trkpt>
      <trkpt lat="48.6672" lon="-2.86104">
        <ele>30.6</ele>
        <time>2020-08-12T10:04:21Z</time>
      </trkpt>
      <trkpt lat="48.66737" lon="-2.86101">
        <ele>31</ele>
        <time>2020-08-12T10:04:29Z</time>
      </trkpt>
      <trkpt lat="48.6675" lon="-2.861">
        <ele>31.2</ele>
        <time>2020-08-12T10:04:36Z</time>
      </trkpt>
      <trkpt lat="48.6676" lon="-2.861">
        <ele>32.3</ele>
        <time>2020-08-12T10:04:41Z</time>
      </trkpt>
      <trkpt lat="48.66774" lon="-2.86092">
        <ele>32.5</ele>
        <time>2020-08-12T10:04:47Z</time>
      </trkpt>
      <trkpt lat="48.66794" lon="-2.86081">
        <ele>34.7</ele>
        <time>2020-08-12T10:04:57Z</time>
      </trkpt>
      <trkpt lat="48.66808" lon="-2.86082">
        <ele>34.9</ele>
        <time>2020-08-12T10:05:04Z</time>
      </trkpt>
      <trkpt lat="48.66826" lon="-2.86099">
        <ele>33.7</ele>
        <time>2020-08-12T10:05:12Z</time>
      </trkpt>
      <trkpt lat="48.66848" lon="-2.86126">
        <ele>33.5</ele>
        <time>2020-08-12T10:05:21Z</time>
      </trkpt>
      <trkpt lat="48.66879" lon="-2.86156">
        <ele>33.2</ele>
        <time>2020-08-12T10:05:31Z</time>
      </trkpt>
      <trkpt lat="48.66903" lon="-2.86179">
        <ele>32.5</ele>
        <time>2020-08-12T10:05:39Z</time>
      </trkpt>
      <trkpt lat="48.66932" lon="-2.86206">
        <ele>32.8</ele>
        <time>2020-08-12T10:05:49Z</time>
      </trkpt>
      <trkpt lat="48.66953" lon="-2.86227">
        <ele>32.7</ele>
        <time>2020-08-12T10:05:57Z</time>
      </trkpt>
      <trkpt lat="48.66955" lon="-2.86238">
        <ele>32.7</ele>
        <time>2020-08-12T10:06:00Z</time>
      </trkpt>
      <trkpt lat="48.6695" lon="-2.86248">
        <ele>32.7</ele>
        <time>2020-08-12T10:06:04Z</time>
      </trkpt>
      <trkpt lat="48.66937" lon="-2.86271">
        <ele>32.6</ele>
        <time>2020-08-12T10:06:13Z</time>
      </trkpt>
      <trkpt lat="48.66929" lon="-2.86285">
        <ele>32.5</ele>
        <time>2020-08-12T10:06:19Z</time>
      </trkpt>
      <trkpt lat="48.66924" lon="-2.86293">
        <ele>32.5</ele>
        <time>2020-08-12T10:06:24Z</time>
      </trkpt>
      <trkpt lat="48.66924" lon="-2.86293">
        <ele>32.5</ele>
        <time>2020-08-12T10:06:26Z</time>
      </trkpt>
      <trkpt lat="48.66929" lon="-2.8628">
        <ele>32.6</ele>
        <time>2020-08-12T10:06:33Z</time>
      </trkpt>
      <trkpt lat="48.66939" lon="-2.86259">
        <ele>32.6</ele>
        <time>2020-08-12T10:06:39Z</time>
      </trkpt>
      <trkpt lat="48.66951" lon="-2.86238">
        <ele>32.7</ele>
        <time>2020-08-12T10:06:45Z</time>
      </trkpt>
      <trkpt lat="48.66963" lon="-2.86238">
        <ele>32.6</ele>
        <time>2020-08-12T10:06:51Z</time>
      </trkpt>
      <trkpt lat="48.6698" lon="-2.86252">
        <ele>32.3</ele>
        <time>2020-08-12T10:06:56Z</time>
      </trkpt>
      <trkpt lat="48.67011" lon="-2.86277">
        <ele>31.9</ele>
        <time>2020-08-12T10:07:04Z</time>
      </trkpt>
      <trkpt lat="48.67036" lon="-2.86297">
        <ele>31.8</ele>
        <time>2020-08-12T10:07:11Z</time>
      </trkpt>
      <trkpt lat="48.67059" lon="-2.86312">
        <ele>31.6</ele>
        <time>2020-08-12T10:07:19Z</time>
      </trkpt>
      <trkpt lat="48.67084" lon="-2.86333">
        <ele>31</ele>
        <time>2020-08-12T10:07:28Z</time>
      </trkpt>
      <trkpt lat="48.6711" lon="-2.86353">
        <ele>29.3</ele>
        <time>2020-08-12T10:07:36Z</time>
      </trkpt>
      <trkpt lat="48.67139" lon="-2.86376">
        <ele>28</ele>
        <time>2020-08-12T10:07:44Z</time>
      </trkpt>
      <trkpt lat="48.67153" lon="-2.8639">
        <ele>26.7</ele>
        <time>2020-08-12T10:07:49Z</time>
      </trkpt>
      <trkpt lat="48.6716" lon="-2.86391">
        <ele>26.3</ele>
        <time>2020-08-12T10:07:53Z</time>
      </trkpt>
      <trkpt lat="48.6716" lon="-2.86391">
        <ele>26.3</ele>
        <time>2020-08-12T10:07:54Z</time>
      </trkpt>
      <trkpt lat="48.67159" lon="-2.86393">
        <ele>26.2</ele>
        <time>2020-08-12T10:08:12Z</time>
      </trkpt>
      <trkpt lat="48.67159" lon="-2.86396">
        <ele>25.9</ele>
        <time>2020-08-12T10:08:17Z</time>
      </trkpt>
      <trkpt lat="48.67155" lon="-2.86395">
        <ele>26.2</ele>
        <time>2020-08-12T10:09:46Z</time>
      </trkpt>
      <trkpt lat="48.67146" lon="-2.86383">
        <ele>27.4</ele>
        <time>2020-08-12T10:09:56Z</time>
      </trkpt>
      <trkpt lat="48.67131" lon="-2.8637">
        <ele>28.4</ele>
        <time>2020-08-12T10:10:02Z</time>
      </trkpt>
      <trkpt lat="48.67115" lon="-2.86361">
        <ele>29</ele>
        <time>2020-08-12T10:10:08Z</time>
      </trkpt>
      <trkpt lat="48.67098" lon="-2.86349">
        <ele>29.7</ele>
        <time>2020-08-12T10:10:16Z</time>
      </trkpt>
      <trkpt lat="48.67084" lon="-2.86337">
        <ele>30.7</ele>
        <time>2020-08-12T10:10:23Z</time>
      </trkpt>
      <trkpt lat="48.6706" lon="-2.86319">
        <ele>31.6</ele>
        <time>2020-08-12T10:10:34Z</time>
      </trkpt>
      <trkpt lat="48.67039" lon="-2.86303">
        <ele>31.8</ele>
        <time>2020-08-12T10:10:42Z</time>
      </trkpt>
      <trkpt lat="48.67015" lon="-2.86285">
        <ele>31.9</ele>
        <time>2020-08-12T10:10:50Z</time>
      </trkpt>
      <trkpt lat="48.67001" lon="-2.86273">
        <ele>31.9</ele>
        <time>2020-08-12T10:10:56Z</time>
      </trkpt>
      <trkpt lat="48.66987" lon="-2.86261">
        <ele>32.3</ele>
        <time>2020-08-12T10:11:02Z</time>
      </trkpt>
      <trkpt lat="48.66973" lon="-2.86247">
        <ele>32.5</ele>
        <time>2020-08-12T10:11:08Z</time>
      </trkpt>
      <trkpt lat="48.66958" lon="-2.86237">
        <ele>32.7</ele>
        <time>2020-08-12T10:11:14Z</time>
      </trkpt>
      <trkpt lat="48.66944" lon="-2.86252">
        <ele>32.6</ele>
        <time>2020-08-12T10:11:21Z</time>
      </trkpt>
      <trkpt lat="48.66931" lon="-2.86276">
        <ele>32.6</ele>
        <time>2020-08-12T10:11:29Z</time>
      </trkpt>
      <trkpt lat="48.66915" lon="-2.86306">
        <ele>31.8</ele>
        <time>2020-08-12T10:11:38Z</time>
      </trkpt>
      <trkpt lat="48.66902" lon="-2.8633">
        <ele>31.8</ele>
        <time>2020-08-12T10:11:45Z</time>
      </trkpt>
      <trkpt lat="48.66888" lon="-2.86354">
        <ele>32.3</ele>
        <time>2020-08-12T10:11:52Z</time>
      </trkpt>
      <trkpt lat="48.66874" lon="-2.86379">
        <ele>32.5</ele>
        <time>2020-08-12T10:11:59Z</time>
      </trkpt>
      <trkpt lat="48.66856" lon="-2.8641">
        <ele>32.8</ele>
        <time>2020-08-12T10:12:08Z</time>
      </trkpt>
      <trkpt lat="48.66852" lon="-2.86421">
        <ele>34</ele>
        <time>2020-08-12T10:12:11Z</time>
      </trkpt>
      <trkpt lat="48.66856" lon="-2.86439">
        <ele>34.5</ele>
        <time>2020-08-12T10:12:16Z</time>
      </trkpt>
      <trkpt lat="48.66881" lon="-2.8647">
        <ele>35.2</ele>
        <time>2020-08-12T10:12:27Z</time>
      </trkpt>
      <trkpt lat="48.66893" lon="-2.86486">
        <ele>35.4</ele>
        <time>2020-08-12T10:12:34Z</time>
      </trkpt>
      <trkpt lat="48.66904" lon="-2.86499">
        <ele>35.7</ele>
        <time>2020-08-12T10:12:40Z</time>
      </trkpt>
      <trkpt lat="48.66922" lon="-2.86524">
        <ele>37.6</ele>
        <time>2020-08-12T10:12:50Z</time>
      </trkpt>
      <trkpt lat="48.6693" lon="-2.86545">
        <ele>38.5</ele>
        <time>2020-08-12T10:12:57Z</time>
      </trkpt>
      <trkpt lat="48.66939" lon="-2.86567">
        <ele>39.2</ele>
        <time>2020-08-12T10:13:06Z</time>
      </trkpt>
      <trkpt lat="48.66948" lon="-2.86591">
        <ele>41.8</ele>
        <time>2020-08-12T10:13:15Z</time>
      </trkpt>
      <trkpt lat="48.66957" lon="-2.86617">
        <ele>42.3</ele>
        <time>2020-08-12T10:13:24Z</time>
      </trkpt>
      <trkpt lat="48.66965" lon="-2.86641">
        <ele>42.9</ele>
        <time>2020-08-12T10:13:32Z</time>
      </trkpt>
      <trkpt lat="48.66973" lon="-2.86661">
        <ele>43.4</ele>
        <time>2020-08-12T10:13:39Z</time>
      </trkpt>
      <trkpt lat="48.66977" lon="-2.86672">
        <ele>45.6</ele>
        <time>2020-08-12T10:13:43Z</time>
      </trkpt>
      <trkpt lat="48.66989" lon="-2.86703">
        <ele>46.2</ele>
        <time>2020-08-12T10:13:54Z</time>
      </trkpt>
      <trkpt lat="48.66994" lon="-2.86727">
        <ele>46.9</ele>
        <time>2020-08-12T10:14:02Z</time>
      </trkpt>
      <trkpt lat="48.66999" lon="-2.86744">
        <ele>47.6</ele>
        <time>2020-08-12T10:14:08Z</time>
      </trkpt>
      <trkpt lat="48.67004" lon="-2.86761">
        <ele>47.7</ele>
        <time>2020-08-12T10:14:14Z</time>
      </trkpt>
      <trkpt lat="48.67009" lon="-2.86794">
        <ele>47.9</ele>
        <time>2020-08-12T10:14:24Z</time>
      </trkpt>
      <trkpt lat="48.67012" lon="-2.86816">
        <ele>48.5</ele>
        <time>2020-08-12T10:14:31Z</time>
      </trkpt>
      <trkpt lat="48.67015" lon="-2.8684">
        <ele>50.2</ele>
        <time>2020-08-12T10:14:38Z</time>
      </trkpt>
      <trkpt lat="48.67016" lon="-2.8687">
        <ele>50.8</ele>
        <time>2020-08-12T10:14:47Z</time>
      </trkpt>
      <trkpt lat="48.67009" lon="-2.86888">
        <ele>51.5</ele>
        <time>2020-08-12T10:14:53Z</time>
      </trkpt>
      <trkpt lat="48.67005" lon="-2.86894">
        <ele>51.9</ele>
        <time>2020-08-12T10:14:58Z</time>
      </trkpt>
      <trkpt lat="48.67002" lon="-2.86897">
        <ele>52.1</ele>
        <time>2020-08-12T10:16:21Z</time>
      </trkpt>
      <trkpt lat="48.66993" lon="-2.86905">
        <ele>53.5</ele>
        <time>2020-08-12T10:16:28Z</time>
      </trkpt>
      <trkpt lat="48.6699" lon="-2.86908">
        <ele>53.5</ele>
        <time>2020-08-12T10:16:30Z</time>
      </trkpt>
      <trkpt lat="48.66976" lon="-2.86922">
        <ele>55</ele>
        <time>2020-08-12T10:16:38Z</time>
      </trkpt>
      <trkpt lat="48.66957" lon="-2.8694">
        <ele>55.4</ele>
        <time>2020-08-12T10:16:47Z</time>
      </trkpt>
      <trkpt lat="48.66941" lon="-2.86956">
        <ele>55.6</ele>
        <time>2020-08-12T10:16:55Z</time>
      </trkpt>
      <trkpt lat="48.66923" lon="-2.86971">
        <ele>55.7</ele>
        <time>2020-08-12T10:17:05Z</time>
      </trkpt>
      <trkpt lat="48.66912" lon="-2.86978">
        <ele>56.6</ele>
        <time>2020-08-12T10:17:11Z</time>
      </trkpt>
      <trkpt lat="48.66903" lon="-2.86984">
        <ele>56.6</ele>
        <time>2020-08-12T10:17:17Z</time>
      </trkpt>
      <trkpt lat="48.6689" lon="-2.86991">
        <ele>56.8</ele>
        <time>2020-08-12T10:17:24Z</time>
      </trkpt>
      <trkpt lat="48.66872" lon="-2.86997">
        <ele>57.3</ele>
        <time>2020-08-12T10:17:33Z</time>
      </trkpt>
      <trkpt lat="48.66858" lon="-2.86997">
        <ele>57.7</ele>
        <time>2020-08-12T10:17:40Z</time>
      </trkpt>
      <trkpt lat="48.66846" lon="-2.86999">
        <ele>58.2</ele>
        <time>2020-08-12T10:17:47Z</time>
      </trkpt>
      <trkpt lat="48.6683" lon="-2.87003">
        <ele>59</ele>
        <time>2020-08-12T10:17:55Z</time>
      </trkpt>
      <trkpt lat="48.66812" lon="-2.87008">
        <ele>59.2</ele>
        <time>2020-08-12T10:18:03Z</time>
      </trkpt>
      <trkpt lat="48.66786" lon="-2.87014">
        <ele>59.4</ele>
        <time>2020-08-12T10:18:13Z</time>
      </trkpt>
      <trkpt lat="48.6676" lon="-2.8702">
        <ele>59.6</ele>
        <time>2020-08-12T10:18:23Z</time>
      </trkpt>
      <trkpt lat="48.66744" lon="-2.87023">
        <ele>60.1</ele>
        <time>2020-08-12T10:18:29Z</time>
      </trkpt>
      <trkpt lat="48.66723" lon="-2.8703">
        <ele>60.2</ele>
        <time>2020-08-12T10:18:36Z</time>
      </trkpt>
      <trkpt lat="48.667" lon="-2.8704">
        <ele>60.3</ele>
        <time>2020-08-12T10:18:43Z</time>
      </trkpt>
      <trkpt lat="48.66675" lon="-2.8705">
        <ele>60.4</ele>
        <time>2020-08-12T10:18:51Z</time>
      </trkpt>
      <trkpt lat="48.66654" lon="-2.87063">
        <ele>61.3</ele>
        <time>2020-08-12T10:18:58Z</time>
      </trkpt>
      <trkpt lat="48.66632" lon="-2.87083">
        <ele>61.6</ele>
        <time>2020-08-12T10:19:06Z</time>
      </trkpt>
      <trkpt lat="48.66605" lon="-2.87106">
        <ele>61.8</ele>
        <time>2020-08-12T10:19:16Z</time>
      </trkpt>
      <trkpt lat="48.66583" lon="-2.8712">
        <ele>63.3</ele>
        <time>2020-08-12T10:19:24Z</time>
      </trkpt>
      <trkpt lat="48.66556" lon="-2.87134">
        <ele>63.5</ele>
        <time>2020-08-12T10:19:34Z</time>
      </trkpt>
      <trkpt lat="48.66535" lon="-2.8714">
        <ele>63.8</ele>
        <time>2020-08-12T10:19:42Z</time>
      </trkpt>
      <trkpt lat="48.66512" lon="-2.87147">
        <ele>64.3</ele>
        <time>2020-08-12T10:19:51Z</time>
      </trkpt>
      <trkpt lat="48.66494" lon="-2.87151">
        <ele>65.3</ele>
        <time>2020-08-12T10:19:58Z</time>
      </trkpt>
      <trkpt lat="48.66481" lon="-2.87154">
        <ele>65.4</ele>
        <time>2020-08-12T10:20:04Z</time>
      </trkpt>
      <trkpt lat="48.66467" lon="-2.87157">
        <ele>65.5</ele>
        <time>2020-08-12T10:20:10Z</time>
      </trkpt>
      <trkpt lat="48.66452" lon="-2.87167">
        <ele>66.4</ele>
        <time>2020-08-12T10:20:19Z</time>
      </trkpt>
      <trkpt lat="48.66441" lon="-2.87173">
        <ele>66.6</ele>
        <time>2020-08-12T10:20:25Z</time>
      </trkpt>
      <trkpt lat="48.66427" lon="-2.87184">
        <ele>66.8</ele>
        <time>2020-08-12T10:20:33Z</time>
      </trkpt>
      <trkpt lat="48.6642" lon="-2.87194">
        <ele>66.9</ele>
        <time>2020-08-12T10:20:39Z</time>
      </trkpt>
      <trkpt lat="48.66414" lon="-2.872">
        <ele>68.2</ele>
        <time>2020-08-12T10:20:46Z</time>
      </trkpt>
      <trkpt lat="48.66407" lon="-2.87205">
        <ele>68.3</ele>
        <time>2020-08-12T10:21:16Z</time>
      </trkpt>
      <trkpt lat="48.66393" lon="-2.87209">
        <ele>68.4</ele>
        <time>2020-08-12T10:21:23Z</time>
      </trkpt>
      <trkpt lat="48.66383" lon="-2.872">
        <ele>68.4</ele>
        <time>2020-08-12T10:21:30Z</time>
      </trkpt>
      <trkpt lat="48.66379" lon="-2.87201">
        <ele>68.4</ele>
        <time>2020-08-12T10:21:32Z</time>
      </trkpt>
      <trkpt lat="48.66368" lon="-2.87202">
        <ele>68.5</ele>
        <time>2020-08-12T10:21:39Z</time>
      </trkpt>
      <trkpt lat="48.66358" lon="-2.87202">
        <ele>68.6</ele>
        <time>2020-08-12T10:21:45Z</time>
      </trkpt>
      <trkpt lat="48.66345" lon="-2.87204">
        <ele>68.7</ele>
        <time>2020-08-12T10:21:52Z</time>
      </trkpt>
      <trkpt lat="48.66332" lon="-2.87208">
        <ele>69</ele>
        <time>2020-08-12T10:21:59Z</time>
      </trkpt>
      <trkpt lat="48.66324" lon="-2.87219">
        <ele>69</ele>
        <time>2020-08-12T10:22:05Z</time>
      </trkpt>
      <trkpt lat="48.66332" lon="-2.87233">
        <ele>69</ele>
        <time>2020-08-12T10:22:10Z</time>
      </trkpt>
      <trkpt lat="48.66342" lon="-2.87242">
        <ele>68.8</ele>
        <time>2020-08-12T10:22:15Z</time>
      </trkpt>
      <trkpt lat="48.66353" lon="-2.87264">
        <ele>69.7</ele>
        <time>2020-08-12T10:22:23Z</time>
      </trkpt>
      <trkpt lat="48.66363" lon="-2.87288">
        <ele>70.2</ele>
        <time>2020-08-12T10:22:31Z</time>
      </trkpt>
      <trkpt lat="48.66369" lon="-2.87302">
        <ele>70.4</ele>
        <time>2020-08-12T10:22:35Z</time>
      </trkpt>
      <trkpt lat="48.66369" lon="-2.87325">
        <ele>70.6</ele>
        <time>2020-08-12T10:22:42Z</time>
      </trkpt>
      <trkpt lat="48.66369" lon="-2.87346">
        <ele>71.6</ele>
        <time>2020-08-12T10:22:47Z</time>
      </trkpt>
      <trkpt lat="48.66366" lon="-2.87393">
        <ele>71.7</ele>
        <time>2020-08-12T10:22:55Z</time>
      </trkpt>
      <trkpt lat="48.66365" lon="-2.874">
        <ele>71.7</ele>
        <time>2020-08-12T10:22:56Z</time>
      </trkpt>
      <trkpt lat="48.66361" lon="-2.87454">
        <ele>71.6</ele>
        <time>2020-08-12T10:23:05Z</time>
      </trkpt>
      <trkpt lat="48.66357" lon="-2.87507">
        <ele>71.8</ele>
        <time>2020-08-12T10:23:13Z</time>
      </trkpt>
      <trkpt lat="48.66355" lon="-2.87527">
        <ele>72</ele>
        <time>2020-08-12T10:23:16Z</time>
      </trkpt>
      <trkpt lat="48.66351" lon="-2.87581">
        <ele>72.6</ele>
        <time>2020-08-12T10:23:24Z</time>
      </trkpt>
      <trkpt lat="48.66347" lon="-2.87634">
        <ele>72.6</ele>
        <time>2020-08-12T10:23:32Z</time>
      </trkpt>
      <trkpt lat="48.66345" lon="-2.87659">
        <ele>72.7</ele>
        <time>2020-08-12T10:23:36Z</time>
      </trkpt>
      <trkpt lat="48.66342" lon="-2.87708">
        <ele>72.5</ele>
        <time>2020-08-12T10:23:44Z</time>
      </trkpt>
      <trkpt lat="48.66339" lon="-2.87747">
        <ele>72.8</ele>
        <time>2020-08-12T10:23:52Z</time>
      </trkpt>
      <trkpt lat="48.66337" lon="-2.87781">
        <ele>73.5</ele>
        <time>2020-08-12T10:24:00Z</time>
      </trkpt>
      <trkpt lat="48.66334" lon="-2.87819">
        <ele>74.3</ele>
        <time>2020-08-12T10:24:08Z</time>
      </trkpt>
      <trkpt lat="48.66332" lon="-2.87845">
        <ele>75.4</ele>
        <time>2020-08-12T10:24:14Z</time>
      </trkpt>
      <trkpt lat="48.6633" lon="-2.87872">
        <ele>75.9</ele>
        <time>2020-08-12T10:24:20Z</time>
      </trkpt>
      <trkpt lat="48.66327" lon="-2.87898">
        <ele>76.4</ele>
        <time>2020-08-12T10:24:25Z</time>
      </trkpt>
      <trkpt lat="48.66323" lon="-2.87933">
        <ele>76.4</ele>
        <time>2020-08-12T10:24:31Z</time>
      </trkpt>
      <trkpt lat="48.66316" lon="-2.87983">
        <ele>75.6</ele>
        <time>2020-08-12T10:24:39Z</time>
      </trkpt>
      <trkpt lat="48.66303" lon="-2.88044">
        <ele>74.6</ele>
        <time>2020-08-12T10:24:48Z</time>
      </trkpt>
      <trkpt lat="48.66286" lon="-2.88098">
        <ele>73.2</ele>
        <time>2020-08-12T10:24:56Z</time>
      </trkpt>
      <trkpt lat="48.66284" lon="-2.88105">
        <ele>73.1</ele>
        <time>2020-08-12T10:24:57Z</time>
      </trkpt>
      <trkpt lat="48.6627" lon="-2.8815">
        <ele>72.3</ele>
        <time>2020-08-12T10:25:04Z</time>
      </trkpt>
      <trkpt lat="48.66256" lon="-2.88197">
        <ele>71.3</ele>
        <time>2020-08-12T10:25:12Z</time>
      </trkpt>
      <trkpt lat="48.66245" lon="-2.88238">
        <ele>71.2</ele>
        <time>2020-08-12T10:25:20Z</time>
      </trkpt>
      <trkpt lat="48.66243" lon="-2.88259">
        <ele>71.3</ele>
        <time>2020-08-12T10:25:26Z</time>
      </trkpt>
      <trkpt lat="48.66245" lon="-2.88275">
        <ele>71.5</ele>
        <time>2020-08-12T10:25:32Z</time>
      </trkpt>
      <trkpt lat="48.6625" lon="-2.88298">
        <ele>70.8</ele>
        <time>2020-08-12T10:25:38Z</time>
      </trkpt>
      <trkpt lat="48.66254" lon="-2.88327">
        <ele>70.9</ele>
        <time>2020-08-12T10:25:45Z</time>
      </trkpt>
      <trkpt lat="48.66256" lon="-2.88339">
        <ele>70.8</ele>
        <time>2020-08-12T10:25:49Z</time>
      </trkpt>
      <trkpt lat="48.66256" lon="-2.88339">
        <ele>70.8</ele>
        <time>2020-08-12T10:25:50Z</time>
      </trkpt>
      <trkpt lat="48.66259" lon="-2.88349">
        <ele>70.6</ele>
        <time>2020-08-12T10:26:09Z</time>
      </trkpt>
      <trkpt lat="48.6627" lon="-2.88373">
        <ele>70.3</ele>
        <time>2020-08-12T10:26:14Z</time>
      </trkpt>
      <trkpt lat="48.66294" lon="-2.88427">
        <ele>69.5</ele>
        <time>2020-08-12T10:26:23Z</time>
      </trkpt>
      <trkpt lat="48.66322" lon="-2.88489">
        <ele>68.6</ele>
        <time>2020-08-12T10:26:32Z</time>
      </trkpt>
      <trkpt lat="48.6635" lon="-2.88549">
        <ele>68.3</ele>
        <time>2020-08-12T10:26:41Z</time>
      </trkpt>
      <trkpt lat="48.66356" lon="-2.8856">
        <ele>68.3</ele>
        <time>2020-08-12T10:26:43Z</time>
      </trkpt>
      <trkpt lat="48.66373" lon="-2.88583">
        <ele>68.6</ele>
        <time>2020-08-12T10:26:49Z</time>
      </trkpt>
      <trkpt lat="48.66385" lon="-2.886">
        <ele>68.9</ele>
        <time>2020-08-12T10:26:54Z</time>
      </trkpt>
      <trkpt lat="48.66404" lon="-2.88606">
        <ele>69.2</ele>
        <time>2020-08-12T10:27:00Z</time>
      </trkpt>
      <trkpt lat="48.66429" lon="-2.88613">
        <ele>69.5</ele>
        <time>2020-08-12T10:27:07Z</time>
      </trkpt>
      <trkpt lat="48.6646" lon="-2.88622">
        <ele>69.2</ele>
        <time>2020-08-12T10:27:16Z</time>
      </trkpt>
      <trkpt lat="48.66489" lon="-2.88631">
        <ele>69</ele>
        <time>2020-08-12T10:27:24Z</time>
      </trkpt>
      <trkpt lat="48.66517" lon="-2.88638">
        <ele>68</ele>
        <time>2020-08-12T10:27:31Z</time>
      </trkpt>
      <trkpt lat="48.66548" lon="-2.88647">
        <ele>67.8</ele>
        <time>2020-08-12T10:27:39Z</time>
      </trkpt>
      <trkpt lat="48.6659" lon="-2.88655">
        <ele>67.7</ele>
        <time>2020-08-12T10:27:50Z</time>
      </trkpt>
      <trkpt lat="48.66624" lon="-2.8866">
        <ele>68.6</ele>
        <time>2020-08-12T10:27:59Z</time>
      </trkpt>
      <trkpt lat="48.66654" lon="-2.88661">
        <ele>69.4</ele>
        <time>2020-08-12T10:28:07Z</time>
      </trkpt>
      <trkpt lat="48.66696" lon="-2.88662">
        <ele>70.2</ele>
        <time>2020-08-12T10:28:18Z</time>
      </trkpt>
      <trkpt lat="48.66723" lon="-2.88661">
        <ele>70.5</ele>
        <time>2020-08-12T10:28:25Z</time>
      </trkpt>
      <trkpt lat="48.66746" lon="-2.88661">
        <ele>70.8</ele>
        <time>2020-08-12T10:28:31Z</time>
      </trkpt>
      <trkpt lat="48.66754" lon="-2.88663">
        <ele>70.4</ele>
        <time>2020-08-12T10:28:33Z</time>
      </trkpt>
      <trkpt lat="48.66784" lon="-2.88683">
        <ele>68.8</ele>
        <time>2020-08-12T10:28:41Z</time>
      </trkpt>
      <trkpt lat="48.66812" lon="-2.88715">
        <ele>68.2</ele>
        <time>2020-08-12T10:28:50Z</time>
      </trkpt>
      <trkpt lat="48.66821" lon="-2.88726">
        <ele>68.2</ele>
        <time>2020-08-12T10:28:53Z</time>
      </trkpt>
      <trkpt lat="48.66827" lon="-2.88736">
        <ele>68.1</ele>
        <time>2020-08-12T10:28:55Z</time>
      </trkpt>
      <trkpt lat="48.66841" lon="-2.88751">
        <ele>67.4</ele>
        <time>2020-08-12T10:28:59Z</time>
      </trkpt>
      <trkpt lat="48.66862" lon="-2.88765">
        <ele>66.4</ele>
        <time>2020-08-12T10:29:04Z</time>
      </trkpt>
      <trkpt lat="48.66902" lon="-2.88785">
        <ele>65.5</ele>
        <time>2020-08-12T10:29:12Z</time>
      </trkpt>
      <trkpt lat="48.6693" lon="-2.8882">
        <ele>64.2</ele>
        <time>2020-08-12T10:29:18Z</time>
      </trkpt>
      <trkpt lat="48.6696" lon="-2.88864">
        <ele>64.7</ele>
        <time>2020-08-12T10:29:26Z</time>
      </trkpt>
      <trkpt lat="48.66978" lon="-2.8889">
        <ele>64.6</ele>
        <time>2020-08-12T10:29:32Z</time>
      </trkpt>
      <trkpt lat="48.66992" lon="-2.88909">
        <ele>64.3</ele>
        <time>2020-08-12T10:29:36Z</time>
      </trkpt>
      <trkpt lat="48.67006" lon="-2.8893">
        <ele>63.7</ele>
        <time>2020-08-12T10:29:40Z</time>
      </trkpt>
      <trkpt lat="48.67018" lon="-2.88977">
        <ele>63.5</ele>
        <time>2020-08-12T10:29:47Z</time>
      </trkpt>
      <trkpt lat="48.67022" lon="-2.89012">
        <ele>63.7</ele>
        <time>2020-08-12T10:29:53Z</time>
      </trkpt>
      <trkpt lat="48.67021" lon="-2.89061">
        <ele>63.6</ele>
        <time>2020-08-12T10:30:02Z</time>
      </trkpt>
      <trkpt lat="48.6703" lon="-2.89085">
        <ele>62.4</ele>
        <time>2020-08-12T10:30:07Z</time>
      </trkpt>
      <trkpt lat="48.67036" lon="-2.89108">
        <ele>61.9</ele>
        <time>2020-08-12T10:30:12Z</time>
      </trkpt>
      <trkpt lat="48.67035" lon="-2.89131">
        <ele>61.4</ele>
        <time>2020-08-12T10:30:18Z</time>
      </trkpt>
      <trkpt lat="48.67035" lon="-2.89169">
        <ele>58.8</ele>
        <time>2020-08-12T10:30:25Z</time>
      </trkpt>
      <trkpt lat="48.67036" lon="-2.89183">
        <ele>58.6</ele>
        <time>2020-08-12T10:30:27Z</time>
      </trkpt>
      <trkpt lat="48.67038" lon="-2.89198">
        <ele>58.4</ele>
        <time>2020-08-12T10:30:29Z</time>
      </trkpt>
      <trkpt lat="48.67042" lon="-2.89215">
        <ele>58.1</ele>
        <time>2020-08-12T10:30:31Z</time>
      </trkpt>
      <trkpt lat="48.67051" lon="-2.89239">
        <ele>57.8</ele>
        <time>2020-08-12T10:30:34Z</time>
      </trkpt>
      <trkpt lat="48.67061" lon="-2.89274">
        <ele>55.5</ele>
        <time>2020-08-12T10:30:38Z</time>
      </trkpt>
      <trkpt lat="48.67073" lon="-2.89335">
        <ele>52.5</ele>
        <time>2020-08-12T10:30:44Z</time>
      </trkpt>
      <trkpt lat="48.67091" lon="-2.89376">
        <ele>52</ele>
        <time>2020-08-12T10:30:48Z</time>
      </trkpt>
      <trkpt lat="48.67114" lon="-2.89427">
        <ele>50.1</ele>
        <time>2020-08-12T10:30:53Z</time>
      </trkpt>
      <trkpt lat="48.67127" lon="-2.89488">
        <ele>50.1</ele>
        <time>2020-08-12T10:30:59Z</time>
      </trkpt>
      <trkpt lat="48.67142" lon="-2.89559">
        <ele>49.3</ele>
        <time>2020-08-12T10:31:06Z</time>
      </trkpt>
      <trkpt lat="48.67145" lon="-2.89593">
        <ele>48.1</ele>
        <time>2020-08-12T10:31:09Z</time>
      </trkpt>
      <trkpt lat="48.67141" lon="-2.89652">
        <ele>47</ele>
        <time>2020-08-12T10:31:14Z</time>
      </trkpt>
      <trkpt lat="48.67136" lon="-2.89697">
        <ele>44.2</ele>
        <time>2020-08-12T10:31:19Z</time>
      </trkpt>
      <trkpt lat="48.67136" lon="-2.89707">
        <ele>44</ele>
        <time>2020-08-12T10:31:20Z</time>
      </trkpt>
      <trkpt lat="48.67145" lon="-2.89744">
        <ele>42.7</ele>
        <time>2020-08-12T10:31:24Z</time>
      </trkpt>
      <trkpt lat="48.67157" lon="-2.89757">
        <ele>41.8</ele>
        <time>2020-08-12T10:31:26Z</time>
      </trkpt>
      <trkpt lat="48.67213" lon="-2.89813">
        <ele>37.5</ele>
        <time>2020-08-12T10:31:36Z</time>
      </trkpt>
      <trkpt lat="48.67242" lon="-2.8983">
        <ele>32</ele>
        <time>2020-08-12T10:31:41Z</time>
      </trkpt>
      <trkpt lat="48.67287" lon="-2.8984">
        <ele>29.8</ele>
        <time>2020-08-12T10:31:47Z</time>
      </trkpt>
      <trkpt lat="48.67329" lon="-2.89845">
        <ele>28.3</ele>
        <time>2020-08-12T10:31:52Z</time>
      </trkpt>
      <trkpt lat="48.67345" lon="-2.89848">
        <ele>33.2</ele>
        <time>2020-08-12T10:31:55Z</time>
      </trkpt>
      <trkpt lat="48.67358" lon="-2.89858">
        <ele>36.5</ele>
        <time>2020-08-12T10:31:59Z</time>
      </trkpt>
      <trkpt lat="48.67363" lon="-2.89858">
        <ele>37</ele>
        <time>2020-08-12T10:32:03Z</time>
      </trkpt>
      <trkpt lat="48.67365" lon="-2.89858">
        <ele>37.2</ele>
        <time>2020-08-12T10:32:31Z</time>
      </trkpt>
      <trkpt lat="48.67356" lon="-2.89868">
        <ele>37.6</ele>
        <time>2020-08-12T10:32:40Z</time>
      </trkpt>
      <trkpt lat="48.67354" lon="-2.8987">
        <ele>37.7</ele>
        <time>2020-08-12T10:32:41Z</time>
      </trkpt>
      <trkpt lat="48.67349" lon="-2.8988">
        <ele>38.6</ele>
        <time>2020-08-12T10:32:47Z</time>
      </trkpt>
      <trkpt lat="48.67335" lon="-2.89889">
        <ele>39.1</ele>
        <time>2020-08-12T10:32:55Z</time>
      </trkpt>
      <trkpt lat="48.67313" lon="-2.89902">
        <ele>34.3</ele>
        <time>2020-08-12T10:33:05Z</time>
      </trkpt>
      <trkpt lat="48.67293" lon="-2.89908">
        <ele>32.3</ele>
        <time>2020-08-12T10:33:13Z</time>
      </trkpt>
      <trkpt lat="48.67274" lon="-2.89912">
        <ele>30.6</ele>
        <time>2020-08-12T10:33:21Z</time>
      </trkpt>
      <trkpt lat="48.67254" lon="-2.89917">
        <ele>29.6</ele>
        <time>2020-08-12T10:33:29Z</time>
      </trkpt>
      <trkpt lat="48.67241" lon="-2.8993">
        <ele>32.7</ele>
        <time>2020-08-12T10:33:36Z</time>
      </trkpt>
      <trkpt lat="48.67236" lon="-2.89949">
        <ele>35.4</ele>
        <time>2020-08-12T10:33:43Z</time>
      </trkpt>
      <trkpt lat="48.67242" lon="-2.89972">
        <ele>36</ele>
        <time>2020-08-12T10:33:50Z</time>
      </trkpt>
      <trkpt lat="48.67255" lon="-2.89995">
        <ele>35.2</ele>
        <time>2020-08-12T10:33:58Z</time>
      </trkpt>
      <trkpt lat="48.67266" lon="-2.90019">
        <ele>40.2</ele>
        <time>2020-08-12T10:34:05Z</time>
      </trkpt>
      <trkpt lat="48.67271" lon="-2.90042">
        <ele>42</ele>
        <time>2020-08-12T10:34:11Z</time>
      </trkpt>
      <trkpt lat="48.67271" lon="-2.90045">
        <ele>42</ele>
        <time>2020-08-12T10:34:12Z</time>
      </trkpt>
      <trkpt lat="48.67276" lon="-2.90065">
        <ele>42.3</ele>
        <time>2020-08-12T10:34:18Z</time>
      </trkpt>
      <trkpt lat="48.67275" lon="-2.90085">
        <ele>43.1</ele>
        <time>2020-08-12T10:34:23Z</time>
      </trkpt>
      <trkpt lat="48.67274" lon="-2.90113">
        <ele>44</ele>
        <time>2020-08-12T10:34:29Z</time>
      </trkpt>
      <trkpt lat="48.67272" lon="-2.90148">
        <ele>44.4</ele>
        <time>2020-08-12T10:34:37Z</time>
      </trkpt>
      <trkpt lat="48.67272" lon="-2.90168">
        <ele>44.8</ele>
        <time>2020-08-12T10:34:42Z</time>
      </trkpt>
      <trkpt lat="48.67271" lon="-2.90192">
        <ele>45.3</ele>
        <time>2020-08-12T10:34:47Z</time>
      </trkpt>
      <trkpt lat="48.67275" lon="-2.90221">
        <ele>45.5</ele>
        <time>2020-08-12T10:34:54Z</time>
      </trkpt>
      <trkpt lat="48.67276" lon="-2.90244">
        <ele>45.2</ele>
        <time>2020-08-12T10:35:00Z</time>
      </trkpt>
      <trkpt lat="48.67278" lon="-2.90266">
        <ele>46.2</ele>
        <time>2020-08-12T10:35:06Z</time>
      </trkpt>
      <trkpt lat="48.67276" lon="-2.9029">
        <ele>46.6</ele>
        <time>2020-08-12T10:35:12Z</time>
      </trkpt>
      <trkpt lat="48.67275" lon="-2.90313">
        <ele>46.5</ele>
        <time>2020-08-12T10:35:18Z</time>
      </trkpt>
      <trkpt lat="48.67271" lon="-2.90346">
        <ele>47.3</ele>
        <time>2020-08-12T10:35:26Z</time>
      </trkpt>
      <trkpt lat="48.67264" lon="-2.90382">
        <ele>48.1</ele>
        <time>2020-08-12T10:35:35Z</time>
      </trkpt>
      <trkpt lat="48.67254" lon="-2.90419">
        <ele>46.1</ele>
        <time>2020-08-12T10:35:43Z</time>
      </trkpt>
      <trkpt lat="48.67244" lon="-2.90465">
        <ele>47.1</ele>
        <time>2020-08-12T10:35:51Z</time>
      </trkpt>
      <trkpt lat="48.67239" lon="-2.90515">
        <ele>49.5</ele>
        <time>2020-08-12T10:35:59Z</time>
      </trkpt>
      <trkpt lat="48.67229" lon="-2.90571">
        <ele>51.6</ele>
        <time>2020-08-12T10:36:08Z</time>
      </trkpt>
      <trkpt lat="48.67223" lon="-2.90611">
        <ele>53.5</ele>
        <time>2020-08-12T10:36:14Z</time>
      </trkpt>
      <trkpt lat="48.67223" lon="-2.90624">
        <ele>53.7</ele>
        <time>2020-08-12T10:36:16Z</time>
      </trkpt>
      <trkpt lat="48.67219" lon="-2.90675">
        <ele>53.8</ele>
        <time>2020-08-12T10:36:25Z</time>
      </trkpt>
      <trkpt lat="48.67217" lon="-2.90711">
        <ele>53.5</ele>
        <time>2020-08-12T10:36:33Z</time>
      </trkpt>
      <trkpt lat="48.67218" lon="-2.90742">
        <ele>53.4</ele>
        <time>2020-08-12T10:36:41Z</time>
      </trkpt>
      <trkpt lat="48.67219" lon="-2.90783">
        <ele>52.8</ele>
        <time>2020-08-12T10:36:52Z</time>
      </trkpt>
      <trkpt lat="48.67218" lon="-2.90817">
        <ele>53</ele>
        <time>2020-08-12T10:37:01Z</time>
      </trkpt>
      <trkpt lat="48.67214" lon="-2.9085">
        <ele>53.2</ele>
        <time>2020-08-12T10:37:09Z</time>
      </trkpt>
      <trkpt lat="48.67211" lon="-2.90874">
        <ele>53.1</ele>
        <time>2020-08-12T10:37:15Z</time>
      </trkpt>
      <trkpt lat="48.67208" lon="-2.90901">
        <ele>53.1</ele>
        <time>2020-08-12T10:37:21Z</time>
      </trkpt>
      <trkpt lat="48.67204" lon="-2.90936">
        <ele>52.2</ele>
        <time>2020-08-12T10:37:29Z</time>
      </trkpt>
      <trkpt lat="48.67203" lon="-2.90952">
        <ele>51.9</ele>
        <time>2020-08-12T10:37:32Z</time>
      </trkpt>
      <trkpt lat="48.67196" lon="-2.90996">
        <ele>50.2</ele>
        <time>2020-08-12T10:37:39Z</time>
      </trkpt>
      <trkpt lat="48.6719" lon="-2.91023">
        <ele>48.4</ele>
        <time>2020-08-12T10:37:44Z</time>
      </trkpt>
      <trkpt lat="48.67186" lon="-2.91045">
        <ele>48.1</ele>
        <time>2020-08-12T10:37:48Z</time>
      </trkpt>
      <trkpt lat="48.67176" lon="-2.91084">
        <ele>44.9</ele>
        <time>2020-08-12T10:37:56Z</time>
      </trkpt>
      <trkpt lat="48.67174" lon="-2.91102">
        <ele>46.3</ele>
        <time>2020-08-12T10:38:00Z</time>
      </trkpt>
      <trkpt lat="48.67186" lon="-2.91111">
        <ele>47.5</ele>
        <time>2020-08-12T10:38:05Z</time>
      </trkpt>
      <trkpt lat="48.67188" lon="-2.91111">
        <ele>47.6</ele>
        <time>2020-08-12T10:38:08Z</time>
      </trkpt>
      <trkpt lat="48.67197" lon="-2.91111">
        <ele>48.2</ele>
        <time>2020-08-12T10:42:07Z</time>
      </trkpt>
      <trkpt lat="48.6721" lon="-2.9112">
        <ele>49.1</ele>
        <time>2020-08-12T10:42:14Z</time>
      </trkpt>
      <trkpt lat="48.67223" lon="-2.91128">
        <ele>49.8</ele>
        <time>2020-08-12T10:42:22Z</time>
      </trkpt>
      <trkpt lat="48.67237" lon="-2.91136">
        <ele>50.4</ele>
        <time>2020-08-12T10:42:29Z</time>
      </trkpt>
      <trkpt lat="48.6725" lon="-2.91145">
        <ele>51.1</ele>
        <time>2020-08-12T10:42:36Z</time>
      </trkpt>
      <trkpt lat="48.67268" lon="-2.91156">
        <ele>54.8</ele>
        <time>2020-08-12T10:42:45Z</time>
      </trkpt>
      <trkpt lat="48.67282" lon="-2.91166">
        <ele>55.5</ele>
        <time>2020-08-12T10:42:53Z</time>
      </trkpt>
      <trkpt lat="48.67296" lon="-2.91176">
        <ele>56.7</ele>
        <time>2020-08-12T10:43:01Z</time>
      </trkpt>
      <trkpt lat="48.67302" lon="-2.91182">
        <ele>57</ele>
        <time>2020-08-12T10:43:05Z</time>
      </trkpt>
      <trkpt lat="48.67316" lon="-2.91195">
        <ele>57.5</ele>
        <time>2020-08-12T10:43:13Z</time>
      </trkpt>
      <trkpt lat="48.67322" lon="-2.912">
        <ele>57.6</ele>
        <time>2020-08-12T10:43:17Z</time>
      </trkpt>
      <trkpt lat="48.6733" lon="-2.91207">
        <ele>57.7</ele>
        <time>2020-08-12T10:43:23Z</time>
      </trkpt>
      <trkpt lat="48.67343" lon="-2.91213">
        <ele>61.4</ele>
        <time>2020-08-12T10:43:31Z</time>
      </trkpt>
      <trkpt lat="48.67351" lon="-2.91218">
        <ele>61.5</ele>
        <time>2020-08-12T10:43:36Z</time>
      </trkpt>
      <trkpt lat="48.67352" lon="-2.91211">
        <ele>61.6</ele>
        <time>2020-08-12T10:43:40Z</time>
      </trkpt>
      <trkpt lat="48.67351" lon="-2.91206">
        <ele>61.5</ele>
        <time>2020-08-12T10:43:42Z</time>
      </trkpt>
      <trkpt lat="48.6736" lon="-2.91188">
        <ele>61.6</ele>
        <time>2020-08-12T10:43:50Z</time>
      </trkpt>
      <trkpt lat="48.67371" lon="-2.91171">
        <ele>61.9</ele>
        <time>2020-08-12T10:43:58Z</time>
      </trkpt>
      <trkpt lat="48.67376" lon="-2.91152">
        <ele>61.9</ele>
        <time>2020-08-12T10:44:05Z</time>
      </trkpt>
      <trkpt lat="48.67373" lon="-2.91126">
        <ele>61.7</ele>
        <time>2020-08-12T10:44:12Z</time>
      </trkpt>
      <trkpt lat="48.67365" lon="-2.91096">
        <ele>61.1</ele>
        <time>2020-08-12T10:44:18Z</time>
      </trkpt>
      <trkpt lat="48.67361" lon="-2.9107">
        <ele>60.6</ele>
        <time>2020-08-12T10:44:23Z</time>
      </trkpt>
      <trkpt lat="48.6737" lon="-2.91044">
        <ele>61.1</ele>
        <time>2020-08-12T10:44:28Z</time>
      </trkpt>
      <trkpt lat="48.67388" lon="-2.91029">
        <ele>61.6</ele>
        <time>2020-08-12T10:44:34Z</time>
      </trkpt>
      <trkpt lat="48.67409" lon="-2.91013">
        <ele>62.3</ele>
        <time>2020-08-12T10:44:42Z</time>
      </trkpt>
      <trkpt lat="48.67428" lon="-2.90998">
        <ele>64.2</ele>
        <time>2020-08-12T10:44:49Z</time>
      </trkpt>
      <trkpt lat="48.67454" lon="-2.90979">
        <ele>65.9</ele>
        <time>2020-08-12T10:44:59Z</time>
      </trkpt>
      <trkpt lat="48.67478" lon="-2.90965">
        <ele>66.8</ele>
        <time>2020-08-12T10:45:08Z</time>
      </trkpt>
      <trkpt lat="48.67496" lon="-2.9096">
        <ele>67.1</ele>
        <time>2020-08-12T10:45:15Z</time>
      </trkpt>
      <trkpt lat="48.67514" lon="-2.90955">
        <ele>70.9</ele>
        <time>2020-08-12T10:45:22Z</time>
      </trkpt>
      <trkpt lat="48.67534" lon="-2.90952">
        <ele>71.4</ele>
        <time>2020-08-12T10:45:30Z</time>
      </trkpt>
      <trkpt lat="48.67554" lon="-2.90946">
        <ele>72</ele>
        <time>2020-08-12T10:45:38Z</time>
      </trkpt>
      <trkpt lat="48.67568" lon="-2.90945">
        <ele>72.3</ele>
        <time>2020-08-12T10:45:44Z</time>
      </trkpt>
      <trkpt lat="48.67581" lon="-2.90938">
        <ele>72.5</ele>
        <time>2020-08-12T10:45:50Z</time>
      </trkpt>
      <trkpt lat="48.6759" lon="-2.90933">
        <ele>74.9</ele>
        <time>2020-08-12T10:45:55Z</time>
      </trkpt>
      <trkpt lat="48.67599" lon="-2.90928">
        <ele>75</ele>
        <time>2020-08-12T10:46:02Z</time>
      </trkpt>
      <trkpt lat="48.67609" lon="-2.90923">
        <ele>75.4</ele>
        <time>2020-08-12T10:46:08Z</time>
      </trkpt>
      <trkpt lat="48.67621" lon="-2.90907">
        <ele>74</ele>
        <time>2020-08-12T10:46:14Z</time>
      </trkpt>
      <trkpt lat="48.67632" lon="-2.90887">
        <ele>74.1</ele>
        <time>2020-08-12T10:46:19Z</time>
      </trkpt>
      <trkpt lat="48.67638" lon="-2.90876">
        <ele>74.1</ele>
        <time>2020-08-12T10:46:23Z</time>
      </trkpt>
      <trkpt lat="48.67639" lon="-2.90875">
        <ele>74.1</ele>
        <time>2020-08-12T10:46:25Z</time>
      </trkpt>
      <trkpt lat="48.67645" lon="-2.90868">
        <ele>74.2</ele>
        <time>2020-08-12T10:47:15Z</time>
      </trkpt>
      <trkpt lat="48.67656" lon="-2.90852">
        <ele>74.3</ele>
        <time>2020-08-12T10:47:20Z</time>
      </trkpt>
      <trkpt lat="48.67671" lon="-2.90834">
        <ele>75.5</ele>
        <time>2020-08-12T10:47:26Z</time>
      </trkpt>
      <trkpt lat="48.67685" lon="-2.90822">
        <ele>76.3</ele>
        <time>2020-08-12T10:47:31Z</time>
      </trkpt>
      <trkpt lat="48.677" lon="-2.90812">
        <ele>76.8</ele>
        <time>2020-08-12T10:47:37Z</time>
      </trkpt>
      <trkpt lat="48.67725" lon="-2.90803">
        <ele>77.5</ele>
        <time>2020-08-12T10:47:46Z</time>
      </trkpt>
      <trkpt lat="48.67742" lon="-2.90796">
        <ele>77.8</ele>
        <time>2020-08-12T10:47:53Z</time>
      </trkpt>
      <trkpt lat="48.67767" lon="-2.90786">
        <ele>80</ele>
        <time>2020-08-12T10:48:02Z</time>
      </trkpt>
      <trkpt lat="48.67785" lon="-2.90785">
        <ele>80.3</ele>
        <time>2020-08-12T10:48:09Z</time>
      </trkpt>
      <trkpt lat="48.67805" lon="-2.90796">
        <ele>80.8</ele>
        <time>2020-08-12T10:48:18Z</time>
      </trkpt>
      <trkpt lat="48.67824" lon="-2.90806">
        <ele>81.3</ele>
        <time>2020-08-12T10:48:26Z</time>
      </trkpt>
      <trkpt lat="48.67842" lon="-2.90816">
        <ele>82.8</ele>
        <time>2020-08-12T10:48:34Z</time>
      </trkpt>
      <trkpt lat="48.67852" lon="-2.9082">
        <ele>82.8</ele>
        <time>2020-08-12T10:48:39Z</time>
      </trkpt>
      <trkpt lat="48.67867" lon="-2.90825">
        <ele>82.9</ele>
        <time>2020-08-12T10:48:45Z</time>
      </trkpt>
      <trkpt lat="48.67888" lon="-2.90831">
        <ele>83.2</ele>
        <time>2020-08-12T10:48:53Z</time>
      </trkpt>
      <trkpt lat="48.6791" lon="-2.90837">
        <ele>84.3</ele>
        <time>2020-08-12T10:49:02Z</time>
      </trkpt>
      <trkpt lat="48.6793" lon="-2.9084">
        <ele>85.4</ele>
        <time>2020-08-12T10:49:10Z</time>
      </trkpt>
      <trkpt lat="48.67951" lon="-2.90838">
        <ele>86.3</ele>
        <time>2020-08-12T10:49:19Z</time>
      </trkpt>
      <trkpt lat="48.67971" lon="-2.90834">
        <ele>86.7</ele>
        <time>2020-08-12T10:49:28Z</time>
      </trkpt>
      <trkpt lat="48.6799" lon="-2.90828">
        <ele>86.2</ele>
        <time>2020-08-12T10:49:36Z</time>
      </trkpt>
      <trkpt lat="48.68009" lon="-2.90824">
        <ele>87.2</ele>
        <time>2020-08-12T10:49:44Z</time>
      </trkpt>
      <trkpt lat="48.68026" lon="-2.9082">
        <ele>87.5</ele>
        <time>2020-08-12T10:49:51Z</time>
      </trkpt>
      <trkpt lat="48.68047" lon="-2.90811">
        <ele>87.8</ele>
        <time>2020-08-12T10:49:58Z</time>
      </trkpt>
      <trkpt lat="48.68068" lon="-2.90794">
        <ele>88</ele>
        <time>2020-08-12T10:50:05Z</time>
      </trkpt>
      <trkpt lat="48.68093" lon="-2.90761">
        <ele>89.9</ele>
        <time>2020-08-12T10:50:15Z</time>
      </trkpt>
      <trkpt lat="48.68114" lon="-2.90726">
        <ele>90.2</ele>
        <time>2020-08-12T10:50:24Z</time>
      </trkpt>
      <trkpt lat="48.68124" lon="-2.90698">
        <ele>90.4</ele>
        <time>2020-08-12T10:50:31Z</time>
      </trkpt>
      <trkpt lat="48.68137" lon="-2.90664">
        <ele>90.4</ele>
        <time>2020-08-12T10:50:41Z</time>
      </trkpt>
      <trkpt lat="48.68152" lon="-2.90633">
        <ele>90.5</ele>
        <time>2020-08-12T10:50:52Z</time>
      </trkpt>
      <trkpt lat="48.68161" lon="-2.90617">
        <ele>90.5</ele>
        <time>2020-08-12T10:50:58Z</time>
      </trkpt>
      <trkpt lat="48.68171" lon="-2.906">
        <ele>93.8</ele>
        <time>2020-08-12T10:51:05Z</time>
      </trkpt>
      <trkpt lat="48.68187" lon="-2.90577">
        <ele>93.3</ele>
        <time>2020-08-12T10:51:15Z</time>
      </trkpt>
      <trkpt lat="48.68204" lon="-2.90551">
        <ele>93.9</ele>
        <time>2020-08-12T10:51:23Z</time>
      </trkpt>
      <trkpt lat="48.68223" lon="-2.90517">
        <ele>94.4</ele>
        <time>2020-08-12T10:51:33Z</time>
      </trkpt>
      <trkpt lat="48.68231" lon="-2.90503">
        <ele>94.8</ele>
        <time>2020-08-12T10:51:39Z</time>
      </trkpt>
      <trkpt lat="48.68232" lon="-2.90502">
        <ele>94.8</ele>
        <time>2020-08-12T10:51:42Z</time>
      </trkpt>
      <trkpt lat="48.68249" lon="-2.90509">
        <ele>95.4</ele>
        <time>2020-08-12T10:52:21Z</time>
      </trkpt>
      <trkpt lat="48.68255" lon="-2.90517">
        <ele>98.1</ele>
        <time>2020-08-12T10:52:25Z</time>
      </trkpt>
      <trkpt lat="48.6826" lon="-2.90521">
        <ele>98.5</ele>
        <time>2020-08-12T10:52:29Z</time>
      </trkpt>
      <trkpt lat="48.68272" lon="-2.90531">
        <ele>99.3</ele>
        <time>2020-08-12T10:52:38Z</time>
      </trkpt>
      <trkpt lat="48.68286" lon="-2.90543">
        <ele>100</ele>
        <time>2020-08-12T10:52:48Z</time>
      </trkpt>
      <trkpt lat="48.68304" lon="-2.90554">
        <ele>100.9</ele>
        <time>2020-08-12T10:52:59Z</time>
      </trkpt>
      <trkpt lat="48.68317" lon="-2.90564">
        <ele>101.6</ele>
        <time>2020-08-12T10:53:08Z</time>
      </trkpt>
      <trkpt lat="48.68329" lon="-2.9057">
        <ele>102.5</ele>
        <time>2020-08-12T10:53:16Z</time>
      </trkpt>
      <trkpt lat="48.68335" lon="-2.90576">
        <ele>104.2</ele>
        <time>2020-08-12T10:53:22Z</time>
      </trkpt>
      <trkpt lat="48.68338" lon="-2.90576">
        <ele>104.2</ele>
        <time>2020-08-12T10:53:27Z</time>
      </trkpt>
      <trkpt lat="48.68341" lon="-2.90579">
        <ele>104.2</ele>
        <time>2020-08-12T10:54:57Z</time>
      </trkpt>
      <trkpt lat="48.68353" lon="-2.90591">
        <ele>104.5</ele>
        <time>2020-08-12T10:55:45Z</time>
      </trkpt>
      <trkpt lat="48.68369" lon="-2.90607">
        <ele>104.7</ele>
        <time>2020-08-12T10:55:52Z</time>
      </trkpt>
      <trkpt lat="48.68393" lon="-2.90631">
        <ele>104.9</ele>
        <time>2020-08-12T10:56:00Z</time>
      </trkpt>
      <trkpt lat="48.68421" lon="-2.90651">
        <ele>105.8</ele>
        <time>2020-08-12T10:56:08Z</time>
      </trkpt>
      <trkpt lat="48.68433" lon="-2.90659">
        <ele>105.9</ele>
        <time>2020-08-12T10:56:11Z</time>
      </trkpt>
      <trkpt lat="48.68466" lon="-2.90677">
        <ele>106.9</ele>
        <time>2020-08-12T10:56:20Z</time>
      </trkpt>
      <trkpt lat="48.68496" lon="-2.90692">
        <ele>107.3</ele>
        <time>2020-08-12T10:56:28Z</time>
      </trkpt>
      <trkpt lat="48.68524" lon="-2.90703">
        <ele>107.8</ele>
        <time>2020-08-12T10:56:36Z</time>
      </trkpt>
      <trkpt lat="48.68535" lon="-2.90696">
        <ele>107.8</ele>
        <time>2020-08-12T10:56:40Z</time>
      </trkpt>
      <trkpt lat="48.68555" lon="-2.90668">
        <ele>107.8</ele>
        <time>2020-08-12T10:56:48Z</time>
      </trkpt>
      <trkpt lat="48.68572" lon="-2.90649">
        <ele>108</ele>
        <time>2020-08-12T10:56:54Z</time>
      </trkpt>
      <trkpt lat="48.68594" lon="-2.90624">
        <ele>107.5</ele>
        <time>2020-08-12T10:57:02Z</time>
      </trkpt>
      <trkpt lat="48.68623" lon="-2.90594">
        <ele>107.3</ele>
        <time>2020-08-12T10:57:12Z</time>
      </trkpt>
      <trkpt lat="48.68644" lon="-2.90571">
        <ele>107.2</ele>
        <time>2020-08-12T10:57:20Z</time>
      </trkpt>
      <trkpt lat="48.68662" lon="-2.90548">
        <ele>107.2</ele>
        <time>2020-08-12T10:57:27Z</time>
      </trkpt>
      <trkpt lat="48.68676" lon="-2.90536">
        <ele>106.7</ele>
        <time>2020-08-12T10:57:33Z</time>
      </trkpt>
      <trkpt lat="48.68679" lon="-2.90536">
        <ele>106.7</ele>
        <time>2020-08-12T10:57:36Z</time>
      </trkpt>
      <trkpt lat="48.68683" lon="-2.90558">
        <ele>106.7</ele>
        <time>2020-08-12T11:01:03Z</time>
      </trkpt>
      <trkpt lat="48.6869" lon="-2.9059">
        <ele>106.4</ele>
        <time>2020-08-12T11:01:13Z</time>
      </trkpt>
      <trkpt lat="48.68695" lon="-2.90616">
        <ele>106.1</ele>
        <time>2020-08-12T11:01:19Z</time>
      </trkpt>
      <trkpt lat="48.68701" lon="-2.90662">
        <ele>105.9</ele>
        <time>2020-08-12T11:01:27Z</time>
      </trkpt>
      <trkpt lat="48.68707" lon="-2.90692">
        <ele>105.3</ele>
        <time>2020-08-12T11:01:32Z</time>
      </trkpt>
      <trkpt lat="48.68723" lon="-2.90734">
        <ele>105.2</ele>
        <time>2020-08-12T11:01:40Z</time>
      </trkpt>
      <trkpt lat="48.68741" lon="-2.90766">
        <ele>105</ele>
        <time>2020-08-12T11:01:48Z</time>
      </trkpt>
      <trkpt lat="48.68758" lon="-2.90793">
        <ele>104.8</ele>
        <time>2020-08-12T11:01:56Z</time>
      </trkpt>
      <trkpt lat="48.68778" lon="-2.90828">
        <ele>104.8</ele>
        <time>2020-08-12T11:02:05Z</time>
      </trkpt>
      <trkpt lat="48.68796" lon="-2.90857">
        <ele>103.7</ele>
        <time>2020-08-12T11:02:12Z</time>
      </trkpt>
      <trkpt lat="48.68813" lon="-2.90885">
        <ele>103.2</ele>
        <time>2020-08-12T11:02:19Z</time>
      </trkpt>
      <trkpt lat="48.68831" lon="-2.90913">
        <ele>102.2</ele>
        <time>2020-08-12T11:02:26Z</time>
      </trkpt>
      <trkpt lat="48.68845" lon="-2.90942">
        <ele>100.4</ele>
        <time>2020-08-12T11:02:31Z</time>
      </trkpt>
      <trkpt lat="48.68858" lon="-2.90977">
        <ele>99.6</ele>
        <time>2020-08-12T11:02:37Z</time>
      </trkpt>
      <trkpt lat="48.68871" lon="-2.91013">
        <ele>97.8</ele>
        <time>2020-08-12T11:02:44Z</time>
      </trkpt>
      <trkpt lat="48.68873" lon="-2.91017">
        <ele>97.8</ele>
        <time>2020-08-12T11:02:46Z</time>
      </trkpt>
      <trkpt lat="48.6887" lon="-2.91034">
        <ele>97.6</ele>
        <time>2020-08-12T11:02:51Z</time>
      </trkpt>
      <trkpt lat="48.68873" lon="-2.91049">
        <ele>97.4</ele>
        <time>2020-08-12T11:02:54Z</time>
      </trkpt>
      <trkpt lat="48.68895" lon="-2.91101">
        <ele>95.3</ele>
        <time>2020-08-12T11:03:02Z</time>
      </trkpt>
      <trkpt lat="48.68898" lon="-2.91109">
        <ele>95.2</ele>
        <time>2020-08-12T11:03:03Z</time>
      </trkpt>
      <trkpt lat="48.68904" lon="-2.91147">
        <ele>94.2</ele>
        <time>2020-08-12T11:03:08Z</time>
      </trkpt>
      <trkpt lat="48.68903" lon="-2.91155">
        <ele>93.8</ele>
        <time>2020-08-12T11:03:09Z</time>
      </trkpt>
      <trkpt lat="48.68897" lon="-2.91227">
        <ele>92.9</ele>
        <time>2020-08-12T11:03:18Z</time>
      </trkpt>
      <trkpt lat="48.68896" lon="-2.91245">
        <ele>92.4</ele>
        <time>2020-08-12T11:03:20Z</time>
      </trkpt>
      <trkpt lat="48.68906" lon="-2.91285">
        <ele>92.3</ele>
        <time>2020-08-12T11:03:25Z</time>
      </trkpt>
      <trkpt lat="48.6892" lon="-2.91292">
        <ele>89.4</ele>
        <time>2020-08-12T11:03:28Z</time>
      </trkpt>
      <trkpt lat="48.68926" lon="-2.91293">
        <ele>89.3</ele>
        <time>2020-08-12T11:03:29Z</time>
      </trkpt>
      <trkpt lat="48.68943" lon="-2.91296">
        <ele>89.1</ele>
        <time>2020-08-12T11:03:32Z</time>
      </trkpt>
      <trkpt lat="48.68999" lon="-2.91302">
        <ele>88</ele>
        <time>2020-08-12T11:03:42Z</time>
      </trkpt>
      <trkpt lat="48.6901" lon="-2.91305">
        <ele>86.1</ele>
        <time>2020-08-12T11:03:44Z</time>
      </trkpt>
      <trkpt lat="48.69024" lon="-2.91314">
        <ele>85.9</ele>
        <time>2020-08-12T11:03:47Z</time>
      </trkpt>
      <trkpt lat="48.69063" lon="-2.91353">
        <ele>85.6</ele>
        <time>2020-08-12T11:03:55Z</time>
      </trkpt>
      <trkpt lat="48.6909" lon="-2.91381">
        <ele>85.3</ele>
        <time>2020-08-12T11:04:01Z</time>
      </trkpt>
      <trkpt lat="48.69108" lon="-2.914">
        <ele>85.5</ele>
        <time>2020-08-12T11:04:05Z</time>
      </trkpt>
      <trkpt lat="48.69135" lon="-2.91438">
        <ele>86.8</ele>
        <time>2020-08-12T11:04:12Z</time>
      </trkpt>
      <trkpt lat="48.69151" lon="-2.91464">
        <ele>87</ele>
        <time>2020-08-12T11:04:18Z</time>
      </trkpt>
      <trkpt lat="48.69167" lon="-2.91489">
        <ele>87.8</ele>
        <time>2020-08-12T11:04:25Z</time>
      </trkpt>
      <trkpt lat="48.69181" lon="-2.91508">
        <ele>88.5</ele>
        <time>2020-08-12T11:04:31Z</time>
      </trkpt>
      <trkpt lat="48.69196" lon="-2.9153">
        <ele>88.9</ele>
        <time>2020-08-12T11:04:38Z</time>
      </trkpt>
      <trkpt lat="48.6921" lon="-2.91546">
        <ele>89</ele>
        <time>2020-08-12T11:04:44Z</time>
      </trkpt>
      <trkpt lat="48.6923" lon="-2.91566">
        <ele>89.1</ele>
        <time>2020-08-12T11:04:50Z</time>
      </trkpt>
      <trkpt lat="48.69245" lon="-2.91581">
        <ele>89</ele>
        <time>2020-08-12T11:04:55Z</time>
      </trkpt>
      <trkpt lat="48.69256" lon="-2.91592">
        <ele>88.7</ele>
        <time>2020-08-12T11:05:00Z</time>
      </trkpt>
      <trkpt lat="48.69272" lon="-2.91619">
        <ele>88.2</ele>
        <time>2020-08-12T11:05:07Z</time>
      </trkpt>
      <trkpt lat="48.69282" lon="-2.91656">
        <ele>87.9</ele>
        <time>2020-08-12T11:05:14Z</time>
      </trkpt>
      <trkpt lat="48.69294" lon="-2.91692">
        <ele>88.1</ele>
        <time>2020-08-12T11:05:21Z</time>
      </trkpt>
      <trkpt lat="48.69311" lon="-2.91719">
        <ele>88.2</ele>
        <time>2020-08-12T11:05:28Z</time>
      </trkpt>
      <trkpt lat="48.69318" lon="-2.91728">
        <ele>88.2</ele>
        <time>2020-08-12T11:05:31Z</time>
      </trkpt>
      <trkpt lat="48.69339" lon="-2.91753">
        <ele>88.6</ele>
        <time>2020-08-12T11:05:36Z</time>
      </trkpt>
      <trkpt lat="48.69349" lon="-2.91768">
        <ele>89.6</ele>
        <time>2020-08-12T11:05:38Z</time>
      </trkpt>
      <trkpt lat="48.69363" lon="-2.9181">
        <ele>90.4</ele>
        <time>2020-08-12T11:05:42Z</time>
      </trkpt>
      <trkpt lat="48.69367" lon="-2.91849">
        <ele>90</ele>
        <time>2020-08-12T11:05:47Z</time>
      </trkpt>
      <trkpt lat="48.6937" lon="-2.91877">
        <ele>89.7</ele>
        <time>2020-08-12T11:05:52Z</time>
      </trkpt>
      <trkpt lat="48.69374" lon="-2.91889">
        <ele>89.5</ele>
        <time>2020-08-12T11:05:56Z</time>
      </trkpt>
      <trkpt lat="48.69381" lon="-2.91899">
        <ele>89.4</ele>
        <time>2020-08-12T11:06:01Z</time>
      </trkpt>
      <trkpt lat="48.69389" lon="-2.91913">
        <ele>89.1</ele>
        <time>2020-08-12T11:06:06Z</time>
      </trkpt>
      <trkpt lat="48.69397" lon="-2.91928">
        <ele>87.8</ele>
        <time>2020-08-12T11:06:11Z</time>
      </trkpt>
      <trkpt lat="48.69408" lon="-2.91954">
        <ele>87.5</ele>
        <time>2020-08-12T11:06:16Z</time>
      </trkpt>
      <trkpt lat="48.69414" lon="-2.91969">
        <ele>87.4</ele>
        <time>2020-08-12T11:06:19Z</time>
      </trkpt>
      <trkpt lat="48.69431" lon="-2.92008">
        <ele>86.7</ele>
        <time>2020-08-12T11:06:27Z</time>
      </trkpt>
      <trkpt lat="48.69447" lon="-2.92044">
        <ele>86.3</ele>
        <time>2020-08-12T11:06:34Z</time>
      </trkpt>
      <trkpt lat="48.69461" lon="-2.92084">
        <ele>85.6</ele>
        <time>2020-08-12T11:06:42Z</time>
      </trkpt>
      <trkpt lat="48.69472" lon="-2.92097">
        <ele>85.6</ele>
        <time>2020-08-12T11:06:46Z</time>
      </trkpt>
      <trkpt lat="48.6948" lon="-2.921">
        <ele>85.5</ele>
        <time>2020-08-12T11:06:48Z</time>
      </trkpt>
      <trkpt lat="48.69521" lon="-2.92098">
        <ele>85.4</ele>
        <time>2020-08-12T11:06:56Z</time>
      </trkpt>
      <trkpt lat="48.69572" lon="-2.92094">
        <ele>85.4</ele>
        <time>2020-08-12T11:07:05Z</time>
      </trkpt>
      <trkpt lat="48.6962" lon="-2.92092">
        <ele>85.3</ele>
        <time>2020-08-12T11:07:12Z</time>
      </trkpt>
      <trkpt lat="48.69684" lon="-2.9209">
        <ele>83.8</ele>
        <time>2020-08-12T11:07:21Z</time>
      </trkpt>
      <trkpt lat="48.69698" lon="-2.9209">
        <ele>83.2</ele>
        <time>2020-08-12T11:07:23Z</time>
      </trkpt>
      <trkpt lat="48.69718" lon="-2.92094">
        <ele>82.5</ele>
        <time>2020-08-12T11:07:27Z</time>
      </trkpt>
      <trkpt lat="48.69736" lon="-2.92093">
        <ele>81.9</ele>
        <time>2020-08-12T11:07:31Z</time>
      </trkpt>
      <trkpt lat="48.69776" lon="-2.92094">
        <ele>80.1</ele>
        <time>2020-08-12T11:07:39Z</time>
      </trkpt>
      <trkpt lat="48.69821" lon="-2.92094">
        <ele>79.4</ele>
        <time>2020-08-12T11:07:46Z</time>
      </trkpt>
      <trkpt lat="48.69828" lon="-2.92095">
        <ele>79.3</ele>
        <time>2020-08-12T11:07:47Z</time>
      </trkpt>
      <trkpt lat="48.69881" lon="-2.92087">
        <ele>78.2</ele>
        <time>2020-08-12T11:07:55Z</time>
      </trkpt>
      <trkpt lat="48.69928" lon="-2.92068">
        <ele>76.6</ele>
        <time>2020-08-12T11:08:02Z</time>
      </trkpt>
      <trkpt lat="48.69953" lon="-2.9205">
        <ele>76.3</ele>
        <time>2020-08-12T11:08:06Z</time>
      </trkpt>
      <trkpt lat="48.69974" lon="-2.92012">
        <ele>75.9</ele>
        <time>2020-08-12T11:08:11Z</time>
      </trkpt>
      <trkpt lat="48.69983" lon="-2.91979">
        <ele>75.5</ele>
        <time>2020-08-12T11:08:15Z</time>
      </trkpt>
      <trkpt lat="48.69997" lon="-2.91966">
        <ele>75.5</ele>
        <time>2020-08-12T11:08:18Z</time>
      </trkpt>
      <trkpt lat="48.70014" lon="-2.91965">
        <ele>74.8</ele>
        <time>2020-08-12T11:08:21Z</time>
      </trkpt>
      <trkpt lat="48.70056" lon="-2.91974">
        <ele>74.6</ele>
        <time>2020-08-12T11:08:29Z</time>
      </trkpt>
      <trkpt lat="48.70067" lon="-2.91982">
        <ele>74.5</ele>
        <time>2020-08-12T11:08:33Z</time>
      </trkpt>
      <trkpt lat="48.70075" lon="-2.91997">
        <ele>74.2</ele>
        <time>2020-08-12T11:08:38Z</time>
      </trkpt>
      <trkpt lat="48.70077" lon="-2.91999">
        <ele>74.2</ele>
        <time>2020-08-12T11:08:41Z</time>
      </trkpt>
      <trkpt lat="48.70083" lon="-2.92017">
        <ele>74.5</ele>
        <time>2020-08-12T11:08:52Z</time>
      </trkpt>
      <trkpt lat="48.70098" lon="-2.9205">
        <ele>74.4</ele>
        <time>2020-08-12T11:09:00Z</time>
      </trkpt>
      <trkpt lat="48.70115" lon="-2.92089">
        <ele>74.4</ele>
        <time>2020-08-12T11:09:08Z</time>
      </trkpt>
      <trkpt lat="48.70134" lon="-2.92132">
        <ele>73.9</ele>
        <time>2020-08-12T11:09:15Z</time>
      </trkpt>
      <trkpt lat="48.7014" lon="-2.92146">
        <ele>73.7</ele>
        <time>2020-08-12T11:09:17Z</time>
      </trkpt>
      <trkpt lat="48.70149" lon="-2.92189">
        <ele>72.3</ele>
        <time>2020-08-12T11:09:22Z</time>
      </trkpt>
      <trkpt lat="48.70154" lon="-2.92257">
        <ele>70.8</ele>
        <time>2020-08-12T11:09:29Z</time>
      </trkpt>
      <trkpt lat="48.70148" lon="-2.92313">
        <ele>70.3</ele>
        <time>2020-08-12T11:09:35Z</time>
      </trkpt>
      <trkpt lat="48.7014" lon="-2.92346">
        <ele>70.2</ele>
        <time>2020-08-12T11:09:39Z</time>
      </trkpt>
      <trkpt lat="48.70129" lon="-2.92371">
        <ele>70.2</ele>
        <time>2020-08-12T11:09:44Z</time>
      </trkpt>
      <trkpt lat="48.70126" lon="-2.92376">
        <ele>70.3</ele>
        <time>2020-08-12T11:09:48Z</time>
      </trkpt>
      <trkpt lat="48.70131" lon="-2.9238">
        <ele>70.3</ele>
        <time>2020-08-12T11:10:17Z</time>
      </trkpt>
      <trkpt lat="48.70138" lon="-2.92385">
        <ele>70.3</ele>
        <time>2020-08-12T11:10:24Z</time>
      </trkpt>
      <trkpt lat="48.70146" lon="-2.92384">
        <ele>70.4</ele>
        <time>2020-08-12T11:10:29Z</time>
      </trkpt>
      <trkpt lat="48.70153" lon="-2.92376">
        <ele>70.3</ele>
        <time>2020-08-12T11:10:35Z</time>
      </trkpt>
      <trkpt lat="48.70167" lon="-2.92368">
        <ele>70.6</ele>
        <time>2020-08-12T11:10:42Z</time>
      </trkpt>
      <trkpt lat="48.7018" lon="-2.92366">
        <ele>70.6</ele>
        <time>2020-08-12T11:10:46Z</time>
      </trkpt>
      <trkpt lat="48.70199" lon="-2.92366">
        <ele>70.7</ele>
        <time>2020-08-12T11:10:50Z</time>
      </trkpt>
      <trkpt lat="48.70227" lon="-2.92358">
        <ele>71</ele>
        <time>2020-08-12T11:10:56Z</time>
      </trkpt>
      <trkpt lat="48.70236" lon="-2.92357">
        <ele>71.1</ele>
        <time>2020-08-12T11:10:58Z</time>
      </trkpt>
      <trkpt lat="48.70273" lon="-2.92352">
        <ele>71.2</ele>
        <time>2020-08-12T11:11:07Z</time>
      </trkpt>
      <trkpt lat="48.70292" lon="-2.92353">
        <ele>71</ele>
        <time>2020-08-12T11:11:13Z</time>
      </trkpt>
      <trkpt lat="48.70294" lon="-2.92353">
        <ele>71</ele>
        <time>2020-08-12T11:11:14Z</time>
      </trkpt>
      <trkpt lat="48.70305" lon="-2.92347">
        <ele>70.8</ele>
        <time>2020-08-12T11:11:21Z</time>
      </trkpt>
      <trkpt lat="48.70316" lon="-2.92335">
        <ele>70.6</ele>
        <time>2020-08-12T11:11:28Z</time>
      </trkpt>
      <trkpt lat="48.70318" lon="-2.9233">
        <ele>70.2</ele>
        <time>2020-08-12T11:11:32Z</time>
      </trkpt>
      <trkpt lat="48.70319" lon="-2.92338">
        <ele>70.5</ele>
        <time>2020-08-12T11:11:45Z</time>
      </trkpt>
      <trkpt lat="48.70308" lon="-2.92346">
        <ele>70.8</ele>
        <time>2020-08-12T11:11:52Z</time>
      </trkpt>
      <trkpt lat="48.70297" lon="-2.92355">
        <ele>71</ele>
        <time>2020-08-12T11:11:58Z</time>
      </trkpt>
      <trkpt lat="48.70295" lon="-2.92372">
        <ele>71</ele>
        <time>2020-08-12T11:12:02Z</time>
      </trkpt>
      <trkpt lat="48.703" lon="-2.92412">
        <ele>71.1</ele>
        <time>2020-08-12T11:12:09Z</time>
      </trkpt>
      <trkpt lat="48.70313" lon="-2.92438">
        <ele>70</ele>
        <time>2020-08-12T11:12:14Z</time>
      </trkpt>
      <trkpt lat="48.70319" lon="-2.92444">
        <ele>69.9</ele>
        <time>2020-08-12T11:12:16Z</time>
      </trkpt>
      <trkpt lat="48.70329" lon="-2.92459">
        <ele>69.3</ele>
        <time>2020-08-12T11:12:23Z</time>
      </trkpt>
      <trkpt lat="48.70329" lon="-2.92459">
        <ele>69.3</ele>
        <time>2020-08-12T11:12:24Z</time>
      </trkpt>
      <trkpt lat="48.70316" lon="-2.92444">
        <ele>69.8</ele>
        <time>2020-08-12T11:12:35Z</time>
      </trkpt>
      <trkpt lat="48.70304" lon="-2.92423">
        <ele>70.1</ele>
        <time>2020-08-12T11:12:42Z</time>
      </trkpt>
      <trkpt lat="48.703" lon="-2.92403">
        <ele>71.1</ele>
        <time>2020-08-12T11:12:48Z</time>
      </trkpt>
      <trkpt lat="48.70297" lon="-2.92376">
        <ele>71</ele>
        <time>2020-08-12T11:12:57Z</time>
      </trkpt>
      <trkpt lat="48.70294" lon="-2.92362">
        <ele>71</ele>
        <time>2020-08-12T11:13:03Z</time>
      </trkpt>
      <trkpt lat="48.70292" lon="-2.92358">
        <ele>71</ele>
        <time>2020-08-12T11:13:05Z</time>
      </trkpt>
      <trkpt lat="48.70284" lon="-2.92354">
        <ele>71.1</ele>
        <time>2020-08-12T11:13:10Z</time>
      </trkpt>
      <trkpt lat="48.70255" lon="-2.92357">
        <ele>71.3</ele>
        <time>2020-08-12T11:13:20Z</time>
      </trkpt>
      <trkpt lat="48.70228" lon="-2.92362">
        <ele>70.9</ele>
        <time>2020-08-12T11:13:28Z</time>
      </trkpt>
      <trkpt lat="48.70198" lon="-2.92369">
        <ele>70.7</ele>
        <time>2020-08-12T11:13:37Z</time>
      </trkpt>
      <trkpt lat="48.70173" lon="-2.92369">
        <ele>70.6</ele>
        <time>2020-08-12T11:13:45Z</time>
      </trkpt>
      <trkpt lat="48.7016" lon="-2.92373">
        <ele>70.3</ele>
        <time>2020-08-12T11:13:51Z</time>
      </trkpt>
      <trkpt lat="48.70145" lon="-2.92385">
        <ele>70.4</ele>
        <time>2020-08-12T11:13:59Z</time>
      </trkpt>
      <trkpt lat="48.70135" lon="-2.92384">
        <ele>70.3</ele>
        <time>2020-08-12T11:14:05Z</time>
      </trkpt>
      <trkpt lat="48.70135" lon="-2.92384">
        <ele>70.3</ele>
        <time>2020-08-12T11:14:06Z</time>
      </trkpt>
      <trkpt lat="48.70128" lon="-2.92377">
        <ele>70.3</ele>
        <time>2020-08-12T11:14:18Z</time>
      </trkpt>
      <trkpt lat="48.70125" lon="-2.92375">
        <ele>70.3</ele>
        <time>2020-08-12T11:14:19Z</time>
      </trkpt>
      <trkpt lat="48.70107" lon="-2.9237">
        <ele>70.2</ele>
        <time>2020-08-12T11:14:23Z</time>
      </trkpt>
      <trkpt lat="48.7007" lon="-2.92364">
        <ele>70.9</ele>
        <time>2020-08-12T11:14:30Z</time>
      </trkpt>
      <trkpt lat="48.70047" lon="-2.92376">
        <ele>71.2</ele>
        <time>2020-08-12T11:14:35Z</time>
      </trkpt>
      <trkpt lat="48.70042" lon="-2.92388">
        <ele>71.2</ele>
        <time>2020-08-12T11:14:37Z</time>
      </trkpt>
      <trkpt lat="48.70031" lon="-2.92436">
        <ele>71</ele>
        <time>2020-08-12T11:14:45Z</time>
      </trkpt>
      <trkpt lat="48.70029" lon="-2.92475">
        <ele>70.8</ele>
        <time>2020-08-12T11:14:52Z</time>
      </trkpt>
      <trkpt lat="48.70038" lon="-2.92511">
        <ele>70.5</ele>
        <time>2020-08-12T11:14:59Z</time>
      </trkpt>
      <trkpt lat="48.70052" lon="-2.92558">
        <ele>70.4</ele>
        <time>2020-08-12T11:15:08Z</time>
      </trkpt>
      <trkpt lat="48.70067" lon="-2.92597">
        <ele>71</ele>
        <time>2020-08-12T11:15:16Z</time>
      </trkpt>
      <trkpt lat="48.70083" lon="-2.92625">
        <ele>71.5</ele>
        <time>2020-08-12T11:15:23Z</time>
      </trkpt>
      <trkpt lat="48.70098" lon="-2.92661">
        <ele>71.6</ele>
        <time>2020-08-12T11:15:32Z</time>
      </trkpt>
      <trkpt lat="48.70103" lon="-2.92688">
        <ele>73.1</ele>
        <time>2020-08-12T11:15:39Z</time>
      </trkpt>
      <trkpt lat="48.70103" lon="-2.9272">
        <ele>74</ele>
        <time>2020-08-12T11:15:47Z</time>
      </trkpt>
      <trkpt lat="48.70097" lon="-2.92742">
        <ele>74.8</ele>
        <time>2020-08-12T11:15:53Z</time>
      </trkpt>
      <trkpt lat="48.70083" lon="-2.92769">
        <ele>76.5</ele>
        <time>2020-08-12T11:16:01Z</time>
      </trkpt>
      <trkpt lat="48.70076" lon="-2.92795">
        <ele>76.9</ele>
        <time>2020-08-12T11:16:07Z</time>
      </trkpt>
      <trkpt lat="48.70078" lon="-2.92825">
        <ele>77</ele>
        <time>2020-08-12T11:16:14Z</time>
      </trkpt>
      <trkpt lat="48.70086" lon="-2.92848">
        <ele>77.2</ele>
        <time>2020-08-12T11:16:20Z</time>
      </trkpt>
      <trkpt lat="48.70097" lon="-2.92884">
        <ele>78.1</ele>
        <time>2020-08-12T11:16:29Z</time>
      </trkpt>
      <trkpt lat="48.70103" lon="-2.92912">
        <ele>79.1</ele>
        <time>2020-08-12T11:16:36Z</time>
      </trkpt>
      <trkpt lat="48.70107" lon="-2.9294">
        <ele>79.6</ele>
        <time>2020-08-12T11:16:43Z</time>
      </trkpt>
      <trkpt lat="48.70111" lon="-2.92958">
        <ele>79.4</ele>
        <time>2020-08-12T11:16:48Z</time>
      </trkpt>
      <trkpt lat="48.70114" lon="-2.92979">
        <ele>79.4</ele>
        <time>2020-08-12T11:16:54Z</time>
      </trkpt>
      <trkpt lat="48.70117" lon="-2.93004">
        <ele>80.3</ele>
        <time>2020-08-12T11:17:02Z</time>
      </trkpt>
      <trkpt lat="48.70123" lon="-2.93016">
        <ele>80</ele>
        <time>2020-08-12T11:17:09Z</time>
      </trkpt>
      <trkpt lat="48.70125" lon="-2.9302">
        <ele>79.9</ele>
        <time>2020-08-12T11:17:31Z</time>
      </trkpt>
      <trkpt lat="48.7013" lon="-2.93036">
        <ele>80</ele>
        <time>2020-08-12T11:17:35Z</time>
      </trkpt>
      <trkpt lat="48.70147" lon="-2.93054">
        <ele>79.7</ele>
        <time>2020-08-12T11:17:39Z</time>
      </trkpt>
      <trkpt lat="48.70176" lon="-2.93071">
        <ele>77.3</ele>
        <time>2020-08-12T11:17:44Z</time>
      </trkpt>
      <trkpt lat="48.70194" lon="-2.93092">
        <ele>78.7</ele>
        <time>2020-08-12T11:17:48Z</time>
      </trkpt>
      <trkpt lat="48.7021" lon="-2.93128">
        <ele>78.8</ele>
        <time>2020-08-12T11:17:54Z</time>
      </trkpt>
      <trkpt lat="48.70218" lon="-2.93168">
        <ele>80.4</ele>
        <time>2020-08-12T11:18:01Z</time>
      </trkpt>
      <trkpt lat="48.70224" lon="-2.93206">
        <ele>80.8</ele>
        <time>2020-08-12T11:18:08Z</time>
      </trkpt>
      <trkpt lat="48.7023" lon="-2.93252">
        <ele>82</ele>
        <time>2020-08-12T11:18:17Z</time>
      </trkpt>
      <trkpt lat="48.70237" lon="-2.93304">
        <ele>83.4</ele>
        <time>2020-08-12T11:18:27Z</time>
      </trkpt>
      <trkpt lat="48.70243" lon="-2.93325">
        <ele>83.8</ele>
        <time>2020-08-12T11:18:33Z</time>
      </trkpt>
      <trkpt lat="48.70254" lon="-2.93338">
        <ele>83.5</ele>
        <time>2020-08-12T11:18:40Z</time>
      </trkpt>
      <trkpt lat="48.70271" lon="-2.93345">
        <ele>82.6</ele>
        <time>2020-08-12T11:18:45Z</time>
      </trkpt>
      <trkpt lat="48.70294" lon="-2.9336">
        <ele>81.7</ele>
        <time>2020-08-12T11:18:51Z</time>
      </trkpt>
      <trkpt lat="48.70319" lon="-2.93387">
        <ele>81.5</ele>
        <time>2020-08-12T11:18:58Z</time>
      </trkpt>
      <trkpt lat="48.70346" lon="-2.93423">
        <ele>81.5</ele>
        <time>2020-08-12T11:19:05Z</time>
      </trkpt>
      <trkpt lat="48.7038" lon="-2.93473">
        <ele>82.1</ele>
        <time>2020-08-12T11:19:12Z</time>
      </trkpt>
      <trkpt lat="48.70406" lon="-2.93495">
        <ele>82</ele>
        <time>2020-08-12T11:19:18Z</time>
      </trkpt>
      <trkpt lat="48.70422" lon="-2.93507">
        <ele>82.5</ele>
        <time>2020-08-12T11:19:24Z</time>
      </trkpt>
      <trkpt lat="48.70437" lon="-2.93519">
        <ele>83.1</ele>
        <time>2020-08-12T11:19:31Z</time>
      </trkpt>
      <trkpt lat="48.70448" lon="-2.93524">
        <ele>83.3</ele>
        <time>2020-08-12T11:19:36Z</time>
      </trkpt>
      <trkpt lat="48.70452" lon="-2.93526">
        <ele>83.4</ele>
        <time>2020-08-12T11:19:38Z</time>
      </trkpt>
      <trkpt lat="48.70464" lon="-2.93537">
        <ele>83.6</ele>
        <time>2020-08-12T11:19:44Z</time>
      </trkpt>
      <trkpt lat="48.70487" lon="-2.9355">
        <ele>83.8</ele>
        <time>2020-08-12T11:19:51Z</time>
      </trkpt>
      <trkpt lat="48.70509" lon="-2.93563">
        <ele>84.3</ele>
        <time>2020-08-12T11:19:57Z</time>
      </trkpt>
      <trkpt lat="48.7053" lon="-2.93581">
        <ele>84.4</ele>
        <time>2020-08-12T11:20:03Z</time>
      </trkpt>
      <trkpt lat="48.70543" lon="-2.93599">
        <ele>84.5</ele>
        <time>2020-08-12T11:20:07Z</time>
      </trkpt>
      <trkpt lat="48.7057" lon="-2.93627">
        <ele>84.5</ele>
        <time>2020-08-12T11:20:15Z</time>
      </trkpt>
      <trkpt lat="48.70598" lon="-2.93646">
        <ele>84.5</ele>
        <time>2020-08-12T11:20:23Z</time>
      </trkpt>
      <trkpt lat="48.70635" lon="-2.93672">
        <ele>84.9</ele>
        <time>2020-08-12T11:20:33Z</time>
      </trkpt>
      <trkpt lat="48.70672" lon="-2.93698">
        <ele>85.9</ele>
        <time>2020-08-12T11:20:43Z</time>
      </trkpt>
      <trkpt lat="48.70709" lon="-2.93725">
        <ele>86.4</ele>
        <time>2020-08-12T11:20:53Z</time>
      </trkpt>
      <trkpt lat="48.70742" lon="-2.93747">
        <ele>87.5</ele>
        <time>2020-08-12T11:21:01Z</time>
      </trkpt>
      <trkpt lat="48.70754" lon="-2.93755">
        <ele>88.2</ele>
        <time>2020-08-12T11:21:04Z</time>
      </trkpt>
      <trkpt lat="48.70787" lon="-2.93775">
        <ele>88.7</ele>
        <time>2020-08-12T11:21:12Z</time>
      </trkpt>
      <trkpt lat="48.70823" lon="-2.9379">
        <ele>89</ele>
        <time>2020-08-12T11:21:22Z</time>
      </trkpt>
      <trkpt lat="48.70856" lon="-2.93807">
        <ele>89.8</ele>
        <time>2020-08-12T11:21:32Z</time>
      </trkpt>
      <trkpt lat="48.70879" lon="-2.93821">
        <ele>90</ele>
        <time>2020-08-12T11:21:40Z</time>
      </trkpt>
      <trkpt lat="48.70899" lon="-2.93838">
        <ele>91.2</ele>
        <time>2020-08-12T11:21:48Z</time>
      </trkpt>
      <trkpt lat="48.70927" lon="-2.93861">
        <ele>91.4</ele>
        <time>2020-08-12T11:21:59Z</time>
      </trkpt>
      <trkpt lat="48.70951" lon="-2.93879">
        <ele>91.5</ele>
        <time>2020-08-12T11:22:08Z</time>
      </trkpt>
      <trkpt lat="48.70969" lon="-2.93889">
        <ele>91.6</ele>
        <time>2020-08-12T11:22:16Z</time>
      </trkpt>
      <trkpt lat="48.70989" lon="-2.93897">
        <ele>91.7</ele>
        <time>2020-08-12T11:22:24Z</time>
      </trkpt>
      <trkpt lat="48.71015" lon="-2.93907">
        <ele>91.4</ele>
        <time>2020-08-12T11:22:31Z</time>
      </trkpt>
      <trkpt lat="48.71051" lon="-2.93924">
        <ele>91</ele>
        <time>2020-08-12T11:22:40Z</time>
      </trkpt>
      <trkpt lat="48.71081" lon="-2.93943">
        <ele>90.7</ele>
        <time>2020-08-12T11:22:47Z</time>
      </trkpt>
      <trkpt lat="48.71093" lon="-2.93952">
        <ele>89.7</ele>
        <time>2020-08-12T11:22:51Z</time>
      </trkpt>
      <trkpt lat="48.71101" lon="-2.93957">
        <ele>89.6</ele>
        <time>2020-08-12T11:22:57Z</time>
      </trkpt>
      <trkpt lat="48.71103" lon="-2.93959">
        <ele>89.6</ele>
        <time>2020-08-12T11:23:19Z</time>
      </trkpt>
      <trkpt lat="48.71113" lon="-2.93967">
        <ele>89.6</ele>
        <time>2020-08-12T11:23:25Z</time>
      </trkpt>
      <trkpt lat="48.71129" lon="-2.93974">
        <ele>89.5</ele>
        <time>2020-08-12T11:23:30Z</time>
      </trkpt>
      <trkpt lat="48.71156" lon="-2.93984">
        <ele>89.3</ele>
        <time>2020-08-12T11:23:37Z</time>
      </trkpt>
      <trkpt lat="48.71162" lon="-2.93987">
        <ele>89.2</ele>
        <time>2020-08-12T11:23:41Z</time>
      </trkpt>
      <trkpt lat="48.71163" lon="-2.93987">
        <ele>89.2</ele>
        <time>2020-08-12T11:23:42Z</time>
      </trkpt>
      <trkpt lat="48.7116" lon="-2.94004">
        <ele>89.2</ele>
        <time>2020-08-12T11:24:06Z</time>
      </trkpt>
      <trkpt lat="48.71155" lon="-2.94022">
        <ele>89.4</ele>
        <time>2020-08-12T11:24:11Z</time>
      </trkpt>
      <trkpt lat="48.71151" lon="-2.94036">
        <ele>89.5</ele>
        <time>2020-08-12T11:24:16Z</time>
      </trkpt>
      <trkpt lat="48.71146" lon="-2.94059">
        <ele>89.6</ele>
        <time>2020-08-12T11:24:24Z</time>
      </trkpt>
      <trkpt lat="48.71141" lon="-2.94081">
        <ele>89.6</ele>
        <time>2020-08-12T11:24:32Z</time>
      </trkpt>
      <trkpt lat="48.71134" lon="-2.94102">
        <ele>90.4</ele>
        <time>2020-08-12T11:24:39Z</time>
      </trkpt>
      <trkpt lat="48.71126" lon="-2.94121">
        <ele>90.7</ele>
        <time>2020-08-12T11:24:46Z</time>
      </trkpt>
      <trkpt lat="48.71115" lon="-2.94145">
        <ele>91.1</ele>
        <time>2020-08-12T11:24:55Z</time>
      </trkpt>
      <trkpt lat="48.71103" lon="-2.94174">
        <ele>91.3</ele>
        <time>2020-08-12T11:25:04Z</time>
      </trkpt>
      <trkpt lat="48.71089" lon="-2.94206">
        <ele>90.8</ele>
        <time>2020-08-12T11:25:12Z</time>
      </trkpt>
      <trkpt lat="48.71074" lon="-2.94244">
        <ele>91.7</ele>
        <time>2020-08-12T11:25:20Z</time>
      </trkpt>
      <trkpt lat="48.71057" lon="-2.94294">
        <ele>91.8</ele>
        <time>2020-08-12T11:25:29Z</time>
      </trkpt>
      <trkpt lat="48.71041" lon="-2.94345">
        <ele>91.9</ele>
        <time>2020-08-12T11:25:38Z</time>
      </trkpt>
      <trkpt lat="48.7103" lon="-2.944">
        <ele>92.3</ele>
        <time>2020-08-12T11:25:48Z</time>
      </trkpt>
      <trkpt lat="48.71026" lon="-2.94441">
        <ele>93</ele>
        <time>2020-08-12T11:25:55Z</time>
      </trkpt>
      <trkpt lat="48.7102" lon="-2.94489">
        <ele>93.9</ele>
        <time>2020-08-12T11:26:04Z</time>
      </trkpt>
      <trkpt lat="48.71016" lon="-2.9453">
        <ele>94</ele>
        <time>2020-08-12T11:26:12Z</time>
      </trkpt>
      <trkpt lat="48.71015" lon="-2.94571">
        <ele>94.1</ele>
        <time>2020-08-12T11:26:19Z</time>
      </trkpt>
      <trkpt lat="48.71011" lon="-2.94622">
        <ele>93.5</ele>
        <time>2020-08-12T11:26:27Z</time>
      </trkpt>
      <trkpt lat="48.71011" lon="-2.94628">
        <ele>93.5</ele>
        <time>2020-08-12T11:26:28Z</time>
      </trkpt>
      <trkpt lat="48.71008" lon="-2.94647">
        <ele>93.8</ele>
        <time>2020-08-12T11:26:31Z</time>
      </trkpt>
      <trkpt lat="48.70997" lon="-2.94683">
        <ele>95.3</ele>
        <time>2020-08-12T11:26:37Z</time>
      </trkpt>
      <trkpt lat="48.70987" lon="-2.94707">
        <ele>95.4</ele>
        <time>2020-08-12T11:26:42Z</time>
      </trkpt>
      <trkpt lat="48.70971" lon="-2.94743">
        <ele>95.3</ele>
        <time>2020-08-12T11:26:50Z</time>
      </trkpt>
      <trkpt lat="48.70955" lon="-2.94779">
        <ele>95.3</ele>
        <time>2020-08-12T11:26:59Z</time>
      </trkpt>
      <trkpt lat="48.7094" lon="-2.94813">
        <ele>95.5</ele>
        <time>2020-08-12T11:27:08Z</time>
      </trkpt>
      <trkpt lat="48.70926" lon="-2.94846">
        <ele>95</ele>
        <time>2020-08-12T11:27:18Z</time>
      </trkpt>
      <trkpt lat="48.70917" lon="-2.94858">
        <ele>94.7</ele>
        <time>2020-08-12T11:27:25Z</time>
      </trkpt>
      <trkpt lat="48.70918" lon="-2.9487">
        <ele>94.3</ele>
        <time>2020-08-12T11:27:30Z</time>
      </trkpt>
      <trkpt lat="48.70915" lon="-2.94877">
        <ele>95.9</ele>
        <time>2020-08-12T11:27:35Z</time>
      </trkpt>
      <trkpt lat="48.70916" lon="-2.94885">
        <ele>95.7</ele>
        <time>2020-08-12T11:27:40Z</time>
      </trkpt>
      <trkpt lat="48.70918" lon="-2.94889">
        <ele>94</ele>
        <time>2020-08-12T11:27:42Z</time>
      </trkpt>
      <trkpt lat="48.70917" lon="-2.949">
        <ele>93.9</ele>
        <time>2020-08-12T11:27:47Z</time>
      </trkpt>
      <trkpt lat="48.70917" lon="-2.94903">
        <ele>93.9</ele>
        <time>2020-08-12T11:27:48Z</time>
      </trkpt>
      <trkpt lat="48.70917" lon="-2.94934">
        <ele>93.2</ele>
        <time>2020-08-12T11:27:55Z</time>
      </trkpt>
      <trkpt lat="48.70918" lon="-2.94952">
        <ele>92.9</ele>
        <time>2020-08-12T11:27:58Z</time>
      </trkpt>
      <trkpt lat="48.70916" lon="-2.95004">
        <ele>95.5</ele>
        <time>2020-08-12T11:28:06Z</time>
      </trkpt>
      <trkpt lat="48.70915" lon="-2.95038">
        <ele>97.2</ele>
        <time>2020-08-12T11:28:11Z</time>
      </trkpt>
      <trkpt lat="48.70914" lon="-2.95053">
        <ele>97.2</ele>
        <time>2020-08-12T11:28:13Z</time>
      </trkpt>
      <trkpt lat="48.70911" lon="-2.95106">
        <ele>96.1</ele>
        <time>2020-08-12T11:28:20Z</time>
      </trkpt>
      <trkpt lat="48.70907" lon="-2.9516">
        <ele>93.7</ele>
        <time>2020-08-12T11:28:27Z</time>
      </trkpt>
      <trkpt lat="48.70913" lon="-2.95193">
        <ele>92.9</ele>
        <time>2020-08-12T11:28:32Z</time>
      </trkpt>
      <trkpt lat="48.70928" lon="-2.95206">
        <ele>91.1</ele>
        <time>2020-08-12T11:28:36Z</time>
      </trkpt>
      <trkpt lat="48.70932" lon="-2.95207">
        <ele>91.1</ele>
        <time>2020-08-12T11:28:37Z</time>
      </trkpt>
      <trkpt lat="48.7094" lon="-2.95209">
        <ele>91</ele>
        <time>2020-08-12T11:28:39Z</time>
      </trkpt>
      <trkpt lat="48.70959" lon="-2.95222">
        <ele>90.7</ele>
        <time>2020-08-12T11:28:44Z</time>
      </trkpt>
      <trkpt lat="48.70965" lon="-2.95244">
        <ele>90.5</ele>
        <time>2020-08-12T11:28:48Z</time>
      </trkpt>
      <trkpt lat="48.70968" lon="-2.95302">
        <ele>90.4</ele>
        <time>2020-08-12T11:28:57Z</time>
      </trkpt>
      <trkpt lat="48.70967" lon="-2.95362">
        <ele>90.4</ele>
        <time>2020-08-12T11:29:07Z</time>
      </trkpt>
      <trkpt lat="48.70965" lon="-2.95411">
        <ele>90.4</ele>
        <time>2020-08-12T11:29:16Z</time>
      </trkpt>
      <trkpt lat="48.70965" lon="-2.95427">
        <ele>90.6</ele>
        <time>2020-08-12T11:29:21Z</time>
      </trkpt>
      <trkpt lat="48.70975" lon="-2.95444">
        <ele>90.6</ele>
        <time>2020-08-12T11:29:27Z</time>
      </trkpt>
      <trkpt lat="48.70993" lon="-2.9545">
        <ele>90.6</ele>
        <time>2020-08-12T11:29:31Z</time>
      </trkpt>
      <trkpt lat="48.71034" lon="-2.95463">
        <ele>89.8</ele>
        <time>2020-08-12T11:29:38Z</time>
      </trkpt>
      <trkpt lat="48.71084" lon="-2.95473">
        <ele>88.3</ele>
        <time>2020-08-12T11:29:46Z</time>
      </trkpt>
      <trkpt lat="48.7112" lon="-2.95482">
        <ele>87.8</ele>
        <time>2020-08-12T11:29:52Z</time>
      </trkpt>
      <trkpt lat="48.71175" lon="-2.95492">
        <ele>85.9</ele>
        <time>2020-08-12T11:30:01Z</time>
      </trkpt>
      <trkpt lat="48.71193" lon="-2.95496">
        <ele>85.8</ele>
        <time>2020-08-12T11:30:04Z</time>
      </trkpt>
      <trkpt lat="48.7122" lon="-2.95516">
        <ele>85.6</ele>
        <time>2020-08-12T11:30:09Z</time>
      </trkpt>
      <trkpt lat="48.7128" lon="-2.95582">
        <ele>84.9</ele>
        <time>2020-08-12T11:30:21Z</time>
      </trkpt>
      <trkpt lat="48.71303" lon="-2.95622">
        <ele>85.2</ele>
        <time>2020-08-12T11:30:27Z</time>
      </trkpt>
      <trkpt lat="48.71321" lon="-2.95677">
        <ele>85.5</ele>
        <time>2020-08-12T11:30:34Z</time>
      </trkpt>
      <trkpt lat="48.71324" lon="-2.95694">
        <ele>85.3</ele>
        <time>2020-08-12T11:30:36Z</time>
      </trkpt>
      <trkpt lat="48.7134" lon="-2.95735">
        <ele>85.2</ele>
        <time>2020-08-12T11:30:42Z</time>
      </trkpt>
      <trkpt lat="48.71346" lon="-2.95745">
        <ele>85.2</ele>
        <time>2020-08-12T11:30:44Z</time>
      </trkpt>
      <trkpt lat="48.7135" lon="-2.9576">
        <ele>84.3</ele>
        <time>2020-08-12T11:30:49Z</time>
      </trkpt>
      <trkpt lat="48.7135" lon="-2.9576">
        <ele>84.3</ele>
        <time>2020-08-12T11:30:50Z</time>
      </trkpt>
      <trkpt lat="48.71349" lon="-2.95771">
        <ele>84.1</ele>
        <time>2020-08-12T11:31:05Z</time>
      </trkpt>
      <trkpt lat="48.71354" lon="-2.95813">
        <ele>83.2</ele>
        <time>2020-08-12T11:31:13Z</time>
      </trkpt>
      <trkpt lat="48.71359" lon="-2.9584">
        <ele>81.7</ele>
        <time>2020-08-12T11:31:17Z</time>
      </trkpt>
      <trkpt lat="48.71376" lon="-2.95875">
        <ele>81.5</ele>
        <time>2020-08-12T11:31:22Z</time>
      </trkpt>
      <trkpt lat="48.71386" lon="-2.95886">
        <ele>81.5</ele>
        <time>2020-08-12T11:31:24Z</time>
      </trkpt>
      <trkpt lat="48.71403" lon="-2.95931">
        <ele>80.4</ele>
        <time>2020-08-12T11:31:29Z</time>
      </trkpt>
      <trkpt lat="48.71419" lon="-2.96032">
        <ele>79.2</ele>
        <time>2020-08-12T11:31:38Z</time>
      </trkpt>
      <trkpt lat="48.71418" lon="-2.96083">
        <ele>77.1</ele>
        <time>2020-08-12T11:31:43Z</time>
      </trkpt>
      <trkpt lat="48.71406" lon="-2.96116">
        <ele>74.8</ele>
        <time>2020-08-12T11:31:47Z</time>
      </trkpt>
      <trkpt lat="48.71389" lon="-2.96153">
        <ele>74.1</ele>
        <time>2020-08-12T11:31:51Z</time>
      </trkpt>
      <trkpt lat="48.71375" lon="-2.96231">
        <ele>71.1</ele>
        <time>2020-08-12T11:31:58Z</time>
      </trkpt>
      <trkpt lat="48.71369" lon="-2.9633">
        <ele>67.3</ele>
        <time>2020-08-12T11:32:06Z</time>
      </trkpt>
      <trkpt lat="48.71368" lon="-2.96341">
        <ele>64.6</ele>
        <time>2020-08-12T11:32:07Z</time>
      </trkpt>
      <trkpt lat="48.7138" lon="-2.96389">
        <ele>63.6</ele>
        <time>2020-08-12T11:32:12Z</time>
      </trkpt>
      <trkpt lat="48.71388" lon="-2.96407">
        <ele>63</ele>
        <time>2020-08-12T11:32:15Z</time>
      </trkpt>
      <trkpt lat="48.71385" lon="-2.96424">
        <ele>61.1</ele>
        <time>2020-08-12T11:32:19Z</time>
      </trkpt>
      <trkpt lat="48.71387" lon="-2.96432">
        <ele>61</ele>
        <time>2020-08-12T11:32:23Z</time>
      </trkpt>
      <trkpt lat="48.71387" lon="-2.96432">
        <ele>61</ele>
        <time>2020-08-12T11:32:25Z</time>
      </trkpt>
      <trkpt lat="48.71389" lon="-2.96436">
        <ele>61</ele>
        <time>2020-08-12T11:33:28Z</time>
      </trkpt>
      <trkpt lat="48.71401" lon="-2.96445">
        <ele>60.8</ele>
        <time>2020-08-12T11:33:33Z</time>
      </trkpt>
      <trkpt lat="48.71423" lon="-2.96448">
        <ele>59.5</ele>
        <time>2020-08-12T11:33:40Z</time>
      </trkpt>
      <trkpt lat="48.71447" lon="-2.96446">
        <ele>59.4</ele>
        <time>2020-08-12T11:33:47Z</time>
      </trkpt>
      <trkpt lat="48.71455" lon="-2.96445">
        <ele>59.4</ele>
        <time>2020-08-12T11:33:49Z</time>
      </trkpt>
      <trkpt lat="48.71478" lon="-2.96455">
        <ele>59</ele>
        <time>2020-08-12T11:33:54Z</time>
      </trkpt>
      <trkpt lat="48.71496" lon="-2.96465">
        <ele>58.4</ele>
        <time>2020-08-12T11:33:57Z</time>
      </trkpt>
      <trkpt lat="48.7152" lon="-2.96486">
        <ele>57.8</ele>
        <time>2020-08-12T11:34:01Z</time>
      </trkpt>
      <trkpt lat="48.71531" lon="-2.96501">
        <ele>55.6</ele>
        <time>2020-08-12T11:34:03Z</time>
      </trkpt>
      <trkpt lat="48.71536" lon="-2.9651">
        <ele>55.6</ele>
        <time>2020-08-12T11:34:04Z</time>
      </trkpt>
      <trkpt lat="48.71566" lon="-2.96538">
        <ele>55.6</ele>
        <time>2020-08-12T11:34:08Z</time>
      </trkpt>
      <trkpt lat="48.71593" lon="-2.96555">
        <ele>53.5</ele>
        <time>2020-08-12T11:34:11Z</time>
      </trkpt>
      <trkpt lat="48.7163" lon="-2.96558">
        <ele>52.4</ele>
        <time>2020-08-12T11:34:15Z</time>
      </trkpt>
      <trkpt lat="48.71639" lon="-2.96554">
        <ele>52.2</ele>
        <time>2020-08-12T11:34:16Z</time>
      </trkpt>
      <trkpt lat="48.71684" lon="-2.96529">
        <ele>51.5</ele>
        <time>2020-08-12T11:34:22Z</time>
      </trkpt>
      <trkpt lat="48.7173" lon="-2.96507">
        <ele>51.2</ele>
        <time>2020-08-12T11:34:29Z</time>
      </trkpt>
      <trkpt lat="48.71766" lon="-2.96494">
        <ele>53.3</ele>
        <time>2020-08-12T11:34:35Z</time>
      </trkpt>
      <trkpt lat="48.71793" lon="-2.96488">
        <ele>53.8</ele>
        <time>2020-08-12T11:34:39Z</time>
      </trkpt>
      <trkpt lat="48.7184" lon="-2.96486">
        <ele>49</ele>
        <time>2020-08-12T11:34:45Z</time>
      </trkpt>
      <trkpt lat="48.71884" lon="-2.9647">
        <ele>50</ele>
        <time>2020-08-12T11:34:51Z</time>
      </trkpt>
      <trkpt lat="48.71923" lon="-2.96442">
        <ele>49.1</ele>
        <time>2020-08-12T11:34:57Z</time>
      </trkpt>
      <trkpt lat="48.71958" lon="-2.96408">
        <ele>51.5</ele>
        <time>2020-08-12T11:35:03Z</time>
      </trkpt>
      <trkpt lat="48.71997" lon="-2.96359">
        <ele>52.2</ele>
        <time>2020-08-12T11:35:10Z</time>
      </trkpt>
      <trkpt lat="48.72023" lon="-2.96327">
        <ele>53.1</ele>
        <time>2020-08-12T11:35:14Z</time>
      </trkpt>
      <trkpt lat="48.72048" lon="-2.96303">
        <ele>53.3</ele>
        <time>2020-08-12T11:35:17Z</time>
      </trkpt>
      <trkpt lat="48.721" lon="-2.96258">
        <ele>50</ele>
        <time>2020-08-12T11:35:23Z</time>
      </trkpt>
      <trkpt lat="48.72139" lon="-2.96219">
        <ele>49.1</ele>
        <time>2020-08-12T11:35:28Z</time>
      </trkpt>
      <trkpt lat="48.72174" lon="-2.9618">
        <ele>45.2</ele>
        <time>2020-08-12T11:35:33Z</time>
      </trkpt>
      <trkpt lat="48.72212" lon="-2.96128">
        <ele>45.7</ele>
        <time>2020-08-12T11:35:40Z</time>
      </trkpt>
      <trkpt lat="48.72232" lon="-2.96097">
        <ele>44.4</ele>
        <time>2020-08-12T11:35:44Z</time>
      </trkpt>
      <trkpt lat="48.72272" lon="-2.96039">
        <ele>45.3</ele>
        <time>2020-08-12T11:35:52Z</time>
      </trkpt>
      <trkpt lat="48.7228" lon="-2.96024">
        <ele>45.6</ele>
        <time>2020-08-12T11:35:54Z</time>
      </trkpt>
      <trkpt lat="48.7231" lon="-2.95982">
        <ele>46.4</ele>
        <time>2020-08-12T11:36:00Z</time>
      </trkpt>
      <trkpt lat="48.72338" lon="-2.95947">
        <ele>42</ele>
        <time>2020-08-12T11:36:05Z</time>
      </trkpt>
      <trkpt lat="48.72369" lon="-2.95924">
        <ele>41.4</ele>
        <time>2020-08-12T11:36:10Z</time>
      </trkpt>
      <trkpt lat="48.72422" lon="-2.95906">
        <ele>36.6</ele>
        <time>2020-08-12T11:36:17Z</time>
      </trkpt>
      <trkpt lat="48.72468" lon="-2.95886">
        <ele>37.1</ele>
        <time>2020-08-12T11:36:23Z</time>
      </trkpt>
      <trkpt lat="48.72512" lon="-2.95849">
        <ele>34</ele>
        <time>2020-08-12T11:36:30Z</time>
      </trkpt>
      <trkpt lat="48.72529" lon="-2.9583">
        <ele>35.7</ele>
        <time>2020-08-12T11:36:33Z</time>
      </trkpt>
      <trkpt lat="48.72558" lon="-2.95802">
        <ele>34.7</ele>
        <time>2020-08-12T11:36:38Z</time>
      </trkpt>
      <trkpt lat="48.72597" lon="-2.95756">
        <ele>29.6</ele>
        <time>2020-08-12T11:36:44Z</time>
      </trkpt>
      <trkpt lat="48.72629" lon="-2.95698">
        <ele>29.2</ele>
        <time>2020-08-12T11:36:50Z</time>
      </trkpt>
      <trkpt lat="48.7265" lon="-2.95642">
        <ele>29.1</ele>
        <time>2020-08-12T11:36:55Z</time>
      </trkpt>
      <trkpt lat="48.72656" lon="-2.95585">
        <ele>28</ele>
        <time>2020-08-12T11:37:00Z</time>
      </trkpt>
      <trkpt lat="48.72656" lon="-2.95495">
        <ele>25.8</ele>
        <time>2020-08-12T11:37:08Z</time>
      </trkpt>
      <trkpt lat="48.72666" lon="-2.95425">
        <ele>22.7</ele>
        <time>2020-08-12T11:37:15Z</time>
      </trkpt>
      <trkpt lat="48.72681" lon="-2.95364">
        <ele>26.9</ele>
        <time>2020-08-12T11:37:22Z</time>
      </trkpt>
      <trkpt lat="48.72702" lon="-2.95282">
        <ele>24.3</ele>
        <time>2020-08-12T11:37:31Z</time>
      </trkpt>
      <trkpt lat="48.72725" lon="-2.95207">
        <ele>22.4</ele>
        <time>2020-08-12T11:37:40Z</time>
      </trkpt>
      <trkpt lat="48.72741" lon="-2.95148">
        <ele>19.5</ele>
        <time>2020-08-12T11:37:47Z</time>
      </trkpt>
      <trkpt lat="48.72755" lon="-2.95085">
        <ele>12.2</ele>
        <time>2020-08-12T11:37:55Z</time>
      </trkpt>
      <trkpt lat="48.72761" lon="-2.9506">
        <ele>13.1</ele>
        <time>2020-08-12T11:37:59Z</time>
      </trkpt>
      <trkpt lat="48.72766" lon="-2.95044">
        <ele>13.8</ele>
        <time>2020-08-12T11:38:04Z</time>
      </trkpt>
      <trkpt lat="48.72769" lon="-2.95021">
        <ele>13.7</ele>
        <time>2020-08-12T11:38:10Z</time>
      </trkpt>
      <trkpt lat="48.72775" lon="-2.94977">
        <ele>17.3</ele>
        <time>2020-08-12T11:38:18Z</time>
      </trkpt>
      <trkpt lat="48.72771" lon="-2.94937">
        <ele>17.6</ele>
        <time>2020-08-12T11:38:25Z</time>
      </trkpt>
      <trkpt lat="48.72768" lon="-2.94926">
        <ele>16.6</ele>
        <time>2020-08-12T11:38:27Z</time>
      </trkpt>
      <trkpt lat="48.7276" lon="-2.94904">
        <ele>18.7</ele>
        <time>2020-08-12T11:38:31Z</time>
      </trkpt>
      <trkpt lat="48.72746" lon="-2.94883">
        <ele>12.7</ele>
        <time>2020-08-12T11:38:36Z</time>
      </trkpt>
      <trkpt lat="48.72732" lon="-2.94861">
        <ele>13.3</ele>
        <time>2020-08-12T11:38:43Z</time>
      </trkpt>
      <trkpt lat="48.72722" lon="-2.94845">
        <ele>13.3</ele>
        <time>2020-08-12T11:38:50Z</time>
      </trkpt>
      <trkpt lat="48.72721" lon="-2.94842">
        <ele>13.3</ele>
        <time>2020-08-12T11:38:52Z</time>
      </trkpt>
      <trkpt lat="48.72717" lon="-2.9484">
        <ele>13.1</ele>
        <time>2020-08-12T11:38:57Z</time>
      </trkpt>
      <trkpt lat="48.72719" lon="-2.94835">
        <ele>13.2</ele>
        <time>2020-08-12T11:39:27Z</time>
      </trkpt>
      <trkpt lat="48.72719" lon="-2.94835">
        <ele>13.2</ele>
        <time>2020-08-12T11:39:29Z</time>
      </trkpt>
      <trkpt lat="48.72725" lon="-2.94835">
        <ele>13.6</ele>
        <time>2020-08-12T12:22:58Z</time>
      </trkpt>
      <trkpt lat="48.72726" lon="-2.94834">
        <ele>13.7</ele>
        <time>2020-08-12T12:23:00Z</time>
      </trkpt>
      <trkpt lat="48.72733" lon="-2.94824">
        <ele>14.6</ele>
        <time>2020-08-12T12:23:12Z</time>
      </trkpt>
      <trkpt lat="48.72733" lon="-2.94823">
        <ele>14.6</ele>
        <time>2020-08-12T12:23:14Z</time>
      </trkpt>
      <trkpt lat="48.72734" lon="-2.94815">
        <ele>14.5</ele>
        <time>2020-08-12T12:23:21Z</time>
      </trkpt>
      <trkpt lat="48.72735" lon="-2.94795">
        <ele>14.8</ele>
        <time>2020-08-12T12:23:29Z</time>
      </trkpt>
      <trkpt lat="48.72735" lon="-2.94774">
        <ele>16</ele>
        <time>2020-08-12T12:23:38Z</time>
      </trkpt>
      <trkpt lat="48.72734" lon="-2.94772">
        <ele>16</ele>
        <time>2020-08-12T12:23:41Z</time>
      </trkpt>
      <trkpt lat="48.72733" lon="-2.94771">
        <ele>16</ele>
        <time>2020-08-12T12:23:48Z</time>
      </trkpt>
      <trkpt lat="48.72733" lon="-2.94771">
        <ele>16</ele>
        <time>2020-08-12T12:23:49Z</time>
      </trkpt>
      <trkpt lat="48.72734" lon="-2.94775">
        <ele>15.8</ele>
        <time>2020-08-12T12:34:52Z</time>
      </trkpt>
      <trkpt lat="48.72734" lon="-2.94789">
        <ele>15</ele>
        <time>2020-08-12T12:35:09Z</time>
      </trkpt>
      <trkpt lat="48.72733" lon="-2.94813">
        <ele>14.5</ele>
        <time>2020-08-12T12:35:19Z</time>
      </trkpt>
      <trkpt lat="48.72732" lon="-2.94828">
        <ele>14.6</ele>
        <time>2020-08-12T12:35:26Z</time>
      </trkpt>
      <trkpt lat="48.72735" lon="-2.94842">
        <ele>14.1</ele>
        <time>2020-08-12T12:35:32Z</time>
      </trkpt>
      <trkpt lat="48.72742" lon="-2.94855">
        <ele>13.8</ele>
        <time>2020-08-12T12:35:38Z</time>
      </trkpt>
      <trkpt lat="48.72747" lon="-2.94865">
        <ele>13.4</ele>
        <time>2020-08-12T12:35:43Z</time>
      </trkpt>
      <trkpt lat="48.72752" lon="-2.9488">
        <ele>21.9</ele>
        <time>2020-08-12T12:35:49Z</time>
      </trkpt>
      <trkpt lat="48.72753" lon="-2.94886">
        <ele>21.4</ele>
        <time>2020-08-12T12:35:51Z</time>
      </trkpt>
      <trkpt lat="48.72765" lon="-2.94908">
        <ele>19.2</ele>
        <time>2020-08-12T12:36:00Z</time>
      </trkpt>
      <trkpt lat="48.72775" lon="-2.94933">
        <ele>18.1</ele>
        <time>2020-08-12T12:36:09Z</time>
      </trkpt>
      <trkpt lat="48.7278" lon="-2.94957">
        <ele>18.7</ele>
        <time>2020-08-12T12:36:17Z</time>
      </trkpt>
      <trkpt lat="48.72779" lon="-2.94987">
        <ele>17.3</ele>
        <time>2020-08-12T12:36:25Z</time>
      </trkpt>
      <trkpt lat="48.72773" lon="-2.95019">
        <ele>13.9</ele>
        <time>2020-08-12T12:36:33Z</time>
      </trkpt>
      <trkpt lat="48.7277" lon="-2.95032">
        <ele>14</ele>
        <time>2020-08-12T12:36:36Z</time>
      </trkpt>
      <trkpt lat="48.72777" lon="-2.95039">
        <ele>14.4</ele>
        <time>2020-08-12T12:36:40Z</time>
      </trkpt>
      <trkpt lat="48.72798" lon="-2.95045">
        <ele>15.6</ele>
        <time>2020-08-12T12:36:49Z</time>
      </trkpt>
      <trkpt lat="48.72814" lon="-2.95047">
        <ele>16.4</ele>
        <time>2020-08-12T12:36:56Z</time>
      </trkpt>
      <trkpt lat="48.72834" lon="-2.95049">
        <ele>21.1</ele>
        <time>2020-08-12T12:37:05Z</time>
      </trkpt>
      <trkpt lat="48.7285" lon="-2.95048">
        <ele>21.3</ele>
        <time>2020-08-12T12:37:13Z</time>
      </trkpt>
      <trkpt lat="48.72873" lon="-2.95041">
        <ele>22</ele>
        <time>2020-08-12T12:37:25Z</time>
      </trkpt>
      <trkpt lat="48.72893" lon="-2.95037">
        <ele>22.4</ele>
        <time>2020-08-12T12:37:36Z</time>
      </trkpt>
      <trkpt lat="48.72901" lon="-2.95031">
        <ele>22.7</ele>
        <time>2020-08-12T12:37:42Z</time>
      </trkpt>
      <trkpt lat="48.72913" lon="-2.95022">
        <ele>23.3</ele>
        <time>2020-08-12T12:37:52Z</time>
      </trkpt>
      <trkpt lat="48.7292" lon="-2.95012">
        <ele>27.6</ele>
        <time>2020-08-12T12:38:00Z</time>
      </trkpt>
      <trkpt lat="48.72926" lon="-2.95002">
        <ele>27.4</ele>
        <time>2020-08-12T12:38:08Z</time>
      </trkpt>
      <trkpt lat="48.72931" lon="-2.94989">
        <ele>32.4</ele>
        <time>2020-08-12T12:38:18Z</time>
      </trkpt>
      <trkpt lat="48.72935" lon="-2.94978">
        <ele>34.8</ele>
        <time>2020-08-12T12:38:26Z</time>
      </trkpt>
      <trkpt lat="48.72939" lon="-2.94964">
        <ele>36.8</ele>
        <time>2020-08-12T12:38:35Z</time>
      </trkpt>
      <trkpt lat="48.72945" lon="-2.94952">
        <ele>38.1</ele>
        <time>2020-08-12T12:38:44Z</time>
      </trkpt>
      <trkpt lat="48.72947" lon="-2.9494">
        <ele>38.8</ele>
        <time>2020-08-12T12:38:52Z</time>
      </trkpt>
      <trkpt lat="48.72948" lon="-2.94933">
        <ele>39</ele>
        <time>2020-08-12T12:38:56Z</time>
      </trkpt>
      <trkpt lat="48.7295" lon="-2.94919">
        <ele>39.5</ele>
        <time>2020-08-12T12:39:05Z</time>
      </trkpt>
      <trkpt lat="48.72952" lon="-2.94905">
        <ele>44.5</ele>
        <time>2020-08-12T12:39:14Z</time>
      </trkpt>
      <trkpt lat="48.72951" lon="-2.94904">
        <ele>44.4</ele>
        <time>2020-08-12T12:39:15Z</time>
      </trkpt>
      <trkpt lat="48.72949" lon="-2.94893">
        <ele>44.8</ele>
        <time>2020-08-12T12:39:22Z</time>
      </trkpt>
      <trkpt lat="48.72946" lon="-2.94883">
        <ele>45.2</ele>
        <time>2020-08-12T12:39:29Z</time>
      </trkpt>
      <trkpt lat="48.72946" lon="-2.94873">
        <ele>45.8</ele>
        <time>2020-08-12T12:39:35Z</time>
      </trkpt>
      <trkpt lat="48.72945" lon="-2.9487">
        <ele>46</ele>
        <time>2020-08-12T12:39:37Z</time>
      </trkpt>
      <trkpt lat="48.72941" lon="-2.94857">
        <ele>46.5</ele>
        <time>2020-08-12T12:39:46Z</time>
      </trkpt>
      <trkpt lat="48.72942" lon="-2.94853">
        <ele>46.7</ele>
        <time>2020-08-12T12:39:49Z</time>
      </trkpt>
      <trkpt lat="48.72941" lon="-2.94847">
        <ele>46.9</ele>
        <time>2020-08-12T12:39:53Z</time>
      </trkpt>
      <trkpt lat="48.72941" lon="-2.94841">
        <ele>47.1</ele>
        <time>2020-08-12T12:39:57Z</time>
      </trkpt>
      <trkpt lat="48.7294" lon="-2.94824">
        <ele>51.6</ele>
        <time>2020-08-12T12:40:08Z</time>
      </trkpt>
      <trkpt lat="48.72939" lon="-2.94823">
        <ele>51.5</ele>
        <time>2020-08-12T12:40:09Z</time>
      </trkpt>
      <trkpt lat="48.7294" lon="-2.94809">
        <ele>52.4</ele>
        <time>2020-08-12T12:40:18Z</time>
      </trkpt>
      <trkpt lat="48.72944" lon="-2.94792">
        <ele>53.4</ele>
        <time>2020-08-12T12:40:29Z</time>
      </trkpt>
      <trkpt lat="48.72949" lon="-2.94781">
        <ele>54.1</ele>
        <time>2020-08-12T12:40:37Z</time>
      </trkpt>
      <trkpt lat="48.7295" lon="-2.94768">
        <ele>54.6</ele>
        <time>2020-08-12T12:40:45Z</time>
      </trkpt>
      <trkpt lat="48.72954" lon="-2.94755">
        <ele>55</ele>
        <time>2020-08-12T12:40:54Z</time>
      </trkpt>
      <trkpt lat="48.72959" lon="-2.94742">
        <ele>59.2</ele>
        <time>2020-08-12T12:41:03Z</time>
      </trkpt>
      <trkpt lat="48.72961" lon="-2.94733">
        <ele>59.4</ele>
        <time>2020-08-12T12:41:09Z</time>
      </trkpt>
      <trkpt lat="48.72963" lon="-2.94716">
        <ele>59.8</ele>
        <time>2020-08-12T12:41:19Z</time>
      </trkpt>
      <trkpt lat="48.72968" lon="-2.94697">
        <ele>60.3</ele>
        <time>2020-08-12T12:41:31Z</time>
      </trkpt>
      <trkpt lat="48.72969" lon="-2.94693">
        <ele>60.4</ele>
        <time>2020-08-12T12:41:34Z</time>
      </trkpt>
      <trkpt lat="48.72974" lon="-2.94686">
        <ele>60.5</ele>
        <time>2020-08-12T12:41:40Z</time>
      </trkpt>
      <trkpt lat="48.72974" lon="-2.94683">
        <ele>60.5</ele>
        <time>2020-08-12T12:41:42Z</time>
      </trkpt>
      <trkpt lat="48.72976" lon="-2.94674">
        <ele>60.7</ele>
        <time>2020-08-12T12:41:47Z</time>
      </trkpt>
      <trkpt lat="48.72979" lon="-2.94663">
        <ele>63.2</ele>
        <time>2020-08-12T12:41:54Z</time>
      </trkpt>
      <trkpt lat="48.72984" lon="-2.94651">
        <ele>63.3</ele>
        <time>2020-08-12T12:42:03Z</time>
      </trkpt>
      <trkpt lat="48.72989" lon="-2.94641">
        <ele>63.7</ele>
        <time>2020-08-12T12:42:11Z</time>
      </trkpt>
      <trkpt lat="48.72995" lon="-2.94635">
        <ele>63.9</ele>
        <time>2020-08-12T12:42:17Z</time>
      </trkpt>
      <trkpt lat="48.73004" lon="-2.94632">
        <ele>64.5</ele>
        <time>2020-08-12T12:42:26Z</time>
      </trkpt>
      <trkpt lat="48.73015" lon="-2.94627">
        <ele>64.9</ele>
        <time>2020-08-12T12:42:35Z</time>
      </trkpt>
      <trkpt lat="48.73023" lon="-2.94628">
        <ele>65.1</ele>
        <time>2020-08-12T12:42:42Z</time>
      </trkpt>
      <trkpt lat="48.73033" lon="-2.94623">
        <ele>65.5</ele>
        <time>2020-08-12T12:42:51Z</time>
      </trkpt>
      <trkpt lat="48.73042" lon="-2.94617">
        <ele>65.8</ele>
        <time>2020-08-12T12:42:59Z</time>
      </trkpt>
      <trkpt lat="48.7305" lon="-2.94603">
        <ele>66</ele>
        <time>2020-08-12T12:43:08Z</time>
      </trkpt>
      <trkpt lat="48.73057" lon="-2.94594">
        <ele>66.2</ele>
        <time>2020-08-12T12:43:16Z</time>
      </trkpt>
      <trkpt lat="48.73054" lon="-2.94588">
        <ele>66.1</ele>
        <time>2020-08-12T12:43:22Z</time>
      </trkpt>
      <trkpt lat="48.73053" lon="-2.94587">
        <ele>66.1</ele>
        <time>2020-08-12T12:43:24Z</time>
      </trkpt>
      <trkpt lat="48.73043" lon="-2.94586">
        <ele>65.9</ele>
        <time>2020-08-12T12:43:33Z</time>
      </trkpt>
      <trkpt lat="48.73019" lon="-2.94575">
        <ele>67.4</ele>
        <time>2020-08-12T12:43:41Z</time>
      </trkpt>
      <trkpt lat="48.73001" lon="-2.94569">
        <ele>67</ele>
        <time>2020-08-12T12:43:47Z</time>
      </trkpt>
      <trkpt lat="48.72984" lon="-2.94561">
        <ele>68.8</ele>
        <time>2020-08-12T12:43:56Z</time>
      </trkpt>
      <trkpt lat="48.72968" lon="-2.94556">
        <ele>69.6</ele>
        <time>2020-08-12T12:44:05Z</time>
      </trkpt>
      <trkpt lat="48.72958" lon="-2.94552">
        <ele>69.9</ele>
        <time>2020-08-12T12:44:12Z</time>
      </trkpt>
      <trkpt lat="48.72942" lon="-2.94546">
        <ele>70.2</ele>
        <time>2020-08-12T12:44:22Z</time>
      </trkpt>
      <trkpt lat="48.72923" lon="-2.94539">
        <ele>70.4</ele>
        <time>2020-08-12T12:44:32Z</time>
      </trkpt>
      <trkpt lat="48.72906" lon="-2.94533">
        <ele>62.7</ele>
        <time>2020-08-12T12:44:41Z</time>
      </trkpt>
      <trkpt lat="48.72895" lon="-2.94522">
        <ele>61.9</ele>
        <time>2020-08-12T12:44:47Z</time>
      </trkpt>
      <trkpt lat="48.72888" lon="-2.9451">
        <ele>61</ele>
        <time>2020-08-12T12:44:53Z</time>
      </trkpt>
      <trkpt lat="48.72888" lon="-2.94509">
        <ele>61</ele>
        <time>2020-08-12T12:44:54Z</time>
      </trkpt>
      <trkpt lat="48.72887" lon="-2.94505">
        <ele>60.8</ele>
        <time>2020-08-12T12:50:49Z</time>
      </trkpt>
      <trkpt lat="48.72895" lon="-2.94503">
        <ele>62.9</ele>
        <time>2020-08-12T12:51:00Z</time>
      </trkpt>
      <trkpt lat="48.729" lon="-2.94487">
        <ele>59.6</ele>
        <time>2020-08-12T12:51:06Z</time>
      </trkpt>
      <trkpt lat="48.72911" lon="-2.9446">
        <ele>57</ele>
        <time>2020-08-12T12:51:12Z</time>
      </trkpt>
      <trkpt lat="48.72928" lon="-2.94417">
        <ele>66.8</ele>
        <time>2020-08-12T12:51:19Z</time>
      </trkpt>
      <trkpt lat="48.72944" lon="-2.94388">
        <ele>61.9</ele>
        <time>2020-08-12T12:51:24Z</time>
      </trkpt>
      <trkpt lat="48.72969" lon="-2.94367">
        <ele>61.3</ele>
        <time>2020-08-12T12:51:29Z</time>
      </trkpt>
      <trkpt lat="48.72975" lon="-2.94367">
        <ele>61.6</ele>
        <time>2020-08-12T12:51:30Z</time>
      </trkpt>
      <trkpt lat="48.73018" lon="-2.94378">
        <ele>68.7</ele>
        <time>2020-08-12T12:51:36Z</time>
      </trkpt>
      <trkpt lat="48.73034" lon="-2.94384">
        <ele>69.4</ele>
        <time>2020-08-12T12:51:38Z</time>
      </trkpt>
      <trkpt lat="48.73065" lon="-2.9438">
        <ele>69.5</ele>
        <time>2020-08-12T12:51:42Z</time>
      </trkpt>
      <trkpt lat="48.73086" lon="-2.94357">
        <ele>69.6</ele>
        <time>2020-08-12T12:51:46Z</time>
      </trkpt>
      <trkpt lat="48.73095" lon="-2.94334">
        <ele>68.5</ele>
        <time>2020-08-12T12:51:50Z</time>
      </trkpt>
      <trkpt lat="48.73096" lon="-2.94329">
        <ele>68</ele>
        <time>2020-08-12T12:51:51Z</time>
      </trkpt>
      <trkpt lat="48.731" lon="-2.94302">
        <ele>68.4</ele>
        <time>2020-08-12T12:51:58Z</time>
      </trkpt>
      <trkpt lat="48.731" lon="-2.9428">
        <ele>67.9</ele>
        <time>2020-08-12T12:52:05Z</time>
      </trkpt>
      <trkpt lat="48.73102" lon="-2.94272">
        <ele>67.6</ele>
        <time>2020-08-12T12:52:08Z</time>
      </trkpt>
      <trkpt lat="48.73101" lon="-2.9426">
        <ele>66.9</ele>
        <time>2020-08-12T12:52:13Z</time>
      </trkpt>
      <trkpt lat="48.73104" lon="-2.94238">
        <ele>65.9</ele>
        <time>2020-08-12T12:52:21Z</time>
      </trkpt>
      <trkpt lat="48.7311" lon="-2.94225">
        <ele>66.4</ele>
        <time>2020-08-12T12:52:27Z</time>
      </trkpt>
      <trkpt lat="48.73114" lon="-2.94205">
        <ele>66.3</ele>
        <time>2020-08-12T12:52:33Z</time>
      </trkpt>
      <trkpt lat="48.73125" lon="-2.94168">
        <ele>66.7</ele>
        <time>2020-08-12T12:52:44Z</time>
      </trkpt>
      <trkpt lat="48.73136" lon="-2.94136">
        <ele>63.5</ele>
        <time>2020-08-12T12:52:53Z</time>
      </trkpt>
      <trkpt lat="48.73143" lon="-2.94109">
        <ele>63.5</ele>
        <time>2020-08-12T12:53:00Z</time>
      </trkpt>
      <trkpt lat="48.73158" lon="-2.94059">
        <ele>60</ele>
        <time>2020-08-12T12:53:11Z</time>
      </trkpt>
      <trkpt lat="48.73174" lon="-2.94015">
        <ele>67</ele>
        <time>2020-08-12T12:53:20Z</time>
      </trkpt>
      <trkpt lat="48.7318" lon="-2.94007">
        <ele>66.9</ele>
        <time>2020-08-12T12:53:22Z</time>
      </trkpt>
      <trkpt lat="48.73205" lon="-2.93986">
        <ele>64.4</ele>
        <time>2020-08-12T12:53:28Z</time>
      </trkpt>
      <trkpt lat="48.73211" lon="-2.93983">
        <ele>64.5</ele>
        <time>2020-08-12T12:53:29Z</time>
      </trkpt>
      <trkpt lat="48.73253" lon="-2.93972">
        <ele>67.6</ele>
        <time>2020-08-12T12:53:35Z</time>
      </trkpt>
      <trkpt lat="48.73294" lon="-2.93953">
        <ele>67.4</ele>
        <time>2020-08-12T12:53:40Z</time>
      </trkpt>
      <trkpt lat="48.73327" lon="-2.93928">
        <ele>67.2</ele>
        <time>2020-08-12T12:53:45Z</time>
      </trkpt>
      <trkpt lat="48.73349" lon="-2.93911">
        <ele>65.6</ele>
        <time>2020-08-12T12:53:50Z</time>
      </trkpt>
      <trkpt lat="48.73382" lon="-2.93888">
        <ele>65</ele>
        <time>2020-08-12T12:53:58Z</time>
      </trkpt>
      <trkpt lat="48.73408" lon="-2.9387">
        <ele>64.7</ele>
        <time>2020-08-12T12:54:02Z</time>
      </trkpt>
      <trkpt lat="48.73456" lon="-2.93836">
        <ele>67.9</ele>
        <time>2020-08-12T12:54:08Z</time>
      </trkpt>
      <trkpt lat="48.73491" lon="-2.9381">
        <ele>61.9</ele>
        <time>2020-08-12T12:54:13Z</time>
      </trkpt>
      <trkpt lat="48.73526" lon="-2.93785">
        <ele>67.3</ele>
        <time>2020-08-12T12:54:19Z</time>
      </trkpt>
      <trkpt lat="48.73545" lon="-2.9377">
        <ele>67.9</ele>
        <time>2020-08-12T12:54:24Z</time>
      </trkpt>
      <trkpt lat="48.73558" lon="-2.93762">
        <ele>68.7</ele>
        <time>2020-08-12T12:54:30Z</time>
      </trkpt>
      <trkpt lat="48.73569" lon="-2.93752">
        <ele>69.6</ele>
        <time>2020-08-12T12:54:37Z</time>
      </trkpt>
      <trkpt lat="48.73579" lon="-2.93746">
        <ele>68.1</ele>
        <time>2020-08-12T12:54:43Z</time>
      </trkpt>
      <trkpt lat="48.73593" lon="-2.93735">
        <ele>70.1</ele>
        <time>2020-08-12T12:54:52Z</time>
      </trkpt>
      <trkpt lat="48.73612" lon="-2.93723">
        <ele>69.7</ele>
        <time>2020-08-12T12:55:03Z</time>
      </trkpt>
      <trkpt lat="48.73625" lon="-2.93713">
        <ele>69.7</ele>
        <time>2020-08-12T12:55:11Z</time>
      </trkpt>
      <trkpt lat="48.7364" lon="-2.93702">
        <ele>69.8</ele>
        <time>2020-08-12T12:55:19Z</time>
      </trkpt>
      <trkpt lat="48.73653" lon="-2.93692">
        <ele>69.9</ele>
        <time>2020-08-12T12:55:26Z</time>
      </trkpt>
      <trkpt lat="48.73657" lon="-2.9369">
        <ele>69.9</ele>
        <time>2020-08-12T12:55:28Z</time>
      </trkpt>
      <trkpt lat="48.73661" lon="-2.93678">
        <ele>69.8</ele>
        <time>2020-08-12T12:55:33Z</time>
      </trkpt>
      <trkpt lat="48.73662" lon="-2.9366">
        <ele>64.6</ele>
        <time>2020-08-12T12:55:39Z</time>
      </trkpt>
      <trkpt lat="48.73662" lon="-2.93659">
        <ele>64.2</ele>
        <time>2020-08-12T12:55:41Z</time>
      </trkpt>
      <trkpt lat="48.73673" lon="-2.93667">
        <ele>70.5</ele>
        <time>2020-08-12T12:59:24Z</time>
      </trkpt>
      <trkpt lat="48.73682" lon="-2.93668">
        <ele>71</ele>
        <time>2020-08-12T12:59:28Z</time>
      </trkpt>
      <trkpt lat="48.73704" lon="-2.93657">
        <ele>64.8</ele>
        <time>2020-08-12T12:59:36Z</time>
      </trkpt>
      <trkpt lat="48.73727" lon="-2.9365">
        <ele>65.2</ele>
        <time>2020-08-12T12:59:42Z</time>
      </trkpt>
      <trkpt lat="48.73736" lon="-2.9365">
        <ele>65.9</ele>
        <time>2020-08-12T12:59:44Z</time>
      </trkpt>
      <trkpt lat="48.73755" lon="-2.93656">
        <ele>66.9</ele>
        <time>2020-08-12T12:59:48Z</time>
      </trkpt>
      <trkpt lat="48.73769" lon="-2.93666">
        <ele>65.9</ele>
        <time>2020-08-12T12:59:51Z</time>
      </trkpt>
      <trkpt lat="48.73794" lon="-2.93703">
        <ele>70.3</ele>
        <time>2020-08-12T12:59:58Z</time>
      </trkpt>
      <trkpt lat="48.73815" lon="-2.93748">
        <ele>71.3</ele>
        <time>2020-08-12T13:00:06Z</time>
      </trkpt>
      <trkpt lat="48.73839" lon="-2.938">
        <ele>66.9</ele>
        <time>2020-08-12T13:00:15Z</time>
      </trkpt>
      <trkpt lat="48.73846" lon="-2.93815">
        <ele>67.4</ele>
        <time>2020-08-12T13:00:18Z</time>
      </trkpt>
      <trkpt lat="48.73871" lon="-2.93866">
        <ele>64.8</ele>
        <time>2020-08-12T13:00:28Z</time>
      </trkpt>
      <trkpt lat="48.73883" lon="-2.93896">
        <ele>63</ele>
        <time>2020-08-12T13:00:33Z</time>
      </trkpt>
      <trkpt lat="48.73888" lon="-2.93941">
        <ele>57.9</ele>
        <time>2020-08-12T13:00:39Z</time>
      </trkpt>
      <trkpt lat="48.73887" lon="-2.93949">
        <ele>57.7</ele>
        <time>2020-08-12T13:00:40Z</time>
      </trkpt>
      <trkpt lat="48.73877" lon="-2.93984">
        <ele>57</ele>
        <time>2020-08-12T13:00:47Z</time>
      </trkpt>
      <trkpt lat="48.73869" lon="-2.93994">
        <ele>58.2</ele>
        <time>2020-08-12T13:00:51Z</time>
      </trkpt>
      <trkpt lat="48.7386" lon="-2.94009">
        <ele>54.5</ele>
        <time>2020-08-12T13:00:56Z</time>
      </trkpt>
      <trkpt lat="48.73838" lon="-2.94039">
        <ele>54.1</ele>
        <time>2020-08-12T13:01:03Z</time>
      </trkpt>
      <trkpt lat="48.73805" lon="-2.94083">
        <ele>63.6</ele>
        <time>2020-08-12T13:01:13Z</time>
      </trkpt>
      <trkpt lat="48.73786" lon="-2.94107">
        <ele>61.1</ele>
        <time>2020-08-12T13:01:20Z</time>
      </trkpt>
      <trkpt lat="48.73772" lon="-2.94125">
        <ele>61.4</ele>
        <time>2020-08-12T13:01:26Z</time>
      </trkpt>
      <trkpt lat="48.73753" lon="-2.9415">
        <ele>62.6</ele>
        <time>2020-08-12T13:01:34Z</time>
      </trkpt>
      <trkpt lat="48.73729" lon="-2.94181">
        <ele>64.8</ele>
        <time>2020-08-12T13:01:43Z</time>
      </trkpt>
      <trkpt lat="48.73707" lon="-2.94212">
        <ele>64.4</ele>
        <time>2020-08-12T13:01:51Z</time>
      </trkpt>
      <trkpt lat="48.73679" lon="-2.9425">
        <ele>65.7</ele>
        <time>2020-08-12T13:02:00Z</time>
      </trkpt>
      <trkpt lat="48.73643" lon="-2.94298">
        <ele>68.6</ele>
        <time>2020-08-12T13:02:10Z</time>
      </trkpt>
      <trkpt lat="48.73607" lon="-2.94346">
        <ele>69.8</ele>
        <time>2020-08-12T13:02:20Z</time>
      </trkpt>
      <trkpt lat="48.73584" lon="-2.94376">
        <ele>69.6</ele>
        <time>2020-08-12T13:02:27Z</time>
      </trkpt>
      <trkpt lat="48.73558" lon="-2.94411">
        <ele>72.9</ele>
        <time>2020-08-12T13:02:36Z</time>
      </trkpt>
      <trkpt lat="48.73542" lon="-2.94443">
        <ele>72.7</ele>
        <time>2020-08-12T13:02:43Z</time>
      </trkpt>
      <trkpt lat="48.73535" lon="-2.94482">
        <ele>72.9</ele>
        <time>2020-08-12T13:02:50Z</time>
      </trkpt>
      <trkpt lat="48.73529" lon="-2.94522">
        <ele>73</ele>
        <time>2020-08-12T13:02:57Z</time>
      </trkpt>
      <trkpt lat="48.73522" lon="-2.94573">
        <ele>72.7</ele>
        <time>2020-08-12T13:03:06Z</time>
      </trkpt>
      <trkpt lat="48.73514" lon="-2.94623">
        <ele>72.5</ele>
        <time>2020-08-12T13:03:15Z</time>
      </trkpt>
      <trkpt lat="48.73506" lon="-2.94672">
        <ele>72.1</ele>
        <time>2020-08-12T13:03:24Z</time>
      </trkpt>
      <trkpt lat="48.73499" lon="-2.94717">
        <ele>72.2</ele>
        <time>2020-08-12T13:03:32Z</time>
      </trkpt>
      <trkpt lat="48.73492" lon="-2.94762">
        <ele>72.4</ele>
        <time>2020-08-12T13:03:40Z</time>
      </trkpt>
      <trkpt lat="48.73494" lon="-2.94784">
        <ele>72.7</ele>
        <time>2020-08-12T13:03:44Z</time>
      </trkpt>
      <trkpt lat="48.73508" lon="-2.94802">
        <ele>72.7</ele>
        <time>2020-08-12T13:03:49Z</time>
      </trkpt>
      <trkpt lat="48.73522" lon="-2.9481">
        <ele>72.8</ele>
        <time>2020-08-12T13:03:54Z</time>
      </trkpt>
      <trkpt lat="48.73541" lon="-2.94816">
        <ele>72.8</ele>
        <time>2020-08-12T13:04:00Z</time>
      </trkpt>
      <trkpt lat="48.73567" lon="-2.94827">
        <ele>72.9</ele>
        <time>2020-08-12T13:04:08Z</time>
      </trkpt>
      <trkpt lat="48.73599" lon="-2.94842">
        <ele>73</ele>
        <time>2020-08-12T13:04:17Z</time>
      </trkpt>
      <trkpt lat="48.73627" lon="-2.94853">
        <ele>73</ele>
        <time>2020-08-12T13:04:24Z</time>
      </trkpt>
      <trkpt lat="48.7366" lon="-2.94867">
        <ele>73</ele>
        <time>2020-08-12T13:04:32Z</time>
      </trkpt>
      <trkpt lat="48.73686" lon="-2.94878">
        <ele>72.6</ele>
        <time>2020-08-12T13:04:39Z</time>
      </trkpt>
      <trkpt lat="48.737" lon="-2.94885">
        <ele>72.6</ele>
        <time>2020-08-12T13:04:44Z</time>
      </trkpt>
      <trkpt lat="48.73724" lon="-2.94894">
        <ele>72.6</ele>
        <time>2020-08-12T13:04:52Z</time>
      </trkpt>
      <trkpt lat="48.73757" lon="-2.94909">
        <ele>72.7</ele>
        <time>2020-08-12T13:05:02Z</time>
      </trkpt>
      <trkpt lat="48.73786" lon="-2.94925">
        <ele>73.6</ele>
        <time>2020-08-12T13:05:09Z</time>
      </trkpt>
      <trkpt lat="48.73824" lon="-2.94948">
        <ele>73.8</ele>
        <time>2020-08-12T13:05:16Z</time>
      </trkpt>
      <trkpt lat="48.73838" lon="-2.94956">
        <ele>74.2</ele>
        <time>2020-08-12T13:05:19Z</time>
      </trkpt>
      <trkpt lat="48.73863" lon="-2.94968">
        <ele>74.3</ele>
        <time>2020-08-12T13:05:26Z</time>
      </trkpt>
      <trkpt lat="48.73887" lon="-2.94985">
        <ele>74.6</ele>
        <time>2020-08-12T13:05:34Z</time>
      </trkpt>
      <trkpt lat="48.73905" lon="-2.94998">
        <ele>75.3</ele>
        <time>2020-08-12T13:05:41Z</time>
      </trkpt>
      <trkpt lat="48.73918" lon="-2.95008">
        <ele>76.4</ele>
        <time>2020-08-12T13:05:47Z</time>
      </trkpt>
      <trkpt lat="48.73929" lon="-2.95018">
        <ele>76.7</ele>
        <time>2020-08-12T13:05:53Z</time>
      </trkpt>
      <trkpt lat="48.73941" lon="-2.95029">
        <ele>77</ele>
        <time>2020-08-12T13:06:00Z</time>
      </trkpt>
      <trkpt lat="48.73954" lon="-2.95045">
        <ele>77.2</ele>
        <time>2020-08-12T13:06:08Z</time>
      </trkpt>
      <trkpt lat="48.73965" lon="-2.95061">
        <ele>77.4</ele>
        <time>2020-08-12T13:06:15Z</time>
      </trkpt>
      <trkpt lat="48.73973" lon="-2.95055">
        <ele>77.4</ele>
        <time>2020-08-12T13:06:19Z</time>
      </trkpt>
      <trkpt lat="48.73979" lon="-2.95048">
        <ele>77.4</ele>
        <time>2020-08-12T13:06:21Z</time>
      </trkpt>
      <trkpt lat="48.73985" lon="-2.95039">
        <ele>77.5</ele>
        <time>2020-08-12T13:06:23Z</time>
      </trkpt>
      <trkpt lat="48.74005" lon="-2.9502">
        <ele>78.2</ele>
        <time>2020-08-12T13:06:29Z</time>
      </trkpt>
      <trkpt lat="48.74019" lon="-2.95015">
        <ele>78.3</ele>
        <time>2020-08-12T13:06:35Z</time>
      </trkpt>
      <trkpt lat="48.74034" lon="-2.95011">
        <ele>78.3</ele>
        <time>2020-08-12T13:06:41Z</time>
      </trkpt>
      <trkpt lat="48.74054" lon="-2.95006">
        <ele>78.3</ele>
        <time>2020-08-12T13:06:48Z</time>
      </trkpt>
      <trkpt lat="48.74081" lon="-2.94999">
        <ele>77.9</ele>
        <time>2020-08-12T13:06:57Z</time>
      </trkpt>
      <trkpt lat="48.74107" lon="-2.94993">
        <ele>76.9</ele>
        <time>2020-08-12T13:07:04Z</time>
      </trkpt>
      <trkpt lat="48.74144" lon="-2.94982">
        <ele>76.2</ele>
        <time>2020-08-12T13:07:13Z</time>
      </trkpt>
      <trkpt lat="48.74175" lon="-2.94975">
        <ele>75.4</ele>
        <time>2020-08-12T13:07:20Z</time>
      </trkpt>
      <trkpt lat="48.74193" lon="-2.94973">
        <ele>75.2</ele>
        <time>2020-08-12T13:07:26Z</time>
      </trkpt>
      <trkpt lat="48.74217" lon="-2.94977">
        <ele>75.1</ele>
        <time>2020-08-12T13:07:33Z</time>
      </trkpt>
      <trkpt lat="48.7422" lon="-2.94977">
        <ele>75</ele>
        <time>2020-08-12T13:07:34Z</time>
      </trkpt>
      <trkpt lat="48.7423" lon="-2.94959">
        <ele>74.9</ele>
        <time>2020-08-12T13:07:38Z</time>
      </trkpt>
      <trkpt lat="48.74233" lon="-2.94946">
        <ele>74.8</ele>
        <time>2020-08-12T13:07:40Z</time>
      </trkpt>
      <trkpt lat="48.74246" lon="-2.94906">
        <ele>73.7</ele>
        <time>2020-08-12T13:07:46Z</time>
      </trkpt>
      <trkpt lat="48.74274" lon="-2.94863">
        <ele>72.6</ele>
        <time>2020-08-12T13:07:53Z</time>
      </trkpt>
      <trkpt lat="48.74309" lon="-2.94818">
        <ele>71.1</ele>
        <time>2020-08-12T13:08:01Z</time>
      </trkpt>
      <trkpt lat="48.74339" lon="-2.94775">
        <ele>71.4</ele>
        <time>2020-08-12T13:08:09Z</time>
      </trkpt>
      <trkpt lat="48.74355" lon="-2.94738">
        <ele>70.5</ele>
        <time>2020-08-12T13:08:16Z</time>
      </trkpt>
      <trkpt lat="48.74361" lon="-2.94698">
        <ele>70.3</ele>
        <time>2020-08-12T13:08:23Z</time>
      </trkpt>
      <trkpt lat="48.74357" lon="-2.94659">
        <ele>69.2</ele>
        <time>2020-08-12T13:08:30Z</time>
      </trkpt>
      <trkpt lat="48.74353" lon="-2.94642">
        <ele>69.3</ele>
        <time>2020-08-12T13:08:33Z</time>
      </trkpt>
      <trkpt lat="48.74333" lon="-2.94586">
        <ele>67.8</ele>
        <time>2020-08-12T13:08:42Z</time>
      </trkpt>
      <trkpt lat="48.74307" lon="-2.94542">
        <ele>65.7</ele>
        <time>2020-08-12T13:08:49Z</time>
      </trkpt>
      <trkpt lat="48.74273" lon="-2.94502">
        <ele>63.7</ele>
        <time>2020-08-12T13:08:57Z</time>
      </trkpt>
      <trkpt lat="48.74265" lon="-2.94493">
        <ele>63.2</ele>
        <time>2020-08-12T13:08:59Z</time>
      </trkpt>
      <trkpt lat="48.74258" lon="-2.94483">
        <ele>63.3</ele>
        <time>2020-08-12T13:09:01Z</time>
      </trkpt>
      <trkpt lat="48.74248" lon="-2.94445">
        <ele>58.3</ele>
        <time>2020-08-12T13:09:06Z</time>
      </trkpt>
      <trkpt lat="48.74252" lon="-2.94407">
        <ele>62.9</ele>
        <time>2020-08-12T13:09:10Z</time>
      </trkpt>
      <trkpt lat="48.74268" lon="-2.94375">
        <ele>62.4</ele>
        <time>2020-08-12T13:09:14Z</time>
      </trkpt>
      <trkpt lat="48.74285" lon="-2.94363">
        <ele>62.1</ele>
        <time>2020-08-12T13:09:19Z</time>
      </trkpt>
      <trkpt lat="48.74287" lon="-2.94362">
        <ele>62.1</ele>
        <time>2020-08-12T13:09:20Z</time>
      </trkpt>
      <trkpt lat="48.74302" lon="-2.94362">
        <ele>62.1</ele>
        <time>2020-08-12T13:09:24Z</time>
      </trkpt>
      <trkpt lat="48.74335" lon="-2.94363">
        <ele>63.2</ele>
        <time>2020-08-12T13:09:30Z</time>
      </trkpt>
      <trkpt lat="48.74363" lon="-2.94365">
        <ele>64</ele>
        <time>2020-08-12T13:09:36Z</time>
      </trkpt>
      <trkpt lat="48.74386" lon="-2.94366">
        <ele>64.6</ele>
        <time>2020-08-12T13:09:43Z</time>
      </trkpt>
      <trkpt lat="48.74419" lon="-2.94368">
        <ele>66.5</ele>
        <time>2020-08-12T13:09:54Z</time>
      </trkpt>
      <trkpt lat="48.74445" lon="-2.94368">
        <ele>66.8</ele>
        <time>2020-08-12T13:10:04Z</time>
      </trkpt>
      <trkpt lat="48.74466" lon="-2.94371">
        <ele>67.2</ele>
        <time>2020-08-12T13:10:12Z</time>
      </trkpt>
      <trkpt lat="48.74484" lon="-2.9437">
        <ele>67.3</ele>
        <time>2020-08-12T13:10:18Z</time>
      </trkpt>
      <trkpt lat="48.74512" lon="-2.94369">
        <ele>68.5</ele>
        <time>2020-08-12T13:10:26Z</time>
      </trkpt>
      <trkpt lat="48.74543" lon="-2.9437">
        <ele>68.9</ele>
        <time>2020-08-12T13:10:35Z</time>
      </trkpt>
      <trkpt lat="48.74573" lon="-2.94359">
        <ele>69.1</ele>
        <time>2020-08-12T13:10:43Z</time>
      </trkpt>
      <trkpt lat="48.74606" lon="-2.94333">
        <ele>68.2</ele>
        <time>2020-08-12T13:10:52Z</time>
      </trkpt>
      <trkpt lat="48.74628" lon="-2.94295">
        <ele>67.7</ele>
        <time>2020-08-12T13:11:00Z</time>
      </trkpt>
      <trkpt lat="48.74633" lon="-2.94285">
        <ele>67.6</ele>
        <time>2020-08-12T13:11:02Z</time>
      </trkpt>
      <trkpt lat="48.74654" lon="-2.94233">
        <ele>63.4</ele>
        <time>2020-08-12T13:11:11Z</time>
      </trkpt>
      <trkpt lat="48.74684" lon="-2.94157">
        <ele>63.3</ele>
        <time>2020-08-12T13:11:23Z</time>
      </trkpt>
      <trkpt lat="48.74709" lon="-2.94096">
        <ele>61.7</ele>
        <time>2020-08-12T13:11:32Z</time>
      </trkpt>
      <trkpt lat="48.74734" lon="-2.94033">
        <ele>54.8</ele>
        <time>2020-08-12T13:11:41Z</time>
      </trkpt>
      <trkpt lat="48.7475" lon="-2.94001">
        <ele>60.2</ele>
        <time>2020-08-12T13:11:46Z</time>
      </trkpt>
      <trkpt lat="48.74786" lon="-2.93965">
        <ele>56.5</ele>
        <time>2020-08-12T13:11:54Z</time>
      </trkpt>
      <trkpt lat="48.74818" lon="-2.93948">
        <ele>56.7</ele>
        <time>2020-08-12T13:12:00Z</time>
      </trkpt>
      <trkpt lat="48.74857" lon="-2.93938">
        <ele>57.5</ele>
        <time>2020-08-12T13:12:07Z</time>
      </trkpt>
      <trkpt lat="48.74908" lon="-2.9393">
        <ele>55.3</ele>
        <time>2020-08-12T13:12:15Z</time>
      </trkpt>
      <trkpt lat="48.74949" lon="-2.93915">
        <ele>51.9</ele>
        <time>2020-08-12T13:12:20Z</time>
      </trkpt>
      <trkpt lat="48.75013" lon="-2.93886">
        <ele>56.5</ele>
        <time>2020-08-12T13:12:27Z</time>
      </trkpt>
      <trkpt lat="48.75065" lon="-2.93861">
        <ele>57.4</ele>
        <time>2020-08-12T13:12:33Z</time>
      </trkpt>
      <trkpt lat="48.75082" lon="-2.93853">
        <ele>57.6</ele>
        <time>2020-08-12T13:12:36Z</time>
      </trkpt>
      <trkpt lat="48.75099" lon="-2.93845">
        <ele>59.5</ele>
        <time>2020-08-12T13:12:41Z</time>
      </trkpt>
      <trkpt lat="48.75113" lon="-2.93839">
        <ele>60</ele>
        <time>2020-08-12T13:12:48Z</time>
      </trkpt>
      <trkpt lat="48.75125" lon="-2.93832">
        <ele>59.4</ele>
        <time>2020-08-12T13:12:55Z</time>
      </trkpt>
      <trkpt lat="48.75132" lon="-2.93827">
        <ele>59.6</ele>
        <time>2020-08-12T13:13:00Z</time>
      </trkpt>
      <trkpt lat="48.75137" lon="-2.93832">
        <ele>59.8</ele>
        <time>2020-08-12T13:13:05Z</time>
      </trkpt>
      <trkpt lat="48.75137" lon="-2.93841">
        <ele>60.9</ele>
        <time>2020-08-12T13:13:09Z</time>
      </trkpt>
      <trkpt lat="48.7514" lon="-2.93851">
        <ele>61</ele>
        <time>2020-08-12T13:13:14Z</time>
      </trkpt>
      <trkpt lat="48.7514" lon="-2.93858">
        <ele>61</ele>
        <time>2020-08-12T13:13:19Z</time>
      </trkpt>
      <trkpt lat="48.75142" lon="-2.93874">
        <ele>61.1</ele>
        <time>2020-08-12T13:13:26Z</time>
      </trkpt>
      <trkpt lat="48.75141" lon="-2.93892">
        <ele>61.3</ele>
        <time>2020-08-12T13:13:31Z</time>
      </trkpt>
      <trkpt lat="48.75138" lon="-2.93929">
        <ele>61.6</ele>
        <time>2020-08-12T13:13:39Z</time>
      </trkpt>
      <trkpt lat="48.75135" lon="-2.93966">
        <ele>61.4</ele>
        <time>2020-08-12T13:13:46Z</time>
      </trkpt>
      <trkpt lat="48.75132" lon="-2.94003">
        <ele>61.3</ele>
        <time>2020-08-12T13:13:53Z</time>
      </trkpt>
      <trkpt lat="48.75131" lon="-2.94034">
        <ele>61.3</ele>
        <time>2020-08-12T13:13:59Z</time>
      </trkpt>
      <trkpt lat="48.75135" lon="-2.94077">
        <ele>61.6</ele>
        <time>2020-08-12T13:14:06Z</time>
      </trkpt>
      <trkpt lat="48.75144" lon="-2.94108">
        <ele>62.1</ele>
        <time>2020-08-12T13:14:12Z</time>
      </trkpt>
      <trkpt lat="48.75163" lon="-2.94147">
        <ele>62.8</ele>
        <time>2020-08-12T13:14:21Z</time>
      </trkpt>
      <trkpt lat="48.75175" lon="-2.94193">
        <ele>63.6</ele>
        <time>2020-08-12T13:14:29Z</time>
      </trkpt>
      <trkpt lat="48.75187" lon="-2.94244">
        <ele>63.5</ele>
        <time>2020-08-12T13:14:38Z</time>
      </trkpt>
      <trkpt lat="48.7519" lon="-2.94278">
        <ele>62.8</ele>
        <time>2020-08-12T13:14:45Z</time>
      </trkpt>
      <trkpt lat="48.75179" lon="-2.94291">
        <ele>62.8</ele>
        <time>2020-08-12T13:14:49Z</time>
      </trkpt>
      <trkpt lat="48.75151" lon="-2.94315">
        <ele>63.5</ele>
        <time>2020-08-12T13:14:58Z</time>
      </trkpt>
      <trkpt lat="48.75131" lon="-2.94334">
        <ele>64</ele>
        <time>2020-08-12T13:15:05Z</time>
      </trkpt>
      <trkpt lat="48.7512" lon="-2.9435">
        <ele>64.3</ele>
        <time>2020-08-12T13:15:11Z</time>
      </trkpt>
      <trkpt lat="48.7511" lon="-2.94367">
        <ele>64.4</ele>
        <time>2020-08-12T13:15:18Z</time>
      </trkpt>
      <trkpt lat="48.75094" lon="-2.94389">
        <ele>64.5</ele>
        <time>2020-08-12T13:15:27Z</time>
      </trkpt>
      <trkpt lat="48.75076" lon="-2.94405">
        <ele>64.5</ele>
        <time>2020-08-12T13:15:35Z</time>
      </trkpt>
      <trkpt lat="48.75054" lon="-2.94425">
        <ele>64</ele>
        <time>2020-08-12T13:15:42Z</time>
      </trkpt>
      <trkpt lat="48.75019" lon="-2.94457">
        <ele>63.6</ele>
        <time>2020-08-12T13:15:51Z</time>
      </trkpt>
      <trkpt lat="48.74993" lon="-2.9449">
        <ele>63.6</ele>
        <time>2020-08-12T13:15:59Z</time>
      </trkpt>
      <trkpt lat="48.74976" lon="-2.94512">
        <ele>63.6</ele>
        <time>2020-08-12T13:16:06Z</time>
      </trkpt>
      <trkpt lat="48.74974" lon="-2.94513">
        <ele>63.6</ele>
        <time>2020-08-12T13:16:08Z</time>
      </trkpt>
      <trkpt lat="48.74976" lon="-2.94513">
        <ele>63.6</ele>
        <time>2020-08-12T13:16:13Z</time>
      </trkpt>
      <trkpt lat="48.74977" lon="-2.9451">
        <ele>63.6</ele>
        <time>2020-08-12T13:16:17Z</time>
      </trkpt>
      <trkpt lat="48.74976" lon="-2.94511">
        <ele>63.6</ele>
        <time>2020-08-12T13:16:21Z</time>
      </trkpt>
      <trkpt lat="48.74971" lon="-2.94526">
        <ele>63.7</ele>
        <time>2020-08-12T13:18:04Z</time>
      </trkpt>
      <trkpt lat="48.74964" lon="-2.94541">
        <ele>63.7</ele>
        <time>2020-08-12T13:18:11Z</time>
      </trkpt>
      <trkpt lat="48.74954" lon="-2.94567">
        <ele>63.6</ele>
        <time>2020-08-12T13:18:20Z</time>
      </trkpt>
      <trkpt lat="48.74939" lon="-2.94595">
        <ele>62.5</ele>
        <time>2020-08-12T13:18:28Z</time>
      </trkpt>
      <trkpt lat="48.74921" lon="-2.94623">
        <ele>62.1</ele>
        <time>2020-08-12T13:18:34Z</time>
      </trkpt>
      <trkpt lat="48.74908" lon="-2.94657">
        <ele>62.9</ele>
        <time>2020-08-12T13:18:38Z</time>
      </trkpt>
      <trkpt lat="48.7491" lon="-2.94678">
        <ele>62.8</ele>
        <time>2020-08-12T13:18:40Z</time>
      </trkpt>
      <trkpt lat="48.74918" lon="-2.94693">
        <ele>61</ele>
        <time>2020-08-12T13:18:42Z</time>
      </trkpt>
      <trkpt lat="48.7493" lon="-2.94723">
        <ele>61</ele>
        <time>2020-08-12T13:18:48Z</time>
      </trkpt>
      <trkpt lat="48.7493" lon="-2.94731">
        <ele>61.2</ele>
        <time>2020-08-12T13:18:50Z</time>
      </trkpt>
      <trkpt lat="48.74925" lon="-2.94764">
        <ele>62.2</ele>
        <time>2020-08-12T13:19:00Z</time>
      </trkpt>
      <trkpt lat="48.74918" lon="-2.94791">
        <ele>62.2</ele>
        <time>2020-08-12T13:19:09Z</time>
      </trkpt>
      <trkpt lat="48.74913" lon="-2.94811">
        <ele>64.6</ele>
        <time>2020-08-12T13:19:15Z</time>
      </trkpt>
      <trkpt lat="48.74906" lon="-2.94827">
        <ele>64.5</ele>
        <time>2020-08-12T13:19:20Z</time>
      </trkpt>
      <trkpt lat="48.74892" lon="-2.9485">
        <ele>66.2</ele>
        <time>2020-08-12T13:19:28Z</time>
      </trkpt>
      <trkpt lat="48.7488" lon="-2.9487">
        <ele>66.8</ele>
        <time>2020-08-12T13:19:36Z</time>
      </trkpt>
      <trkpt lat="48.74868" lon="-2.94891">
        <ele>67.3</ele>
        <time>2020-08-12T13:19:43Z</time>
      </trkpt>
      <trkpt lat="48.74853" lon="-2.94917">
        <ele>69.2</ele>
        <time>2020-08-12T13:19:52Z</time>
      </trkpt>
      <trkpt lat="48.74839" lon="-2.94944">
        <ele>69.5</ele>
        <time>2020-08-12T13:20:01Z</time>
      </trkpt>
      <trkpt lat="48.74825" lon="-2.94973">
        <ele>70.9</ele>
        <time>2020-08-12T13:20:11Z</time>
      </trkpt>
      <trkpt lat="48.74815" lon="-2.94996">
        <ele>71.2</ele>
        <time>2020-08-12T13:20:19Z</time>
      </trkpt>
      <trkpt lat="48.74802" lon="-2.95023">
        <ele>72.3</ele>
        <time>2020-08-12T13:20:29Z</time>
      </trkpt>
      <trkpt lat="48.7479" lon="-2.95044">
        <ele>72.5</ele>
        <time>2020-08-12T13:20:37Z</time>
      </trkpt>
      <trkpt lat="48.74779" lon="-2.95075">
        <ele>72.8</ele>
        <time>2020-08-12T13:20:47Z</time>
      </trkpt>
      <trkpt lat="48.7477" lon="-2.95109">
        <ele>73.9</ele>
        <time>2020-08-12T13:20:57Z</time>
      </trkpt>
      <trkpt lat="48.74766" lon="-2.95134">
        <ele>74.3</ele>
        <time>2020-08-12T13:21:05Z</time>
      </trkpt>
      <trkpt lat="48.74765" lon="-2.95153">
        <ele>74.8</ele>
        <time>2020-08-12T13:21:12Z</time>
      </trkpt>
      <trkpt lat="48.74762" lon="-2.95176">
        <ele>75.5</ele>
        <time>2020-08-12T13:21:21Z</time>
      </trkpt>
      <trkpt lat="48.74757" lon="-2.95192">
        <ele>75.5</ele>
        <time>2020-08-12T13:21:28Z</time>
      </trkpt>
      <trkpt lat="48.74752" lon="-2.95208">
        <ele>75.6</ele>
        <time>2020-08-12T13:21:36Z</time>
      </trkpt>
      <trkpt lat="48.74751" lon="-2.95209">
        <ele>75.6</ele>
        <time>2020-08-12T13:21:37Z</time>
      </trkpt>
      <trkpt lat="48.7475" lon="-2.9523">
        <ele>76</ele>
        <time>2020-08-12T13:21:45Z</time>
      </trkpt>
      <trkpt lat="48.74751" lon="-2.95269">
        <ele>75.9</ele>
        <time>2020-08-12T13:21:55Z</time>
      </trkpt>
      <trkpt lat="48.74752" lon="-2.95314">
        <ele>75.1</ele>
        <time>2020-08-12T13:22:05Z</time>
      </trkpt>
      <trkpt lat="48.74747" lon="-2.95347">
        <ele>75.4</ele>
        <time>2020-08-12T13:22:13Z</time>
      </trkpt>
      <trkpt lat="48.74742" lon="-2.95372">
        <ele>75.7</ele>
        <time>2020-08-12T13:22:21Z</time>
      </trkpt>
      <trkpt lat="48.74737" lon="-2.95396">
        <ele>75.6</ele>
        <time>2020-08-12T13:22:28Z</time>
      </trkpt>
      <trkpt lat="48.74735" lon="-2.95423">
        <ele>76</ele>
        <time>2020-08-12T13:22:35Z</time>
      </trkpt>
      <trkpt lat="48.74733" lon="-2.95474">
        <ele>76.6</ele>
        <time>2020-08-12T13:22:47Z</time>
      </trkpt>
      <trkpt lat="48.74729" lon="-2.95512">
        <ele>77.1</ele>
        <time>2020-08-12T13:22:56Z</time>
      </trkpt>
      <trkpt lat="48.74722" lon="-2.95558">
        <ele>77.6</ele>
        <time>2020-08-12T13:23:06Z</time>
      </trkpt>
      <trkpt lat="48.74716" lon="-2.95595">
        <ele>77.4</ele>
        <time>2020-08-12T13:23:15Z</time>
      </trkpt>
      <trkpt lat="48.74712" lon="-2.95617">
        <ele>77.3</ele>
        <time>2020-08-12T13:23:21Z</time>
      </trkpt>
      <trkpt lat="48.74707" lon="-2.95653">
        <ele>77</ele>
        <time>2020-08-12T13:23:31Z</time>
      </trkpt>
      <trkpt lat="48.74703" lon="-2.9568">
        <ele>76.2</ele>
        <time>2020-08-12T13:23:39Z</time>
      </trkpt>
      <trkpt lat="48.74698" lon="-2.95702">
        <ele>76.1</ele>
        <time>2020-08-12T13:23:46Z</time>
      </trkpt>
      <trkpt lat="48.74693" lon="-2.95709">
        <ele>76.1</ele>
        <time>2020-08-12T13:23:52Z</time>
      </trkpt>
      <trkpt lat="48.74694" lon="-2.95729">
        <ele>76</ele>
        <time>2020-08-12T13:28:26Z</time>
      </trkpt>
      <trkpt lat="48.74695" lon="-2.95762">
        <ele>75.6</ele>
        <time>2020-08-12T13:28:32Z</time>
      </trkpt>
      <trkpt lat="48.74702" lon="-2.95806">
        <ele>75.5</ele>
        <time>2020-08-12T13:28:38Z</time>
      </trkpt>
      <trkpt lat="48.74704" lon="-2.95823">
        <ele>75.5</ele>
        <time>2020-08-12T13:28:40Z</time>
      </trkpt>
      <trkpt lat="48.74701" lon="-2.95879">
        <ele>75.8</ele>
        <time>2020-08-12T13:28:47Z</time>
      </trkpt>
      <trkpt lat="48.74695" lon="-2.9593">
        <ele>76.2</ele>
        <time>2020-08-12T13:28:55Z</time>
      </trkpt>
      <trkpt lat="48.74691" lon="-2.95977">
        <ele>76.4</ele>
        <time>2020-08-12T13:29:03Z</time>
      </trkpt>
      <trkpt lat="48.74686" lon="-2.96009">
        <ele>76.8</ele>
        <time>2020-08-12T13:29:09Z</time>
      </trkpt>
      <trkpt lat="48.74678" lon="-2.96054">
        <ele>76.7</ele>
        <time>2020-08-12T13:29:17Z</time>
      </trkpt>
      <trkpt lat="48.74671" lon="-2.96089">
        <ele>77.4</ele>
        <time>2020-08-12T13:29:23Z</time>
      </trkpt>
      <trkpt lat="48.7467" lon="-2.96095">
        <ele>77</ele>
        <time>2020-08-12T13:29:24Z</time>
      </trkpt>
      <trkpt lat="48.74659" lon="-2.96117">
        <ele>77.8</ele>
        <time>2020-08-12T13:29:28Z</time>
      </trkpt>
      <trkpt lat="48.74627" lon="-2.96173">
        <ele>76.6</ele>
        <time>2020-08-12T13:29:38Z</time>
      </trkpt>
      <trkpt lat="48.74624" lon="-2.96178">
        <ele>76.7</ele>
        <time>2020-08-12T13:29:39Z</time>
      </trkpt>
      <trkpt lat="48.74608" lon="-2.96231">
        <ele>76.6</ele>
        <time>2020-08-12T13:29:47Z</time>
      </trkpt>
      <trkpt lat="48.74602" lon="-2.96257">
        <ele>75.8</ele>
        <time>2020-08-12T13:29:51Z</time>
      </trkpt>
      <trkpt lat="48.74602" lon="-2.96285">
        <ele>75.2</ele>
        <time>2020-08-12T13:29:56Z</time>
      </trkpt>
      <trkpt lat="48.74602" lon="-2.96291">
        <ele>75.1</ele>
        <time>2020-08-12T13:29:59Z</time>
      </trkpt>
      <trkpt lat="48.74602" lon="-2.96291">
        <ele>75.1</ele>
        <time>2020-08-12T13:30:00Z</time>
      </trkpt>
      <trkpt lat="48.74593" lon="-2.96306">
        <ele>75</ele>
        <time>2020-08-12T13:32:57Z</time>
      </trkpt>
      <trkpt lat="48.74587" lon="-2.96339">
        <ele>74.5</ele>
        <time>2020-08-12T13:33:05Z</time>
      </trkpt>
      <trkpt lat="48.74577" lon="-2.96379">
        <ele>74.5</ele>
        <time>2020-08-12T13:33:14Z</time>
      </trkpt>
      <trkpt lat="48.74564" lon="-2.96394">
        <ele>74.4</ele>
        <time>2020-08-12T13:33:19Z</time>
      </trkpt>
      <trkpt lat="48.74542" lon="-2.96404">
        <ele>74.3</ele>
        <time>2020-08-12T13:33:25Z</time>
      </trkpt>
      <trkpt lat="48.74504" lon="-2.96405">
        <ele>74.2</ele>
        <time>2020-08-12T13:33:34Z</time>
      </trkpt>
      <trkpt lat="48.74456" lon="-2.96398">
        <ele>75.1</ele>
        <time>2020-08-12T13:33:45Z</time>
      </trkpt>
      <trkpt lat="48.74421" lon="-2.964">
        <ele>75.2</ele>
        <time>2020-08-12T13:33:53Z</time>
      </trkpt>
      <trkpt lat="48.74398" lon="-2.96415">
        <ele>76.8</ele>
        <time>2020-08-12T13:34:00Z</time>
      </trkpt>
      <trkpt lat="48.74376" lon="-2.96446">
        <ele>76.6</ele>
        <time>2020-08-12T13:34:08Z</time>
      </trkpt>
      <trkpt lat="48.74359" lon="-2.96478">
        <ele>76.6</ele>
        <time>2020-08-12T13:34:17Z</time>
      </trkpt>
      <trkpt lat="48.7435" lon="-2.965">
        <ele>76.7</ele>
        <time>2020-08-12T13:34:23Z</time>
      </trkpt>
      <trkpt lat="48.74356" lon="-2.96525">
        <ele>76.4</ele>
        <time>2020-08-12T13:34:28Z</time>
      </trkpt>
      <trkpt lat="48.74368" lon="-2.96574">
        <ele>76.6</ele>
        <time>2020-08-12T13:34:37Z</time>
      </trkpt>
      <trkpt lat="48.74374" lon="-2.96606">
        <ele>77.4</ele>
        <time>2020-08-12T13:34:43Z</time>
      </trkpt>
      <trkpt lat="48.74386" lon="-2.96661">
        <ele>77.5</ele>
        <time>2020-08-12T13:34:53Z</time>
      </trkpt>
      <trkpt lat="48.74395" lon="-2.96694">
        <ele>78</ele>
        <time>2020-08-12T13:35:00Z</time>
      </trkpt>
      <trkpt lat="48.74409" lon="-2.9674">
        <ele>78.1</ele>
        <time>2020-08-12T13:35:10Z</time>
      </trkpt>
      <trkpt lat="48.74421" lon="-2.96779">
        <ele>79.3</ele>
        <time>2020-08-12T13:35:19Z</time>
      </trkpt>
      <trkpt lat="48.74429" lon="-2.96805">
        <ele>80</ele>
        <time>2020-08-12T13:35:26Z</time>
      </trkpt>
      <trkpt lat="48.74437" lon="-2.96835">
        <ele>81.2</ele>
        <time>2020-08-12T13:35:34Z</time>
      </trkpt>
      <trkpt lat="48.74449" lon="-2.96867">
        <ele>81.5</ele>
        <time>2020-08-12T13:35:42Z</time>
      </trkpt>
      <trkpt lat="48.74468" lon="-2.96896">
        <ele>81.6</ele>
        <time>2020-08-12T13:35:51Z</time>
      </trkpt>
      <trkpt lat="48.74487" lon="-2.96922">
        <ele>82.2</ele>
        <time>2020-08-12T13:36:00Z</time>
      </trkpt>
      <trkpt lat="48.74501" lon="-2.96951">
        <ele>82</ele>
        <time>2020-08-12T13:36:08Z</time>
      </trkpt>
      <trkpt lat="48.74508" lon="-2.96984">
        <ele>82.7</ele>
        <time>2020-08-12T13:36:15Z</time>
      </trkpt>
      <trkpt lat="48.74511" lon="-2.97021">
        <ele>82.6</ele>
        <time>2020-08-12T13:36:22Z</time>
      </trkpt>
      <trkpt lat="48.74509" lon="-2.97077">
        <ele>82.6</ele>
        <time>2020-08-12T13:36:31Z</time>
      </trkpt>
      <trkpt lat="48.74504" lon="-2.97138">
        <ele>82.3</ele>
        <time>2020-08-12T13:36:40Z</time>
      </trkpt>
      <trkpt lat="48.74503" lon="-2.97157">
        <ele>82.6</ele>
        <time>2020-08-12T13:36:43Z</time>
      </trkpt>
      <trkpt lat="48.74499" lon="-2.97206">
        <ele>83.8</ele>
        <time>2020-08-12T13:36:51Z</time>
      </trkpt>
      <trkpt lat="48.74497" lon="-2.97259">
        <ele>84.1</ele>
        <time>2020-08-12T13:37:00Z</time>
      </trkpt>
      <trkpt lat="48.74496" lon="-2.97305">
        <ele>83.8</ele>
        <time>2020-08-12T13:37:09Z</time>
      </trkpt>
      <trkpt lat="48.74494" lon="-2.97339">
        <ele>83.4</ele>
        <time>2020-08-12T13:37:16Z</time>
      </trkpt>
      <trkpt lat="48.74488" lon="-2.97397">
        <ele>84.1</ele>
        <time>2020-08-12T13:37:26Z</time>
      </trkpt>
      <trkpt lat="48.74481" lon="-2.97451">
        <ele>84.6</ele>
        <time>2020-08-12T13:37:35Z</time>
      </trkpt>
      <trkpt lat="48.74472" lon="-2.97497">
        <ele>84.8</ele>
        <time>2020-08-12T13:37:44Z</time>
      </trkpt>
      <trkpt lat="48.74464" lon="-2.97535">
        <ele>85</ele>
        <time>2020-08-12T13:37:53Z</time>
      </trkpt>
      <trkpt lat="48.74463" lon="-2.9756">
        <ele>84.9</ele>
        <time>2020-08-12T13:38:01Z</time>
      </trkpt>
      <trkpt lat="48.74465" lon="-2.9757">
        <ele>84.9</ele>
        <time>2020-08-12T13:38:07Z</time>
      </trkpt>
      <trkpt lat="48.74466" lon="-2.97579">
        <ele>84.9</ele>
        <time>2020-08-12T13:38:13Z</time>
      </trkpt>
      <trkpt lat="48.74464" lon="-2.9759">
        <ele>85.2</ele>
        <time>2020-08-12T13:38:49Z</time>
      </trkpt>
      <trkpt lat="48.74475" lon="-2.97617">
        <ele>85.2</ele>
        <time>2020-08-12T13:38:55Z</time>
      </trkpt>
      <trkpt lat="48.745" lon="-2.97668">
        <ele>85.1</ele>
        <time>2020-08-12T13:39:05Z</time>
      </trkpt>
      <trkpt lat="48.7452" lon="-2.97705">
        <ele>85.7</ele>
        <time>2020-08-12T13:39:13Z</time>
      </trkpt>
      <trkpt lat="48.74537" lon="-2.97727">
        <ele>85.9</ele>
        <time>2020-08-12T13:39:19Z</time>
      </trkpt>
      <trkpt lat="48.74559" lon="-2.97743">
        <ele>86.2</ele>
        <time>2020-08-12T13:39:26Z</time>
      </trkpt>
      <trkpt lat="48.74585" lon="-2.9776">
        <ele>87.1</ele>
        <time>2020-08-12T13:39:36Z</time>
      </trkpt>
      <trkpt lat="48.74608" lon="-2.97776">
        <ele>87.2</ele>
        <time>2020-08-12T13:39:46Z</time>
      </trkpt>
      <trkpt lat="48.74627" lon="-2.97787">
        <ele>87.2</ele>
        <time>2020-08-12T13:39:53Z</time>
      </trkpt>
      <trkpt lat="48.74644" lon="-2.97796">
        <ele>87.1</ele>
        <time>2020-08-12T13:40:00Z</time>
      </trkpt>
      <trkpt lat="48.74647" lon="-2.978">
        <ele>87.1</ele>
        <time>2020-08-12T13:40:02Z</time>
      </trkpt>
      <trkpt lat="48.74644" lon="-2.97813">
        <ele>87.2</ele>
        <time>2020-08-12T13:40:07Z</time>
      </trkpt>
      <trkpt lat="48.74631" lon="-2.97835">
        <ele>88</ele>
        <time>2020-08-12T13:40:15Z</time>
      </trkpt>
      <trkpt lat="48.74618" lon="-2.9786">
        <ele>88.3</ele>
        <time>2020-08-12T13:40:24Z</time>
      </trkpt>
      <trkpt lat="48.74602" lon="-2.97887">
        <ele>88.5</ele>
        <time>2020-08-12T13:40:33Z</time>
      </trkpt>
      <trkpt lat="48.7459" lon="-2.97908">
        <ele>88.8</ele>
        <time>2020-08-12T13:40:40Z</time>
      </trkpt>
      <trkpt lat="48.74574" lon="-2.97937">
        <ele>89.3</ele>
        <time>2020-08-12T13:40:50Z</time>
      </trkpt>
      <trkpt lat="48.74564" lon="-2.97957">
        <ele>89.5</ele>
        <time>2020-08-12T13:40:57Z</time>
      </trkpt>
      <trkpt lat="48.7455" lon="-2.97986">
        <ele>89.7</ele>
        <time>2020-08-12T13:41:07Z</time>
      </trkpt>
      <trkpt lat="48.74542" lon="-2.98013">
        <ele>90.3</ele>
        <time>2020-08-12T13:41:15Z</time>
      </trkpt>
      <trkpt lat="48.74533" lon="-2.98047">
        <ele>90.5</ele>
        <time>2020-08-12T13:41:25Z</time>
      </trkpt>
      <trkpt lat="48.74523" lon="-2.98086">
        <ele>91</ele>
        <time>2020-08-12T13:41:35Z</time>
      </trkpt>
      <trkpt lat="48.74512" lon="-2.98118">
        <ele>90.9</ele>
        <time>2020-08-12T13:41:44Z</time>
      </trkpt>
      <trkpt lat="48.745" lon="-2.98152">
        <ele>89.9</ele>
        <time>2020-08-12T13:41:52Z</time>
      </trkpt>
      <trkpt lat="48.74491" lon="-2.98182">
        <ele>90</ele>
        <time>2020-08-12T13:41:59Z</time>
      </trkpt>
      <trkpt lat="48.74487" lon="-2.98193">
        <ele>90</ele>
        <time>2020-08-12T13:42:05Z</time>
      </trkpt>
      <trkpt lat="48.74484" lon="-2.98197">
        <ele>90</ele>
        <time>2020-08-12T13:42:38Z</time>
      </trkpt>
      <trkpt lat="48.74472" lon="-2.98192">
        <ele>89.9</ele>
        <time>2020-08-12T13:42:44Z</time>
      </trkpt>
      <trkpt lat="48.7447" lon="-2.98191">
        <ele>89.8</ele>
        <time>2020-08-12T13:42:45Z</time>
      </trkpt>
      <trkpt lat="48.74444" lon="-2.98174">
        <ele>89.5</ele>
        <time>2020-08-12T13:42:56Z</time>
      </trkpt>
      <trkpt lat="48.74441" lon="-2.98173">
        <ele>89.4</ele>
        <time>2020-08-12T13:42:57Z</time>
      </trkpt>
      <trkpt lat="48.74429" lon="-2.98186">
        <ele>89.4</ele>
        <time>2020-08-12T13:43:02Z</time>
      </trkpt>
      <trkpt lat="48.74425" lon="-2.98194">
        <ele>89.4</ele>
        <time>2020-08-12T13:43:05Z</time>
      </trkpt>
      <trkpt lat="48.74419" lon="-2.98209">
        <ele>89.3</ele>
        <time>2020-08-12T13:43:13Z</time>
      </trkpt>
      <trkpt lat="48.74413" lon="-2.98228">
        <ele>88.1</ele>
        <time>2020-08-12T13:43:18Z</time>
      </trkpt>
      <trkpt lat="48.74401" lon="-2.98262">
        <ele>87.9</ele>
        <time>2020-08-12T13:43:24Z</time>
      </trkpt>
      <trkpt lat="48.7438" lon="-2.98315">
        <ele>87.7</ele>
        <time>2020-08-12T13:43:32Z</time>
      </trkpt>
      <trkpt lat="48.74375" lon="-2.9833">
        <ele>87.7</ele>
        <time>2020-08-12T13:43:34Z</time>
      </trkpt>
      <trkpt lat="48.74351" lon="-2.98391">
        <ele>86.3</ele>
        <time>2020-08-12T13:43:42Z</time>
      </trkpt>
      <trkpt lat="48.74328" lon="-2.98418">
        <ele>84.7</ele>
        <time>2020-08-12T13:43:47Z</time>
      </trkpt>
      <trkpt lat="48.74317" lon="-2.98422">
        <ele>84.3</ele>
        <time>2020-08-12T13:43:49Z</time>
      </trkpt>
      <trkpt lat="48.74297" lon="-2.98441">
        <ele>83.7</ele>
        <time>2020-08-12T13:43:54Z</time>
      </trkpt>
      <trkpt lat="48.74283" lon="-2.98469">
        <ele>83.3</ele>
        <time>2020-08-12T13:44:00Z</time>
      </trkpt>
      <trkpt lat="48.74275" lon="-2.98499">
        <ele>82.9</ele>
        <time>2020-08-12T13:44:07Z</time>
      </trkpt>
      <trkpt lat="48.74263" lon="-2.9854">
        <ele>82.3</ele>
        <time>2020-08-12T13:44:15Z</time>
      </trkpt>
      <trkpt lat="48.74245" lon="-2.98588">
        <ele>81.8</ele>
        <time>2020-08-12T13:44:23Z</time>
      </trkpt>
      <trkpt lat="48.74226" lon="-2.98629">
        <ele>81.1</ele>
        <time>2020-08-12T13:44:29Z</time>
      </trkpt>
      <trkpt lat="48.74202" lon="-2.98679">
        <ele>80.3</ele>
        <time>2020-08-12T13:44:36Z</time>
      </trkpt>
      <trkpt lat="48.74197" lon="-2.9872">
        <ele>80.2</ele>
        <time>2020-08-12T13:44:41Z</time>
      </trkpt>
      <trkpt lat="48.742" lon="-2.98736">
        <ele>80.2</ele>
        <time>2020-08-12T13:44:43Z</time>
      </trkpt>
      <trkpt lat="48.74215" lon="-2.98804">
        <ele>81.1</ele>
        <time>2020-08-12T13:44:51Z</time>
      </trkpt>
      <trkpt lat="48.74221" lon="-2.98828">
        <ele>81.2</ele>
        <time>2020-08-12T13:44:54Z</time>
      </trkpt>
      <trkpt lat="48.74234" lon="-2.98884">
        <ele>81.3</ele>
        <time>2020-08-12T13:45:02Z</time>
      </trkpt>
      <trkpt lat="48.7424" lon="-2.98913">
        <ele>80.6</ele>
        <time>2020-08-12T13:45:07Z</time>
      </trkpt>
      <trkpt lat="48.74255" lon="-2.98979">
        <ele>80.7</ele>
        <time>2020-08-12T13:45:18Z</time>
      </trkpt>
      <trkpt lat="48.74266" lon="-2.99025">
        <ele>81</ele>
        <time>2020-08-12T13:45:27Z</time>
      </trkpt>
      <trkpt lat="48.74278" lon="-2.99076">
        <ele>81</ele>
        <time>2020-08-12T13:45:36Z</time>
      </trkpt>
      <trkpt lat="48.74287" lon="-2.99109">
        <ele>81</ele>
        <time>2020-08-12T13:45:42Z</time>
      </trkpt>
      <trkpt lat="48.743" lon="-2.99143">
        <ele>80.9</ele>
        <time>2020-08-12T13:45:49Z</time>
      </trkpt>
      <trkpt lat="48.74313" lon="-2.99169">
        <ele>80.5</ele>
        <time>2020-08-12T13:45:55Z</time>
      </trkpt>
      <trkpt lat="48.74323" lon="-2.99199">
        <ele>80.5</ele>
        <time>2020-08-12T13:46:02Z</time>
      </trkpt>
      <trkpt lat="48.7433" lon="-2.99216">
        <ele>80.5</ele>
        <time>2020-08-12T13:46:08Z</time>
      </trkpt>
      <trkpt lat="48.7433" lon="-2.99218">
        <ele>80.4</ele>
        <time>2020-08-12T13:46:09Z</time>
      </trkpt>
      <trkpt lat="48.74322" lon="-2.9924">
        <ele>80.3</ele>
        <time>2020-08-12T13:46:17Z</time>
      </trkpt>
      <trkpt lat="48.7431" lon="-2.99259">
        <ele>79.6</ele>
        <time>2020-08-12T13:46:24Z</time>
      </trkpt>
      <trkpt lat="48.74289" lon="-2.99285">
        <ele>79.4</ele>
        <time>2020-08-12T13:46:32Z</time>
      </trkpt>
      <trkpt lat="48.74266" lon="-2.99313">
        <ele>79.2</ele>
        <time>2020-08-12T13:46:38Z</time>
      </trkpt>
      <trkpt lat="48.74234" lon="-2.99346">
        <ele>77.9</ele>
        <time>2020-08-12T13:46:44Z</time>
      </trkpt>
      <trkpt lat="48.74197" lon="-2.99383">
        <ele>76.8</ele>
        <time>2020-08-12T13:46:51Z</time>
      </trkpt>
      <trkpt lat="48.74189" lon="-2.99393">
        <ele>76.5</ele>
        <time>2020-08-12T13:46:53Z</time>
      </trkpt>
      <trkpt lat="48.74181" lon="-2.99417">
        <ele>75</ele>
        <time>2020-08-12T13:46:57Z</time>
      </trkpt>
      <trkpt lat="48.7417" lon="-2.99483">
        <ele>73.9</ele>
        <time>2020-08-12T13:47:06Z</time>
      </trkpt>
      <trkpt lat="48.74164" lon="-2.99536">
        <ele>73.6</ele>
        <time>2020-08-12T13:47:13Z</time>
      </trkpt>
      <trkpt lat="48.74155" lon="-2.99589">
        <ele>72.8</ele>
        <time>2020-08-12T13:47:19Z</time>
      </trkpt>
      <trkpt lat="48.74147" lon="-2.99646">
        <ele>72</ele>
        <time>2020-08-12T13:47:25Z</time>
      </trkpt>
      <trkpt lat="48.74141" lon="-2.99701">
        <ele>70.5</ele>
        <time>2020-08-12T13:47:31Z</time>
      </trkpt>
      <trkpt lat="48.7414" lon="-2.99741">
        <ele>70</ele>
        <time>2020-08-12T13:47:36Z</time>
      </trkpt>
      <trkpt lat="48.74141" lon="-2.99756">
        <ele>68.8</ele>
        <time>2020-08-12T13:47:38Z</time>
      </trkpt>
      <trkpt lat="48.74141" lon="-2.99781">
        <ele>68.7</ele>
        <time>2020-08-12T13:47:41Z</time>
      </trkpt>
      <trkpt lat="48.7414" lon="-2.99797">
        <ele>68.6</ele>
        <time>2020-08-12T13:47:43Z</time>
      </trkpt>
      <trkpt lat="48.74131" lon="-2.99851">
        <ele>67.3</ele>
        <time>2020-08-12T13:47:50Z</time>
      </trkpt>
      <trkpt lat="48.74122" lon="-2.99894">
        <ele>66.8</ele>
        <time>2020-08-12T13:47:56Z</time>
      </trkpt>
      <trkpt lat="48.74121" lon="-2.99902">
        <ele>66.7</ele>
        <time>2020-08-12T13:47:57Z</time>
      </trkpt>
      <trkpt lat="48.74122" lon="-2.99946">
        <ele>66.2</ele>
        <time>2020-08-12T13:48:03Z</time>
      </trkpt>
      <trkpt lat="48.74129" lon="-2.99988">
        <ele>66.3</ele>
        <time>2020-08-12T13:48:08Z</time>
      </trkpt>
      <trkpt lat="48.74149" lon="-3.00054">
        <ele>63.9</ele>
        <time>2020-08-12T13:48:15Z</time>
      </trkpt>
      <trkpt lat="48.74149" lon="-3.00105">
        <ele>62</ele>
        <time>2020-08-12T13:48:20Z</time>
      </trkpt>
      <trkpt lat="48.74131" lon="-3.00124">
        <ele>62</ele>
        <time>2020-08-12T13:48:23Z</time>
      </trkpt>
      <trkpt lat="48.7409" lon="-3.00143">
        <ele>62.1</ele>
        <time>2020-08-12T13:48:29Z</time>
      </trkpt>
      <trkpt lat="48.74069" lon="-3.00168">
        <ele>62.8</ele>
        <time>2020-08-12T13:48:34Z</time>
      </trkpt>
      <trkpt lat="48.74066" lon="-3.0018">
        <ele>63.1</ele>
        <time>2020-08-12T13:48:36Z</time>
      </trkpt>
      <trkpt lat="48.74064" lon="-3.00209">
        <ele>63.4</ele>
        <time>2020-08-12T13:48:43Z</time>
      </trkpt>
      <trkpt lat="48.74063" lon="-3.00234">
        <ele>63.5</ele>
        <time>2020-08-12T13:48:51Z</time>
      </trkpt>
      <trkpt lat="48.74061" lon="-3.00252">
        <ele>63.9</ele>
        <time>2020-08-12T13:48:57Z</time>
      </trkpt>
      <trkpt lat="48.74061" lon="-3.00269">
        <ele>64.1</ele>
        <time>2020-08-12T13:49:02Z</time>
      </trkpt>
      <trkpt lat="48.74058" lon="-3.00291">
        <ele>64.4</ele>
        <time>2020-08-12T13:49:09Z</time>
      </trkpt>
      <trkpt lat="48.74049" lon="-3.00315">
        <ele>64.6</ele>
        <time>2020-08-12T13:49:18Z</time>
      </trkpt>
      <trkpt lat="48.74044" lon="-3.00328">
        <ele>64.7</ele>
        <time>2020-08-12T13:49:24Z</time>
      </trkpt>
      <trkpt lat="48.74038" lon="-3.0034">
        <ele>65.5</ele>
        <time>2020-08-12T13:49:30Z</time>
      </trkpt>
      <trkpt lat="48.74036" lon="-3.00359">
        <ele>65.6</ele>
        <time>2020-08-12T13:49:37Z</time>
      </trkpt>
      <trkpt lat="48.74035" lon="-3.00385">
        <ele>65.8</ele>
        <time>2020-08-12T13:49:46Z</time>
      </trkpt>
      <trkpt lat="48.74035" lon="-3.00407">
        <ele>66</ele>
        <time>2020-08-12T13:49:54Z</time>
      </trkpt>
      <trkpt lat="48.74035" lon="-3.00428">
        <ele>68.1</ele>
        <time>2020-08-12T13:50:02Z</time>
      </trkpt>
      <trkpt lat="48.74034" lon="-3.00448">
        <ele>68.6</ele>
        <time>2020-08-12T13:50:10Z</time>
      </trkpt>
      <trkpt lat="48.74032" lon="-3.00496">
        <ele>69.9</ele>
        <time>2020-08-12T13:50:29Z</time>
      </trkpt>
      <trkpt lat="48.74031" lon="-3.0051">
        <ele>73</ele>
        <time>2020-08-12T13:50:35Z</time>
      </trkpt>
      <trkpt lat="48.74028" lon="-3.00532">
        <ele>73.6</ele>
        <time>2020-08-12T13:50:44Z</time>
      </trkpt>
      <trkpt lat="48.74026" lon="-3.00546">
        <ele>74.1</ele>
        <time>2020-08-12T13:50:51Z</time>
      </trkpt>
      <trkpt lat="48.74024" lon="-3.00562">
        <ele>74.6</ele>
        <time>2020-08-12T13:50:58Z</time>
      </trkpt>
      <trkpt lat="48.74021" lon="-3.0058">
        <ele>75</ele>
        <time>2020-08-12T13:51:07Z</time>
      </trkpt>
      <trkpt lat="48.7402" lon="-3.00584">
        <ele>77.6</ele>
        <time>2020-08-12T13:51:09Z</time>
      </trkpt>
      <trkpt lat="48.7402" lon="-3.00598">
        <ele>78</ele>
        <time>2020-08-12T13:51:15Z</time>
      </trkpt>
      <trkpt lat="48.74017" lon="-3.00613">
        <ele>78.5</ele>
        <time>2020-08-12T13:51:22Z</time>
      </trkpt>
      <trkpt lat="48.74016" lon="-3.00627">
        <ele>79.1</ele>
        <time>2020-08-12T13:51:28Z</time>
      </trkpt>
      <trkpt lat="48.74013" lon="-3.00649">
        <ele>80</ele>
        <time>2020-08-12T13:51:37Z</time>
      </trkpt>
      <trkpt lat="48.74011" lon="-3.00666">
        <ele>80.5</ele>
        <time>2020-08-12T13:51:44Z</time>
      </trkpt>
      <trkpt lat="48.74009" lon="-3.00686">
        <ele>83.3</ele>
        <time>2020-08-12T13:51:53Z</time>
      </trkpt>
      <trkpt lat="48.74006" lon="-3.00709">
        <ele>84.7</ele>
        <time>2020-08-12T13:52:04Z</time>
      </trkpt>
      <trkpt lat="48.74003" lon="-3.00729">
        <ele>85.7</ele>
        <time>2020-08-12T13:52:13Z</time>
      </trkpt>
      <trkpt lat="48.74001" lon="-3.00743">
        <ele>86.5</ele>
        <time>2020-08-12T13:52:20Z</time>
      </trkpt>
      <trkpt lat="48.74002" lon="-3.00758">
        <ele>87.5</ele>
        <time>2020-08-12T13:52:27Z</time>
      </trkpt>
      <trkpt lat="48.74005" lon="-3.00782">
        <ele>88.3</ele>
        <time>2020-08-12T13:52:38Z</time>
      </trkpt>
      <trkpt lat="48.74006" lon="-3.00797">
        <ele>88.6</ele>
        <time>2020-08-12T13:52:45Z</time>
      </trkpt>
      <trkpt lat="48.74009" lon="-3.00815">
        <ele>88.8</ele>
        <time>2020-08-12T13:52:53Z</time>
      </trkpt>
      <trkpt lat="48.7401" lon="-3.00815">
        <ele>88.8</ele>
        <time>2020-08-12T13:52:55Z</time>
      </trkpt>
      <trkpt lat="48.74011" lon="-3.00832">
        <ele>88.9</ele>
        <time>2020-08-12T13:54:43Z</time>
      </trkpt>
      <trkpt lat="48.74012" lon="-3.00838">
        <ele>89.2</ele>
        <time>2020-08-12T13:54:45Z</time>
      </trkpt>
      <trkpt lat="48.74014" lon="-3.00871">
        <ele>89.4</ele>
        <time>2020-08-12T13:54:55Z</time>
      </trkpt>
      <trkpt lat="48.74019" lon="-3.00922">
        <ele>89.4</ele>
        <time>2020-08-12T13:55:07Z</time>
      </trkpt>
      <trkpt lat="48.74023" lon="-3.00965">
        <ele>89.7</ele>
        <time>2020-08-12T13:55:15Z</time>
      </trkpt>
      <trkpt lat="48.74027" lon="-3.01026">
        <ele>90.4</ele>
        <time>2020-08-12T13:55:26Z</time>
      </trkpt>
      <trkpt lat="48.74027" lon="-3.01077">
        <ele>90.7</ele>
        <time>2020-08-12T13:55:35Z</time>
      </trkpt>
      <trkpt lat="48.74025" lon="-3.01127">
        <ele>91</ele>
        <time>2020-08-12T13:55:43Z</time>
      </trkpt>
      <trkpt lat="48.74024" lon="-3.01193">
        <ele>91.5</ele>
        <time>2020-08-12T13:55:53Z</time>
      </trkpt>
      <trkpt lat="48.74021" lon="-3.01267">
        <ele>92.1</ele>
        <time>2020-08-12T13:56:03Z</time>
      </trkpt>
      <trkpt lat="48.7402" lon="-3.01333">
        <ele>91.3</ele>
        <time>2020-08-12T13:56:11Z</time>
      </trkpt>
      <trkpt lat="48.74019" lon="-3.01415">
        <ele>89.6</ele>
        <time>2020-08-12T13:56:21Z</time>
      </trkpt>
      <trkpt lat="48.74021" lon="-3.01496">
        <ele>86.9</ele>
        <time>2020-08-12T13:56:31Z</time>
      </trkpt>
      <trkpt lat="48.74023" lon="-3.01566">
        <ele>85.1</ele>
        <time>2020-08-12T13:56:39Z</time>
      </trkpt>
      <trkpt lat="48.74025" lon="-3.01646">
        <ele>84.1</ele>
        <time>2020-08-12T13:56:47Z</time>
      </trkpt>
      <trkpt lat="48.74027" lon="-3.01714">
        <ele>82.7</ele>
        <time>2020-08-12T13:56:53Z</time>
      </trkpt>
      <trkpt lat="48.74029" lon="-3.0178">
        <ele>80.5</ele>
        <time>2020-08-12T13:56:58Z</time>
      </trkpt>
      <trkpt lat="48.74031" lon="-3.01863">
        <ele>78.5</ele>
        <time>2020-08-12T13:57:03Z</time>
      </trkpt>
      <trkpt lat="48.74034" lon="-3.01952">
        <ele>76</ele>
        <time>2020-08-12T13:57:08Z</time>
      </trkpt>
      <trkpt lat="48.74038" lon="-3.01986">
        <ele>75.3</ele>
        <time>2020-08-12T13:57:10Z</time>
      </trkpt>
      <trkpt lat="48.74057" lon="-3.02047">
        <ele>69</ele>
        <time>2020-08-12T13:57:14Z</time>
      </trkpt>
      <trkpt lat="48.74064" lon="-3.0206">
        <ele>68.1</ele>
        <time>2020-08-12T13:57:15Z</time>
      </trkpt>
      <trkpt lat="48.74116" lon="-3.02138">
        <ele>65.4</ele>
        <time>2020-08-12T13:57:21Z</time>
      </trkpt>
      <trkpt lat="48.74124" lon="-3.0215">
        <ele>65.5</ele>
        <time>2020-08-12T13:57:22Z</time>
      </trkpt>
      <trkpt lat="48.74137" lon="-3.02186">
        <ele>61.3</ele>
        <time>2020-08-12T13:57:25Z</time>
      </trkpt>
      <trkpt lat="48.74132" lon="-3.02207">
        <ele>60</ele>
        <time>2020-08-12T13:57:27Z</time>
      </trkpt>
      <trkpt lat="48.74122" lon="-3.02223">
        <ele>58.9</ele>
        <time>2020-08-12T13:57:29Z</time>
      </trkpt>
      <trkpt lat="48.74091" lon="-3.02253">
        <ele>54</ele>
        <time>2020-08-12T13:57:34Z</time>
      </trkpt>
      <trkpt lat="48.74058" lon="-3.02269">
        <ele>56.9</ele>
        <time>2020-08-12T13:57:40Z</time>
      </trkpt>
      <trkpt lat="48.74043" lon="-3.02276">
        <ele>57.9</ele>
        <time>2020-08-12T13:57:45Z</time>
      </trkpt>
      <trkpt lat="48.74024" lon="-3.02285">
        <ele>58.7</ele>
        <time>2020-08-12T13:57:53Z</time>
      </trkpt>
      <trkpt lat="48.74008" lon="-3.02293">
        <ele>59.2</ele>
        <time>2020-08-12T13:58:01Z</time>
      </trkpt>
      <trkpt lat="48.73992" lon="-3.02303">
        <ele>62.5</ele>
        <time>2020-08-12T13:58:10Z</time>
      </trkpt>
      <trkpt lat="48.7398" lon="-3.02316">
        <ele>62.8</ele>
        <time>2020-08-12T13:58:18Z</time>
      </trkpt>
      <trkpt lat="48.73967" lon="-3.02331">
        <ele>63.5</ele>
        <time>2020-08-12T13:58:26Z</time>
      </trkpt>
      <trkpt lat="48.73958" lon="-3.02348">
        <ele>66.2</ele>
        <time>2020-08-12T13:58:34Z</time>
      </trkpt>
      <trkpt lat="48.73949" lon="-3.02369">
        <ele>66.8</ele>
        <time>2020-08-12T13:58:43Z</time>
      </trkpt>
      <trkpt lat="48.73943" lon="-3.02386">
        <ele>67.3</ele>
        <time>2020-08-12T13:58:50Z</time>
      </trkpt>
      <trkpt lat="48.73937" lon="-3.02406">
        <ele>68.2</ele>
        <time>2020-08-12T13:58:58Z</time>
      </trkpt>
      <trkpt lat="48.73929" lon="-3.02428">
        <ele>69.5</ele>
        <time>2020-08-12T13:59:07Z</time>
      </trkpt>
      <trkpt lat="48.73921" lon="-3.02449">
        <ele>69</ele>
        <time>2020-08-12T13:59:16Z</time>
      </trkpt>
      <trkpt lat="48.73916" lon="-3.02465">
        <ele>71.7</ele>
        <time>2020-08-12T13:59:24Z</time>
      </trkpt>
      <trkpt lat="48.7391" lon="-3.02482">
        <ele>71.1</ele>
        <time>2020-08-12T13:59:32Z</time>
      </trkpt>
      <trkpt lat="48.73903" lon="-3.025">
        <ele>70.1</ele>
        <time>2020-08-12T13:59:40Z</time>
      </trkpt>
      <trkpt lat="48.73894" lon="-3.02524">
        <ele>72</ele>
        <time>2020-08-12T13:59:50Z</time>
      </trkpt>
      <trkpt lat="48.73885" lon="-3.02547">
        <ele>72.6</ele>
        <time>2020-08-12T13:59:59Z</time>
      </trkpt>
      <trkpt lat="48.73876" lon="-3.02573">
        <ele>73.1</ele>
        <time>2020-08-12T14:00:08Z</time>
      </trkpt>
      <trkpt lat="48.73862" lon="-3.02612">
        <ele>74.3</ele>
        <time>2020-08-12T14:00:20Z</time>
      </trkpt>
      <trkpt lat="48.73852" lon="-3.02645">
        <ele>74.8</ele>
        <time>2020-08-12T14:00:30Z</time>
      </trkpt>
      <trkpt lat="48.73846" lon="-3.02667">
        <ele>75.3</ele>
        <time>2020-08-12T14:00:38Z</time>
      </trkpt>
      <trkpt lat="48.73838" lon="-3.02694">
        <ele>74.2</ele>
        <time>2020-08-12T14:00:46Z</time>
      </trkpt>
      <trkpt lat="48.73832" lon="-3.02717">
        <ele>76.2</ele>
        <time>2020-08-12T14:00:52Z</time>
      </trkpt>
      <trkpt lat="48.73825" lon="-3.02746">
        <ele>74.4</ele>
        <time>2020-08-12T14:00:59Z</time>
      </trkpt>
      <trkpt lat="48.73819" lon="-3.02778">
        <ele>75.4</ele>
        <time>2020-08-12T14:01:06Z</time>
      </trkpt>
      <trkpt lat="48.73817" lon="-3.02803">
        <ele>75.7</ele>
        <time>2020-08-12T14:01:12Z</time>
      </trkpt>
      <trkpt lat="48.73812" lon="-3.02835">
        <ele>75.9</ele>
        <time>2020-08-12T14:01:21Z</time>
      </trkpt>
      <trkpt lat="48.7381" lon="-3.0284">
        <ele>76</ele>
        <time>2020-08-12T14:01:23Z</time>
      </trkpt>
      <trkpt lat="48.73812" lon="-3.0285">
        <ele>76.1</ele>
        <time>2020-08-12T14:01:29Z</time>
      </trkpt>
      <trkpt lat="48.73812" lon="-3.0285">
        <ele>76.1</ele>
        <time>2020-08-12T14:01:30Z</time>
      </trkpt>
      <trkpt lat="48.73817" lon="-3.02859">
        <ele>76.1</ele>
        <time>2020-08-12T14:02:28Z</time>
      </trkpt>
      <trkpt lat="48.73834" lon="-3.02882">
        <ele>74.3</ele>
        <time>2020-08-12T14:02:34Z</time>
      </trkpt>
      <trkpt lat="48.7386" lon="-3.02915">
        <ele>74.5</ele>
        <time>2020-08-12T14:02:40Z</time>
      </trkpt>
      <trkpt lat="48.7387" lon="-3.02926">
        <ele>75.5</ele>
        <time>2020-08-12T14:02:42Z</time>
      </trkpt>
      <trkpt lat="48.7389" lon="-3.02934">
        <ele>75.5</ele>
        <time>2020-08-12T14:02:46Z</time>
      </trkpt>
      <trkpt lat="48.73916" lon="-3.02931">
        <ele>75.4</ele>
        <time>2020-08-12T14:02:52Z</time>
      </trkpt>
      <trkpt lat="48.73937" lon="-3.02926">
        <ele>77.1</ele>
        <time>2020-08-12T14:02:59Z</time>
      </trkpt>
      <trkpt lat="48.73955" lon="-3.02922">
        <ele>78</ele>
        <time>2020-08-12T14:03:06Z</time>
      </trkpt>
      <trkpt lat="48.73969" lon="-3.02919">
        <ele>78.6</ele>
        <time>2020-08-12T14:03:12Z</time>
      </trkpt>
      <trkpt lat="48.7399" lon="-3.0292">
        <ele>79.5</ele>
        <time>2020-08-12T14:03:21Z</time>
      </trkpt>
      <trkpt lat="48.74011" lon="-3.02925">
        <ele>81.3</ele>
        <time>2020-08-12T14:03:29Z</time>
      </trkpt>
      <trkpt lat="48.74037" lon="-3.02937">
        <ele>82.6</ele>
        <time>2020-08-12T14:03:38Z</time>
      </trkpt>
      <trkpt lat="48.74059" lon="-3.02953">
        <ele>83.3</ele>
        <time>2020-08-12T14:03:47Z</time>
      </trkpt>
      <trkpt lat="48.74082" lon="-3.02959">
        <ele>83.8</ele>
        <time>2020-08-12T14:03:56Z</time>
      </trkpt>
      <trkpt lat="48.74103" lon="-3.02958">
        <ele>85.9</ele>
        <time>2020-08-12T14:04:05Z</time>
      </trkpt>
      <trkpt lat="48.74127" lon="-3.02955">
        <ele>86.2</ele>
        <time>2020-08-12T14:04:16Z</time>
      </trkpt>
      <trkpt lat="48.74145" lon="-3.02955">
        <ele>86.5</ele>
        <time>2020-08-12T14:04:24Z</time>
      </trkpt>
      <trkpt lat="48.74167" lon="-3.02955">
        <ele>87.7</ele>
        <time>2020-08-12T14:04:34Z</time>
      </trkpt>
      <trkpt lat="48.74183" lon="-3.02956">
        <ele>87.8</ele>
        <time>2020-08-12T14:04:42Z</time>
      </trkpt>
      <trkpt lat="48.74191" lon="-3.02956">
        <ele>87.9</ele>
        <time>2020-08-12T14:04:49Z</time>
      </trkpt>
      <trkpt lat="48.74187" lon="-3.02965">
        <ele>88</ele>
        <time>2020-08-12T14:05:02Z</time>
      </trkpt>
      <trkpt lat="48.74187" lon="-3.02965">
        <ele>88</ele>
        <time>2020-08-12T14:05:03Z</time>
      </trkpt>
      <trkpt lat="48.74188" lon="-3.02987">
        <ele>88.4</ele>
        <time>2020-08-12T14:05:18Z</time>
      </trkpt>
      <trkpt lat="48.74187" lon="-3.03001">
        <ele>89</ele>
        <time>2020-08-12T14:05:23Z</time>
      </trkpt>
      <trkpt lat="48.74188" lon="-3.03022">
        <ele>89</ele>
        <time>2020-08-12T14:05:30Z</time>
      </trkpt>
      <trkpt lat="48.74191" lon="-3.03051">
        <ele>89</ele>
        <time>2020-08-12T14:05:40Z</time>
      </trkpt>
      <trkpt lat="48.74193" lon="-3.03083">
        <ele>89</ele>
        <time>2020-08-12T14:05:50Z</time>
      </trkpt>
      <trkpt lat="48.74194" lon="-3.03103">
        <ele>88.6</ele>
        <time>2020-08-12T14:05:56Z</time>
      </trkpt>
      <trkpt lat="48.74194" lon="-3.03114">
        <ele>88.6</ele>
        <time>2020-08-12T14:05:59Z</time>
      </trkpt>
      <trkpt lat="48.74196" lon="-3.03145">
        <ele>88.4</ele>
        <time>2020-08-12T14:06:06Z</time>
      </trkpt>
      <trkpt lat="48.74194" lon="-3.03179">
        <ele>88.3</ele>
        <time>2020-08-12T14:06:13Z</time>
      </trkpt>
      <trkpt lat="48.74187" lon="-3.03197">
        <ele>88.4</ele>
        <time>2020-08-12T14:06:18Z</time>
      </trkpt>
      <trkpt lat="48.74184" lon="-3.032">
        <ele>88.4</ele>
        <time>2020-08-12T14:06:22Z</time>
      </trkpt>
      <trkpt lat="48.74193" lon="-3.03215">
        <ele>88.5</ele>
        <time>2020-08-12T14:06:44Z</time>
      </trkpt>
      <trkpt lat="48.74195" lon="-3.03221">
        <ele>88.6</ele>
        <time>2020-08-12T14:06:46Z</time>
      </trkpt>
      <trkpt lat="48.74198" lon="-3.03243">
        <ele>88.7</ele>
        <time>2020-08-12T14:06:53Z</time>
      </trkpt>
      <trkpt lat="48.74202" lon="-3.0327">
        <ele>89</ele>
        <time>2020-08-12T14:07:00Z</time>
      </trkpt>
      <trkpt lat="48.74208" lon="-3.03294">
        <ele>89</ele>
        <time>2020-08-12T14:07:07Z</time>
      </trkpt>
      <trkpt lat="48.74215" lon="-3.03308">
        <ele>89</ele>
        <time>2020-08-12T14:07:13Z</time>
      </trkpt>
      <trkpt lat="48.74233" lon="-3.03324">
        <ele>89</ele>
        <time>2020-08-12T14:07:21Z</time>
      </trkpt>
      <trkpt lat="48.74254" lon="-3.03342">
        <ele>89.2</ele>
        <time>2020-08-12T14:07:29Z</time>
      </trkpt>
      <trkpt lat="48.74271" lon="-3.03363">
        <ele>89.5</ele>
        <time>2020-08-12T14:07:37Z</time>
      </trkpt>
      <trkpt lat="48.74276" lon="-3.0339">
        <ele>89.8</ele>
        <time>2020-08-12T14:07:44Z</time>
      </trkpt>
      <trkpt lat="48.74269" lon="-3.03423">
        <ele>90.7</ele>
        <time>2020-08-12T14:07:52Z</time>
      </trkpt>
      <trkpt lat="48.7425" lon="-3.03461">
        <ele>90.8</ele>
        <time>2020-08-12T14:08:02Z</time>
      </trkpt>
      <trkpt lat="48.74236" lon="-3.03482">
        <ele>90.9</ele>
        <time>2020-08-12T14:08:08Z</time>
      </trkpt>
      <trkpt lat="48.74228" lon="-3.035">
        <ele>90.9</ele>
        <time>2020-08-12T14:08:14Z</time>
      </trkpt>
      <trkpt lat="48.74218" lon="-3.03522">
        <ele>90.8</ele>
        <time>2020-08-12T14:08:21Z</time>
      </trkpt>
      <trkpt lat="48.74204" lon="-3.03553">
        <ele>90.7</ele>
        <time>2020-08-12T14:08:29Z</time>
      </trkpt>
      <trkpt lat="48.74192" lon="-3.03579">
        <ele>90.5</ele>
        <time>2020-08-12T14:08:36Z</time>
      </trkpt>
      <trkpt lat="48.74189" lon="-3.03601">
        <ele>90.2</ele>
        <time>2020-08-12T14:08:42Z</time>
      </trkpt>
      <trkpt lat="48.74199" lon="-3.03616">
        <ele>90.2</ele>
        <time>2020-08-12T14:08:47Z</time>
      </trkpt>
      <trkpt lat="48.74222" lon="-3.03636">
        <ele>90.4</ele>
        <time>2020-08-12T14:08:55Z</time>
      </trkpt>
      <trkpt lat="48.74255" lon="-3.03664">
        <ele>91</ele>
        <time>2020-08-12T14:09:05Z</time>
      </trkpt>
      <trkpt lat="48.74294" lon="-3.03693">
        <ele>90.2</ele>
        <time>2020-08-12T14:09:16Z</time>
      </trkpt>
      <trkpt lat="48.74333" lon="-3.03716">
        <ele>89.9</ele>
        <time>2020-08-12T14:09:26Z</time>
      </trkpt>
      <trkpt lat="48.74385" lon="-3.03737">
        <ele>90.1</ele>
        <time>2020-08-12T14:09:38Z</time>
      </trkpt>
      <trkpt lat="48.74419" lon="-3.03749">
        <ele>90</ele>
        <time>2020-08-12T14:09:47Z</time>
      </trkpt>
      <trkpt lat="48.74441" lon="-3.03758">
        <ele>89.2</ele>
        <time>2020-08-12T14:09:54Z</time>
      </trkpt>
      <trkpt lat="48.74443" lon="-3.03773">
        <ele>89</ele>
        <time>2020-08-12T14:09:59Z</time>
      </trkpt>
      <trkpt lat="48.74444" lon="-3.03775">
        <ele>89</ele>
        <time>2020-08-12T14:10:02Z</time>
      </trkpt>
      <trkpt lat="48.74441" lon="-3.03772">
        <ele>89</ele>
        <time>2020-08-12T14:10:27Z</time>
      </trkpt>
      <trkpt lat="48.74441" lon="-3.0377">
        <ele>89.1</ele>
        <time>2020-08-12T14:10:30Z</time>
      </trkpt>
      <trkpt lat="48.74449" lon="-3.03761">
        <ele>89.1</ele>
        <time>2020-08-12T14:10:40Z</time>
      </trkpt>
      <trkpt lat="48.74452" lon="-3.03761">
        <ele>89</ele>
        <time>2020-08-12T14:10:41Z</time>
      </trkpt>
      <trkpt lat="48.74483" lon="-3.03769">
        <ele>88.9</ele>
        <time>2020-08-12T14:10:50Z</time>
      </trkpt>
      <trkpt lat="48.74523" lon="-3.03782">
        <ele>87.2</ele>
        <time>2020-08-12T14:11:01Z</time>
      </trkpt>
      <trkpt lat="48.74554" lon="-3.03791">
        <ele>86.5</ele>
        <time>2020-08-12T14:11:10Z</time>
      </trkpt>
      <trkpt lat="48.74591" lon="-3.03802">
        <ele>84.5</ele>
        <time>2020-08-12T14:11:19Z</time>
      </trkpt>
      <trkpt lat="48.74595" lon="-3.03804">
        <ele>84.5</ele>
        <time>2020-08-12T14:11:20Z</time>
      </trkpt>
      <trkpt lat="48.74613" lon="-3.0381">
        <ele>84.3</ele>
        <time>2020-08-12T14:11:24Z</time>
      </trkpt>
      <trkpt lat="48.74651" lon="-3.03823">
        <ele>83.7</ele>
        <time>2020-08-12T14:11:33Z</time>
      </trkpt>
      <trkpt lat="48.74662" lon="-3.03827">
        <ele>83.3</ele>
        <time>2020-08-12T14:11:39Z</time>
      </trkpt>
      <trkpt lat="48.74668" lon="-3.03829">
        <ele>83.2</ele>
        <time>2020-08-12T14:11:45Z</time>
      </trkpt>
      <trkpt lat="48.74678" lon="-3.03834">
        <ele>82.9</ele>
        <time>2020-08-12T14:11:51Z</time>
      </trkpt>
      <trkpt lat="48.74682" lon="-3.03847">
        <ele>82.9</ele>
        <time>2020-08-12T14:11:55Z</time>
      </trkpt>
      <trkpt lat="48.74678" lon="-3.03875">
        <ele>82.7</ele>
        <time>2020-08-12T14:12:01Z</time>
      </trkpt>
      <trkpt lat="48.74671" lon="-3.03903">
        <ele>82.3</ele>
        <time>2020-08-12T14:12:07Z</time>
      </trkpt>
      <trkpt lat="48.7466" lon="-3.03956">
        <ele>82.7</ele>
        <time>2020-08-12T14:12:17Z</time>
      </trkpt>
      <trkpt lat="48.74648" lon="-3.04007">
        <ele>81.5</ele>
        <time>2020-08-12T14:12:26Z</time>
      </trkpt>
      <trkpt lat="48.74635" lon="-3.04066">
        <ele>80.6</ele>
        <time>2020-08-12T14:12:34Z</time>
      </trkpt>
      <trkpt lat="48.74622" lon="-3.04128">
        <ele>77.6</ele>
        <time>2020-08-12T14:12:41Z</time>
      </trkpt>
      <trkpt lat="48.7462" lon="-3.04138">
        <ele>77.4</ele>
        <time>2020-08-12T14:12:42Z</time>
      </trkpt>
      <trkpt lat="48.74607" lon="-3.04197">
        <ele>74</ele>
        <time>2020-08-12T14:12:47Z</time>
      </trkpt>
      <trkpt lat="48.74587" lon="-3.04268">
        <ele>70.4</ele>
        <time>2020-08-12T14:12:52Z</time>
      </trkpt>
      <trkpt lat="48.74572" lon="-3.0435">
        <ele>67.6</ele>
        <time>2020-08-12T14:12:57Z</time>
      </trkpt>
      <trkpt lat="48.74553" lon="-3.04436">
        <ele>62.4</ele>
        <time>2020-08-12T14:13:02Z</time>
      </trkpt>
      <trkpt lat="48.74525" lon="-3.04522">
        <ele>57.5</ele>
        <time>2020-08-12T14:13:07Z</time>
      </trkpt>
      <trkpt lat="48.74499" lon="-3.04601">
        <ele>60.9</ele>
        <time>2020-08-12T14:13:12Z</time>
      </trkpt>
      <trkpt lat="48.74495" lon="-3.04626">
        <ele>62.3</ele>
        <time>2020-08-12T14:13:14Z</time>
      </trkpt>
      <trkpt lat="48.74493" lon="-3.04675">
        <ele>64.7</ele>
        <time>2020-08-12T14:13:19Z</time>
      </trkpt>
      <trkpt lat="48.74492" lon="-3.04705">
        <ele>65.6</ele>
        <time>2020-08-12T14:13:24Z</time>
      </trkpt>
      <trkpt lat="48.74489" lon="-3.04734">
        <ele>66</ele>
        <time>2020-08-12T14:13:32Z</time>
      </trkpt>
      <trkpt lat="48.74485" lon="-3.04767">
        <ele>67.8</ele>
        <time>2020-08-12T14:13:42Z</time>
      </trkpt>
      <trkpt lat="48.74477" lon="-3.04798">
        <ele>69.1</ele>
        <time>2020-08-12T14:13:52Z</time>
      </trkpt>
      <trkpt lat="48.74469" lon="-3.04821">
        <ele>69.6</ele>
        <time>2020-08-12T14:14:01Z</time>
      </trkpt>
      <trkpt lat="48.7446" lon="-3.04842">
        <ele>72</ele>
        <time>2020-08-12T14:14:10Z</time>
      </trkpt>
      <trkpt lat="48.74451" lon="-3.0487">
        <ele>72.4</ele>
        <time>2020-08-12T14:14:21Z</time>
      </trkpt>
      <trkpt lat="48.74441" lon="-3.04902">
        <ele>73</ele>
        <time>2020-08-12T14:14:33Z</time>
      </trkpt>
      <trkpt lat="48.74432" lon="-3.04935">
        <ele>74.3</ele>
        <time>2020-08-12T14:14:45Z</time>
      </trkpt>
      <trkpt lat="48.74426" lon="-3.04955">
        <ele>74.5</ele>
        <time>2020-08-12T14:14:52Z</time>
      </trkpt>
      <trkpt lat="48.74416" lon="-3.04992">
        <ele>75</ele>
        <time>2020-08-12T14:15:04Z</time>
      </trkpt>
      <trkpt lat="48.74409" lon="-3.05016">
        <ele>75.6</ele>
        <time>2020-08-12T14:15:12Z</time>
      </trkpt>
      <trkpt lat="48.74403" lon="-3.05038">
        <ele>76.1</ele>
        <time>2020-08-12T14:15:18Z</time>
      </trkpt>
      <trkpt lat="48.74393" lon="-3.05074">
        <ele>76.7</ele>
        <time>2020-08-12T14:15:27Z</time>
      </trkpt>
      <trkpt lat="48.74382" lon="-3.05116">
        <ele>77.3</ele>
        <time>2020-08-12T14:15:36Z</time>
      </trkpt>
      <trkpt lat="48.7437" lon="-3.05163">
        <ele>77.3</ele>
        <time>2020-08-12T14:15:46Z</time>
      </trkpt>
      <trkpt lat="48.74366" lon="-3.05192">
        <ele>77.9</ele>
        <time>2020-08-12T14:15:52Z</time>
      </trkpt>
      <trkpt lat="48.74363" lon="-3.05236">
        <ele>78.2</ele>
        <time>2020-08-12T14:16:00Z</time>
      </trkpt>
      <trkpt lat="48.74359" lon="-3.05253">
        <ele>78.8</ele>
        <time>2020-08-12T14:16:04Z</time>
      </trkpt>
      <trkpt lat="48.74363" lon="-3.05261">
        <ele>78.8</ele>
        <time>2020-08-12T14:16:08Z</time>
      </trkpt>
      <trkpt lat="48.74363" lon="-3.05261">
        <ele>78.8</ele>
        <time>2020-08-12T14:16:09Z</time>
      </trkpt>
      <trkpt lat="48.74372" lon="-3.05264">
        <ele>78.7</ele>
        <time>2020-08-12T14:17:24Z</time>
      </trkpt>
      <trkpt lat="48.74391" lon="-3.05276">
        <ele>78.6</ele>
        <time>2020-08-12T14:17:31Z</time>
      </trkpt>
      <trkpt lat="48.74411" lon="-3.05289">
        <ele>78.5</ele>
        <time>2020-08-12T14:17:38Z</time>
      </trkpt>
      <trkpt lat="48.74421" lon="-3.05308">
        <ele>78</ele>
        <time>2020-08-12T14:17:44Z</time>
      </trkpt>
      <trkpt lat="48.7442" lon="-3.05326">
        <ele>78</ele>
        <time>2020-08-12T14:17:48Z</time>
      </trkpt>
      <trkpt lat="48.74408" lon="-3.0536">
        <ele>79.2</ele>
        <time>2020-08-12T14:17:56Z</time>
      </trkpt>
      <trkpt lat="48.74398" lon="-3.05393">
        <ele>79.8</ele>
        <time>2020-08-12T14:18:03Z</time>
      </trkpt>
      <trkpt lat="48.74396" lon="-3.05429">
        <ele>80.2</ele>
        <time>2020-08-12T14:18:10Z</time>
      </trkpt>
      <trkpt lat="48.74406" lon="-3.05454">
        <ele>80</ele>
        <time>2020-08-12T14:18:16Z</time>
      </trkpt>
      <trkpt lat="48.74417" lon="-3.0548">
        <ele>79.4</ele>
        <time>2020-08-12T14:18:23Z</time>
      </trkpt>
      <trkpt lat="48.74425" lon="-3.05514">
        <ele>79.4</ele>
        <time>2020-08-12T14:18:31Z</time>
      </trkpt>
      <trkpt lat="48.74425" lon="-3.05549">
        <ele>79.7</ele>
        <time>2020-08-12T14:18:39Z</time>
      </trkpt>
      <trkpt lat="48.74425" lon="-3.056">
        <ele>79.6</ele>
        <time>2020-08-12T14:18:49Z</time>
      </trkpt>
      <trkpt lat="48.74425" lon="-3.05642">
        <ele>79.2</ele>
        <time>2020-08-12T14:18:57Z</time>
      </trkpt>
      <trkpt lat="48.74424" lon="-3.05688">
        <ele>78.4</ele>
        <time>2020-08-12T14:19:05Z</time>
      </trkpt>
      <trkpt lat="48.74419" lon="-3.05735">
        <ele>78</ele>
        <time>2020-08-12T14:19:13Z</time>
      </trkpt>
      <trkpt lat="48.74416" lon="-3.05767">
        <ele>77.9</ele>
        <time>2020-08-12T14:19:20Z</time>
      </trkpt>
      <trkpt lat="48.74408" lon="-3.05797">
        <ele>77.6</ele>
        <time>2020-08-12T14:19:29Z</time>
      </trkpt>
      <trkpt lat="48.74406" lon="-3.05817">
        <ele>77.1</ele>
        <time>2020-08-12T14:19:34Z</time>
      </trkpt>
      <trkpt lat="48.74399" lon="-3.05854">
        <ele>76.7</ele>
        <time>2020-08-12T14:19:42Z</time>
      </trkpt>
      <trkpt lat="48.74397" lon="-3.0587">
        <ele>76.8</ele>
        <time>2020-08-12T14:19:47Z</time>
      </trkpt>
      <trkpt lat="48.74397" lon="-3.0587">
        <ele>76.8</ele>
        <time>2020-08-12T14:19:48Z</time>
      </trkpt>
      <trkpt lat="48.74395" lon="-3.0588">
        <ele>76.8</ele>
        <time>2020-08-12T14:20:41Z</time>
      </trkpt>
      <trkpt lat="48.74391" lon="-3.05907">
        <ele>76.7</ele>
        <time>2020-08-12T14:20:48Z</time>
      </trkpt>
      <trkpt lat="48.74387" lon="-3.05946">
        <ele>77.7</ele>
        <time>2020-08-12T14:20:55Z</time>
      </trkpt>
      <trkpt lat="48.74385" lon="-3.05975">
        <ele>78</ele>
        <time>2020-08-12T14:20:59Z</time>
      </trkpt>
      <trkpt lat="48.74381" lon="-3.06042">
        <ele>78.3</ele>
        <time>2020-08-12T14:21:07Z</time>
      </trkpt>
      <trkpt lat="48.7438" lon="-3.06094">
        <ele>75.6</ele>
        <time>2020-08-12T14:21:12Z</time>
      </trkpt>
      <trkpt lat="48.74385" lon="-3.06126">
        <ele>74.4</ele>
        <time>2020-08-12T14:21:15Z</time>
      </trkpt>
      <trkpt lat="48.74391" lon="-3.06153">
        <ele>72.9</ele>
        <time>2020-08-12T14:21:18Z</time>
      </trkpt>
      <trkpt lat="48.74403" lon="-3.06199">
        <ele>70.8</ele>
        <time>2020-08-12T14:21:23Z</time>
      </trkpt>
      <trkpt lat="48.74424" lon="-3.06245">
        <ele>70.3</ele>
        <time>2020-08-12T14:21:30Z</time>
      </trkpt>
      <trkpt lat="48.7443" lon="-3.06265">
        <ele>71</ele>
        <time>2020-08-12T14:21:35Z</time>
      </trkpt>
      <trkpt lat="48.74433" lon="-3.06277">
        <ele>71</ele>
        <time>2020-08-12T14:21:41Z</time>
      </trkpt>
      <trkpt lat="48.74438" lon="-3.06299">
        <ele>71.2</ele>
        <time>2020-08-12T14:21:50Z</time>
      </trkpt>
      <trkpt lat="48.74444" lon="-3.06328">
        <ele>71.4</ele>
        <time>2020-08-12T14:21:58Z</time>
      </trkpt>
      <trkpt lat="48.74451" lon="-3.06362">
        <ele>72.6</ele>
        <time>2020-08-12T14:22:07Z</time>
      </trkpt>
      <trkpt lat="48.74456" lon="-3.06401">
        <ele>73</ele>
        <time>2020-08-12T14:22:16Z</time>
      </trkpt>
      <trkpt lat="48.74456" lon="-3.06438">
        <ele>74.1</ele>
        <time>2020-08-12T14:22:24Z</time>
      </trkpt>
      <trkpt lat="48.7445" lon="-3.06484">
        <ele>74.7</ele>
        <time>2020-08-12T14:22:33Z</time>
      </trkpt>
      <trkpt lat="48.74447" lon="-3.06536">
        <ele>75.9</ele>
        <time>2020-08-12T14:22:43Z</time>
      </trkpt>
      <trkpt lat="48.74451" lon="-3.06567">
        <ele>76</ele>
        <time>2020-08-12T14:22:49Z</time>
      </trkpt>
      <trkpt lat="48.74466" lon="-3.06593">
        <ele>76.6</ele>
        <time>2020-08-12T14:22:55Z</time>
      </trkpt>
      <trkpt lat="48.7449" lon="-3.06628">
        <ele>76.7</ele>
        <time>2020-08-12T14:23:04Z</time>
      </trkpt>
      <trkpt lat="48.74503" lon="-3.06669">
        <ele>76.8</ele>
        <time>2020-08-12T14:23:12Z</time>
      </trkpt>
      <trkpt lat="48.74514" lon="-3.06717">
        <ele>76</ele>
        <time>2020-08-12T14:23:21Z</time>
      </trkpt>
      <trkpt lat="48.74537" lon="-3.06765">
        <ele>75.4</ele>
        <time>2020-08-12T14:23:30Z</time>
      </trkpt>
      <trkpt lat="48.74565" lon="-3.06804">
        <ele>74.9</ele>
        <time>2020-08-12T14:23:39Z</time>
      </trkpt>
      <trkpt lat="48.74592" lon="-3.06838">
        <ele>73.7</ele>
        <time>2020-08-12T14:23:48Z</time>
      </trkpt>
      <trkpt lat="48.74603" lon="-3.06844">
        <ele>73.4</ele>
        <time>2020-08-12T14:23:52Z</time>
      </trkpt>
      <trkpt lat="48.74606" lon="-3.06843">
        <ele>73.4</ele>
        <time>2020-08-12T14:23:55Z</time>
      </trkpt>
      <trkpt lat="48.74608" lon="-3.06825">
        <ele>73.3</ele>
        <time>2020-08-12T14:24:14Z</time>
      </trkpt>
      <trkpt lat="48.74614" lon="-3.06801">
        <ele>73.1</ele>
        <time>2020-08-12T14:24:20Z</time>
      </trkpt>
      <trkpt lat="48.74619" lon="-3.0677">
        <ele>73.1</ele>
        <time>2020-08-12T14:24:27Z</time>
      </trkpt>
      <trkpt lat="48.74625" lon="-3.06747">
        <ele>73.2</ele>
        <time>2020-08-12T14:24:33Z</time>
      </trkpt>
      <trkpt lat="48.74625" lon="-3.06746">
        <ele>73.2</ele>
        <time>2020-08-12T14:24:35Z</time>
      </trkpt>
      <trkpt lat="48.7462" lon="-3.06742">
        <ele>73.2</ele>
        <time>2020-08-12T14:24:47Z</time>
      </trkpt>
      <trkpt lat="48.74618" lon="-3.06739">
        <ele>73.3</ele>
        <time>2020-08-12T14:24:51Z</time>
      </trkpt>
      <trkpt lat="48.74617" lon="-3.06736">
        <ele>73.3</ele>
        <time>2020-08-12T14:24:56Z</time>
      </trkpt>
      <trkpt lat="48.74621" lon="-3.06729">
        <ele>73.2</ele>
        <time>2020-08-12T14:32:04Z</time>
      </trkpt>
      <trkpt lat="48.74622" lon="-3.06738">
        <ele>73.2</ele>
        <time>2020-08-12T14:53:25Z</time>
      </trkpt>
      <trkpt lat="48.74622" lon="-3.06738">
        <ele>73.2</ele>
        <time>2020-08-12T14:53:26Z</time>
      </trkpt>
      <trkpt lat="48.74623" lon="-3.06738">
        <ele>73.2</ele>
        <time>2020-08-12T14:53:27Z</time>
      </trkpt>
      <trkpt lat="48.74631" lon="-3.06731">
        <ele>73.1</ele>
        <time>2020-08-12T14:53:35Z</time>
      </trkpt>
      <trkpt lat="48.74623" lon="-3.06733">
        <ele>73.2</ele>
        <time>2020-08-12T14:53:42Z</time>
      </trkpt>
      <trkpt lat="48.74621" lon="-3.06734">
        <ele>73.2</ele>
        <time>2020-08-12T14:53:43Z</time>
      </trkpt>
      <trkpt lat="48.74623" lon="-3.06731">
        <ele>73.2</ele>
        <time>2020-08-12T14:53:47Z</time>
      </trkpt>
      <trkpt lat="48.74613" lon="-3.06737">
        <ele>73.4</ele>
        <time>2020-08-12T14:53:56Z</time>
      </trkpt>
      <trkpt lat="48.74612" lon="-3.06736">
        <ele>73.4</ele>
        <time>2020-08-12T14:53:57Z</time>
      </trkpt>
      <trkpt lat="48.74622" lon="-3.06746">
        <ele>73.2</ele>
        <time>2020-08-12T14:54:34Z</time>
      </trkpt>
      <trkpt lat="48.7462" lon="-3.0674">
        <ele>73.2</ele>
        <time>2020-08-12T14:54:43Z</time>
      </trkpt>
      <trkpt lat="48.74635" lon="-3.06741">
        <ele>73</ele>
        <time>2020-08-12T14:56:26Z</time>
      </trkpt>
      <trkpt lat="48.74624" lon="-3.06729">
        <ele>73.2</ele>
        <time>2020-08-12T14:56:38Z</time>
      </trkpt>
      <trkpt lat="48.74622" lon="-3.06728">
        <ele>73.2</ele>
        <time>2020-08-12T14:56:39Z</time>
      </trkpt>
      <trkpt lat="48.76502" lon="-3.05582">
        <ele>31.7</ele>
        <time>2020-08-13T06:32:11Z</time>
      </trkpt>
      <trkpt lat="48.76515" lon="-3.05615">
        <ele>32.2</ele>
        <time>2020-08-13T06:32:17Z</time>
      </trkpt>
      <trkpt lat="48.76543" lon="-3.05684">
        <ele>33.3</ele>
        <time>2020-08-13T06:32:30Z</time>
      </trkpt>
      <trkpt lat="48.76562" lon="-3.05721">
        <ele>32.9</ele>
        <time>2020-08-13T06:32:38Z</time>
      </trkpt>
      <trkpt lat="48.76586" lon="-3.05741">
        <ele>30.4</ele>
        <time>2020-08-13T06:32:45Z</time>
      </trkpt>
      <trkpt lat="48.766" lon="-3.05738">
        <ele>29.9</ele>
        <time>2020-08-13T06:32:49Z</time>
      </trkpt>
      <trkpt lat="48.76604" lon="-3.05735">
        <ele>29.7</ele>
        <time>2020-08-13T06:32:50Z</time>
      </trkpt>
      <trkpt lat="48.76628" lon="-3.05724">
        <ele>28.9</ele>
        <time>2020-08-13T06:32:56Z</time>
      </trkpt>
      <trkpt lat="48.76647" lon="-3.05732">
        <ele>28.3</ele>
        <time>2020-08-13T06:33:00Z</time>
      </trkpt>
      <trkpt lat="48.76659" lon="-3.05745">
        <ele>27.6</ele>
        <time>2020-08-13T06:33:04Z</time>
      </trkpt>
      <trkpt lat="48.76679" lon="-3.05748">
        <ele>26.2</ele>
        <time>2020-08-13T06:33:09Z</time>
      </trkpt>
      <trkpt lat="48.76702" lon="-3.05736">
        <ele>25.2</ele>
        <time>2020-08-13T06:33:13Z</time>
      </trkpt>
      <trkpt lat="48.76761" lon="-3.05683">
        <ele>22.5</ele>
        <time>2020-08-13T06:33:22Z</time>
      </trkpt>
      <trkpt lat="48.76814" lon="-3.05633">
        <ele>21.7</ele>
        <time>2020-08-13T06:33:30Z</time>
      </trkpt>
      <trkpt lat="48.76867" lon="-3.05584">
        <ele>19.9</ele>
        <time>2020-08-13T06:33:38Z</time>
      </trkpt>
      <trkpt lat="48.76914" lon="-3.05536">
        <ele>18.8</ele>
        <time>2020-08-13T06:33:46Z</time>
      </trkpt>
      <trkpt lat="48.76953" lon="-3.05496">
        <ele>18</ele>
        <time>2020-08-13T06:33:53Z</time>
      </trkpt>
      <trkpt lat="48.76991" lon="-3.05456">
        <ele>17.8</ele>
        <time>2020-08-13T06:34:00Z</time>
      </trkpt>
      <trkpt lat="48.77038" lon="-3.05407">
        <ele>16.4</ele>
        <time>2020-08-13T06:34:09Z</time>
      </trkpt>
      <trkpt lat="48.77083" lon="-3.05369">
        <ele>16.1</ele>
        <time>2020-08-13T06:34:18Z</time>
      </trkpt>
      <trkpt lat="48.77121" lon="-3.05351">
        <ele>15.7</ele>
        <time>2020-08-13T06:34:25Z</time>
      </trkpt>
      <trkpt lat="48.77161" lon="-3.05328">
        <ele>15.1</ele>
        <time>2020-08-13T06:34:32Z</time>
      </trkpt>
      <trkpt lat="48.77201" lon="-3.05288">
        <ele>14.5</ele>
        <time>2020-08-13T06:34:40Z</time>
      </trkpt>
      <trkpt lat="48.77239" lon="-3.05246">
        <ele>14</ele>
        <time>2020-08-13T06:34:48Z</time>
      </trkpt>
      <trkpt lat="48.77271" lon="-3.05211">
        <ele>13.1</ele>
        <time>2020-08-13T06:34:54Z</time>
      </trkpt>
      <trkpt lat="48.77322" lon="-3.05156">
        <ele>11.1</ele>
        <time>2020-08-13T06:35:02Z</time>
      </trkpt>
      <trkpt lat="48.77375" lon="-3.05099">
        <ele>9.9</ele>
        <time>2020-08-13T06:35:10Z</time>
      </trkpt>
      <trkpt lat="48.77419" lon="-3.05057">
        <ele>8.7</ele>
        <time>2020-08-13T06:35:17Z</time>
      </trkpt>
      <trkpt lat="48.77442" lon="-3.05034">
        <ele>8.6</ele>
        <time>2020-08-13T06:35:21Z</time>
      </trkpt>
      <trkpt lat="48.77459" lon="-3.05004">
        <ele>8.5</ele>
        <time>2020-08-13T06:35:25Z</time>
      </trkpt>
      <trkpt lat="48.77484" lon="-3.04945">
        <ele>7.7</ele>
        <time>2020-08-13T06:35:33Z</time>
      </trkpt>
      <trkpt lat="48.77507" lon="-3.04894">
        <ele>6.4</ele>
        <time>2020-08-13T06:35:41Z</time>
      </trkpt>
      <trkpt lat="48.7751" lon="-3.04888">
        <ele>6.3</ele>
        <time>2020-08-13T06:35:42Z</time>
      </trkpt>
      <trkpt lat="48.77516" lon="-3.04859">
        <ele>6.1</ele>
        <time>2020-08-13T06:35:47Z</time>
      </trkpt>
      <trkpt lat="48.77519" lon="-3.04856">
        <ele>6.1</ele>
        <time>2020-08-13T06:35:48Z</time>
      </trkpt>
      <trkpt lat="48.7753" lon="-3.04863">
        <ele>6</ele>
        <time>2020-08-13T06:35:52Z</time>
      </trkpt>
      <trkpt lat="48.77535" lon="-3.04873">
        <ele>6</ele>
        <time>2020-08-13T06:35:55Z</time>
      </trkpt>
      <trkpt lat="48.77555" lon="-3.04896">
        <ele>5.8</ele>
        <time>2020-08-13T06:36:03Z</time>
      </trkpt>
      <trkpt lat="48.77582" lon="-3.04919">
        <ele>5.2</ele>
        <time>2020-08-13T06:36:11Z</time>
      </trkpt>
      <trkpt lat="48.77602" lon="-3.04923">
        <ele>5.3</ele>
        <time>2020-08-13T06:36:16Z</time>
      </trkpt>
      <trkpt lat="48.77612" lon="-3.04914">
        <ele>5.2</ele>
        <time>2020-08-13T06:36:19Z</time>
      </trkpt>
      <trkpt lat="48.77635" lon="-3.04858">
        <ele>5.2</ele>
        <time>2020-08-13T06:36:29Z</time>
      </trkpt>
      <trkpt lat="48.77664" lon="-3.04791">
        <ele>5.7</ele>
        <time>2020-08-13T06:36:40Z</time>
      </trkpt>
      <trkpt lat="48.77688" lon="-3.04732">
        <ele>5.8</ele>
        <time>2020-08-13T06:36:49Z</time>
      </trkpt>
      <trkpt lat="48.77706" lon="-3.04684">
        <ele>5.7</ele>
        <time>2020-08-13T06:36:56Z</time>
      </trkpt>
      <trkpt lat="48.77735" lon="-3.04615">
        <ele>5.7</ele>
        <time>2020-08-13T06:37:07Z</time>
      </trkpt>
      <trkpt lat="48.77758" lon="-3.04558">
        <ele>6</ele>
        <time>2020-08-13T06:37:16Z</time>
      </trkpt>
      <trkpt lat="48.7779" lon="-3.04483">
        <ele>6</ele>
        <time>2020-08-13T06:37:28Z</time>
      </trkpt>
      <trkpt lat="48.77803" lon="-3.04455">
        <ele>6</ele>
        <time>2020-08-13T06:37:33Z</time>
      </trkpt>
      <trkpt lat="48.77819" lon="-3.04425">
        <ele>6</ele>
        <time>2020-08-13T06:37:40Z</time>
      </trkpt>
      <trkpt lat="48.77822" lon="-3.0441">
        <ele>6.1</ele>
        <time>2020-08-13T06:37:44Z</time>
      </trkpt>
      <trkpt lat="48.77819" lon="-3.04389">
        <ele>6.2</ele>
        <time>2020-08-13T06:37:49Z</time>
      </trkpt>
      <trkpt lat="48.77819" lon="-3.04368">
        <ele>6.2</ele>
        <time>2020-08-13T06:37:53Z</time>
      </trkpt>
      <trkpt lat="48.77829" lon="-3.04353">
        <ele>6.1</ele>
        <time>2020-08-13T06:37:57Z</time>
      </trkpt>
      <trkpt lat="48.77843" lon="-3.04356">
        <ele>6.1</ele>
        <time>2020-08-13T06:38:01Z</time>
      </trkpt>
      <trkpt lat="48.7785" lon="-3.04371">
        <ele>6.2</ele>
        <time>2020-08-13T06:38:05Z</time>
      </trkpt>
      <trkpt lat="48.77851" lon="-3.04398">
        <ele>6.2</ele>
        <time>2020-08-13T06:38:10Z</time>
      </trkpt>
      <trkpt lat="48.77859" lon="-3.04438">
        <ele>6.5</ele>
        <time>2020-08-13T06:38:16Z</time>
      </trkpt>
      <trkpt lat="48.77868" lon="-3.04467">
        <ele>6.7</ele>
        <time>2020-08-13T06:38:20Z</time>
      </trkpt>
      <trkpt lat="48.77881" lon="-3.04486">
        <ele>6.9</ele>
        <time>2020-08-13T06:38:24Z</time>
      </trkpt>
      <trkpt lat="48.7789" lon="-3.04482">
        <ele>7</ele>
        <time>2020-08-13T06:38:26Z</time>
      </trkpt>
      <trkpt lat="48.77919" lon="-3.04464">
        <ele>6.9</ele>
        <time>2020-08-13T06:38:33Z</time>
      </trkpt>
      <trkpt lat="48.77948" lon="-3.04453">
        <ele>6.5</ele>
        <time>2020-08-13T06:38:40Z</time>
      </trkpt>
      <trkpt lat="48.77983" lon="-3.04449">
        <ele>5.9</ele>
        <time>2020-08-13T06:38:47Z</time>
      </trkpt>
      <trkpt lat="48.78025" lon="-3.04454">
        <ele>4.8</ele>
        <time>2020-08-13T06:38:55Z</time>
      </trkpt>
      <trkpt lat="48.78044" lon="-3.04464">
        <ele>4.8</ele>
        <time>2020-08-13T06:38:59Z</time>
      </trkpt>
      <trkpt lat="48.78074" lon="-3.04499">
        <ele>5</ele>
        <time>2020-08-13T06:39:07Z</time>
      </trkpt>
      <trkpt lat="48.78104" lon="-3.04524">
        <ele>6.1</ele>
        <time>2020-08-13T06:39:14Z</time>
      </trkpt>
      <trkpt lat="48.78116" lon="-3.04533">
        <ele>6.3</ele>
        <time>2020-08-13T06:39:17Z</time>
      </trkpt>
      <trkpt lat="48.7814" lon="-3.04531">
        <ele>6.3</ele>
        <time>2020-08-13T06:39:22Z</time>
      </trkpt>
      <trkpt lat="48.7818" lon="-3.04505">
        <ele>5.9</ele>
        <time>2020-08-13T06:39:31Z</time>
      </trkpt>
      <trkpt lat="48.78198" lon="-3.04504">
        <ele>6.4</ele>
        <time>2020-08-13T06:39:35Z</time>
      </trkpt>
      <trkpt lat="48.78225" lon="-3.04517">
        <ele>6.9</ele>
        <time>2020-08-13T06:39:40Z</time>
      </trkpt>
      <trkpt lat="48.78245" lon="-3.04551">
        <ele>7.3</ele>
        <time>2020-08-13T06:39:45Z</time>
      </trkpt>
      <trkpt lat="48.7825" lon="-3.04567">
        <ele>7.6</ele>
        <time>2020-08-13T06:39:47Z</time>
      </trkpt>
      <trkpt lat="48.78256" lon="-3.04602">
        <ele>7.1</ele>
        <time>2020-08-13T06:39:51Z</time>
      </trkpt>
      <trkpt lat="48.78259" lon="-3.04693">
        <ele>7.4</ele>
        <time>2020-08-13T06:40:01Z</time>
      </trkpt>
      <trkpt lat="48.7826" lon="-3.04736">
        <ele>7.4</ele>
        <time>2020-08-13T06:40:06Z</time>
      </trkpt>
      <trkpt lat="48.7827" lon="-3.04771">
        <ele>7.5</ele>
        <time>2020-08-13T06:40:11Z</time>
      </trkpt>
      <trkpt lat="48.78283" lon="-3.0478">
        <ele>7.7</ele>
        <time>2020-08-13T06:40:14Z</time>
      </trkpt>
      <trkpt lat="48.78299" lon="-3.04792">
        <ele>7.9</ele>
        <time>2020-08-13T06:40:18Z</time>
      </trkpt>
      <trkpt lat="48.78304" lon="-3.04804">
        <ele>7.8</ele>
        <time>2020-08-13T06:40:20Z</time>
      </trkpt>
      <trkpt lat="48.78321" lon="-3.04826">
        <ele>7.9</ele>
        <time>2020-08-13T06:40:25Z</time>
      </trkpt>
      <trkpt lat="48.78346" lon="-3.04835">
        <ele>8.9</ele>
        <time>2020-08-13T06:40:32Z</time>
      </trkpt>
      <trkpt lat="48.78368" lon="-3.04844">
        <ele>9.8</ele>
        <time>2020-08-13T06:40:40Z</time>
      </trkpt>
      <trkpt lat="48.78385" lon="-3.0485">
        <ele>10.3</ele>
        <time>2020-08-13T06:40:46Z</time>
      </trkpt>
      <trkpt lat="48.78403" lon="-3.04856">
        <ele>10.5</ele>
        <time>2020-08-13T06:40:52Z</time>
      </trkpt>
      <trkpt lat="48.7843" lon="-3.04864">
        <ele>11.4</ele>
        <time>2020-08-13T06:41:01Z</time>
      </trkpt>
      <trkpt lat="48.78459" lon="-3.04869">
        <ele>11.5</ele>
        <time>2020-08-13T06:41:09Z</time>
      </trkpt>
      <trkpt lat="48.78489" lon="-3.04873">
        <ele>11.5</ele>
        <time>2020-08-13T06:41:16Z</time>
      </trkpt>
      <trkpt lat="48.78528" lon="-3.04878">
        <ele>10.7</ele>
        <time>2020-08-13T06:41:24Z</time>
      </trkpt>
      <trkpt lat="48.78572" lon="-3.04884">
        <ele>10.1</ele>
        <time>2020-08-13T06:41:32Z</time>
      </trkpt>
      <trkpt lat="48.78598" lon="-3.04889">
        <ele>9.1</ele>
        <time>2020-08-13T06:41:36Z</time>
      </trkpt>
      <trkpt lat="48.78645" lon="-3.0488">
        <ele>8.9</ele>
        <time>2020-08-13T06:41:43Z</time>
      </trkpt>
      <trkpt lat="48.78691" lon="-3.04881">
        <ele>9.5</ele>
        <time>2020-08-13T06:41:50Z</time>
      </trkpt>
      <trkpt lat="48.78739" lon="-3.04886">
        <ele>10</ele>
        <time>2020-08-13T06:41:58Z</time>
      </trkpt>
      <trkpt lat="48.78764" lon="-3.04893">
        <ele>12.8</ele>
        <time>2020-08-13T06:42:04Z</time>
      </trkpt>
      <trkpt lat="48.78789" lon="-3.049">
        <ele>13.8</ele>
        <time>2020-08-13T06:42:12Z</time>
      </trkpt>
      <trkpt lat="48.7881" lon="-3.04904">
        <ele>14.7</ele>
        <time>2020-08-13T06:42:20Z</time>
      </trkpt>
      <trkpt lat="48.7884" lon="-3.04912">
        <ele>17.1</ele>
        <time>2020-08-13T06:42:31Z</time>
      </trkpt>
      <trkpt lat="48.78867" lon="-3.04919">
        <ele>18.6</ele>
        <time>2020-08-13T06:42:42Z</time>
      </trkpt>
      <trkpt lat="48.78888" lon="-3.04925">
        <ele>19.7</ele>
        <time>2020-08-13T06:42:51Z</time>
      </trkpt>
      <trkpt lat="48.78906" lon="-3.04929">
        <ele>20.6</ele>
        <time>2020-08-13T06:42:59Z</time>
      </trkpt>
      <trkpt lat="48.78921" lon="-3.04927">
        <ele>21.9</ele>
        <time>2020-08-13T06:43:06Z</time>
      </trkpt>
      <trkpt lat="48.78943" lon="-3.04924">
        <ele>21.7</ele>
        <time>2020-08-13T06:43:14Z</time>
      </trkpt>
      <trkpt lat="48.7897" lon="-3.04918">
        <ele>21.3</ele>
        <time>2020-08-13T06:43:23Z</time>
      </trkpt>
      <trkpt lat="48.78991" lon="-3.04904">
        <ele>20.2</ele>
        <time>2020-08-13T06:43:30Z</time>
      </trkpt>
      <trkpt lat="48.79005" lon="-3.04884">
        <ele>18.9</ele>
        <time>2020-08-13T06:43:36Z</time>
      </trkpt>
      <trkpt lat="48.79018" lon="-3.0488">
        <ele>18.7</ele>
        <time>2020-08-13T06:43:41Z</time>
      </trkpt>
      <trkpt lat="48.7903" lon="-3.04874">
        <ele>18.6</ele>
        <time>2020-08-13T06:43:45Z</time>
      </trkpt>
      <trkpt lat="48.79038" lon="-3.04866">
        <ele>18.4</ele>
        <time>2020-08-13T06:43:47Z</time>
      </trkpt>
      <trkpt lat="48.7907" lon="-3.0482">
        <ele>17</ele>
        <time>2020-08-13T06:43:55Z</time>
      </trkpt>
      <trkpt lat="48.79097" lon="-3.04763">
        <ele>15.7</ele>
        <time>2020-08-13T06:44:03Z</time>
      </trkpt>
      <trkpt lat="48.79119" lon="-3.04676">
        <ele>15.3</ele>
        <time>2020-08-13T06:44:12Z</time>
      </trkpt>
      <trkpt lat="48.79143" lon="-3.04586">
        <ele>14.9</ele>
        <time>2020-08-13T06:44:22Z</time>
      </trkpt>
      <trkpt lat="48.79165" lon="-3.04503">
        <ele>14</ele>
        <time>2020-08-13T06:44:32Z</time>
      </trkpt>
      <trkpt lat="48.79179" lon="-3.04449">
        <ele>15</ele>
        <time>2020-08-13T06:44:40Z</time>
      </trkpt>
      <trkpt lat="48.792" lon="-3.04372">
        <ele>15.4</ele>
        <time>2020-08-13T06:44:52Z</time>
      </trkpt>
      <trkpt lat="48.79221" lon="-3.04297">
        <ele>15.9</ele>
        <time>2020-08-13T06:45:03Z</time>
      </trkpt>
      <trkpt lat="48.7924" lon="-3.04224">
        <ele>16.1</ele>
        <time>2020-08-13T06:45:13Z</time>
      </trkpt>
      <trkpt lat="48.79256" lon="-3.04157">
        <ele>17.3</ele>
        <time>2020-08-13T06:45:23Z</time>
      </trkpt>
      <trkpt lat="48.79261" lon="-3.04113">
        <ele>17.4</ele>
        <time>2020-08-13T06:45:30Z</time>
      </trkpt>
      <trkpt lat="48.79263" lon="-3.04068">
        <ele>17.9</ele>
        <time>2020-08-13T06:45:39Z</time>
      </trkpt>
      <trkpt lat="48.79262" lon="-3.04051">
        <ele>18.5</ele>
        <time>2020-08-13T06:45:45Z</time>
      </trkpt>
      <trkpt lat="48.79262" lon="-3.04051">
        <ele>18.5</ele>
        <time>2020-08-13T06:45:47Z</time>
      </trkpt>
      <trkpt lat="48.79267" lon="-3.04052">
        <ele>18.6</ele>
        <time>2020-08-13T06:46:30Z</time>
      </trkpt>
      <trkpt lat="48.79268" lon="-3.04045">
        <ele>18.8</ele>
        <time>2020-08-13T06:46:34Z</time>
      </trkpt>
      <trkpt lat="48.79267" lon="-3.04019">
        <ele>19</ele>
        <time>2020-08-13T06:46:41Z</time>
      </trkpt>
      <trkpt lat="48.79263" lon="-3.03991">
        <ele>21.4</ele>
        <time>2020-08-13T06:46:48Z</time>
      </trkpt>
      <trkpt lat="48.79257" lon="-3.03963">
        <ele>23.8</ele>
        <time>2020-08-13T06:46:56Z</time>
      </trkpt>
      <trkpt lat="48.79251" lon="-3.03933">
        <ele>25.4</ele>
        <time>2020-08-13T06:47:05Z</time>
      </trkpt>
      <trkpt lat="48.79245" lon="-3.0391">
        <ele>25.6</ele>
        <time>2020-08-13T06:47:13Z</time>
      </trkpt>
      <trkpt lat="48.79241" lon="-3.03881">
        <ele>26.2</ele>
        <time>2020-08-13T06:47:23Z</time>
      </trkpt>
      <trkpt lat="48.79238" lon="-3.03862">
        <ele>27.8</ele>
        <time>2020-08-13T06:47:31Z</time>
      </trkpt>
      <trkpt lat="48.79237" lon="-3.03842">
        <ele>30.6</ele>
        <time>2020-08-13T06:47:38Z</time>
      </trkpt>
      <trkpt lat="48.79235" lon="-3.03811">
        <ele>32.5</ele>
        <time>2020-08-13T06:47:48Z</time>
      </trkpt>
      <trkpt lat="48.79234" lon="-3.03789">
        <ele>32.7</ele>
        <time>2020-08-13T06:47:56Z</time>
      </trkpt>
      <trkpt lat="48.79234" lon="-3.03774">
        <ele>33.7</ele>
        <time>2020-08-13T06:48:01Z</time>
      </trkpt>
      <trkpt lat="48.79233" lon="-3.03754">
        <ele>35.4</ele>
        <time>2020-08-13T06:48:08Z</time>
      </trkpt>
      <trkpt lat="48.79232" lon="-3.03724">
        <ele>35</ele>
        <time>2020-08-13T06:48:18Z</time>
      </trkpt>
      <trkpt lat="48.79232" lon="-3.03701">
        <ele>34.6</ele>
        <time>2020-08-13T06:48:26Z</time>
      </trkpt>
      <trkpt lat="48.79232" lon="-3.03674">
        <ele>35.9</ele>
        <time>2020-08-13T06:48:35Z</time>
      </trkpt>
      <trkpt lat="48.79235" lon="-3.03649">
        <ele>36.2</ele>
        <time>2020-08-13T06:48:44Z</time>
      </trkpt>
      <trkpt lat="48.7924" lon="-3.03624">
        <ele>35.6</ele>
        <time>2020-08-13T06:48:53Z</time>
      </trkpt>
      <trkpt lat="48.79252" lon="-3.03596">
        <ele>40.2</ele>
        <time>2020-08-13T06:49:03Z</time>
      </trkpt>
      <trkpt lat="48.79264" lon="-3.03576">
        <ele>39.4</ele>
        <time>2020-08-13T06:49:12Z</time>
      </trkpt>
      <trkpt lat="48.79278" lon="-3.0356">
        <ele>40.4</ele>
        <time>2020-08-13T06:49:20Z</time>
      </trkpt>
      <trkpt lat="48.79297" lon="-3.03548">
        <ele>41</ele>
        <time>2020-08-13T06:49:30Z</time>
      </trkpt>
      <trkpt lat="48.79319" lon="-3.03538">
        <ele>41.4</ele>
        <time>2020-08-13T06:49:41Z</time>
      </trkpt>
      <trkpt lat="48.79339" lon="-3.03529">
        <ele>43.7</ele>
        <time>2020-08-13T06:49:51Z</time>
      </trkpt>
      <trkpt lat="48.79363" lon="-3.03519">
        <ele>43.9</ele>
        <time>2020-08-13T06:50:03Z</time>
      </trkpt>
      <trkpt lat="48.79376" lon="-3.03512">
        <ele>44.1</ele>
        <time>2020-08-13T06:50:10Z</time>
      </trkpt>
      <trkpt lat="48.79394" lon="-3.03506">
        <ele>44.3</ele>
        <time>2020-08-13T06:50:18Z</time>
      </trkpt>
      <trkpt lat="48.80045" lon="-3.03186">
        <ele>54.7</ele>
        <time>2020-08-13T06:53:34Z</time>
      </trkpt>
      <trkpt lat="48.8007" lon="-3.03159">
        <ele>53.8</ele>
        <time>2020-08-13T06:53:41Z</time>
      </trkpt>
      <trkpt lat="48.80094" lon="-3.03128">
        <ele>55.6</ele>
        <time>2020-08-13T06:53:47Z</time>
      </trkpt>
      <trkpt lat="48.80103" lon="-3.03116">
        <ele>55.4</ele>
        <time>2020-08-13T06:53:49Z</time>
      </trkpt>
      <trkpt lat="48.80127" lon="-3.03078">
        <ele>54.1</ele>
        <time>2020-08-13T06:53:56Z</time>
      </trkpt>
      <trkpt lat="48.80141" lon="-3.03059">
        <ele>54.5</ele>
        <time>2020-08-13T06:54:02Z</time>
      </trkpt>
      <trkpt lat="48.8016" lon="-3.03035">
        <ele>54.6</ele>
        <time>2020-08-13T06:54:12Z</time>
      </trkpt>
      <trkpt lat="48.80173" lon="-3.03018">
        <ele>56.8</ele>
        <time>2020-08-13T06:54:19Z</time>
      </trkpt>
      <trkpt lat="48.80182" lon="-3.03004">
        <ele>56.7</ele>
        <time>2020-08-13T06:54:24Z</time>
      </trkpt>
      <trkpt lat="48.80199" lon="-3.02981">
        <ele>55</ele>
        <time>2020-08-13T06:54:29Z</time>
      </trkpt>
      <trkpt lat="48.80227" lon="-3.02941">
        <ele>54.1</ele>
        <time>2020-08-13T06:54:36Z</time>
      </trkpt>
      <trkpt lat="48.80256" lon="-3.02907">
        <ele>53.1</ele>
        <time>2020-08-13T06:54:42Z</time>
      </trkpt>
      <trkpt lat="48.80295" lon="-3.02868">
        <ele>53.2</ele>
        <time>2020-08-13T06:54:50Z</time>
      </trkpt>
      <trkpt lat="48.8034" lon="-3.02823">
        <ele>54.7</ele>
        <time>2020-08-13T06:55:00Z</time>
      </trkpt>
      <trkpt lat="48.80366" lon="-3.02797">
        <ele>55.6</ele>
        <time>2020-08-13T06:55:07Z</time>
      </trkpt>
      <trkpt lat="48.80393" lon="-3.02769">
        <ele>56.1</ele>
        <time>2020-08-13T06:55:15Z</time>
      </trkpt>
      <trkpt lat="48.80424" lon="-3.02735">
        <ele>56.4</ele>
        <time>2020-08-13T06:55:26Z</time>
      </trkpt>
      <trkpt lat="48.80446" lon="-3.02716">
        <ele>55.9</ele>
        <time>2020-08-13T06:55:34Z</time>
      </trkpt>
      <trkpt lat="48.8046" lon="-3.02703">
        <ele>55.7</ele>
        <time>2020-08-13T06:55:40Z</time>
      </trkpt>
      <trkpt lat="48.80487" lon="-3.02676">
        <ele>55.3</ele>
        <time>2020-08-13T06:55:49Z</time>
      </trkpt>
      <trkpt lat="48.80518" lon="-3.02652">
        <ele>54.6</ele>
        <time>2020-08-13T06:55:57Z</time>
      </trkpt>
      <trkpt lat="48.80549" lon="-3.02632">
        <ele>54.4</ele>
        <time>2020-08-13T06:56:03Z</time>
      </trkpt>
      <trkpt lat="48.80588" lon="-3.02617">
        <ele>54.8</ele>
        <time>2020-08-13T06:56:10Z</time>
      </trkpt>
      <trkpt lat="48.8062" lon="-3.02608">
        <ele>55.3</ele>
        <time>2020-08-13T06:56:17Z</time>
      </trkpt>
      <trkpt lat="48.80645" lon="-3.02605">
        <ele>55.8</ele>
        <time>2020-08-13T06:56:25Z</time>
      </trkpt>
      <trkpt lat="48.80673" lon="-3.02603">
        <ele>57.7</ele>
        <time>2020-08-13T06:56:36Z</time>
      </trkpt>
      <trkpt lat="48.807" lon="-3.026">
        <ele>58.5</ele>
        <time>2020-08-13T06:56:47Z</time>
      </trkpt>
      <trkpt lat="48.80727" lon="-3.026">
        <ele>59.2</ele>
        <time>2020-08-13T06:56:58Z</time>
      </trkpt>
      <trkpt lat="48.80754" lon="-3.02604">
        <ele>59.9</ele>
        <time>2020-08-13T06:57:09Z</time>
      </trkpt>
      <trkpt lat="48.80782" lon="-3.02604">
        <ele>59.7</ele>
        <time>2020-08-13T06:57:19Z</time>
      </trkpt>
      <trkpt lat="48.80807" lon="-3.02596">
        <ele>59.2</ele>
        <time>2020-08-13T06:57:26Z</time>
      </trkpt>
      <trkpt lat="48.80847" lon="-3.0258">
        <ele>57.1</ele>
        <time>2020-08-13T06:57:35Z</time>
      </trkpt>
      <trkpt lat="48.8089" lon="-3.02559">
        <ele>56.2</ele>
        <time>2020-08-13T06:57:44Z</time>
      </trkpt>
      <trkpt lat="48.80934" lon="-3.02538">
        <ele>56.3</ele>
        <time>2020-08-13T06:57:52Z</time>
      </trkpt>
      <trkpt lat="48.80975" lon="-3.02512">
        <ele>56.6</ele>
        <time>2020-08-13T06:58:00Z</time>
      </trkpt>
      <trkpt lat="48.81003" lon="-3.02484">
        <ele>56.2</ele>
        <time>2020-08-13T06:58:07Z</time>
      </trkpt>
      <trkpt lat="48.81037" lon="-3.02446">
        <ele>55.3</ele>
        <time>2020-08-13T06:58:15Z</time>
      </trkpt>
      <trkpt lat="48.81084" lon="-3.02391">
        <ele>54.6</ele>
        <time>2020-08-13T06:58:26Z</time>
      </trkpt>
      <trkpt lat="48.8113" lon="-3.02343">
        <ele>54.5</ele>
        <time>2020-08-13T06:58:36Z</time>
      </trkpt>
      <trkpt lat="48.81167" lon="-3.02293">
        <ele>54.7</ele>
        <time>2020-08-13T06:58:45Z</time>
      </trkpt>
      <trkpt lat="48.81199" lon="-3.02256">
        <ele>54.6</ele>
        <time>2020-08-13T06:58:53Z</time>
      </trkpt>
      <trkpt lat="48.81235" lon="-3.02215">
        <ele>53.9</ele>
        <time>2020-08-13T06:59:02Z</time>
      </trkpt>
      <trkpt lat="48.81276" lon="-3.02167">
        <ele>52.4</ele>
        <time>2020-08-13T06:59:11Z</time>
      </trkpt>
      <trkpt lat="48.81317" lon="-3.02132">
        <ele>50.9</ele>
        <time>2020-08-13T06:59:18Z</time>
      </trkpt>
      <trkpt lat="48.81369" lon="-3.02096">
        <ele>48.9</ele>
        <time>2020-08-13T06:59:27Z</time>
      </trkpt>
      <trkpt lat="48.81439" lon="-3.02047">
        <ele>47.5</ele>
        <time>2020-08-13T06:59:40Z</time>
      </trkpt>
      <trkpt lat="48.81495" lon="-3.02009">
        <ele>47.8</ele>
        <time>2020-08-13T06:59:51Z</time>
      </trkpt>
      <trkpt lat="48.81555" lon="-3.01967">
        <ele>47.8</ele>
        <time>2020-08-13T07:00:03Z</time>
      </trkpt>
      <trkpt lat="48.81604" lon="-3.01933">
        <ele>47.3</ele>
        <time>2020-08-13T07:00:13Z</time>
      </trkpt>
      <trkpt lat="48.81659" lon="-3.019">
        <ele>47.4</ele>
        <time>2020-08-13T07:00:24Z</time>
      </trkpt>
      <trkpt lat="48.81697" lon="-3.01891">
        <ele>46.8</ele>
        <time>2020-08-13T07:00:32Z</time>
      </trkpt>
      <trkpt lat="48.81725" lon="-3.01893">
        <ele>46.3</ele>
        <time>2020-08-13T07:00:39Z</time>
      </trkpt>
      <trkpt lat="48.81756" lon="-3.01905">
        <ele>44.3</ele>
        <time>2020-08-13T07:00:46Z</time>
      </trkpt>
      <trkpt lat="48.81797" lon="-3.01919">
        <ele>40.2</ele>
        <time>2020-08-13T07:00:53Z</time>
      </trkpt>
      <trkpt lat="48.81827" lon="-3.01927">
        <ele>38.7</ele>
        <time>2020-08-13T07:00:58Z</time>
      </trkpt>
      <trkpt lat="48.81863" lon="-3.0192">
        <ele>32.9</ele>
        <time>2020-08-13T07:01:05Z</time>
      </trkpt>
      <trkpt lat="48.81868" lon="-3.01918">
        <ele>32.5</ele>
        <time>2020-08-13T07:01:06Z</time>
      </trkpt>
      <trkpt lat="48.81906" lon="-3.01902">
        <ele>35.2</ele>
        <time>2020-08-13T07:01:13Z</time>
      </trkpt>
      <trkpt lat="48.8191" lon="-3.019">
        <ele>35.2</ele>
        <time>2020-08-13T07:01:14Z</time>
      </trkpt>
      <trkpt lat="48.81926" lon="-3.01896">
        <ele>33.9</ele>
        <time>2020-08-13T07:01:17Z</time>
      </trkpt>
      <trkpt lat="48.81953" lon="-3.01911">
        <ele>33.6</ele>
        <time>2020-08-13T07:01:22Z</time>
      </trkpt>
      <trkpt lat="48.81963" lon="-3.01921">
        <ele>25.9</ele>
        <time>2020-08-13T07:01:24Z</time>
      </trkpt>
      <trkpt lat="48.81987" lon="-3.01932">
        <ele>26</ele>
        <time>2020-08-13T07:01:28Z</time>
      </trkpt>
      <trkpt lat="48.82" lon="-3.01927">
        <ele>24.4</ele>
        <time>2020-08-13T07:01:30Z</time>
      </trkpt>
      <trkpt lat="48.82006" lon="-3.01922">
        <ele>25.1</ele>
        <time>2020-08-13T07:01:31Z</time>
      </trkpt>
      <trkpt lat="48.82028" lon="-3.01903">
        <ele>25.4</ele>
        <time>2020-08-13T07:01:35Z</time>
      </trkpt>
      <trkpt lat="48.82049" lon="-3.01876">
        <ele>24.1</ele>
        <time>2020-08-13T07:01:39Z</time>
      </trkpt>
      <trkpt lat="48.82053" lon="-3.01868">
        <ele>24.1</ele>
        <time>2020-08-13T07:01:40Z</time>
      </trkpt>
      <trkpt lat="48.82083" lon="-3.01819">
        <ele>24.7</ele>
        <time>2020-08-13T07:01:46Z</time>
      </trkpt>
      <trkpt lat="48.82089" lon="-3.01811">
        <ele>18</ele>
        <time>2020-08-13T07:01:47Z</time>
      </trkpt>
      <trkpt lat="48.82098" lon="-3.01792">
        <ele>17.9</ele>
        <time>2020-08-13T07:01:49Z</time>
      </trkpt>
      <trkpt lat="48.82111" lon="-3.01752">
        <ele>17.9</ele>
        <time>2020-08-13T07:01:53Z</time>
      </trkpt>
      <trkpt lat="48.82123" lon="-3.01711">
        <ele>18.1</ele>
        <time>2020-08-13T07:01:58Z</time>
      </trkpt>
      <trkpt lat="48.82129" lon="-3.01673">
        <ele>19.9</ele>
        <time>2020-08-13T07:02:03Z</time>
      </trkpt>
      <trkpt lat="48.82129" lon="-3.01642">
        <ele>17.7</ele>
        <time>2020-08-13T07:02:08Z</time>
      </trkpt>
      <trkpt lat="48.82124" lon="-3.01594">
        <ele>14.9</ele>
        <time>2020-08-13T07:02:14Z</time>
      </trkpt>
      <trkpt lat="48.82118" lon="-3.01534">
        <ele>12.9</ele>
        <time>2020-08-13T07:02:21Z</time>
      </trkpt>
      <trkpt lat="48.82117" lon="-3.015">
        <ele>13.1</ele>
        <time>2020-08-13T07:02:26Z</time>
      </trkpt>
      <trkpt lat="48.82122" lon="-3.01474">
        <ele>10.1</ele>
        <time>2020-08-13T07:02:30Z</time>
      </trkpt>
      <trkpt lat="48.82134" lon="-3.01428">
        <ele>7.7</ele>
        <time>2020-08-13T07:02:37Z</time>
      </trkpt>
      <trkpt lat="48.82136" lon="-3.01411">
        <ele>5.8</ele>
        <time>2020-08-13T07:02:41Z</time>
      </trkpt>
      <trkpt lat="48.82136" lon="-3.01408">
        <ele>5.8</ele>
        <time>2020-08-13T07:02:42Z</time>
      </trkpt>
      <trkpt lat="48.82148" lon="-3.014">
        <ele>5.1</ele>
        <time>2020-08-13T07:02:48Z</time>
      </trkpt>
      <trkpt lat="48.8215" lon="-3.01398">
        <ele>5.1</ele>
        <time>2020-08-13T07:02:52Z</time>
      </trkpt>
      <trkpt lat="48.82152" lon="-3.01393">
        <ele>5.1</ele>
        <time>2020-08-13T07:04:33Z</time>
      </trkpt>
      <trkpt lat="48.82153" lon="-3.01389">
        <ele>5.1</ele>
        <time>2020-08-13T07:04:38Z</time>
      </trkpt>
      <trkpt lat="48.82154" lon="-3.01382">
        <ele>5.1</ele>
        <time>2020-08-13T07:04:51Z</time>
      </trkpt>
      <trkpt lat="48.82153" lon="-3.01379">
        <ele>5.2</ele>
        <time>2020-08-13T07:06:07Z</time>
      </trkpt>
      <trkpt lat="48.82156" lon="-3.01378">
        <ele>5.1</ele>
        <time>2020-08-13T07:06:13Z</time>
      </trkpt>
      <trkpt lat="48.82158" lon="-3.01378">
        <ele>5</ele>
        <time>2020-08-13T07:06:17Z</time>
      </trkpt>
      <trkpt lat="48.82161" lon="-3.01378">
        <ele>4.9</ele>
        <time>2020-08-13T07:06:29Z</time>
      </trkpt>
      <trkpt lat="48.82161" lon="-3.01378">
        <ele>4.9</ele>
        <time>2020-08-13T07:06:30Z</time>
      </trkpt>
      <trkpt lat="48.8217" lon="-3.01373">
        <ele>2.5</ele>
        <time>2020-08-13T07:06:37Z</time>
      </trkpt>
      <trkpt lat="48.82182" lon="-3.01368">
        <ele>2.4</ele>
        <time>2020-08-13T07:06:47Z</time>
      </trkpt>
      <trkpt lat="48.82187" lon="-3.01366">
        <ele>2.4</ele>
        <time>2020-08-13T07:06:53Z</time>
      </trkpt>
      <trkpt lat="48.82196" lon="-3.01361">
        <ele>2.4</ele>
        <time>2020-08-13T07:07:01Z</time>
      </trkpt>
      <trkpt lat="48.82199" lon="-3.01359">
        <ele>2.4</ele>
        <time>2020-08-13T07:07:04Z</time>
      </trkpt>
      <trkpt lat="48.8221" lon="-3.01355">
        <ele>2.4</ele>
        <time>2020-08-13T07:07:13Z</time>
      </trkpt>
      <trkpt lat="48.82218" lon="-3.01345">
        <ele>2.4</ele>
        <time>2020-08-13T07:07:21Z</time>
      </trkpt>
      <trkpt lat="48.82222" lon="-3.01326">
        <ele>1.6</ele>
        <time>2020-08-13T07:07:31Z</time>
      </trkpt>
      <trkpt lat="48.82226" lon="-3.01306">
        <ele>1.6</ele>
        <time>2020-08-13T07:07:41Z</time>
      </trkpt>
      <trkpt lat="48.8223" lon="-3.01293">
        <ele>1.5</ele>
        <time>2020-08-13T07:07:48Z</time>
      </trkpt>
      <trkpt lat="48.82237" lon="-3.0128">
        <ele>1.5</ele>
        <time>2020-08-13T07:07:58Z</time>
      </trkpt>
      <trkpt lat="48.82243" lon="-3.01273">
        <ele>1.5</ele>
        <time>2020-08-13T07:08:08Z</time>
      </trkpt>
      <trkpt lat="48.82244" lon="-3.01272">
        <ele>1.4</ele>
        <time>2020-08-13T07:08:27Z</time>
      </trkpt>
      <trkpt lat="48.82246" lon="-3.01267">
        <ele>1.4</ele>
        <time>2020-08-13T07:08:38Z</time>
      </trkpt>
      <trkpt lat="48.82247" lon="-3.01267">
        <ele>1.4</ele>
        <time>2020-08-13T07:08:40Z</time>
      </trkpt>
      <trkpt lat="48.82249" lon="-3.01262">
        <ele>1.4</ele>
        <time>2020-08-13T07:10:58Z</time>
      </trkpt>
      <trkpt lat="48.82257" lon="-3.01253">
        <ele>2</ele>
        <time>2020-08-13T07:11:09Z</time>
      </trkpt>
      <trkpt lat="48.82258" lon="-3.01252">
        <ele>2</ele>
        <time>2020-08-13T07:11:13Z</time>
      </trkpt>
      <trkpt lat="48.8226" lon="-3.01252">
        <ele>2</ele>
        <time>2020-08-13T07:11:21Z</time>
      </trkpt>
      <trkpt lat="48.82272" lon="-3.01255">
        <ele>2</ele>
        <time>2020-08-13T07:11:49Z</time>
      </trkpt>
      <trkpt lat="48.82272" lon="-3.01255">
        <ele>2</ele>
        <time>2020-08-13T07:11:51Z</time>
      </trkpt>
      <trkpt lat="48.82276" lon="-3.01257">
        <ele>2</ele>
        <time>2020-08-13T07:12:02Z</time>
      </trkpt>
      <trkpt lat="48.82276" lon="-3.01257">
        <ele>2</ele>
        <time>2020-08-13T07:12:04Z</time>
      </trkpt>
      <trkpt lat="48.82282" lon="-3.01254">
        <time>2020-08-13T07:19:40Z</time>
      </trkpt>
      <trkpt lat="48.82283" lon="-3.01246">
        <time>2020-08-13T07:31:42Z</time>
      </trkpt>
      <trkpt lat="48.82296" lon="-3.01243">
        <time>2020-08-13T07:31:54Z</time>
      </trkpt>
      <trkpt lat="48.82317" lon="-3.01232">
        <time>2020-08-13T07:32:09Z</time>
      </trkpt>
      <trkpt lat="48.82332" lon="-3.01219">
        <time>2020-08-13T07:32:20Z</time>
      </trkpt>
      <trkpt lat="48.82337" lon="-3.01211">
        <time>2020-08-13T07:32:27Z</time>
      </trkpt>
      <trkpt lat="48.82339" lon="-3.01201">
        <time>2020-08-13T07:32:36Z</time>
      </trkpt>
      <trkpt lat="48.82338" lon="-3.01198">
        <time>2020-08-13T07:32:44Z</time>
      </trkpt>
      <trkpt lat="48.8234" lon="-3.01207">
        <time>2020-08-13T07:32:55Z</time>
      </trkpt>
      <trkpt lat="48.82348" lon="-3.01217">
        <time>2020-08-13T07:33:04Z</time>
      </trkpt>
      <trkpt lat="48.82362" lon="-3.01218">
        <time>2020-08-13T07:33:10Z</time>
      </trkpt>
      <trkpt lat="48.82386" lon="-3.01208">
        <time>2020-08-13T07:33:18Z</time>
      </trkpt>
      <trkpt lat="48.8242" lon="-3.01193">
        <time>2020-08-13T07:33:28Z</time>
      </trkpt>
      <trkpt lat="48.82455" lon="-3.01179">
        <time>2020-08-13T07:33:37Z</time>
      </trkpt>
      <trkpt lat="48.82496" lon="-3.01171">
        <time>2020-08-13T07:33:46Z</time>
      </trkpt>
      <trkpt lat="48.82547" lon="-3.01163">
        <time>2020-08-13T07:33:57Z</time>
      </trkpt>
      <trkpt lat="48.82593" lon="-3.01153">
        <time>2020-08-13T07:34:06Z</time>
      </trkpt>
      <trkpt lat="48.82625" lon="-3.01136">
        <time>2020-08-13T07:34:13Z</time>
      </trkpt>
      <trkpt lat="48.82665" lon="-3.01115">
        <time>2020-08-13T07:34:21Z</time>
      </trkpt>
      <trkpt lat="48.82722" lon="-3.01091">
        <time>2020-08-13T07:34:31Z</time>
      </trkpt>
      <trkpt lat="48.82798" lon="-3.01048">
        <time>2020-08-13T07:34:45Z</time>
      </trkpt>
      <trkpt lat="48.82851" lon="-3.01012">
        <time>2020-08-13T07:34:56Z</time>
      </trkpt>
      <trkpt lat="48.82915" lon="-3.00971">
        <time>2020-08-13T07:35:09Z</time>
      </trkpt>
      <trkpt lat="48.82966" lon="-3.00943">
        <time>2020-08-13T07:35:18Z</time>
      </trkpt>
      <trkpt lat="48.83022" lon="-3.00912">
        <time>2020-08-13T07:35:28Z</time>
      </trkpt>
      <trkpt lat="48.83079" lon="-3.00878">
        <time>2020-08-13T07:35:38Z</time>
      </trkpt>
      <trkpt lat="48.83154" lon="-3.00826">
        <time>2020-08-13T07:35:52Z</time>
      </trkpt>
      <trkpt lat="48.8319" lon="-3.00799">
        <time>2020-08-13T07:36:00Z</time>
      </trkpt>
      <trkpt lat="48.83235" lon="-3.00772">
        <time>2020-08-13T07:36:11Z</time>
      </trkpt>
      <trkpt lat="48.83284" lon="-3.00745">
        <time>2020-08-13T07:36:23Z</time>
      </trkpt>
      <trkpt lat="48.83319" lon="-3.00723">
        <time>2020-08-13T07:36:32Z</time>
      </trkpt>
      <trkpt lat="48.83358" lon="-3.00699">
        <time>2020-08-13T07:36:43Z</time>
      </trkpt>
      <trkpt lat="48.83398" lon="-3.00675">
        <time>2020-08-13T07:36:55Z</time>
      </trkpt>
      <trkpt lat="48.8343" lon="-3.00654">
        <time>2020-08-13T07:37:05Z</time>
      </trkpt>
      <trkpt lat="48.83451" lon="-3.00638">
        <time>2020-08-13T07:37:13Z</time>
      </trkpt>
      <trkpt lat="48.83467" lon="-3.00617">
        <time>2020-08-13T07:37:23Z</time>
      </trkpt>
      <trkpt lat="48.83478" lon="-3.00593">
        <time>2020-08-13T07:37:34Z</time>
      </trkpt>
      <trkpt lat="48.83489" lon="-3.00571">
        <time>2020-08-13T07:37:46Z</time>
      </trkpt>
      <trkpt lat="48.83498" lon="-3.00555">
        <time>2020-08-13T07:37:58Z</time>
      </trkpt>
      <trkpt lat="48.83507" lon="-3.00543">
        <time>2020-08-13T07:38:08Z</time>
      </trkpt>
      <trkpt lat="48.83517" lon="-3.00532">
        <time>2020-08-13T07:38:18Z</time>
      </trkpt>
      <trkpt lat="48.83527" lon="-3.00521">
        <time>2020-08-13T07:38:28Z</time>
      </trkpt>
      <trkpt lat="48.83537" lon="-3.00511">
        <time>2020-08-13T07:38:36Z</time>
      </trkpt>
      <trkpt lat="48.83551" lon="-3.00502">
        <time>2020-08-13T07:38:45Z</time>
      </trkpt>
      <trkpt lat="48.83562" lon="-3.00499">
        <time>2020-08-13T07:38:50Z</time>
      </trkpt>
      <trkpt lat="48.83587" lon="-3.00494">
        <time>2020-08-13T07:38:58Z</time>
      </trkpt>
      <trkpt lat="48.8362" lon="-3.00483">
        <time>2020-08-13T07:39:08Z</time>
      </trkpt>
      <trkpt lat="48.83651" lon="-3.00475">
        <time>2020-08-13T07:39:16Z</time>
      </trkpt>
      <trkpt lat="48.83689" lon="-3.00468">
        <time>2020-08-13T07:39:27Z</time>
      </trkpt>
      <trkpt lat="48.83722" lon="-3.00459">
        <time>2020-08-13T07:39:38Z</time>
      </trkpt>
      <trkpt lat="48.83744" lon="-3.00451">
        <time>2020-08-13T07:39:48Z</time>
      </trkpt>
      <trkpt lat="48.83762" lon="-3.00445">
        <time>2020-08-13T07:39:59Z</time>
      </trkpt>
      <trkpt lat="48.83778" lon="-3.00441">
        <time>2020-08-13T07:40:11Z</time>
      </trkpt>
      <trkpt lat="48.8378" lon="-3.00441">
        <time>2020-08-13T07:40:15Z</time>
      </trkpt>
      <trkpt lat="48.8378" lon="-3.00449">
        <time>2020-08-13T07:43:30Z</time>
      </trkpt>
      <trkpt lat="48.83787" lon="-3.00453">
        <time>2020-08-13T07:44:02Z</time>
      </trkpt>
      <trkpt lat="48.83789" lon="-3.00452">
        <time>2020-08-13T07:44:05Z</time>
      </trkpt>
      <trkpt lat="48.83794" lon="-3.00451">
        <time>2020-08-13T07:44:11Z</time>
      </trkpt>
      <trkpt lat="48.83796" lon="-3.00456">
        <time>2020-08-13T07:44:17Z</time>
      </trkpt>
      <trkpt lat="48.83795" lon="-3.0046">
        <time>2020-08-13T07:44:24Z</time>
      </trkpt>
      <trkpt lat="48.83793" lon="-3.00462">
        <time>2020-08-13T07:44:28Z</time>
      </trkpt>
      <trkpt lat="48.83793" lon="-3.00461">
        <time>2020-08-13T07:44:29Z</time>
      </trkpt>
      <trkpt lat="48.838" lon="-3.00473">
        <time>2020-08-13T07:46:16Z</time>
      </trkpt>
      <trkpt lat="48.83806" lon="-3.00487">
        <ele>1</ele>
        <time>2020-08-13T07:46:27Z</time>
      </trkpt>
      <trkpt lat="48.83815" lon="-3.00503">
        <ele>10</ele>
        <time>2020-08-13T07:46:40Z</time>
      </trkpt>
      <trkpt lat="48.83821" lon="-3.00511">
        <ele>10</ele>
        <time>2020-08-13T07:46:48Z</time>
      </trkpt>
      <trkpt lat="48.83821" lon="-3.00516">
        <ele>10</ele>
        <time>2020-08-13T07:46:53Z</time>
      </trkpt>
      <trkpt lat="48.83823" lon="-3.00515">
        <ele>10</ele>
        <time>2020-08-13T07:49:49Z</time>
      </trkpt>
      <trkpt lat="48.83823" lon="-3.00514">
        <ele>10</ele>
        <time>2020-08-13T07:49:51Z</time>
      </trkpt>
      <trkpt lat="48.83837" lon="-3.00505">
        <ele>13.3</ele>
        <time>2020-08-13T07:50:01Z</time>
      </trkpt>
      <trkpt lat="48.83842" lon="-3.00505">
        <ele>13.4</ele>
        <time>2020-08-13T07:50:03Z</time>
      </trkpt>
      <trkpt lat="48.8386" lon="-3.00502">
        <ele>13.7</ele>
        <time>2020-08-13T07:50:12Z</time>
      </trkpt>
      <trkpt lat="48.83878" lon="-3.00492">
        <ele>5.65</ele>
        <time>2020-08-13T07:50:20Z</time>
      </trkpt>
      <trkpt lat="48.83897" lon="-3.00482">
        <ele>6.25</ele>
        <time>2020-08-13T07:50:28Z</time>
      </trkpt>
      <trkpt lat="48.83913" lon="-3.00488">
        <ele>2.79</ele>
        <time>2020-08-13T07:50:34Z</time>
      </trkpt>
      <trkpt lat="48.83934" lon="-3.005">
        <ele>1</ele>
        <time>2020-08-13T07:50:42Z</time>
      </trkpt>
      <trkpt lat="48.83956" lon="-3.00514">
        <ele>7.2</ele>
        <time>2020-08-13T07:50:51Z</time>
      </trkpt>
      <trkpt lat="48.83975" lon="-3.0052">
        <ele>6</ele>
        <time>2020-08-13T07:50:59Z</time>
      </trkpt>
      <trkpt lat="48.84" lon="-3.00502">
        <ele>1.6</ele>
        <time>2020-08-13T07:51:09Z</time>
      </trkpt>
      <trkpt lat="48.84016" lon="-3.00484">
        <ele>4.7</ele>
        <time>2020-08-13T07:51:17Z</time>
      </trkpt>
      <trkpt lat="48.84026" lon="-3.00464">
        <ele>6.6</ele>
        <time>2020-08-13T07:51:25Z</time>
      </trkpt>
      <trkpt lat="48.84036" lon="-3.00441">
        <ele>7.8</ele>
        <time>2020-08-13T07:51:34Z</time>
      </trkpt>
      <trkpt lat="48.84044" lon="-3.00419">
        <ele>8.4</ele>
        <time>2020-08-13T07:51:40Z</time>
      </trkpt>
      <trkpt lat="48.84056" lon="-3.00412">
        <ele>9</ele>
        <time>2020-08-13T07:51:45Z</time>
      </trkpt>
      <trkpt lat="48.84069" lon="-3.00402">
        <ele>9.2</ele>
        <time>2020-08-13T07:51:53Z</time>
      </trkpt>
      <trkpt lat="48.84074" lon="-3.00386">
        <ele>9</ele>
        <time>2020-08-13T07:52:00Z</time>
      </trkpt>
      <trkpt lat="48.84077" lon="-3.0037">
        <ele>9.1</ele>
        <time>2020-08-13T07:52:07Z</time>
      </trkpt>
      <trkpt lat="48.84078" lon="-3.00364">
        <ele>9.2</ele>
        <time>2020-08-13T07:52:12Z</time>
      </trkpt>
      <trkpt lat="48.84078" lon="-3.00355">
        <ele>9.4</ele>
        <time>2020-08-13T07:52:47Z</time>
      </trkpt>
      <trkpt lat="48.84078" lon="-3.00345">
        <ele>9.9</ele>
        <time>2020-08-13T07:52:56Z</time>
      </trkpt>
      <trkpt lat="48.84078" lon="-3.00333">
        <ele>10.7</ele>
        <time>2020-08-13T07:53:07Z</time>
      </trkpt>
      <trkpt lat="48.84079" lon="-3.00321">
        <ele>10.6</ele>
        <time>2020-08-13T07:53:16Z</time>
      </trkpt>
      <trkpt lat="48.8408" lon="-3.00306">
        <ele>10.8</ele>
        <time>2020-08-13T07:53:28Z</time>
      </trkpt>
      <trkpt lat="48.84082" lon="-3.00293">
        <ele>11.3</ele>
        <time>2020-08-13T07:53:39Z</time>
      </trkpt>
      <trkpt lat="48.84084" lon="-3.00281">
        <ele>16.2</ele>
        <time>2020-08-13T07:53:49Z</time>
      </trkpt>
      <trkpt lat="48.84087" lon="-3.0027">
        <ele>16.6</ele>
        <time>2020-08-13T07:54:00Z</time>
      </trkpt>
      <trkpt lat="48.84096" lon="-3.00273">
        <ele>16.5</ele>
        <time>2020-08-13T07:54:11Z</time>
      </trkpt>
      <trkpt lat="48.84104" lon="-3.00274">
        <ele>16.6</ele>
        <time>2020-08-13T07:54:20Z</time>
      </trkpt>
      <trkpt lat="48.84111" lon="-3.00276">
        <ele>16.7</ele>
        <time>2020-08-13T07:54:28Z</time>
      </trkpt>
      <trkpt lat="48.84122" lon="-3.0027">
        <ele>17.1</ele>
        <time>2020-08-13T07:54:40Z</time>
      </trkpt>
      <trkpt lat="48.84132" lon="-3.0026">
        <ele>17.6</ele>
        <time>2020-08-13T07:54:53Z</time>
      </trkpt>
      <trkpt lat="48.8414" lon="-3.00252">
        <ele>18</ele>
        <time>2020-08-13T07:55:04Z</time>
      </trkpt>
      <trkpt lat="48.84149" lon="-3.00247">
        <ele>19.5</ele>
        <time>2020-08-13T07:55:15Z</time>
      </trkpt>
      <trkpt lat="48.84149" lon="-3.00247">
        <ele>19.5</ele>
        <time>2020-08-13T07:55:16Z</time>
      </trkpt>
      <trkpt lat="48.84155" lon="-3.00247">
        <ele>19.6</ele>
        <time>2020-08-13T07:55:31Z</time>
      </trkpt>
      <trkpt lat="48.84166" lon="-3.0024">
        <ele>19.7</ele>
        <time>2020-08-13T07:55:42Z</time>
      </trkpt>
      <trkpt lat="48.8417" lon="-3.00237">
        <ele>20</ele>
        <time>2020-08-13T07:55:47Z</time>
      </trkpt>
      <trkpt lat="48.84177" lon="-3.00232">
        <ele>20</ele>
        <time>2020-08-13T07:55:57Z</time>
      </trkpt>
      <trkpt lat="48.84182" lon="-3.00226">
        <ele>20</ele>
        <time>2020-08-13T07:56:05Z</time>
      </trkpt>
      <trkpt lat="48.84186" lon="-3.00212">
        <ele>20</ele>
        <time>2020-08-13T07:56:15Z</time>
      </trkpt>
      <trkpt lat="48.8419" lon="-3.00197">
        <ele>20</ele>
        <time>2020-08-13T07:56:27Z</time>
      </trkpt>
      <trkpt lat="48.84194" lon="-3.00186">
        <ele>20</ele>
        <time>2020-08-13T07:56:35Z</time>
      </trkpt>
      <trkpt lat="48.84197" lon="-3.0017">
        <ele>20</ele>
        <time>2020-08-13T07:56:41Z</time>
      </trkpt>
      <trkpt lat="48.84206" lon="-3.00155">
        <ele>20</ele>
        <time>2020-08-13T07:56:46Z</time>
      </trkpt>
      <trkpt lat="48.84221" lon="-3.00137">
        <ele>20</ele>
        <time>2020-08-13T07:56:52Z</time>
      </trkpt>
      <trkpt lat="48.84227" lon="-3.0012">
        <ele>20.1</ele>
        <time>2020-08-13T07:56:58Z</time>
      </trkpt>
      <trkpt lat="48.84235" lon="-3.00096">
        <ele>20.4</ele>
        <time>2020-08-13T07:57:06Z</time>
      </trkpt>
      <trkpt lat="48.8424" lon="-3.0008">
        <ele>20.8</ele>
        <time>2020-08-13T07:57:13Z</time>
      </trkpt>
      <trkpt lat="48.84246" lon="-3.00057">
        <ele>20.8</ele>
        <time>2020-08-13T07:57:21Z</time>
      </trkpt>
      <trkpt lat="48.84252" lon="-3.0004">
        <ele>21.8</ele>
        <time>2020-08-13T07:57:28Z</time>
      </trkpt>
      <trkpt lat="48.84253" lon="-3.00038">
        <ele>21.9</ele>
        <time>2020-08-13T07:57:29Z</time>
      </trkpt>
      <trkpt lat="48.84265" lon="-3.00034">
        <ele>21.9</ele>
        <time>2020-08-13T07:57:36Z</time>
      </trkpt>
      <trkpt lat="48.84276" lon="-3.00035">
        <ele>22</ele>
        <time>2020-08-13T07:57:42Z</time>
      </trkpt>
      <trkpt lat="48.8429" lon="-3.00037">
        <ele>22</ele>
        <time>2020-08-13T07:57:50Z</time>
      </trkpt>
      <trkpt lat="48.84305" lon="-3.00042">
        <ele>22.1</ele>
        <time>2020-08-13T07:57:58Z</time>
      </trkpt>
      <trkpt lat="48.84319" lon="-3.0005">
        <ele>22</ele>
        <time>2020-08-13T07:58:07Z</time>
      </trkpt>
      <trkpt lat="48.84333" lon="-3.0006">
        <ele>21.7</ele>
        <time>2020-08-13T07:58:15Z</time>
      </trkpt>
      <trkpt lat="48.84348" lon="-3.00071">
        <ele>20.6</ele>
        <time>2020-08-13T07:58:22Z</time>
      </trkpt>
      <trkpt lat="48.84356" lon="-3.00077">
        <ele>20.4</ele>
        <time>2020-08-13T07:58:27Z</time>
      </trkpt>
      <trkpt lat="48.84365" lon="-3.00082">
        <ele>20.1</ele>
        <time>2020-08-13T07:58:33Z</time>
      </trkpt>
      <trkpt lat="48.84378" lon="-3.00091">
        <ele>17.9</ele>
        <time>2020-08-13T07:58:39Z</time>
      </trkpt>
      <trkpt lat="48.84386" lon="-3.00097">
        <ele>17.6</ele>
        <time>2020-08-13T07:58:45Z</time>
      </trkpt>
      <trkpt lat="48.844" lon="-3.00096">
        <ele>17.3</ele>
        <time>2020-08-13T07:58:52Z</time>
      </trkpt>
      <trkpt lat="48.8441" lon="-3.00094">
        <ele>17.2</ele>
        <time>2020-08-13T07:58:58Z</time>
      </trkpt>
      <trkpt lat="48.8442" lon="-3.00084">
        <ele>16.4</ele>
        <time>2020-08-13T07:59:04Z</time>
      </trkpt>
      <trkpt lat="48.84435" lon="-3.0007">
        <ele>15.1</ele>
        <time>2020-08-13T07:59:09Z</time>
      </trkpt>
      <trkpt lat="48.84453" lon="-3.00062">
        <ele>14</ele>
        <time>2020-08-13T07:59:15Z</time>
      </trkpt>
      <trkpt lat="48.84472" lon="-3.0006">
        <ele>13</ele>
        <time>2020-08-13T07:59:22Z</time>
      </trkpt>
      <trkpt lat="48.84486" lon="-3.00057">
        <ele>12.4</ele>
        <time>2020-08-13T07:59:27Z</time>
      </trkpt>
      <trkpt lat="48.84505" lon="-3.00049">
        <ele>8.5</ele>
        <time>2020-08-13T07:59:33Z</time>
      </trkpt>
      <trkpt lat="48.84515" lon="-3.00048">
        <ele>8.3</ele>
        <time>2020-08-13T07:59:38Z</time>
      </trkpt>
      <trkpt lat="48.8453" lon="-3.00043">
        <ele>8</ele>
        <time>2020-08-13T07:59:46Z</time>
      </trkpt>
      <trkpt lat="48.84536" lon="-3.00041">
        <ele>7.9</ele>
        <time>2020-08-13T07:59:50Z</time>
      </trkpt>
      <trkpt lat="48.84546" lon="-3.00042">
        <ele>7.7</ele>
        <time>2020-08-13T07:59:58Z</time>
      </trkpt>
      <trkpt lat="48.84563" lon="-3.00042">
        <ele>7.3</ele>
        <time>2020-08-13T08:00:04Z</time>
      </trkpt>
      <trkpt lat="48.84573" lon="-3.00041">
        <ele>7.2</ele>
        <time>2020-08-13T08:00:09Z</time>
      </trkpt>
      <trkpt lat="48.84574" lon="-3.00041">
        <ele>7.2</ele>
        <time>2020-08-13T08:00:10Z</time>
      </trkpt>
      <trkpt lat="48.8458" lon="-3.0004">
        <ele>7.1</ele>
        <time>2020-08-13T08:00:26Z</time>
      </trkpt>
      <trkpt lat="48.84589" lon="-3.0004">
        <ele>7.3</ele>
        <time>2020-08-13T08:00:32Z</time>
      </trkpt>
      <trkpt lat="48.84596" lon="-3.00033">
        <ele>7.4</ele>
        <time>2020-08-13T08:00:38Z</time>
      </trkpt>
      <trkpt lat="48.84601" lon="-3.00031">
        <ele>7.5</ele>
        <time>2020-08-13T08:00:43Z</time>
      </trkpt>
      <trkpt lat="48.84604" lon="-3.00032">
        <ele>7.5</ele>
        <time>2020-08-13T08:00:45Z</time>
      </trkpt>
      <trkpt lat="48.84609" lon="-3.00036">
        <ele>7.6</ele>
        <time>2020-08-13T08:00:51Z</time>
      </trkpt>
      <trkpt lat="48.8461" lon="-3.00035">
        <ele>7.7</ele>
        <time>2020-08-13T08:00:54Z</time>
      </trkpt>
      <trkpt lat="48.84607" lon="-3.00031">
        <ele>7.6</ele>
        <time>2020-08-13T08:06:39Z</time>
      </trkpt>
      <trkpt lat="48.84605" lon="-3.00031">
        <ele>7.5</ele>
        <time>2020-08-13T08:06:41Z</time>
      </trkpt>
      <trkpt lat="48.846" lon="-3.00035">
        <ele>7.5</ele>
        <time>2020-08-13T08:06:47Z</time>
      </trkpt>
      <trkpt lat="48.84592" lon="-3.00041">
        <ele>7.3</ele>
        <time>2020-08-13T08:06:55Z</time>
      </trkpt>
      <trkpt lat="48.84578" lon="-3.00042">
        <ele>7.1</ele>
        <time>2020-08-13T08:07:07Z</time>
      </trkpt>
      <trkpt lat="48.84575" lon="-3.00045">
        <ele>7.2</ele>
        <time>2020-08-13T08:07:12Z</time>
      </trkpt>
      <trkpt lat="48.84578" lon="-3.0004">
        <ele>7.1</ele>
        <time>2020-08-13T08:17:55Z</time>
      </trkpt>
      <trkpt lat="48.84582" lon="-3.00037">
        <ele>7.1</ele>
        <time>2020-08-13T08:18:02Z</time>
      </trkpt>
      <trkpt lat="48.84584" lon="-3.00023">
        <ele>7.1</ele>
        <time>2020-08-13T08:18:13Z</time>
      </trkpt>
      <trkpt lat="48.84585" lon="-3.00014">
        <ele>6.8</ele>
        <time>2020-08-13T08:18:21Z</time>
      </trkpt>
      <trkpt lat="48.84585" lon="-3.00013">
        <ele>6.8</ele>
        <time>2020-08-13T08:18:24Z</time>
      </trkpt>
      <trkpt lat="48.84584" lon="-3.00016">
        <ele>6.9</ele>
        <time>2020-08-13T08:18:53Z</time>
      </trkpt>
      <trkpt lat="48.8458" lon="-3.00015">
        <ele>6.7</ele>
        <time>2020-08-13T08:20:52Z</time>
      </trkpt>
      <trkpt lat="48.84573" lon="-3.00007">
        <ele>6.7</ele>
        <time>2020-08-13T08:20:58Z</time>
      </trkpt>
      <trkpt lat="48.84561" lon="-2.99978">
        <ele>6.8</ele>
        <time>2020-08-13T08:21:07Z</time>
      </trkpt>
      <trkpt lat="48.84556" lon="-2.99967">
        <ele>6.9</ele>
        <time>2020-08-13T08:21:12Z</time>
      </trkpt>
      <trkpt lat="48.84547" lon="-2.99961">
        <ele>6.9</ele>
        <time>2020-08-13T08:21:19Z</time>
      </trkpt>
      <trkpt lat="48.84535" lon="-2.99947">
        <ele>7</ele>
        <time>2020-08-13T08:21:28Z</time>
      </trkpt>
      <trkpt lat="48.84538" lon="-2.99933">
        <ele>6.9</ele>
        <time>2020-08-13T08:21:32Z</time>
      </trkpt>
      <trkpt lat="48.84545" lon="-2.99921">
        <ele>6.8</ele>
        <time>2020-08-13T08:21:38Z</time>
      </trkpt>
      <trkpt lat="48.84553" lon="-2.99911">
        <ele>5.8</ele>
        <time>2020-08-13T08:21:45Z</time>
      </trkpt>
      <trkpt lat="48.84559" lon="-2.99894">
        <ele>5.7</ele>
        <time>2020-08-13T08:21:51Z</time>
      </trkpt>
      <trkpt lat="48.84565" lon="-2.99867">
        <ele>5.4</ele>
        <time>2020-08-13T08:22:00Z</time>
      </trkpt>
      <trkpt lat="48.84565" lon="-2.99848">
        <ele>5.2</ele>
        <time>2020-08-13T08:22:06Z</time>
      </trkpt>
      <trkpt lat="48.84564" lon="-2.9982">
        <ele>4</ele>
        <time>2020-08-13T08:22:15Z</time>
      </trkpt>
      <trkpt lat="48.8456" lon="-2.99801">
        <ele>3.5</ele>
        <time>2020-08-13T08:22:21Z</time>
      </trkpt>
      <trkpt lat="48.84556" lon="-2.99775">
        <ele>2.8</ele>
        <time>2020-08-13T08:22:29Z</time>
      </trkpt>
      <trkpt lat="48.84547" lon="-2.99758">
        <ele>2.6</ele>
        <time>2020-08-13T08:22:37Z</time>
      </trkpt>
      <trkpt lat="48.84547" lon="-2.99758">
        <ele>2.6</ele>
        <time>2020-08-13T08:22:39Z</time>
      </trkpt>
      <trkpt lat="48.84548" lon="-2.99759">
        <ele>2.6</ele>
        <time>2020-08-13T08:24:30Z</time>
      </trkpt>
      <trkpt lat="48.84551" lon="-2.99767">
        <ele>2.7</ele>
        <time>2020-08-13T08:24:37Z</time>
      </trkpt>
      <trkpt lat="48.84555" lon="-2.99784">
        <ele>3.1</ele>
        <time>2020-08-13T08:24:43Z</time>
      </trkpt>
      <trkpt lat="48.84562" lon="-2.99807">
        <ele>3.7</ele>
        <time>2020-08-13T08:24:50Z</time>
      </trkpt>
      <trkpt lat="48.84566" lon="-2.99835">
        <ele>5.2</ele>
        <time>2020-08-13T08:25:00Z</time>
      </trkpt>
      <trkpt lat="48.84566" lon="-2.99854">
        <ele>5.3</ele>
        <time>2020-08-13T08:25:09Z</time>
      </trkpt>
      <trkpt lat="48.84566" lon="-2.99868">
        <ele>5.4</ele>
        <time>2020-08-13T08:25:16Z</time>
      </trkpt>
      <trkpt lat="48.84574" lon="-2.99876">
        <ele>5.5</ele>
        <time>2020-08-13T08:25:22Z</time>
      </trkpt>
      <trkpt lat="48.84587" lon="-2.99882">
        <ele>8.1</ele>
        <time>2020-08-13T08:25:30Z</time>
      </trkpt>
      <trkpt lat="48.84599" lon="-2.99884">
        <ele>8.4</ele>
        <time>2020-08-13T08:25:37Z</time>
      </trkpt>
      <trkpt lat="48.84613" lon="-2.9989">
        <ele>9</ele>
        <time>2020-08-13T08:25:45Z</time>
      </trkpt>
      <trkpt lat="48.84628" lon="-2.99902">
        <ele>9.8</ele>
        <time>2020-08-13T08:25:54Z</time>
      </trkpt>
      <trkpt lat="48.84639" lon="-2.99918">
        <ele>10.6</ele>
        <time>2020-08-13T08:26:03Z</time>
      </trkpt>
      <trkpt lat="48.84645" lon="-2.9993">
        <ele>10.8</ele>
        <time>2020-08-13T08:26:10Z</time>
      </trkpt>
      <trkpt lat="48.84651" lon="-2.99945">
        <ele>10.6</ele>
        <time>2020-08-13T08:26:18Z</time>
      </trkpt>
      <trkpt lat="48.84657" lon="-2.99952">
        <ele>10.5</ele>
        <time>2020-08-13T08:26:24Z</time>
      </trkpt>
      <trkpt lat="48.84666" lon="-2.99955">
        <ele>10.6</ele>
        <time>2020-08-13T08:26:31Z</time>
      </trkpt>
      <trkpt lat="48.84678" lon="-2.99954">
        <ele>12.9</ele>
        <time>2020-08-13T08:26:39Z</time>
      </trkpt>
      <trkpt lat="48.84682" lon="-2.99955">
        <ele>12.9</ele>
        <time>2020-08-13T08:26:42Z</time>
      </trkpt>
      <trkpt lat="48.84693" lon="-2.99951">
        <ele>13</ele>
        <time>2020-08-13T08:26:49Z</time>
      </trkpt>
      <trkpt lat="48.84705" lon="-2.99943">
        <ele>13.1</ele>
        <time>2020-08-13T08:26:57Z</time>
      </trkpt>
      <trkpt lat="48.84716" lon="-2.99935">
        <ele>13.1</ele>
        <time>2020-08-13T08:27:05Z</time>
      </trkpt>
      <trkpt lat="48.84729" lon="-2.99939">
        <ele>13.1</ele>
        <time>2020-08-13T08:27:11Z</time>
      </trkpt>
      <trkpt lat="48.84739" lon="-2.99946">
        <ele>13.1</ele>
        <time>2020-08-13T08:27:18Z</time>
      </trkpt>
      <trkpt lat="48.8475" lon="-2.99943">
        <ele>13.1</ele>
        <time>2020-08-13T08:27:24Z</time>
      </trkpt>
      <trkpt lat="48.8476" lon="-2.99942">
        <ele>12.4</ele>
        <time>2020-08-13T08:27:29Z</time>
      </trkpt>
      <trkpt lat="48.8476" lon="-2.99942">
        <ele>12.4</ele>
        <time>2020-08-13T08:27:31Z</time>
      </trkpt>
      <trkpt lat="48.84778" lon="-2.99931">
        <ele>12.1</ele>
        <time>2020-08-13T08:28:08Z</time>
      </trkpt>
      <trkpt lat="48.84797" lon="-2.99912">
        <ele>10.2</ele>
        <time>2020-08-13T08:28:14Z</time>
      </trkpt>
      <trkpt lat="48.84824" lon="-2.99889">
        <ele>9.6</ele>
        <time>2020-08-13T08:28:22Z</time>
      </trkpt>
      <trkpt lat="48.84847" lon="-2.9988">
        <ele>8.4</ele>
        <time>2020-08-13T08:28:28Z</time>
      </trkpt>
      <trkpt lat="48.84857" lon="-2.99877">
        <ele>8.3</ele>
        <time>2020-08-13T08:28:33Z</time>
      </trkpt>
      <trkpt lat="48.84862" lon="-2.99874">
        <ele>8.3</ele>
        <time>2020-08-13T08:28:39Z</time>
      </trkpt>
      <trkpt lat="48.84865" lon="-2.99874">
        <ele>8.3</ele>
        <time>2020-08-13T08:28:42Z</time>
      </trkpt>
      <trkpt lat="48.84875" lon="-2.99873">
        <ele>8.2</ele>
        <time>2020-08-13T08:28:47Z</time>
      </trkpt>
      <trkpt lat="48.84887" lon="-2.99866">
        <ele>8.2</ele>
        <time>2020-08-13T08:28:52Z</time>
      </trkpt>
      <trkpt lat="48.84888" lon="-2.99865">
        <ele>8.2</ele>
        <time>2020-08-13T08:28:54Z</time>
      </trkpt>
      <trkpt lat="48.84892" lon="-2.99866">
        <ele>8.2</ele>
        <time>2020-08-13T08:29:01Z</time>
      </trkpt>
      <trkpt lat="48.84908" lon="-2.99858">
        <ele>8.1</ele>
        <time>2020-08-13T08:29:07Z</time>
      </trkpt>
      <trkpt lat="48.84932" lon="-2.99846">
        <ele>6.9</ele>
        <time>2020-08-13T08:29:14Z</time>
      </trkpt>
      <trkpt lat="48.84961" lon="-2.99835">
        <ele>6.1</ele>
        <time>2020-08-13T08:29:21Z</time>
      </trkpt>
      <trkpt lat="48.84974" lon="-2.99829">
        <ele>6.2</ele>
        <time>2020-08-13T08:29:26Z</time>
      </trkpt>
      <trkpt lat="48.84976" lon="-2.99826">
        <ele>6.2</ele>
        <time>2020-08-13T08:29:30Z</time>
      </trkpt>
      <trkpt lat="48.84971" lon="-2.99799">
        <ele>6.5</ele>
        <time>2020-08-13T08:29:46Z</time>
      </trkpt>
      <trkpt lat="48.84966" lon="-2.99779">
        <ele>6.6</ele>
        <time>2020-08-13T08:29:53Z</time>
      </trkpt>
      <trkpt lat="48.84958" lon="-2.99759">
        <ele>6.8</ele>
        <time>2020-08-13T08:30:01Z</time>
      </trkpt>
      <trkpt lat="48.84949" lon="-2.99742">
        <ele>7.5</ele>
        <time>2020-08-13T08:30:07Z</time>
      </trkpt>
      <trkpt lat="48.84946" lon="-2.99726">
        <ele>7.6</ele>
        <time>2020-08-13T08:30:13Z</time>
      </trkpt>
      <trkpt lat="48.84948" lon="-2.99713">
        <ele>7.5</ele>
        <time>2020-08-13T08:30:19Z</time>
      </trkpt>
      <trkpt lat="48.84948" lon="-2.997">
        <ele>7.6</ele>
        <time>2020-08-13T08:30:26Z</time>
      </trkpt>
      <trkpt lat="48.8495" lon="-2.99687">
        <ele>7.6</ele>
        <time>2020-08-13T08:30:32Z</time>
      </trkpt>
      <trkpt lat="48.8495" lon="-2.99667">
        <ele>7.7</ele>
        <time>2020-08-13T08:30:38Z</time>
      </trkpt>
      <trkpt lat="48.84947" lon="-2.9964">
        <ele>7.9</ele>
        <time>2020-08-13T08:30:45Z</time>
      </trkpt>
      <trkpt lat="48.84952" lon="-2.99622">
        <ele>7.7</ele>
        <time>2020-08-13T08:30:50Z</time>
      </trkpt>
      <trkpt lat="48.84963" lon="-2.99598">
        <ele>7.3</ele>
        <time>2020-08-13T08:30:57Z</time>
      </trkpt>
      <trkpt lat="48.84974" lon="-2.9958">
        <ele>7.1</ele>
        <time>2020-08-13T08:31:03Z</time>
      </trkpt>
      <trkpt lat="48.84985" lon="-2.99568">
        <ele>6.8</ele>
        <time>2020-08-13T08:31:09Z</time>
      </trkpt>
      <trkpt lat="48.84998" lon="-2.9955">
        <ele>7.1</ele>
        <time>2020-08-13T08:31:16Z</time>
      </trkpt>
      <trkpt lat="48.85001" lon="-2.99525">
        <ele>6.4</ele>
        <time>2020-08-13T08:31:21Z</time>
      </trkpt>
      <trkpt lat="48.85002" lon="-2.99515">
        <ele>6.6</ele>
        <time>2020-08-13T08:31:25Z</time>
      </trkpt>
      <trkpt lat="48.85003" lon="-2.99514">
        <ele>6.7</ele>
        <time>2020-08-13T08:31:27Z</time>
      </trkpt>
      <trkpt lat="48.85003" lon="-2.99508">
        <ele>6.8</ele>
        <time>2020-08-13T08:31:40Z</time>
      </trkpt>
      <trkpt lat="48.85003" lon="-2.99506">
        <ele>6.8</ele>
        <time>2020-08-13T08:31:41Z</time>
      </trkpt>
      <trkpt lat="48.85001" lon="-2.99496">
        <ele>6.5</ele>
        <time>2020-08-13T08:31:46Z</time>
      </trkpt>
      <trkpt lat="48.84998" lon="-2.99491">
        <ele>6.8</ele>
        <time>2020-08-13T08:31:52Z</time>
      </trkpt>
      <trkpt lat="48.84995" lon="-2.99489">
        <ele>6.8</ele>
        <time>2020-08-13T08:32:01Z</time>
      </trkpt>
      <trkpt lat="48.84985" lon="-2.99478">
        <ele>6.6</ele>
        <time>2020-08-13T08:32:13Z</time>
      </trkpt>
      <trkpt lat="48.84982" lon="-2.99476">
        <ele>6.6</ele>
        <time>2020-08-13T08:32:18Z</time>
      </trkpt>
      <trkpt lat="48.84984" lon="-2.99477">
        <ele>6.6</ele>
        <time>2020-08-13T08:34:42Z</time>
      </trkpt>
      <trkpt lat="48.84991" lon="-2.99484">
        <ele>6.7</ele>
        <time>2020-08-13T08:34:52Z</time>
      </trkpt>
      <trkpt lat="48.84991" lon="-2.99484">
        <ele>6.7</ele>
        <time>2020-08-13T08:34:53Z</time>
      </trkpt>
      <trkpt lat="48.84999" lon="-2.99494">
        <ele>6.9</ele>
        <time>2020-08-13T08:35:01Z</time>
      </trkpt>
      <trkpt lat="48.85002" lon="-2.9951">
        <ele>6.8</ele>
        <time>2020-08-13T08:35:05Z</time>
      </trkpt>
      <trkpt lat="48.85" lon="-2.99535">
        <ele>6.2</ele>
        <time>2020-08-13T08:35:12Z</time>
      </trkpt>
      <trkpt lat="48.84995" lon="-2.99557">
        <ele>6.9</ele>
        <time>2020-08-13T08:35:20Z</time>
      </trkpt>
      <trkpt lat="48.8499" lon="-2.99563">
        <ele>6.8</ele>
        <time>2020-08-13T08:35:24Z</time>
      </trkpt>
      <trkpt lat="48.84982" lon="-2.99572">
        <ele>6.8</ele>
        <time>2020-08-13T08:35:30Z</time>
      </trkpt>
      <trkpt lat="48.8497" lon="-2.99588">
        <ele>7</ele>
        <time>2020-08-13T08:35:37Z</time>
      </trkpt>
      <trkpt lat="48.84961" lon="-2.99604">
        <ele>7.4</ele>
        <time>2020-08-13T08:35:44Z</time>
      </trkpt>
      <trkpt lat="48.84953" lon="-2.9962">
        <ele>7.7</ele>
        <time>2020-08-13T08:35:51Z</time>
      </trkpt>
      <trkpt lat="48.84945" lon="-2.99641">
        <ele>7.9</ele>
        <time>2020-08-13T08:35:58Z</time>
      </trkpt>
      <trkpt lat="48.84947" lon="-2.99665">
        <ele>8</ele>
        <time>2020-08-13T08:36:07Z</time>
      </trkpt>
      <trkpt lat="48.84948" lon="-2.99683">
        <ele>7.7</ele>
        <time>2020-08-13T08:36:13Z</time>
      </trkpt>
      <trkpt lat="48.84947" lon="-2.99706">
        <ele>7.6</ele>
        <time>2020-08-13T08:36:21Z</time>
      </trkpt>
      <trkpt lat="48.84944" lon="-2.99732">
        <ele>7.6</ele>
        <time>2020-08-13T08:36:28Z</time>
      </trkpt>
      <trkpt lat="48.84949" lon="-2.99748">
        <ele>7.5</ele>
        <time>2020-08-13T08:36:32Z</time>
      </trkpt>
      <trkpt lat="48.84961" lon="-2.99768">
        <ele>6.7</ele>
        <time>2020-08-13T08:36:39Z</time>
      </trkpt>
      <trkpt lat="48.84965" lon="-2.99772">
        <ele>6.6</ele>
        <time>2020-08-13T08:36:43Z</time>
      </trkpt>
      <trkpt lat="48.84969" lon="-2.99802">
        <ele>6.5</ele>
        <time>2020-08-13T08:37:05Z</time>
      </trkpt>
      <trkpt lat="48.84976" lon="-2.99826">
        <ele>6.2</ele>
        <time>2020-08-13T08:37:12Z</time>
      </trkpt>
      <trkpt lat="48.84976" lon="-2.99828">
        <ele>6.1</ele>
        <time>2020-08-13T08:37:13Z</time>
      </trkpt>
      <trkpt lat="48.84985" lon="-2.99831">
        <ele>5.8</ele>
        <time>2020-08-13T08:37:17Z</time>
      </trkpt>
      <trkpt lat="48.85002" lon="-2.99828">
        <ele>4.8</ele>
        <time>2020-08-13T08:37:23Z</time>
      </trkpt>
      <trkpt lat="48.85018" lon="-2.99826">
        <ele>4.4</ele>
        <time>2020-08-13T08:37:28Z</time>
      </trkpt>
      <trkpt lat="48.85044" lon="-2.99823">
        <ele>4</ele>
        <time>2020-08-13T08:37:36Z</time>
      </trkpt>
      <trkpt lat="48.85059" lon="-2.99816">
        <ele>3.7</ele>
        <time>2020-08-13T08:37:43Z</time>
      </trkpt>
      <trkpt lat="48.85071" lon="-2.99808">
        <ele>3.6</ele>
        <time>2020-08-13T08:37:49Z</time>
      </trkpt>
      <trkpt lat="48.85087" lon="-2.99797">
        <ele>3.3</ele>
        <time>2020-08-13T08:37:56Z</time>
      </trkpt>
      <trkpt lat="48.85104" lon="-2.99794">
        <ele>3.4</ele>
        <time>2020-08-13T08:38:04Z</time>
      </trkpt>
      <trkpt lat="48.85121" lon="-2.99793">
        <ele>3.5</ele>
        <time>2020-08-13T08:38:12Z</time>
      </trkpt>
      <trkpt lat="48.8514" lon="-2.99781">
        <ele>3.6</ele>
        <time>2020-08-13T08:38:20Z</time>
      </trkpt>
      <trkpt lat="48.85154" lon="-2.9977">
        <ele>3.7</ele>
        <time>2020-08-13T08:38:27Z</time>
      </trkpt>
      <trkpt lat="48.8517" lon="-2.99752">
        <ele>4.2</ele>
        <time>2020-08-13T08:38:35Z</time>
      </trkpt>
      <trkpt lat="48.85172" lon="-2.99751">
        <ele>4.3</ele>
        <time>2020-08-13T08:38:36Z</time>
      </trkpt>
      <trkpt lat="48.8518" lon="-2.99741">
        <ele>4.9</ele>
        <time>2020-08-13T08:38:40Z</time>
      </trkpt>
      <trkpt lat="48.85201" lon="-2.99714">
        <ele>5.6</ele>
        <time>2020-08-13T08:38:50Z</time>
      </trkpt>
      <trkpt lat="48.85215" lon="-2.99698">
        <ele>5.9</ele>
        <time>2020-08-13T08:38:56Z</time>
      </trkpt>
      <trkpt lat="48.85232" lon="-2.99692">
        <ele>6.2</ele>
        <time>2020-08-13T08:39:02Z</time>
      </trkpt>
      <trkpt lat="48.85236" lon="-2.99694">
        <ele>6.2</ele>
        <time>2020-08-13T08:39:04Z</time>
      </trkpt>
      <trkpt lat="48.85243" lon="-2.9971">
        <ele>6.2</ele>
        <time>2020-08-13T08:39:12Z</time>
      </trkpt>
      <trkpt lat="48.85254" lon="-2.99729">
        <ele>6.9</ele>
        <time>2020-08-13T08:39:18Z</time>
      </trkpt>
      <trkpt lat="48.85269" lon="-2.99752">
        <ele>7.3</ele>
        <time>2020-08-13T08:39:25Z</time>
      </trkpt>
      <trkpt lat="48.85277" lon="-2.99773">
        <ele>7.5</ele>
        <time>2020-08-13T08:39:30Z</time>
      </trkpt>
      <trkpt lat="48.85284" lon="-2.99798">
        <ele>7.8</ele>
        <time>2020-08-13T08:39:37Z</time>
      </trkpt>
      <trkpt lat="48.85292" lon="-2.99814">
        <ele>7.9</ele>
        <time>2020-08-13T08:39:44Z</time>
      </trkpt>
      <trkpt lat="48.85297" lon="-2.9983">
        <ele>8.1</ele>
        <time>2020-08-13T08:39:51Z</time>
      </trkpt>
      <trkpt lat="48.85298" lon="-2.99833">
        <ele>8.1</ele>
        <time>2020-08-13T08:39:54Z</time>
      </trkpt>
      <trkpt lat="48.85298" lon="-2.99839">
        <ele>7.8</ele>
        <time>2020-08-13T08:40:00Z</time>
      </trkpt>
      <trkpt lat="48.85294" lon="-2.99857">
        <ele>7.5</ele>
        <time>2020-08-13T08:40:07Z</time>
      </trkpt>
      <trkpt lat="48.85291" lon="-2.99873">
        <ele>7.3</ele>
        <time>2020-08-13T08:40:12Z</time>
      </trkpt>
      <trkpt lat="48.85287" lon="-2.99884">
        <ele>7.1</ele>
        <time>2020-08-13T08:40:16Z</time>
      </trkpt>
      <trkpt lat="48.85291" lon="-2.9989">
        <ele>7</ele>
        <time>2020-08-13T08:40:21Z</time>
      </trkpt>
      <trkpt lat="48.85291" lon="-2.9989">
        <ele>7</ele>
        <time>2020-08-13T08:40:22Z</time>
      </trkpt>
      <trkpt lat="48.85307" lon="-2.9989">
        <ele>7</ele>
        <time>2020-08-13T08:41:40Z</time>
      </trkpt>
      <trkpt lat="48.85316" lon="-2.99894">
        <ele>6.9</ele>
        <time>2020-08-13T08:41:45Z</time>
      </trkpt>
      <trkpt lat="48.85329" lon="-2.99905">
        <ele>6.5</ele>
        <time>2020-08-13T08:41:51Z</time>
      </trkpt>
      <trkpt lat="48.85337" lon="-2.99931">
        <ele>5.9</ele>
        <time>2020-08-13T08:41:58Z</time>
      </trkpt>
      <trkpt lat="48.85345" lon="-2.99943">
        <ele>5.6</ele>
        <time>2020-08-13T08:42:04Z</time>
      </trkpt>
      <trkpt lat="48.85353" lon="-2.99955">
        <ele>5.3</ele>
        <time>2020-08-13T08:42:10Z</time>
      </trkpt>
      <trkpt lat="48.85364" lon="-2.99955">
        <ele>5.6</ele>
        <time>2020-08-13T08:42:14Z</time>
      </trkpt>
      <trkpt lat="48.85383" lon="-2.99954">
        <ele>6.2</ele>
        <time>2020-08-13T08:42:20Z</time>
      </trkpt>
      <trkpt lat="48.85405" lon="-2.9996">
        <ele>6.3</ele>
        <time>2020-08-13T08:42:28Z</time>
      </trkpt>
      <trkpt lat="48.85425" lon="-2.99975">
        <ele>7.5</ele>
        <time>2020-08-13T08:42:36Z</time>
      </trkpt>
      <trkpt lat="48.8544" lon="-2.99988">
        <ele>7.3</ele>
        <time>2020-08-13T08:42:42Z</time>
      </trkpt>
      <trkpt lat="48.85453" lon="-3.00003">
        <ele>5.9</ele>
        <time>2020-08-13T08:42:49Z</time>
      </trkpt>
      <trkpt lat="48.85465" lon="-3.00031">
        <ele>6.5</ele>
        <time>2020-08-13T08:42:57Z</time>
      </trkpt>
      <trkpt lat="48.85474" lon="-3.00056">
        <ele>6.7</ele>
        <time>2020-08-13T08:43:03Z</time>
      </trkpt>
      <trkpt lat="48.85483" lon="-3.00085">
        <ele>6.7</ele>
        <time>2020-08-13T08:43:10Z</time>
      </trkpt>
      <trkpt lat="48.8549" lon="-3.00119">
        <ele>6.1</ele>
        <time>2020-08-13T08:43:19Z</time>
      </trkpt>
      <trkpt lat="48.85491" lon="-3.0014">
        <ele>5.7</ele>
        <time>2020-08-13T08:43:24Z</time>
      </trkpt>
      <trkpt lat="48.85495" lon="-3.00162">
        <ele>5.2</ele>
        <time>2020-08-13T08:43:30Z</time>
      </trkpt>
      <trkpt lat="48.85502" lon="-3.00175">
        <ele>6.5</ele>
        <time>2020-08-13T08:43:35Z</time>
      </trkpt>
      <trkpt lat="48.85502" lon="-3.00195">
        <ele>8.3</ele>
        <time>2020-08-13T08:43:42Z</time>
      </trkpt>
      <trkpt lat="48.85499" lon="-3.00216">
        <ele>6.2</ele>
        <time>2020-08-13T08:43:49Z</time>
      </trkpt>
      <trkpt lat="48.85493" lon="-3.00235">
        <ele>7.2</ele>
        <time>2020-08-13T08:43:56Z</time>
      </trkpt>
      <trkpt lat="48.85481" lon="-3.00246">
        <ele>6.8</ele>
        <time>2020-08-13T08:44:03Z</time>
      </trkpt>
      <trkpt lat="48.85465" lon="-3.00259">
        <ele>8.1</ele>
        <time>2020-08-13T08:44:09Z</time>
      </trkpt>
      <trkpt lat="48.85453" lon="-3.0028">
        <ele>8.1</ele>
        <time>2020-08-13T08:44:15Z</time>
      </trkpt>
      <trkpt lat="48.8545" lon="-3.00294">
        <ele>8.6</ele>
        <time>2020-08-13T08:44:19Z</time>
      </trkpt>
      <trkpt lat="48.8545" lon="-3.00307">
        <ele>9.1</ele>
        <time>2020-08-13T08:44:25Z</time>
      </trkpt>
      <trkpt lat="48.85454" lon="-3.0032">
        <ele>9.8</ele>
        <time>2020-08-13T08:44:32Z</time>
      </trkpt>
      <trkpt lat="48.85461" lon="-3.00336">
        <ele>14.9</ele>
        <time>2020-08-13T08:44:42Z</time>
      </trkpt>
      <trkpt lat="48.85464" lon="-3.0035">
        <ele>15.3</ele>
        <time>2020-08-13T08:44:49Z</time>
      </trkpt>
      <trkpt lat="48.85463" lon="-3.00363">
        <ele>15.5</ele>
        <time>2020-08-13T08:44:56Z</time>
      </trkpt>
      <trkpt lat="48.85463" lon="-3.00376">
        <ele>15.8</ele>
        <time>2020-08-13T08:45:02Z</time>
      </trkpt>
      <trkpt lat="48.8546" lon="-3.00387">
        <ele>16</ele>
        <time>2020-08-13T08:45:07Z</time>
      </trkpt>
      <trkpt lat="48.85458" lon="-3.00391">
        <ele>15.9</ele>
        <time>2020-08-13T08:45:09Z</time>
      </trkpt>
      <trkpt lat="48.85454" lon="-3.00408">
        <ele>16</ele>
        <time>2020-08-13T08:45:16Z</time>
      </trkpt>
      <trkpt lat="48.85445" lon="-3.00423">
        <ele>16.8</ele>
        <time>2020-08-13T08:45:23Z</time>
      </trkpt>
      <trkpt lat="48.85443" lon="-3.00431">
        <ele>16.8</ele>
        <time>2020-08-13T08:45:28Z</time>
      </trkpt>
      <trkpt lat="48.85438" lon="-3.00445">
        <ele>16.7</ele>
        <time>2020-08-13T08:45:57Z</time>
      </trkpt>
      <trkpt lat="48.85438" lon="-3.00464">
        <ele>16.8</ele>
        <time>2020-08-13T08:46:04Z</time>
      </trkpt>
      <trkpt lat="48.85437" lon="-3.00467">
        <ele>16.7</ele>
        <time>2020-08-13T08:46:08Z</time>
      </trkpt>
      <trkpt lat="48.85438" lon="-3.00473">
        <ele>16.7</ele>
        <time>2020-08-13T08:46:16Z</time>
      </trkpt>
      <trkpt lat="48.85444" lon="-3.00486">
        <ele>16.8</ele>
        <time>2020-08-13T08:46:21Z</time>
      </trkpt>
      <trkpt lat="48.85449" lon="-3.00502">
        <ele>16.1</ele>
        <time>2020-08-13T08:46:28Z</time>
      </trkpt>
      <trkpt lat="48.85454" lon="-3.00519">
        <ele>16.4</ele>
        <time>2020-08-13T08:46:36Z</time>
      </trkpt>
      <trkpt lat="48.8546" lon="-3.00536">
        <ele>16.5</ele>
        <time>2020-08-13T08:46:44Z</time>
      </trkpt>
      <trkpt lat="48.85463" lon="-3.00551">
        <ele>16.3</ele>
        <time>2020-08-13T08:46:52Z</time>
      </trkpt>
      <trkpt lat="48.85464" lon="-3.00553">
        <ele>16.3</ele>
        <time>2020-08-13T08:46:55Z</time>
      </trkpt>
      <trkpt lat="48.85466" lon="-3.00558">
        <ele>16.4</ele>
        <time>2020-08-13T08:46:59Z</time>
      </trkpt>
      <trkpt lat="48.85474" lon="-3.00577">
        <ele>16.8</ele>
        <time>2020-08-13T08:47:05Z</time>
      </trkpt>
      <trkpt lat="48.85487" lon="-3.00604">
        <ele>15.3</ele>
        <time>2020-08-13T08:47:12Z</time>
      </trkpt>
      <trkpt lat="48.85493" lon="-3.00622">
        <ele>14.5</ele>
        <time>2020-08-13T08:47:18Z</time>
      </trkpt>
      <trkpt lat="48.85498" lon="-3.00638">
        <ele>14.2</ele>
        <time>2020-08-13T08:47:23Z</time>
      </trkpt>
      <trkpt lat="48.85509" lon="-3.00666">
        <ele>15.8</ele>
        <time>2020-08-13T08:47:31Z</time>
      </trkpt>
      <trkpt lat="48.85518" lon="-3.00688">
        <ele>13.4</ele>
        <time>2020-08-13T08:47:38Z</time>
      </trkpt>
      <trkpt lat="48.8553" lon="-3.00696">
        <ele>13.1</ele>
        <time>2020-08-13T08:47:44Z</time>
      </trkpt>
      <trkpt lat="48.85543" lon="-3.0071">
        <ele>12.7</ele>
        <time>2020-08-13T08:47:51Z</time>
      </trkpt>
      <trkpt lat="48.85554" lon="-3.00727">
        <ele>12.3</ele>
        <time>2020-08-13T08:47:57Z</time>
      </trkpt>
      <trkpt lat="48.85575" lon="-3.0074">
        <ele>11.7</ele>
        <time>2020-08-13T08:48:04Z</time>
      </trkpt>
      <trkpt lat="48.85599" lon="-3.0076">
        <ele>10.9</ele>
        <time>2020-08-13T08:48:13Z</time>
      </trkpt>
      <trkpt lat="48.85618" lon="-3.00782">
        <ele>10.8</ele>
        <time>2020-08-13T08:48:20Z</time>
      </trkpt>
      <trkpt lat="48.85638" lon="-3.00799">
        <ele>10.7</ele>
        <time>2020-08-13T08:48:26Z</time>
      </trkpt>
      <trkpt lat="48.85644" lon="-3.00802">
        <ele>10.7</ele>
        <time>2020-08-13T08:48:28Z</time>
      </trkpt>
      <trkpt lat="48.85648" lon="-3.00819">
        <ele>10.5</ele>
        <time>2020-08-13T08:48:33Z</time>
      </trkpt>
      <trkpt lat="48.85653" lon="-3.00831">
        <ele>10.3</ele>
        <time>2020-08-13T08:48:36Z</time>
      </trkpt>
      <trkpt lat="48.85671" lon="-3.00863">
        <ele>9.8</ele>
        <time>2020-08-13T08:48:44Z</time>
      </trkpt>
      <trkpt lat="48.85673" lon="-3.00875">
        <ele>9.6</ele>
        <time>2020-08-13T08:48:49Z</time>
      </trkpt>
      <trkpt lat="48.85673" lon="-3.00876">
        <ele>9.6</ele>
        <time>2020-08-13T08:48:50Z</time>
      </trkpt>
      <trkpt lat="48.8567" lon="-3.00888">
        <ele>9.4</ele>
        <time>2020-08-13T08:49:22Z</time>
      </trkpt>
      <trkpt lat="48.85664" lon="-3.00911">
        <ele>8.1</ele>
        <time>2020-08-13T08:49:27Z</time>
      </trkpt>
      <trkpt lat="48.85658" lon="-3.00942">
        <ele>7.1</ele>
        <time>2020-08-13T08:49:33Z</time>
      </trkpt>
      <trkpt lat="48.85658" lon="-3.00956">
        <ele>6.9</ele>
        <time>2020-08-13T08:49:37Z</time>
      </trkpt>
      <trkpt lat="48.85659" lon="-3.00979">
        <ele>6.5</ele>
        <time>2020-08-13T08:49:44Z</time>
      </trkpt>
      <trkpt lat="48.85657" lon="-3.00993">
        <ele>6.3</ele>
        <time>2020-08-13T08:49:49Z</time>
      </trkpt>
      <trkpt lat="48.85657" lon="-3.00993">
        <ele>6.3</ele>
        <time>2020-08-13T08:49:51Z</time>
      </trkpt>
      <trkpt lat="48.85643" lon="-3.01015">
        <ele>5.6</ele>
        <time>2020-08-13T08:50:09Z</time>
      </trkpt>
      <trkpt lat="48.85628" lon="-3.01029">
        <ele>5.4</ele>
        <time>2020-08-13T08:50:18Z</time>
      </trkpt>
      <trkpt lat="48.8561" lon="-3.0104">
        <ele>5.1</ele>
        <time>2020-08-13T08:50:27Z</time>
      </trkpt>
      <trkpt lat="48.85603" lon="-3.01036">
        <ele>5.2</ele>
        <time>2020-08-13T08:50:31Z</time>
      </trkpt>
      <trkpt lat="48.85595" lon="-3.01022">
        <ele>5.4</ele>
        <time>2020-08-13T08:50:38Z</time>
      </trkpt>
      <trkpt lat="48.85588" lon="-3.0102">
        <ele>5.5</ele>
        <time>2020-08-13T08:50:43Z</time>
      </trkpt>
      <trkpt lat="48.85577" lon="-3.01031">
        <ele>4.1</ele>
        <time>2020-08-13T08:50:48Z</time>
      </trkpt>
      <trkpt lat="48.85573" lon="-3.01038">
        <ele>3.9</ele>
        <time>2020-08-13T08:50:52Z</time>
      </trkpt>
      <trkpt lat="48.85573" lon="-3.01038">
        <ele>3.9</ele>
        <time>2020-08-13T08:50:53Z</time>
      </trkpt>
      <trkpt lat="48.85577" lon="-3.0103">
        <ele>4.2</ele>
        <time>2020-08-13T08:53:32Z</time>
      </trkpt>
      <trkpt lat="48.85585" lon="-3.01022">
        <ele>5.4</ele>
        <time>2020-08-13T08:53:41Z</time>
      </trkpt>
      <trkpt lat="48.85586" lon="-3.01019">
        <ele>5.5</ele>
        <time>2020-08-13T08:53:43Z</time>
      </trkpt>
      <trkpt lat="48.85596" lon="-3.0102">
        <ele>5.4</ele>
        <time>2020-08-13T08:53:51Z</time>
      </trkpt>
      <trkpt lat="48.85598" lon="-3.01024">
        <ele>5.4</ele>
        <time>2020-08-13T08:53:56Z</time>
      </trkpt>
      <trkpt lat="48.856" lon="-3.01027">
        <ele>5.3</ele>
        <time>2020-08-13T08:53:59Z</time>
      </trkpt>
      <trkpt lat="48.85608" lon="-3.01037">
        <ele>5.2</ele>
        <time>2020-08-13T08:54:05Z</time>
      </trkpt>
      <trkpt lat="48.8561" lon="-3.01038">
        <ele>5.2</ele>
        <time>2020-08-13T08:54:06Z</time>
      </trkpt>
      <trkpt lat="48.85625" lon="-3.01031">
        <ele>5.3</ele>
        <time>2020-08-13T08:54:14Z</time>
      </trkpt>
      <trkpt lat="48.85637" lon="-3.01023">
        <ele>5.5</ele>
        <time>2020-08-13T08:54:21Z</time>
      </trkpt>
      <trkpt lat="48.85645" lon="-3.01012">
        <ele>5.6</ele>
        <time>2020-08-13T08:54:29Z</time>
      </trkpt>
      <trkpt lat="48.85653" lon="-3.01">
        <ele>6.3</ele>
        <time>2020-08-13T08:54:38Z</time>
      </trkpt>
      <trkpt lat="48.85658" lon="-3.00991">
        <ele>6.3</ele>
        <time>2020-08-13T08:54:45Z</time>
      </trkpt>
      <trkpt lat="48.85658" lon="-3.00989">
        <ele>6.3</ele>
        <time>2020-08-13T08:54:49Z</time>
      </trkpt>
      <trkpt lat="48.8566" lon="-3.00982">
        <ele>6.4</ele>
        <time>2020-08-13T08:55:03Z</time>
      </trkpt>
      <trkpt lat="48.8566" lon="-3.00961">
        <ele>6.8</ele>
        <time>2020-08-13T08:55:10Z</time>
      </trkpt>
      <trkpt lat="48.85659" lon="-3.0094">
        <ele>7.2</ele>
        <time>2020-08-13T08:55:17Z</time>
      </trkpt>
      <trkpt lat="48.85662" lon="-3.00921">
        <ele>7.7</ele>
        <time>2020-08-13T08:55:21Z</time>
      </trkpt>
      <trkpt lat="48.85666" lon="-3.00901">
        <ele>8.3</ele>
        <time>2020-08-13T08:55:28Z</time>
      </trkpt>
      <trkpt lat="48.8567" lon="-3.00894">
        <ele>9.2</ele>
        <time>2020-08-13T08:55:31Z</time>
      </trkpt>
      <trkpt lat="48.85677" lon="-3.00894">
        <ele>9.3</ele>
        <time>2020-08-13T08:55:35Z</time>
      </trkpt>
      <trkpt lat="48.85679" lon="-3.00896">
        <ele>9.2</ele>
        <time>2020-08-13T08:55:39Z</time>
      </trkpt>
      <trkpt lat="48.8568" lon="-3.00896">
        <ele>9.3</ele>
        <time>2020-08-13T08:56:03Z</time>
      </trkpt>
      <trkpt lat="48.8568" lon="-3.00895">
        <ele>9.3</ele>
        <time>2020-08-13T08:56:04Z</time>
      </trkpt>
      <trkpt lat="48.85677" lon="-3.00888">
        <ele>9.4</ele>
        <time>2020-08-13T08:56:11Z</time>
      </trkpt>
      <trkpt lat="48.85675" lon="-3.00878">
        <ele>9.6</ele>
        <time>2020-08-13T08:56:17Z</time>
      </trkpt>
      <trkpt lat="48.85671" lon="-3.00862">
        <ele>9.8</ele>
        <time>2020-08-13T08:56:24Z</time>
      </trkpt>
      <trkpt lat="48.85661" lon="-3.00842">
        <ele>9.5</ele>
        <time>2020-08-13T08:56:30Z</time>
      </trkpt>
      <trkpt lat="48.85649" lon="-3.00823">
        <ele>10.4</ele>
        <time>2020-08-13T08:56:37Z</time>
      </trkpt>
      <trkpt lat="48.85646" lon="-3.00807">
        <ele>10.6</ele>
        <time>2020-08-13T08:56:42Z</time>
      </trkpt>
      <trkpt lat="48.85648" lon="-3.00799">
        <ele>10.8</ele>
        <time>2020-08-13T08:56:45Z</time>
      </trkpt>
      <trkpt lat="48.85647" lon="-3.00778">
        <ele>11.2</ele>
        <time>2020-08-13T08:56:53Z</time>
      </trkpt>
      <trkpt lat="48.85648" lon="-3.0076">
        <ele>11.7</ele>
        <time>2020-08-13T08:57:00Z</time>
      </trkpt>
      <trkpt lat="48.85656" lon="-3.00752">
        <ele>12.2</ele>
        <time>2020-08-13T08:57:06Z</time>
      </trkpt>
      <trkpt lat="48.85662" lon="-3.00745">
        <ele>13.1</ele>
        <time>2020-08-13T08:57:11Z</time>
      </trkpt>
      <trkpt lat="48.85666" lon="-3.00724">
        <ele>13.3</ele>
        <time>2020-08-13T08:57:19Z</time>
      </trkpt>
      <trkpt lat="48.85672" lon="-3.007">
        <ele>13.4</ele>
        <time>2020-08-13T08:57:28Z</time>
      </trkpt>
      <trkpt lat="48.85677" lon="-3.00675">
        <ele>13.7</ele>
        <time>2020-08-13T08:57:36Z</time>
      </trkpt>
      <trkpt lat="48.85681" lon="-3.0064">
        <ele>14.7</ele>
        <time>2020-08-13T08:57:47Z</time>
      </trkpt>
      <trkpt lat="48.85684" lon="-3.0061">
        <ele>15.3</ele>
        <time>2020-08-13T08:57:57Z</time>
      </trkpt>
      <trkpt lat="48.8569" lon="-3.00582">
        <ele>17.1</ele>
        <time>2020-08-13T08:58:06Z</time>
      </trkpt>
      <trkpt lat="48.85692" lon="-3.00557">
        <ele>17.4</ele>
        <time>2020-08-13T08:58:15Z</time>
      </trkpt>
      <trkpt lat="48.8569" lon="-3.00539">
        <ele>17.8</ele>
        <time>2020-08-13T08:58:23Z</time>
      </trkpt>
      <trkpt lat="48.85695" lon="-3.00535">
        <ele>17.8</ele>
        <time>2020-08-13T08:58:27Z</time>
      </trkpt>
      <trkpt lat="48.85719" lon="-3.00541">
        <ele>17.4</ele>
        <time>2020-08-13T08:58:36Z</time>
      </trkpt>
      <trkpt lat="48.85743" lon="-3.00542">
        <ele>17.1</ele>
        <time>2020-08-13T08:58:42Z</time>
      </trkpt>
      <trkpt lat="48.85766" lon="-3.00537">
        <ele>15.7</ele>
        <time>2020-08-13T08:58:48Z</time>
      </trkpt>
      <trkpt lat="48.85778" lon="-3.00542">
        <ele>15.4</ele>
        <time>2020-08-13T08:58:53Z</time>
      </trkpt>
      <trkpt lat="48.85798" lon="-3.0054">
        <ele>15.2</ele>
        <time>2020-08-13T08:59:00Z</time>
      </trkpt>
      <trkpt lat="48.85821" lon="-3.00532">
        <ele>15</ele>
        <time>2020-08-13T08:59:08Z</time>
      </trkpt>
      <trkpt lat="48.85838" lon="-3.00527">
        <ele>12.2</ele>
        <time>2020-08-13T08:59:13Z</time>
      </trkpt>
      <trkpt lat="48.85862" lon="-3.00531">
        <ele>11.1</ele>
        <time>2020-08-13T08:59:20Z</time>
      </trkpt>
      <trkpt lat="48.85875" lon="-3.00537">
        <ele>10.5</ele>
        <time>2020-08-13T08:59:25Z</time>
      </trkpt>
      <trkpt lat="48.85888" lon="-3.00537">
        <ele>9.9</ele>
        <time>2020-08-13T08:59:29Z</time>
      </trkpt>
      <trkpt lat="48.85897" lon="-3.00541">
        <ele>9.6</ele>
        <time>2020-08-13T08:59:34Z</time>
      </trkpt>
      <trkpt lat="48.85898" lon="-3.0054">
        <ele>9.6</ele>
        <time>2020-08-13T08:59:36Z</time>
      </trkpt>
      <trkpt lat="48.85906" lon="-3.00552">
        <ele>9.6</ele>
        <time>2020-08-13T08:59:45Z</time>
      </trkpt>
      <trkpt lat="48.85907" lon="-3.00552">
        <ele>9.6</ele>
        <time>2020-08-13T08:59:48Z</time>
      </trkpt>
      <trkpt lat="48.85913" lon="-3.00542">
        <ele>9.2</ele>
        <time>2020-08-13T09:00:27Z</time>
      </trkpt>
      <trkpt lat="48.85919" lon="-3.0053">
        <ele>5.9</ele>
        <time>2020-08-13T09:00:37Z</time>
      </trkpt>
      <trkpt lat="48.8592" lon="-3.00528">
        <ele>5.8</ele>
        <time>2020-08-13T09:00:41Z</time>
      </trkpt>
      <trkpt lat="48.85918" lon="-3.00532">
        <ele>5.9</ele>
        <time>2020-08-13T09:09:55Z</time>
      </trkpt>
      <trkpt lat="48.85911" lon="-3.00546">
        <ele>9.4</ele>
        <time>2020-08-13T09:10:07Z</time>
      </trkpt>
      <trkpt lat="48.85909" lon="-3.00552">
        <ele>9.5</ele>
        <time>2020-08-13T09:10:12Z</time>
      </trkpt>
      <trkpt lat="48.85905" lon="-3.00554">
        <ele>9.6</ele>
        <time>2020-08-13T09:10:17Z</time>
      </trkpt>
      <trkpt lat="48.85903" lon="-3.00553">
        <ele>9.7</ele>
        <time>2020-08-13T09:10:22Z</time>
      </trkpt>
      <trkpt lat="48.859" lon="-3.00551">
        <ele>9.7</ele>
        <time>2020-08-13T09:10:33Z</time>
      </trkpt>
      <trkpt lat="48.85897" lon="-3.00548">
        <ele>9.8</ele>
        <time>2020-08-13T09:10:38Z</time>
      </trkpt>
      <trkpt lat="48.85896" lon="-3.00545">
        <ele>9.7</ele>
        <time>2020-08-13T09:10:45Z</time>
      </trkpt>
      <trkpt lat="48.85896" lon="-3.00545">
        <ele>9.7</ele>
        <time>2020-08-13T09:10:47Z</time>
      </trkpt>
      <trkpt lat="48.85896" lon="-3.00537">
        <ele>9.6</ele>
        <time>2020-08-13T09:11:12Z</time>
      </trkpt>
      <trkpt lat="48.85897" lon="-3.00532">
        <ele>9.4</ele>
        <time>2020-08-13T09:11:18Z</time>
      </trkpt>
      <trkpt lat="48.859" lon="-3.00507">
        <ele>8</ele>
        <time>2020-08-13T09:11:26Z</time>
      </trkpt>
      <trkpt lat="48.85903" lon="-3.00482">
        <ele>8.3</ele>
        <time>2020-08-13T09:11:34Z</time>
      </trkpt>
      <trkpt lat="48.85901" lon="-3.00461">
        <ele>9.2</ele>
        <time>2020-08-13T09:11:42Z</time>
      </trkpt>
      <trkpt lat="48.859" lon="-3.00441">
        <ele>9.3</ele>
        <time>2020-08-13T09:11:49Z</time>
      </trkpt>
      <trkpt lat="48.85903" lon="-3.0043">
        <ele>8.8</ele>
        <time>2020-08-13T09:11:57Z</time>
      </trkpt>
      <trkpt lat="48.8591" lon="-3.00413">
        <ele>8.2</ele>
        <time>2020-08-13T09:12:01Z</time>
      </trkpt>
      <trkpt lat="48.85926" lon="-3.00378">
        <ele>7.7</ele>
        <time>2020-08-13T09:12:09Z</time>
      </trkpt>
      <trkpt lat="48.85935" lon="-3.00351">
        <ele>8.4</ele>
        <time>2020-08-13T09:12:16Z</time>
      </trkpt>
      <trkpt lat="48.85936" lon="-3.00347">
        <ele>8.5</ele>
        <time>2020-08-13T09:12:20Z</time>
      </trkpt>
      <trkpt lat="48.85931" lon="-3.00329">
        <ele>9.4</ele>
        <time>2020-08-13T09:12:49Z</time>
      </trkpt>
      <trkpt lat="48.85932" lon="-3.003">
        <ele>8.6</ele>
        <time>2020-08-13T09:12:58Z</time>
      </trkpt>
      <trkpt lat="48.85936" lon="-3.00282">
        <ele>8.6</ele>
        <time>2020-08-13T09:13:05Z</time>
      </trkpt>
      <trkpt lat="48.85949" lon="-3.00257">
        <ele>8.3</ele>
        <time>2020-08-13T09:13:14Z</time>
      </trkpt>
      <trkpt lat="48.8596" lon="-3.00233">
        <ele>6.8</ele>
        <time>2020-08-13T09:13:21Z</time>
      </trkpt>
      <trkpt lat="48.85962" lon="-3.00222">
        <ele>6.6</ele>
        <time>2020-08-13T09:13:24Z</time>
      </trkpt>
      <trkpt lat="48.85961" lon="-3.00211">
        <ele>6.4</ele>
        <time>2020-08-13T09:13:30Z</time>
      </trkpt>
      <trkpt lat="48.85962" lon="-3.00209">
        <ele>6.4</ele>
        <time>2020-08-13T09:13:33Z</time>
      </trkpt>
      <trkpt lat="48.85967" lon="-3.00201">
        <ele>6</ele>
        <time>2020-08-13T09:13:44Z</time>
      </trkpt>
      <trkpt lat="48.85966" lon="-3.00199">
        <ele>6</ele>
        <time>2020-08-13T09:13:46Z</time>
      </trkpt>
      <trkpt lat="48.85966" lon="-3.00194">
        <ele>5.9</ele>
        <time>2020-08-13T09:13:52Z</time>
      </trkpt>
      <trkpt lat="48.85966" lon="-3.00189">
        <ele>5.8</ele>
        <time>2020-08-13T09:14:04Z</time>
      </trkpt>
      <trkpt lat="48.85965" lon="-3.00184">
        <ele>5.8</ele>
        <time>2020-08-13T09:14:10Z</time>
      </trkpt>
      <trkpt lat="48.85965" lon="-3.00189">
        <ele>5.9</ele>
        <time>2020-08-13T09:17:27Z</time>
      </trkpt>
      <trkpt lat="48.85965" lon="-3.00191">
        <ele>5.9</ele>
        <time>2020-08-13T09:17:31Z</time>
      </trkpt>
      <trkpt lat="48.85966" lon="-3.00195">
        <ele>5.9</ele>
        <time>2020-08-13T09:17:36Z</time>
      </trkpt>
      <trkpt lat="48.85965" lon="-3.00208">
        <ele>6.2</ele>
        <time>2020-08-13T09:17:45Z</time>
      </trkpt>
      <trkpt lat="48.85962" lon="-3.00213">
        <ele>6.4</ele>
        <time>2020-08-13T09:17:49Z</time>
      </trkpt>
      <trkpt lat="48.8596" lon="-3.00219">
        <ele>6.6</ele>
        <time>2020-08-13T09:17:54Z</time>
      </trkpt>
      <trkpt lat="48.85961" lon="-3.0023">
        <ele>6.7</ele>
        <time>2020-08-13T09:18:02Z</time>
      </trkpt>
      <trkpt lat="48.85957" lon="-3.00241">
        <ele>7.1</ele>
        <time>2020-08-13T09:18:10Z</time>
      </trkpt>
      <trkpt lat="48.85952" lon="-3.00251">
        <ele>8.2</ele>
        <time>2020-08-13T09:18:18Z</time>
      </trkpt>
      <trkpt lat="48.85949" lon="-3.00258">
        <ele>8.3</ele>
        <time>2020-08-13T09:18:24Z</time>
      </trkpt>
      <trkpt lat="48.85947" lon="-3.00263">
        <ele>8.4</ele>
        <time>2020-08-13T09:18:27Z</time>
      </trkpt>
      <trkpt lat="48.85936" lon="-3.00283">
        <ele>8.6</ele>
        <time>2020-08-13T09:18:35Z</time>
      </trkpt>
      <trkpt lat="48.8593" lon="-3.00303">
        <ele>8.7</ele>
        <time>2020-08-13T09:18:41Z</time>
      </trkpt>
      <trkpt lat="48.85931" lon="-3.00314">
        <ele>8.9</ele>
        <time>2020-08-13T09:18:43Z</time>
      </trkpt>
      <trkpt lat="48.85928" lon="-3.0034">
        <ele>9.4</ele>
        <time>2020-08-13T09:18:48Z</time>
      </trkpt>
      <trkpt lat="48.8592" lon="-3.00341">
        <ele>10</ele>
        <time>2020-08-13T09:18:52Z</time>
      </trkpt>
      <trkpt lat="48.85905" lon="-3.00328">
        <ele>11.2</ele>
        <time>2020-08-13T09:19:00Z</time>
      </trkpt>
      <trkpt lat="48.85894" lon="-3.00318">
        <ele>11.2</ele>
        <time>2020-08-13T09:19:07Z</time>
      </trkpt>
      <trkpt lat="48.85883" lon="-3.00306">
        <ele>11.3</ele>
        <time>2020-08-13T09:19:14Z</time>
      </trkpt>
      <trkpt lat="48.85871" lon="-3.00292">
        <ele>11.2</ele>
        <time>2020-08-13T09:19:20Z</time>
      </trkpt>
      <trkpt lat="48.85861" lon="-3.0028">
        <ele>11.1</ele>
        <time>2020-08-13T09:19:26Z</time>
      </trkpt>
      <trkpt lat="48.8585" lon="-3.00266">
        <ele>10.8</ele>
        <time>2020-08-13T09:19:34Z</time>
      </trkpt>
      <trkpt lat="48.85835" lon="-3.00262">
        <ele>10.5</ele>
        <time>2020-08-13T09:19:41Z</time>
      </trkpt>
      <trkpt lat="48.85811" lon="-3.00255">
        <ele>10.7</ele>
        <time>2020-08-13T09:19:47Z</time>
      </trkpt>
      <trkpt lat="48.8579" lon="-3.00246">
        <ele>9.9</ele>
        <time>2020-08-13T09:19:53Z</time>
      </trkpt>
      <trkpt lat="48.8577" lon="-3.00234">
        <ele>10.1</ele>
        <time>2020-08-13T09:20:00Z</time>
      </trkpt>
      <trkpt lat="48.85762" lon="-3.00234">
        <ele>10.2</ele>
        <time>2020-08-13T09:20:05Z</time>
      </trkpt>
      <trkpt lat="48.8575" lon="-3.00234">
        <ele>10.4</ele>
        <time>2020-08-13T09:20:12Z</time>
      </trkpt>
      <trkpt lat="48.8574" lon="-3.00234">
        <ele>11.6</ele>
        <time>2020-08-13T09:20:18Z</time>
      </trkpt>
      <trkpt lat="48.85727" lon="-3.00234">
        <ele>11.9</ele>
        <time>2020-08-13T09:20:26Z</time>
      </trkpt>
      <trkpt lat="48.85716" lon="-3.00232">
        <ele>12.2</ele>
        <time>2020-08-13T09:20:33Z</time>
      </trkpt>
      <trkpt lat="48.85709" lon="-3.00223">
        <ele>12.4</ele>
        <time>2020-08-13T09:20:39Z</time>
      </trkpt>
      <trkpt lat="48.85698" lon="-3.00217">
        <ele>12.6</ele>
        <time>2020-08-13T09:20:46Z</time>
      </trkpt>
      <trkpt lat="48.85697" lon="-3.00216">
        <ele>12.6</ele>
        <time>2020-08-13T09:20:47Z</time>
      </trkpt>
      <trkpt lat="48.85693" lon="-3.00215">
        <ele>12.6</ele>
        <time>2020-08-13T09:20:52Z</time>
      </trkpt>
      <trkpt lat="48.85684" lon="-3.00223">
        <ele>13</ele>
        <time>2020-08-13T09:21:22Z</time>
      </trkpt>
      <trkpt lat="48.85683" lon="-3.00224">
        <ele>13</ele>
        <time>2020-08-13T09:21:23Z</time>
      </trkpt>
      <trkpt lat="48.85673" lon="-3.00222">
        <ele>13.2</ele>
        <time>2020-08-13T09:21:27Z</time>
      </trkpt>
      <trkpt lat="48.85647" lon="-3.00215">
        <ele>13.7</ele>
        <time>2020-08-13T09:21:36Z</time>
      </trkpt>
      <trkpt lat="48.85636" lon="-3.00224">
        <ele>13.8</ele>
        <time>2020-08-13T09:21:41Z</time>
      </trkpt>
      <trkpt lat="48.8563" lon="-3.0024">
        <ele>13.9</ele>
        <time>2020-08-13T09:21:47Z</time>
      </trkpt>
      <trkpt lat="48.85629" lon="-3.00243">
        <ele>13.9</ele>
        <time>2020-08-13T09:21:48Z</time>
      </trkpt>
      <trkpt lat="48.85623" lon="-3.00242">
        <ele>13.8</ele>
        <time>2020-08-13T09:21:52Z</time>
      </trkpt>
      <trkpt lat="48.85618" lon="-3.00238">
        <ele>13.8</ele>
        <time>2020-08-13T09:21:56Z</time>
      </trkpt>
      <trkpt lat="48.85617" lon="-3.00238">
        <ele>13.8</ele>
        <time>2020-08-13T09:21:59Z</time>
      </trkpt>
      <trkpt lat="48.85612" lon="-3.00237">
        <ele>13.7</ele>
        <time>2020-08-13T09:22:08Z</time>
      </trkpt>
      <trkpt lat="48.85597" lon="-3.00236">
        <ele>13.7</ele>
        <time>2020-08-13T09:22:14Z</time>
      </trkpt>
      <trkpt lat="48.85593" lon="-3.00236">
        <ele>13.7</ele>
        <time>2020-08-13T09:22:15Z</time>
      </trkpt>
      <trkpt lat="48.85579" lon="-3.00232">
        <ele>12</ele>
        <time>2020-08-13T09:22:18Z</time>
      </trkpt>
      <trkpt lat="48.85564" lon="-3.00225">
        <ele>11.2</ele>
        <time>2020-08-13T09:22:21Z</time>
      </trkpt>
      <trkpt lat="48.8555" lon="-3.00208">
        <ele>10.3</ele>
        <time>2020-08-13T09:22:25Z</time>
      </trkpt>
      <trkpt lat="48.85522" lon="-3.00165">
        <ele>7.5</ele>
        <time>2020-08-13T09:22:34Z</time>
      </trkpt>
      <trkpt lat="48.85497" lon="-3.00137">
        <ele>5.7</ele>
        <time>2020-08-13T09:22:42Z</time>
      </trkpt>
      <trkpt lat="48.85488" lon="-3.00126">
        <ele>6</ele>
        <time>2020-08-13T09:22:47Z</time>
      </trkpt>
      <trkpt lat="48.85488" lon="-3.00126">
        <ele>6</ele>
        <time>2020-08-13T09:22:49Z</time>
      </trkpt>
      <trkpt lat="48.85483" lon="-3.00096">
        <ele>6.5</ele>
        <time>2020-08-13T09:23:37Z</time>
      </trkpt>
      <trkpt lat="48.85475" lon="-3.0007">
        <ele>6.7</ele>
        <time>2020-08-13T09:23:46Z</time>
      </trkpt>
      <trkpt lat="48.85467" lon="-3.00043">
        <ele>6.6</ele>
        <time>2020-08-13T09:23:54Z</time>
      </trkpt>
      <trkpt lat="48.85461" lon="-3.00025">
        <ele>6.4</ele>
        <time>2020-08-13T09:23:59Z</time>
      </trkpt>
      <trkpt lat="48.85448" lon="-3.00002">
        <ele>5.6</ele>
        <time>2020-08-13T09:24:06Z</time>
      </trkpt>
      <trkpt lat="48.8543" lon="-2.99984">
        <ele>6.8</ele>
        <time>2020-08-13T09:24:14Z</time>
      </trkpt>
      <trkpt lat="48.85419" lon="-2.99973">
        <ele>7.6</ele>
        <time>2020-08-13T09:24:21Z</time>
      </trkpt>
      <trkpt lat="48.85417" lon="-2.99972">
        <ele>7.6</ele>
        <time>2020-08-13T09:24:24Z</time>
      </trkpt>
      <trkpt lat="48.85416" lon="-2.99967">
        <ele>5.9</ele>
        <time>2020-08-13T09:26:01Z</time>
      </trkpt>
      <trkpt lat="48.85418" lon="-2.99967">
        <ele>8.2</ele>
        <time>2020-08-13T09:27:06Z</time>
      </trkpt>
      <trkpt lat="48.85433" lon="-2.99984">
        <ele>7</ele>
        <time>2020-08-13T09:28:32Z</time>
      </trkpt>
      <trkpt lat="48.85448" lon="-2.99999">
        <ele>7.6</ele>
        <time>2020-08-13T09:28:38Z</time>
      </trkpt>
      <trkpt lat="48.85461" lon="-3.00021">
        <ele>6.4</ele>
        <time>2020-08-13T09:28:45Z</time>
      </trkpt>
      <trkpt lat="48.85472" lon="-3.00056">
        <ele>6.7</ele>
        <time>2020-08-13T09:28:53Z</time>
      </trkpt>
      <trkpt lat="48.85485" lon="-3.00103">
        <ele>6.5</ele>
        <time>2020-08-13T09:29:03Z</time>
      </trkpt>
      <trkpt lat="48.85491" lon="-3.00128">
        <ele>5.9</ele>
        <time>2020-08-13T09:29:10Z</time>
      </trkpt>
      <trkpt lat="48.85505" lon="-3.00145">
        <ele>7.3</ele>
        <time>2020-08-13T09:29:17Z</time>
      </trkpt>
      <trkpt lat="48.8552" lon="-3.00161">
        <ele>7.4</ele>
        <time>2020-08-13T09:29:26Z</time>
      </trkpt>
      <trkpt lat="48.85534" lon="-3.00179">
        <ele>9.1</ele>
        <time>2020-08-13T09:29:36Z</time>
      </trkpt>
      <trkpt lat="48.85544" lon="-3.00194">
        <ele>9.8</ele>
        <time>2020-08-13T09:29:43Z</time>
      </trkpt>
      <trkpt lat="48.85557" lon="-3.00213">
        <ele>10.6</ele>
        <time>2020-08-13T09:29:53Z</time>
      </trkpt>
      <trkpt lat="48.8557" lon="-3.00226">
        <ele>11.4</ele>
        <time>2020-08-13T09:30:02Z</time>
      </trkpt>
      <trkpt lat="48.85583" lon="-3.00231">
        <ele>12</ele>
        <time>2020-08-13T09:30:10Z</time>
      </trkpt>
      <trkpt lat="48.85597" lon="-3.00234">
        <ele>13.7</ele>
        <time>2020-08-13T09:30:19Z</time>
      </trkpt>
      <trkpt lat="48.8561" lon="-3.00235">
        <ele>13.7</ele>
        <time>2020-08-13T09:30:27Z</time>
      </trkpt>
      <trkpt lat="48.85624" lon="-3.0024">
        <ele>13.8</ele>
        <time>2020-08-13T09:30:36Z</time>
      </trkpt>
      <trkpt lat="48.85625" lon="-3.00241">
        <ele>13.8</ele>
        <time>2020-08-13T09:30:38Z</time>
      </trkpt>
      <trkpt lat="48.85627" lon="-3.00241">
        <ele>13.9</ele>
        <time>2020-08-13T09:30:51Z</time>
      </trkpt>
      <trkpt lat="48.85635" lon="-3.00226">
        <ele>13.8</ele>
        <time>2020-08-13T09:32:02Z</time>
      </trkpt>
      <trkpt lat="48.85636" lon="-3.00222">
        <ele>13.7</ele>
        <time>2020-08-13T09:32:06Z</time>
      </trkpt>
      <trkpt lat="48.8565" lon="-3.00218">
        <ele>13.8</ele>
        <time>2020-08-13T09:32:24Z</time>
      </trkpt>
      <trkpt lat="48.85672" lon="-3.00225">
        <ele>13.3</ele>
        <time>2020-08-13T09:32:32Z</time>
      </trkpt>
      <trkpt lat="48.85679" lon="-3.00227">
        <ele>13.2</ele>
        <time>2020-08-13T09:32:35Z</time>
      </trkpt>
      <trkpt lat="48.85687" lon="-3.0022">
        <ele>12.9</ele>
        <time>2020-08-13T09:32:41Z</time>
      </trkpt>
      <trkpt lat="48.85691" lon="-3.00216">
        <ele>12.7</ele>
        <time>2020-08-13T09:32:46Z</time>
      </trkpt>
      <trkpt lat="48.85688" lon="-3.00197">
        <ele>12.5</ele>
        <time>2020-08-13T09:32:51Z</time>
      </trkpt>
      <trkpt lat="48.85686" lon="-3.00181">
        <ele>12.5</ele>
        <time>2020-08-13T09:32:53Z</time>
      </trkpt>
      <trkpt lat="48.85686" lon="-3.00151">
        <ele>11.9</ele>
        <time>2020-08-13T09:32:56Z</time>
      </trkpt>
      <trkpt lat="48.85693" lon="-3.00089">
        <ele>11.4</ele>
        <time>2020-08-13T09:33:03Z</time>
      </trkpt>
      <trkpt lat="48.85694" lon="-3.00082">
        <ele>11.8</ele>
        <time>2020-08-13T09:33:04Z</time>
      </trkpt>
      <trkpt lat="48.85689" lon="-3.00067">
        <ele>12</ele>
        <time>2020-08-13T09:33:07Z</time>
      </trkpt>
      <trkpt lat="48.85674" lon="-3.0006">
        <ele>12.1</ele>
        <time>2020-08-13T09:33:11Z</time>
      </trkpt>
      <trkpt lat="48.85657" lon="-3.00054">
        <ele>12.6</ele>
        <time>2020-08-13T09:33:17Z</time>
      </trkpt>
      <trkpt lat="48.85634" lon="-3.00047">
        <ele>12.7</ele>
        <time>2020-08-13T09:33:25Z</time>
      </trkpt>
      <trkpt lat="48.85613" lon="-3.00029">
        <ele>12.8</ele>
        <time>2020-08-13T09:33:34Z</time>
      </trkpt>
      <trkpt lat="48.85614" lon="-3.00012">
        <ele>12.9</ele>
        <time>2020-08-13T09:33:39Z</time>
      </trkpt>
      <trkpt lat="48.85619" lon="-2.99989">
        <ele>13.3</ele>
        <time>2020-08-13T09:33:47Z</time>
      </trkpt>
      <trkpt lat="48.85625" lon="-2.99972">
        <ele>13.3</ele>
        <time>2020-08-13T09:33:54Z</time>
      </trkpt>
      <trkpt lat="48.85629" lon="-2.99947">
        <ele>13.2</ele>
        <time>2020-08-13T09:34:02Z</time>
      </trkpt>
      <trkpt lat="48.85632" lon="-2.99921">
        <ele>13.2</ele>
        <time>2020-08-13T09:34:09Z</time>
      </trkpt>
      <trkpt lat="48.85635" lon="-2.99906">
        <ele>12.7</ele>
        <time>2020-08-13T09:34:12Z</time>
      </trkpt>
      <trkpt lat="48.85652" lon="-2.99884">
        <ele>12.5</ele>
        <time>2020-08-13T09:34:17Z</time>
      </trkpt>
      <trkpt lat="48.85661" lon="-2.99881">
        <ele>12.4</ele>
        <time>2020-08-13T09:34:19Z</time>
      </trkpt>
      <trkpt lat="48.85675" lon="-2.99878">
        <ele>12.4</ele>
        <time>2020-08-13T09:34:22Z</time>
      </trkpt>
      <trkpt lat="48.85701" lon="-2.99867">
        <ele>12.4</ele>
        <time>2020-08-13T09:34:28Z</time>
      </trkpt>
      <trkpt lat="48.8571" lon="-2.99848">
        <ele>12.4</ele>
        <time>2020-08-13T09:34:32Z</time>
      </trkpt>
      <trkpt lat="48.85711" lon="-2.99822">
        <ele>11.4</ele>
        <time>2020-08-13T09:34:36Z</time>
      </trkpt>
      <trkpt lat="48.85718" lon="-2.99793">
        <ele>11.1</ele>
        <time>2020-08-13T09:34:40Z</time>
      </trkpt>
      <trkpt lat="48.85735" lon="-2.99766">
        <ele>11</ele>
        <time>2020-08-13T09:34:45Z</time>
      </trkpt>
      <trkpt lat="48.85745" lon="-2.99742">
        <ele>10.6</ele>
        <time>2020-08-13T09:34:49Z</time>
      </trkpt>
      <trkpt lat="48.8575" lon="-2.99716">
        <ele>11.6</ele>
        <time>2020-08-13T09:34:53Z</time>
      </trkpt>
      <trkpt lat="48.85762" lon="-2.99689">
        <ele>11.6</ele>
        <time>2020-08-13T09:34:59Z</time>
      </trkpt>
      <trkpt lat="48.85771" lon="-2.99684">
        <ele>11.6</ele>
        <time>2020-08-13T09:35:03Z</time>
      </trkpt>
      <trkpt lat="48.85784" lon="-2.99689">
        <ele>11.8</ele>
        <time>2020-08-13T09:35:11Z</time>
      </trkpt>
      <trkpt lat="48.85795" lon="-2.99693">
        <ele>11.9</ele>
        <time>2020-08-13T09:35:19Z</time>
      </trkpt>
      <trkpt lat="48.85802" lon="-2.99697">
        <ele>12</ele>
        <time>2020-08-13T09:35:25Z</time>
      </trkpt>
      <trkpt lat="48.85814" lon="-2.99691">
        <ele>12.1</ele>
        <time>2020-08-13T09:35:32Z</time>
      </trkpt>
      <trkpt lat="48.85831" lon="-2.99677">
        <ele>12</ele>
        <time>2020-08-13T09:35:39Z</time>
      </trkpt>
      <trkpt lat="48.85845" lon="-2.99673">
        <ele>10.8</ele>
        <time>2020-08-13T09:35:44Z</time>
      </trkpt>
      <trkpt lat="48.85852" lon="-2.99684">
        <ele>10.2</ele>
        <time>2020-08-13T09:35:49Z</time>
      </trkpt>
      <trkpt lat="48.85854" lon="-2.99687">
        <ele>10.1</ele>
        <time>2020-08-13T09:35:50Z</time>
      </trkpt>
      <trkpt lat="48.85865" lon="-2.99686">
        <ele>9.6</ele>
        <time>2020-08-13T09:35:54Z</time>
      </trkpt>
      <trkpt lat="48.85875" lon="-2.99681">
        <ele>9</ele>
        <time>2020-08-13T09:35:59Z</time>
      </trkpt>
      <trkpt lat="48.85876" lon="-2.9968">
        <ele>9</ele>
        <time>2020-08-13T09:36:02Z</time>
      </trkpt>
      <trkpt lat="48.85881" lon="-2.99676">
        <ele>8.6</ele>
        <time>2020-08-13T09:36:23Z</time>
      </trkpt>
      <trkpt lat="48.85887" lon="-2.99665">
        <ele>6.9</ele>
        <time>2020-08-13T09:36:28Z</time>
      </trkpt>
      <trkpt lat="48.85892" lon="-2.99656">
        <ele>6.6</ele>
        <time>2020-08-13T09:36:30Z</time>
      </trkpt>
      <trkpt lat="48.85898" lon="-2.99638">
        <ele>6.4</ele>
        <time>2020-08-13T09:36:33Z</time>
      </trkpt>
      <trkpt lat="48.85915" lon="-2.99615">
        <ele>5.6</ele>
        <time>2020-08-13T09:36:37Z</time>
      </trkpt>
      <trkpt lat="48.85936" lon="-2.99604">
        <ele>4.4</ele>
        <time>2020-08-13T09:36:41Z</time>
      </trkpt>
      <trkpt lat="48.8595" lon="-2.99582">
        <ele>4</ele>
        <time>2020-08-13T09:36:45Z</time>
      </trkpt>
      <trkpt lat="48.85957" lon="-2.9957">
        <ele>4.1</ele>
        <time>2020-08-13T09:36:48Z</time>
      </trkpt>
      <trkpt lat="48.85972" lon="-2.9956">
        <ele>4.4</ele>
        <time>2020-08-13T09:36:54Z</time>
      </trkpt>
      <trkpt lat="48.85975" lon="-2.99557">
        <ele>4.4</ele>
        <time>2020-08-13T09:36:55Z</time>
      </trkpt>
      <trkpt lat="48.85995" lon="-2.99545">
        <ele>4.6</ele>
        <time>2020-08-13T09:37:03Z</time>
      </trkpt>
      <trkpt lat="48.85999" lon="-2.99543">
        <ele>4.6</ele>
        <time>2020-08-13T09:37:05Z</time>
      </trkpt>
      <trkpt lat="48.86007" lon="-2.9953">
        <ele>6.8</ele>
        <time>2020-08-13T09:37:12Z</time>
      </trkpt>
      <trkpt lat="48.86013" lon="-2.99523">
        <ele>6.7</ele>
        <time>2020-08-13T09:37:17Z</time>
      </trkpt>
      <trkpt lat="48.86024" lon="-2.99516">
        <ele>6.9</ele>
        <time>2020-08-13T09:37:25Z</time>
      </trkpt>
      <trkpt lat="48.86036" lon="-2.99502">
        <ele>7.3</ele>
        <time>2020-08-13T09:37:32Z</time>
      </trkpt>
      <trkpt lat="48.86043" lon="-2.99479">
        <ele>6.7</ele>
        <time>2020-08-13T09:37:39Z</time>
      </trkpt>
      <trkpt lat="48.86053" lon="-2.99464">
        <ele>6.9</ele>
        <time>2020-08-13T09:37:46Z</time>
      </trkpt>
      <trkpt lat="48.86066" lon="-2.9945">
        <ele>7.2</ele>
        <time>2020-08-13T09:37:54Z</time>
      </trkpt>
      <trkpt lat="48.86083" lon="-2.99438">
        <ele>7.7</ele>
        <time>2020-08-13T09:38:03Z</time>
      </trkpt>
      <trkpt lat="48.861" lon="-2.99426">
        <ele>9.1</ele>
        <time>2020-08-13T09:38:10Z</time>
      </trkpt>
      <trkpt lat="48.86107" lon="-2.9942">
        <ele>9</ele>
        <time>2020-08-13T09:38:12Z</time>
      </trkpt>
      <trkpt lat="48.86122" lon="-2.994">
        <ele>7.4</ele>
        <time>2020-08-13T09:38:17Z</time>
      </trkpt>
      <trkpt lat="48.86133" lon="-2.99404">
        <ele>7.4</ele>
        <time>2020-08-13T09:38:20Z</time>
      </trkpt>
      <trkpt lat="48.86156" lon="-2.99426">
        <ele>8.6</ele>
        <time>2020-08-13T09:38:28Z</time>
      </trkpt>
      <trkpt lat="48.86174" lon="-2.99449">
        <ele>9.9</ele>
        <time>2020-08-13T09:38:36Z</time>
      </trkpt>
      <trkpt lat="48.86187" lon="-2.99458">
        <ele>10.3</ele>
        <time>2020-08-13T09:38:41Z</time>
      </trkpt>
      <trkpt lat="48.86209" lon="-2.99458">
        <ele>10.5</ele>
        <time>2020-08-13T09:38:48Z</time>
      </trkpt>
      <trkpt lat="48.86226" lon="-2.99451">
        <ele>10.6</ele>
        <time>2020-08-13T09:38:54Z</time>
      </trkpt>
      <trkpt lat="48.86248" lon="-2.99436">
        <ele>10.8</ele>
        <time>2020-08-13T09:39:03Z</time>
      </trkpt>
      <trkpt lat="48.86257" lon="-2.99422">
        <ele>10.8</ele>
        <time>2020-08-13T09:39:09Z</time>
      </trkpt>
      <trkpt lat="48.86261" lon="-2.994">
        <ele>10.3</ele>
        <time>2020-08-13T09:39:15Z</time>
      </trkpt>
      <trkpt lat="48.86265" lon="-2.99376">
        <ele>9.9</ele>
        <time>2020-08-13T09:39:20Z</time>
      </trkpt>
      <trkpt lat="48.86271" lon="-2.99362">
        <ele>9.7</ele>
        <time>2020-08-13T09:39:23Z</time>
      </trkpt>
      <trkpt lat="48.86269" lon="-2.99325">
        <ele>8.2</ele>
        <time>2020-08-13T09:39:28Z</time>
      </trkpt>
      <trkpt lat="48.86258" lon="-2.99292">
        <ele>7.7</ele>
        <time>2020-08-13T09:39:32Z</time>
      </trkpt>
      <trkpt lat="48.86243" lon="-2.99268">
        <ele>5.4</ele>
        <time>2020-08-13T09:39:37Z</time>
      </trkpt>
      <trkpt lat="48.86227" lon="-2.99241">
        <ele>4.5</ele>
        <time>2020-08-13T09:39:43Z</time>
      </trkpt>
      <trkpt lat="48.86213" lon="-2.9921">
        <ele>4.3</ele>
        <time>2020-08-13T09:39:49Z</time>
      </trkpt>
      <trkpt lat="48.86207" lon="-2.99175">
        <ele>4.2</ele>
        <time>2020-08-13T09:39:56Z</time>
      </trkpt>
      <trkpt lat="48.86206" lon="-2.99155">
        <ele>5</ele>
        <time>2020-08-13T09:40:02Z</time>
      </trkpt>
      <trkpt lat="48.862" lon="-2.99133">
        <ele>5.4</ele>
        <time>2020-08-13T09:40:09Z</time>
      </trkpt>
      <trkpt lat="48.86185" lon="-2.99124">
        <ele>5.5</ele>
        <time>2020-08-13T09:40:16Z</time>
      </trkpt>
      <trkpt lat="48.86164" lon="-2.99123">
        <ele>5.6</ele>
        <time>2020-08-13T09:40:25Z</time>
      </trkpt>
      <trkpt lat="48.86153" lon="-2.99123">
        <ele>5.5</ele>
        <time>2020-08-13T09:40:30Z</time>
      </trkpt>
      <trkpt lat="48.8615" lon="-2.99111">
        <ele>5.8</ele>
        <time>2020-08-13T09:40:35Z</time>
      </trkpt>
      <trkpt lat="48.86153" lon="-2.99098">
        <ele>6.2</ele>
        <time>2020-08-13T09:40:39Z</time>
      </trkpt>
      <trkpt lat="48.86157" lon="-2.9907">
        <ele>7.6</ele>
        <time>2020-08-13T09:40:48Z</time>
      </trkpt>
      <trkpt lat="48.86162" lon="-2.99051">
        <ele>8.1</ele>
        <time>2020-08-13T09:40:55Z</time>
      </trkpt>
      <trkpt lat="48.86169" lon="-2.99035">
        <ele>8.8</ele>
        <time>2020-08-13T09:41:02Z</time>
      </trkpt>
      <trkpt lat="48.86178" lon="-2.99031">
        <ele>8.9</ele>
        <time>2020-08-13T09:41:07Z</time>
      </trkpt>
      <trkpt lat="48.86185" lon="-2.99033">
        <ele>8.9</ele>
        <time>2020-08-13T09:41:13Z</time>
      </trkpt>
      <trkpt lat="48.86186" lon="-2.99033">
        <ele>8.9</ele>
        <time>2020-08-13T09:41:15Z</time>
      </trkpt>
      <trkpt lat="48.8619" lon="-2.99033">
        <ele>8.9</ele>
        <time>2020-08-13T09:41:21Z</time>
      </trkpt>
      <trkpt lat="48.86196" lon="-2.99031">
        <ele>8.9</ele>
        <time>2020-08-13T09:41:30Z</time>
      </trkpt>
      <trkpt lat="48.86199" lon="-2.99029">
        <ele>9</ele>
        <time>2020-08-13T09:41:37Z</time>
      </trkpt>
      <trkpt lat="48.86204" lon="-2.99022">
        <ele>9.1</ele>
        <time>2020-08-13T09:41:51Z</time>
      </trkpt>
      <trkpt lat="48.86205" lon="-2.99022">
        <ele>9.1</ele>
        <time>2020-08-13T09:41:52Z</time>
      </trkpt>
      <trkpt lat="48.86204" lon="-2.99024">
        <ele>9.1</ele>
        <time>2020-08-13T09:45:23Z</time>
      </trkpt>
      <trkpt lat="48.86206" lon="-2.99027">
        <ele>9</ele>
        <time>2020-08-13T09:46:01Z</time>
      </trkpt>
      <trkpt lat="48.86213" lon="-2.99024">
        <ele>9.1</ele>
        <time>2020-08-13T09:46:11Z</time>
      </trkpt>
      <trkpt lat="48.86222" lon="-2.99015">
        <ele>9.4</ele>
        <time>2020-08-13T09:46:21Z</time>
      </trkpt>
      <trkpt lat="48.86223" lon="-2.99014">
        <ele>9.5</ele>
        <time>2020-08-13T09:46:24Z</time>
      </trkpt>
      <trkpt lat="48.86226" lon="-2.99011">
        <ele>9.6</ele>
        <time>2020-08-13T09:46:35Z</time>
      </trkpt>
      <trkpt lat="48.86229" lon="-2.99007">
        <ele>9.7</ele>
        <time>2020-08-13T09:46:42Z</time>
      </trkpt>
      <trkpt lat="48.86231" lon="-2.99008">
        <ele>9.8</ele>
        <time>2020-08-13T09:46:47Z</time>
      </trkpt>
      <trkpt lat="48.86235" lon="-2.99011">
        <ele>9.8</ele>
        <time>2020-08-13T09:46:54Z</time>
      </trkpt>
      <trkpt lat="48.86239" lon="-2.99013">
        <ele>9.9</ele>
        <time>2020-08-13T09:47:01Z</time>
      </trkpt>
      <trkpt lat="48.86242" lon="-2.99014">
        <ele>9.9</ele>
        <time>2020-08-13T09:47:10Z</time>
      </trkpt>
      <trkpt lat="48.86249" lon="-2.99018">
        <ele>9.8</ele>
        <time>2020-08-13T09:47:19Z</time>
      </trkpt>
      <trkpt lat="48.8625" lon="-2.99019">
        <ele>9.7</ele>
        <time>2020-08-13T09:47:22Z</time>
      </trkpt>
      <trkpt lat="48.86253" lon="-2.99021">
        <ele>8.8</ele>
        <time>2020-08-13T09:47:42Z</time>
      </trkpt>
      <trkpt lat="48.86251" lon="-2.9902">
        <ele>8.9</ele>
        <time>2020-08-13T09:47:52Z</time>
      </trkpt>
      <trkpt lat="48.86251" lon="-2.99021">
        <ele>8.9</ele>
        <time>2020-08-13T09:47:54Z</time>
      </trkpt>
      <trkpt lat="48.86251" lon="-2.99022">
        <ele>8.8</ele>
        <time>2020-08-13T09:48:00Z</time>
      </trkpt>
      <trkpt lat="48.86252" lon="-2.99022">
        <ele>8.8</ele>
        <time>2020-08-13T09:48:01Z</time>
      </trkpt>
      <trkpt lat="48.86247" lon="-2.99015">
        <ele>9.9</ele>
        <time>2020-08-13T09:48:36Z</time>
      </trkpt>
      <trkpt lat="48.86248" lon="-2.99017">
        <ele>9.8</ele>
        <time>2020-08-13T09:48:39Z</time>
      </trkpt>
      <trkpt lat="48.86246" lon="-2.99017">
        <ele>9.8</ele>
        <time>2020-08-13T09:48:44Z</time>
      </trkpt>
      <trkpt lat="48.86243" lon="-2.99019">
        <ele>9.7</ele>
        <time>2020-08-13T09:49:06Z</time>
      </trkpt>
      <trkpt lat="48.86247" lon="-2.99018">
        <ele>9.8</ele>
        <time>2020-08-13T09:49:14Z</time>
      </trkpt>
      <trkpt lat="48.86249" lon="-2.99016">
        <ele>9.9</ele>
        <time>2020-08-13T09:49:18Z</time>
      </trkpt>
      <trkpt lat="48.86249" lon="-2.99016">
        <ele>9.9</ele>
        <time>2020-08-13T09:49:19Z</time>
      </trkpt>
      <trkpt lat="48.86244" lon="-2.9901">
        <ele>10.1</ele>
        <time>2020-08-13T09:49:31Z</time>
      </trkpt>
      <trkpt lat="48.86247" lon="-2.9901">
        <ele>10.2</ele>
        <time>2020-08-13T09:50:31Z</time>
      </trkpt>
      <trkpt lat="48.86249" lon="-2.99014">
        <ele>10</ele>
        <time>2020-08-13T09:50:37Z</time>
      </trkpt>
      <trkpt lat="48.8625" lon="-2.99015">
        <ele>10</ele>
        <time>2020-08-13T09:50:46Z</time>
      </trkpt>
      <trkpt lat="48.86245" lon="-2.99014">
        <ele>10</ele>
        <time>2020-08-13T09:50:53Z</time>
      </trkpt>
      <trkpt lat="48.8624" lon="-2.9901">
        <ele>10</ele>
        <time>2020-08-13T09:51:01Z</time>
      </trkpt>
      <trkpt lat="48.8624" lon="-2.9901">
        <ele>10</ele>
        <time>2020-08-13T09:51:02Z</time>
      </trkpt>
      <trkpt lat="48.86235" lon="-2.99007">
        <ele>9.9</ele>
        <time>2020-08-13T09:52:11Z</time>
      </trkpt>
      <trkpt lat="48.86231" lon="-2.99001">
        <ele>9.9</ele>
        <time>2020-08-13T09:52:19Z</time>
      </trkpt>
      <trkpt lat="48.8623" lon="-2.99">
        <ele>9.8</ele>
        <time>2020-08-13T09:52:22Z</time>
      </trkpt>
      <trkpt lat="48.86232" lon="-2.98996">
        <ele>10.9</ele>
        <time>2020-08-13T09:52:49Z</time>
      </trkpt>
      <trkpt lat="48.86234" lon="-2.98992">
        <ele>10.9</ele>
        <time>2020-08-13T09:52:55Z</time>
      </trkpt>
      <trkpt lat="48.86242" lon="-2.98973">
        <ele>11</ele>
        <time>2020-08-13T09:53:08Z</time>
      </trkpt>
      <trkpt lat="48.86248" lon="-2.98954">
        <ele>11</ele>
        <time>2020-08-13T09:53:20Z</time>
      </trkpt>
      <trkpt lat="48.86258" lon="-2.98937">
        <ele>9.6</ele>
        <time>2020-08-13T09:53:32Z</time>
      </trkpt>
      <trkpt lat="48.86266" lon="-2.98932">
        <ele>9.5</ele>
        <time>2020-08-13T09:53:40Z</time>
      </trkpt>
      <trkpt lat="48.86269" lon="-2.98923">
        <ele>9.6</ele>
        <time>2020-08-13T09:53:47Z</time>
      </trkpt>
      <trkpt lat="48.86269" lon="-2.9892">
        <ele>9.6</ele>
        <time>2020-08-13T09:53:51Z</time>
      </trkpt>
      <trkpt lat="48.86271" lon="-2.98917">
        <ele>9.5</ele>
        <time>2020-08-13T09:53:54Z</time>
      </trkpt>
      <trkpt lat="48.86272" lon="-2.98909">
        <ele>8.9</ele>
        <time>2020-08-13T09:54:01Z</time>
      </trkpt>
      <trkpt lat="48.86272" lon="-2.98909">
        <ele>8.9</ele>
        <time>2020-08-13T09:54:02Z</time>
      </trkpt>
      <trkpt lat="48.86279" lon="-2.98902">
        <ele>8.5</ele>
        <time>2020-08-13T09:54:24Z</time>
      </trkpt>
      <trkpt lat="48.86287" lon="-2.98896">
        <ele>8.1</ele>
        <time>2020-08-13T09:54:32Z</time>
      </trkpt>
      <trkpt lat="48.86297" lon="-2.98889">
        <ele>7.7</ele>
        <time>2020-08-13T09:54:42Z</time>
      </trkpt>
      <trkpt lat="48.86311" lon="-2.98882">
        <ele>7.4</ele>
        <time>2020-08-13T09:54:55Z</time>
      </trkpt>
      <trkpt lat="48.8632" lon="-2.98881">
        <ele>7.2</ele>
        <time>2020-08-13T09:55:03Z</time>
      </trkpt>
      <trkpt lat="48.86327" lon="-2.98872">
        <ele>7.1</ele>
        <time>2020-08-13T09:55:12Z</time>
      </trkpt>
      <trkpt lat="48.86334" lon="-2.9887">
        <ele>5.4</ele>
        <time>2020-08-13T09:55:18Z</time>
      </trkpt>
      <trkpt lat="48.86336" lon="-2.9887">
        <ele>5.4</ele>
        <time>2020-08-13T09:55:20Z</time>
      </trkpt>
      <trkpt lat="48.86341" lon="-2.98864">
        <ele>5.4</ele>
        <time>2020-08-13T09:55:26Z</time>
      </trkpt>
      <trkpt lat="48.86347" lon="-2.98849">
        <ele>5.5</ele>
        <time>2020-08-13T09:55:37Z</time>
      </trkpt>
      <trkpt lat="48.86349" lon="-2.98845">
        <ele>5.4</ele>
        <time>2020-08-13T09:55:40Z</time>
      </trkpt>
      <trkpt lat="48.86353" lon="-2.98841">
        <ele>5.4</ele>
        <time>2020-08-13T09:55:44Z</time>
      </trkpt>
      <trkpt lat="48.86361" lon="-2.98826">
        <ele>5.2</ele>
        <time>2020-08-13T09:55:57Z</time>
      </trkpt>
      <trkpt lat="48.86364" lon="-2.98823">
        <ele>5.1</ele>
        <time>2020-08-13T09:56:01Z</time>
      </trkpt>
      <trkpt lat="48.86368" lon="-2.98826">
        <ele>5</ele>
        <time>2020-08-13T09:56:08Z</time>
      </trkpt>
      <trkpt lat="48.8637" lon="-2.9883">
        <ele>4.9</ele>
        <time>2020-08-13T09:56:11Z</time>
      </trkpt>
      <trkpt lat="48.86373" lon="-2.98833">
        <ele>4.9</ele>
        <time>2020-08-13T09:56:14Z</time>
      </trkpt>
      <trkpt lat="48.8638" lon="-2.98834">
        <ele>4.6</ele>
        <time>2020-08-13T09:56:22Z</time>
      </trkpt>
      <trkpt lat="48.86381" lon="-2.98834">
        <ele>4.6</ele>
        <time>2020-08-13T09:56:23Z</time>
      </trkpt>
      <trkpt lat="48.86388" lon="-2.98843">
        <ele>4.4</ele>
        <time>2020-08-13T09:56:33Z</time>
      </trkpt>
      <trkpt lat="48.86389" lon="-2.98846">
        <ele>4.4</ele>
        <time>2020-08-13T09:56:37Z</time>
      </trkpt>
      <trkpt lat="48.86388" lon="-2.98829">
        <ele>4.5</ele>
        <time>2020-08-13T09:57:10Z</time>
      </trkpt>
      <trkpt lat="48.86394" lon="-2.98822">
        <ele>4.3</ele>
        <time>2020-08-13T09:57:19Z</time>
      </trkpt>
      <trkpt lat="48.864" lon="-2.98818">
        <ele>4.2</ele>
        <time>2020-08-13T09:57:28Z</time>
      </trkpt>
      <trkpt lat="48.86401" lon="-2.98818">
        <ele>4.2</ele>
        <time>2020-08-13T09:57:29Z</time>
      </trkpt>
      <trkpt lat="48.86404" lon="-2.98817">
        <ele>4.2</ele>
        <time>2020-08-13T09:57:33Z</time>
      </trkpt>
      <trkpt lat="48.86407" lon="-2.98815">
        <ele>4.2</ele>
        <time>2020-08-13T09:57:37Z</time>
      </trkpt>
      <trkpt lat="48.86411" lon="-2.98812">
        <ele>4.2</ele>
        <time>2020-08-13T09:57:42Z</time>
      </trkpt>
      <trkpt lat="48.86417" lon="-2.98813">
        <ele>3.1</ele>
        <time>2020-08-13T09:57:51Z</time>
      </trkpt>
      <trkpt lat="48.86412" lon="-2.98809">
        <ele>4.3</ele>
        <time>2020-08-13T10:09:41Z</time>
      </trkpt>
      <trkpt lat="48.86412" lon="-2.98796">
        <ele>4.6</ele>
        <time>2020-08-13T10:09:51Z</time>
      </trkpt>
      <trkpt lat="48.86412" lon="-2.98794">
        <ele>4.6</ele>
        <time>2020-08-13T10:09:52Z</time>
      </trkpt>
      <trkpt lat="48.86413" lon="-2.98792">
        <ele>4.6</ele>
        <time>2020-08-13T10:09:54Z</time>
      </trkpt>
      <trkpt lat="48.86412" lon="-2.98783">
        <ele>4.8</ele>
        <time>2020-08-13T10:10:03Z</time>
      </trkpt>
      <trkpt lat="48.86412" lon="-2.98775">
        <ele>4.8</ele>
        <time>2020-08-13T10:10:12Z</time>
      </trkpt>
      <trkpt lat="48.86412" lon="-2.9877">
        <ele>4.9</ele>
        <time>2020-08-13T10:10:18Z</time>
      </trkpt>
      <trkpt lat="48.86411" lon="-2.98762">
        <ele>4.9</ele>
        <time>2020-08-13T10:10:25Z</time>
      </trkpt>
      <trkpt lat="48.86408" lon="-2.98752">
        <ele>5</ele>
        <time>2020-08-13T10:10:33Z</time>
      </trkpt>
      <trkpt lat="48.86402" lon="-2.98739">
        <ele>5.8</ele>
        <time>2020-08-13T10:10:43Z</time>
      </trkpt>
      <trkpt lat="48.86395" lon="-2.98725">
        <ele>6.1</ele>
        <time>2020-08-13T10:10:55Z</time>
      </trkpt>
      <trkpt lat="48.86392" lon="-2.98718">
        <ele>6.3</ele>
        <time>2020-08-13T10:11:04Z</time>
      </trkpt>
      <trkpt lat="48.86386" lon="-2.98708">
        <ele>6.4</ele>
        <time>2020-08-13T10:11:14Z</time>
      </trkpt>
      <trkpt lat="48.86378" lon="-2.98699">
        <ele>6.6</ele>
        <time>2020-08-13T10:11:25Z</time>
      </trkpt>
      <trkpt lat="48.86372" lon="-2.98686">
        <ele>6.8</ele>
        <time>2020-08-13T10:11:35Z</time>
      </trkpt>
      <trkpt lat="48.86366" lon="-2.98671">
        <ele>7</ele>
        <time>2020-08-13T10:11:46Z</time>
      </trkpt>
      <trkpt lat="48.86359" lon="-2.98659">
        <ele>6.9</ele>
        <time>2020-08-13T10:11:56Z</time>
      </trkpt>
      <trkpt lat="48.86352" lon="-2.98647">
        <ele>6.9</ele>
        <time>2020-08-13T10:12:07Z</time>
      </trkpt>
      <trkpt lat="48.8635" lon="-2.98641">
        <ele>6.8</ele>
        <time>2020-08-13T10:12:13Z</time>
      </trkpt>
      <trkpt lat="48.86349" lon="-2.9864">
        <ele>6.8</ele>
        <time>2020-08-13T10:12:16Z</time>
      </trkpt>
      <trkpt lat="48.86342" lon="-2.98628">
        <ele>6.7</ele>
        <time>2020-08-13T10:12:29Z</time>
      </trkpt>
      <trkpt lat="48.86339" lon="-2.98616">
        <ele>6.6</ele>
        <time>2020-08-13T10:12:39Z</time>
      </trkpt>
      <trkpt lat="48.86334" lon="-2.98602">
        <ele>6.6</ele>
        <time>2020-08-13T10:12:49Z</time>
      </trkpt>
      <trkpt lat="48.8633" lon="-2.9859">
        <ele>7.3</ele>
        <time>2020-08-13T10:12:58Z</time>
      </trkpt>
      <trkpt lat="48.86321" lon="-2.98581">
        <ele>6.3</ele>
        <time>2020-08-13T10:13:09Z</time>
      </trkpt>
      <trkpt lat="48.86319" lon="-2.98579">
        <ele>6.2</ele>
        <time>2020-08-13T10:13:13Z</time>
      </trkpt>
      <trkpt lat="48.86314" lon="-2.98584">
        <ele>7.6</ele>
        <time>2020-08-13T10:13:20Z</time>
      </trkpt>
      <trkpt lat="48.86306" lon="-2.98587">
        <ele>7.8</ele>
        <time>2020-08-13T10:13:29Z</time>
      </trkpt>
      <trkpt lat="48.86299" lon="-2.98587">
        <ele>7.9</ele>
        <time>2020-08-13T10:13:39Z</time>
      </trkpt>
      <trkpt lat="48.86296" lon="-2.98587">
        <ele>7.9</ele>
        <time>2020-08-13T10:13:44Z</time>
      </trkpt>
      <trkpt lat="48.86297" lon="-2.98587">
        <ele>7.9</ele>
        <time>2020-08-13T10:14:35Z</time>
      </trkpt>
      <trkpt lat="48.86297" lon="-2.98586">
        <ele>7.9</ele>
        <time>2020-08-13T10:14:36Z</time>
      </trkpt>
      <trkpt lat="48.86298" lon="-2.98586">
        <ele>7.9</ele>
        <time>2020-08-13T10:14:40Z</time>
      </trkpt>
      <trkpt lat="48.86301" lon="-2.98586">
        <ele>7.9</ele>
        <time>2020-08-13T10:15:17Z</time>
      </trkpt>
      <trkpt lat="48.86313" lon="-2.98586">
        <ele>7.7</ele>
        <time>2020-08-13T10:15:29Z</time>
      </trkpt>
      <trkpt lat="48.86319" lon="-2.98583">
        <ele>6.2</ele>
        <time>2020-08-13T10:15:37Z</time>
      </trkpt>
      <trkpt lat="48.8632" lon="-2.98583">
        <ele>6.3</ele>
        <time>2020-08-13T10:15:38Z</time>
      </trkpt>
      <trkpt lat="48.86324" lon="-2.98584">
        <ele>7.4</ele>
        <time>2020-08-13T10:15:42Z</time>
      </trkpt>
      <trkpt lat="48.86332" lon="-2.98594">
        <ele>7.4</ele>
        <time>2020-08-13T10:15:52Z</time>
      </trkpt>
      <trkpt lat="48.86338" lon="-2.98608">
        <ele>6.6</ele>
        <time>2020-08-13T10:16:02Z</time>
      </trkpt>
      <trkpt lat="48.86342" lon="-2.98619">
        <ele>6.6</ele>
        <time>2020-08-13T10:16:11Z</time>
      </trkpt>
      <trkpt lat="48.86347" lon="-2.98633">
        <ele>6.7</ele>
        <time>2020-08-13T10:16:22Z</time>
      </trkpt>
      <trkpt lat="48.86351" lon="-2.98641">
        <ele>6.8</ele>
        <time>2020-08-13T10:16:31Z</time>
      </trkpt>
      <trkpt lat="48.86351" lon="-2.98642">
        <ele>6.8</ele>
        <time>2020-08-13T10:17:45Z</time>
      </trkpt>
      <trkpt lat="48.86356" lon="-2.98644">
        <ele>6.8</ele>
        <time>2020-08-13T10:17:52Z</time>
      </trkpt>
      <trkpt lat="48.86355" lon="-2.98646">
        <ele>6.8</ele>
        <time>2020-08-13T10:17:56Z</time>
      </trkpt>
      <trkpt lat="48.86358" lon="-2.98656">
        <ele>6.9</ele>
        <time>2020-08-13T10:18:03Z</time>
      </trkpt>
      <trkpt lat="48.86359" lon="-2.98658">
        <ele>6.9</ele>
        <time>2020-08-13T10:18:04Z</time>
      </trkpt>
      <trkpt lat="48.86368" lon="-2.98674">
        <ele>6.9</ele>
        <time>2020-08-13T10:18:15Z</time>
      </trkpt>
      <trkpt lat="48.86373" lon="-2.98685">
        <ele>6.8</ele>
        <time>2020-08-13T10:18:23Z</time>
      </trkpt>
      <trkpt lat="48.86377" lon="-2.98697">
        <ele>6.6</ele>
        <time>2020-08-13T10:18:32Z</time>
      </trkpt>
      <trkpt lat="48.86386" lon="-2.98709">
        <ele>6.4</ele>
        <time>2020-08-13T10:18:42Z</time>
      </trkpt>
      <trkpt lat="48.86397" lon="-2.98719">
        <ele>6.2</ele>
        <time>2020-08-13T10:18:52Z</time>
      </trkpt>
      <trkpt lat="48.86399" lon="-2.98719">
        <ele>6.2</ele>
        <time>2020-08-13T10:18:54Z</time>
      </trkpt>
      <trkpt lat="48.86406" lon="-2.98708">
        <ele>6.3</ele>
        <time>2020-08-13T10:19:03Z</time>
      </trkpt>
      <trkpt lat="48.86409" lon="-2.98703">
        <ele>6.4</ele>
        <time>2020-08-13T10:19:07Z</time>
      </trkpt>
      <trkpt lat="48.86416" lon="-2.98694">
        <ele>6.5</ele>
        <time>2020-08-13T10:19:16Z</time>
      </trkpt>
      <trkpt lat="48.86423" lon="-2.98686">
        <ele>5.6</ele>
        <time>2020-08-13T10:19:24Z</time>
      </trkpt>
      <trkpt lat="48.8643" lon="-2.98681">
        <ele>5.6</ele>
        <time>2020-08-13T10:19:33Z</time>
      </trkpt>
      <trkpt lat="48.86439" lon="-2.98677">
        <ele>5.2</ele>
        <time>2020-08-13T10:19:43Z</time>
      </trkpt>
      <trkpt lat="48.86442" lon="-2.98676">
        <ele>5.1</ele>
        <time>2020-08-13T10:19:50Z</time>
      </trkpt>
      <trkpt lat="48.86444" lon="-2.9868">
        <ele>4.9</ele>
        <time>2020-08-13T10:19:56Z</time>
      </trkpt>
      <trkpt lat="48.86445" lon="-2.98666">
        <ele>4.1</ele>
        <time>2020-08-13T10:20:31Z</time>
      </trkpt>
      <trkpt lat="48.8645" lon="-2.98665">
        <ele>3.8</ele>
        <time>2020-08-13T10:20:39Z</time>
      </trkpt>
      <trkpt lat="48.8645" lon="-2.98665">
        <ele>3.8</ele>
        <time>2020-08-13T10:20:40Z</time>
      </trkpt>
      <trkpt lat="48.86454" lon="-2.9865">
        <ele>3.5</ele>
        <time>2020-08-13T10:20:59Z</time>
      </trkpt>
      <trkpt lat="48.86458" lon="-2.9864">
        <ele>3.2</ele>
        <time>2020-08-13T10:21:08Z</time>
      </trkpt>
      <trkpt lat="48.86458" lon="-2.9864">
        <ele>3.2</ele>
        <time>2020-08-13T10:21:09Z</time>
      </trkpt>
      <trkpt lat="48.86459" lon="-2.98637">
        <ele>3.1</ele>
        <time>2020-08-13T10:21:29Z</time>
      </trkpt>
      <trkpt lat="48.86463" lon="-2.98631">
        <ele>2.9</ele>
        <time>2020-08-13T10:21:35Z</time>
      </trkpt>
      <trkpt lat="48.86472" lon="-2.98631">
        <ele>2.7</ele>
        <time>2020-08-13T10:21:44Z</time>
      </trkpt>
      <trkpt lat="48.86481" lon="-2.98631">
        <ele>2.5</ele>
        <time>2020-08-13T10:21:52Z</time>
      </trkpt>
      <trkpt lat="48.86481" lon="-2.98631">
        <ele>2.5</ele>
        <time>2020-08-13T10:21:53Z</time>
      </trkpt>
      <trkpt lat="48.86485" lon="-2.98628">
        <ele>2.4</ele>
        <time>2020-08-13T10:21:57Z</time>
      </trkpt>
      <trkpt lat="48.8649" lon="-2.98626">
        <ele>2.4</ele>
        <time>2020-08-13T10:22:03Z</time>
      </trkpt>
      <trkpt lat="48.86496" lon="-2.98626">
        <ele>2.3</ele>
        <time>2020-08-13T10:22:10Z</time>
      </trkpt>
      <trkpt lat="48.86507" lon="-2.98623">
        <ele>1</ele>
        <time>2020-08-13T10:22:19Z</time>
      </trkpt>
      <trkpt lat="48.86515" lon="-2.98623">
        <ele>1</ele>
        <time>2020-08-13T10:22:28Z</time>
      </trkpt>
      <trkpt lat="48.8652" lon="-2.98619">
        <ele>1</ele>
        <time>2020-08-13T10:22:34Z</time>
      </trkpt>
      <trkpt lat="48.86523" lon="-2.98616">
        <ele>1</ele>
        <time>2020-08-13T10:22:38Z</time>
      </trkpt>
      <trkpt lat="48.86527" lon="-2.98604">
        <ele>1</ele>
        <time>2020-08-13T10:22:46Z</time>
      </trkpt>
      <trkpt lat="48.86531" lon="-2.986">
        <ele>1</ele>
        <time>2020-08-13T10:22:53Z</time>
      </trkpt>
      <trkpt lat="48.86534" lon="-2.98594">
        <ele>1</ele>
        <time>2020-08-13T10:23:02Z</time>
      </trkpt>
      <trkpt lat="48.86535" lon="-2.98592">
        <ele>1</ele>
        <time>2020-08-13T10:23:04Z</time>
      </trkpt>
      <trkpt lat="48.86536" lon="-2.98583">
        <ele>1</ele>
        <time>2020-08-13T10:23:13Z</time>
      </trkpt>
      <trkpt lat="48.8654" lon="-2.98578">
        <ele>1</ele>
        <time>2020-08-13T10:23:55Z</time>
      </trkpt>
      <trkpt lat="48.86544" lon="-2.98581">
        <ele>1</ele>
        <time>2020-08-13T10:24:02Z</time>
      </trkpt>
      <trkpt lat="48.86545" lon="-2.98581">
        <ele>1</ele>
        <time>2020-08-13T10:24:05Z</time>
      </trkpt>
      <trkpt lat="48.86546" lon="-2.98586">
        <ele>1</ele>
        <time>2020-08-13T10:24:28Z</time>
      </trkpt>
      <trkpt lat="48.86548" lon="-2.98592">
        <ele>1</ele>
        <time>2020-08-13T10:24:35Z</time>
      </trkpt>
      <trkpt lat="48.86547" lon="-2.98592">
        <ele>1</ele>
        <time>2020-08-13T10:27:36Z</time>
      </trkpt>
      <trkpt lat="48.86546" lon="-2.98594">
        <ele>1</ele>
        <time>2020-08-13T10:27:39Z</time>
      </trkpt>
      <trkpt lat="48.86543" lon="-2.98601">
        <ele>1</ele>
        <time>2020-08-13T10:28:02Z</time>
      </trkpt>
      <trkpt lat="48.86541" lon="-2.98604">
        <ele>1</ele>
        <time>2020-08-13T10:28:07Z</time>
      </trkpt>
      <trkpt lat="48.86543" lon="-2.98603">
        <ele>1</ele>
        <time>2020-08-13T10:29:21Z</time>
      </trkpt>
      <trkpt lat="48.86539" lon="-2.986">
        <ele>1</ele>
        <time>2020-08-13T10:29:29Z</time>
      </trkpt>
      <trkpt lat="48.86538" lon="-2.986">
        <ele>1</ele>
        <time>2020-08-13T10:29:32Z</time>
      </trkpt>
      <trkpt lat="48.86536" lon="-2.98598">
        <ele>1</ele>
        <time>2020-08-13T10:29:37Z</time>
      </trkpt>
      <trkpt lat="48.86531" lon="-2.986">
        <ele>1</ele>
        <time>2020-08-13T10:30:05Z</time>
      </trkpt>
      <trkpt lat="48.86529" lon="-2.98603">
        <ele>1</ele>
        <time>2020-08-13T10:30:10Z</time>
      </trkpt>
      <trkpt lat="48.86526" lon="-2.98609">
        <ele>1</ele>
        <time>2020-08-13T10:30:18Z</time>
      </trkpt>
      <trkpt lat="48.86525" lon="-2.9861">
        <ele>1</ele>
        <time>2020-08-13T10:30:20Z</time>
      </trkpt>
      <trkpt lat="48.86523" lon="-2.98614">
        <ele>1</ele>
        <time>2020-08-13T10:30:26Z</time>
      </trkpt>
      <trkpt lat="48.86522" lon="-2.98615">
        <ele>1</ele>
        <time>2020-08-13T10:30:29Z</time>
      </trkpt>
      <trkpt lat="48.8652" lon="-2.98616">
        <ele>1</ele>
        <time>2020-08-13T10:30:37Z</time>
      </trkpt>
      <trkpt lat="48.86515" lon="-2.98616">
        <ele>1</ele>
        <time>2020-08-13T10:30:44Z</time>
      </trkpt>
      <trkpt lat="48.86509" lon="-2.98617">
        <ele>1</ele>
        <time>2020-08-13T10:30:53Z</time>
      </trkpt>
      <trkpt lat="48.86503" lon="-2.98619">
        <ele>1</ele>
        <time>2020-08-13T10:31:02Z</time>
      </trkpt>
      <trkpt lat="48.86502" lon="-2.98619">
        <ele>1</ele>
        <time>2020-08-13T10:31:05Z</time>
      </trkpt>
      <trkpt lat="48.86497" lon="-2.9862">
        <ele>2.2</ele>
        <time>2020-08-13T10:31:20Z</time>
      </trkpt>
      <trkpt lat="48.86491" lon="-2.9862">
        <ele>2.3</ele>
        <time>2020-08-13T10:31:27Z</time>
      </trkpt>
      <trkpt lat="48.86485" lon="-2.98622">
        <ele>2.4</ele>
        <time>2020-08-13T10:31:34Z</time>
      </trkpt>
      <trkpt lat="48.8648" lon="-2.98623">
        <ele>2.5</ele>
        <time>2020-08-13T10:31:41Z</time>
      </trkpt>
      <trkpt lat="48.86475" lon="-2.98625">
        <ele>2.6</ele>
        <time>2020-08-13T10:31:48Z</time>
      </trkpt>
      <trkpt lat="48.86469" lon="-2.98625">
        <ele>2.7</ele>
        <time>2020-08-13T10:31:55Z</time>
      </trkpt>
      <trkpt lat="48.86462" lon="-2.9863">
        <ele>3</ele>
        <time>2020-08-13T10:32:03Z</time>
      </trkpt>
      <trkpt lat="48.86456" lon="-2.98635">
        <ele>3.2</ele>
        <time>2020-08-13T10:32:10Z</time>
      </trkpt>
      <trkpt lat="48.86455" lon="-2.98636">
        <ele>3.2</ele>
        <time>2020-08-13T10:32:12Z</time>
      </trkpt>
      <trkpt lat="48.86453" lon="-2.98638">
        <ele>3.3</ele>
        <time>2020-08-13T10:32:15Z</time>
      </trkpt>
      <trkpt lat="48.86446" lon="-2.98647">
        <ele>3.8</ele>
        <time>2020-08-13T10:32:25Z</time>
      </trkpt>
      <trkpt lat="48.86441" lon="-2.98655">
        <ele>4.2</ele>
        <time>2020-08-13T10:32:34Z</time>
      </trkpt>
      <trkpt lat="48.86438" lon="-2.98659">
        <ele>4.5</ele>
        <time>2020-08-13T10:32:38Z</time>
      </trkpt>
      <trkpt lat="48.86435" lon="-2.98663">
        <ele>4.8</ele>
        <time>2020-08-13T10:32:42Z</time>
      </trkpt>
      <trkpt lat="48.86431" lon="-2.98666">
        <ele>5.2</ele>
        <time>2020-08-13T10:32:47Z</time>
      </trkpt>
      <trkpt lat="48.86424" lon="-2.98675">
        <ele>6.1</ele>
        <time>2020-08-13T10:32:56Z</time>
      </trkpt>
      <trkpt lat="48.86418" lon="-2.98685">
        <ele>5.7</ele>
        <time>2020-08-13T10:33:05Z</time>
      </trkpt>
      <trkpt lat="48.86412" lon="-2.98693">
        <ele>6.6</ele>
        <time>2020-08-13T10:33:14Z</time>
      </trkpt>
      <trkpt lat="48.86407" lon="-2.987">
        <ele>6.5</ele>
        <time>2020-08-13T10:33:22Z</time>
      </trkpt>
      <trkpt lat="48.86405" lon="-2.98704">
        <ele>6.4</ele>
        <time>2020-08-13T10:33:27Z</time>
      </trkpt>
      <trkpt lat="48.86402" lon="-2.98709">
        <ele>6.3</ele>
        <time>2020-08-13T10:33:50Z</time>
      </trkpt>
      <trkpt lat="48.86399" lon="-2.98716">
        <ele>6.2</ele>
        <time>2020-08-13T10:33:58Z</time>
      </trkpt>
      <trkpt lat="48.86396" lon="-2.98722">
        <ele>6.2</ele>
        <time>2020-08-13T10:34:06Z</time>
      </trkpt>
      <trkpt lat="48.86394" lon="-2.98727">
        <ele>6.1</ele>
        <time>2020-08-13T10:34:13Z</time>
      </trkpt>
      <trkpt lat="48.86398" lon="-2.9873">
        <ele>6</ele>
        <time>2020-08-13T10:34:21Z</time>
      </trkpt>
      <trkpt lat="48.86403" lon="-2.98743">
        <ele>5.7</ele>
        <time>2020-08-13T10:34:38Z</time>
      </trkpt>
      <trkpt lat="48.86406" lon="-2.98757">
        <ele>5</ele>
        <time>2020-08-13T10:34:49Z</time>
      </trkpt>
      <trkpt lat="48.86409" lon="-2.98767">
        <ele>4.9</ele>
        <time>2020-08-13T10:34:57Z</time>
      </trkpt>
      <trkpt lat="48.86409" lon="-2.98768">
        <ele>4.9</ele>
        <time>2020-08-13T10:34:58Z</time>
      </trkpt>
      <trkpt lat="48.86407" lon="-2.98774">
        <ele>4.9</ele>
        <time>2020-08-13T10:35:03Z</time>
      </trkpt>
      <trkpt lat="48.86408" lon="-2.98783">
        <ele>4.8</ele>
        <time>2020-08-13T10:35:12Z</time>
      </trkpt>
      <trkpt lat="48.86408" lon="-2.98788">
        <ele>4.7</ele>
        <time>2020-08-13T10:35:18Z</time>
      </trkpt>
      <trkpt lat="48.8641" lon="-2.98792">
        <ele>4.6</ele>
        <time>2020-08-13T10:35:22Z</time>
      </trkpt>
      <trkpt lat="48.86415" lon="-2.98804">
        <ele>4.4</ele>
        <time>2020-08-13T10:35:31Z</time>
      </trkpt>
      <trkpt lat="48.86416" lon="-2.98809">
        <ele>4.2</ele>
        <time>2020-08-13T10:35:37Z</time>
      </trkpt>
      <trkpt lat="48.86414" lon="-2.98815">
        <ele>4.1</ele>
        <time>2020-08-13T10:35:44Z</time>
      </trkpt>
      <trkpt lat="48.86412" lon="-2.98819">
        <ele>3.9</ele>
        <time>2020-08-13T10:35:57Z</time>
      </trkpt>
      <trkpt lat="48.86412" lon="-2.98824">
        <ele>3.7</ele>
        <time>2020-08-13T10:36:03Z</time>
      </trkpt>
      <trkpt lat="48.86418" lon="-2.98831">
        <ele>3</ele>
        <time>2020-08-13T10:36:14Z</time>
      </trkpt>
      <trkpt lat="48.86423" lon="-2.98836">
        <ele>2.8</ele>
        <time>2020-08-13T10:36:43Z</time>
      </trkpt>
      <trkpt lat="48.86427" lon="-2.9884">
        <ele>2.7</ele>
        <time>2020-08-13T11:03:56Z</time>
      </trkpt>
      <trkpt lat="48.86425" lon="-2.98837">
        <ele>2.8</ele>
        <time>2020-08-13T11:04:29Z</time>
      </trkpt>
      <trkpt lat="48.86422" lon="-2.98835">
        <ele>2.9</ele>
        <time>2020-08-13T11:04:47Z</time>
      </trkpt>
      <trkpt lat="48.86422" lon="-2.98834">
        <ele>2.9</ele>
        <time>2020-08-13T11:04:50Z</time>
      </trkpt>
      <trkpt lat="48.86416" lon="-2.98831">
        <ele>3.2</ele>
        <time>2020-08-13T11:05:05Z</time>
      </trkpt>
      <trkpt lat="48.86415" lon="-2.98827">
        <ele>3.5</ele>
        <time>2020-08-13T11:05:09Z</time>
      </trkpt>
      <trkpt lat="48.8641" lon="-2.98822">
        <ele>3.8</ele>
        <time>2020-08-13T11:05:16Z</time>
      </trkpt>
      <trkpt lat="48.86405" lon="-2.98818">
        <ele>4.1</ele>
        <time>2020-08-13T11:05:22Z</time>
      </trkpt>
      <trkpt lat="48.86403" lon="-2.98816">
        <ele>4.2</ele>
        <time>2020-08-13T11:05:25Z</time>
      </trkpt>
      <trkpt lat="48.86399" lon="-2.98817">
        <ele>4.3</ele>
        <time>2020-08-13T11:05:29Z</time>
      </trkpt>
      <trkpt lat="48.86391" lon="-2.98822">
        <ele>4.4</ele>
        <time>2020-08-13T11:05:38Z</time>
      </trkpt>
      <trkpt lat="48.86384" lon="-2.98825">
        <ele>4.6</ele>
        <time>2020-08-13T11:05:45Z</time>
      </trkpt>
      <trkpt lat="48.86378" lon="-2.98827">
        <ele>4.7</ele>
        <time>2020-08-13T11:05:52Z</time>
      </trkpt>
      <trkpt lat="48.86372" lon="-2.98834">
        <ele>4.9</ele>
        <time>2020-08-13T11:06:00Z</time>
      </trkpt>
      <trkpt lat="48.86369" lon="-2.98836">
        <ele>5</ele>
        <time>2020-08-13T11:06:05Z</time>
      </trkpt>
      <trkpt lat="48.86363" lon="-2.98836">
        <ele>5.1</ele>
        <time>2020-08-13T11:06:14Z</time>
      </trkpt>
      <trkpt lat="48.86359" lon="-2.98834">
        <ele>5.2</ele>
        <time>2020-08-13T11:06:19Z</time>
      </trkpt>
      <trkpt lat="48.86349" lon="-2.98843">
        <ele>5.5</ele>
        <time>2020-08-13T11:06:31Z</time>
      </trkpt>
      <trkpt lat="48.86342" lon="-2.98856">
        <ele>5.5</ele>
        <time>2020-08-13T11:06:41Z</time>
      </trkpt>
      <trkpt lat="48.86338" lon="-2.9886">
        <ele>5.5</ele>
        <time>2020-08-13T11:06:46Z</time>
      </trkpt>
      <trkpt lat="48.86329" lon="-2.98863">
        <ele>7</ele>
        <time>2020-08-13T11:06:56Z</time>
      </trkpt>
      <trkpt lat="48.86319" lon="-2.9887">
        <ele>7.2</ele>
        <time>2020-08-13T11:07:07Z</time>
      </trkpt>
      <trkpt lat="48.86309" lon="-2.98877">
        <ele>7.4</ele>
        <time>2020-08-13T11:07:16Z</time>
      </trkpt>
      <trkpt lat="48.86298" lon="-2.98884">
        <ele>7.7</ele>
        <time>2020-08-13T11:07:26Z</time>
      </trkpt>
      <trkpt lat="48.86288" lon="-2.98892">
        <ele>8</ele>
        <time>2020-08-13T11:07:38Z</time>
      </trkpt>
      <trkpt lat="48.86279" lon="-2.989">
        <ele>8.4</ele>
        <time>2020-08-13T11:07:48Z</time>
      </trkpt>
      <trkpt lat="48.86272" lon="-2.98913">
        <ele>9</ele>
        <time>2020-08-13T11:07:58Z</time>
      </trkpt>
      <trkpt lat="48.86267" lon="-2.98921">
        <ele>9.7</ele>
        <time>2020-08-13T11:08:05Z</time>
      </trkpt>
      <trkpt lat="48.86258" lon="-2.98928">
        <ele>10</ele>
        <time>2020-08-13T11:08:15Z</time>
      </trkpt>
      <trkpt lat="48.86252" lon="-2.98938">
        <ele>9.7</ele>
        <time>2020-08-13T11:08:23Z</time>
      </trkpt>
      <trkpt lat="48.86248" lon="-2.9895">
        <ele>11</ele>
        <time>2020-08-13T11:08:31Z</time>
      </trkpt>
      <trkpt lat="48.86245" lon="-2.98961">
        <ele>11</ele>
        <time>2020-08-13T11:08:39Z</time>
      </trkpt>
      <trkpt lat="48.86238" lon="-2.98975">
        <ele>11</ele>
        <time>2020-08-13T11:08:49Z</time>
      </trkpt>
      <trkpt lat="48.86235" lon="-2.9898">
        <ele>11</ele>
        <time>2020-08-13T11:08:53Z</time>
      </trkpt>
      <trkpt lat="48.86236" lon="-2.98992">
        <ele>11</ele>
        <time>2020-08-13T11:09:00Z</time>
      </trkpt>
      <trkpt lat="48.86241" lon="-2.99005">
        <ele>10.2</ele>
        <time>2020-08-13T11:09:08Z</time>
      </trkpt>
      <trkpt lat="48.86246" lon="-2.99006">
        <ele>10.4</ele>
        <time>2020-08-13T11:09:15Z</time>
      </trkpt>
      <trkpt lat="48.86241" lon="-2.99007">
        <ele>10.2</ele>
        <time>2020-08-13T11:14:34Z</time>
      </trkpt>
      <trkpt lat="48.86241" lon="-2.99007">
        <ele>10.2</ele>
        <time>2020-08-13T11:14:35Z</time>
      </trkpt>
      <trkpt lat="48.8624" lon="-2.99007">
        <ele>10.1</ele>
        <time>2020-08-13T11:14:37Z</time>
      </trkpt>
      <trkpt lat="48.86236" lon="-2.99005">
        <ele>10</ele>
        <time>2020-08-13T11:14:44Z</time>
      </trkpt>
      <trkpt lat="48.86229" lon="-2.99004">
        <ele>9.8</ele>
        <time>2020-08-13T11:14:53Z</time>
      </trkpt>
      <trkpt lat="48.86227" lon="-2.99005">
        <ele>9.7</ele>
        <time>2020-08-13T11:14:55Z</time>
      </trkpt>
      <trkpt lat="48.86224" lon="-2.99004">
        <ele>9.6</ele>
        <time>2020-08-13T11:14:59Z</time>
      </trkpt>
      <trkpt lat="48.8622" lon="-2.99007">
        <ele>9.5</ele>
        <time>2020-08-13T11:15:03Z</time>
      </trkpt>
      <trkpt lat="48.86212" lon="-2.99018">
        <ele>9.2</ele>
        <time>2020-08-13T11:15:13Z</time>
      </trkpt>
      <trkpt lat="48.86208" lon="-2.99021">
        <ele>9.2</ele>
        <time>2020-08-13T11:15:17Z</time>
      </trkpt>
      <trkpt lat="48.86203" lon="-2.99022">
        <ele>9.1</ele>
        <time>2020-08-13T11:15:24Z</time>
      </trkpt>
      <trkpt lat="48.86204" lon="-2.99024">
        <ele>9.1</ele>
        <time>2020-08-13T11:18:58Z</time>
      </trkpt>
      <trkpt lat="48.86203" lon="-2.99025">
        <ele>9.1</ele>
        <time>2020-08-13T11:19:01Z</time>
      </trkpt>
      <trkpt lat="48.862" lon="-2.99026">
        <ele>9</ele>
        <time>2020-08-13T11:19:37Z</time>
      </trkpt>
      <trkpt lat="48.86198" lon="-2.99029">
        <ele>9</ele>
        <time>2020-08-13T11:20:02Z</time>
      </trkpt>
      <trkpt lat="48.8619" lon="-2.99033">
        <ele>8.9</ele>
        <time>2020-08-13T11:20:08Z</time>
      </trkpt>
      <trkpt lat="48.86186" lon="-2.99033">
        <ele>8.9</ele>
        <time>2020-08-13T11:20:11Z</time>
      </trkpt>
      <trkpt lat="48.8618" lon="-2.99034">
        <ele>8.9</ele>
        <time>2020-08-13T11:20:17Z</time>
      </trkpt>
      <trkpt lat="48.86172" lon="-2.99034">
        <ele>8.9</ele>
        <time>2020-08-13T11:20:24Z</time>
      </trkpt>
      <trkpt lat="48.86163" lon="-2.99048">
        <ele>8.2</ele>
        <time>2020-08-13T11:20:29Z</time>
      </trkpt>
      <trkpt lat="48.86154" lon="-2.99088">
        <ele>6.4</ele>
        <time>2020-08-13T11:20:37Z</time>
      </trkpt>
      <trkpt lat="48.8615" lon="-2.99116">
        <ele>5.7</ele>
        <time>2020-08-13T11:20:42Z</time>
      </trkpt>
      <trkpt lat="48.86159" lon="-2.99124">
        <ele>5.5</ele>
        <time>2020-08-13T11:20:46Z</time>
      </trkpt>
      <trkpt lat="48.86183" lon="-2.99125">
        <ele>5.5</ele>
        <time>2020-08-13T11:20:53Z</time>
      </trkpt>
      <trkpt lat="48.86203" lon="-2.99137">
        <ele>5.3</ele>
        <time>2020-08-13T11:20:59Z</time>
      </trkpt>
      <trkpt lat="48.86206" lon="-2.99161">
        <ele>5</ele>
        <time>2020-08-13T11:21:04Z</time>
      </trkpt>
      <trkpt lat="48.86207" lon="-2.99192">
        <ele>4.2</ele>
        <time>2020-08-13T11:21:12Z</time>
      </trkpt>
      <trkpt lat="48.86214" lon="-2.99213">
        <ele>4.3</ele>
        <time>2020-08-13T11:21:20Z</time>
      </trkpt>
      <trkpt lat="48.86222" lon="-2.99233">
        <ele>4.4</ele>
        <time>2020-08-13T11:21:27Z</time>
      </trkpt>
      <trkpt lat="48.86231" lon="-2.9925">
        <ele>5.2</ele>
        <time>2020-08-13T11:21:34Z</time>
      </trkpt>
      <trkpt lat="48.8624" lon="-2.99265">
        <ele>5.3</ele>
        <time>2020-08-13T11:21:42Z</time>
      </trkpt>
      <trkpt lat="48.86249" lon="-2.99282">
        <ele>5.7</ele>
        <time>2020-08-13T11:21:51Z</time>
      </trkpt>
      <trkpt lat="48.86262" lon="-2.993">
        <ele>7.9</ele>
        <time>2020-08-13T11:22:00Z</time>
      </trkpt>
      <trkpt lat="48.86268" lon="-2.9932">
        <ele>8.2</ele>
        <time>2020-08-13T11:22:08Z</time>
      </trkpt>
      <trkpt lat="48.8627" lon="-2.99349">
        <ele>9.4</ele>
        <time>2020-08-13T11:22:18Z</time>
      </trkpt>
      <trkpt lat="48.86268" lon="-2.9937">
        <ele>9.8</ele>
        <time>2020-08-13T11:22:27Z</time>
      </trkpt>
      <trkpt lat="48.86262" lon="-2.99387">
        <ele>10.1</ele>
        <time>2020-08-13T11:22:34Z</time>
      </trkpt>
      <trkpt lat="48.86259" lon="-2.99408">
        <ele>10.5</ele>
        <time>2020-08-13T11:22:42Z</time>
      </trkpt>
      <trkpt lat="48.8625" lon="-2.99432">
        <ele>10.8</ele>
        <time>2020-08-13T11:22:52Z</time>
      </trkpt>
      <trkpt lat="48.86235" lon="-2.99447">
        <ele>10.7</ele>
        <time>2020-08-13T11:23:00Z</time>
      </trkpt>
      <trkpt lat="48.86208" lon="-2.99459">
        <ele>10.5</ele>
        <time>2020-08-13T11:23:10Z</time>
      </trkpt>
      <trkpt lat="48.86185" lon="-2.9946">
        <ele>10.3</ele>
        <time>2020-08-13T11:23:17Z</time>
      </trkpt>
      <trkpt lat="48.8617" lon="-2.9945">
        <ele>9.9</ele>
        <time>2020-08-13T11:23:22Z</time>
      </trkpt>
      <trkpt lat="48.8614" lon="-2.99416">
        <ele>7.5</ele>
        <time>2020-08-13T11:23:32Z</time>
      </trkpt>
      <trkpt lat="48.86119" lon="-2.99403">
        <ele>7.5</ele>
        <time>2020-08-13T11:23:38Z</time>
      </trkpt>
      <trkpt lat="48.86111" lon="-2.99411">
        <ele>7.7</ele>
        <time>2020-08-13T11:23:41Z</time>
      </trkpt>
      <trkpt lat="48.86101" lon="-2.99426">
        <ele>9.1</ele>
        <time>2020-08-13T11:23:48Z</time>
      </trkpt>
      <trkpt lat="48.86088" lon="-2.99433">
        <ele>9.1</ele>
        <time>2020-08-13T11:23:56Z</time>
      </trkpt>
      <trkpt lat="48.86074" lon="-2.99445">
        <ele>7.4</ele>
        <time>2020-08-13T11:24:04Z</time>
      </trkpt>
      <trkpt lat="48.86056" lon="-2.9946">
        <ele>6.9</ele>
        <time>2020-08-13T11:24:12Z</time>
      </trkpt>
      <trkpt lat="48.86042" lon="-2.9948">
        <ele>6.6</ele>
        <time>2020-08-13T11:24:18Z</time>
      </trkpt>
      <trkpt lat="48.86032" lon="-2.99506">
        <ele>7.1</ele>
        <time>2020-08-13T11:24:25Z</time>
      </trkpt>
      <trkpt lat="48.86019" lon="-2.99519">
        <ele>6.8</ele>
        <time>2020-08-13T11:24:31Z</time>
      </trkpt>
      <trkpt lat="48.86004" lon="-2.99535">
        <ele>6.8</ele>
        <time>2020-08-13T11:24:37Z</time>
      </trkpt>
      <trkpt lat="48.85988" lon="-2.99549">
        <ele>4.5</ele>
        <time>2020-08-13T11:24:43Z</time>
      </trkpt>
      <trkpt lat="48.85971" lon="-2.99559">
        <ele>4.4</ele>
        <time>2020-08-13T11:24:49Z</time>
      </trkpt>
      <trkpt lat="48.85963" lon="-2.99563">
        <ele>4.2</ele>
        <time>2020-08-13T11:24:54Z</time>
      </trkpt>
      <trkpt lat="48.85963" lon="-2.99563">
        <ele>4.2</ele>
        <time>2020-08-13T11:24:55Z</time>
      </trkpt>
      <trkpt lat="48.85956" lon="-2.99571">
        <ele>4.1</ele>
        <time>2020-08-13T11:25:17Z</time>
      </trkpt>
      <trkpt lat="48.85955" lon="-2.99572">
        <ele>4.1</ele>
        <time>2020-08-13T11:25:20Z</time>
      </trkpt>
      <trkpt lat="48.85951" lon="-2.99575">
        <ele>4</ele>
        <time>2020-08-13T11:25:39Z</time>
      </trkpt>
      <trkpt lat="48.85943" lon="-2.99593">
        <ele>4.4</ele>
        <time>2020-08-13T11:25:46Z</time>
      </trkpt>
      <trkpt lat="48.85935" lon="-2.99604">
        <ele>4.4</ele>
        <time>2020-08-13T11:25:51Z</time>
      </trkpt>
      <trkpt lat="48.85915" lon="-2.99615">
        <ele>5.6</ele>
        <time>2020-08-13T11:26:00Z</time>
      </trkpt>
      <trkpt lat="48.85899" lon="-2.99631">
        <ele>6.3</ele>
        <time>2020-08-13T11:26:10Z</time>
      </trkpt>
      <trkpt lat="48.8589" lon="-2.99654">
        <ele>6.7</ele>
        <time>2020-08-13T11:26:19Z</time>
      </trkpt>
      <trkpt lat="48.8588" lon="-2.99674">
        <ele>8.7</ele>
        <time>2020-08-13T11:26:28Z</time>
      </trkpt>
      <trkpt lat="48.8587" lon="-2.99683">
        <ele>9.3</ele>
        <time>2020-08-13T11:26:36Z</time>
      </trkpt>
      <trkpt lat="48.8587" lon="-2.99683">
        <ele>9.3</ele>
        <time>2020-08-13T11:26:38Z</time>
      </trkpt>
      <trkpt lat="48.85877" lon="-2.99692">
        <ele>9</ele>
        <time>2020-08-13T11:26:45Z</time>
      </trkpt>
      <trkpt lat="48.85882" lon="-2.99711">
        <ele>9</ele>
        <time>2020-08-13T11:26:51Z</time>
      </trkpt>
      <trkpt lat="48.85884" lon="-2.99739">
        <ele>8.9</ele>
        <time>2020-08-13T11:27:00Z</time>
      </trkpt>
      <trkpt lat="48.85881" lon="-2.99762">
        <ele>9.6</ele>
        <time>2020-08-13T11:27:09Z</time>
      </trkpt>
      <trkpt lat="48.85879" lon="-2.99774">
        <ele>9.8</ele>
        <time>2020-08-13T11:27:16Z</time>
      </trkpt>
      <trkpt lat="48.85879" lon="-2.99768">
        <ele>9.8</ele>
        <time>2020-08-13T11:28:31Z</time>
      </trkpt>
      <trkpt lat="48.85882" lon="-2.99755">
        <ele>9.5</ele>
        <time>2020-08-13T11:28:36Z</time>
      </trkpt>
      <trkpt lat="48.85885" lon="-2.99725">
        <ele>8.9</ele>
        <time>2020-08-13T11:28:43Z</time>
      </trkpt>
      <trkpt lat="48.85881" lon="-2.99704">
        <ele>8.9</ele>
        <time>2020-08-13T11:28:50Z</time>
      </trkpt>
      <trkpt lat="48.85873" lon="-2.99685">
        <ele>9.2</ele>
        <time>2020-08-13T11:28:59Z</time>
      </trkpt>
      <trkpt lat="48.85871" lon="-2.99684">
        <ele>9.3</ele>
        <time>2020-08-13T11:29:00Z</time>
      </trkpt>
      <trkpt lat="48.85865" lon="-2.99687">
        <ele>9.6</ele>
        <time>2020-08-13T11:29:04Z</time>
      </trkpt>
      <trkpt lat="48.85854" lon="-2.99689">
        <ele>10.1</ele>
        <time>2020-08-13T11:29:12Z</time>
      </trkpt>
      <trkpt lat="48.85852" lon="-2.99688">
        <ele>10.2</ele>
        <time>2020-08-13T11:29:13Z</time>
      </trkpt>
      <trkpt lat="48.85845" lon="-2.99676">
        <ele>10.8</ele>
        <time>2020-08-13T11:29:20Z</time>
      </trkpt>
      <trkpt lat="48.85834" lon="-2.99678">
        <ele>11.1</ele>
        <time>2020-08-13T11:29:26Z</time>
      </trkpt>
      <trkpt lat="48.85819" lon="-2.99689">
        <ele>12.1</ele>
        <time>2020-08-13T11:29:35Z</time>
      </trkpt>
      <trkpt lat="48.85807" lon="-2.99698">
        <ele>12.1</ele>
        <time>2020-08-13T11:29:43Z</time>
      </trkpt>
      <trkpt lat="48.85806" lon="-2.99698">
        <ele>12.1</ele>
        <time>2020-08-13T11:29:44Z</time>
      </trkpt>
      <trkpt lat="48.85802" lon="-2.997">
        <ele>12.1</ele>
        <time>2020-08-13T11:29:49Z</time>
      </trkpt>
      <trkpt lat="48.85796" lon="-2.99696">
        <ele>12</ele>
        <time>2020-08-13T11:30:36Z</time>
      </trkpt>
      <trkpt lat="48.85794" lon="-2.99696">
        <ele>12</ele>
        <time>2020-08-13T11:30:41Z</time>
      </trkpt>
      <trkpt lat="48.85783" lon="-2.99691">
        <ele>11.8</ele>
        <time>2020-08-13T11:30:47Z</time>
      </trkpt>
      <trkpt lat="48.85768" lon="-2.99687">
        <ele>11.6</ele>
        <time>2020-08-13T11:30:53Z</time>
      </trkpt>
      <trkpt lat="48.85767" lon="-2.99687">
        <ele>11.6</ele>
        <time>2020-08-13T11:30:54Z</time>
      </trkpt>
      <trkpt lat="48.85761" lon="-2.9968">
        <ele>11.5</ele>
        <time>2020-08-13T11:30:59Z</time>
      </trkpt>
      <trkpt lat="48.85757" lon="-2.99664">
        <ele>10.8</ele>
        <time>2020-08-13T11:31:06Z</time>
      </trkpt>
      <trkpt lat="48.85756" lon="-2.99662">
        <ele>10.8</ele>
        <time>2020-08-13T11:31:07Z</time>
      </trkpt>
      <trkpt lat="48.85747" lon="-2.99645">
        <ele>10.1</ele>
        <time>2020-08-13T11:31:14Z</time>
      </trkpt>
      <trkpt lat="48.85746" lon="-2.9964">
        <ele>10</ele>
        <time>2020-08-13T11:31:15Z</time>
      </trkpt>
      <trkpt lat="48.85744" lon="-2.99614">
        <ele>9.8</ele>
        <time>2020-08-13T11:31:19Z</time>
      </trkpt>
      <trkpt lat="48.85746" lon="-2.99585">
        <ele>9.9</ele>
        <time>2020-08-13T11:31:23Z</time>
      </trkpt>
      <trkpt lat="48.85739" lon="-2.99557">
        <ele>9.3</ele>
        <time>2020-08-13T11:31:28Z</time>
      </trkpt>
      <trkpt lat="48.85732" lon="-2.99557">
        <ele>9.3</ele>
        <time>2020-08-13T11:31:30Z</time>
      </trkpt>
      <trkpt lat="48.85715" lon="-2.99564">
        <ele>9.2</ele>
        <time>2020-08-13T11:31:34Z</time>
      </trkpt>
      <trkpt lat="48.85692" lon="-2.99576">
        <ele>9.1</ele>
        <time>2020-08-13T11:31:40Z</time>
      </trkpt>
      <trkpt lat="48.85676" lon="-2.99586">
        <ele>9.1</ele>
        <time>2020-08-13T11:31:46Z</time>
      </trkpt>
      <trkpt lat="48.85657" lon="-2.99588">
        <ele>9.9</ele>
        <time>2020-08-13T11:31:54Z</time>
      </trkpt>
      <trkpt lat="48.8564" lon="-2.99583">
        <ele>10.8</ele>
        <time>2020-08-13T11:32:02Z</time>
      </trkpt>
      <trkpt lat="48.85626" lon="-2.99584">
        <ele>11.6</ele>
        <time>2020-08-13T11:32:10Z</time>
      </trkpt>
      <trkpt lat="48.85611" lon="-2.99592">
        <ele>12.4</ele>
        <time>2020-08-13T11:32:19Z</time>
      </trkpt>
      <trkpt lat="48.85595" lon="-2.99597">
        <ele>13.2</ele>
        <time>2020-08-13T11:32:28Z</time>
      </trkpt>
      <trkpt lat="48.85579" lon="-2.99596">
        <ele>15.3</ele>
        <time>2020-08-13T11:32:38Z</time>
      </trkpt>
      <trkpt lat="48.85562" lon="-2.99595">
        <ele>15.5</ele>
        <time>2020-08-13T11:32:48Z</time>
      </trkpt>
      <trkpt lat="48.85549" lon="-2.99594">
        <ele>15.7</ele>
        <time>2020-08-13T11:32:57Z</time>
      </trkpt>
      <trkpt lat="48.85535" lon="-2.99592">
        <ele>16</ele>
        <time>2020-08-13T11:33:07Z</time>
      </trkpt>
      <trkpt lat="48.85525" lon="-2.9959">
        <ele>16.2</ele>
        <time>2020-08-13T11:33:15Z</time>
      </trkpt>
      <trkpt lat="48.8552" lon="-2.99592">
        <ele>16.3</ele>
        <time>2020-08-13T11:33:21Z</time>
      </trkpt>
      <trkpt lat="48.85518" lon="-2.99595">
        <ele>16.3</ele>
        <time>2020-08-13T11:33:51Z</time>
      </trkpt>
      <trkpt lat="48.85507" lon="-2.99608">
        <ele>16.3</ele>
        <time>2020-08-13T11:34:02Z</time>
      </trkpt>
      <trkpt lat="48.85497" lon="-2.99618">
        <ele>15.4</ele>
        <time>2020-08-13T11:34:09Z</time>
      </trkpt>
      <trkpt lat="48.85496" lon="-2.99621">
        <ele>15.4</ele>
        <time>2020-08-13T11:34:11Z</time>
      </trkpt>
      <trkpt lat="48.85485" lon="-2.99642">
        <ele>15.4</ele>
        <time>2020-08-13T11:34:20Z</time>
      </trkpt>
      <trkpt lat="48.85479" lon="-2.99659">
        <ele>15.5</ele>
        <time>2020-08-13T11:34:26Z</time>
      </trkpt>
      <trkpt lat="48.85475" lon="-2.99669">
        <ele>15.9</ele>
        <time>2020-08-13T11:34:31Z</time>
      </trkpt>
      <trkpt lat="48.85473" lon="-2.99674">
        <ele>15.8</ele>
        <time>2020-08-13T11:34:36Z</time>
      </trkpt>
      <trkpt lat="48.85465" lon="-2.99679">
        <ele>15.6</ele>
        <time>2020-08-13T11:34:48Z</time>
      </trkpt>
      <trkpt lat="48.85449" lon="-2.99698">
        <ele>15.2</ele>
        <time>2020-08-13T11:34:56Z</time>
      </trkpt>
      <trkpt lat="48.85434" lon="-2.99711">
        <ele>15</ele>
        <time>2020-08-13T11:35:02Z</time>
      </trkpt>
      <trkpt lat="48.85423" lon="-2.99716">
        <ele>14.8</ele>
        <time>2020-08-13T11:35:08Z</time>
      </trkpt>
      <trkpt lat="48.85414" lon="-2.99717">
        <ele>11.4</ele>
        <time>2020-08-13T11:35:12Z</time>
      </trkpt>
      <trkpt lat="48.85399" lon="-2.99724">
        <ele>11.2</ele>
        <time>2020-08-13T11:35:18Z</time>
      </trkpt>
      <trkpt lat="48.85395" lon="-2.99722">
        <ele>11</ele>
        <time>2020-08-13T11:35:23Z</time>
      </trkpt>
      <trkpt lat="48.85379" lon="-2.99707">
        <ele>10.2</ele>
        <time>2020-08-13T11:35:30Z</time>
      </trkpt>
      <trkpt lat="48.85371" lon="-2.997">
        <ele>9.8</ele>
        <time>2020-08-13T11:35:32Z</time>
      </trkpt>
      <trkpt lat="48.85343" lon="-2.9967">
        <ele>7.4</ele>
        <time>2020-08-13T11:35:39Z</time>
      </trkpt>
      <trkpt lat="48.85325" lon="-2.99649">
        <ele>6.3</ele>
        <time>2020-08-13T11:35:45Z</time>
      </trkpt>
      <trkpt lat="48.85314" lon="-2.99637">
        <ele>6.4</ele>
        <time>2020-08-13T11:35:51Z</time>
      </trkpt>
      <trkpt lat="48.85313" lon="-2.99633">
        <ele>6.4</ele>
        <time>2020-08-13T11:35:55Z</time>
      </trkpt>
      <trkpt lat="48.85311" lon="-2.99628">
        <ele>6.4</ele>
        <time>2020-08-13T11:36:03Z</time>
      </trkpt>
      <trkpt lat="48.85313" lon="-2.99615">
        <ele>6.4</ele>
        <time>2020-08-13T11:36:08Z</time>
      </trkpt>
      <trkpt lat="48.85326" lon="-2.99591">
        <ele>6.2</ele>
        <time>2020-08-13T11:36:16Z</time>
      </trkpt>
      <trkpt lat="48.85341" lon="-2.99566">
        <ele>6.4</ele>
        <time>2020-08-13T11:36:25Z</time>
      </trkpt>
      <trkpt lat="48.85345" lon="-2.99541">
        <ele>6.2</ele>
        <time>2020-08-13T11:36:31Z</time>
      </trkpt>
      <trkpt lat="48.85344" lon="-2.99525">
        <ele>5.6</ele>
        <time>2020-08-13T11:36:36Z</time>
      </trkpt>
      <trkpt lat="48.85345" lon="-2.99522">
        <ele>5.5</ele>
        <time>2020-08-13T11:36:39Z</time>
      </trkpt>
      <trkpt lat="48.85342" lon="-2.99524">
        <ele>5.5</ele>
        <time>2020-08-13T11:40:02Z</time>
      </trkpt>
      <trkpt lat="48.85343" lon="-2.99535">
        <ele>6</ele>
        <time>2020-08-13T11:40:07Z</time>
      </trkpt>
      <trkpt lat="48.85344" lon="-2.99558">
        <ele>6.5</ele>
        <time>2020-08-13T11:40:14Z</time>
      </trkpt>
      <trkpt lat="48.85337" lon="-2.99575">
        <ele>6.3</ele>
        <time>2020-08-13T11:40:21Z</time>
      </trkpt>
      <trkpt lat="48.85323" lon="-2.99596">
        <ele>6.2</ele>
        <time>2020-08-13T11:40:30Z</time>
      </trkpt>
      <trkpt lat="48.85315" lon="-2.99611">
        <ele>6.4</ele>
        <time>2020-08-13T11:40:37Z</time>
      </trkpt>
      <trkpt lat="48.85312" lon="-2.99617">
        <ele>6.4</ele>
        <time>2020-08-13T11:40:40Z</time>
      </trkpt>
      <trkpt lat="48.85309" lon="-2.99618">
        <ele>6.4</ele>
        <time>2020-08-13T11:40:44Z</time>
      </trkpt>
      <trkpt lat="48.85307" lon="-2.99616">
        <ele>6.4</ele>
        <time>2020-08-13T11:40:50Z</time>
      </trkpt>
      <trkpt lat="48.85307" lon="-2.99616">
        <ele>6.4</ele>
        <time>2020-08-13T11:40:51Z</time>
      </trkpt>
      <trkpt lat="48.85307" lon="-2.99612">
        <ele>6.4</ele>
        <time>2020-08-13T11:41:03Z</time>
      </trkpt>
      <trkpt lat="48.85307" lon="-2.9961">
        <ele>6.4</ele>
        <time>2020-08-13T11:41:57Z</time>
      </trkpt>
      <trkpt lat="48.85306" lon="-2.99614">
        <ele>6.4</ele>
        <time>2020-08-13T11:42:06Z</time>
      </trkpt>
      <trkpt lat="48.85306" lon="-2.99614">
        <ele>6.4</ele>
        <time>2020-08-13T11:42:07Z</time>
      </trkpt>
      <trkpt lat="48.85312" lon="-2.99625">
        <ele>6.4</ele>
        <time>2020-08-13T11:42:13Z</time>
      </trkpt>
      <trkpt lat="48.85313" lon="-2.99632">
        <ele>6.4</ele>
        <time>2020-08-13T11:42:15Z</time>
      </trkpt>
      <trkpt lat="48.85307" lon="-2.99646">
        <ele>6.4</ele>
        <time>2020-08-13T11:42:22Z</time>
      </trkpt>
      <trkpt lat="48.85294" lon="-2.99659">
        <ele>6.5</ele>
        <time>2020-08-13T11:42:30Z</time>
      </trkpt>
      <trkpt lat="48.8528" lon="-2.99672">
        <ele>6.7</ele>
        <time>2020-08-13T11:42:38Z</time>
      </trkpt>
      <trkpt lat="48.85268" lon="-2.99683">
        <ele>6.8</ele>
        <time>2020-08-13T11:42:45Z</time>
      </trkpt>
      <trkpt lat="48.85258" lon="-2.99688">
        <ele>6.8</ele>
        <time>2020-08-13T11:42:51Z</time>
      </trkpt>
      <trkpt lat="48.85245" lon="-2.99695">
        <ele>6.3</ele>
        <time>2020-08-13T11:42:56Z</time>
      </trkpt>
      <trkpt lat="48.85234" lon="-2.997">
        <ele>6.1</ele>
        <time>2020-08-13T11:43:01Z</time>
      </trkpt>
      <trkpt lat="48.85234" lon="-2.997">
        <ele>6.1</ele>
        <time>2020-08-13T11:43:02Z</time>
      </trkpt>
      <trkpt lat="48.85226" lon="-2.99697">
        <ele>6</ele>
        <time>2020-08-13T11:43:07Z</time>
      </trkpt>
      <trkpt lat="48.85209" lon="-2.99702">
        <ele>5.8</ele>
        <time>2020-08-13T11:43:13Z</time>
      </trkpt>
      <trkpt lat="48.85196" lon="-2.99716">
        <ele>5.5</ele>
        <time>2020-08-13T11:43:19Z</time>
      </trkpt>
      <trkpt lat="48.85185" lon="-2.99737">
        <ele>5.1</ele>
        <time>2020-08-13T11:43:27Z</time>
      </trkpt>
      <trkpt lat="48.85175" lon="-2.99751">
        <ele>4.5</ele>
        <time>2020-08-13T11:43:32Z</time>
      </trkpt>
      <trkpt lat="48.85163" lon="-2.99762">
        <ele>3.8</ele>
        <time>2020-08-13T11:43:38Z</time>
      </trkpt>
      <trkpt lat="48.85142" lon="-2.99782">
        <ele>3.6</ele>
        <time>2020-08-13T11:43:49Z</time>
      </trkpt>
      <trkpt lat="48.85129" lon="-2.99791">
        <ele>3.5</ele>
        <time>2020-08-13T11:43:57Z</time>
      </trkpt>
      <trkpt lat="48.85117" lon="-2.99795">
        <ele>3.5</ele>
        <time>2020-08-13T11:44:02Z</time>
      </trkpt>
      <trkpt lat="48.85107" lon="-2.99796">
        <ele>3.4</ele>
        <time>2020-08-13T11:44:09Z</time>
      </trkpt>
      <trkpt lat="48.85097" lon="-2.99797">
        <ele>3.3</ele>
        <time>2020-08-13T11:44:18Z</time>
      </trkpt>
      <trkpt lat="48.85091" lon="-2.99798">
        <ele>3.3</ele>
        <time>2020-08-13T11:44:24Z</time>
      </trkpt>
      <trkpt lat="48.85084" lon="-2.99801">
        <ele>3.3</ele>
        <time>2020-08-13T11:44:31Z</time>
      </trkpt>
      <trkpt lat="48.85076" lon="-2.99804">
        <ele>3.6</ele>
        <time>2020-08-13T11:44:38Z</time>
      </trkpt>
      <trkpt lat="48.85074" lon="-2.99805">
        <ele>3.6</ele>
        <time>2020-08-13T11:44:39Z</time>
      </trkpt>
      <trkpt lat="48.85058" lon="-2.99815">
        <ele>3.8</ele>
        <time>2020-08-13T11:44:47Z</time>
      </trkpt>
      <trkpt lat="48.85044" lon="-2.99824">
        <ele>4</ele>
        <time>2020-08-13T11:44:52Z</time>
      </trkpt>
      <trkpt lat="48.8503" lon="-2.99829">
        <ele>4.2</ele>
        <time>2020-08-13T11:44:57Z</time>
      </trkpt>
      <trkpt lat="48.85014" lon="-2.9983">
        <ele>4.5</ele>
        <time>2020-08-13T11:45:04Z</time>
      </trkpt>
      <trkpt lat="48.84998" lon="-2.99831">
        <ele>5.2</ele>
        <time>2020-08-13T11:45:11Z</time>
      </trkpt>
      <trkpt lat="48.84979" lon="-2.99832">
        <ele>6</ele>
        <time>2020-08-13T11:45:19Z</time>
      </trkpt>
      <trkpt lat="48.84974" lon="-2.99832">
        <ele>6.2</ele>
        <time>2020-08-13T11:45:22Z</time>
      </trkpt>
      <trkpt lat="48.84972" lon="-2.9983">
        <ele>6.3</ele>
        <time>2020-08-13T11:45:26Z</time>
      </trkpt>
      <trkpt lat="48.84974" lon="-2.9983">
        <ele>6.2</ele>
        <time>2020-08-13T11:45:30Z</time>
      </trkpt>
      <trkpt lat="48.84974" lon="-2.99829">
        <ele>6.2</ele>
        <time>2020-08-13T11:45:32Z</time>
      </trkpt>
      <trkpt lat="48.84965" lon="-2.99835">
        <ele>6</ele>
        <time>2020-08-13T11:46:56Z</time>
      </trkpt>
      <trkpt lat="48.84953" lon="-2.99839">
        <ele>6.3</ele>
        <time>2020-08-13T11:47:02Z</time>
      </trkpt>
      <trkpt lat="48.84935" lon="-2.99846">
        <ele>6.8</ele>
        <time>2020-08-13T11:47:10Z</time>
      </trkpt>
      <trkpt lat="48.84932" lon="-2.99848">
        <ele>6.9</ele>
        <time>2020-08-13T11:47:12Z</time>
      </trkpt>
      <trkpt lat="48.84928" lon="-2.99861">
        <ele>6.7</ele>
        <time>2020-08-13T11:47:19Z</time>
      </trkpt>
      <trkpt lat="48.84928" lon="-2.99878">
        <ele>6.6</ele>
        <time>2020-08-13T11:47:26Z</time>
      </trkpt>
      <trkpt lat="48.84928" lon="-2.99895">
        <ele>6.8</ele>
        <time>2020-08-13T11:47:32Z</time>
      </trkpt>
      <trkpt lat="48.84928" lon="-2.99912">
        <ele>7.2</ele>
        <time>2020-08-13T11:47:38Z</time>
      </trkpt>
      <trkpt lat="48.84927" lon="-2.99928">
        <ele>7.4</ele>
        <time>2020-08-13T11:47:44Z</time>
      </trkpt>
      <trkpt lat="48.84925" lon="-2.9994">
        <ele>7.3</ele>
        <time>2020-08-13T11:47:49Z</time>
      </trkpt>
      <trkpt lat="48.84917" lon="-2.99969">
        <ele>7.7</ele>
        <time>2020-08-13T11:47:57Z</time>
      </trkpt>
      <trkpt lat="48.84912" lon="-2.99988">
        <ele>9.2</ele>
        <time>2020-08-13T11:48:03Z</time>
      </trkpt>
      <trkpt lat="48.84907" lon="-3.00009">
        <ele>9.6</ele>
        <time>2020-08-13T11:48:10Z</time>
      </trkpt>
      <trkpt lat="48.84906" lon="-3.00031">
        <ele>9.9</ele>
        <time>2020-08-13T11:48:17Z</time>
      </trkpt>
      <trkpt lat="48.84908" lon="-3.00065">
        <ele>9.4</ele>
        <time>2020-08-13T11:48:26Z</time>
      </trkpt>
      <trkpt lat="48.84909" lon="-3.00094">
        <ele>8.4</ele>
        <time>2020-08-13T11:48:32Z</time>
      </trkpt>
      <trkpt lat="48.84906" lon="-3.00106">
        <ele>8.5</ele>
        <time>2020-08-13T11:48:34Z</time>
      </trkpt>
      <trkpt lat="48.84897" lon="-3.00155">
        <ele>7.8</ele>
        <time>2020-08-13T11:48:42Z</time>
      </trkpt>
      <trkpt lat="48.8489" lon="-3.00207">
        <ele>6.1</ele>
        <time>2020-08-13T11:48:51Z</time>
      </trkpt>
      <trkpt lat="48.8489" lon="-3.00218">
        <ele>5.9</ele>
        <time>2020-08-13T11:48:54Z</time>
      </trkpt>
      <trkpt lat="48.84902" lon="-3.00233">
        <ele>5.3</ele>
        <time>2020-08-13T11:49:00Z</time>
      </trkpt>
      <trkpt lat="48.84905" lon="-3.00242">
        <ele>5</ele>
        <time>2020-08-13T11:49:02Z</time>
      </trkpt>
      <trkpt lat="48.84902" lon="-3.00264">
        <ele>5.3</ele>
        <time>2020-08-13T11:49:07Z</time>
      </trkpt>
      <trkpt lat="48.84894" lon="-3.00302">
        <ele>6.4</ele>
        <time>2020-08-13T11:49:17Z</time>
      </trkpt>
      <trkpt lat="48.84892" lon="-3.00329">
        <ele>6.9</ele>
        <time>2020-08-13T11:49:25Z</time>
      </trkpt>
      <trkpt lat="48.8489" lon="-3.00362">
        <ele>8.7</ele>
        <time>2020-08-13T11:49:34Z</time>
      </trkpt>
      <trkpt lat="48.84882" lon="-3.00397">
        <ele>9.2</ele>
        <time>2020-08-13T11:49:44Z</time>
      </trkpt>
      <trkpt lat="48.84869" lon="-3.00435">
        <ele>10.1</ele>
        <time>2020-08-13T11:49:56Z</time>
      </trkpt>
      <trkpt lat="48.84863" lon="-3.00451">
        <ele>10.1</ele>
        <time>2020-08-13T11:50:03Z</time>
      </trkpt>
      <trkpt lat="48.84855" lon="-3.00468">
        <ele>10.1</ele>
        <time>2020-08-13T11:50:11Z</time>
      </trkpt>
      <trkpt lat="48.84855" lon="-3.00472">
        <ele>10.1</ele>
        <time>2020-08-13T11:50:15Z</time>
      </trkpt>
      <trkpt lat="48.84847" lon="-3.00487">
        <ele>10.1</ele>
        <time>2020-08-13T11:50:29Z</time>
      </trkpt>
      <trkpt lat="48.84845" lon="-3.00503">
        <ele>10.6</ele>
        <time>2020-08-13T11:50:33Z</time>
      </trkpt>
      <trkpt lat="48.84847" lon="-3.00537">
        <ele>11.3</ele>
        <time>2020-08-13T11:50:41Z</time>
      </trkpt>
      <trkpt lat="48.84848" lon="-3.00565">
        <ele>11.7</ele>
        <time>2020-08-13T11:50:48Z</time>
      </trkpt>
      <trkpt lat="48.84847" lon="-3.00594">
        <ele>12.7</ele>
        <time>2020-08-13T11:50:57Z</time>
      </trkpt>
      <trkpt lat="48.84843" lon="-3.00607">
        <ele>12.9</ele>
        <time>2020-08-13T11:51:03Z</time>
      </trkpt>
      <trkpt lat="48.84835" lon="-3.00614">
        <ele>13.1</ele>
        <time>2020-08-13T11:51:09Z</time>
      </trkpt>
      <trkpt lat="48.84831" lon="-3.00619">
        <ele>12.1</ele>
        <time>2020-08-13T11:51:13Z</time>
      </trkpt>
      <trkpt lat="48.84821" lon="-3.00629">
        <ele>12.2</ele>
        <time>2020-08-13T11:51:21Z</time>
      </trkpt>
      <trkpt lat="48.84814" lon="-3.00632">
        <ele>12.2</ele>
        <time>2020-08-13T11:51:27Z</time>
      </trkpt>
      <trkpt lat="48.84804" lon="-3.00638">
        <ele>12</ele>
        <time>2020-08-13T11:51:32Z</time>
      </trkpt>
      <trkpt lat="48.84786" lon="-3.00659">
        <ele>11.6</ele>
        <time>2020-08-13T11:51:38Z</time>
      </trkpt>
      <trkpt lat="48.84778" lon="-3.00678">
        <ele>11.1</ele>
        <time>2020-08-13T11:51:43Z</time>
      </trkpt>
      <trkpt lat="48.84768" lon="-3.00693">
        <ele>10.8</ele>
        <time>2020-08-13T11:51:49Z</time>
      </trkpt>
      <trkpt lat="48.84762" lon="-3.00706">
        <ele>10.6</ele>
        <time>2020-08-13T11:51:54Z</time>
      </trkpt>
      <trkpt lat="48.84752" lon="-3.00729">
        <ele>9.7</ele>
        <time>2020-08-13T11:52:02Z</time>
      </trkpt>
      <trkpt lat="48.84745" lon="-3.00738">
        <ele>8.1</ele>
        <time>2020-08-13T11:52:08Z</time>
      </trkpt>
      <trkpt lat="48.84735" lon="-3.00742">
        <ele>8.1</ele>
        <time>2020-08-13T11:52:14Z</time>
      </trkpt>
      <trkpt lat="48.84725" lon="-3.00743">
        <ele>8</ele>
        <time>2020-08-13T11:52:20Z</time>
      </trkpt>
      <trkpt lat="48.84714" lon="-3.00744">
        <ele>7.9</ele>
        <time>2020-08-13T11:52:25Z</time>
      </trkpt>
      <trkpt lat="48.84702" lon="-3.00745">
        <ele>7.7</ele>
        <time>2020-08-13T11:52:32Z</time>
      </trkpt>
      <trkpt lat="48.8469" lon="-3.00748">
        <ele>7.3</ele>
        <time>2020-08-13T11:52:39Z</time>
      </trkpt>
      <trkpt lat="48.84688" lon="-3.00749">
        <ele>7.3</ele>
        <time>2020-08-13T11:52:43Z</time>
      </trkpt>
      <trkpt lat="48.84689" lon="-3.00748">
        <ele>7.3</ele>
        <time>2020-08-13T11:52:47Z</time>
      </trkpt>
      <trkpt lat="48.84689" lon="-3.00747">
        <ele>7.3</ele>
        <time>2020-08-13T11:52:48Z</time>
      </trkpt>
      <trkpt lat="48.84695" lon="-3.00747">
        <ele>7.5</ele>
        <time>2020-08-13T11:52:52Z</time>
      </trkpt>
      <trkpt lat="48.84717" lon="-3.00745">
        <ele>7.9</ele>
        <time>2020-08-13T11:53:00Z</time>
      </trkpt>
      <trkpt lat="48.84729" lon="-3.00743">
        <ele>8</ele>
        <time>2020-08-13T11:53:05Z</time>
      </trkpt>
      <trkpt lat="48.8473" lon="-3.00742">
        <ele>8.1</ele>
        <time>2020-08-13T11:53:07Z</time>
      </trkpt>
      <trkpt lat="48.8473" lon="-3.00753">
        <ele>6.1</ele>
        <time>2020-08-13T11:53:15Z</time>
      </trkpt>
      <trkpt lat="48.8473" lon="-3.00758">
        <ele>6</ele>
        <time>2020-08-13T11:53:20Z</time>
      </trkpt>
      <trkpt lat="48.8473" lon="-3.00751">
        <ele>6.2</ele>
        <time>2020-08-13T11:54:43Z</time>
      </trkpt>
      <trkpt lat="48.84729" lon="-3.00743">
        <ele>8</ele>
        <time>2020-08-13T11:54:51Z</time>
      </trkpt>
      <trkpt lat="48.84729" lon="-3.00743">
        <ele>8</ele>
        <time>2020-08-13T11:54:52Z</time>
      </trkpt>
      <trkpt lat="48.84717" lon="-3.00746">
        <ele>7.9</ele>
        <time>2020-08-13T11:54:59Z</time>
      </trkpt>
      <trkpt lat="48.84696" lon="-3.00748">
        <ele>7.5</ele>
        <time>2020-08-13T11:55:07Z</time>
      </trkpt>
      <trkpt lat="48.84675" lon="-3.00749">
        <ele>6.6</ele>
        <time>2020-08-13T11:55:16Z</time>
      </trkpt>
      <trkpt lat="48.84657" lon="-3.00751">
        <ele>6</ele>
        <time>2020-08-13T11:55:25Z</time>
      </trkpt>
      <trkpt lat="48.84641" lon="-3.00756">
        <ele>6.3</ele>
        <time>2020-08-13T11:55:33Z</time>
      </trkpt>
      <trkpt lat="48.8463" lon="-3.00756">
        <ele>6.5</ele>
        <time>2020-08-13T11:55:41Z</time>
      </trkpt>
      <trkpt lat="48.84618" lon="-3.00751">
        <ele>7</ele>
        <time>2020-08-13T11:55:49Z</time>
      </trkpt>
      <trkpt lat="48.84606" lon="-3.0074">
        <ele>9.5</ele>
        <time>2020-08-13T11:55:57Z</time>
      </trkpt>
      <trkpt lat="48.84596" lon="-3.00729">
        <ele>9.8</ele>
        <time>2020-08-13T11:56:05Z</time>
      </trkpt>
      <trkpt lat="48.84587" lon="-3.00717">
        <ele>10</ele>
        <time>2020-08-13T11:56:12Z</time>
      </trkpt>
      <trkpt lat="48.84574" lon="-3.00702">
        <ele>12.8</ele>
        <time>2020-08-13T11:56:20Z</time>
      </trkpt>
      <trkpt lat="48.84559" lon="-3.00684">
        <ele>13.3</ele>
        <time>2020-08-13T11:56:30Z</time>
      </trkpt>
      <trkpt lat="48.84542" lon="-3.00675">
        <ele>13.8</ele>
        <time>2020-08-13T11:56:39Z</time>
      </trkpt>
      <trkpt lat="48.84529" lon="-3.00669">
        <ele>14.4</ele>
        <time>2020-08-13T11:56:48Z</time>
      </trkpt>
      <trkpt lat="48.84513" lon="-3.00662">
        <ele>16.7</ele>
        <time>2020-08-13T11:56:58Z</time>
      </trkpt>
      <trkpt lat="48.84506" lon="-3.0066">
        <ele>16.8</ele>
        <time>2020-08-13T11:57:02Z</time>
      </trkpt>
      <trkpt lat="48.84504" lon="-3.00655">
        <ele>16.8</ele>
        <time>2020-08-13T11:57:07Z</time>
      </trkpt>
      <trkpt lat="48.84508" lon="-3.0064">
        <ele>16.8</ele>
        <time>2020-08-13T11:57:21Z</time>
      </trkpt>
      <trkpt lat="48.84514" lon="-3.00622">
        <ele>17</ele>
        <time>2020-08-13T11:57:29Z</time>
      </trkpt>
      <trkpt lat="48.84516" lon="-3.00595">
        <ele>17.7</ele>
        <time>2020-08-13T11:57:37Z</time>
      </trkpt>
      <trkpt lat="48.84515" lon="-3.00576">
        <ele>18.2</ele>
        <time>2020-08-13T11:57:43Z</time>
      </trkpt>
      <trkpt lat="48.84519" lon="-3.00552">
        <ele>17.8</ele>
        <time>2020-08-13T11:57:51Z</time>
      </trkpt>
      <trkpt lat="48.84525" lon="-3.00522">
        <ele>17.4</ele>
        <time>2020-08-13T11:57:59Z</time>
      </trkpt>
      <trkpt lat="48.84535" lon="-3.0049">
        <ele>15.7</ele>
        <time>2020-08-13T11:58:06Z</time>
      </trkpt>
      <trkpt lat="48.8454" lon="-3.00469">
        <ele>15.3</ele>
        <time>2020-08-13T11:58:10Z</time>
      </trkpt>
      <trkpt lat="48.84544" lon="-3.00438">
        <ele>14.5</ele>
        <time>2020-08-13T11:58:15Z</time>
      </trkpt>
      <trkpt lat="48.84549" lon="-3.00383">
        <ele>11.6</ele>
        <time>2020-08-13T11:58:23Z</time>
      </trkpt>
      <trkpt lat="48.84556" lon="-3.00334">
        <ele>10.6</ele>
        <time>2020-08-13T11:58:30Z</time>
      </trkpt>
      <trkpt lat="48.84561" lon="-3.00305">
        <ele>8.9</ele>
        <time>2020-08-13T11:58:35Z</time>
      </trkpt>
      <trkpt lat="48.84565" lon="-3.00294">
        <ele>8.8</ele>
        <time>2020-08-13T11:58:39Z</time>
      </trkpt>
      <trkpt lat="48.84569" lon="-3.0027">
        <ele>8.3</ele>
        <time>2020-08-13T11:58:44Z</time>
      </trkpt>
      <trkpt lat="48.84579" lon="-3.00218">
        <ele>7.2</ele>
        <time>2020-08-13T11:58:53Z</time>
      </trkpt>
      <trkpt lat="48.84586" lon="-3.0018">
        <ele>6.4</ele>
        <time>2020-08-13T11:59:00Z</time>
      </trkpt>
      <trkpt lat="48.84591" lon="-3.00155">
        <ele>6.5</ele>
        <time>2020-08-13T11:59:06Z</time>
      </trkpt>
      <trkpt lat="48.84596" lon="-3.0013">
        <ele>6.9</ele>
        <time>2020-08-13T11:59:13Z</time>
      </trkpt>
      <trkpt lat="48.84599" lon="-3.00102">
        <ele>6.8</ele>
        <time>2020-08-13T11:59:21Z</time>
      </trkpt>
      <trkpt lat="48.84595" lon="-3.00072">
        <ele>6.9</ele>
        <time>2020-08-13T11:59:28Z</time>
      </trkpt>
      <trkpt lat="48.84592" lon="-3.00058">
        <ele>7.2</ele>
        <time>2020-08-13T11:59:33Z</time>
      </trkpt>
      <trkpt lat="48.84591" lon="-3.00054">
        <ele>7.2</ele>
        <time>2020-08-13T11:59:37Z</time>
      </trkpt>
      <trkpt lat="48.84593" lon="-3.00054">
        <ele>7.2</ele>
        <time>2020-08-13T12:00:05Z</time>
      </trkpt>
      <trkpt lat="48.84593" lon="-3.00054">
        <ele>7.2</ele>
        <time>2020-08-13T12:00:08Z</time>
      </trkpt>
      <trkpt lat="48.84593" lon="-3.00051">
        <ele>7.3</ele>
        <time>2020-08-13T12:02:08Z</time>
      </trkpt>
      <trkpt lat="48.84594" lon="-3.0005">
        <ele>7.3</ele>
        <time>2020-08-13T12:02:10Z</time>
      </trkpt>
      <trkpt lat="48.84597" lon="-3.0005">
        <ele>7.4</ele>
        <time>2020-08-13T12:02:15Z</time>
      </trkpt>
      <trkpt lat="48.84598" lon="-3.00038">
        <ele>7.4</ele>
        <time>2020-08-13T12:29:07Z</time>
      </trkpt>
      <trkpt lat="48.84597" lon="-3.00038">
        <ele>7.4</ele>
        <time>2020-08-13T12:29:08Z</time>
      </trkpt>
      <trkpt lat="48.84594" lon="-3.00037">
        <ele>7.4</ele>
        <time>2020-08-13T12:29:14Z</time>
      </trkpt>
      <trkpt lat="48.84594" lon="-3.00043">
        <ele>7.4</ele>
        <time>2020-08-13T12:29:20Z</time>
      </trkpt>
      <trkpt lat="48.84592" lon="-3.00046">
        <ele>7.3</ele>
        <time>2020-08-13T12:29:23Z</time>
      </trkpt>
      <trkpt lat="48.84594" lon="-3.00052">
        <ele>7.3</ele>
        <time>2020-08-13T12:29:27Z</time>
      </trkpt>
      <trkpt lat="48.84594" lon="-3.00054">
        <ele>7.3</ele>
        <time>2020-08-13T12:29:32Z</time>
      </trkpt>
      <trkpt lat="48.84594" lon="-3.00056">
        <ele>7.2</ele>
        <time>2020-08-13T12:29:37Z</time>
      </trkpt>
      <trkpt lat="48.84596" lon="-3.00054">
        <ele>7.3</ele>
        <time>2020-08-13T12:30:35Z</time>
      </trkpt>
      <trkpt lat="48.84591" lon="-3.00058">
        <ele>7.2</ele>
        <time>2020-08-13T12:31:07Z</time>
      </trkpt>
      <trkpt lat="48.84589" lon="-3.00058">
        <ele>7.1</ele>
        <time>2020-08-13T12:31:11Z</time>
      </trkpt>
      <trkpt lat="48.84589" lon="-3.00059">
        <ele>7.1</ele>
        <time>2020-08-13T12:31:12Z</time>
      </trkpt>
      <trkpt lat="48.84582" lon="-3.00053">
        <ele>7</ele>
        <time>2020-08-13T12:32:04Z</time>
      </trkpt>
      <trkpt lat="48.84584" lon="-3.00054">
        <ele>7.1</ele>
        <time>2020-08-13T12:32:20Z</time>
      </trkpt>
      <trkpt lat="48.84585" lon="-3.00057">
        <ele>7.1</ele>
        <time>2020-08-13T12:32:26Z</time>
      </trkpt>
      <trkpt lat="48.84583" lon="-3.00057">
        <ele>7</ele>
        <time>2020-08-13T12:33:40Z</time>
      </trkpt>
      <trkpt lat="48.84582" lon="-3.00055">
        <ele>7</ele>
        <time>2020-08-13T12:33:44Z</time>
      </trkpt>
      <trkpt lat="48.84584" lon="-3.00055">
        <ele>7.1</ele>
        <time>2020-08-13T12:34:42Z</time>
      </trkpt>
      <trkpt lat="48.84582" lon="-3.00057">
        <ele>7</ele>
        <time>2020-08-13T12:34:49Z</time>
      </trkpt>
      <trkpt lat="48.84586" lon="-3.00053">
        <ele>7.2</ele>
        <time>2020-08-13T12:35:32Z</time>
      </trkpt>
      <trkpt lat="48.84582" lon="-3.00054">
        <ele>7</ele>
        <time>2020-08-13T12:35:41Z</time>
      </trkpt>
      <trkpt lat="48.84582" lon="-3.00057">
        <ele>7</ele>
        <time>2020-08-13T12:36:19Z</time>
      </trkpt>
      <trkpt lat="48.84584" lon="-3.00058">
        <ele>7.1</ele>
        <time>2020-08-13T12:36:22Z</time>
      </trkpt>
      <trkpt lat="48.84589" lon="-3.00061">
        <ele>7.1</ele>
        <time>2020-08-13T12:36:29Z</time>
      </trkpt>
      <trkpt lat="48.84592" lon="-3.00059">
        <ele>7.2</ele>
        <time>2020-08-13T12:36:35Z</time>
      </trkpt>
      <trkpt lat="48.84592" lon="-3.00058">
        <ele>7.2</ele>
        <time>2020-08-13T12:36:37Z</time>
      </trkpt>
      <trkpt lat="48.84592" lon="-3.00055">
        <ele>7.2</ele>
        <time>2020-08-13T12:36:42Z</time>
      </trkpt>
      <trkpt lat="48.84594" lon="-3.00049">
        <ele>7.3</ele>
        <time>2020-08-13T12:39:11Z</time>
      </trkpt>
      <trkpt lat="48.84592" lon="-3.00047">
        <ele>7.3</ele>
        <time>2020-08-13T12:39:15Z</time>
      </trkpt>
      <trkpt lat="48.84578" lon="-3.0004">
        <ele>7.1</ele>
        <time>2020-08-13T12:39:27Z</time>
      </trkpt>
      <trkpt lat="48.84573" lon="-3.00035">
        <ele>7.2</ele>
        <time>2020-08-13T12:39:33Z</time>
      </trkpt>
      <trkpt lat="48.84572" lon="-3.00029">
        <ele>7.1</ele>
        <time>2020-08-13T12:39:38Z</time>
      </trkpt>
      <trkpt lat="48.84573" lon="-3.00021">
        <ele>7</ele>
        <time>2020-08-13T12:39:42Z</time>
      </trkpt>
      <trkpt lat="48.84575" lon="-3.00012">
        <ele>6.7</ele>
        <time>2020-08-13T12:39:47Z</time>
      </trkpt>
      <trkpt lat="48.84577" lon="-2.9999">
        <ele>6.4</ele>
        <time>2020-08-13T12:39:56Z</time>
      </trkpt>
      <trkpt lat="48.84578" lon="-2.99987">
        <ele>6.4</ele>
        <time>2020-08-13T12:39:59Z</time>
      </trkpt>
      <trkpt lat="48.84581" lon="-2.99969">
        <ele>6.6</ele>
        <time>2020-08-13T12:40:06Z</time>
      </trkpt>
      <trkpt lat="48.84585" lon="-2.99945">
        <ele>7.9</ele>
        <time>2020-08-13T12:40:14Z</time>
      </trkpt>
      <trkpt lat="48.84586" lon="-2.99943">
        <ele>7.9</ele>
        <time>2020-08-13T12:40:17Z</time>
      </trkpt>
      <trkpt lat="48.84586" lon="-2.99939">
        <ele>7.8</ele>
        <time>2020-08-13T12:40:20Z</time>
      </trkpt>
      <trkpt lat="48.84582" lon="-2.99936">
        <ele>6.5</ele>
        <time>2020-08-13T12:40:24Z</time>
      </trkpt>
      <trkpt lat="48.84577" lon="-2.99933">
        <ele>6.4</ele>
        <time>2020-08-13T12:40:27Z</time>
      </trkpt>
      <trkpt lat="48.84565" lon="-2.9993">
        <ele>6.6</ele>
        <time>2020-08-13T12:40:34Z</time>
      </trkpt>
      <trkpt lat="48.84557" lon="-2.99923">
        <ele>6.6</ele>
        <time>2020-08-13T12:40:38Z</time>
      </trkpt>
      <trkpt lat="48.84552" lon="-2.99919">
        <ele>6.7</ele>
        <time>2020-08-13T12:40:43Z</time>
      </trkpt>
      <trkpt lat="48.8455" lon="-2.99916">
        <ele>5.8</ele>
        <time>2020-08-13T12:41:09Z</time>
      </trkpt>
      <trkpt lat="48.84544" lon="-2.9992">
        <ele>6.8</ele>
        <time>2020-08-13T12:41:13Z</time>
      </trkpt>
      <trkpt lat="48.84535" lon="-2.99935">
        <ele>6.9</ele>
        <time>2020-08-13T12:41:20Z</time>
      </trkpt>
      <trkpt lat="48.84534" lon="-2.99941">
        <ele>7</ele>
        <time>2020-08-13T12:41:22Z</time>
      </trkpt>
      <trkpt lat="48.84536" lon="-2.99953">
        <ele>7</ele>
        <time>2020-08-13T12:41:27Z</time>
      </trkpt>
      <trkpt lat="48.84547" lon="-2.99963">
        <ele>7</ele>
        <time>2020-08-13T12:41:35Z</time>
      </trkpt>
      <trkpt lat="48.84559" lon="-2.9997">
        <ele>6.8</ele>
        <time>2020-08-13T12:41:42Z</time>
      </trkpt>
      <trkpt lat="48.8456" lon="-2.99971">
        <ele>6.8</ele>
        <time>2020-08-13T12:41:44Z</time>
      </trkpt>
      <trkpt lat="48.84561" lon="-2.99971">
        <ele>6.8</ele>
        <time>2020-08-13T12:41:52Z</time>
      </trkpt>
      <trkpt lat="48.84554" lon="-2.99974">
        <ele>6.9</ele>
        <time>2020-08-13T12:51:17Z</time>
      </trkpt>
      <trkpt lat="48.84541" lon="-2.99963">
        <ele>7</ele>
        <time>2020-08-13T12:51:26Z</time>
      </trkpt>
      <trkpt lat="48.84536" lon="-2.99948">
        <ele>7</ele>
        <time>2020-08-13T12:51:32Z</time>
      </trkpt>
      <trkpt lat="48.84539" lon="-2.99934">
        <ele>6.9</ele>
        <time>2020-08-13T12:51:36Z</time>
      </trkpt>
      <trkpt lat="48.84536" lon="-2.99923">
        <ele>6.9</ele>
        <time>2020-08-13T12:51:42Z</time>
      </trkpt>
      <trkpt lat="48.84536" lon="-2.99923">
        <ele>6.9</ele>
        <time>2020-08-13T12:51:43Z</time>
      </trkpt>
      <trkpt lat="48.84541" lon="-2.99925">
        <ele>6.8</ele>
        <time>2020-08-13T12:51:49Z</time>
      </trkpt>
      <trkpt lat="48.84547" lon="-2.9992">
        <ele>6.8</ele>
        <time>2020-08-13T12:51:54Z</time>
      </trkpt>
      <trkpt lat="48.84556" lon="-2.99905">
        <ele>5.8</ele>
        <time>2020-08-13T12:52:01Z</time>
      </trkpt>
      <trkpt lat="48.84559" lon="-2.99891">
        <ele>5.7</ele>
        <time>2020-08-13T12:52:09Z</time>
      </trkpt>
      <trkpt lat="48.84562" lon="-2.99879">
        <ele>5.5</ele>
        <time>2020-08-13T12:52:15Z</time>
      </trkpt>
      <trkpt lat="48.8456" lon="-2.99876">
        <ele>5.5</ele>
        <time>2020-08-13T12:52:18Z</time>
      </trkpt>
      <trkpt lat="48.84558" lon="-2.99876">
        <ele>5.5</ele>
        <time>2020-08-13T12:52:22Z</time>
      </trkpt>
      <trkpt lat="48.84553" lon="-2.99874">
        <ele>5.5</ele>
        <time>2020-08-13T12:52:30Z</time>
      </trkpt>
      <trkpt lat="48.84542" lon="-2.99869">
        <ele>5.4</ele>
        <time>2020-08-13T12:52:37Z</time>
      </trkpt>
      <trkpt lat="48.84528" lon="-2.99865">
        <ele>5.3</ele>
        <time>2020-08-13T12:52:45Z</time>
      </trkpt>
      <trkpt lat="48.84514" lon="-2.9986">
        <ele>5.2</ele>
        <time>2020-08-13T12:52:53Z</time>
      </trkpt>
      <trkpt lat="48.84503" lon="-2.99855">
        <ele>5</ele>
        <time>2020-08-13T12:53:00Z</time>
      </trkpt>
      <trkpt lat="48.8449" lon="-2.99851">
        <ele>7.4</ele>
        <time>2020-08-13T12:53:07Z</time>
      </trkpt>
      <trkpt lat="48.84477" lon="-2.99846">
        <ele>8.2</ele>
        <time>2020-08-13T12:53:16Z</time>
      </trkpt>
      <trkpt lat="48.84462" lon="-2.99843">
        <ele>9.4</ele>
        <time>2020-08-13T12:53:27Z</time>
      </trkpt>
      <trkpt lat="48.84449" lon="-2.9984">
        <ele>10.4</ele>
        <time>2020-08-13T12:53:37Z</time>
      </trkpt>
      <trkpt lat="48.84434" lon="-2.99839">
        <ele>11.4</ele>
        <time>2020-08-13T12:53:48Z</time>
      </trkpt>
      <trkpt lat="48.84422" lon="-2.99838">
        <ele>12.3</ele>
        <time>2020-08-13T12:53:57Z</time>
      </trkpt>
      <trkpt lat="48.84411" lon="-2.99834">
        <ele>14.1</ele>
        <time>2020-08-13T12:54:05Z</time>
      </trkpt>
      <trkpt lat="48.84399" lon="-2.99828">
        <ele>13.9</ele>
        <time>2020-08-13T12:54:14Z</time>
      </trkpt>
      <trkpt lat="48.84384" lon="-2.99823">
        <ele>14.6</ele>
        <time>2020-08-13T12:54:25Z</time>
      </trkpt>
      <trkpt lat="48.84371" lon="-2.99825">
        <ele>15.4</ele>
        <time>2020-08-13T12:54:34Z</time>
      </trkpt>
      <trkpt lat="48.84356" lon="-2.99829">
        <ele>16.7</ele>
        <time>2020-08-13T12:54:44Z</time>
      </trkpt>
      <trkpt lat="48.84341" lon="-2.99834">
        <ele>19.5</ele>
        <time>2020-08-13T12:54:53Z</time>
      </trkpt>
      <trkpt lat="48.84329" lon="-2.99841">
        <ele>20</ele>
        <time>2020-08-13T12:55:01Z</time>
      </trkpt>
      <trkpt lat="48.84327" lon="-2.99842">
        <ele>20</ele>
        <time>2020-08-13T12:55:02Z</time>
      </trkpt>
      <trkpt lat="48.8432" lon="-2.99858">
        <ele>20.1</ele>
        <time>2020-08-13T12:55:10Z</time>
      </trkpt>
      <trkpt lat="48.84314" lon="-2.99886">
        <ele>20.7</ele>
        <time>2020-08-13T12:55:22Z</time>
      </trkpt>
      <trkpt lat="48.84314" lon="-2.99888">
        <ele>20.7</ele>
        <time>2020-08-13T12:55:25Z</time>
      </trkpt>
      <trkpt lat="48.8431" lon="-2.99893">
        <ele>20.8</ele>
        <time>2020-08-13T12:55:47Z</time>
      </trkpt>
      <trkpt lat="48.84306" lon="-2.9991">
        <ele>21</ele>
        <time>2020-08-13T12:55:54Z</time>
      </trkpt>
      <trkpt lat="48.84305" lon="-2.99919">
        <ele>22.3</ele>
        <time>2020-08-13T12:56:01Z</time>
      </trkpt>
      <trkpt lat="48.84301" lon="-2.99915">
        <ele>20.9</ele>
        <time>2020-08-13T12:56:06Z</time>
      </trkpt>
      <trkpt lat="48.843" lon="-2.99902">
        <ele>20.7</ele>
        <time>2020-08-13T12:56:10Z</time>
      </trkpt>
      <trkpt lat="48.84286" lon="-2.99885">
        <ele>20.1</ele>
        <time>2020-08-13T12:56:17Z</time>
      </trkpt>
      <trkpt lat="48.84269" lon="-2.99874">
        <ele>19.6</ele>
        <time>2020-08-13T12:56:22Z</time>
      </trkpt>
      <trkpt lat="48.8424" lon="-2.99856">
        <ele>18.5</ele>
        <time>2020-08-13T12:56:28Z</time>
      </trkpt>
      <trkpt lat="48.84231" lon="-2.99851">
        <ele>18.5</ele>
        <time>2020-08-13T12:56:30Z</time>
      </trkpt>
      <trkpt lat="48.84208" lon="-2.99829">
        <ele>15.5</ele>
        <time>2020-08-13T12:56:37Z</time>
      </trkpt>
      <trkpt lat="48.84193" lon="-2.99812">
        <ele>15.2</ele>
        <time>2020-08-13T12:56:43Z</time>
      </trkpt>
      <trkpt lat="48.84177" lon="-2.99794">
        <ele>14</ele>
        <time>2020-08-13T12:56:50Z</time>
      </trkpt>
      <trkpt lat="48.84159" lon="-2.99783">
        <ele>12.7</ele>
        <time>2020-08-13T12:56:57Z</time>
      </trkpt>
      <trkpt lat="48.84143" lon="-2.99788">
        <ele>13.2</ele>
        <time>2020-08-13T12:57:04Z</time>
      </trkpt>
      <trkpt lat="48.84129" lon="-2.99784">
        <ele>13.1</ele>
        <time>2020-08-13T12:57:10Z</time>
      </trkpt>
      <trkpt lat="48.84106" lon="-2.99769">
        <ele>12.3</ele>
        <time>2020-08-13T12:57:20Z</time>
      </trkpt>
      <trkpt lat="48.84094" lon="-2.99759">
        <ele>11.4</ele>
        <time>2020-08-13T12:57:27Z</time>
      </trkpt>
      <trkpt lat="48.84077" lon="-2.99755">
        <ele>10.8</ele>
        <time>2020-08-13T12:57:34Z</time>
      </trkpt>
      <trkpt lat="48.84061" lon="-2.99761">
        <ele>11.7</ele>
        <time>2020-08-13T12:57:40Z</time>
      </trkpt>
      <trkpt lat="48.84045" lon="-2.9976">
        <ele>11.9</ele>
        <time>2020-08-13T12:57:47Z</time>
      </trkpt>
      <trkpt lat="48.84043" lon="-2.99761">
        <ele>11.9</ele>
        <time>2020-08-13T12:57:48Z</time>
      </trkpt>
      <trkpt lat="48.84025" lon="-2.9977">
        <ele>11.9</ele>
        <time>2020-08-13T12:57:57Z</time>
      </trkpt>
      <trkpt lat="48.84009" lon="-2.99765">
        <ele>11</ele>
        <time>2020-08-13T12:58:06Z</time>
      </trkpt>
      <trkpt lat="48.84003" lon="-2.9976">
        <ele>10.4</ele>
        <time>2020-08-13T12:58:12Z</time>
      </trkpt>
      <trkpt lat="48.84003" lon="-2.99759">
        <ele>10.3</ele>
        <time>2020-08-13T12:58:14Z</time>
      </trkpt>
      <trkpt lat="48.83997" lon="-2.99756">
        <ele>10.1</ele>
        <time>2020-08-13T12:58:32Z</time>
      </trkpt>
      <trkpt lat="48.83987" lon="-2.99749">
        <ele>7.7</ele>
        <time>2020-08-13T12:58:39Z</time>
      </trkpt>
      <trkpt lat="48.83978" lon="-2.9974">
        <ele>7</ele>
        <time>2020-08-13T12:58:45Z</time>
      </trkpt>
      <trkpt lat="48.83965" lon="-2.99733">
        <ele>6.6</ele>
        <time>2020-08-13T12:58:52Z</time>
      </trkpt>
      <trkpt lat="48.83946" lon="-2.99739">
        <ele>7</ele>
        <time>2020-08-13T12:58:58Z</time>
      </trkpt>
      <trkpt lat="48.83928" lon="-2.99741">
        <ele>8</ele>
        <time>2020-08-13T12:59:05Z</time>
      </trkpt>
      <trkpt lat="48.83917" lon="-2.99737">
        <ele>8.1</ele>
        <time>2020-08-13T12:59:11Z</time>
      </trkpt>
      <trkpt lat="48.83915" lon="-2.99736">
        <ele>7.5</ele>
        <time>2020-08-13T12:59:14Z</time>
      </trkpt>
      <trkpt lat="48.83914" lon="-2.99732">
        <ele>7</ele>
        <time>2020-08-13T12:59:27Z</time>
      </trkpt>
      <trkpt lat="48.83912" lon="-2.99731">
        <ele>6.8</ele>
        <time>2020-08-13T12:59:32Z</time>
      </trkpt>
      <trkpt lat="48.83908" lon="-2.99729">
        <ele>6.5</ele>
        <time>2020-08-13T12:59:44Z</time>
      </trkpt>
      <trkpt lat="48.839" lon="-2.99729">
        <ele>6.2</ele>
        <time>2020-08-13T12:59:52Z</time>
      </trkpt>
      <trkpt lat="48.83899" lon="-2.99736">
        <ele>6.6</ele>
        <time>2020-08-13T12:59:57Z</time>
      </trkpt>
      <trkpt lat="48.83898" lon="-2.99742">
        <ele>6.9</ele>
        <time>2020-08-13T13:00:01Z</time>
      </trkpt>
      <trkpt lat="48.83893" lon="-2.99745">
        <ele>6.6</ele>
        <time>2020-08-13T13:00:06Z</time>
      </trkpt>
      <trkpt lat="48.83881" lon="-2.99746">
        <ele>5.9</ele>
        <time>2020-08-13T13:00:16Z</time>
      </trkpt>
      <trkpt lat="48.83877" lon="-2.99749">
        <ele>5.7</ele>
        <time>2020-08-13T13:00:21Z</time>
      </trkpt>
      <trkpt lat="48.83874" lon="-2.99755">
        <ele>9.2</ele>
        <time>2020-08-13T13:00:28Z</time>
      </trkpt>
      <trkpt lat="48.83865" lon="-2.99761">
        <ele>8.8</ele>
        <time>2020-08-13T13:00:38Z</time>
      </trkpt>
      <trkpt lat="48.83864" lon="-2.99762">
        <ele>8.8</ele>
        <time>2020-08-13T13:00:39Z</time>
      </trkpt>
      <trkpt lat="48.83864" lon="-2.99772">
        <ele>9.1</ele>
        <time>2020-08-13T13:00:45Z</time>
      </trkpt>
      <trkpt lat="48.83864" lon="-2.99773">
        <ele>9.1</ele>
        <time>2020-08-13T13:00:46Z</time>
      </trkpt>
      <trkpt lat="48.83868" lon="-2.99785">
        <ele>9.7</ele>
        <time>2020-08-13T13:00:55Z</time>
      </trkpt>
      <trkpt lat="48.83863" lon="-2.99795">
        <ele>9.7</ele>
        <time>2020-08-13T13:01:03Z</time>
      </trkpt>
      <trkpt lat="48.83855" lon="-2.99809">
        <ele>9.5</ele>
        <time>2020-08-13T13:01:14Z</time>
      </trkpt>
      <trkpt lat="48.83852" lon="-2.99815">
        <ele>9.3</ele>
        <time>2020-08-13T13:01:21Z</time>
      </trkpt>
      <trkpt lat="48.83846" lon="-2.99805">
        <ele>9.1</ele>
        <time>2020-08-13T13:01:33Z</time>
      </trkpt>
      <trkpt lat="48.83844" lon="-2.99804">
        <ele>9</ele>
        <time>2020-08-13T13:01:36Z</time>
      </trkpt>
      <trkpt lat="48.83841" lon="-2.99812">
        <ele>8.8</ele>
        <time>2020-08-13T13:01:43Z</time>
      </trkpt>
      <trkpt lat="48.83841" lon="-2.99812">
        <ele>8.8</ele>
        <time>2020-08-13T13:01:44Z</time>
      </trkpt>
      <trkpt lat="48.8384" lon="-2.99817">
        <ele>8.6</ele>
        <time>2020-08-13T13:02:10Z</time>
      </trkpt>
      <trkpt lat="48.8384" lon="-2.99817">
        <ele>8.6</ele>
        <time>2020-08-13T13:02:11Z</time>
      </trkpt>
      <trkpt lat="48.83846" lon="-2.99817">
        <ele>8.9</ele>
        <time>2020-08-13T13:04:40Z</time>
      </trkpt>
      <trkpt lat="48.83841" lon="-2.99812">
        <ele>8.8</ele>
        <time>2020-08-13T13:10:29Z</time>
      </trkpt>
      <trkpt lat="48.83838" lon="-2.99812">
        <ele>8.7</ele>
        <time>2020-08-13T13:10:41Z</time>
      </trkpt>
      <trkpt lat="48.83835" lon="-2.99817">
        <ele>8.5</ele>
        <time>2020-08-13T13:10:49Z</time>
      </trkpt>
      <trkpt lat="48.83832" lon="-2.99822">
        <ele>6.7</ele>
        <time>2020-08-13T13:10:57Z</time>
      </trkpt>
      <trkpt lat="48.8383" lon="-2.99826">
        <ele>6.8</ele>
        <time>2020-08-13T13:11:02Z</time>
      </trkpt>
      <trkpt lat="48.83826" lon="-2.9983">
        <ele>6.8</ele>
        <time>2020-08-13T13:11:08Z</time>
      </trkpt>
      <trkpt lat="48.83828" lon="-2.99828">
        <ele>6.8</ele>
        <time>2020-08-13T13:11:17Z</time>
      </trkpt>
      <trkpt lat="48.83833" lon="-2.99821">
        <ele>6.7</ele>
        <time>2020-08-13T13:11:26Z</time>
      </trkpt>
      <trkpt lat="48.83837" lon="-2.99816">
        <ele>8.6</ele>
        <time>2020-08-13T13:11:34Z</time>
      </trkpt>
      <trkpt lat="48.83838" lon="-2.99815">
        <ele>8.6</ele>
        <time>2020-08-13T13:11:37Z</time>
      </trkpt>
      <trkpt lat="48.83839" lon="-2.99812">
        <ele>8.8</ele>
        <time>2020-08-13T13:12:06Z</time>
      </trkpt>
      <trkpt lat="48.83842" lon="-2.99817">
        <ele>8.7</ele>
        <time>2020-08-13T13:12:15Z</time>
      </trkpt>
      <trkpt lat="48.83839" lon="-2.99813">
        <ele>8.7</ele>
        <time>2020-08-13T13:12:28Z</time>
      </trkpt>
      <trkpt lat="48.83837" lon="-2.99816">
        <ele>8.6</ele>
        <time>2020-08-13T13:12:36Z</time>
      </trkpt>
      <trkpt lat="48.83836" lon="-2.99818">
        <ele>8.4</ele>
        <time>2020-08-13T13:12:38Z</time>
      </trkpt>
      <trkpt lat="48.83832" lon="-2.99825">
        <ele>6.8</ele>
        <time>2020-08-13T13:12:47Z</time>
      </trkpt>
      <trkpt lat="48.83828" lon="-2.99828">
        <ele>6.8</ele>
        <time>2020-08-13T13:12:55Z</time>
      </trkpt>
      <trkpt lat="48.83824" lon="-2.99832">
        <ele>6.8</ele>
        <time>2020-08-13T13:13:03Z</time>
      </trkpt>
      <trkpt lat="48.83826" lon="-2.99827">
        <ele>6.8</ele>
        <time>2020-08-13T13:34:38Z</time>
      </trkpt>
      <trkpt lat="48.83828" lon="-2.99828">
        <ele>6.8</ele>
        <time>2020-08-13T13:35:23Z</time>
      </trkpt>
      <trkpt lat="48.8383" lon="-2.99829">
        <ele>6.9</ele>
        <time>2020-08-13T13:35:25Z</time>
      </trkpt>
      <trkpt lat="48.83831" lon="-2.99829">
        <ele>6.9</ele>
        <time>2020-08-13T13:35:27Z</time>
      </trkpt>
      <trkpt lat="48.83834" lon="-2.9982">
        <ele>8.3</ele>
        <time>2020-08-13T13:35:35Z</time>
      </trkpt>
      <trkpt lat="48.83836" lon="-2.99818">
        <ele>8.4</ele>
        <time>2020-08-13T13:35:39Z</time>
      </trkpt>
      <trkpt lat="48.8384" lon="-2.99814">
        <ele>8.7</ele>
        <time>2020-08-13T13:35:45Z</time>
      </trkpt>
      <trkpt lat="48.83842" lon="-2.99819">
        <ele>8.6</ele>
        <time>2020-08-13T13:35:52Z</time>
      </trkpt>
      <trkpt lat="48.83843" lon="-2.9982">
        <ele>8.6</ele>
        <time>2020-08-13T13:35:55Z</time>
      </trkpt>
      <trkpt lat="48.83843" lon="-2.99813">
        <ele>8.9</ele>
        <time>2020-08-13T13:38:26Z</time>
      </trkpt>
      <trkpt lat="48.83843" lon="-2.99811">
        <ele>8.9</ele>
        <time>2020-08-13T13:38:46Z</time>
      </trkpt>
      <trkpt lat="48.83844" lon="-2.99805">
        <ele>9</ele>
        <time>2020-08-13T13:38:52Z</time>
      </trkpt>
      <trkpt lat="48.83846" lon="-2.99802">
        <ele>9.1</ele>
        <time>2020-08-13T13:39:01Z</time>
      </trkpt>
      <trkpt lat="48.83846" lon="-2.99802">
        <ele>9.1</ele>
        <time>2020-08-13T13:39:02Z</time>
      </trkpt>
      <trkpt lat="48.83855" lon="-2.99811">
        <ele>9.5</ele>
        <time>2020-08-13T13:39:30Z</time>
      </trkpt>
      <trkpt lat="48.8386" lon="-2.99824">
        <ele>9.8</ele>
        <time>2020-08-13T13:39:39Z</time>
      </trkpt>
      <trkpt lat="48.83867" lon="-2.99832">
        <ele>10.5</ele>
        <time>2020-08-13T13:39:48Z</time>
      </trkpt>
      <trkpt lat="48.83875" lon="-2.99842">
        <ele>14.8</ele>
        <time>2020-08-13T13:40:00Z</time>
      </trkpt>
      <trkpt lat="48.83882" lon="-2.99852">
        <ele>15.6</ele>
        <time>2020-08-13T13:40:11Z</time>
      </trkpt>
      <trkpt lat="48.83887" lon="-2.99861">
        <ele>16.1</ele>
        <time>2020-08-13T13:40:21Z</time>
      </trkpt>
      <trkpt lat="48.83891" lon="-2.99871">
        <ele>16.5</ele>
        <time>2020-08-13T13:40:30Z</time>
      </trkpt>
      <trkpt lat="48.83897" lon="-2.99881">
        <ele>17.1</ele>
        <time>2020-08-13T13:40:35Z</time>
      </trkpt>
      <trkpt lat="48.83903" lon="-2.99893">
        <ele>18</ele>
        <time>2020-08-13T13:40:42Z</time>
      </trkpt>
      <trkpt lat="48.83909" lon="-2.99895">
        <ele>18.5</ele>
        <time>2020-08-13T13:40:47Z</time>
      </trkpt>
      <trkpt lat="48.8392" lon="-2.99898">
        <ele>21</ele>
        <time>2020-08-13T13:40:54Z</time>
      </trkpt>
      <trkpt lat="48.83927" lon="-2.99901">
        <ele>21</ele>
        <time>2020-08-13T13:40:59Z</time>
      </trkpt>
      <trkpt lat="48.83936" lon="-2.99897">
        <ele>20.8</ele>
        <time>2020-08-13T13:41:06Z</time>
      </trkpt>
      <trkpt lat="48.83936" lon="-2.99897">
        <ele>20.8</ele>
        <time>2020-08-13T13:41:07Z</time>
      </trkpt>
      <trkpt lat="48.83939" lon="-2.99898">
        <ele>20.7</ele>
        <time>2020-08-13T13:41:50Z</time>
      </trkpt>
      <trkpt lat="48.83941" lon="-2.99897">
        <ele>20.7</ele>
        <time>2020-08-13T13:42:03Z</time>
      </trkpt>
      <trkpt lat="48.83946" lon="-2.999">
        <ele>20.7</ele>
        <time>2020-08-13T13:42:08Z</time>
      </trkpt>
      <trkpt lat="48.83952" lon="-2.99907">
        <ele>20.8</ele>
        <time>2020-08-13T13:42:12Z</time>
      </trkpt>
      <trkpt lat="48.83962" lon="-2.9992">
        <ele>24.1</ele>
        <time>2020-08-13T13:42:20Z</time>
      </trkpt>
      <trkpt lat="48.83976" lon="-2.99929">
        <ele>24.2</ele>
        <time>2020-08-13T13:42:27Z</time>
      </trkpt>
      <trkpt lat="48.83986" lon="-2.99937">
        <ele>24.3</ele>
        <time>2020-08-13T13:42:34Z</time>
      </trkpt>
      <trkpt lat="48.83999" lon="-2.99945">
        <ele>24.6</ele>
        <time>2020-08-13T13:42:42Z</time>
      </trkpt>
      <trkpt lat="48.84015" lon="-2.99951">
        <ele>24</ele>
        <time>2020-08-13T13:42:52Z</time>
      </trkpt>
      <trkpt lat="48.84026" lon="-2.99959">
        <ele>24.1</ele>
        <time>2020-08-13T13:42:58Z</time>
      </trkpt>
      <trkpt lat="48.84034" lon="-2.9997">
        <ele>24.2</ele>
        <time>2020-08-13T13:43:03Z</time>
      </trkpt>
      <trkpt lat="48.84035" lon="-2.99971">
        <ele>24.2</ele>
        <time>2020-08-13T13:43:06Z</time>
      </trkpt>
      <trkpt lat="48.84047" lon="-2.99978">
        <ele>24</ele>
        <time>2020-08-13T13:43:15Z</time>
      </trkpt>
      <trkpt lat="48.84063" lon="-2.99984">
        <ele>23.6</ele>
        <time>2020-08-13T13:43:21Z</time>
      </trkpt>
      <trkpt lat="48.84081" lon="-2.99994">
        <ele>23.2</ele>
        <time>2020-08-13T13:43:27Z</time>
      </trkpt>
      <trkpt lat="48.84102" lon="-3.00004">
        <ele>21.8</ele>
        <time>2020-08-13T13:43:34Z</time>
      </trkpt>
      <trkpt lat="48.84109" lon="-3.00006">
        <ele>21.5</ele>
        <time>2020-08-13T13:43:39Z</time>
      </trkpt>
      <trkpt lat="48.84119" lon="-3.00011">
        <ele>21.1</ele>
        <time>2020-08-13T13:43:45Z</time>
      </trkpt>
      <trkpt lat="48.84121" lon="-3.00017">
        <ele>21</ele>
        <time>2020-08-13T13:43:50Z</time>
      </trkpt>
      <trkpt lat="48.84113" lon="-3.0003">
        <ele>21.1</ele>
        <time>2020-08-13T13:44:03Z</time>
      </trkpt>
      <trkpt lat="48.8411" lon="-3.00035">
        <ele>21.1</ele>
        <time>2020-08-13T13:44:05Z</time>
      </trkpt>
      <trkpt lat="48.84101" lon="-3.00052">
        <ele>21</ele>
        <time>2020-08-13T13:44:12Z</time>
      </trkpt>
      <trkpt lat="48.84092" lon="-3.00073">
        <ele>20.9</ele>
        <time>2020-08-13T13:44:18Z</time>
      </trkpt>
      <trkpt lat="48.8408" lon="-3.0008">
        <ele>21.6</ele>
        <time>2020-08-13T13:44:24Z</time>
      </trkpt>
      <trkpt lat="48.84078" lon="-3.00082">
        <ele>21.7</ele>
        <time>2020-08-13T13:44:25Z</time>
      </trkpt>
      <trkpt lat="48.84067" lon="-3.00093">
        <ele>21.4</ele>
        <time>2020-08-13T13:44:31Z</time>
      </trkpt>
      <trkpt lat="48.84061" lon="-3.00098">
        <ele>21.6</ele>
        <time>2020-08-13T13:44:35Z</time>
      </trkpt>
      <trkpt lat="48.84059" lon="-3.00106">
        <ele>21.6</ele>
        <time>2020-08-13T13:44:41Z</time>
      </trkpt>
      <trkpt lat="48.84058" lon="-3.00112">
        <ele>21.5</ele>
        <time>2020-08-13T13:44:46Z</time>
      </trkpt>
      <trkpt lat="48.84054" lon="-3.00128">
        <ele>21.3</ele>
        <time>2020-08-13T13:44:51Z</time>
      </trkpt>
      <trkpt lat="48.8405" lon="-3.00136">
        <ele>21.2</ele>
        <time>2020-08-13T13:44:55Z</time>
      </trkpt>
      <trkpt lat="48.8405" lon="-3.00137">
        <ele>21.2</ele>
        <time>2020-08-13T13:44:57Z</time>
      </trkpt>
      <trkpt lat="48.84045" lon="-3.00145">
        <ele>21</ele>
        <time>2020-08-13T13:45:03Z</time>
      </trkpt>
      <trkpt lat="48.84044" lon="-3.00148">
        <ele>21</ele>
        <time>2020-08-13T13:45:04Z</time>
      </trkpt>
      <trkpt lat="48.84045" lon="-3.00161">
        <ele>20.8</ele>
        <time>2020-08-13T13:45:08Z</time>
      </trkpt>
      <trkpt lat="48.84051" lon="-3.00188">
        <ele>17</ele>
        <time>2020-08-13T13:45:16Z</time>
      </trkpt>
      <trkpt lat="48.84053" lon="-3.00192">
        <ele>16.9</ele>
        <time>2020-08-13T13:45:17Z</time>
      </trkpt>
      <trkpt lat="48.84063" lon="-3.002">
        <ele>16.9</ele>
        <time>2020-08-13T13:45:21Z</time>
      </trkpt>
      <trkpt lat="48.84079" lon="-3.00226">
        <ele>16.5</ele>
        <time>2020-08-13T13:45:28Z</time>
      </trkpt>
      <trkpt lat="48.84082" lon="-3.00231">
        <ele>16.5</ele>
        <time>2020-08-13T13:45:32Z</time>
      </trkpt>
      <trkpt lat="48.84085" lon="-3.00237">
        <ele>18</ele>
        <time>2020-08-13T13:45:37Z</time>
      </trkpt>
      <trkpt lat="48.84085" lon="-3.00237">
        <ele>18</ele>
        <time>2020-08-13T13:45:39Z</time>
      </trkpt>
      <trkpt lat="48.84082" lon="-3.00265">
        <ele>13.8</ele>
        <time>2020-08-13T13:45:52Z</time>
      </trkpt>
      <trkpt lat="48.84083" lon="-3.00271">
        <ele>13</ele>
        <time>2020-08-13T13:45:55Z</time>
      </trkpt>
      <trkpt lat="48.8408" lon="-3.00288">
        <ele>11.5</ele>
        <time>2020-08-13T13:46:04Z</time>
      </trkpt>
      <trkpt lat="48.84077" lon="-3.00311">
        <ele>10.6</ele>
        <time>2020-08-13T13:46:14Z</time>
      </trkpt>
      <trkpt lat="48.84076" lon="-3.00327">
        <ele>10.6</ele>
        <time>2020-08-13T13:46:21Z</time>
      </trkpt>
      <trkpt lat="48.84077" lon="-3.00339">
        <ele>10.2</ele>
        <time>2020-08-13T13:46:28Z</time>
      </trkpt>
      <trkpt lat="48.84075" lon="-3.00357">
        <ele>9.3</ele>
        <time>2020-08-13T13:46:34Z</time>
      </trkpt>
      <trkpt lat="48.8407" lon="-3.00364">
        <ele>9</ele>
        <time>2020-08-13T13:46:40Z</time>
      </trkpt>
      <trkpt lat="48.84068" lon="-3.00366">
        <ele>8.9</ele>
        <time>2020-08-13T13:46:44Z</time>
      </trkpt>
      <trkpt lat="48.84068" lon="-3.00366">
        <ele>8.9</ele>
        <time>2020-08-13T13:46:45Z</time>
      </trkpt>
      <trkpt lat="48.84063" lon="-3.00364">
        <ele>8.8</ele>
        <time>2020-08-13T13:47:01Z</time>
      </trkpt>
      <trkpt lat="48.84062" lon="-3.00369">
        <ele>8.7</ele>
        <time>2020-08-13T13:47:07Z</time>
      </trkpt>
      <trkpt lat="48.84053" lon="-3.0037">
        <ele>8.4</ele>
        <time>2020-08-13T13:47:14Z</time>
      </trkpt>
      <trkpt lat="48.84047" lon="-3.00373">
        <ele>8.2</ele>
        <time>2020-08-13T13:47:19Z</time>
      </trkpt>
      <trkpt lat="48.84044" lon="-3.00375">
        <ele>8.1</ele>
        <time>2020-08-13T13:47:24Z</time>
      </trkpt>
      <trkpt lat="48.84043" lon="-3.00375">
        <ele>8.1</ele>
        <time>2020-08-13T13:47:27Z</time>
      </trkpt>
      <trkpt lat="48.84039" lon="-3.00378">
        <ele>7.9</ele>
        <time>2020-08-13T13:48:30Z</time>
      </trkpt>
      <trkpt lat="48.84041" lon="-3.00377">
        <ele>8</ele>
        <time>2020-08-13T13:48:57Z</time>
      </trkpt>
      <trkpt lat="48.84041" lon="-3.00377">
        <ele>8</ele>
        <time>2020-08-13T13:48:58Z</time>
      </trkpt>
      <trkpt lat="48.84037" lon="-3.00378">
        <ele>7.9</ele>
        <time>2020-08-13T13:49:25Z</time>
      </trkpt>
      <trkpt lat="48.84034" lon="-3.0038">
        <ele>7.8</ele>
        <time>2020-08-13T13:49:33Z</time>
      </trkpt>
      <trkpt lat="48.84024" lon="-3.00384">
        <ele>7.5</ele>
        <time>2020-08-13T13:49:44Z</time>
      </trkpt>
      <trkpt lat="48.84022" lon="-3.00385">
        <ele>7.5</ele>
        <time>2020-08-13T13:49:49Z</time>
      </trkpt>
      <trkpt lat="48.84018" lon="-3.00387">
        <ele>7.4</ele>
        <time>2020-08-13T13:49:55Z</time>
      </trkpt>
      <trkpt lat="48.84009" lon="-3.00391">
        <ele>7.3</ele>
        <time>2020-08-13T13:50:04Z</time>
      </trkpt>
      <trkpt lat="48.84007" lon="-3.00395">
        <ele>7.4</ele>
        <time>2020-08-13T13:50:08Z</time>
      </trkpt>
      <trkpt lat="48.83998" lon="-3.00408">
        <ele>3</ele>
        <time>2020-08-13T13:55:32Z</time>
      </trkpt>
      <trkpt lat="48.83991" lon="-3.00408">
        <ele>3</ele>
        <time>2020-08-13T13:55:41Z</time>
      </trkpt>
      <trkpt lat="48.83984" lon="-3.00409">
        <ele>3</ele>
        <time>2020-08-13T13:55:51Z</time>
      </trkpt>
      <trkpt lat="48.83981" lon="-3.00411">
        <ele>3</ele>
        <time>2020-08-13T13:55:55Z</time>
      </trkpt>
      <trkpt lat="48.83977" lon="-3.00412">
        <ele>3</ele>
        <time>2020-08-13T13:56:03Z</time>
      </trkpt>
      <trkpt lat="48.83975" lon="-3.00412">
        <ele>3</ele>
        <time>2020-08-13T13:56:08Z</time>
      </trkpt>
      <trkpt lat="48.83966" lon="-3.00412">
        <ele>3</ele>
        <time>2020-08-13T13:56:26Z</time>
      </trkpt>
      <trkpt lat="48.83957" lon="-3.00413">
        <ele>3</ele>
        <time>2020-08-13T13:56:35Z</time>
      </trkpt>
      <trkpt lat="48.83944" lon="-3.00414">
        <ele>3</ele>
        <time>2020-08-13T13:56:43Z</time>
      </trkpt>
      <trkpt lat="48.83918" lon="-3.00414">
        <ele>3</ele>
        <time>2020-08-13T13:56:53Z</time>
      </trkpt>
      <trkpt lat="48.83873" lon="-3.00414">
        <time>2020-08-13T13:57:07Z</time>
      </trkpt>
      <trkpt lat="48.83828" lon="-3.00419">
        <time>2020-08-13T13:57:20Z</time>
      </trkpt>
      <trkpt lat="48.8379" lon="-3.00427">
        <time>2020-08-13T13:57:31Z</time>
      </trkpt>
      <trkpt lat="48.83757" lon="-3.00435">
        <time>2020-08-13T13:57:41Z</time>
      </trkpt>
      <trkpt lat="48.83675" lon="-3.00461">
        <time>2020-08-13T13:58:05Z</time>
      </trkpt>
      <trkpt lat="48.83617" lon="-3.00481">
        <time>2020-08-13T13:58:21Z</time>
      </trkpt>
      <trkpt lat="48.8357" lon="-3.00497">
        <time>2020-08-13T13:58:34Z</time>
      </trkpt>
      <trkpt lat="48.83524" lon="-3.00516">
        <time>2020-08-13T13:58:47Z</time>
      </trkpt>
      <trkpt lat="48.83474" lon="-3.00537">
        <time>2020-08-13T13:59:01Z</time>
      </trkpt>
      <trkpt lat="48.83426" lon="-3.00566">
        <time>2020-08-13T13:59:14Z</time>
      </trkpt>
      <trkpt lat="48.83391" lon="-3.00597">
        <time>2020-08-13T13:59:24Z</time>
      </trkpt>
      <trkpt lat="48.83357" lon="-3.00635">
        <time>2020-08-13T13:59:34Z</time>
      </trkpt>
      <trkpt lat="48.83316" lon="-3.0068">
        <time>2020-08-13T13:59:46Z</time>
      </trkpt>
      <trkpt lat="48.8328" lon="-3.00714">
        <time>2020-08-13T13:59:56Z</time>
      </trkpt>
      <trkpt lat="48.83238" lon="-3.00748">
        <time>2020-08-13T14:00:07Z</time>
      </trkpt>
      <trkpt lat="48.83189" lon="-3.00785">
        <time>2020-08-13T14:00:20Z</time>
      </trkpt>
      <trkpt lat="48.83141" lon="-3.00819">
        <time>2020-08-13T14:00:33Z</time>
      </trkpt>
      <trkpt lat="48.83099" lon="-3.00848">
        <time>2020-08-13T14:00:44Z</time>
      </trkpt>
      <trkpt lat="48.83064" lon="-3.00872">
        <time>2020-08-13T14:00:53Z</time>
      </trkpt>
      <trkpt lat="48.83021" lon="-3.00905">
        <time>2020-08-13T14:01:04Z</time>
      </trkpt>
      <trkpt lat="48.82983" lon="-3.00935">
        <time>2020-08-13T14:01:14Z</time>
      </trkpt>
      <trkpt lat="48.82937" lon="-3.00969">
        <time>2020-08-13T14:01:26Z</time>
      </trkpt>
      <trkpt lat="48.82898" lon="-3.00993">
        <time>2020-08-13T14:01:36Z</time>
      </trkpt>
      <trkpt lat="48.82856" lon="-3.01022">
        <time>2020-08-13T14:01:47Z</time>
      </trkpt>
      <trkpt lat="48.82815" lon="-3.0105">
        <time>2020-08-13T14:01:58Z</time>
      </trkpt>
      <trkpt lat="48.8277" lon="-3.01078">
        <time>2020-08-13T14:02:10Z</time>
      </trkpt>
      <trkpt lat="48.82725" lon="-3.01101">
        <time>2020-08-13T14:02:22Z</time>
      </trkpt>
      <trkpt lat="48.82678" lon="-3.01119">
        <time>2020-08-13T14:02:34Z</time>
      </trkpt>
      <trkpt lat="48.82626" lon="-3.01137">
        <time>2020-08-13T14:02:47Z</time>
      </trkpt>
      <trkpt lat="48.82575" lon="-3.01155">
        <time>2020-08-13T14:03:00Z</time>
      </trkpt>
      <trkpt lat="48.82527" lon="-3.01172">
        <time>2020-08-13T14:03:12Z</time>
      </trkpt>
      <trkpt lat="48.82489" lon="-3.01178">
        <time>2020-08-13T14:03:22Z</time>
      </trkpt>
      <trkpt lat="48.82434" lon="-3.01185">
        <time>2020-08-13T14:03:36Z</time>
      </trkpt>
      <trkpt lat="48.82391" lon="-3.01195">
        <time>2020-08-13T14:03:48Z</time>
      </trkpt>
      <trkpt lat="48.82348" lon="-3.01203">
        <time>2020-08-13T14:04:00Z</time>
      </trkpt>
      <trkpt lat="48.82302" lon="-3.01217">
        <time>2020-08-13T14:04:14Z</time>
      </trkpt>
      <trkpt lat="48.82268" lon="-3.01228">
        <time>2020-08-13T14:04:25Z</time>
      </trkpt>
      <trkpt lat="48.82248" lon="-3.01242">
        <ele>1</ele>
        <time>2020-08-13T14:04:34Z</time>
      </trkpt>
      <trkpt lat="48.82235" lon="-3.01256">
        <ele>1.4</ele>
        <time>2020-08-13T14:04:42Z</time>
      </trkpt>
      <trkpt lat="48.82226" lon="-3.01275">
        <ele>1.4</ele>
        <time>2020-08-13T14:04:51Z</time>
      </trkpt>
      <trkpt lat="48.82224" lon="-3.01291">
        <ele>1.5</ele>
        <time>2020-08-13T14:05:01Z</time>
      </trkpt>
      <trkpt lat="48.82223" lon="-3.01292">
        <ele>1.5</ele>
        <time>2020-08-13T14:05:03Z</time>
      </trkpt>
      <trkpt lat="48.82224" lon="-3.01299">
        <ele>1.5</ele>
        <time>2020-08-13T14:07:18Z</time>
      </trkpt>
      <trkpt lat="48.82224" lon="-3.01299">
        <ele>1.5</ele>
        <time>2020-08-13T14:07:19Z</time>
      </trkpt>
      <trkpt lat="48.82222" lon="-3.01308">
        <ele>1.6</ele>
        <time>2020-08-13T14:07:28Z</time>
      </trkpt>
      <trkpt lat="48.82222" lon="-3.01312">
        <ele>1.6</ele>
        <time>2020-08-13T14:07:33Z</time>
      </trkpt>
      <trkpt lat="48.82227" lon="-3.01321">
        <ele>1.6</ele>
        <time>2020-08-13T14:07:43Z</time>
      </trkpt>
      <trkpt lat="48.82227" lon="-3.01324">
        <ele>1.6</ele>
        <time>2020-08-13T14:07:47Z</time>
      </trkpt>
      <trkpt lat="48.82226" lon="-3.01329">
        <ele>1.6</ele>
        <time>2020-08-13T14:08:04Z</time>
      </trkpt>
      <trkpt lat="48.82221" lon="-3.01342">
        <ele>2.4</ele>
        <time>2020-08-13T14:09:39Z</time>
      </trkpt>
      <trkpt lat="48.8222" lon="-3.01346">
        <ele>2.4</ele>
        <time>2020-08-13T14:09:42Z</time>
      </trkpt>
      <trkpt lat="48.82215" lon="-3.01351">
        <ele>2.4</ele>
        <time>2020-08-13T14:09:47Z</time>
      </trkpt>
      <trkpt lat="48.82201" lon="-3.01359">
        <ele>2.4</ele>
        <time>2020-08-13T14:10:00Z</time>
      </trkpt>
      <trkpt lat="48.82187" lon="-3.01367">
        <ele>2.4</ele>
        <time>2020-08-13T14:10:12Z</time>
      </trkpt>
      <trkpt lat="48.82177" lon="-3.01371">
        <ele>2.5</ele>
        <time>2020-08-13T14:10:22Z</time>
      </trkpt>
      <trkpt lat="48.82164" lon="-3.01379">
        <ele>4.9</ele>
        <time>2020-08-13T14:10:33Z</time>
      </trkpt>
      <trkpt lat="48.82156" lon="-3.01385">
        <ele>5.1</ele>
        <time>2020-08-13T14:10:41Z</time>
      </trkpt>
      <trkpt lat="48.82151" lon="-3.01395">
        <ele>5.1</ele>
        <time>2020-08-13T14:10:50Z</time>
      </trkpt>
      <trkpt lat="48.82148" lon="-3.01403">
        <ele>5.1</ele>
        <time>2020-08-13T14:10:57Z</time>
      </trkpt>
      <trkpt lat="48.82149" lon="-3.01408">
        <ele>4.9</ele>
        <time>2020-08-13T14:11:01Z</time>
      </trkpt>
      <trkpt lat="48.82155" lon="-3.01419">
        <ele>5</ele>
        <time>2020-08-13T14:11:12Z</time>
      </trkpt>
      <trkpt lat="48.82163" lon="-3.01414">
        <ele>3.6</ele>
        <time>2020-08-13T14:11:21Z</time>
      </trkpt>
      <trkpt lat="48.82163" lon="-3.01414">
        <ele>3.6</ele>
        <time>2020-08-13T14:11:22Z</time>
      </trkpt>
      <trkpt lat="48.82162" lon="-3.01414">
        <ele>3.6</ele>
        <time>2020-08-13T14:28:08Z</time>
      </trkpt>
      <trkpt lat="48.82161" lon="-3.01418">
        <ele>4</ele>
        <time>2020-08-13T14:29:33Z</time>
      </trkpt>
      <trkpt lat="48.82161" lon="-3.01418">
        <ele>4</ele>
        <time>2020-08-13T14:29:34Z</time>
      </trkpt>
      <trkpt lat="48.82156" lon="-3.01414">
        <ele>4.2</ele>
        <time>2020-08-13T14:29:41Z</time>
      </trkpt>
      <trkpt lat="48.82152" lon="-3.0141">
        <ele>4.6</ele>
        <time>2020-08-13T14:29:47Z</time>
      </trkpt>
      <trkpt lat="48.82148" lon="-3.01407">
        <ele>5</ele>
        <time>2020-08-13T14:29:51Z</time>
      </trkpt>
      <trkpt lat="48.82137" lon="-3.0141">
        <ele>5.7</ele>
        <time>2020-08-13T14:29:57Z</time>
      </trkpt>
      <trkpt lat="48.82129" lon="-3.01419">
        <ele>8</ele>
        <time>2020-08-13T14:30:03Z</time>
      </trkpt>
      <trkpt lat="48.82127" lon="-3.01427">
        <ele>8.3</ele>
        <time>2020-08-13T14:30:08Z</time>
      </trkpt>
      <trkpt lat="48.82126" lon="-3.01432">
        <ele>8.4</ele>
        <time>2020-08-13T14:30:18Z</time>
      </trkpt>
      <trkpt lat="48.82126" lon="-3.01433">
        <ele>8.5</ele>
        <time>2020-08-13T14:30:21Z</time>
      </trkpt>
      <trkpt lat="48.82126" lon="-3.01438">
        <ele>8.6</ele>
        <time>2020-08-13T14:30:31Z</time>
      </trkpt>
      <trkpt lat="48.82126" lon="-3.01439">
        <ele>8.6</ele>
        <time>2020-08-13T14:30:34Z</time>
      </trkpt>
      <trkpt lat="48.82126" lon="-3.01446">
        <ele>8.8</ele>
        <time>2020-08-13T14:31:06Z</time>
      </trkpt>
      <trkpt lat="48.82114" lon="-3.01455">
        <ele>9.7</ele>
        <time>2020-08-13T14:31:13Z</time>
      </trkpt>
      <trkpt lat="48.82111" lon="-3.0145">
        <ele>9.7</ele>
        <time>2020-08-13T14:31:17Z</time>
      </trkpt>
      <trkpt lat="48.82108" lon="-3.01455">
        <ele>10</ele>
        <time>2020-08-13T14:31:22Z</time>
      </trkpt>
      <trkpt lat="48.82108" lon="-3.01459">
        <ele>10.1</ele>
        <time>2020-08-13T14:31:26Z</time>
      </trkpt>
      <trkpt lat="48.82109" lon="-3.01459">
        <ele>10.1</ele>
        <time>2020-08-13T14:31:40Z</time>
      </trkpt>
      <trkpt lat="48.82109" lon="-3.01459">
        <ele>10.1</ele>
        <time>2020-08-13T14:31:41Z</time>
      </trkpt>
      <trkpt lat="48.82107" lon="-3.01443">
        <ele>9.8</ele>
        <time>2020-08-13T14:31:49Z</time>
      </trkpt>
      <trkpt lat="48.82107" lon="-3.01432">
        <ele>9.7</ele>
        <time>2020-08-13T14:31:54Z</time>
      </trkpt>
      <trkpt lat="48.82105" lon="-3.01426">
        <ele>9.7</ele>
        <time>2020-08-13T14:31:59Z</time>
      </trkpt>
      <trkpt lat="48.82105" lon="-3.01416">
        <ele>8.1</ele>
        <time>2020-08-13T14:32:18Z</time>
      </trkpt>
      <trkpt lat="48.82105" lon="-3.0138">
        <ele>7.2</ele>
        <time>2020-08-13T14:32:26Z</time>
      </trkpt>
      <trkpt lat="48.82103" lon="-3.01357">
        <ele>7.1</ele>
        <time>2020-08-13T14:32:32Z</time>
      </trkpt>
      <trkpt lat="48.82102" lon="-3.01338">
        <ele>7.4</ele>
        <time>2020-08-13T14:32:40Z</time>
      </trkpt>
      <trkpt lat="48.82103" lon="-3.01337">
        <ele>7.4</ele>
        <time>2020-08-13T14:32:41Z</time>
      </trkpt>
      <trkpt lat="48.821" lon="-3.01338">
        <ele>7.5</ele>
        <time>2020-08-13T14:32:45Z</time>
      </trkpt>
      <trkpt lat="48.82102" lon="-3.01344">
        <ele>7.3</ele>
        <time>2020-08-13T14:32:47Z</time>
      </trkpt>
      <trkpt lat="48.82105" lon="-3.01367">
        <ele>7</ele>
        <time>2020-08-13T14:32:54Z</time>
      </trkpt>
      <trkpt lat="48.82106" lon="-3.01395">
        <ele>7.5</ele>
        <time>2020-08-13T14:33:03Z</time>
      </trkpt>
      <trkpt lat="48.82108" lon="-3.01431">
        <ele>9.6</ele>
        <time>2020-08-13T14:33:15Z</time>
      </trkpt>
      <trkpt lat="48.8211" lon="-3.0146">
        <ele>10.1</ele>
        <time>2020-08-13T14:33:24Z</time>
      </trkpt>
      <trkpt lat="48.82111" lon="-3.01483">
        <ele>11</ele>
        <time>2020-08-13T14:33:31Z</time>
      </trkpt>
      <trkpt lat="48.82114" lon="-3.01497">
        <ele>11.3</ele>
        <time>2020-08-13T14:33:36Z</time>
      </trkpt>
      <trkpt lat="48.8212" lon="-3.01505">
        <ele>13</ele>
        <time>2020-08-13T14:33:40Z</time>
      </trkpt>
      <trkpt lat="48.82123" lon="-3.01531">
        <ele>12.6</ele>
        <time>2020-08-13T14:33:49Z</time>
      </trkpt>
      <trkpt lat="48.82124" lon="-3.0156">
        <ele>12.2</ele>
        <time>2020-08-13T14:34:00Z</time>
      </trkpt>
      <trkpt lat="48.82126" lon="-3.01587">
        <ele>14.2</ele>
        <time>2020-08-13T14:34:09Z</time>
      </trkpt>
      <trkpt lat="48.82129" lon="-3.01617">
        <ele>15.5</ele>
        <time>2020-08-13T14:34:19Z</time>
      </trkpt>
      <trkpt lat="48.82131" lon="-3.01638">
        <ele>17.1</ele>
        <time>2020-08-13T14:34:27Z</time>
      </trkpt>
      <trkpt lat="48.82133" lon="-3.01655">
        <ele>18.2</ele>
        <time>2020-08-13T14:34:34Z</time>
      </trkpt>
      <trkpt lat="48.82133" lon="-3.01679">
        <ele>19.2</ele>
        <time>2020-08-13T14:34:44Z</time>
      </trkpt>
      <trkpt lat="48.8213" lon="-3.01698">
        <ele>18.2</ele>
        <time>2020-08-13T14:34:52Z</time>
      </trkpt>
      <trkpt lat="48.82126" lon="-3.01717">
        <ele>17.2</ele>
        <time>2020-08-13T14:35:00Z</time>
      </trkpt>
      <trkpt lat="48.8212" lon="-3.01737">
        <ele>17.5</ele>
        <time>2020-08-13T14:35:08Z</time>
      </trkpt>
      <trkpt lat="48.82115" lon="-3.01757">
        <ele>16.9</ele>
        <time>2020-08-13T14:35:16Z</time>
      </trkpt>
      <trkpt lat="48.82108" lon="-3.01779">
        <ele>17.4</ele>
        <time>2020-08-13T14:35:24Z</time>
      </trkpt>
      <trkpt lat="48.82097" lon="-3.01806">
        <ele>17.7</ele>
        <time>2020-08-13T14:35:34Z</time>
      </trkpt>
      <trkpt lat="48.82084" lon="-3.01825">
        <ele>18.5</ele>
        <time>2020-08-13T14:35:42Z</time>
      </trkpt>
      <trkpt lat="48.82071" lon="-3.0184">
        <ele>21.8</ele>
        <time>2020-08-13T14:35:51Z</time>
      </trkpt>
      <trkpt lat="48.82062" lon="-3.01854">
        <ele>23.4</ele>
        <time>2020-08-13T14:35:59Z</time>
      </trkpt>
      <trkpt lat="48.82056" lon="-3.0187">
        <ele>23.7</ele>
        <time>2020-08-13T14:36:06Z</time>
      </trkpt>
      <trkpt lat="48.8205" lon="-3.01883">
        <ele>23.6</ele>
        <time>2020-08-13T14:36:12Z</time>
      </trkpt>
      <trkpt lat="48.82043" lon="-3.01895">
        <ele>23.8</ele>
        <time>2020-08-13T14:36:20Z</time>
      </trkpt>
      <trkpt lat="48.82034" lon="-3.01905">
        <ele>24.7</ele>
        <time>2020-08-13T14:36:27Z</time>
      </trkpt>
      <trkpt lat="48.82027" lon="-3.01911">
        <ele>25.5</ele>
        <time>2020-08-13T14:36:33Z</time>
      </trkpt>
      <trkpt lat="48.82018" lon="-3.01919">
        <ele>21.8</ele>
        <time>2020-08-13T14:36:40Z</time>
      </trkpt>
      <trkpt lat="48.82006" lon="-3.01927">
        <ele>23.7</ele>
        <time>2020-08-13T14:36:49Z</time>
      </trkpt>
      <trkpt lat="48.81997" lon="-3.01935">
        <ele>25.9</ele>
        <time>2020-08-13T14:36:56Z</time>
      </trkpt>
      <trkpt lat="48.81995" lon="-3.01936">
        <ele>25.8</ele>
        <time>2020-08-13T14:36:57Z</time>
      </trkpt>
      <trkpt lat="48.81989" lon="-3.0194">
        <ele>25.2</ele>
        <time>2020-08-13T14:37:02Z</time>
      </trkpt>
      <trkpt lat="48.81976" lon="-3.01939">
        <ele>25.1</ele>
        <time>2020-08-13T14:37:11Z</time>
      </trkpt>
      <trkpt lat="48.81967" lon="-3.01932">
        <ele>25.5</ele>
        <time>2020-08-13T14:37:18Z</time>
      </trkpt>
      <trkpt lat="48.81958" lon="-3.01923">
        <ele>25.9</ele>
        <time>2020-08-13T14:37:26Z</time>
      </trkpt>
      <trkpt lat="48.8195" lon="-3.01913">
        <ele>33.5</ele>
        <time>2020-08-13T14:37:32Z</time>
      </trkpt>
      <trkpt lat="48.81939" lon="-3.01906">
        <ele>33.6</ele>
        <time>2020-08-13T14:37:39Z</time>
      </trkpt>
      <trkpt lat="48.81936" lon="-3.01904">
        <ele>33.6</ele>
        <time>2020-08-13T14:37:42Z</time>
      </trkpt>
      <trkpt lat="48.81931" lon="-3.01902">
        <ele>33.5</ele>
        <time>2020-08-13T14:37:46Z</time>
      </trkpt>
      <trkpt lat="48.81914" lon="-3.01904">
        <ele>34.3</ele>
        <time>2020-08-13T14:37:55Z</time>
      </trkpt>
      <trkpt lat="48.819" lon="-3.01909">
        <ele>35.2</ele>
        <time>2020-08-13T14:38:03Z</time>
      </trkpt>
      <trkpt lat="48.81891" lon="-3.01914">
        <ele>36</ele>
        <time>2020-08-13T14:38:09Z</time>
      </trkpt>
      <trkpt lat="48.81874" lon="-3.01922">
        <ele>32</ele>
        <time>2020-08-13T14:38:19Z</time>
      </trkpt>
      <trkpt lat="48.81865" lon="-3.01925">
        <ele>32.6</ele>
        <time>2020-08-13T14:38:25Z</time>
      </trkpt>
      <trkpt lat="48.8185" lon="-3.01932">
        <ele>33.7</ele>
        <time>2020-08-13T14:38:34Z</time>
      </trkpt>
      <trkpt lat="48.8184" lon="-3.01935">
        <ele>34.1</ele>
        <time>2020-08-13T14:38:41Z</time>
      </trkpt>
      <trkpt lat="48.81827" lon="-3.01936">
        <ele>38.8</ele>
        <time>2020-08-13T14:38:49Z</time>
      </trkpt>
      <trkpt lat="48.81814" lon="-3.01932">
        <ele>39.2</ele>
        <time>2020-08-13T14:38:58Z</time>
      </trkpt>
      <trkpt lat="48.81801" lon="-3.01929">
        <ele>39.9</ele>
        <time>2020-08-13T14:39:07Z</time>
      </trkpt>
      <trkpt lat="48.81785" lon="-3.01927">
        <ele>40.9</ele>
        <time>2020-08-13T14:39:16Z</time>
      </trkpt>
      <trkpt lat="48.81776" lon="-3.01925">
        <ele>41.6</ele>
        <time>2020-08-13T14:39:23Z</time>
      </trkpt>
      <trkpt lat="48.81776" lon="-3.01924">
        <ele>41.6</ele>
        <time>2020-08-13T14:39:24Z</time>
      </trkpt>
      <trkpt lat="48.81772" lon="-3.01924">
        <ele>42</ele>
        <time>2020-08-13T14:39:39Z</time>
      </trkpt>
      <trkpt lat="48.81772" lon="-3.01924">
        <ele>42</ele>
        <time>2020-08-13T14:39:40Z</time>
      </trkpt>
      <trkpt lat="48.81763" lon="-3.01921">
        <ele>42.9</ele>
        <time>2020-08-13T14:39:47Z</time>
      </trkpt>
      <trkpt lat="48.81749" lon="-3.01916">
        <ele>45.1</ele>
        <time>2020-08-13T14:39:55Z</time>
      </trkpt>
      <trkpt lat="48.81733" lon="-3.01909">
        <ele>45.9</ele>
        <time>2020-08-13T14:40:05Z</time>
      </trkpt>
      <trkpt lat="48.81726" lon="-3.01905">
        <ele>46.1</ele>
        <time>2020-08-13T14:40:10Z</time>
      </trkpt>
      <trkpt lat="48.81718" lon="-3.01909">
        <ele>46.3</ele>
        <time>2020-08-13T14:40:15Z</time>
      </trkpt>
      <trkpt lat="48.81716" lon="-3.01908">
        <ele>46.3</ele>
        <time>2020-08-13T14:40:18Z</time>
      </trkpt>
      <trkpt lat="48.81718" lon="-3.01896">
        <ele>46.4</ele>
        <time>2020-08-13T14:42:25Z</time>
      </trkpt>
      <trkpt lat="48.81723" lon="-3.01886">
        <ele>46.4</ele>
        <time>2020-08-13T14:42:30Z</time>
      </trkpt>
      <trkpt lat="48.81727" lon="-3.01879">
        <ele>46.4</ele>
        <time>2020-08-13T14:42:34Z</time>
      </trkpt>
      <trkpt lat="48.81729" lon="-3.01872">
        <ele>46.5</ele>
        <time>2020-08-13T14:42:40Z</time>
      </trkpt>
      <trkpt lat="48.81732" lon="-3.0186">
        <ele>46.5</ele>
        <time>2020-08-13T14:42:55Z</time>
      </trkpt>
      <trkpt lat="48.81732" lon="-3.0186">
        <ele>46.5</ele>
        <time>2020-08-13T14:42:56Z</time>
      </trkpt>
      <trkpt lat="48.81734" lon="-3.01852">
        <ele>46.5</ele>
        <time>2020-08-13T14:43:07Z</time>
      </trkpt>
      <trkpt lat="48.81734" lon="-3.01852">
        <ele>46.5</ele>
        <time>2020-08-13T14:43:08Z</time>
      </trkpt>
      <trkpt lat="48.81735" lon="-3.01837">
        <ele>46.4</ele>
        <time>2020-08-13T14:43:59Z</time>
      </trkpt>
      <trkpt lat="48.81738" lon="-3.01806">
        <ele>47.7</ele>
        <time>2020-08-13T14:44:08Z</time>
      </trkpt>
      <trkpt lat="48.8174" lon="-3.01777">
        <ele>48.3</ele>
        <time>2020-08-13T14:44:17Z</time>
      </trkpt>
      <trkpt lat="48.81745" lon="-3.0176">
        <ele>48.7</ele>
        <time>2020-08-13T14:44:24Z</time>
      </trkpt>
      <trkpt lat="48.81752" lon="-3.01746">
        <ele>49</ele>
        <time>2020-08-13T14:44:30Z</time>
      </trkpt>
      <trkpt lat="48.81764" lon="-3.01728">
        <ele>49.2</ele>
        <time>2020-08-13T14:44:38Z</time>
      </trkpt>
      <trkpt lat="48.81765" lon="-3.01722">
        <ele>49.2</ele>
        <time>2020-08-13T14:44:43Z</time>
      </trkpt>
      <trkpt lat="48.81767" lon="-3.01727">
        <ele>49.2</ele>
        <time>2020-08-13T14:44:53Z</time>
      </trkpt>
      <trkpt lat="48.81756" lon="-3.01747">
        <ele>49</ele>
        <time>2020-08-13T14:45:01Z</time>
      </trkpt>
      <trkpt lat="48.8175" lon="-3.01761">
        <ele>48.3</ele>
        <time>2020-08-13T14:45:06Z</time>
      </trkpt>
      <trkpt lat="48.81736" lon="-3.01772">
        <ele>48.4</ele>
        <time>2020-08-13T14:45:13Z</time>
      </trkpt>
      <trkpt lat="48.81718" lon="-3.01781">
        <ele>48.3</ele>
        <time>2020-08-13T14:45:21Z</time>
      </trkpt>
      <trkpt lat="48.81698" lon="-3.01784">
        <ele>48.4</ele>
        <time>2020-08-13T14:45:28Z</time>
      </trkpt>
      <trkpt lat="48.81681" lon="-3.01785">
        <ele>48.5</ele>
        <time>2020-08-13T14:45:36Z</time>
      </trkpt>
      <trkpt lat="48.81669" lon="-3.01786">
        <ele>48.5</ele>
        <time>2020-08-13T14:45:42Z</time>
      </trkpt>
      <trkpt lat="48.81652" lon="-3.01786">
        <ele>48.5</ele>
        <time>2020-08-13T14:45:48Z</time>
      </trkpt>
      <trkpt lat="48.81633" lon="-3.01787">
        <ele>48.3</ele>
        <time>2020-08-13T14:45:54Z</time>
      </trkpt>
      <trkpt lat="48.8161" lon="-3.01791">
        <ele>48.1</ele>
        <time>2020-08-13T14:46:02Z</time>
      </trkpt>
      <trkpt lat="48.81578" lon="-3.01794">
        <ele>48</ele>
        <time>2020-08-13T14:46:12Z</time>
      </trkpt>
      <trkpt lat="48.81545" lon="-3.01797">
        <ele>48.2</ele>
        <time>2020-08-13T14:46:22Z</time>
      </trkpt>
      <trkpt lat="48.81519" lon="-3.018">
        <ele>48.5</ele>
        <time>2020-08-13T14:46:31Z</time>
      </trkpt>
      <trkpt lat="48.81495" lon="-3.01809">
        <ele>47.5</ele>
        <time>2020-08-13T14:46:39Z</time>
      </trkpt>
      <trkpt lat="48.81472" lon="-3.0182">
        <ele>46.9</ele>
        <time>2020-08-13T14:46:46Z</time>
      </trkpt>
      <trkpt lat="48.81448" lon="-3.01833">
        <ele>45.9</ele>
        <time>2020-08-13T14:46:54Z</time>
      </trkpt>
      <trkpt lat="48.81424" lon="-3.01849">
        <ele>45.6</ele>
        <time>2020-08-13T14:46:59Z</time>
      </trkpt>
      <trkpt lat="48.81383" lon="-3.01888">
        <ele>40.9</ele>
        <time>2020-08-13T14:47:06Z</time>
      </trkpt>
      <trkpt lat="48.81372" lon="-3.01905">
        <ele>40.6</ele>
        <time>2020-08-13T14:47:08Z</time>
      </trkpt>
      <trkpt lat="48.81341" lon="-3.01975">
        <ele>43.6</ele>
        <time>2020-08-13T14:47:15Z</time>
      </trkpt>
      <trkpt lat="48.81318" lon="-3.02029">
        <ele>46.6</ele>
        <time>2020-08-13T14:47:21Z</time>
      </trkpt>
      <trkpt lat="48.81305" lon="-3.02059">
        <ele>47.8</ele>
        <time>2020-08-13T14:47:26Z</time>
      </trkpt>
      <trkpt lat="48.81295" lon="-3.02085">
        <ele>50.8</ele>
        <time>2020-08-13T14:47:33Z</time>
      </trkpt>
      <trkpt lat="48.81288" lon="-3.02111">
        <ele>51.2</ele>
        <time>2020-08-13T14:47:42Z</time>
      </trkpt>
      <trkpt lat="48.81284" lon="-3.02138">
        <ele>51.5</ele>
        <time>2020-08-13T14:47:53Z</time>
      </trkpt>
      <trkpt lat="48.81286" lon="-3.02156">
        <ele>51.6</ele>
        <time>2020-08-13T14:48:01Z</time>
      </trkpt>
      <trkpt lat="48.81283" lon="-3.02162">
        <ele>51.7</ele>
        <time>2020-08-13T14:48:05Z</time>
      </trkpt>
      <trkpt lat="48.81282" lon="-3.02174">
        <ele>52.3</ele>
        <time>2020-08-13T14:48:10Z</time>
      </trkpt>
      <trkpt lat="48.81281" lon="-3.02177">
        <ele>52.3</ele>
        <time>2020-08-13T14:48:11Z</time>
      </trkpt>
      <trkpt lat="48.81276" lon="-3.02183">
        <ele>52.4</ele>
        <time>2020-08-13T14:48:17Z</time>
      </trkpt>
      <trkpt lat="48.81269" lon="-3.02184">
        <ele>52.5</ele>
        <time>2020-08-13T14:48:54Z</time>
      </trkpt>
      <trkpt lat="48.81254" lon="-3.02202">
        <ele>52.5</ele>
        <time>2020-08-13T14:49:02Z</time>
      </trkpt>
      <trkpt lat="48.81236" lon="-3.02225">
        <ele>53.8</ele>
        <time>2020-08-13T14:49:11Z</time>
      </trkpt>
      <trkpt lat="48.81214" lon="-3.02249">
        <ele>54.2</ele>
        <time>2020-08-13T14:49:20Z</time>
      </trkpt>
      <trkpt lat="48.81195" lon="-3.02271">
        <ele>54.6</ele>
        <time>2020-08-13T14:49:28Z</time>
      </trkpt>
      <trkpt lat="48.81168" lon="-3.02302">
        <ele>54.7</ele>
        <time>2020-08-13T14:49:38Z</time>
      </trkpt>
      <trkpt lat="48.81143" lon="-3.02337">
        <ele>54.6</ele>
        <time>2020-08-13T14:49:46Z</time>
      </trkpt>
      <trkpt lat="48.81108" lon="-3.02377">
        <ele>54.5</ele>
        <time>2020-08-13T14:49:56Z</time>
      </trkpt>
      <trkpt lat="48.81076" lon="-3.0241">
        <ele>54.7</ele>
        <time>2020-08-13T14:50:06Z</time>
      </trkpt>
      <trkpt lat="48.81042" lon="-3.02449">
        <ele>55.4</ele>
        <time>2020-08-13T14:50:17Z</time>
      </trkpt>
      <trkpt lat="48.81012" lon="-3.02482">
        <ele>56.1</ele>
        <time>2020-08-13T14:50:26Z</time>
      </trkpt>
      <trkpt lat="48.80988" lon="-3.02509">
        <ele>56.8</ele>
        <time>2020-08-13T14:50:34Z</time>
      </trkpt>
      <trkpt lat="48.80963" lon="-3.0253">
        <ele>56.6</ele>
        <time>2020-08-13T14:50:42Z</time>
      </trkpt>
      <trkpt lat="48.80928" lon="-3.02549">
        <ele>56.6</ele>
        <time>2020-08-13T14:50:51Z</time>
      </trkpt>
      <trkpt lat="48.80891" lon="-3.02567">
        <ele>56.5</ele>
        <time>2020-08-13T14:51:01Z</time>
      </trkpt>
      <trkpt lat="48.80854" lon="-3.02585">
        <ele>58.5</ele>
        <time>2020-08-13T14:51:12Z</time>
      </trkpt>
      <trkpt lat="48.80818" lon="-3.02602">
        <ele>59.1</ele>
        <time>2020-08-13T14:51:22Z</time>
      </trkpt>
      <trkpt lat="48.80791" lon="-3.02612">
        <ele>59.6</ele>
        <time>2020-08-13T14:51:31Z</time>
      </trkpt>
      <trkpt lat="48.80767" lon="-3.02615">
        <ele>59.9</ele>
        <time>2020-08-13T14:51:39Z</time>
      </trkpt>
      <trkpt lat="48.8074" lon="-3.02612">
        <ele>59.4</ele>
        <time>2020-08-13T14:51:47Z</time>
      </trkpt>
      <trkpt lat="48.80709" lon="-3.0261">
        <ele>58.8</ele>
        <time>2020-08-13T14:51:54Z</time>
      </trkpt>
      <trkpt lat="48.80664" lon="-3.02614">
        <ele>56.1</ele>
        <time>2020-08-13T14:52:03Z</time>
      </trkpt>
      <trkpt lat="48.80622" lon="-3.02617">
        <ele>55.5</ele>
        <time>2020-08-13T14:52:10Z</time>
      </trkpt>
      <trkpt lat="48.80582" lon="-3.02629">
        <ele>54.3</ele>
        <time>2020-08-13T14:52:15Z</time>
      </trkpt>
      <trkpt lat="48.80536" lon="-3.0265">
        <ele>54.6</ele>
        <time>2020-08-13T14:52:21Z</time>
      </trkpt>
      <trkpt lat="48.80501" lon="-3.02674">
        <ele>55.3</ele>
        <time>2020-08-13T14:52:27Z</time>
      </trkpt>
      <trkpt lat="48.80468" lon="-3.02704">
        <ele>55.7</ele>
        <time>2020-08-13T14:52:35Z</time>
      </trkpt>
      <trkpt lat="48.80436" lon="-3.02736">
        <ele>56.2</ele>
        <time>2020-08-13T14:52:44Z</time>
      </trkpt>
      <trkpt lat="48.80395" lon="-3.02777">
        <ele>56.1</ele>
        <time>2020-08-13T14:52:55Z</time>
      </trkpt>
      <trkpt lat="48.8036" lon="-3.02814">
        <ele>55.4</ele>
        <time>2020-08-13T14:53:03Z</time>
      </trkpt>
      <trkpt lat="48.80324" lon="-3.02851">
        <ele>53.6</ele>
        <time>2020-08-13T14:53:10Z</time>
      </trkpt>
      <trkpt lat="48.80291" lon="-3.02885">
        <ele>53.4</ele>
        <time>2020-08-13T14:53:17Z</time>
      </trkpt>
      <trkpt lat="48.80253" lon="-3.02924">
        <ele>53.9</ele>
        <time>2020-08-13T14:53:25Z</time>
      </trkpt>
      <trkpt lat="48.80215" lon="-3.02969">
        <ele>54.8</ele>
        <time>2020-08-13T14:53:34Z</time>
      </trkpt>
      <trkpt lat="48.80203" lon="-3.02987">
        <ele>55.1</ele>
        <time>2020-08-13T14:53:39Z</time>
      </trkpt>
      <trkpt lat="48.80197" lon="-3.02997">
        <ele>55.2</ele>
        <time>2020-08-13T14:53:45Z</time>
      </trkpt>
      <trkpt lat="48.80197" lon="-3.02997">
        <ele>55.2</ele>
        <time>2020-08-13T14:53:46Z</time>
      </trkpt>
      <trkpt lat="48.80192" lon="-3.03003">
        <ele>56.9</ele>
        <time>2020-08-13T14:53:58Z</time>
      </trkpt>
      <trkpt lat="48.80182" lon="-3.03017">
        <ele>56.9</ele>
        <time>2020-08-13T14:54:05Z</time>
      </trkpt>
      <trkpt lat="48.80184" lon="-3.03036">
        <ele>57.3</ele>
        <time>2020-08-13T14:54:11Z</time>
      </trkpt>
      <trkpt lat="48.80192" lon="-3.0307">
        <ele>57.7</ele>
        <time>2020-08-13T14:54:22Z</time>
      </trkpt>
      <trkpt lat="48.80193" lon="-3.03101">
        <ele>59</ele>
        <time>2020-08-13T14:54:30Z</time>
      </trkpt>
      <trkpt lat="48.80189" lon="-3.0312">
        <ele>59.2</ele>
        <time>2020-08-13T14:54:35Z</time>
      </trkpt>
      <trkpt lat="48.8018" lon="-3.03139">
        <ele>59.3</ele>
        <time>2020-08-13T14:54:42Z</time>
      </trkpt>
      <trkpt lat="48.80171" lon="-3.03169">
        <ele>59.4</ele>
        <time>2020-08-13T14:54:51Z</time>
      </trkpt>
      <trkpt lat="48.80157" lon="-3.03209">
        <ele>59.3</ele>
        <time>2020-08-13T14:55:03Z</time>
      </trkpt>
      <trkpt lat="48.80145" lon="-3.03231">
        <ele>59.7</ele>
        <time>2020-08-13T14:55:10Z</time>
      </trkpt>
      <trkpt lat="48.80127" lon="-3.03257">
        <ele>60.7</ele>
        <time>2020-08-13T14:55:19Z</time>
      </trkpt>
      <trkpt lat="48.80108" lon="-3.03273">
        <ele>60.3</ele>
        <time>2020-08-13T14:55:26Z</time>
      </trkpt>
      <trkpt lat="48.80088" lon="-3.03279">
        <ele>60.1</ele>
        <time>2020-08-13T14:55:32Z</time>
      </trkpt>
      <trkpt lat="48.80063" lon="-3.03289">
        <ele>58.5</ele>
        <time>2020-08-13T14:55:39Z</time>
      </trkpt>
      <trkpt lat="48.80028" lon="-3.03299">
        <ele>58.2</ele>
        <time>2020-08-13T14:55:48Z</time>
      </trkpt>
      <trkpt lat="48.79994" lon="-3.03301">
        <ele>55.4</ele>
        <time>2020-08-13T14:55:55Z</time>
      </trkpt>
      <trkpt lat="48.79983" lon="-3.033">
        <ele>55.1</ele>
        <time>2020-08-13T14:55:57Z</time>
      </trkpt>
      <trkpt lat="48.79957" lon="-3.03312">
        <ele>54.3</ele>
        <time>2020-08-13T14:56:01Z</time>
      </trkpt>
      <trkpt lat="48.79934" lon="-3.03333">
        <ele>53.2</ele>
        <time>2020-08-13T14:56:05Z</time>
      </trkpt>
      <trkpt lat="48.79894" lon="-3.0335">
        <ele>51.6</ele>
        <time>2020-08-13T14:56:11Z</time>
      </trkpt>
      <trkpt lat="48.79862" lon="-3.03358">
        <ele>51</ele>
        <time>2020-08-13T14:56:16Z</time>
      </trkpt>
      <trkpt lat="48.79828" lon="-3.0337">
        <ele>49</ele>
        <time>2020-08-13T14:56:21Z</time>
      </trkpt>
      <trkpt lat="48.79782" lon="-3.03392">
        <ele>48.5</ele>
        <time>2020-08-13T14:56:28Z</time>
      </trkpt>
      <trkpt lat="48.79729" lon="-3.03429">
        <ele>47.2</ele>
        <time>2020-08-13T14:56:37Z</time>
      </trkpt>
      <trkpt lat="48.79691" lon="-3.03453">
        <ele>46.6</ele>
        <time>2020-08-13T14:56:44Z</time>
      </trkpt>
      <trkpt lat="48.79659" lon="-3.0347">
        <ele>45.7</ele>
        <time>2020-08-13T14:56:50Z</time>
      </trkpt>
      <trkpt lat="48.79626" lon="-3.0348">
        <ele>45.5</ele>
        <time>2020-08-13T14:56:57Z</time>
      </trkpt>
      <trkpt lat="48.79599" lon="-3.03494">
        <ele>45.3</ele>
        <time>2020-08-13T14:57:04Z</time>
      </trkpt>
      <trkpt lat="48.79575" lon="-3.03504">
        <ele>45.3</ele>
        <time>2020-08-13T14:57:11Z</time>
      </trkpt>
      <trkpt lat="48.79572" lon="-3.03507">
        <ele>45.4</ele>
        <time>2020-08-13T14:57:13Z</time>
      </trkpt>
      <trkpt lat="48.79572" lon="-3.03511">
        <ele>45.5</ele>
        <time>2020-08-13T14:57:17Z</time>
      </trkpt>
      <trkpt lat="48.79572" lon="-3.03516">
        <ele>45.5</ele>
        <time>2020-08-13T14:58:02Z</time>
      </trkpt>
      <trkpt lat="48.79579" lon="-3.03535">
        <ele>45.8</ele>
        <time>2020-08-13T14:58:07Z</time>
      </trkpt>
      <trkpt lat="48.79579" lon="-3.03542">
        <ele>45.8</ele>
        <time>2020-08-13T14:58:09Z</time>
      </trkpt>
      <trkpt lat="48.79571" lon="-3.03557">
        <ele>45.9</ele>
        <time>2020-08-13T14:58:16Z</time>
      </trkpt>
      <trkpt lat="48.79571" lon="-3.03563">
        <ele>46</ele>
        <time>2020-08-13T14:58:20Z</time>
      </trkpt>
      <trkpt lat="48.79574" lon="-3.03557">
        <ele>45.9</ele>
        <time>2020-08-13T14:58:24Z</time>
      </trkpt>
      <trkpt lat="48.79576" lon="-3.03551">
        <ele>45.9</ele>
        <time>2020-08-13T14:58:26Z</time>
      </trkpt>
      <trkpt lat="48.79576" lon="-3.03525">
        <ele>45.6</ele>
        <time>2020-08-13T14:58:34Z</time>
      </trkpt>
      <trkpt lat="48.79572" lon="-3.03516">
        <ele>45.5</ele>
        <time>2020-08-13T14:58:39Z</time>
      </trkpt>
      <trkpt lat="48.79571" lon="-3.03511">
        <ele>45.5</ele>
        <time>2020-08-13T14:58:42Z</time>
      </trkpt>
      <trkpt lat="48.79562" lon="-3.03506">
        <ele>45.6</ele>
        <time>2020-08-13T14:58:48Z</time>
      </trkpt>
      <trkpt lat="48.79559" lon="-3.03507">
        <ele>45.6</ele>
        <time>2020-08-13T14:58:49Z</time>
      </trkpt>
      <trkpt lat="48.79531" lon="-3.03514">
        <ele>45.9</ele>
        <time>2020-08-13T14:58:57Z</time>
      </trkpt>
      <trkpt lat="48.79491" lon="-3.03513">
        <ele>46.1</ele>
        <time>2020-08-13T14:59:07Z</time>
      </trkpt>
      <trkpt lat="48.79464" lon="-3.03511">
        <ele>45.9</ele>
        <time>2020-08-13T14:59:14Z</time>
      </trkpt>
      <trkpt lat="48.79439" lon="-3.03511">
        <ele>45.5</ele>
        <time>2020-08-13T14:59:23Z</time>
      </trkpt>
      <trkpt lat="48.79412" lon="-3.03511">
        <ele>44.3</ele>
        <time>2020-08-13T14:59:32Z</time>
      </trkpt>
      <trkpt lat="48.79386" lon="-3.03518">
        <ele>44.4</ele>
        <time>2020-08-13T14:59:39Z</time>
      </trkpt>
      <trkpt lat="48.79356" lon="-3.0353">
        <ele>44.1</ele>
        <time>2020-08-13T14:59:45Z</time>
      </trkpt>
      <trkpt lat="48.79332" lon="-3.0354">
        <ele>41.7</ele>
        <time>2020-08-13T14:59:51Z</time>
      </trkpt>
      <trkpt lat="48.79305" lon="-3.03552">
        <ele>41.5</ele>
        <time>2020-08-13T14:59:58Z</time>
      </trkpt>
      <trkpt lat="48.79287" lon="-3.0355">
        <ele>40.7</ele>
        <time>2020-08-13T15:00:04Z</time>
      </trkpt>
      <trkpt lat="48.7928" lon="-3.0355">
        <ele>40.4</ele>
        <time>2020-08-13T15:00:08Z</time>
      </trkpt>
      <trkpt lat="48.7928" lon="-3.0355">
        <ele>40.4</ele>
        <time>2020-08-13T15:00:09Z</time>
      </trkpt>
      <trkpt lat="48.79276" lon="-3.03555">
        <ele>40.3</ele>
        <time>2020-08-13T15:00:25Z</time>
      </trkpt>
      <trkpt lat="48.79273" lon="-3.03541">
        <ele>40.2</ele>
        <time>2020-08-13T15:01:33Z</time>
      </trkpt>
      <trkpt lat="48.79269" lon="-3.03536">
        <ele>40</ele>
        <time>2020-08-13T15:01:35Z</time>
      </trkpt>
      <trkpt lat="48.79247" lon="-3.03518">
        <ele>37.6</ele>
        <time>2020-08-13T15:01:44Z</time>
      </trkpt>
      <trkpt lat="48.79242" lon="-3.03517">
        <ele>37.6</ele>
        <time>2020-08-13T15:01:49Z</time>
      </trkpt>
      <trkpt lat="48.79242" lon="-3.03517">
        <ele>37.6</ele>
        <time>2020-08-13T15:01:50Z</time>
      </trkpt>
      <trkpt lat="48.79252" lon="-3.03523">
        <ele>39.4</ele>
        <time>2020-08-13T15:02:03Z</time>
      </trkpt>
      <trkpt lat="48.79269" lon="-3.03536">
        <ele>40</ele>
        <time>2020-08-13T15:02:10Z</time>
      </trkpt>
      <trkpt lat="48.79278" lon="-3.03548">
        <ele>40.4</ele>
        <time>2020-08-13T15:02:16Z</time>
      </trkpt>
      <trkpt lat="48.7928" lon="-3.03553">
        <ele>40.5</ele>
        <time>2020-08-13T15:02:19Z</time>
      </trkpt>
      <trkpt lat="48.79281" lon="-3.03557">
        <ele>40.5</ele>
        <time>2020-08-13T15:02:25Z</time>
      </trkpt>
      <trkpt lat="48.79282" lon="-3.03557">
        <ele>40.5</ele>
        <time>2020-08-13T15:02:28Z</time>
      </trkpt>
      <trkpt lat="48.7928" lon="-3.03566">
        <ele>40.5</ele>
        <time>2020-08-13T15:02:33Z</time>
      </trkpt>
      <trkpt lat="48.79275" lon="-3.03573">
        <ele>40.2</ele>
        <time>2020-08-13T15:02:35Z</time>
      </trkpt>
      <trkpt lat="48.79256" lon="-3.03608">
        <ele>41.5</ele>
        <time>2020-08-13T15:02:41Z</time>
      </trkpt>
      <trkpt lat="48.79249" lon="-3.03624">
        <ele>35.9</ele>
        <time>2020-08-13T15:02:43Z</time>
      </trkpt>
      <trkpt lat="48.79239" lon="-3.03677">
        <ele>36.7</ele>
        <time>2020-08-13T15:02:48Z</time>
      </trkpt>
      <trkpt lat="48.79239" lon="-3.03689">
        <ele>35.6</ele>
        <time>2020-08-13T15:02:49Z</time>
      </trkpt>
      <trkpt lat="48.79242" lon="-3.03782">
        <ele>33.6</ele>
        <time>2020-08-13T15:02:56Z</time>
      </trkpt>
      <trkpt lat="48.79243" lon="-3.03826">
        <ele>34.1</ele>
        <time>2020-08-13T15:02:59Z</time>
      </trkpt>
      <trkpt lat="48.79251" lon="-3.03916">
        <ele>26.4</ele>
        <time>2020-08-13T15:03:05Z</time>
      </trkpt>
      <trkpt lat="48.7926" lon="-3.0396">
        <ele>24.1</ele>
        <time>2020-08-13T15:03:08Z</time>
      </trkpt>
      <trkpt lat="48.79271" lon="-3.04049">
        <ele>18.8</ele>
        <time>2020-08-13T15:03:14Z</time>
      </trkpt>
      <trkpt lat="48.79271" lon="-3.04095">
        <ele>17.3</ele>
        <time>2020-08-13T15:03:17Z</time>
      </trkpt>
      <trkpt lat="48.79263" lon="-3.04174">
        <ele>17.6</ele>
        <time>2020-08-13T15:03:22Z</time>
      </trkpt>
      <trkpt lat="48.79244" lon="-3.04255">
        <ele>16.7</ele>
        <time>2020-08-13T15:03:28Z</time>
      </trkpt>
      <trkpt lat="48.79221" lon="-3.04337">
        <ele>15.9</ele>
        <time>2020-08-13T15:03:35Z</time>
      </trkpt>
      <trkpt lat="48.79201" lon="-3.04408">
        <ele>15.2</ele>
        <time>2020-08-13T15:03:42Z</time>
      </trkpt>
      <trkpt lat="48.79178" lon="-3.04494">
        <ele>14.7</ele>
        <time>2020-08-13T15:03:52Z</time>
      </trkpt>
      <trkpt lat="48.79155" lon="-3.04578">
        <ele>14.6</ele>
        <time>2020-08-13T15:04:03Z</time>
      </trkpt>
      <trkpt lat="48.79139" lon="-3.04641">
        <ele>15.2</ele>
        <time>2020-08-13T15:04:11Z</time>
      </trkpt>
      <trkpt lat="48.79119" lon="-3.04713">
        <ele>15.2</ele>
        <time>2020-08-13T15:04:20Z</time>
      </trkpt>
      <trkpt lat="48.79101" lon="-3.04776">
        <ele>16.1</ele>
        <time>2020-08-13T15:04:29Z</time>
      </trkpt>
      <trkpt lat="48.79084" lon="-3.04812">
        <ele>16.7</ele>
        <time>2020-08-13T15:04:36Z</time>
      </trkpt>
      <trkpt lat="48.79061" lon="-3.04853">
        <ele>18.1</ele>
        <time>2020-08-13T15:04:46Z</time>
      </trkpt>
      <trkpt lat="48.79041" lon="-3.0488">
        <ele>18.6</ele>
        <time>2020-08-13T15:04:54Z</time>
      </trkpt>
      <trkpt lat="48.79027" lon="-3.04899">
        <ele>18.9</ele>
        <time>2020-08-13T15:05:01Z</time>
      </trkpt>
      <trkpt lat="48.79021" lon="-3.04909">
        <ele>19.1</ele>
        <time>2020-08-13T15:05:07Z</time>
      </trkpt>
      <trkpt lat="48.79005" lon="-3.04914">
        <ele>19.7</ele>
        <time>2020-08-13T15:05:13Z</time>
      </trkpt>
      <trkpt lat="48.78983" lon="-3.04924">
        <ele>21</ele>
        <time>2020-08-13T15:05:20Z</time>
      </trkpt>
      <trkpt lat="48.78948" lon="-3.04935">
        <ele>21.7</ele>
        <time>2020-08-13T15:05:30Z</time>
      </trkpt>
      <trkpt lat="48.78912" lon="-3.04938">
        <ele>20.4</ele>
        <time>2020-08-13T15:05:39Z</time>
      </trkpt>
      <trkpt lat="48.78876" lon="-3.04932">
        <ele>19</ele>
        <time>2020-08-13T15:05:46Z</time>
      </trkpt>
      <trkpt lat="48.78838" lon="-3.04921">
        <ele>16.7</ele>
        <time>2020-08-13T15:05:52Z</time>
      </trkpt>
      <trkpt lat="48.78791" lon="-3.04908">
        <ele>13.8</ele>
        <time>2020-08-13T15:05:58Z</time>
      </trkpt>
      <trkpt lat="48.78728" lon="-3.04895">
        <ele>9.9</ele>
        <time>2020-08-13T15:06:05Z</time>
      </trkpt>
      <trkpt lat="48.78719" lon="-3.04893">
        <ele>9.8</ele>
        <time>2020-08-13T15:06:06Z</time>
      </trkpt>
      <trkpt lat="48.78665" lon="-3.0489">
        <ele>8.9</ele>
        <time>2020-08-13T15:06:12Z</time>
      </trkpt>
      <trkpt lat="48.78628" lon="-3.04892">
        <ele>9</ele>
        <time>2020-08-13T15:06:17Z</time>
      </trkpt>
      <trkpt lat="48.78599" lon="-3.04892">
        <ele>9.1</ele>
        <time>2020-08-13T15:06:22Z</time>
      </trkpt>
      <trkpt lat="48.78573" lon="-3.04889">
        <ele>10</ele>
        <time>2020-08-13T15:06:28Z</time>
      </trkpt>
      <trkpt lat="48.78545" lon="-3.04885">
        <ele>10.5</ele>
        <time>2020-08-13T15:06:36Z</time>
      </trkpt>
      <trkpt lat="48.78531" lon="-3.04883">
        <ele>10.6</ele>
        <time>2020-08-13T15:06:41Z</time>
      </trkpt>
      <trkpt lat="48.78508" lon="-3.04882">
        <ele>10.9</ele>
        <time>2020-08-13T15:06:49Z</time>
      </trkpt>
      <trkpt lat="48.78489" lon="-3.04879">
        <ele>11.5</ele>
        <time>2020-08-13T15:06:56Z</time>
      </trkpt>
      <trkpt lat="48.78457" lon="-3.04875">
        <ele>11.5</ele>
        <time>2020-08-13T15:07:06Z</time>
      </trkpt>
      <trkpt lat="48.78437" lon="-3.0487">
        <ele>11.5</ele>
        <time>2020-08-13T15:07:13Z</time>
      </trkpt>
      <trkpt lat="48.78408" lon="-3.04861">
        <ele>10.6</ele>
        <time>2020-08-13T15:07:23Z</time>
      </trkpt>
      <trkpt lat="48.78379" lon="-3.04852">
        <ele>10.1</ele>
        <time>2020-08-13T15:07:30Z</time>
      </trkpt>
      <trkpt lat="48.78349" lon="-3.04842">
        <ele>9.2</ele>
        <time>2020-08-13T15:07:37Z</time>
      </trkpt>
      <trkpt lat="48.78322" lon="-3.04833">
        <ele>7.9</ele>
        <time>2020-08-13T15:07:43Z</time>
      </trkpt>
      <trkpt lat="48.78304" lon="-3.04835">
        <ele>7.8</ele>
        <time>2020-08-13T15:07:47Z</time>
      </trkpt>
      <trkpt lat="48.78295" lon="-3.04839">
        <ele>7.7</ele>
        <time>2020-08-13T15:07:49Z</time>
      </trkpt>
      <trkpt lat="48.78273" lon="-3.04834">
        <ele>7.2</ele>
        <time>2020-08-13T15:07:54Z</time>
      </trkpt>
      <trkpt lat="48.78266" lon="-3.04819">
        <ele>7</ele>
        <time>2020-08-13T15:07:57Z</time>
      </trkpt>
      <trkpt lat="48.78267" lon="-3.04793">
        <ele>7.4</ele>
        <time>2020-08-13T15:08:01Z</time>
      </trkpt>
      <trkpt lat="48.78264" lon="-3.04764">
        <ele>7.4</ele>
        <time>2020-08-13T15:08:06Z</time>
      </trkpt>
      <trkpt lat="48.78257" lon="-3.04725">
        <ele>7.5</ele>
        <time>2020-08-13T15:08:13Z</time>
      </trkpt>
      <trkpt lat="48.78256" lon="-3.04674">
        <ele>7.2</ele>
        <time>2020-08-13T15:08:22Z</time>
      </trkpt>
      <trkpt lat="48.78255" lon="-3.04627">
        <ele>6.8</ele>
        <time>2020-08-13T15:08:31Z</time>
      </trkpt>
      <trkpt lat="48.78252" lon="-3.04581">
        <ele>7.8</ele>
        <time>2020-08-13T15:08:40Z</time>
      </trkpt>
      <trkpt lat="48.78239" lon="-3.04546">
        <ele>7.2</ele>
        <time>2020-08-13T15:08:48Z</time>
      </trkpt>
      <trkpt lat="48.78221" lon="-3.04517">
        <ele>6.9</ele>
        <time>2020-08-13T15:08:56Z</time>
      </trkpt>
      <trkpt lat="48.78207" lon="-3.0451">
        <ele>6.7</ele>
        <time>2020-08-13T15:09:02Z</time>
      </trkpt>
      <trkpt lat="48.78195" lon="-3.04501">
        <ele>6.3</ele>
        <time>2020-08-13T15:09:09Z</time>
      </trkpt>
      <trkpt lat="48.78202" lon="-3.04479">
        <ele>4.6</ele>
        <time>2020-08-13T15:09:16Z</time>
      </trkpt>
      <trkpt lat="48.78215" lon="-3.04464">
        <ele>4.4</ele>
        <time>2020-08-13T15:09:22Z</time>
      </trkpt>
      <trkpt lat="48.78232" lon="-3.04452">
        <ele>4.3</ele>
        <time>2020-08-13T15:09:29Z</time>
      </trkpt>
      <trkpt lat="48.78257" lon="-3.04438">
        <ele>4</ele>
        <time>2020-08-13T15:09:38Z</time>
      </trkpt>
      <trkpt lat="48.78274" lon="-3.04431">
        <ele>4</ele>
        <time>2020-08-13T15:09:45Z</time>
      </trkpt>
      <trkpt lat="48.78284" lon="-3.04419">
        <ele>3.9</ele>
        <time>2020-08-13T15:09:51Z</time>
      </trkpt>
      <trkpt lat="48.78296" lon="-3.04412">
        <ele>2.7</ele>
        <time>2020-08-13T15:09:57Z</time>
      </trkpt>
      <trkpt lat="48.78311" lon="-3.04407">
        <ele>2.7</ele>
        <time>2020-08-13T15:10:04Z</time>
      </trkpt>
      <trkpt lat="48.78328" lon="-3.04403">
        <ele>2.7</ele>
        <time>2020-08-13T15:10:12Z</time>
      </trkpt>
      <trkpt lat="48.7834" lon="-3.04409">
        <ele>2.5</ele>
        <time>2020-08-13T15:10:18Z</time>
      </trkpt>
      <trkpt lat="48.7835" lon="-3.04408">
        <ele>2.2</ele>
        <time>2020-08-13T15:10:24Z</time>
      </trkpt>
      <trkpt lat="48.78353" lon="-3.04406">
        <ele>2.1</ele>
        <time>2020-08-13T15:10:28Z</time>
      </trkpt>
      <trkpt lat="48.78347" lon="-3.04407">
        <ele>2.2</ele>
        <time>2020-08-13T15:16:33Z</time>
      </trkpt>
      <trkpt lat="48.78347" lon="-3.04407">
        <ele>2.2</ele>
        <time>2020-08-13T15:16:34Z</time>
      </trkpt>
      <trkpt lat="48.78345" lon="-3.04409">
        <ele>2.3</ele>
        <time>2020-08-13T15:16:43Z</time>
      </trkpt>
      <trkpt lat="48.78349" lon="-3.04406">
        <ele>2.2</ele>
        <time>2020-08-13T15:17:53Z</time>
      </trkpt>
      <trkpt lat="48.78347" lon="-3.04404">
        <ele>2.2</ele>
        <time>2020-08-13T15:17:59Z</time>
      </trkpt>
      <trkpt lat="48.78347" lon="-3.04403">
        <ele>2.1</ele>
        <time>2020-08-13T15:18:02Z</time>
      </trkpt>
      <trkpt lat="48.78336" lon="-3.04403">
        <ele>2.3</ele>
        <time>2020-08-13T15:23:25Z</time>
      </trkpt>
      <trkpt lat="48.78326" lon="-3.04393">
        <ele>2.6</ele>
        <time>2020-08-13T15:23:31Z</time>
      </trkpt>
      <trkpt lat="48.7832" lon="-3.04382">
        <ele>2.4</ele>
        <time>2020-08-13T15:23:37Z</time>
      </trkpt>
      <trkpt lat="48.78319" lon="-3.04382">
        <ele>2.4</ele>
        <time>2020-08-13T15:23:38Z</time>
      </trkpt>
      <trkpt lat="48.78316" lon="-3.04373">
        <ele>2.3</ele>
        <time>2020-08-13T15:23:51Z</time>
      </trkpt>
      <trkpt lat="48.78314" lon="-3.04364">
        <ele>2.2</ele>
        <time>2020-08-13T15:23:59Z</time>
      </trkpt>
      <trkpt lat="48.78312" lon="-3.04365">
        <ele>2.3</ele>
        <time>2020-08-13T15:24:04Z</time>
      </trkpt>
      <trkpt lat="48.78314" lon="-3.04365">
        <ele>2.2</ele>
        <time>2020-08-13T15:26:00Z</time>
      </trkpt>
      <trkpt lat="48.7831" lon="-3.0435">
        <ele>2.1</ele>
        <time>2020-08-13T15:26:11Z</time>
      </trkpt>
      <trkpt lat="48.78305" lon="-3.04338">
        <ele>2.1</ele>
        <time>2020-08-13T15:26:21Z</time>
      </trkpt>
      <trkpt lat="48.78303" lon="-3.04331">
        <ele>2.1</ele>
        <time>2020-08-13T15:26:27Z</time>
      </trkpt>
      <trkpt lat="48.78301" lon="-3.0433">
        <ele>2.1</ele>
        <time>2020-08-13T15:26:31Z</time>
      </trkpt>
      <trkpt lat="48.783" lon="-3.04328">
        <ele>2.2</ele>
        <time>2020-08-13T15:26:41Z</time>
      </trkpt>
      <trkpt lat="48.78297" lon="-3.0432">
        <ele>2.3</ele>
        <time>2020-08-13T15:26:50Z</time>
      </trkpt>
      <trkpt lat="48.78293" lon="-3.04313">
        <ele>2.4</ele>
        <time>2020-08-13T15:26:57Z</time>
      </trkpt>
      <trkpt lat="48.78292" lon="-3.04303">
        <ele>2.4</ele>
        <time>2020-08-13T15:27:07Z</time>
      </trkpt>
      <trkpt lat="48.7829" lon="-3.04296">
        <ele>2.5</ele>
        <time>2020-08-13T15:27:16Z</time>
      </trkpt>
      <trkpt lat="48.78287" lon="-3.04286">
        <ele>2.6</ele>
        <time>2020-08-13T15:27:23Z</time>
      </trkpt>
      <trkpt lat="48.78281" lon="-3.04264">
        <ele>2.8</ele>
        <time>2020-08-13T15:27:30Z</time>
      </trkpt>
      <trkpt lat="48.78279" lon="-3.04252">
        <ele>2.9</ele>
        <time>2020-08-13T15:27:35Z</time>
      </trkpt>
      <trkpt lat="48.78277" lon="-3.04254">
        <ele>3</ele>
        <time>2020-08-13T15:27:39Z</time>
      </trkpt>
      <trkpt lat="48.78279" lon="-3.04255">
        <ele>2.9</ele>
        <time>2020-08-13T15:27:43Z</time>
      </trkpt>
      <trkpt lat="48.78281" lon="-3.04254">
        <ele>2.9</ele>
        <time>2020-08-13T15:27:50Z</time>
      </trkpt>
      <trkpt lat="48.78281" lon="-3.04253">
        <ele>2.9</ele>
        <time>2020-08-13T15:27:51Z</time>
      </trkpt>
      <trkpt lat="48.78279" lon="-3.04246">
        <ele>3.7</ele>
        <time>2020-08-13T15:29:10Z</time>
      </trkpt>
      <trkpt lat="48.78269" lon="-3.04217">
        <ele>3.9</ele>
        <time>2020-08-13T15:29:20Z</time>
      </trkpt>
      <trkpt lat="48.78265" lon="-3.04194">
        <ele>4.1</ele>
        <time>2020-08-13T15:29:27Z</time>
      </trkpt>
      <trkpt lat="48.78258" lon="-3.04188">
        <ele>4.3</ele>
        <time>2020-08-13T15:29:33Z</time>
      </trkpt>
      <trkpt lat="48.78256" lon="-3.04188">
        <ele>4.3</ele>
        <time>2020-08-13T15:29:36Z</time>
      </trkpt>
      <trkpt lat="48.78252" lon="-3.04189">
        <ele>4.3</ele>
        <time>2020-08-13T15:29:46Z</time>
      </trkpt>
      <trkpt lat="48.78251" lon="-3.04188">
        <ele>4.3</ele>
        <time>2020-08-13T15:29:48Z</time>
      </trkpt>
      <trkpt lat="48.78244" lon="-3.04194">
        <ele>4.6</ele>
        <time>2020-08-13T15:32:10Z</time>
      </trkpt>
      <trkpt lat="48.78245" lon="-3.04195">
        <ele>4.6</ele>
        <time>2020-08-13T15:32:12Z</time>
      </trkpt>
      <trkpt lat="48.78255" lon="-3.04194">
        <ele>4.2</ele>
        <time>2020-08-13T15:32:22Z</time>
      </trkpt>
      <trkpt lat="48.78257" lon="-3.04194">
        <ele>4.2</ele>
        <time>2020-08-13T15:32:25Z</time>
      </trkpt>
      <trkpt lat="48.78257" lon="-3.04194">
        <ele>4.2</ele>
        <time>2020-08-13T15:45:28Z</time>
      </trkpt>
      <trkpt lat="48.78256" lon="-3.04194">
        <ele>4.2</ele>
        <time>2020-08-13T15:45:31Z</time>
      </trkpt>
      <trkpt lat="48.78241" lon="-3.04196">
        <ele>4.6</ele>
        <time>2020-08-13T15:45:43Z</time>
      </trkpt>
      <trkpt lat="48.78226" lon="-3.04198">
        <ele>4.6</ele>
        <time>2020-08-13T15:45:50Z</time>
      </trkpt>
      <trkpt lat="48.78212" lon="-3.04201">
        <ele>4.5</ele>
        <time>2020-08-13T15:45:56Z</time>
      </trkpt>
      <trkpt lat="48.78194" lon="-3.04209">
        <ele>4.5</ele>
        <time>2020-08-13T15:46:04Z</time>
      </trkpt>
      <trkpt lat="48.78176" lon="-3.04218">
        <ele>4.4</ele>
        <time>2020-08-13T15:46:12Z</time>
      </trkpt>
      <trkpt lat="48.7816" lon="-3.04229">
        <ele>5.1</ele>
        <time>2020-08-13T15:46:19Z</time>
      </trkpt>
      <trkpt lat="48.7814" lon="-3.04238">
        <ele>5.4</ele>
        <time>2020-08-13T15:46:28Z</time>
      </trkpt>
      <trkpt lat="48.78125" lon="-3.04245">
        <ele>5.6</ele>
        <time>2020-08-13T15:46:34Z</time>
      </trkpt>
      <trkpt lat="48.78101" lon="-3.04255">
        <ele>5.1</ele>
        <time>2020-08-13T15:46:42Z</time>
      </trkpt>
      <trkpt lat="48.78086" lon="-3.04262">
        <ele>5.3</ele>
        <time>2020-08-13T15:46:48Z</time>
      </trkpt>
      <trkpt lat="48.78076" lon="-3.04267">
        <ele>5.5</ele>
        <time>2020-08-13T15:46:53Z</time>
      </trkpt>
      <trkpt lat="48.78072" lon="-3.04268">
        <ele>5.4</ele>
        <time>2020-08-13T15:46:56Z</time>
      </trkpt>
      <trkpt lat="48.7807" lon="-3.04262">
        <ele>5.5</ele>
        <time>2020-08-13T15:47:00Z</time>
      </trkpt>
      <trkpt lat="48.78069" lon="-3.04259">
        <ele>5.6</ele>
        <time>2020-08-13T15:47:04Z</time>
      </trkpt>
      <trkpt lat="48.78067" lon="-3.04259">
        <ele>5.5</ele>
        <time>2020-08-13T15:47:14Z</time>
      </trkpt>
      <trkpt lat="48.78062" lon="-3.04274">
        <ele>5.3</ele>
        <time>2020-08-13T16:04:31Z</time>
      </trkpt>
      <trkpt lat="48.78062" lon="-3.04285">
        <ele>5.1</ele>
        <time>2020-08-13T16:04:38Z</time>
      </trkpt>
      <trkpt lat="48.7806" lon="-3.04285">
        <ele>5.1</ele>
        <time>2020-08-13T16:04:39Z</time>
      </trkpt>
      <trkpt lat="48.78045" lon="-3.04285">
        <ele>5.1</ele>
        <time>2020-08-13T16:04:47Z</time>
      </trkpt>
      <trkpt lat="48.78035" lon="-3.04288">
        <ele>5.1</ele>
        <time>2020-08-13T16:04:53Z</time>
      </trkpt>
      <trkpt lat="48.78017" lon="-3.0429">
        <ele>5</ele>
        <time>2020-08-13T16:05:02Z</time>
      </trkpt>
      <trkpt lat="48.77996" lon="-3.04289">
        <ele>5.6</ele>
        <time>2020-08-13T16:05:12Z</time>
      </trkpt>
      <trkpt lat="48.77974" lon="-3.0429">
        <ele>5.7</ele>
        <time>2020-08-13T16:05:20Z</time>
      </trkpt>
      <trkpt lat="48.77947" lon="-3.0429">
        <ele>5.9</ele>
        <time>2020-08-13T16:05:29Z</time>
      </trkpt>
      <trkpt lat="48.77941" lon="-3.04292">
        <ele>5.9</ele>
        <time>2020-08-13T16:05:31Z</time>
      </trkpt>
      <trkpt lat="48.77935" lon="-3.04309">
        <ele>5.8</ele>
        <time>2020-08-13T16:05:35Z</time>
      </trkpt>
      <trkpt lat="48.77935" lon="-3.04349">
        <ele>5.2</ele>
        <time>2020-08-13T16:05:43Z</time>
      </trkpt>
      <trkpt lat="48.77937" lon="-3.0439">
        <ele>5.3</ele>
        <time>2020-08-13T16:05:52Z</time>
      </trkpt>
      <trkpt lat="48.77937" lon="-3.04425">
        <ele>6.5</ele>
        <time>2020-08-13T16:06:00Z</time>
      </trkpt>
      <trkpt lat="48.77943" lon="-3.04444">
        <ele>6.5</ele>
        <time>2020-08-13T16:06:06Z</time>
      </trkpt>
      <trkpt lat="48.77953" lon="-3.04452">
        <ele>6.5</ele>
        <time>2020-08-13T16:06:12Z</time>
      </trkpt>
      <trkpt lat="48.77965" lon="-3.04451">
        <ele>6.3</ele>
        <time>2020-08-13T16:06:18Z</time>
      </trkpt>
      <trkpt lat="48.77983" lon="-3.0445">
        <ele>5.9</ele>
        <time>2020-08-13T16:06:25Z</time>
      </trkpt>
      <trkpt lat="48.78012" lon="-3.04449">
        <ele>4.6</ele>
        <time>2020-08-13T16:06:36Z</time>
      </trkpt>
      <trkpt lat="48.78031" lon="-3.04454">
        <ele>4.7</ele>
        <time>2020-08-13T16:06:45Z</time>
      </trkpt>
      <trkpt lat="48.78042" lon="-3.04464">
        <ele>4.9</ele>
        <time>2020-08-13T16:06:53Z</time>
      </trkpt>
      <trkpt lat="48.78051" lon="-3.0447">
        <ele>4.9</ele>
        <time>2020-08-13T16:07:00Z</time>
      </trkpt>
      <trkpt lat="48.78052" lon="-3.04471">
        <ele>4.9</ele>
        <time>2020-08-13T16:07:03Z</time>
      </trkpt>
      <trkpt lat="48.78052" lon="-3.04468">
        <ele>4.8</ele>
        <time>2020-08-13T16:07:26Z</time>
      </trkpt>
      <trkpt lat="48.7806" lon="-3.04455">
        <ele>4.5</ele>
        <time>2020-08-13T16:07:35Z</time>
      </trkpt>
      <trkpt lat="48.78069" lon="-3.04446">
        <ele>4.3</ele>
        <time>2020-08-13T16:07:42Z</time>
      </trkpt>
      <trkpt lat="48.7807" lon="-3.04446">
        <ele>4.3</ele>
        <time>2020-08-13T16:07:43Z</time>
      </trkpt>
      <trkpt lat="48.7807" lon="-3.04443">
        <ele>4.2</ele>
        <time>2020-08-13T16:07:50Z</time>
      </trkpt>
      <trkpt lat="48.78066" lon="-3.04464">
        <ele>4.7</ele>
        <time>2020-08-13T16:17:26Z</time>
      </trkpt>
      <trkpt lat="48.78065" lon="-3.04465">
        <ele>4.7</ele>
        <time>2020-08-13T16:17:32Z</time>
      </trkpt>
      <trkpt lat="48.78064" lon="-3.04465">
        <ele>4.7</ele>
        <time>2020-08-13T16:17:37Z</time>
      </trkpt>
      <trkpt lat="48.78056" lon="-3.04463">
        <ele>4.7</ele>
        <time>2020-08-13T16:17:45Z</time>
      </trkpt>
      <trkpt lat="48.78049" lon="-3.04463">
        <ele>4.8</ele>
        <time>2020-08-13T16:17:53Z</time>
      </trkpt>
      <trkpt lat="48.78043" lon="-3.04462">
        <ele>4.8</ele>
        <time>2020-08-13T16:17:59Z</time>
      </trkpt>
      <trkpt lat="48.78036" lon="-3.04459">
        <ele>4.8</ele>
        <time>2020-08-13T16:18:07Z</time>
      </trkpt>
      <trkpt lat="48.78034" lon="-3.04462">
        <ele>4.9</ele>
        <time>2020-08-13T16:18:14Z</time>
      </trkpt>
      <trkpt lat="48.7803" lon="-3.04463">
        <ele>5</ele>
        <time>2020-08-13T16:18:21Z</time>
      </trkpt>
      <trkpt lat="48.78027" lon="-3.04472">
        <ele>5.3</ele>
        <time>2020-08-13T16:18:33Z</time>
      </trkpt>
      <trkpt lat="48.78028" lon="-3.04473">
        <ele>5.3</ele>
        <time>2020-08-13T16:18:37Z</time>
      </trkpt>
      <trkpt lat="48.78029" lon="-3.04477">
        <ele>5.4</ele>
        <time>2020-08-13T16:18:42Z</time>
      </trkpt>
      <trkpt lat="48.78028" lon="-3.04484">
        <ele>5.6</ele>
        <time>2020-08-13T16:18:47Z</time>
      </trkpt>
      <trkpt lat="48.78029" lon="-3.04491">
        <ele>5.7</ele>
        <time>2020-08-13T16:18:53Z</time>
      </trkpt>
      <trkpt lat="48.78029" lon="-3.04505">
        <ele>7.4</ele>
        <time>2020-08-13T16:19:03Z</time>
      </trkpt>
      <trkpt lat="48.78029" lon="-3.04508">
        <ele>7.4</ele>
        <time>2020-08-13T16:19:06Z</time>
      </trkpt>
      <trkpt lat="48.78028" lon="-3.04512">
        <ele>7.5</ele>
        <time>2020-08-13T16:19:15Z</time>
      </trkpt>
      <trkpt lat="48.78028" lon="-3.04512">
        <ele>7.5</ele>
        <time>2020-08-13T16:19:16Z</time>
      </trkpt>
      <trkpt lat="48.78031" lon="-3.04527">
        <ele>7.5</ele>
        <time>2020-08-13T16:20:17Z</time>
      </trkpt>
      <trkpt lat="48.78036" lon="-3.04532">
        <ele>7.5</ele>
        <time>2020-08-13T16:20:24Z</time>
      </trkpt>
      <trkpt lat="48.78041" lon="-3.04538">
        <ele>7.5</ele>
        <time>2020-08-13T16:20:29Z</time>
      </trkpt>
      <trkpt lat="48.78042" lon="-3.04547">
        <ele>7.6</ele>
        <time>2020-08-13T16:20:37Z</time>
      </trkpt>
      <trkpt lat="48.78042" lon="-3.04553">
        <ele>7.6</ele>
        <time>2020-08-13T16:20:42Z</time>
      </trkpt>
      <trkpt lat="48.78042" lon="-3.04559">
        <ele>7.7</ele>
        <time>2020-08-13T16:20:47Z</time>
      </trkpt>
      <trkpt lat="48.78043" lon="-3.04561">
        <ele>7.7</ele>
        <time>2020-08-13T16:20:48Z</time>
      </trkpt>
      <trkpt lat="48.78039" lon="-3.04573">
        <ele>7.9</ele>
        <time>2020-08-13T16:20:55Z</time>
      </trkpt>
      <trkpt lat="48.78037" lon="-3.04583">
        <ele>7.9</ele>
        <time>2020-08-13T16:21:02Z</time>
      </trkpt>
      <trkpt lat="48.78033" lon="-3.04589">
        <ele>8.7</ele>
        <time>2020-08-13T16:21:09Z</time>
      </trkpt>
      <trkpt lat="48.78032" lon="-3.0459">
        <ele>8.8</ele>
        <time>2020-08-13T16:21:10Z</time>
      </trkpt>
      <trkpt lat="48.78028" lon="-3.04604">
        <ele>8.8</ele>
        <time>2020-08-13T16:21:18Z</time>
      </trkpt>
      <trkpt lat="48.78026" lon="-3.04612">
        <ele>8.8</ele>
        <time>2020-08-13T16:21:24Z</time>
      </trkpt>
      <trkpt lat="48.78023" lon="-3.04622">
        <ele>8.9</ele>
        <time>2020-08-13T16:21:31Z</time>
      </trkpt>
      <trkpt lat="48.78021" lon="-3.04625">
        <ele>8.9</ele>
        <time>2020-08-13T16:21:34Z</time>
      </trkpt>
      <trkpt lat="48.78012" lon="-3.04634">
        <ele>9.1</ele>
        <time>2020-08-13T16:21:43Z</time>
      </trkpt>
      <trkpt lat="48.78006" lon="-3.04639">
        <ele>9.2</ele>
        <time>2020-08-13T16:21:48Z</time>
      </trkpt>
      <trkpt lat="48.77997" lon="-3.04646">
        <ele>9.6</ele>
        <time>2020-08-13T16:21:56Z</time>
      </trkpt>
      <trkpt lat="48.77996" lon="-3.04652">
        <ele>9.6</ele>
        <time>2020-08-13T16:22:02Z</time>
      </trkpt>
      <trkpt lat="48.77994" lon="-3.04656">
        <ele>9.7</ele>
        <time>2020-08-13T16:22:29Z</time>
      </trkpt>
      <trkpt lat="48.77992" lon="-3.04654">
        <ele>9.6</ele>
        <time>2020-08-13T16:22:35Z</time>
      </trkpt>
      <trkpt lat="48.77991" lon="-3.04652">
        <ele>9.6</ele>
        <time>2020-08-13T16:22:39Z</time>
      </trkpt>
      <trkpt lat="48.77986" lon="-3.04643">
        <ele>9.5</ele>
        <time>2020-08-13T16:22:56Z</time>
      </trkpt>
      <trkpt lat="48.77982" lon="-3.04641">
        <ele>9.4</ele>
        <time>2020-08-13T16:23:04Z</time>
      </trkpt>
      <trkpt lat="48.77985" lon="-3.04628">
        <ele>9.3</ele>
        <time>2020-08-13T16:23:36Z</time>
      </trkpt>
      <trkpt lat="48.77985" lon="-3.04629">
        <ele>9.4</ele>
        <time>2020-08-13T16:23:38Z</time>
      </trkpt>
      <trkpt lat="48.77981" lon="-3.04629">
        <ele>9.3</ele>
        <time>2020-08-13T16:23:42Z</time>
      </trkpt>
      <trkpt lat="48.77969" lon="-3.04628">
        <ele>9.3</ele>
        <time>2020-08-13T16:23:49Z</time>
      </trkpt>
      <trkpt lat="48.77968" lon="-3.04632">
        <ele>9.3</ele>
        <time>2020-08-13T16:23:55Z</time>
      </trkpt>
      <trkpt lat="48.77968" lon="-3.04632">
        <ele>9.3</ele>
        <time>2020-08-13T16:23:57Z</time>
      </trkpt>
      <trkpt lat="48.77962" lon="-3.04633">
        <ele>9.3</ele>
        <time>2020-08-13T16:24:03Z</time>
      </trkpt>
      <trkpt lat="48.77961" lon="-3.04632">
        <ele>9.3</ele>
        <time>2020-08-13T16:24:04Z</time>
      </trkpt>
      <trkpt lat="48.77951" lon="-3.04629">
        <ele>9.2</ele>
        <time>2020-08-13T16:24:16Z</time>
      </trkpt>
      <trkpt lat="48.77944" lon="-3.04626">
        <ele>9.2</ele>
        <time>2020-08-13T16:24:23Z</time>
      </trkpt>
      <trkpt lat="48.7794" lon="-3.04625">
        <ele>9.2</ele>
        <time>2020-08-13T16:24:27Z</time>
      </trkpt>
      <trkpt lat="48.77938" lon="-3.04622">
        <ele>9.2</ele>
        <time>2020-08-13T16:24:33Z</time>
      </trkpt>
      <trkpt lat="48.77931" lon="-3.04617">
        <ele>9.2</ele>
        <time>2020-08-13T16:25:19Z</time>
      </trkpt>
      <trkpt lat="48.77934" lon="-3.04605">
        <ele>9.1</ele>
        <time>2020-08-13T16:25:30Z</time>
      </trkpt>
      <trkpt lat="48.77937" lon="-3.04593">
        <ele>9.1</ele>
        <time>2020-08-13T16:25:39Z</time>
      </trkpt>
      <trkpt lat="48.77939" lon="-3.04585">
        <ele>9.1</ele>
        <time>2020-08-13T16:25:46Z</time>
      </trkpt>
      <trkpt lat="48.77939" lon="-3.04583">
        <ele>8.7</ele>
        <time>2020-08-13T16:25:50Z</time>
      </trkpt>
      <trkpt lat="48.77938" lon="-3.04574">
        <ele>8.7</ele>
        <time>2020-08-13T16:25:58Z</time>
      </trkpt>
      <trkpt lat="48.77938" lon="-3.0457">
        <ele>8.7</ele>
        <time>2020-08-13T16:26:02Z</time>
      </trkpt>
      <trkpt lat="48.7794" lon="-3.04568">
        <ele>8.7</ele>
        <time>2020-08-13T16:26:06Z</time>
      </trkpt>
      <trkpt lat="48.77938" lon="-3.04567">
        <ele>8.7</ele>
        <time>2020-08-13T16:26:19Z</time>
      </trkpt>
      <trkpt lat="48.77938" lon="-3.04557">
        <ele>8.6</ele>
        <time>2020-08-13T16:26:50Z</time>
      </trkpt>
      <trkpt lat="48.7795" lon="-3.04552">
        <ele>8.6</ele>
        <time>2020-08-13T16:30:02Z</time>
      </trkpt>
      <trkpt lat="48.77949" lon="-3.04553">
        <ele>8.6</ele>
        <time>2020-08-13T16:30:06Z</time>
      </trkpt>
      <trkpt lat="48.77948" lon="-3.04555">
        <ele>8.6</ele>
        <time>2020-08-13T16:30:08Z</time>
      </trkpt>
      <trkpt lat="48.77948" lon="-3.04563">
        <ele>8.6</ele>
        <time>2020-08-13T16:30:15Z</time>
      </trkpt>
      <trkpt lat="48.77948" lon="-3.04567">
        <ele>8.6</ele>
        <time>2020-08-13T16:30:20Z</time>
      </trkpt>
      <trkpt lat="48.77951" lon="-3.04574">
        <ele>8.7</ele>
        <time>2020-08-13T16:30:24Z</time>
      </trkpt>
      <trkpt lat="48.77951" lon="-3.04577">
        <ele>8.7</ele>
        <time>2020-08-13T16:30:26Z</time>
      </trkpt>
      <trkpt lat="48.77947" lon="-3.04587">
        <ele>9.1</ele>
        <time>2020-08-13T16:30:33Z</time>
      </trkpt>
      <trkpt lat="48.77944" lon="-3.04591">
        <ele>9.1</ele>
        <time>2020-08-13T16:30:39Z</time>
      </trkpt>
      <trkpt lat="48.77938" lon="-3.046">
        <ele>9.1</ele>
        <time>2020-08-13T16:30:46Z</time>
      </trkpt>
      <trkpt lat="48.77937" lon="-3.04612">
        <ele>9.2</ele>
        <time>2020-08-13T16:30:55Z</time>
      </trkpt>
      <trkpt lat="48.77933" lon="-3.04618">
        <ele>9.2</ele>
        <time>2020-08-13T16:31:00Z</time>
      </trkpt>
      <trkpt lat="48.77925" lon="-3.04628">
        <ele>9.2</ele>
        <time>2020-08-13T16:31:07Z</time>
      </trkpt>
      <trkpt lat="48.77929" lon="-3.04646">
        <ele>9.2</ele>
        <time>2020-08-13T16:31:21Z</time>
      </trkpt>
      <trkpt lat="48.7793" lon="-3.04654">
        <ele>9.2</ele>
        <time>2020-08-13T16:31:29Z</time>
      </trkpt>
      <trkpt lat="48.77927" lon="-3.04655">
        <ele>9.1</ele>
        <time>2020-08-13T16:31:32Z</time>
      </trkpt>
      <trkpt lat="48.77918" lon="-3.04656">
        <ele>9.1</ele>
        <time>2020-08-13T16:31:38Z</time>
      </trkpt>
      <trkpt lat="48.77916" lon="-3.04658">
        <ele>8.6</ele>
        <time>2020-08-13T16:31:41Z</time>
      </trkpt>
      <trkpt lat="48.77916" lon="-3.04666">
        <ele>8.9</ele>
        <time>2020-08-13T16:31:50Z</time>
      </trkpt>
      <trkpt lat="48.77916" lon="-3.04676">
        <ele>8.6</ele>
        <time>2020-08-13T16:32:05Z</time>
      </trkpt>
      <trkpt lat="48.7791" lon="-3.04681">
        <ele>8.5</ele>
        <time>2020-08-13T16:32:12Z</time>
      </trkpt>
      <trkpt lat="48.77912" lon="-3.04683">
        <ele>8.5</ele>
        <time>2020-08-13T16:32:13Z</time>
      </trkpt>
      <trkpt lat="48.77912" lon="-3.04694">
        <ele>8.4</ele>
        <time>2020-08-13T16:32:23Z</time>
      </trkpt>
      <trkpt lat="48.77909" lon="-3.04696">
        <ele>8.3</ele>
        <time>2020-08-13T16:32:28Z</time>
      </trkpt>
      <trkpt lat="48.77914" lon="-3.04705">
        <ele>8.4</ele>
        <time>2020-08-13T16:32:34Z</time>
      </trkpt>
      <trkpt lat="48.7791" lon="-3.04718">
        <ele>8.5</ele>
        <time>2020-08-13T16:32:50Z</time>
      </trkpt>
      <trkpt lat="48.77903" lon="-3.0472">
        <ele>8.4</ele>
        <time>2020-08-13T16:32:57Z</time>
      </trkpt>
      <trkpt lat="48.77901" lon="-3.04722">
        <ele>8.4</ele>
        <time>2020-08-13T16:33:01Z</time>
      </trkpt>
      <trkpt lat="48.77908" lon="-3.04742">
        <ele>9.1</ele>
        <time>2020-08-13T16:33:16Z</time>
      </trkpt>
      <trkpt lat="48.77911" lon="-3.04749">
        <ele>9.5</ele>
        <time>2020-08-13T16:33:21Z</time>
      </trkpt>
      <trkpt lat="48.77911" lon="-3.04751">
        <ele>9.8</ele>
        <time>2020-08-13T16:33:22Z</time>
      </trkpt>
      <trkpt lat="48.77912" lon="-3.04756">
        <ele>9.8</ele>
        <time>2020-08-13T16:33:26Z</time>
      </trkpt>
      <trkpt lat="48.77911" lon="-3.04763">
        <ele>9.7</ele>
        <time>2020-08-13T16:33:37Z</time>
      </trkpt>
      <trkpt lat="48.77905" lon="-3.04769">
        <ele>9.7</ele>
        <time>2020-08-13T16:33:48Z</time>
      </trkpt>
      <trkpt lat="48.77902" lon="-3.04777">
        <ele>9.7</ele>
        <time>2020-08-13T16:33:55Z</time>
      </trkpt>
      <trkpt lat="48.77898" lon="-3.04779">
        <ele>9.6</ele>
        <time>2020-08-13T16:33:59Z</time>
      </trkpt>
      <trkpt lat="48.77896" lon="-3.04787">
        <ele>9.7</ele>
        <time>2020-08-13T16:34:05Z</time>
      </trkpt>
      <trkpt lat="48.77898" lon="-3.04796">
        <ele>9.9</ele>
        <time>2020-08-13T16:34:12Z</time>
      </trkpt>
      <trkpt lat="48.77901" lon="-3.04804">
        <ele>10.2</ele>
        <time>2020-08-13T16:34:18Z</time>
      </trkpt>
      <trkpt lat="48.77889" lon="-3.0483">
        <ele>10.4</ele>
        <time>2020-08-13T16:37:18Z</time>
      </trkpt>
      <trkpt lat="48.77886" lon="-3.04829">
        <ele>10.2</ele>
        <time>2020-08-13T16:37:23Z</time>
      </trkpt>
      <trkpt lat="48.77879" lon="-3.04827">
        <ele>9.9</ele>
        <time>2020-08-13T16:37:33Z</time>
      </trkpt>
      <trkpt lat="48.77875" lon="-3.04825">
        <ele>9.7</ele>
        <time>2020-08-13T16:37:38Z</time>
      </trkpt>
      <trkpt lat="48.77872" lon="-3.04823">
        <ele>9.5</ele>
        <time>2020-08-13T16:37:42Z</time>
      </trkpt>
      <trkpt lat="48.77867" lon="-3.04822">
        <ele>9.3</ele>
        <time>2020-08-13T16:37:49Z</time>
      </trkpt>
      <trkpt lat="48.77862" lon="-3.04823">
        <ele>9.2</ele>
        <time>2020-08-13T16:37:56Z</time>
      </trkpt>
      <trkpt lat="48.77861" lon="-3.04808">
        <ele>9.1</ele>
        <time>2020-08-13T16:38:03Z</time>
      </trkpt>
      <trkpt lat="48.7786" lon="-3.04792">
        <ele>8.9</ele>
        <time>2020-08-13T16:38:11Z</time>
      </trkpt>
      <trkpt lat="48.77858" lon="-3.04775">
        <ele>8.5</ele>
        <time>2020-08-13T16:38:21Z</time>
      </trkpt>
      <trkpt lat="48.77858" lon="-3.04765">
        <ele>8.3</ele>
        <time>2020-08-13T16:38:29Z</time>
      </trkpt>
      <trkpt lat="48.7786" lon="-3.0475">
        <ele>7.3</ele>
        <time>2020-08-13T16:38:40Z</time>
      </trkpt>
      <trkpt lat="48.77861" lon="-3.04746">
        <ele>7.4</ele>
        <time>2020-08-13T16:38:45Z</time>
      </trkpt>
      <trkpt lat="48.77865" lon="-3.04739">
        <ele>7.5</ele>
        <time>2020-08-13T16:38:52Z</time>
      </trkpt>
      <trkpt lat="48.77871" lon="-3.04724">
        <ele>7.7</ele>
        <time>2020-08-13T16:39:03Z</time>
      </trkpt>
      <trkpt lat="48.77878" lon="-3.04715">
        <ele>7.8</ele>
        <time>2020-08-13T16:39:10Z</time>
      </trkpt>
      <trkpt lat="48.77881" lon="-3.04707">
        <ele>7.9</ele>
        <time>2020-08-13T16:39:17Z</time>
      </trkpt>
      <trkpt lat="48.7789" lon="-3.04692">
        <ele>8</ele>
        <time>2020-08-13T16:40:27Z</time>
      </trkpt>
      <trkpt lat="48.7789" lon="-3.0469">
        <ele>8</ele>
        <time>2020-08-13T16:40:29Z</time>
      </trkpt>
      <trkpt lat="48.7789" lon="-3.0468">
        <ele>8</ele>
        <time>2020-08-13T16:40:40Z</time>
      </trkpt>
      <trkpt lat="48.77888" lon="-3.04673">
        <ele>8</ele>
        <time>2020-08-13T16:41:07Z</time>
      </trkpt>
      <trkpt lat="48.77895" lon="-3.04669">
        <ele>8.2</ele>
        <time>2020-08-13T16:41:47Z</time>
      </trkpt>
      <trkpt lat="48.77895" lon="-3.0467">
        <ele>8.2</ele>
        <time>2020-08-13T16:41:48Z</time>
      </trkpt>
      <trkpt lat="48.77902" lon="-3.04666">
        <ele>8.3</ele>
        <time>2020-08-13T16:42:05Z</time>
      </trkpt>
      <trkpt lat="48.77913" lon="-3.04666">
        <ele>8.8</ele>
        <time>2020-08-13T16:42:26Z</time>
      </trkpt>
      <trkpt lat="48.77917" lon="-3.0466">
        <ele>9.1</ele>
        <time>2020-08-13T16:42:32Z</time>
      </trkpt>
      <trkpt lat="48.77918" lon="-3.04658">
        <ele>9.1</ele>
        <time>2020-08-13T16:42:34Z</time>
      </trkpt>
      <trkpt lat="48.77924" lon="-3.04653">
        <ele>9.1</ele>
        <time>2020-08-13T16:42:40Z</time>
      </trkpt>
      <trkpt lat="48.77927" lon="-3.04642">
        <ele>9.2</ele>
        <time>2020-08-13T16:42:47Z</time>
      </trkpt>
      <trkpt lat="48.77928" lon="-3.0463">
        <ele>9.2</ele>
        <time>2020-08-13T16:42:54Z</time>
      </trkpt>
      <trkpt lat="48.7793" lon="-3.04621">
        <ele>9.2</ele>
        <time>2020-08-13T16:43:00Z</time>
      </trkpt>
      <trkpt lat="48.77931" lon="-3.04618">
        <ele>9.2</ele>
        <time>2020-08-13T16:43:03Z</time>
      </trkpt>
      <trkpt lat="48.77927" lon="-3.04604">
        <ele>9.1</ele>
        <time>2020-08-13T16:43:17Z</time>
      </trkpt>
      <trkpt lat="48.77928" lon="-3.04599">
        <ele>9.1</ele>
        <time>2020-08-13T16:43:23Z</time>
      </trkpt>
      <trkpt lat="48.77928" lon="-3.04595">
        <ele>9.1</ele>
        <time>2020-08-13T16:43:27Z</time>
      </trkpt>
      <trkpt lat="48.77936" lon="-3.0459">
        <ele>9.1</ele>
        <time>2020-08-13T16:44:15Z</time>
      </trkpt>
      <trkpt lat="48.77963" lon="-3.04608">
        <ele>9.2</ele>
        <time>2020-08-13T16:44:55Z</time>
      </trkpt>
      <trkpt lat="48.77973" lon="-3.04606">
        <ele>9.2</ele>
        <time>2020-08-13T16:45:02Z</time>
      </trkpt>
      <trkpt lat="48.77974" lon="-3.0461">
        <ele>9.2</ele>
        <time>2020-08-13T16:45:06Z</time>
      </trkpt>
      <trkpt lat="48.77972" lon="-3.04611">
        <ele>9.2</ele>
        <time>2020-08-13T16:45:46Z</time>
      </trkpt>
      <trkpt lat="48.77972" lon="-3.0461">
        <ele>9.2</ele>
        <time>2020-08-13T16:45:50Z</time>
      </trkpt>
      <trkpt lat="48.77975" lon="-3.04616">
        <ele>9.3</ele>
        <time>2020-08-13T16:45:58Z</time>
      </trkpt>
      <trkpt lat="48.77976" lon="-3.04628">
        <ele>9.3</ele>
        <time>2020-08-13T16:46:16Z</time>
      </trkpt>
      <trkpt lat="48.77977" lon="-3.04629">
        <ele>9.3</ele>
        <time>2020-08-13T16:46:17Z</time>
      </trkpt>
      <trkpt lat="48.77992" lon="-3.04638">
        <ele>9.4</ele>
        <time>2020-08-13T16:46:37Z</time>
      </trkpt>
      <trkpt lat="48.77992" lon="-3.04638">
        <ele>9.4</ele>
        <time>2020-08-13T16:46:38Z</time>
      </trkpt>
      <trkpt lat="48.77997" lon="-3.0464">
        <ele>9.5</ele>
        <time>2020-08-13T16:47:03Z</time>
      </trkpt>
      <trkpt lat="48.78007" lon="-3.04636">
        <ele>9.1</ele>
        <time>2020-08-13T16:47:12Z</time>
      </trkpt>
      <trkpt lat="48.78012" lon="-3.0463">
        <ele>9</ele>
        <time>2020-08-13T16:47:19Z</time>
      </trkpt>
      <trkpt lat="48.78019" lon="-3.04616">
        <ele>8.9</ele>
        <time>2020-08-13T16:47:29Z</time>
      </trkpt>
      <trkpt lat="48.78026" lon="-3.04601">
        <ele>8.8</ele>
        <time>2020-08-13T16:47:40Z</time>
      </trkpt>
      <trkpt lat="48.78027" lon="-3.04593">
        <ele>8.8</ele>
        <time>2020-08-13T16:47:48Z</time>
      </trkpt>
      <trkpt lat="48.78031" lon="-3.04583">
        <ele>8</ele>
        <time>2020-08-13T16:47:57Z</time>
      </trkpt>
      <trkpt lat="48.78033" lon="-3.04574">
        <ele>7.9</ele>
        <time>2020-08-13T16:48:03Z</time>
      </trkpt>
      <trkpt lat="48.78033" lon="-3.04573">
        <ele>7.9</ele>
        <time>2020-08-13T16:48:04Z</time>
      </trkpt>
      <trkpt lat="48.78039" lon="-3.04569">
        <ele>7.8</ele>
        <time>2020-08-13T16:48:13Z</time>
      </trkpt>
      <trkpt lat="48.78041" lon="-3.04559">
        <ele>7.7</ele>
        <time>2020-08-13T16:48:20Z</time>
      </trkpt>
      <trkpt lat="48.78048" lon="-3.0455">
        <ele>7.5</ele>
        <time>2020-08-13T16:48:28Z</time>
      </trkpt>
      <trkpt lat="48.7805" lon="-3.04545">
        <ele>7.4</ele>
        <time>2020-08-13T16:48:32Z</time>
      </trkpt>
      <trkpt lat="48.78052" lon="-3.04538">
        <ele>7.3</ele>
        <time>2020-08-13T16:48:36Z</time>
      </trkpt>
      <trkpt lat="48.78057" lon="-3.0453">
        <ele>7.1</ele>
        <time>2020-08-13T16:48:46Z</time>
      </trkpt>
      <trkpt lat="48.78059" lon="-3.04521">
        <ele>6.9</ele>
        <time>2020-08-13T16:48:53Z</time>
      </trkpt>
      <trkpt lat="48.7806" lon="-3.04515">
        <ele>6.7</ele>
        <time>2020-08-13T16:48:57Z</time>
      </trkpt>
      <trkpt lat="48.78062" lon="-3.04509">
        <ele>6.6</ele>
        <time>2020-08-13T16:49:03Z</time>
      </trkpt>
      <trkpt lat="48.78067" lon="-3.04506">
        <ele>6.3</ele>
        <time>2020-08-13T16:49:19Z</time>
      </trkpt>
      <trkpt lat="48.78059" lon="-3.04498">
        <ele>5.1</ele>
        <time>2020-08-13T16:50:03Z</time>
      </trkpt>
      <trkpt lat="48.78059" lon="-3.04488">
        <ele>5</ele>
        <time>2020-08-13T16:50:13Z</time>
      </trkpt>
      <trkpt lat="48.7806" lon="-3.04483">
        <ele>5</ele>
        <time>2020-08-13T16:50:16Z</time>
      </trkpt>
      <trkpt lat="48.74533" lon="-3.07196">
        <ele>72.6</ele>
        <time>2020-08-14T07:23:09Z</time>
      </trkpt>
      <trkpt lat="48.74532" lon="-3.07209">
        <ele>72.6</ele>
        <time>2020-08-14T07:23:23Z</time>
      </trkpt>
      <trkpt lat="48.74529" lon="-3.07225">
        <ele>72.6</ele>
        <time>2020-08-14T07:23:29Z</time>
      </trkpt>
      <trkpt lat="48.74528" lon="-3.07235">
        <ele>72.6</ele>
        <time>2020-08-14T07:23:31Z</time>
      </trkpt>
      <trkpt lat="48.74524" lon="-3.07271">
        <ele>71.3</ele>
        <time>2020-08-14T07:23:36Z</time>
      </trkpt>
      <trkpt lat="48.74519" lon="-3.07322">
        <ele>69.7</ele>
        <time>2020-08-14T07:23:42Z</time>
      </trkpt>
      <trkpt lat="48.7452" lon="-3.07375">
        <ele>67.6</ele>
        <time>2020-08-14T07:23:47Z</time>
      </trkpt>
      <trkpt lat="48.74527" lon="-3.07456">
        <ele>65.2</ele>
        <time>2020-08-14T07:23:54Z</time>
      </trkpt>
      <trkpt lat="48.74537" lon="-3.07529">
        <ele>62.9</ele>
        <time>2020-08-14T07:24:00Z</time>
      </trkpt>
      <trkpt lat="48.7454" lon="-3.07601">
        <ele>58.8</ele>
        <time>2020-08-14T07:24:05Z</time>
      </trkpt>
      <trkpt lat="48.74541" lon="-3.07679">
        <ele>51.8</ele>
        <time>2020-08-14T07:24:10Z</time>
      </trkpt>
      <trkpt lat="48.74542" lon="-3.07694">
        <ele>51.3</ele>
        <time>2020-08-14T07:24:11Z</time>
      </trkpt>
      <trkpt lat="48.74549" lon="-3.07765">
        <ele>49.9</ele>
        <time>2020-08-14T07:24:17Z</time>
      </trkpt>
      <trkpt lat="48.74549" lon="-3.07775">
        <ele>50.2</ele>
        <time>2020-08-14T07:24:18Z</time>
      </trkpt>
      <trkpt lat="48.74557" lon="-3.07798">
        <ele>51.3</ele>
        <time>2020-08-14T07:24:22Z</time>
      </trkpt>
      <trkpt lat="48.74568" lon="-3.07799">
        <ele>51.6</ele>
        <time>2020-08-14T07:24:26Z</time>
      </trkpt>
      <trkpt lat="48.74583" lon="-3.07805">
        <ele>52.2</ele>
        <time>2020-08-14T07:24:34Z</time>
      </trkpt>
      <trkpt lat="48.74598" lon="-3.07811">
        <ele>55.7</ele>
        <time>2020-08-14T07:24:43Z</time>
      </trkpt>
      <trkpt lat="48.74607" lon="-3.07814">
        <ele>56</ele>
        <time>2020-08-14T07:24:50Z</time>
      </trkpt>
      <trkpt lat="48.74615" lon="-3.07816">
        <ele>56.4</ele>
        <time>2020-08-14T07:24:57Z</time>
      </trkpt>
      <trkpt lat="48.74623" lon="-3.0782">
        <ele>57</ele>
        <time>2020-08-14T07:25:03Z</time>
      </trkpt>
      <trkpt lat="48.74631" lon="-3.07822">
        <ele>57.7</ele>
        <time>2020-08-14T07:25:10Z</time>
      </trkpt>
      <trkpt lat="48.74639" lon="-3.07827">
        <ele>58.7</ele>
        <time>2020-08-14T07:25:17Z</time>
      </trkpt>
      <trkpt lat="48.74649" lon="-3.07829">
        <ele>60.3</ele>
        <time>2020-08-14T07:25:26Z</time>
      </trkpt>
      <trkpt lat="48.74658" lon="-3.07833">
        <ele>62.3</ele>
        <time>2020-08-14T07:25:35Z</time>
      </trkpt>
      <trkpt lat="48.74667" lon="-3.07838">
        <ele>66.2</ele>
        <time>2020-08-14T07:25:45Z</time>
      </trkpt>
      <trkpt lat="48.74677" lon="-3.07842">
        <ele>68</ele>
        <time>2020-08-14T07:25:55Z</time>
      </trkpt>
      <trkpt lat="48.74688" lon="-3.07846">
        <ele>69.6</ele>
        <time>2020-08-14T07:26:06Z</time>
      </trkpt>
      <trkpt lat="48.74697" lon="-3.07853">
        <ele>70.7</ele>
        <time>2020-08-14T07:26:15Z</time>
      </trkpt>
      <trkpt lat="48.74705" lon="-3.07858">
        <ele>71.3</ele>
        <time>2020-08-14T07:26:23Z</time>
      </trkpt>
      <trkpt lat="48.74706" lon="-3.07859">
        <ele>71.4</ele>
        <time>2020-08-14T07:26:25Z</time>
      </trkpt>
      <trkpt lat="48.7471" lon="-3.07867">
        <ele>71.8</ele>
        <time>2020-08-14T07:26:33Z</time>
      </trkpt>
      <trkpt lat="48.74718" lon="-3.07874">
        <ele>72.3</ele>
        <time>2020-08-14T07:26:41Z</time>
      </trkpt>
      <trkpt lat="48.74723" lon="-3.07884">
        <ele>72.8</ele>
        <time>2020-08-14T07:26:49Z</time>
      </trkpt>
      <trkpt lat="48.74728" lon="-3.07895">
        <ele>73.3</ele>
        <time>2020-08-14T07:26:57Z</time>
      </trkpt>
      <trkpt lat="48.74733" lon="-3.07908">
        <ele>74</ele>
        <time>2020-08-14T07:27:06Z</time>
      </trkpt>
      <trkpt lat="48.74737" lon="-3.0792">
        <ele>76.3</ele>
        <time>2020-08-14T07:27:14Z</time>
      </trkpt>
      <trkpt lat="48.74741" lon="-3.07935">
        <ele>76.5</ele>
        <time>2020-08-14T07:27:23Z</time>
      </trkpt>
      <trkpt lat="48.74747" lon="-3.07957">
        <ele>77.3</ele>
        <time>2020-08-14T07:27:36Z</time>
      </trkpt>
      <trkpt lat="48.74749" lon="-3.07973">
        <ele>78.2</ele>
        <time>2020-08-14T07:27:44Z</time>
      </trkpt>
      <trkpt lat="48.74751" lon="-3.07988">
        <ele>80.7</ele>
        <time>2020-08-14T07:27:52Z</time>
      </trkpt>
      <trkpt lat="48.74756" lon="-3.08007">
        <ele>81.5</ele>
        <time>2020-08-14T07:28:02Z</time>
      </trkpt>
      <trkpt lat="48.74761" lon="-3.08022">
        <ele>82.1</ele>
        <time>2020-08-14T07:28:10Z</time>
      </trkpt>
      <trkpt lat="48.74767" lon="-3.0804">
        <ele>82.4</ele>
        <time>2020-08-14T07:28:19Z</time>
      </trkpt>
      <trkpt lat="48.74773" lon="-3.08053">
        <ele>82.6</ele>
        <time>2020-08-14T07:28:29Z</time>
      </trkpt>
      <trkpt lat="48.74773" lon="-3.08054">
        <ele>82.6</ele>
        <time>2020-08-14T07:28:30Z</time>
      </trkpt>
      <trkpt lat="48.74779" lon="-3.08064">
        <ele>82.7</ele>
        <time>2020-08-14T07:29:36Z</time>
      </trkpt>
      <trkpt lat="48.74789" lon="-3.08086">
        <ele>83.3</ele>
        <time>2020-08-14T07:29:45Z</time>
      </trkpt>
      <trkpt lat="48.74802" lon="-3.08112">
        <ele>83.5</ele>
        <time>2020-08-14T07:29:54Z</time>
      </trkpt>
      <trkpt lat="48.74817" lon="-3.08139">
        <ele>83.5</ele>
        <time>2020-08-14T07:30:03Z</time>
      </trkpt>
      <trkpt lat="48.74832" lon="-3.08168">
        <ele>83.9</ele>
        <time>2020-08-14T07:30:11Z</time>
      </trkpt>
      <trkpt lat="48.74847" lon="-3.08207">
        <ele>84.5</ele>
        <time>2020-08-14T07:30:20Z</time>
      </trkpt>
      <trkpt lat="48.74861" lon="-3.08254">
        <ele>84.5</ele>
        <time>2020-08-14T07:30:30Z</time>
      </trkpt>
      <trkpt lat="48.74874" lon="-3.08305">
        <ele>84.8</ele>
        <time>2020-08-14T07:30:40Z</time>
      </trkpt>
      <trkpt lat="48.74891" lon="-3.08353">
        <ele>85.2</ele>
        <time>2020-08-14T07:30:50Z</time>
      </trkpt>
      <trkpt lat="48.74909" lon="-3.08384">
        <ele>85.2</ele>
        <time>2020-08-14T07:30:58Z</time>
      </trkpt>
      <trkpt lat="48.74923" lon="-3.08402">
        <ele>85.1</ele>
        <time>2020-08-14T07:31:05Z</time>
      </trkpt>
      <trkpt lat="48.74924" lon="-3.08402">
        <ele>85.1</ele>
        <time>2020-08-14T07:31:07Z</time>
      </trkpt>
      <trkpt lat="48.74924" lon="-3.08422">
        <ele>85.2</ele>
        <time>2020-08-14T07:31:14Z</time>
      </trkpt>
      <trkpt lat="48.74925" lon="-3.08436">
        <ele>85.4</ele>
        <time>2020-08-14T07:31:18Z</time>
      </trkpt>
      <trkpt lat="48.7493" lon="-3.08471">
        <ele>85.8</ele>
        <time>2020-08-14T07:31:26Z</time>
      </trkpt>
      <trkpt lat="48.7494" lon="-3.08517">
        <ele>86.2</ele>
        <time>2020-08-14T07:31:35Z</time>
      </trkpt>
      <trkpt lat="48.74952" lon="-3.08569">
        <ele>86.4</ele>
        <time>2020-08-14T07:31:45Z</time>
      </trkpt>
      <trkpt lat="48.74966" lon="-3.08611">
        <ele>86.2</ele>
        <time>2020-08-14T07:31:53Z</time>
      </trkpt>
      <trkpt lat="48.74979" lon="-3.08646">
        <ele>85.9</ele>
        <time>2020-08-14T07:32:01Z</time>
      </trkpt>
      <trkpt lat="48.74992" lon="-3.0868">
        <ele>85.3</ele>
        <time>2020-08-14T07:32:08Z</time>
      </trkpt>
      <trkpt lat="48.75012" lon="-3.08721">
        <ele>84.1</ele>
        <time>2020-08-14T07:32:16Z</time>
      </trkpt>
      <trkpt lat="48.75031" lon="-3.08756">
        <ele>83.6</ele>
        <time>2020-08-14T07:32:23Z</time>
      </trkpt>
      <trkpt lat="48.75055" lon="-3.08801">
        <ele>83.4</ele>
        <time>2020-08-14T07:32:32Z</time>
      </trkpt>
      <trkpt lat="48.75077" lon="-3.08842">
        <ele>83.5</ele>
        <time>2020-08-14T07:32:41Z</time>
      </trkpt>
      <trkpt lat="48.75102" lon="-3.08886">
        <ele>83.6</ele>
        <time>2020-08-14T07:32:51Z</time>
      </trkpt>
      <trkpt lat="48.75123" lon="-3.08915">
        <ele>83.6</ele>
        <time>2020-08-14T07:32:58Z</time>
      </trkpt>
      <trkpt lat="48.75155" lon="-3.08954">
        <ele>84.1</ele>
        <time>2020-08-14T07:33:07Z</time>
      </trkpt>
      <trkpt lat="48.75192" lon="-3.08993">
        <ele>82.9</ele>
        <time>2020-08-14T07:33:16Z</time>
      </trkpt>
      <trkpt lat="48.75233" lon="-3.09036">
        <ele>82</ele>
        <time>2020-08-14T07:33:26Z</time>
      </trkpt>
      <trkpt lat="48.75273" lon="-3.09077">
        <ele>80</ele>
        <time>2020-08-14T07:33:36Z</time>
      </trkpt>
      <trkpt lat="48.75316" lon="-3.0912">
        <ele>78.3</ele>
        <time>2020-08-14T07:33:46Z</time>
      </trkpt>
      <trkpt lat="48.75359" lon="-3.0916">
        <ele>76.7</ele>
        <time>2020-08-14T07:33:55Z</time>
      </trkpt>
      <trkpt lat="48.75406" lon="-3.09193">
        <ele>75.3</ele>
        <time>2020-08-14T07:34:04Z</time>
      </trkpt>
      <trkpt lat="48.75442" lon="-3.09218">
        <ele>75.2</ele>
        <time>2020-08-14T07:34:11Z</time>
      </trkpt>
      <trkpt lat="48.75486" lon="-3.09247">
        <ele>75.2</ele>
        <time>2020-08-14T07:34:19Z</time>
      </trkpt>
      <trkpt lat="48.7552" lon="-3.09262">
        <ele>74.4</ele>
        <time>2020-08-14T07:34:25Z</time>
      </trkpt>
      <trkpt lat="48.75566" lon="-3.09264">
        <ele>72.9</ele>
        <time>2020-08-14T07:34:33Z</time>
      </trkpt>
      <trkpt lat="48.75618" lon="-3.09261">
        <ele>72.7</ele>
        <time>2020-08-14T07:34:42Z</time>
      </trkpt>
      <trkpt lat="48.75675" lon="-3.0926">
        <ele>73.7</ele>
        <time>2020-08-14T07:34:51Z</time>
      </trkpt>
      <trkpt lat="48.75727" lon="-3.09259">
        <ele>74.4</ele>
        <time>2020-08-14T07:34:59Z</time>
      </trkpt>
      <trkpt lat="48.75775" lon="-3.09264">
        <ele>73.4</ele>
        <time>2020-08-14T07:35:07Z</time>
      </trkpt>
      <trkpt lat="48.75793" lon="-3.09268">
        <ele>72.9</ele>
        <time>2020-08-14T07:35:10Z</time>
      </trkpt>
      <trkpt lat="48.75834" lon="-3.09279">
        <ele>67.6</ele>
        <time>2020-08-14T07:35:17Z</time>
      </trkpt>
      <trkpt lat="48.75877" lon="-3.09293">
        <ele>65.4</ele>
        <time>2020-08-14T07:35:23Z</time>
      </trkpt>
      <trkpt lat="48.75902" lon="-3.093">
        <ele>63.8</ele>
        <time>2020-08-14T07:35:26Z</time>
      </trkpt>
      <trkpt lat="48.7596" lon="-3.09321">
        <ele>55.4</ele>
        <time>2020-08-14T07:35:33Z</time>
      </trkpt>
      <trkpt lat="48.76008" lon="-3.0934">
        <ele>50</ele>
        <time>2020-08-14T07:35:38Z</time>
      </trkpt>
      <trkpt lat="48.76108" lon="-3.09395">
        <ele>43.5</ele>
        <time>2020-08-14T07:35:48Z</time>
      </trkpt>
      <trkpt lat="48.76185" lon="-3.09432">
        <ele>39.1</ele>
        <time>2020-08-14T07:35:56Z</time>
      </trkpt>
      <trkpt lat="48.76289" lon="-3.09468">
        <ele>35.3</ele>
        <time>2020-08-14T07:36:07Z</time>
      </trkpt>
      <trkpt lat="48.76298" lon="-3.09472">
        <ele>35.1</ele>
        <time>2020-08-14T07:36:08Z</time>
      </trkpt>
      <trkpt lat="48.76356" lon="-3.09493">
        <ele>32.3</ele>
        <time>2020-08-14T07:36:15Z</time>
      </trkpt>
      <trkpt lat="48.76367" lon="-3.09497">
        <ele>32</ele>
        <time>2020-08-14T07:36:17Z</time>
      </trkpt>
      <trkpt lat="48.76397" lon="-3.09507">
        <ele>30.7</ele>
        <time>2020-08-14T07:36:24Z</time>
      </trkpt>
      <trkpt lat="48.76421" lon="-3.09517">
        <ele>29.3</ele>
        <time>2020-08-14T07:36:29Z</time>
      </trkpt>
      <trkpt lat="48.76438" lon="-3.09523">
        <ele>28.9</ele>
        <time>2020-08-14T07:36:33Z</time>
      </trkpt>
      <trkpt lat="48.76446" lon="-3.09525">
        <ele>28.8</ele>
        <time>2020-08-14T07:36:35Z</time>
      </trkpt>
      <trkpt lat="48.76494" lon="-3.09541">
        <ele>28.2</ele>
        <time>2020-08-14T07:36:46Z</time>
      </trkpt>
      <trkpt lat="48.76537" lon="-3.09556">
        <ele>26.3</ele>
        <time>2020-08-14T07:36:55Z</time>
      </trkpt>
      <trkpt lat="48.76582" lon="-3.09572">
        <ele>25.4</ele>
        <time>2020-08-14T07:37:03Z</time>
      </trkpt>
      <trkpt lat="48.76629" lon="-3.09587">
        <ele>21.2</ele>
        <time>2020-08-14T07:37:10Z</time>
      </trkpt>
      <trkpt lat="48.76675" lon="-3.09601">
        <ele>17.8</ele>
        <time>2020-08-14T07:37:17Z</time>
      </trkpt>
      <trkpt lat="48.7668" lon="-3.09603">
        <ele>17.7</ele>
        <time>2020-08-14T07:37:18Z</time>
      </trkpt>
      <trkpt lat="48.76695" lon="-3.09608">
        <ele>17.2</ele>
        <time>2020-08-14T07:37:22Z</time>
      </trkpt>
      <trkpt lat="48.76707" lon="-3.0962">
        <ele>16.8</ele>
        <time>2020-08-14T07:37:27Z</time>
      </trkpt>
      <trkpt lat="48.76723" lon="-3.09647">
        <ele>16.1</ele>
        <time>2020-08-14T07:37:33Z</time>
      </trkpt>
      <trkpt lat="48.76732" lon="-3.09683">
        <ele>15</ele>
        <time>2020-08-14T07:37:38Z</time>
      </trkpt>
      <trkpt lat="48.76732" lon="-3.09692">
        <ele>15</ele>
        <time>2020-08-14T07:37:39Z</time>
      </trkpt>
      <trkpt lat="48.76732" lon="-3.09711">
        <ele>15</ele>
        <time>2020-08-14T07:37:41Z</time>
      </trkpt>
      <trkpt lat="48.76742" lon="-3.09752">
        <ele>13.5</ele>
        <time>2020-08-14T07:37:46Z</time>
      </trkpt>
      <trkpt lat="48.76752" lon="-3.09761">
        <ele>12</ele>
        <time>2020-08-14T07:37:48Z</time>
      </trkpt>
      <trkpt lat="48.7677" lon="-3.09773">
        <ele>11</ele>
        <time>2020-08-14T07:37:51Z</time>
      </trkpt>
      <trkpt lat="48.76814" lon="-3.09807">
        <ele>9.6</ele>
        <time>2020-08-14T07:37:59Z</time>
      </trkpt>
      <trkpt lat="48.76842" lon="-3.09828">
        <ele>7.6</ele>
        <time>2020-08-14T07:38:05Z</time>
      </trkpt>
      <trkpt lat="48.76863" lon="-3.09841">
        <ele>6</ele>
        <time>2020-08-14T07:38:11Z</time>
      </trkpt>
      <trkpt lat="48.76872" lon="-3.09843">
        <ele>5.7</ele>
        <time>2020-08-14T07:38:16Z</time>
      </trkpt>
      <trkpt lat="48.76872" lon="-3.09843">
        <ele>5.7</ele>
        <time>2020-08-14T07:38:17Z</time>
      </trkpt>
      <trkpt lat="48.76878" lon="-3.09845">
        <ele>5.6</ele>
        <time>2020-08-14T07:38:44Z</time>
      </trkpt>
      <trkpt lat="48.76892" lon="-3.09843">
        <ele>5.3</ele>
        <time>2020-08-14T07:38:51Z</time>
      </trkpt>
      <trkpt lat="48.76907" lon="-3.09834">
        <ele>5.1</ele>
        <time>2020-08-14T07:38:57Z</time>
      </trkpt>
      <trkpt lat="48.76933" lon="-3.09819">
        <ele>5.8</ele>
        <time>2020-08-14T07:39:07Z</time>
      </trkpt>
      <trkpt lat="48.76946" lon="-3.09815">
        <ele>6</ele>
        <time>2020-08-14T07:39:13Z</time>
      </trkpt>
      <trkpt lat="48.76962" lon="-3.09809">
        <ele>6.2</ele>
        <time>2020-08-14T07:39:20Z</time>
      </trkpt>
      <trkpt lat="48.7698" lon="-3.09798">
        <ele>6.5</ele>
        <time>2020-08-14T07:39:28Z</time>
      </trkpt>
      <trkpt lat="48.76992" lon="-3.09789">
        <ele>6.9</ele>
        <time>2020-08-14T07:39:35Z</time>
      </trkpt>
      <trkpt lat="48.77006" lon="-3.09781">
        <ele>9.8</ele>
        <time>2020-08-14T07:39:44Z</time>
      </trkpt>
      <trkpt lat="48.77014" lon="-3.09776">
        <ele>10.1</ele>
        <time>2020-08-14T07:39:49Z</time>
      </trkpt>
      <trkpt lat="48.77021" lon="-3.09772">
        <ele>10.3</ele>
        <time>2020-08-14T07:39:53Z</time>
      </trkpt>
      <trkpt lat="48.77035" lon="-3.09763">
        <ele>10.8</ele>
        <time>2020-08-14T07:40:02Z</time>
      </trkpt>
      <trkpt lat="48.77044" lon="-3.09757">
        <ele>11.3</ele>
        <time>2020-08-14T07:40:08Z</time>
      </trkpt>
      <trkpt lat="48.77054" lon="-3.0975">
        <ele>11.9</ele>
        <time>2020-08-14T07:40:16Z</time>
      </trkpt>
      <trkpt lat="48.77063" lon="-3.09743">
        <ele>14.9</ele>
        <time>2020-08-14T07:40:24Z</time>
      </trkpt>
      <trkpt lat="48.77073" lon="-3.09738">
        <ele>15.1</ele>
        <time>2020-08-14T07:40:32Z</time>
      </trkpt>
      <trkpt lat="48.77084" lon="-3.09735">
        <ele>16.6</ele>
        <time>2020-08-14T07:40:40Z</time>
      </trkpt>
      <trkpt lat="48.77093" lon="-3.09729">
        <ele>17.2</ele>
        <time>2020-08-14T07:40:48Z</time>
      </trkpt>
      <trkpt lat="48.77106" lon="-3.09723">
        <ele>17.9</ele>
        <time>2020-08-14T07:40:57Z</time>
      </trkpt>
      <trkpt lat="48.77123" lon="-3.09714">
        <ele>18.6</ele>
        <time>2020-08-14T07:41:09Z</time>
      </trkpt>
      <trkpt lat="48.77136" lon="-3.09703">
        <ele>19.1</ele>
        <time>2020-08-14T07:41:20Z</time>
      </trkpt>
      <trkpt lat="48.77139" lon="-3.09702">
        <ele>19.2</ele>
        <time>2020-08-14T07:41:22Z</time>
      </trkpt>
      <trkpt lat="48.77145" lon="-3.09699">
        <ele>19.5</ele>
        <time>2020-08-14T07:41:29Z</time>
      </trkpt>
      <trkpt lat="48.77152" lon="-3.09701">
        <ele>19.6</ele>
        <time>2020-08-14T07:41:39Z</time>
      </trkpt>
      <trkpt lat="48.77156" lon="-3.09704">
        <ele>19.5</ele>
        <time>2020-08-14T07:43:42Z</time>
      </trkpt>
      <trkpt lat="48.77161" lon="-3.09707">
        <ele>19.4</ele>
        <time>2020-08-14T07:43:45Z</time>
      </trkpt>
      <trkpt lat="48.77179" lon="-3.09717">
        <ele>20</ele>
        <time>2020-08-14T07:43:56Z</time>
      </trkpt>
      <trkpt lat="48.77185" lon="-3.0972">
        <ele>19.9</ele>
        <time>2020-08-14T07:44:01Z</time>
      </trkpt>
      <trkpt lat="48.77186" lon="-3.09723">
        <ele>19.8</ele>
        <time>2020-08-14T07:45:16Z</time>
      </trkpt>
      <trkpt lat="48.772" lon="-3.09731">
        <ele>19.7</ele>
        <time>2020-08-14T07:45:23Z</time>
      </trkpt>
      <trkpt lat="48.77219" lon="-3.09743">
        <ele>19.4</ele>
        <time>2020-08-14T07:45:31Z</time>
      </trkpt>
      <trkpt lat="48.77242" lon="-3.09757">
        <ele>17.1</ele>
        <time>2020-08-14T07:45:40Z</time>
      </trkpt>
      <trkpt lat="48.77265" lon="-3.09771">
        <ele>16.3</ele>
        <time>2020-08-14T07:45:46Z</time>
      </trkpt>
      <trkpt lat="48.77296" lon="-3.09791">
        <ele>15.5</ele>
        <time>2020-08-14T07:45:54Z</time>
      </trkpt>
      <trkpt lat="48.77323" lon="-3.09814">
        <ele>15.2</ele>
        <time>2020-08-14T07:46:02Z</time>
      </trkpt>
      <trkpt lat="48.77348" lon="-3.09838">
        <ele>14.9</ele>
        <time>2020-08-14T07:46:08Z</time>
      </trkpt>
      <trkpt lat="48.77382" lon="-3.0988">
        <ele>14.4</ele>
        <time>2020-08-14T07:46:15Z</time>
      </trkpt>
      <trkpt lat="48.77422" lon="-3.09935">
        <ele>11</ele>
        <time>2020-08-14T07:46:23Z</time>
      </trkpt>
      <trkpt lat="48.77472" lon="-3.09981">
        <ele>9.6</ele>
        <time>2020-08-14T07:46:32Z</time>
      </trkpt>
      <trkpt lat="48.77502" lon="-3.10002">
        <ele>7.8</ele>
        <time>2020-08-14T07:46:38Z</time>
      </trkpt>
      <trkpt lat="48.77521" lon="-3.10026">
        <ele>6.7</ele>
        <time>2020-08-14T07:46:43Z</time>
      </trkpt>
      <trkpt lat="48.77528" lon="-3.10036">
        <ele>6.4</ele>
        <time>2020-08-14T07:46:45Z</time>
      </trkpt>
      <trkpt lat="48.7754" lon="-3.10059">
        <ele>5.8</ele>
        <time>2020-08-14T07:46:49Z</time>
      </trkpt>
      <trkpt lat="48.77556" lon="-3.10073">
        <ele>5.4</ele>
        <time>2020-08-14T07:46:53Z</time>
      </trkpt>
      <trkpt lat="48.77592" lon="-3.10091">
        <ele>4.3</ele>
        <time>2020-08-14T07:47:02Z</time>
      </trkpt>
      <trkpt lat="48.77618" lon="-3.10101">
        <ele>4.9</ele>
        <time>2020-08-14T07:47:09Z</time>
      </trkpt>
      <trkpt lat="48.77627" lon="-3.10091">
        <ele>5</ele>
        <time>2020-08-14T07:47:12Z</time>
      </trkpt>
      <trkpt lat="48.77632" lon="-3.10069">
        <ele>6.5</ele>
        <time>2020-08-14T07:47:17Z</time>
      </trkpt>
      <trkpt lat="48.77634" lon="-3.10042">
        <ele>7</ele>
        <time>2020-08-14T07:47:25Z</time>
      </trkpt>
      <trkpt lat="48.77641" lon="-3.10037">
        <ele>7.2</ele>
        <time>2020-08-14T07:47:30Z</time>
      </trkpt>
      <trkpt lat="48.77643" lon="-3.10038">
        <ele>7.2</ele>
        <time>2020-08-14T07:47:31Z</time>
      </trkpt>
      <trkpt lat="48.77659" lon="-3.10039">
        <ele>7.2</ele>
        <time>2020-08-14T07:47:39Z</time>
      </trkpt>
      <trkpt lat="48.77678" lon="-3.10042">
        <ele>9.5</ele>
        <time>2020-08-14T07:47:47Z</time>
      </trkpt>
      <trkpt lat="48.77699" lon="-3.1005">
        <ele>10</ele>
        <time>2020-08-14T07:47:56Z</time>
      </trkpt>
      <trkpt lat="48.77722" lon="-3.10062">
        <ele>10.5</ele>
        <time>2020-08-14T07:48:06Z</time>
      </trkpt>
      <trkpt lat="48.7774" lon="-3.10072">
        <ele>10.8</ele>
        <time>2020-08-14T07:48:14Z</time>
      </trkpt>
      <trkpt lat="48.77767" lon="-3.10087">
        <ele>11.7</ele>
        <time>2020-08-14T07:48:26Z</time>
      </trkpt>
      <trkpt lat="48.77787" lon="-3.10107">
        <ele>12.4</ele>
        <time>2020-08-14T07:48:36Z</time>
      </trkpt>
      <trkpt lat="48.77811" lon="-3.10133">
        <ele>12.6</ele>
        <time>2020-08-14T07:48:46Z</time>
      </trkpt>
      <trkpt lat="48.77833" lon="-3.10156">
        <ele>12.8</ele>
        <time>2020-08-14T07:48:55Z</time>
      </trkpt>
      <trkpt lat="48.77865" lon="-3.10196">
        <ele>12.8</ele>
        <time>2020-08-14T07:49:08Z</time>
      </trkpt>
      <trkpt lat="48.77895" lon="-3.10238">
        <ele>12.6</ele>
        <time>2020-08-14T07:49:19Z</time>
      </trkpt>
      <trkpt lat="48.77907" lon="-3.10255">
        <ele>11.8</ele>
        <time>2020-08-14T07:49:25Z</time>
      </trkpt>
      <trkpt lat="48.77919" lon="-3.10277">
        <ele>11.9</ele>
        <time>2020-08-14T07:49:33Z</time>
      </trkpt>
      <trkpt lat="48.77928" lon="-3.10285">
        <ele>11.7</ele>
        <time>2020-08-14T07:49:38Z</time>
      </trkpt>
      <trkpt lat="48.77929" lon="-3.10286">
        <ele>11.7</ele>
        <time>2020-08-14T07:49:39Z</time>
      </trkpt>
      <trkpt lat="48.77931" lon="-3.10289">
        <ele>11.6</ele>
        <time>2020-08-14T07:49:41Z</time>
      </trkpt>
      <trkpt lat="48.77932" lon="-3.10292">
        <ele>11.5</ele>
        <time>2020-08-14T07:49:45Z</time>
      </trkpt>
      <trkpt lat="48.77941" lon="-3.10315">
        <ele>11.1</ele>
        <time>2020-08-14T07:50:18Z</time>
      </trkpt>
      <trkpt lat="48.77951" lon="-3.10339">
        <ele>10.4</ele>
        <time>2020-08-14T07:50:26Z</time>
      </trkpt>
      <trkpt lat="48.77956" lon="-3.10356">
        <ele>10.5</ele>
        <time>2020-08-14T07:50:33Z</time>
      </trkpt>
      <trkpt lat="48.77956" lon="-3.10356">
        <ele>10.5</ele>
        <time>2020-08-14T07:50:35Z</time>
      </trkpt>
      <trkpt lat="48.77954" lon="-3.10355">
        <ele>10.5</ele>
        <time>2020-08-14T07:51:00Z</time>
      </trkpt>
      <trkpt lat="48.77954" lon="-3.10353">
        <ele>10.5</ele>
        <time>2020-08-14T07:51:04Z</time>
      </trkpt>
      <trkpt lat="48.7795" lon="-3.10343">
        <ele>10.4</ele>
        <time>2020-08-14T07:51:09Z</time>
      </trkpt>
      <trkpt lat="48.77942" lon="-3.10324">
        <ele>11</ele>
        <time>2020-08-14T07:51:16Z</time>
      </trkpt>
      <trkpt lat="48.77942" lon="-3.10323">
        <ele>11</ele>
        <time>2020-08-14T07:51:18Z</time>
      </trkpt>
      <trkpt lat="48.7794" lon="-3.10316">
        <ele>11</ele>
        <time>2020-08-14T07:52:07Z</time>
      </trkpt>
      <trkpt lat="48.77933" lon="-3.10296">
        <ele>11.4</ele>
        <time>2020-08-14T07:52:14Z</time>
      </trkpt>
      <trkpt lat="48.77928" lon="-3.10286">
        <ele>11.7</ele>
        <time>2020-08-14T07:52:18Z</time>
      </trkpt>
      <trkpt lat="48.77924" lon="-3.10294">
        <ele>11.4</ele>
        <time>2020-08-14T07:52:22Z</time>
      </trkpt>
      <trkpt lat="48.77926" lon="-3.10307">
        <ele>11</ele>
        <time>2020-08-14T07:52:26Z</time>
      </trkpt>
      <trkpt lat="48.77928" lon="-3.10321">
        <ele>10.4</ele>
        <time>2020-08-14T07:52:31Z</time>
      </trkpt>
      <trkpt lat="48.77934" lon="-3.10335">
        <ele>9.8</ele>
        <time>2020-08-14T07:52:37Z</time>
      </trkpt>
      <trkpt lat="48.77934" lon="-3.10346">
        <ele>9.9</ele>
        <time>2020-08-14T07:52:41Z</time>
      </trkpt>
      <trkpt lat="48.77931" lon="-3.10358">
        <ele>9.9</ele>
        <time>2020-08-14T07:52:45Z</time>
      </trkpt>
      <trkpt lat="48.77928" lon="-3.10367">
        <ele>9.9</ele>
        <time>2020-08-14T07:52:48Z</time>
      </trkpt>
      <trkpt lat="48.77933" lon="-3.10381">
        <ele>9.9</ele>
        <time>2020-08-14T07:52:54Z</time>
      </trkpt>
      <trkpt lat="48.77943" lon="-3.10402">
        <ele>9.8</ele>
        <time>2020-08-14T07:53:05Z</time>
      </trkpt>
      <trkpt lat="48.77952" lon="-3.10419">
        <ele>7.9</ele>
        <time>2020-08-14T07:53:15Z</time>
      </trkpt>
      <trkpt lat="48.77962" lon="-3.10435">
        <ele>7.9</ele>
        <time>2020-08-14T07:53:25Z</time>
      </trkpt>
      <trkpt lat="48.77966" lon="-3.10443">
        <ele>7.7</ele>
        <time>2020-08-14T07:53:31Z</time>
      </trkpt>
      <trkpt lat="48.77973" lon="-3.10447">
        <ele>7.8</ele>
        <time>2020-08-14T07:55:08Z</time>
      </trkpt>
      <trkpt lat="48.77979" lon="-3.10448">
        <ele>7.9</ele>
        <time>2020-08-14T07:55:15Z</time>
      </trkpt>
      <trkpt lat="48.77982" lon="-3.10456">
        <ele>7.5</ele>
        <time>2020-08-14T07:55:21Z</time>
      </trkpt>
      <trkpt lat="48.77987" lon="-3.10472">
        <ele>6.8</ele>
        <time>2020-08-14T07:55:33Z</time>
      </trkpt>
      <trkpt lat="48.77987" lon="-3.10472">
        <ele>6.8</ele>
        <time>2020-08-14T07:55:34Z</time>
      </trkpt>
      <trkpt lat="48.77993" lon="-3.10483">
        <ele>6.2</ele>
        <time>2020-08-14T07:55:55Z</time>
      </trkpt>
      <trkpt lat="48.78002" lon="-3.10503">
        <ele>5</ele>
        <time>2020-08-14T07:56:04Z</time>
      </trkpt>
      <trkpt lat="48.78019" lon="-3.10536">
        <ele>5</ele>
        <time>2020-08-14T07:56:18Z</time>
      </trkpt>
      <trkpt lat="48.78032" lon="-3.10558">
        <ele>5</ele>
        <time>2020-08-14T07:56:27Z</time>
      </trkpt>
      <trkpt lat="48.78047" lon="-3.10584">
        <time>2020-08-14T07:56:38Z</time>
      </trkpt>
      <trkpt lat="48.78064" lon="-3.10614">
        <time>2020-08-14T07:56:50Z</time>
      </trkpt>
      <trkpt lat="48.78085" lon="-3.1065">
        <time>2020-08-14T07:57:02Z</time>
      </trkpt>
      <trkpt lat="48.78108" lon="-3.10689">
        <ele>4</ele>
        <time>2020-08-14T07:57:13Z</time>
      </trkpt>
      <trkpt lat="48.7813" lon="-3.10729">
        <ele>4</ele>
        <time>2020-08-14T07:57:22Z</time>
      </trkpt>
      <trkpt lat="48.78151" lon="-3.10765">
        <ele>6.8</ele>
        <time>2020-08-14T07:57:30Z</time>
      </trkpt>
      <trkpt lat="48.7817" lon="-3.10799">
        <ele>11</ele>
        <time>2020-08-14T07:57:38Z</time>
      </trkpt>
      <trkpt lat="48.78175" lon="-3.10808">
        <ele>11.5</ele>
        <time>2020-08-14T07:57:42Z</time>
      </trkpt>
      <trkpt lat="48.7818" lon="-3.10819">
        <ele>11.9</ele>
        <time>2020-08-14T07:57:48Z</time>
      </trkpt>
      <trkpt lat="48.78184" lon="-3.10827">
        <ele>12</ele>
        <time>2020-08-14T07:57:53Z</time>
      </trkpt>
      <trkpt lat="48.78184" lon="-3.10827">
        <ele>12</ele>
        <time>2020-08-14T07:57:55Z</time>
      </trkpt>
      <trkpt lat="48.7819" lon="-3.10817">
        <ele>12</ele>
        <time>2020-08-14T07:58:06Z</time>
      </trkpt>
      <trkpt lat="48.78199" lon="-3.10801">
        <ele>11.9</ele>
        <time>2020-08-14T07:58:11Z</time>
      </trkpt>
      <trkpt lat="48.78214" lon="-3.10797">
        <ele>12.4</ele>
        <time>2020-08-14T07:58:15Z</time>
      </trkpt>
      <trkpt lat="48.78231" lon="-3.1079">
        <ele>13</ele>
        <time>2020-08-14T07:58:20Z</time>
      </trkpt>
      <trkpt lat="48.78257" lon="-3.10772">
        <ele>18</ele>
        <time>2020-08-14T07:58:27Z</time>
      </trkpt>
      <trkpt lat="48.78288" lon="-3.10735">
        <ele>16.9</ele>
        <time>2020-08-14T07:58:36Z</time>
      </trkpt>
      <trkpt lat="48.78307" lon="-3.10714">
        <ele>17.3</ele>
        <time>2020-08-14T07:58:42Z</time>
      </trkpt>
      <trkpt lat="48.78331" lon="-3.10684">
        <ele>17.4</ele>
        <time>2020-08-14T07:58:50Z</time>
      </trkpt>
      <trkpt lat="48.78354" lon="-3.10656">
        <ele>18.2</ele>
        <time>2020-08-14T07:58:58Z</time>
      </trkpt>
      <trkpt lat="48.78379" lon="-3.1063">
        <ele>18.5</ele>
        <time>2020-08-14T07:59:06Z</time>
      </trkpt>
      <trkpt lat="48.78404" lon="-3.10619">
        <ele>19.2</ele>
        <time>2020-08-14T07:59:13Z</time>
      </trkpt>
      <trkpt lat="48.78427" lon="-3.1062">
        <ele>22.6</ele>
        <time>2020-08-14T07:59:20Z</time>
      </trkpt>
      <trkpt lat="48.7845" lon="-3.1063">
        <ele>23.1</ele>
        <time>2020-08-14T07:59:29Z</time>
      </trkpt>
      <trkpt lat="48.78474" lon="-3.1064">
        <ele>23.6</ele>
        <time>2020-08-14T07:59:39Z</time>
      </trkpt>
      <trkpt lat="48.78486" lon="-3.10644">
        <ele>23.9</ele>
        <time>2020-08-14T07:59:45Z</time>
      </trkpt>
      <trkpt lat="48.78499" lon="-3.10647">
        <ele>24.2</ele>
        <time>2020-08-14T07:59:50Z</time>
      </trkpt>
      <trkpt lat="48.78519" lon="-3.10655">
        <ele>24.4</ele>
        <time>2020-08-14T07:59:57Z</time>
      </trkpt>
      <trkpt lat="48.78524" lon="-3.10657">
        <ele>24.3</ele>
        <time>2020-08-14T07:59:59Z</time>
      </trkpt>
      <trkpt lat="48.78533" lon="-3.10646">
        <ele>24.1</ele>
        <time>2020-08-14T08:00:03Z</time>
      </trkpt>
      <trkpt lat="48.78538" lon="-3.10624">
        <ele>24</ele>
        <time>2020-08-14T08:00:09Z</time>
      </trkpt>
      <trkpt lat="48.78548" lon="-3.10594">
        <ele>23.9</ele>
        <time>2020-08-14T08:00:17Z</time>
      </trkpt>
      <trkpt lat="48.78555" lon="-3.10573">
        <ele>23.5</ele>
        <time>2020-08-14T08:00:23Z</time>
      </trkpt>
      <trkpt lat="48.78567" lon="-3.10541">
        <ele>23.4</ele>
        <time>2020-08-14T08:00:31Z</time>
      </trkpt>
      <trkpt lat="48.78582" lon="-3.10497">
        <ele>23</ele>
        <time>2020-08-14T08:00:41Z</time>
      </trkpt>
      <trkpt lat="48.78597" lon="-3.1045">
        <ele>22.7</ele>
        <time>2020-08-14T08:00:51Z</time>
      </trkpt>
      <trkpt lat="48.78606" lon="-3.10424">
        <ele>22.9</ele>
        <time>2020-08-14T08:00:57Z</time>
      </trkpt>
      <trkpt lat="48.78622" lon="-3.10401">
        <ele>23.1</ele>
        <time>2020-08-14T08:01:04Z</time>
      </trkpt>
      <trkpt lat="48.78642" lon="-3.10374">
        <ele>22.7</ele>
        <time>2020-08-14T08:01:14Z</time>
      </trkpt>
      <trkpt lat="48.78653" lon="-3.10364">
        <ele>22.4</ele>
        <time>2020-08-14T08:01:19Z</time>
      </trkpt>
      <trkpt lat="48.78666" lon="-3.1038">
        <ele>22.5</ele>
        <time>2020-08-14T08:01:24Z</time>
      </trkpt>
      <trkpt lat="48.78665" lon="-3.10396">
        <ele>22.4</ele>
        <time>2020-08-14T08:01:27Z</time>
      </trkpt>
      <trkpt lat="48.78655" lon="-3.10432">
        <ele>22.1</ele>
        <time>2020-08-14T08:01:35Z</time>
      </trkpt>
      <trkpt lat="48.78644" lon="-3.10467">
        <ele>21.9</ele>
        <time>2020-08-14T08:01:43Z</time>
      </trkpt>
      <trkpt lat="48.78638" lon="-3.10488">
        <ele>21.7</ele>
        <time>2020-08-14T08:01:49Z</time>
      </trkpt>
      <trkpt lat="48.78639" lon="-3.10503">
        <ele>20.8</ele>
        <time>2020-08-14T08:01:55Z</time>
      </trkpt>
      <trkpt lat="48.78641" lon="-3.10512">
        <ele>20.7</ele>
        <time>2020-08-14T08:02:01Z</time>
      </trkpt>
      <trkpt lat="48.78641" lon="-3.10527">
        <ele>20.7</ele>
        <time>2020-08-14T08:02:16Z</time>
      </trkpt>
      <trkpt lat="48.7864" lon="-3.10528">
        <ele>20.7</ele>
        <time>2020-08-14T08:02:18Z</time>
      </trkpt>
      <trkpt lat="48.78642" lon="-3.10529">
        <ele>20.7</ele>
        <time>2020-08-14T08:03:05Z</time>
      </trkpt>
      <trkpt lat="48.78645" lon="-3.10514">
        <ele>20.7</ele>
        <time>2020-08-14T08:08:44Z</time>
      </trkpt>
      <trkpt lat="48.78649" lon="-3.1051">
        <ele>20.6</ele>
        <time>2020-08-14T08:08:46Z</time>
      </trkpt>
      <trkpt lat="48.78668" lon="-3.10487">
        <ele>18.7</ele>
        <time>2020-08-14T08:08:53Z</time>
      </trkpt>
      <trkpt lat="48.78676" lon="-3.10485">
        <ele>18.3</ele>
        <time>2020-08-14T08:08:55Z</time>
      </trkpt>
      <trkpt lat="48.78705" lon="-3.10477">
        <ele>16.6</ele>
        <time>2020-08-14T08:09:02Z</time>
      </trkpt>
      <trkpt lat="48.78715" lon="-3.10477">
        <ele>16</ele>
        <time>2020-08-14T08:09:04Z</time>
      </trkpt>
      <trkpt lat="48.78733" lon="-3.1048">
        <ele>14.9</ele>
        <time>2020-08-14T08:09:08Z</time>
      </trkpt>
      <trkpt lat="48.78758" lon="-3.10484">
        <ele>12.2</ele>
        <time>2020-08-14T08:09:14Z</time>
      </trkpt>
      <trkpt lat="48.78784" lon="-3.10483">
        <ele>12.5</ele>
        <time>2020-08-14T08:09:20Z</time>
      </trkpt>
      <trkpt lat="48.7879" lon="-3.10481">
        <ele>12.5</ele>
        <time>2020-08-14T08:09:22Z</time>
      </trkpt>
      <trkpt lat="48.78796" lon="-3.10478">
        <ele>12.6</ele>
        <time>2020-08-14T08:09:26Z</time>
      </trkpt>
      <trkpt lat="48.78797" lon="-3.10483">
        <ele>12.7</ele>
        <time>2020-08-14T08:10:10Z</time>
      </trkpt>
      <trkpt lat="48.78779" lon="-3.10486">
        <ele>12.4</ele>
        <time>2020-08-14T08:10:20Z</time>
      </trkpt>
      <trkpt lat="48.78767" lon="-3.1049">
        <ele>12.3</ele>
        <time>2020-08-14T08:10:28Z</time>
      </trkpt>
      <trkpt lat="48.78755" lon="-3.10487">
        <ele>12.2</ele>
        <time>2020-08-14T08:10:35Z</time>
      </trkpt>
      <trkpt lat="48.78737" lon="-3.10484">
        <ele>14.4</ele>
        <time>2020-08-14T08:10:44Z</time>
      </trkpt>
      <trkpt lat="48.78717" lon="-3.10483">
        <ele>15.8</ele>
        <time>2020-08-14T08:10:55Z</time>
      </trkpt>
      <trkpt lat="48.78705" lon="-3.10485">
        <ele>16.6</ele>
        <time>2020-08-14T08:11:02Z</time>
      </trkpt>
      <trkpt lat="48.7869" lon="-3.10488">
        <ele>17.6</ele>
        <time>2020-08-14T08:11:11Z</time>
      </trkpt>
      <trkpt lat="48.78677" lon="-3.10491">
        <ele>18.5</ele>
        <time>2020-08-14T08:11:20Z</time>
      </trkpt>
      <trkpt lat="48.78662" lon="-3.10495">
        <ele>20.6</ele>
        <time>2020-08-14T08:11:30Z</time>
      </trkpt>
      <trkpt lat="48.78652" lon="-3.10511">
        <ele>20.5</ele>
        <time>2020-08-14T08:11:39Z</time>
      </trkpt>
      <trkpt lat="48.78643" lon="-3.10518">
        <ele>20.7</ele>
        <time>2020-08-14T08:11:46Z</time>
      </trkpt>
      <trkpt lat="48.7864" lon="-3.10516">
        <ele>20.8</ele>
        <time>2020-08-14T08:11:49Z</time>
      </trkpt>
      <trkpt lat="48.78639" lon="-3.10517">
        <ele>20.8</ele>
        <time>2020-08-14T08:11:53Z</time>
      </trkpt>
      <trkpt lat="48.78637" lon="-3.10517">
        <ele>20.8</ele>
        <time>2020-08-14T08:11:59Z</time>
      </trkpt>
      <trkpt lat="48.78637" lon="-3.10517">
        <ele>20.8</ele>
        <time>2020-08-14T08:12:01Z</time>
      </trkpt>
      <trkpt lat="48.78639" lon="-3.10521">
        <ele>20.8</ele>
        <time>2020-08-14T08:12:57Z</time>
      </trkpt>
      <trkpt lat="48.78634" lon="-3.10541">
        <ele>20.8</ele>
        <time>2020-08-14T08:13:07Z</time>
      </trkpt>
      <trkpt lat="48.78629" lon="-3.10563">
        <ele>20.7</ele>
        <time>2020-08-14T08:13:14Z</time>
      </trkpt>
      <trkpt lat="48.78618" lon="-3.10598">
        <ele>20.8</ele>
        <time>2020-08-14T08:13:23Z</time>
      </trkpt>
      <trkpt lat="48.78608" lon="-3.10626">
        <ele>21</ele>
        <time>2020-08-14T08:13:31Z</time>
      </trkpt>
      <trkpt lat="48.78598" lon="-3.10654">
        <ele>21.6</ele>
        <time>2020-08-14T08:13:39Z</time>
      </trkpt>
      <trkpt lat="48.78596" lon="-3.10669">
        <ele>21.9</ele>
        <time>2020-08-14T08:13:43Z</time>
      </trkpt>
      <trkpt lat="48.7859" lon="-3.10679">
        <ele>21.8</ele>
        <time>2020-08-14T08:13:47Z</time>
      </trkpt>
      <trkpt lat="48.78585" lon="-3.10695">
        <ele>21.3</ele>
        <time>2020-08-14T08:13:53Z</time>
      </trkpt>
      <trkpt lat="48.7858" lon="-3.10712">
        <ele>23.3</ele>
        <time>2020-08-14T08:14:00Z</time>
      </trkpt>
      <trkpt lat="48.78571" lon="-3.10733">
        <ele>23</ele>
        <time>2020-08-14T08:14:07Z</time>
      </trkpt>
      <trkpt lat="48.78565" lon="-3.10759">
        <ele>22.3</ele>
        <time>2020-08-14T08:14:14Z</time>
      </trkpt>
      <trkpt lat="48.78564" lon="-3.10766">
        <ele>22.3</ele>
        <time>2020-08-14T08:14:19Z</time>
      </trkpt>
      <trkpt lat="48.78564" lon="-3.10772">
        <ele>22.3</ele>
        <time>2020-08-14T08:14:54Z</time>
      </trkpt>
      <trkpt lat="48.78565" lon="-3.1079">
        <ele>22.1</ele>
        <time>2020-08-14T08:14:59Z</time>
      </trkpt>
      <trkpt lat="48.78568" lon="-3.10823">
        <ele>21.3</ele>
        <time>2020-08-14T08:15:04Z</time>
      </trkpt>
      <trkpt lat="48.78573" lon="-3.10877">
        <ele>20.3</ele>
        <time>2020-08-14T08:15:10Z</time>
      </trkpt>
      <trkpt lat="48.78572" lon="-3.10947">
        <ele>20.3</ele>
        <time>2020-08-14T08:15:17Z</time>
      </trkpt>
      <trkpt lat="48.78571" lon="-3.1097">
        <ele>20.7</ele>
        <time>2020-08-14T08:15:19Z</time>
      </trkpt>
      <trkpt lat="48.78574" lon="-3.11046">
        <ele>22.2</ele>
        <time>2020-08-14T08:15:26Z</time>
      </trkpt>
      <trkpt lat="48.78579" lon="-3.11099">
        <ele>22.9</ele>
        <time>2020-08-14T08:15:32Z</time>
      </trkpt>
      <trkpt lat="48.78585" lon="-3.1114">
        <ele>23.7</ele>
        <time>2020-08-14T08:15:38Z</time>
      </trkpt>
      <trkpt lat="48.78594" lon="-3.11192">
        <ele>23.8</ele>
        <time>2020-08-14T08:15:47Z</time>
      </trkpt>
      <trkpt lat="48.78596" lon="-3.11226">
        <ele>24</ele>
        <time>2020-08-14T08:15:54Z</time>
      </trkpt>
      <trkpt lat="48.78588" lon="-3.11258">
        <ele>23.8</ele>
        <time>2020-08-14T08:16:02Z</time>
      </trkpt>
      <trkpt lat="48.78579" lon="-3.11284">
        <ele>25.4</ele>
        <time>2020-08-14T08:16:10Z</time>
      </trkpt>
      <trkpt lat="48.7857" lon="-3.11307">
        <ele>25.9</ele>
        <time>2020-08-14T08:16:19Z</time>
      </trkpt>
      <trkpt lat="48.78564" lon="-3.11331">
        <ele>26.1</ele>
        <time>2020-08-14T08:16:29Z</time>
      </trkpt>
      <trkpt lat="48.78558" lon="-3.1135">
        <ele>27.4</ele>
        <time>2020-08-14T08:16:38Z</time>
      </trkpt>
      <trkpt lat="48.78555" lon="-3.11372">
        <ele>27.9</ele>
        <time>2020-08-14T08:16:47Z</time>
      </trkpt>
      <trkpt lat="48.78553" lon="-3.11394">
        <ele>28.3</ele>
        <time>2020-08-14T08:16:55Z</time>
      </trkpt>
      <trkpt lat="48.78552" lon="-3.11416">
        <ele>28.5</ele>
        <time>2020-08-14T08:17:03Z</time>
      </trkpt>
      <trkpt lat="48.78552" lon="-3.11444">
        <ele>30.5</ele>
        <time>2020-08-14T08:17:13Z</time>
      </trkpt>
      <trkpt lat="48.78554" lon="-3.11467">
        <ele>30.9</ele>
        <time>2020-08-14T08:17:22Z</time>
      </trkpt>
      <trkpt lat="48.78555" lon="-3.11487">
        <ele>31.2</ele>
        <time>2020-08-14T08:17:30Z</time>
      </trkpt>
      <trkpt lat="48.78555" lon="-3.11507">
        <ele>32.9</ele>
        <time>2020-08-14T08:17:39Z</time>
      </trkpt>
      <trkpt lat="48.78555" lon="-3.11525">
        <ele>33.2</ele>
        <time>2020-08-14T08:17:47Z</time>
      </trkpt>
      <trkpt lat="48.78555" lon="-3.1155">
        <ele>33.7</ele>
        <time>2020-08-14T08:17:57Z</time>
      </trkpt>
      <trkpt lat="48.78555" lon="-3.11571">
        <ele>34</ele>
        <time>2020-08-14T08:18:05Z</time>
      </trkpt>
      <trkpt lat="48.78557" lon="-3.11599">
        <ele>35.8</ele>
        <time>2020-08-14T08:18:14Z</time>
      </trkpt>
      <trkpt lat="48.78558" lon="-3.1162">
        <ele>36.1</ele>
        <time>2020-08-14T08:18:21Z</time>
      </trkpt>
      <trkpt lat="48.7856" lon="-3.11639">
        <ele>36.4</ele>
        <time>2020-08-14T08:18:28Z</time>
      </trkpt>
      <trkpt lat="48.78563" lon="-3.11668">
        <ele>38.1</ele>
        <time>2020-08-14T08:18:38Z</time>
      </trkpt>
      <trkpt lat="48.78566" lon="-3.11693">
        <ele>38.6</ele>
        <time>2020-08-14T08:18:47Z</time>
      </trkpt>
      <trkpt lat="48.7857" lon="-3.11717">
        <ele>39.3</ele>
        <time>2020-08-14T08:18:56Z</time>
      </trkpt>
      <trkpt lat="48.78571" lon="-3.11738">
        <ele>40</ele>
        <time>2020-08-14T08:19:04Z</time>
      </trkpt>
      <trkpt lat="48.78573" lon="-3.11765">
        <ele>41.1</ele>
        <time>2020-08-14T08:19:13Z</time>
      </trkpt>
      <trkpt lat="48.78574" lon="-3.11795">
        <ele>41.4</ele>
        <time>2020-08-14T08:19:23Z</time>
      </trkpt>
      <trkpt lat="48.78575" lon="-3.1182">
        <ele>41.7</ele>
        <time>2020-08-14T08:19:31Z</time>
      </trkpt>
      <trkpt lat="48.78578" lon="-3.11843">
        <ele>42.4</ele>
        <time>2020-08-14T08:19:39Z</time>
      </trkpt>
      <trkpt lat="48.7858" lon="-3.11871">
        <ele>43.1</ele>
        <time>2020-08-14T08:19:48Z</time>
      </trkpt>
      <trkpt lat="48.78581" lon="-3.11894">
        <ele>43.5</ele>
        <time>2020-08-14T08:19:55Z</time>
      </trkpt>
      <trkpt lat="48.78582" lon="-3.11924">
        <ele>44.4</ele>
        <time>2020-08-14T08:20:04Z</time>
      </trkpt>
      <trkpt lat="48.78583" lon="-3.11952">
        <ele>45.2</ele>
        <time>2020-08-14T08:20:13Z</time>
      </trkpt>
      <trkpt lat="48.78586" lon="-3.11982">
        <ele>45.2</ele>
        <time>2020-08-14T08:20:23Z</time>
      </trkpt>
      <trkpt lat="48.78589" lon="-3.12001">
        <ele>46.1</ele>
        <time>2020-08-14T08:20:30Z</time>
      </trkpt>
      <trkpt lat="48.78594" lon="-3.1202">
        <ele>46.4</ele>
        <time>2020-08-14T08:20:39Z</time>
      </trkpt>
      <trkpt lat="48.78599" lon="-3.12034">
        <ele>46.6</ele>
        <time>2020-08-14T08:20:46Z</time>
      </trkpt>
      <trkpt lat="48.78605" lon="-3.1205">
        <ele>46.9</ele>
        <time>2020-08-14T08:20:54Z</time>
      </trkpt>
      <trkpt lat="48.7861" lon="-3.12075">
        <ele>47.4</ele>
        <time>2020-08-14T08:21:05Z</time>
      </trkpt>
      <trkpt lat="48.78614" lon="-3.12099">
        <ele>49.2</ele>
        <time>2020-08-14T08:21:15Z</time>
      </trkpt>
      <trkpt lat="48.78619" lon="-3.12124">
        <ele>49.5</ele>
        <time>2020-08-14T08:21:25Z</time>
      </trkpt>
      <trkpt lat="48.78622" lon="-3.1214">
        <ele>49.8</ele>
        <time>2020-08-14T08:21:31Z</time>
      </trkpt>
      <trkpt lat="48.78627" lon="-3.12164">
        <ele>50.1</ele>
        <time>2020-08-14T08:21:40Z</time>
      </trkpt>
      <trkpt lat="48.78633" lon="-3.12197">
        <ele>52.1</ele>
        <time>2020-08-14T08:21:51Z</time>
      </trkpt>
      <trkpt lat="48.78641" lon="-3.12231">
        <ele>52.7</ele>
        <time>2020-08-14T08:22:02Z</time>
      </trkpt>
      <trkpt lat="48.78646" lon="-3.1225">
        <ele>54.2</ele>
        <time>2020-08-14T08:22:09Z</time>
      </trkpt>
      <trkpt lat="48.78656" lon="-3.12276">
        <ele>54.4</ele>
        <time>2020-08-14T08:22:19Z</time>
      </trkpt>
      <trkpt lat="48.78662" lon="-3.12292">
        <ele>54.7</ele>
        <time>2020-08-14T08:22:25Z</time>
      </trkpt>
      <trkpt lat="48.78672" lon="-3.12322">
        <ele>54.9</ele>
        <time>2020-08-14T08:22:36Z</time>
      </trkpt>
      <trkpt lat="48.78679" lon="-3.12348">
        <ele>55.1</ele>
        <time>2020-08-14T08:22:45Z</time>
      </trkpt>
      <trkpt lat="48.78689" lon="-3.12382">
        <ele>54.8</ele>
        <time>2020-08-14T08:22:56Z</time>
      </trkpt>
      <trkpt lat="48.787" lon="-3.12414">
        <ele>54.8</ele>
        <time>2020-08-14T08:23:06Z</time>
      </trkpt>
      <trkpt lat="48.78709" lon="-3.1243">
        <ele>55.2</ele>
        <time>2020-08-14T08:23:13Z</time>
      </trkpt>
      <trkpt lat="48.78709" lon="-3.1243">
        <ele>55.2</ele>
        <time>2020-08-14T08:23:15Z</time>
      </trkpt>
      <trkpt lat="48.78712" lon="-3.12438">
        <ele>55.1</ele>
        <time>2020-08-14T08:24:02Z</time>
      </trkpt>
      <trkpt lat="48.78723" lon="-3.12462">
        <ele>55</ele>
        <time>2020-08-14T08:24:08Z</time>
      </trkpt>
      <trkpt lat="48.78725" lon="-3.12468">
        <ele>54.9</ele>
        <time>2020-08-14T08:24:09Z</time>
      </trkpt>
      <trkpt lat="48.78737" lon="-3.12517">
        <ele>55</ele>
        <time>2020-08-14T08:24:15Z</time>
      </trkpt>
      <trkpt lat="48.7874" lon="-3.12566">
        <ele>55.4</ele>
        <time>2020-08-14T08:24:22Z</time>
      </trkpt>
      <trkpt lat="48.78738" lon="-3.12598">
        <ele>56.1</ele>
        <time>2020-08-14T08:24:28Z</time>
      </trkpt>
      <trkpt lat="48.7874" lon="-3.1264">
        <ele>56.9</ele>
        <time>2020-08-14T08:24:37Z</time>
      </trkpt>
      <trkpt lat="48.78748" lon="-3.1268">
        <ele>57.6</ele>
        <time>2020-08-14T08:24:47Z</time>
      </trkpt>
      <trkpt lat="48.78755" lon="-3.12717">
        <ele>57.1</ele>
        <time>2020-08-14T08:24:56Z</time>
      </trkpt>
      <trkpt lat="48.78761" lon="-3.12742">
        <ele>57.5</ele>
        <time>2020-08-14T08:25:03Z</time>
      </trkpt>
      <trkpt lat="48.78773" lon="-3.12783">
        <ele>58.1</ele>
        <time>2020-08-14T08:25:14Z</time>
      </trkpt>
      <trkpt lat="48.78785" lon="-3.12811">
        <ele>58.2</ele>
        <time>2020-08-14T08:25:22Z</time>
      </trkpt>
      <trkpt lat="48.78798" lon="-3.1283">
        <ele>58.1</ele>
        <time>2020-08-14T08:25:29Z</time>
      </trkpt>
      <trkpt lat="48.78818" lon="-3.12855">
        <ele>58.9</ele>
        <time>2020-08-14T08:25:38Z</time>
      </trkpt>
      <trkpt lat="48.78832" lon="-3.12878">
        <ele>59.2</ele>
        <time>2020-08-14T08:25:46Z</time>
      </trkpt>
      <trkpt lat="48.78842" lon="-3.129">
        <ele>59.6</ele>
        <time>2020-08-14T08:25:53Z</time>
      </trkpt>
      <trkpt lat="48.78855" lon="-3.12924">
        <ele>60.6</ele>
        <time>2020-08-14T08:26:00Z</time>
      </trkpt>
      <trkpt lat="48.78873" lon="-3.12951">
        <ele>60.9</ele>
        <time>2020-08-14T08:26:09Z</time>
      </trkpt>
      <trkpt lat="48.78893" lon="-3.12971">
        <ele>61.2</ele>
        <time>2020-08-14T08:26:17Z</time>
      </trkpt>
      <trkpt lat="48.78921" lon="-3.13002">
        <ele>62.1</ele>
        <time>2020-08-14T08:26:29Z</time>
      </trkpt>
      <trkpt lat="48.78946" lon="-3.13028">
        <ele>62.4</ele>
        <time>2020-08-14T08:26:39Z</time>
      </trkpt>
      <trkpt lat="48.78967" lon="-3.13048">
        <ele>62.5</ele>
        <time>2020-08-14T08:26:48Z</time>
      </trkpt>
      <trkpt lat="48.78984" lon="-3.13063">
        <ele>62.7</ele>
        <time>2020-08-14T08:26:55Z</time>
      </trkpt>
      <trkpt lat="48.78998" lon="-3.1307">
        <ele>62.8</ele>
        <time>2020-08-14T08:27:01Z</time>
      </trkpt>
      <trkpt lat="48.79023" lon="-3.13086">
        <ele>63.8</ele>
        <time>2020-08-14T08:27:10Z</time>
      </trkpt>
      <trkpt lat="48.79048" lon="-3.13108">
        <ele>64.3</ele>
        <time>2020-08-14T08:27:20Z</time>
      </trkpt>
      <trkpt lat="48.79066" lon="-3.13129">
        <ele>64.5</ele>
        <time>2020-08-14T08:27:28Z</time>
      </trkpt>
      <trkpt lat="48.79087" lon="-3.1316">
        <ele>65.4</ele>
        <time>2020-08-14T08:27:38Z</time>
      </trkpt>
      <trkpt lat="48.79105" lon="-3.13185">
        <ele>66.4</ele>
        <time>2020-08-14T08:27:47Z</time>
      </trkpt>
      <trkpt lat="48.79121" lon="-3.13208">
        <ele>66.9</ele>
        <time>2020-08-14T08:27:55Z</time>
      </trkpt>
      <trkpt lat="48.79133" lon="-3.1323">
        <ele>67.3</ele>
        <time>2020-08-14T08:28:02Z</time>
      </trkpt>
      <trkpt lat="48.79155" lon="-3.13266">
        <ele>68</ele>
        <time>2020-08-14T08:28:13Z</time>
      </trkpt>
      <trkpt lat="48.79172" lon="-3.13289">
        <ele>68.7</ele>
        <time>2020-08-14T08:28:20Z</time>
      </trkpt>
      <trkpt lat="48.79197" lon="-3.13317">
        <ele>68.6</ele>
        <time>2020-08-14T08:28:29Z</time>
      </trkpt>
      <trkpt lat="48.79217" lon="-3.1333">
        <ele>68.7</ele>
        <time>2020-08-14T08:28:35Z</time>
      </trkpt>
      <trkpt lat="48.79245" lon="-3.13335">
        <ele>68.9</ele>
        <time>2020-08-14T08:28:43Z</time>
      </trkpt>
      <trkpt lat="48.79259" lon="-3.13345">
        <ele>69.8</ele>
        <time>2020-08-14T08:28:49Z</time>
      </trkpt>
      <trkpt lat="48.79282" lon="-3.13362">
        <ele>70.5</ele>
        <time>2020-08-14T08:28:57Z</time>
      </trkpt>
      <trkpt lat="48.79309" lon="-3.13388">
        <ele>71.2</ele>
        <time>2020-08-14T08:29:07Z</time>
      </trkpt>
      <trkpt lat="48.79338" lon="-3.13414">
        <ele>73.1</ele>
        <time>2020-08-14T08:29:17Z</time>
      </trkpt>
      <trkpt lat="48.79371" lon="-3.1344">
        <ele>72.5</ele>
        <time>2020-08-14T08:29:28Z</time>
      </trkpt>
      <trkpt lat="48.79401" lon="-3.13464">
        <ele>72.2</ele>
        <time>2020-08-14T08:29:38Z</time>
      </trkpt>
      <trkpt lat="48.79428" lon="-3.13498">
        <ele>71.6</ele>
        <time>2020-08-14T08:29:47Z</time>
      </trkpt>
      <trkpt lat="48.79458" lon="-3.13542">
        <ele>72</ele>
        <time>2020-08-14T08:29:57Z</time>
      </trkpt>
      <trkpt lat="48.79475" lon="-3.13583">
        <ele>72.4</ele>
        <time>2020-08-14T08:30:05Z</time>
      </trkpt>
      <trkpt lat="48.79491" lon="-3.1365">
        <ele>73.3</ele>
        <time>2020-08-14T08:30:17Z</time>
      </trkpt>
      <trkpt lat="48.79498" lon="-3.13681">
        <ele>73.6</ele>
        <time>2020-08-14T08:30:24Z</time>
      </trkpt>
      <trkpt lat="48.79503" lon="-3.13707">
        <ele>74.2</ele>
        <time>2020-08-14T08:30:30Z</time>
      </trkpt>
      <trkpt lat="48.79511" lon="-3.13749">
        <ele>74.1</ele>
        <time>2020-08-14T08:30:39Z</time>
      </trkpt>
      <trkpt lat="48.79514" lon="-3.13793">
        <ele>74.2</ele>
        <time>2020-08-14T08:30:48Z</time>
      </trkpt>
      <trkpt lat="48.79514" lon="-3.13836">
        <ele>74.3</ele>
        <time>2020-08-14T08:30:56Z</time>
      </trkpt>
      <trkpt lat="48.79514" lon="-3.13884">
        <ele>74.7</ele>
        <time>2020-08-14T08:31:05Z</time>
      </trkpt>
      <trkpt lat="48.79516" lon="-3.13936">
        <ele>74.5</ele>
        <time>2020-08-14T08:31:15Z</time>
      </trkpt>
      <trkpt lat="48.79517" lon="-3.13999">
        <ele>73.6</ele>
        <time>2020-08-14T08:31:27Z</time>
      </trkpt>
      <trkpt lat="48.79519" lon="-3.14047">
        <ele>72.5</ele>
        <time>2020-08-14T08:31:36Z</time>
      </trkpt>
      <trkpt lat="48.79524" lon="-3.14113">
        <ele>72.4</ele>
        <time>2020-08-14T08:31:48Z</time>
      </trkpt>
      <trkpt lat="48.79527" lon="-3.14183">
        <ele>73</ele>
        <time>2020-08-14T08:32:00Z</time>
      </trkpt>
      <trkpt lat="48.79525" lon="-3.14226">
        <ele>72.8</ele>
        <time>2020-08-14T08:32:08Z</time>
      </trkpt>
      <trkpt lat="48.79521" lon="-3.14275">
        <ele>73</ele>
        <time>2020-08-14T08:32:17Z</time>
      </trkpt>
      <trkpt lat="48.79519" lon="-3.14332">
        <ele>73.6</ele>
        <time>2020-08-14T08:32:27Z</time>
      </trkpt>
      <trkpt lat="48.79523" lon="-3.14372">
        <ele>74.3</ele>
        <time>2020-08-14T08:32:34Z</time>
      </trkpt>
      <trkpt lat="48.7953" lon="-3.14406">
        <ele>74.4</ele>
        <time>2020-08-14T08:32:41Z</time>
      </trkpt>
      <trkpt lat="48.79533" lon="-3.14421">
        <ele>74.9</ele>
        <time>2020-08-14T08:32:46Z</time>
      </trkpt>
      <trkpt lat="48.79541" lon="-3.14455">
        <ele>75</ele>
        <time>2020-08-14T08:32:57Z</time>
      </trkpt>
      <trkpt lat="48.79546" lon="-3.14478">
        <ele>75.1</ele>
        <time>2020-08-14T08:33:05Z</time>
      </trkpt>
      <trkpt lat="48.79551" lon="-3.14498">
        <ele>75.1</ele>
        <time>2020-08-14T08:33:12Z</time>
      </trkpt>
      <trkpt lat="48.79557" lon="-3.14523">
        <ele>75.6</ele>
        <time>2020-08-14T08:33:21Z</time>
      </trkpt>
      <trkpt lat="48.79568" lon="-3.14553">
        <ele>75.8</ele>
        <time>2020-08-14T08:33:32Z</time>
      </trkpt>
      <trkpt lat="48.79577" lon="-3.14581">
        <ele>75.9</ele>
        <time>2020-08-14T08:33:41Z</time>
      </trkpt>
      <trkpt lat="48.79584" lon="-3.14612">
        <ele>75.9</ele>
        <time>2020-08-14T08:33:50Z</time>
      </trkpt>
      <trkpt lat="48.79589" lon="-3.14641">
        <ele>75.8</ele>
        <time>2020-08-14T08:33:57Z</time>
      </trkpt>
      <trkpt lat="48.79593" lon="-3.14688">
        <ele>75.9</ele>
        <time>2020-08-14T08:34:07Z</time>
      </trkpt>
      <trkpt lat="48.79593" lon="-3.14722">
        <ele>76.1</ele>
        <time>2020-08-14T08:34:17Z</time>
      </trkpt>
      <trkpt lat="48.79591" lon="-3.14747">
        <ele>76.6</ele>
        <time>2020-08-14T08:34:23Z</time>
      </trkpt>
      <trkpt lat="48.79586" lon="-3.14766">
        <ele>76.8</ele>
        <time>2020-08-14T08:34:28Z</time>
      </trkpt>
      <trkpt lat="48.79574" lon="-3.14779">
        <ele>77.4</ele>
        <time>2020-08-14T08:34:34Z</time>
      </trkpt>
      <trkpt lat="48.79569" lon="-3.14786">
        <ele>77.4</ele>
        <time>2020-08-14T08:34:38Z</time>
      </trkpt>
      <trkpt lat="48.79569" lon="-3.14786">
        <ele>77.4</ele>
        <time>2020-08-14T08:34:39Z</time>
      </trkpt>
      <trkpt lat="48.79568" lon="-3.14786">
        <ele>77.4</ele>
        <time>2020-08-14T08:39:00Z</time>
      </trkpt>
      <trkpt lat="48.7956" lon="-3.14792">
        <ele>77.5</ele>
        <time>2020-08-14T08:39:13Z</time>
      </trkpt>
      <trkpt lat="48.79551" lon="-3.14815">
        <ele>77.7</ele>
        <time>2020-08-14T08:39:20Z</time>
      </trkpt>
      <trkpt lat="48.79542" lon="-3.14845">
        <ele>78.5</ele>
        <time>2020-08-14T08:39:28Z</time>
      </trkpt>
      <trkpt lat="48.79531" lon="-3.14877">
        <ele>78.6</ele>
        <time>2020-08-14T08:39:37Z</time>
      </trkpt>
      <trkpt lat="48.7952" lon="-3.14903">
        <ele>78.7</ele>
        <time>2020-08-14T08:39:46Z</time>
      </trkpt>
      <trkpt lat="48.79508" lon="-3.14923">
        <ele>78.8</ele>
        <time>2020-08-14T08:39:54Z</time>
      </trkpt>
      <trkpt lat="48.79497" lon="-3.1494">
        <ele>78.8</ele>
        <time>2020-08-14T08:40:01Z</time>
      </trkpt>
      <trkpt lat="48.79486" lon="-3.14958">
        <ele>78.7</ele>
        <time>2020-08-14T08:40:08Z</time>
      </trkpt>
      <trkpt lat="48.79472" lon="-3.14985">
        <ele>78.6</ele>
        <time>2020-08-14T08:40:18Z</time>
      </trkpt>
      <trkpt lat="48.79461" lon="-3.15011">
        <ele>78.7</ele>
        <time>2020-08-14T08:40:26Z</time>
      </trkpt>
      <trkpt lat="48.79455" lon="-3.15038">
        <ele>78.8</ele>
        <time>2020-08-14T08:40:33Z</time>
      </trkpt>
      <trkpt lat="48.79447" lon="-3.15074">
        <ele>78.9</ele>
        <time>2020-08-14T08:40:42Z</time>
      </trkpt>
      <trkpt lat="48.79441" lon="-3.15109">
        <ele>78.8</ele>
        <time>2020-08-14T08:40:50Z</time>
      </trkpt>
      <trkpt lat="48.79437" lon="-3.15142">
        <ele>78.6</ele>
        <time>2020-08-14T08:40:58Z</time>
      </trkpt>
      <trkpt lat="48.79433" lon="-3.15175">
        <ele>78.5</ele>
        <time>2020-08-14T08:41:07Z</time>
      </trkpt>
      <trkpt lat="48.79433" lon="-3.1519">
        <ele>78.7</ele>
        <time>2020-08-14T08:41:12Z</time>
      </trkpt>
      <trkpt lat="48.79426" lon="-3.15214">
        <ele>78.9</ele>
        <time>2020-08-14T08:41:18Z</time>
      </trkpt>
      <trkpt lat="48.79409" lon="-3.15266">
        <ele>78.4</ele>
        <time>2020-08-14T08:41:29Z</time>
      </trkpt>
      <trkpt lat="48.79396" lon="-3.15306">
        <ele>78.1</ele>
        <time>2020-08-14T08:41:37Z</time>
      </trkpt>
      <trkpt lat="48.79382" lon="-3.1536">
        <ele>77.2</ele>
        <time>2020-08-14T08:41:47Z</time>
      </trkpt>
      <trkpt lat="48.79372" lon="-3.15424">
        <ele>76.7</ele>
        <time>2020-08-14T08:41:58Z</time>
      </trkpt>
      <trkpt lat="48.79361" lon="-3.1549">
        <ele>76.8</ele>
        <time>2020-08-14T08:42:09Z</time>
      </trkpt>
      <trkpt lat="48.7935" lon="-3.15544">
        <ele>76.9</ele>
        <time>2020-08-14T08:42:18Z</time>
      </trkpt>
      <trkpt lat="48.79341" lon="-3.15587">
        <ele>76.3</ele>
        <time>2020-08-14T08:42:26Z</time>
      </trkpt>
      <trkpt lat="48.79334" lon="-3.1562">
        <ele>76.6</ele>
        <time>2020-08-14T08:42:33Z</time>
      </trkpt>
      <trkpt lat="48.79335" lon="-3.15644">
        <ele>76.5</ele>
        <time>2020-08-14T08:42:39Z</time>
      </trkpt>
      <trkpt lat="48.79347" lon="-3.15662">
        <ele>76.5</ele>
        <time>2020-08-14T08:42:45Z</time>
      </trkpt>
      <trkpt lat="48.79353" lon="-3.15684">
        <ele>76.8</ele>
        <time>2020-08-14T08:42:51Z</time>
      </trkpt>
      <trkpt lat="48.79354" lon="-3.15701">
        <ele>77</ele>
        <time>2020-08-14T08:42:55Z</time>
      </trkpt>
      <trkpt lat="48.79352" lon="-3.1573">
        <ele>77.1</ele>
        <time>2020-08-14T08:43:00Z</time>
      </trkpt>
      <trkpt lat="48.79352" lon="-3.15751">
        <ele>76.9</ele>
        <time>2020-08-14T08:43:04Z</time>
      </trkpt>
      <trkpt lat="48.79348" lon="-3.15783">
        <ele>76.8</ele>
        <time>2020-08-14T08:43:09Z</time>
      </trkpt>
      <trkpt lat="48.79348" lon="-3.1579">
        <ele>76.7</ele>
        <time>2020-08-14T08:43:10Z</time>
      </trkpt>
      <trkpt lat="48.79346" lon="-3.15823">
        <ele>76.3</ele>
        <time>2020-08-14T08:43:16Z</time>
      </trkpt>
      <trkpt lat="48.79334" lon="-3.1584">
        <ele>75.8</ele>
        <time>2020-08-14T08:43:21Z</time>
      </trkpt>
      <trkpt lat="48.79297" lon="-3.15857">
        <ele>74</ele>
        <time>2020-08-14T08:43:29Z</time>
      </trkpt>
      <trkpt lat="48.79288" lon="-3.15861">
        <ele>73.8</ele>
        <time>2020-08-14T08:43:31Z</time>
      </trkpt>
      <trkpt lat="48.79234" lon="-3.15895">
        <ele>71.2</ele>
        <time>2020-08-14T08:43:42Z</time>
      </trkpt>
      <trkpt lat="48.79168" lon="-3.15935">
        <ele>68.8</ele>
        <time>2020-08-14T08:43:55Z</time>
      </trkpt>
      <trkpt lat="48.79104" lon="-3.15973">
        <ele>66.1</ele>
        <time>2020-08-14T08:44:07Z</time>
      </trkpt>
      <trkpt lat="48.79057" lon="-3.15996">
        <ele>63.9</ele>
        <time>2020-08-14T08:44:15Z</time>
      </trkpt>
      <trkpt lat="48.78991" lon="-3.16023">
        <ele>62</ele>
        <time>2020-08-14T08:44:25Z</time>
      </trkpt>
      <trkpt lat="48.78956" lon="-3.16043">
        <ele>62</ele>
        <time>2020-08-14T08:44:31Z</time>
      </trkpt>
      <trkpt lat="48.78935" lon="-3.16064">
        <ele>62.3</ele>
        <time>2020-08-14T08:44:36Z</time>
      </trkpt>
      <trkpt lat="48.78908" lon="-3.16101">
        <ele>62.9</ele>
        <time>2020-08-14T08:44:45Z</time>
      </trkpt>
      <trkpt lat="48.78886" lon="-3.16131">
        <ele>62.9</ele>
        <time>2020-08-14T08:44:54Z</time>
      </trkpt>
      <trkpt lat="48.78877" lon="-3.16145">
        <ele>62.8</ele>
        <time>2020-08-14T08:44:59Z</time>
      </trkpt>
      <trkpt lat="48.78875" lon="-3.16147">
        <ele>62.8</ele>
        <time>2020-08-14T08:45:00Z</time>
      </trkpt>
      <trkpt lat="48.78876" lon="-3.16154">
        <ele>62.8</ele>
        <time>2020-08-14T08:45:04Z</time>
      </trkpt>
      <trkpt lat="48.78877" lon="-3.16154">
        <ele>62.9</ele>
        <time>2020-08-14T08:45:06Z</time>
      </trkpt>
      <trkpt lat="48.78886" lon="-3.16163">
        <ele>63</ele>
        <time>2020-08-14T08:46:26Z</time>
      </trkpt>
      <trkpt lat="48.7889" lon="-3.16169">
        <ele>63.7</ele>
        <time>2020-08-14T08:46:29Z</time>
      </trkpt>
      <trkpt lat="48.78893" lon="-3.16184">
        <ele>63.8</ele>
        <time>2020-08-14T08:46:37Z</time>
      </trkpt>
      <trkpt lat="48.78898" lon="-3.162">
        <ele>63.9</ele>
        <time>2020-08-14T08:46:44Z</time>
      </trkpt>
      <trkpt lat="48.78901" lon="-3.16213">
        <ele>64</ele>
        <time>2020-08-14T08:46:50Z</time>
      </trkpt>
      <trkpt lat="48.78908" lon="-3.16238">
        <ele>64.5</ele>
        <time>2020-08-14T08:46:58Z</time>
      </trkpt>
      <trkpt lat="48.78917" lon="-3.16269">
        <ele>65.1</ele>
        <time>2020-08-14T08:47:07Z</time>
      </trkpt>
      <trkpt lat="48.78929" lon="-3.16307">
        <ele>65.2</ele>
        <time>2020-08-14T08:47:17Z</time>
      </trkpt>
      <trkpt lat="48.78949" lon="-3.16358">
        <ele>65.6</ele>
        <time>2020-08-14T08:47:29Z</time>
      </trkpt>
      <trkpt lat="48.78965" lon="-3.1639">
        <ele>65.8</ele>
        <time>2020-08-14T08:47:37Z</time>
      </trkpt>
      <trkpt lat="48.78985" lon="-3.16434">
        <ele>65.4</ele>
        <time>2020-08-14T08:47:48Z</time>
      </trkpt>
      <trkpt lat="48.79002" lon="-3.16477">
        <ele>65.9</ele>
        <time>2020-08-14T08:47:58Z</time>
      </trkpt>
      <trkpt lat="48.79015" lon="-3.16513">
        <ele>65.8</ele>
        <time>2020-08-14T08:48:06Z</time>
      </trkpt>
      <trkpt lat="48.7903" lon="-3.16542">
        <ele>66.2</ele>
        <time>2020-08-14T08:48:14Z</time>
      </trkpt>
      <trkpt lat="48.7905" lon="-3.16575">
        <ele>66.8</ele>
        <time>2020-08-14T08:48:24Z</time>
      </trkpt>
      <trkpt lat="48.79063" lon="-3.16601">
        <ele>67.7</ele>
        <time>2020-08-14T08:48:32Z</time>
      </trkpt>
      <trkpt lat="48.79076" lon="-3.16634">
        <ele>67.9</ele>
        <time>2020-08-14T08:48:41Z</time>
      </trkpt>
      <trkpt lat="48.79088" lon="-3.16666">
        <ele>69.3</ele>
        <time>2020-08-14T08:48:49Z</time>
      </trkpt>
      <trkpt lat="48.79102" lon="-3.16709">
        <ele>70.8</ele>
        <time>2020-08-14T08:48:59Z</time>
      </trkpt>
      <trkpt lat="48.79117" lon="-3.16753">
        <ele>71.3</ele>
        <time>2020-08-14T08:49:09Z</time>
      </trkpt>
      <trkpt lat="48.7913" lon="-3.1679">
        <ele>71.6</ele>
        <time>2020-08-14T08:49:18Z</time>
      </trkpt>
      <trkpt lat="48.79138" lon="-3.16814">
        <ele>71.6</ele>
        <time>2020-08-14T08:49:25Z</time>
      </trkpt>
      <trkpt lat="48.79149" lon="-3.16846">
        <ele>71.9</ele>
        <time>2020-08-14T08:49:35Z</time>
      </trkpt>
      <trkpt lat="48.79157" lon="-3.16871">
        <ele>72</ele>
        <time>2020-08-14T08:49:43Z</time>
      </trkpt>
      <trkpt lat="48.79166" lon="-3.16899">
        <ele>72.4</ele>
        <time>2020-08-14T08:49:52Z</time>
      </trkpt>
      <trkpt lat="48.79175" lon="-3.16929">
        <ele>73.6</ele>
        <time>2020-08-14T08:50:02Z</time>
      </trkpt>
      <trkpt lat="48.79183" lon="-3.16959">
        <ele>74.2</ele>
        <time>2020-08-14T08:50:11Z</time>
      </trkpt>
      <trkpt lat="48.79189" lon="-3.16978">
        <ele>74.4</ele>
        <time>2020-08-14T08:50:17Z</time>
      </trkpt>
      <trkpt lat="48.79195" lon="-3.17004">
        <ele>75.2</ele>
        <time>2020-08-14T08:50:25Z</time>
      </trkpt>
      <trkpt lat="48.79202" lon="-3.17035">
        <ele>75.2</ele>
        <time>2020-08-14T08:50:35Z</time>
      </trkpt>
      <trkpt lat="48.79208" lon="-3.17065">
        <ele>75.3</ele>
        <time>2020-08-14T08:50:45Z</time>
      </trkpt>
      <trkpt lat="48.79215" lon="-3.17089">
        <ele>75.8</ele>
        <time>2020-08-14T08:50:53Z</time>
      </trkpt>
      <trkpt lat="48.79221" lon="-3.17113">
        <ele>75.8</ele>
        <time>2020-08-14T08:51:01Z</time>
      </trkpt>
      <trkpt lat="48.79227" lon="-3.17138">
        <ele>76</ele>
        <time>2020-08-14T08:51:09Z</time>
      </trkpt>
      <trkpt lat="48.79234" lon="-3.17164">
        <ele>76</ele>
        <time>2020-08-14T08:51:17Z</time>
      </trkpt>
      <trkpt lat="48.79244" lon="-3.17189">
        <ele>76.7</ele>
        <time>2020-08-14T08:51:24Z</time>
      </trkpt>
      <trkpt lat="48.79263" lon="-3.17218">
        <ele>77.2</ele>
        <time>2020-08-14T08:51:33Z</time>
      </trkpt>
      <trkpt lat="48.79285" lon="-3.17238">
        <ele>77.3</ele>
        <time>2020-08-14T08:51:42Z</time>
      </trkpt>
      <trkpt lat="48.79317" lon="-3.17268">
        <ele>78.2</ele>
        <time>2020-08-14T08:51:54Z</time>
      </trkpt>
      <trkpt lat="48.79333" lon="-3.17293">
        <ele>78.4</ele>
        <time>2020-08-14T08:52:02Z</time>
      </trkpt>
      <trkpt lat="48.79347" lon="-3.17328">
        <ele>78.5</ele>
        <time>2020-08-14T08:52:11Z</time>
      </trkpt>
      <trkpt lat="48.79363" lon="-3.17368">
        <ele>78.6</ele>
        <time>2020-08-14T08:52:21Z</time>
      </trkpt>
      <trkpt lat="48.79371" lon="-3.1739">
        <ele>78.6</ele>
        <time>2020-08-14T08:52:27Z</time>
      </trkpt>
      <trkpt lat="48.79367" lon="-3.1741">
        <ele>78.8</ele>
        <time>2020-08-14T08:52:32Z</time>
      </trkpt>
      <trkpt lat="48.79352" lon="-3.17437">
        <ele>79.7</ele>
        <time>2020-08-14T08:52:40Z</time>
      </trkpt>
      <trkpt lat="48.79339" lon="-3.1746">
        <ele>79.9</ele>
        <time>2020-08-14T08:52:48Z</time>
      </trkpt>
      <trkpt lat="48.7933" lon="-3.17475">
        <ele>80.2</ele>
        <time>2020-08-14T08:52:54Z</time>
      </trkpt>
      <trkpt lat="48.79313" lon="-3.17499">
        <ele>80.3</ele>
        <time>2020-08-14T08:53:03Z</time>
      </trkpt>
      <trkpt lat="48.79297" lon="-3.17522">
        <ele>80.1</ele>
        <time>2020-08-14T08:53:12Z</time>
      </trkpt>
      <trkpt lat="48.79283" lon="-3.1754">
        <ele>79.9</ele>
        <time>2020-08-14T08:53:18Z</time>
      </trkpt>
      <trkpt lat="48.7926" lon="-3.17572">
        <ele>80</ele>
        <time>2020-08-14T08:53:28Z</time>
      </trkpt>
      <trkpt lat="48.79236" lon="-3.17605">
        <ele>80.4</ele>
        <time>2020-08-14T08:53:38Z</time>
      </trkpt>
      <trkpt lat="48.79221" lon="-3.17636">
        <ele>80.5</ele>
        <time>2020-08-14T08:53:45Z</time>
      </trkpt>
      <trkpt lat="48.79217" lon="-3.17671">
        <ele>80.3</ele>
        <time>2020-08-14T08:53:52Z</time>
      </trkpt>
      <trkpt lat="48.79215" lon="-3.17721">
        <ele>80</ele>
        <time>2020-08-14T08:54:02Z</time>
      </trkpt>
      <trkpt lat="48.79207" lon="-3.17763">
        <ele>79.3</ele>
        <time>2020-08-14T08:54:10Z</time>
      </trkpt>
      <trkpt lat="48.79204" lon="-3.17774">
        <ele>79.3</ele>
        <time>2020-08-14T08:54:12Z</time>
      </trkpt>
      <trkpt lat="48.79182" lon="-3.17829">
        <ele>79.1</ele>
        <time>2020-08-14T08:54:22Z</time>
      </trkpt>
      <trkpt lat="48.79158" lon="-3.17864">
        <ele>77.9</ele>
        <time>2020-08-14T08:54:29Z</time>
      </trkpt>
      <trkpt lat="48.7913" lon="-3.17895">
        <ele>77.6</ele>
        <time>2020-08-14T08:54:36Z</time>
      </trkpt>
      <trkpt lat="48.79106" lon="-3.17915">
        <ele>77.3</ele>
        <time>2020-08-14T08:54:41Z</time>
      </trkpt>
      <trkpt lat="48.79064" lon="-3.17954">
        <ele>75.8</ele>
        <time>2020-08-14T08:54:49Z</time>
      </trkpt>
      <trkpt lat="48.79037" lon="-3.17993">
        <ele>75.2</ele>
        <time>2020-08-14T08:54:55Z</time>
      </trkpt>
      <trkpt lat="48.78999" lon="-3.18055">
        <ele>73.6</ele>
        <time>2020-08-14T08:55:05Z</time>
      </trkpt>
      <trkpt lat="48.78995" lon="-3.18061">
        <ele>73.6</ele>
        <time>2020-08-14T08:55:06Z</time>
      </trkpt>
      <trkpt lat="48.78985" lon="-3.18093">
        <ele>73.5</ele>
        <time>2020-08-14T08:55:10Z</time>
      </trkpt>
      <trkpt lat="48.78988" lon="-3.1812">
        <ele>73.3</ele>
        <time>2020-08-14T08:55:13Z</time>
      </trkpt>
      <trkpt lat="48.79002" lon="-3.18165">
        <ele>74.1</ele>
        <time>2020-08-14T08:55:19Z</time>
      </trkpt>
      <trkpt lat="48.79009" lon="-3.18216">
        <ele>74.1</ele>
        <time>2020-08-14T08:55:27Z</time>
      </trkpt>
      <trkpt lat="48.79021" lon="-3.18259">
        <ele>73.5</ele>
        <time>2020-08-14T08:55:34Z</time>
      </trkpt>
      <trkpt lat="48.79038" lon="-3.18297">
        <ele>73.7</ele>
        <time>2020-08-14T08:55:42Z</time>
      </trkpt>
      <trkpt lat="48.79053" lon="-3.1833">
        <ele>73.8</ele>
        <time>2020-08-14T08:55:49Z</time>
      </trkpt>
      <trkpt lat="48.79058" lon="-3.1837">
        <ele>73.1</ele>
        <time>2020-08-14T08:55:56Z</time>
      </trkpt>
      <trkpt lat="48.79069" lon="-3.18428">
        <ele>72.4</ele>
        <time>2020-08-14T08:56:05Z</time>
      </trkpt>
      <trkpt lat="48.79082" lon="-3.18493">
        <ele>71.9</ele>
        <time>2020-08-14T08:56:15Z</time>
      </trkpt>
      <trkpt lat="48.7909" lon="-3.18537">
        <ele>71.6</ele>
        <time>2020-08-14T08:56:22Z</time>
      </trkpt>
      <trkpt lat="48.79093" lon="-3.18594">
        <ele>70.1</ele>
        <time>2020-08-14T08:56:31Z</time>
      </trkpt>
      <trkpt lat="48.79097" lon="-3.18657">
        <ele>69.1</ele>
        <time>2020-08-14T08:56:40Z</time>
      </trkpt>
      <trkpt lat="48.79106" lon="-3.1872">
        <ele>69.1</ele>
        <time>2020-08-14T08:56:49Z</time>
      </trkpt>
      <trkpt lat="48.79114" lon="-3.18783">
        <ele>69.6</ele>
        <time>2020-08-14T08:56:59Z</time>
      </trkpt>
      <trkpt lat="48.79112" lon="-3.1883">
        <ele>69.8</ele>
        <time>2020-08-14T08:57:07Z</time>
      </trkpt>
      <trkpt lat="48.79105" lon="-3.18874">
        <ele>69.5</ele>
        <time>2020-08-14T08:57:15Z</time>
      </trkpt>
      <trkpt lat="48.79095" lon="-3.18926">
        <ele>68.9</ele>
        <time>2020-08-14T08:57:24Z</time>
      </trkpt>
      <trkpt lat="48.79094" lon="-3.18971">
        <ele>68.6</ele>
        <time>2020-08-14T08:57:32Z</time>
      </trkpt>
      <trkpt lat="48.791" lon="-3.19011">
        <ele>68.2</ele>
        <time>2020-08-14T08:57:40Z</time>
      </trkpt>
      <trkpt lat="48.79105" lon="-3.19039">
        <ele>68.2</ele>
        <time>2020-08-14T08:57:46Z</time>
      </trkpt>
      <trkpt lat="48.7911" lon="-3.19071">
        <ele>68.1</ele>
        <time>2020-08-14T08:57:53Z</time>
      </trkpt>
      <trkpt lat="48.79111" lon="-3.19099">
        <ele>67.7</ele>
        <time>2020-08-14T08:57:59Z</time>
      </trkpt>
      <trkpt lat="48.79104" lon="-3.19144">
        <ele>67.4</ele>
        <time>2020-08-14T08:58:07Z</time>
      </trkpt>
      <trkpt lat="48.79089" lon="-3.19207">
        <ele>66.7</ele>
        <time>2020-08-14T08:58:17Z</time>
      </trkpt>
      <trkpt lat="48.79083" lon="-3.19258">
        <ele>66</ele>
        <time>2020-08-14T08:58:24Z</time>
      </trkpt>
      <trkpt lat="48.7908" lon="-3.19319">
        <ele>67.1</ele>
        <time>2020-08-14T08:58:33Z</time>
      </trkpt>
      <trkpt lat="48.79078" lon="-3.19352">
        <ele>67.6</ele>
        <time>2020-08-14T08:58:39Z</time>
      </trkpt>
      <trkpt lat="48.79072" lon="-3.19383">
        <ele>67.7</ele>
        <time>2020-08-14T08:58:46Z</time>
      </trkpt>
      <trkpt lat="48.79063" lon="-3.19413">
        <ele>68</ele>
        <time>2020-08-14T08:58:53Z</time>
      </trkpt>
      <trkpt lat="48.79056" lon="-3.19441">
        <ele>68.2</ele>
        <time>2020-08-14T08:59:00Z</time>
      </trkpt>
      <trkpt lat="48.79043" lon="-3.19488">
        <ele>68</ele>
        <time>2020-08-14T08:59:11Z</time>
      </trkpt>
      <trkpt lat="48.79035" lon="-3.19519">
        <ele>67.6</ele>
        <time>2020-08-14T08:59:18Z</time>
      </trkpt>
      <trkpt lat="48.79031" lon="-3.19539">
        <ele>67.6</ele>
        <time>2020-08-14T08:59:24Z</time>
      </trkpt>
      <trkpt lat="48.7903" lon="-3.19571">
        <ele>67.5</ele>
        <time>2020-08-14T08:59:32Z</time>
      </trkpt>
      <trkpt lat="48.79027" lon="-3.19601">
        <ele>67</ele>
        <time>2020-08-14T08:59:39Z</time>
      </trkpt>
      <trkpt lat="48.79022" lon="-3.19628">
        <ele>66.9</ele>
        <time>2020-08-14T08:59:46Z</time>
      </trkpt>
      <trkpt lat="48.79019" lon="-3.1966">
        <ele>66.9</ele>
        <time>2020-08-14T08:59:54Z</time>
      </trkpt>
      <trkpt lat="48.79014" lon="-3.19699">
        <ele>66.9</ele>
        <time>2020-08-14T09:00:02Z</time>
      </trkpt>
      <trkpt lat="48.79007" lon="-3.19743">
        <ele>67.6</ele>
        <time>2020-08-14T09:00:10Z</time>
      </trkpt>
      <trkpt lat="48.78994" lon="-3.19808">
        <ele>66.8</ele>
        <time>2020-08-14T09:00:22Z</time>
      </trkpt>
      <trkpt lat="48.78987" lon="-3.19846">
        <ele>66.5</ele>
        <time>2020-08-14T09:00:30Z</time>
      </trkpt>
      <trkpt lat="48.78983" lon="-3.19884">
        <ele>66.3</ele>
        <time>2020-08-14T09:00:38Z</time>
      </trkpt>
      <trkpt lat="48.7898" lon="-3.19933">
        <ele>66</ele>
        <time>2020-08-14T09:00:48Z</time>
      </trkpt>
      <trkpt lat="48.78978" lon="-3.19952">
        <ele>65.8</ele>
        <time>2020-08-14T09:00:53Z</time>
      </trkpt>
      <trkpt lat="48.78978" lon="-3.19952">
        <ele>65.8</ele>
        <time>2020-08-14T09:00:55Z</time>
      </trkpt>
      <trkpt lat="48.78977" lon="-3.19956">
        <ele>65.7</ele>
        <time>2020-08-14T09:01:07Z</time>
      </trkpt>
      <trkpt lat="48.78975" lon="-3.19955">
        <ele>65.7</ele>
        <time>2020-08-14T09:01:41Z</time>
      </trkpt>
      <trkpt lat="48.78974" lon="-3.19959">
        <ele>65.7</ele>
        <time>2020-08-14T09:02:08Z</time>
      </trkpt>
      <trkpt lat="48.78974" lon="-3.19964">
        <ele>65.6</ele>
        <time>2020-08-14T09:02:14Z</time>
      </trkpt>
      <trkpt lat="48.78974" lon="-3.19969">
        <ele>65.6</ele>
        <time>2020-08-14T09:02:16Z</time>
      </trkpt>
      <trkpt lat="48.78981" lon="-3.19987">
        <ele>65.7</ele>
        <time>2020-08-14T09:02:21Z</time>
      </trkpt>
      <trkpt lat="48.79007" lon="-3.20012">
        <ele>65.4</ele>
        <time>2020-08-14T09:02:31Z</time>
      </trkpt>
      <trkpt lat="48.79032" lon="-3.20037">
        <ele>64.6</ele>
        <time>2020-08-14T09:02:40Z</time>
      </trkpt>
      <trkpt lat="48.79061" lon="-3.20058">
        <ele>64.1</ele>
        <time>2020-08-14T09:02:49Z</time>
      </trkpt>
      <trkpt lat="48.7909" lon="-3.20059">
        <ele>63.8</ele>
        <time>2020-08-14T09:02:57Z</time>
      </trkpt>
      <trkpt lat="48.79124" lon="-3.20044">
        <ele>64.2</ele>
        <time>2020-08-14T09:03:05Z</time>
      </trkpt>
      <trkpt lat="48.79134" lon="-3.2004">
        <ele>64.3</ele>
        <time>2020-08-14T09:03:07Z</time>
      </trkpt>
      <trkpt lat="48.79165" lon="-3.20041">
        <ele>64.4</ele>
        <time>2020-08-14T09:03:14Z</time>
      </trkpt>
      <trkpt lat="48.7919" lon="-3.20046">
        <ele>64.7</ele>
        <time>2020-08-14T09:03:21Z</time>
      </trkpt>
      <trkpt lat="48.7921" lon="-3.20047">
        <ele>64.7</ele>
        <time>2020-08-14T09:03:27Z</time>
      </trkpt>
      <trkpt lat="48.79237" lon="-3.20051">
        <ele>64.8</ele>
        <time>2020-08-14T09:03:35Z</time>
      </trkpt>
      <trkpt lat="48.79261" lon="-3.20056">
        <ele>65.5</ele>
        <time>2020-08-14T09:03:42Z</time>
      </trkpt>
      <trkpt lat="48.79286" lon="-3.20052">
        <ele>65.7</ele>
        <time>2020-08-14T09:03:50Z</time>
      </trkpt>
      <trkpt lat="48.79308" lon="-3.20039">
        <ele>65.9</ele>
        <time>2020-08-14T09:03:57Z</time>
      </trkpt>
      <trkpt lat="48.79327" lon="-3.20042">
        <ele>66</ele>
        <time>2020-08-14T09:04:02Z</time>
      </trkpt>
      <trkpt lat="48.79357" lon="-3.20049">
        <ele>66.8</ele>
        <time>2020-08-14T09:04:10Z</time>
      </trkpt>
      <trkpt lat="48.79388" lon="-3.20059">
        <ele>67</ele>
        <time>2020-08-14T09:04:19Z</time>
      </trkpt>
      <trkpt lat="48.79408" lon="-3.20072">
        <ele>67</ele>
        <time>2020-08-14T09:04:25Z</time>
      </trkpt>
      <trkpt lat="48.79425" lon="-3.20082">
        <ele>67.1</ele>
        <time>2020-08-14T09:04:31Z</time>
      </trkpt>
      <trkpt lat="48.79454" lon="-3.20095">
        <ele>66.8</ele>
        <time>2020-08-14T09:04:41Z</time>
      </trkpt>
      <trkpt lat="48.79465" lon="-3.2011">
        <ele>66.8</ele>
        <time>2020-08-14T09:04:46Z</time>
      </trkpt>
      <trkpt lat="48.79466" lon="-3.20134">
        <ele>66.8</ele>
        <time>2020-08-14T09:04:52Z</time>
      </trkpt>
      <trkpt lat="48.79462" lon="-3.20153">
        <ele>66.7</ele>
        <time>2020-08-14T09:04:57Z</time>
      </trkpt>
      <trkpt lat="48.79448" lon="-3.2019">
        <ele>66</ele>
        <time>2020-08-14T09:05:05Z</time>
      </trkpt>
      <trkpt lat="48.79439" lon="-3.20225">
        <ele>65.8</ele>
        <time>2020-08-14T09:05:11Z</time>
      </trkpt>
      <trkpt lat="48.79436" lon="-3.2028">
        <ele>65.4</ele>
        <time>2020-08-14T09:05:20Z</time>
      </trkpt>
      <trkpt lat="48.79437" lon="-3.20332">
        <ele>65.3</ele>
        <time>2020-08-14T09:05:28Z</time>
      </trkpt>
      <trkpt lat="48.7943" lon="-3.20372">
        <ele>65.3</ele>
        <time>2020-08-14T09:05:35Z</time>
      </trkpt>
      <trkpt lat="48.79414" lon="-3.2041">
        <ele>65.7</ele>
        <time>2020-08-14T09:05:43Z</time>
      </trkpt>
      <trkpt lat="48.79395" lon="-3.20449">
        <ele>65.2</ele>
        <time>2020-08-14T09:05:51Z</time>
      </trkpt>
      <trkpt lat="48.79374" lon="-3.20493">
        <ele>65</ele>
        <time>2020-08-14T09:06:00Z</time>
      </trkpt>
      <trkpt lat="48.79357" lon="-3.20526">
        <ele>64.2</ele>
        <time>2020-08-14T09:06:07Z</time>
      </trkpt>
      <trkpt lat="48.79343" lon="-3.20572">
        <ele>63.5</ele>
        <time>2020-08-14T09:06:15Z</time>
      </trkpt>
      <trkpt lat="48.79336" lon="-3.20613">
        <ele>62.9</ele>
        <time>2020-08-14T09:06:22Z</time>
      </trkpt>
      <trkpt lat="48.79337" lon="-3.20639">
        <ele>62.7</ele>
        <time>2020-08-14T09:06:26Z</time>
      </trkpt>
      <trkpt lat="48.79346" lon="-3.20683">
        <ele>62</ele>
        <time>2020-08-14T09:06:33Z</time>
      </trkpt>
      <trkpt lat="48.79351" lon="-3.20701">
        <ele>61.9</ele>
        <time>2020-08-14T09:06:39Z</time>
      </trkpt>
      <trkpt lat="48.79355" lon="-3.20723">
        <ele>61.8</ele>
        <time>2020-08-14T09:06:46Z</time>
      </trkpt>
      <trkpt lat="48.79357" lon="-3.20733">
        <ele>61.7</ele>
        <time>2020-08-14T09:06:50Z</time>
      </trkpt>
      <trkpt lat="48.79357" lon="-3.20733">
        <ele>61.7</ele>
        <time>2020-08-14T09:06:51Z</time>
      </trkpt>
      <trkpt lat="48.79359" lon="-3.2076">
        <ele>61.2</ele>
        <time>2020-08-14T09:08:44Z</time>
      </trkpt>
      <trkpt lat="48.79362" lon="-3.2079">
        <ele>61.2</ele>
        <time>2020-08-14T09:08:49Z</time>
      </trkpt>
      <trkpt lat="48.79367" lon="-3.20844">
        <ele>60.5</ele>
        <time>2020-08-14T09:08:57Z</time>
      </trkpt>
      <trkpt lat="48.79364" lon="-3.2088">
        <ele>60.2</ele>
        <time>2020-08-14T09:09:03Z</time>
      </trkpt>
      <trkpt lat="48.79351" lon="-3.20922">
        <ele>59.2</ele>
        <time>2020-08-14T09:09:10Z</time>
      </trkpt>
      <trkpt lat="48.79331" lon="-3.20981">
        <ele>58.6</ele>
        <time>2020-08-14T09:09:19Z</time>
      </trkpt>
      <trkpt lat="48.79317" lon="-3.2102">
        <ele>57.5</ele>
        <time>2020-08-14T09:09:25Z</time>
      </trkpt>
      <trkpt lat="48.79302" lon="-3.21078">
        <ele>56.9</ele>
        <time>2020-08-14T09:09:33Z</time>
      </trkpt>
      <trkpt lat="48.79281" lon="-3.2116">
        <ele>56.4</ele>
        <time>2020-08-14T09:09:43Z</time>
      </trkpt>
      <trkpt lat="48.7926" lon="-3.21231">
        <ele>55.6</ele>
        <time>2020-08-14T09:09:52Z</time>
      </trkpt>
      <trkpt lat="48.79241" lon="-3.21288">
        <ele>54.7</ele>
        <time>2020-08-14T09:10:00Z</time>
      </trkpt>
      <trkpt lat="48.79221" lon="-3.21347">
        <ele>54.1</ele>
        <time>2020-08-14T09:10:09Z</time>
      </trkpt>
      <trkpt lat="48.79203" lon="-3.21402">
        <ele>53.6</ele>
        <time>2020-08-14T09:10:18Z</time>
      </trkpt>
      <trkpt lat="48.79194" lon="-3.21425">
        <ele>53</ele>
        <time>2020-08-14T09:10:23Z</time>
      </trkpt>
      <trkpt lat="48.79185" lon="-3.2144">
        <ele>52.9</ele>
        <time>2020-08-14T09:10:29Z</time>
      </trkpt>
      <trkpt lat="48.79184" lon="-3.21441">
        <ele>52.9</ele>
        <time>2020-08-14T09:10:31Z</time>
      </trkpt>
      <trkpt lat="48.79179" lon="-3.21433">
        <ele>52.7</ele>
        <time>2020-08-14T09:10:35Z</time>
      </trkpt>
      <trkpt lat="48.79174" lon="-3.21419">
        <ele>52.3</ele>
        <time>2020-08-14T09:10:37Z</time>
      </trkpt>
      <trkpt lat="48.79159" lon="-3.21386">
        <ele>52.4</ele>
        <time>2020-08-14T09:10:41Z</time>
      </trkpt>
      <trkpt lat="48.79144" lon="-3.21349">
        <ele>52.7</ele>
        <time>2020-08-14T09:10:47Z</time>
      </trkpt>
      <trkpt lat="48.79135" lon="-3.21325">
        <ele>53.9</ele>
        <time>2020-08-14T09:10:53Z</time>
      </trkpt>
      <trkpt lat="48.79126" lon="-3.21298">
        <ele>54.2</ele>
        <time>2020-08-14T09:11:01Z</time>
      </trkpt>
      <trkpt lat="48.79118" lon="-3.21274">
        <ele>54.4</ele>
        <time>2020-08-14T09:11:08Z</time>
      </trkpt>
      <trkpt lat="48.79102" lon="-3.21253">
        <ele>54.7</ele>
        <time>2020-08-14T09:11:15Z</time>
      </trkpt>
      <trkpt lat="48.79079" lon="-3.21235">
        <ele>55.3</ele>
        <time>2020-08-14T09:11:24Z</time>
      </trkpt>
      <trkpt lat="48.7906" lon="-3.21227">
        <ele>55.4</ele>
        <time>2020-08-14T09:11:32Z</time>
      </trkpt>
      <trkpt lat="48.79045" lon="-3.2122">
        <ele>55.4</ele>
        <time>2020-08-14T09:11:39Z</time>
      </trkpt>
      <trkpt lat="48.79026" lon="-3.21215">
        <ele>55.3</ele>
        <time>2020-08-14T09:11:47Z</time>
      </trkpt>
      <trkpt lat="48.79004" lon="-3.2121">
        <ele>55.3</ele>
        <time>2020-08-14T09:11:54Z</time>
      </trkpt>
      <trkpt lat="48.78989" lon="-3.21212">
        <ele>55.3</ele>
        <time>2020-08-14T09:11:59Z</time>
      </trkpt>
      <trkpt lat="48.78982" lon="-3.21224">
        <ele>55.1</ele>
        <time>2020-08-14T09:12:03Z</time>
      </trkpt>
      <trkpt lat="48.78972" lon="-3.21256">
        <ele>54.5</ele>
        <time>2020-08-14T09:12:11Z</time>
      </trkpt>
      <trkpt lat="48.78959" lon="-3.21274">
        <ele>54.6</ele>
        <time>2020-08-14T09:12:17Z</time>
      </trkpt>
      <trkpt lat="48.7894" lon="-3.2127">
        <ele>54.9</ele>
        <time>2020-08-14T09:12:23Z</time>
      </trkpt>
      <trkpt lat="48.78925" lon="-3.21275">
        <ele>55.1</ele>
        <time>2020-08-14T09:12:28Z</time>
      </trkpt>
      <trkpt lat="48.78908" lon="-3.2129">
        <ele>54.5</ele>
        <time>2020-08-14T09:12:35Z</time>
      </trkpt>
      <trkpt lat="48.78886" lon="-3.21305">
        <ele>54.1</ele>
        <time>2020-08-14T09:12:43Z</time>
      </trkpt>
      <trkpt lat="48.78866" lon="-3.21311">
        <ele>53.7</ele>
        <time>2020-08-14T09:12:49Z</time>
      </trkpt>
      <trkpt lat="48.78837" lon="-3.21314">
        <ele>53</ele>
        <time>2020-08-14T09:12:55Z</time>
      </trkpt>
      <trkpt lat="48.7881" lon="-3.21313">
        <ele>52</ele>
        <time>2020-08-14T09:13:00Z</time>
      </trkpt>
      <trkpt lat="48.78789" lon="-3.21318">
        <ele>51.8</ele>
        <time>2020-08-14T09:13:04Z</time>
      </trkpt>
      <trkpt lat="48.78756" lon="-3.21311">
        <ele>51.6</ele>
        <time>2020-08-14T09:13:11Z</time>
      </trkpt>
      <trkpt lat="48.78717" lon="-3.21286">
        <ele>51.1</ele>
        <time>2020-08-14T09:13:21Z</time>
      </trkpt>
      <trkpt lat="48.78695" lon="-3.21272">
        <ele>51</ele>
        <time>2020-08-14T09:13:28Z</time>
      </trkpt>
      <trkpt lat="48.78673" lon="-3.21264">
        <ele>51</ele>
        <time>2020-08-14T09:13:36Z</time>
      </trkpt>
      <trkpt lat="48.78654" lon="-3.21252">
        <ele>49.9</ele>
        <time>2020-08-14T09:13:44Z</time>
      </trkpt>
      <trkpt lat="48.78646" lon="-3.21247">
        <ele>49.4</ele>
        <time>2020-08-14T09:13:48Z</time>
      </trkpt>
      <trkpt lat="48.78637" lon="-3.21257">
        <ele>49</ele>
        <time>2020-08-14T09:13:52Z</time>
      </trkpt>
      <trkpt lat="48.78614" lon="-3.21303">
        <ele>48.2</ele>
        <time>2020-08-14T09:13:59Z</time>
      </trkpt>
      <trkpt lat="48.7859" lon="-3.21358">
        <ele>48.5</ele>
        <time>2020-08-14T09:14:06Z</time>
      </trkpt>
      <trkpt lat="48.78569" lon="-3.21403">
        <ele>46.8</ele>
        <time>2020-08-14T09:14:13Z</time>
      </trkpt>
      <trkpt lat="48.78557" lon="-3.21434">
        <ele>46.9</ele>
        <time>2020-08-14T09:14:19Z</time>
      </trkpt>
      <trkpt lat="48.78542" lon="-3.21469">
        <ele>46</ele>
        <time>2020-08-14T09:14:26Z</time>
      </trkpt>
      <trkpt lat="48.78527" lon="-3.21506">
        <ele>43.9</ele>
        <time>2020-08-14T09:14:32Z</time>
      </trkpt>
      <trkpt lat="48.78509" lon="-3.21545">
        <ele>43.1</ele>
        <time>2020-08-14T09:14:38Z</time>
      </trkpt>
      <trkpt lat="48.78487" lon="-3.21591">
        <ele>35</ele>
        <time>2020-08-14T09:14:46Z</time>
      </trkpt>
      <trkpt lat="48.7847" lon="-3.21635">
        <ele>29.9</ele>
        <time>2020-08-14T09:14:52Z</time>
      </trkpt>
      <trkpt lat="48.7847" lon="-3.2168">
        <ele>25.4</ele>
        <time>2020-08-14T09:14:57Z</time>
      </trkpt>
      <trkpt lat="48.78478" lon="-3.21745">
        <ele>23.1</ele>
        <time>2020-08-14T09:15:05Z</time>
      </trkpt>
      <trkpt lat="48.7849" lon="-3.21824">
        <ele>15.9</ele>
        <time>2020-08-14T09:15:15Z</time>
      </trkpt>
      <trkpt lat="48.78495" lon="-3.21867">
        <ele>11</ele>
        <time>2020-08-14T09:15:21Z</time>
      </trkpt>
      <trkpt lat="48.78496" lon="-3.21897">
        <ele>8.5</ele>
        <time>2020-08-14T09:15:27Z</time>
      </trkpt>
      <trkpt lat="48.78495" lon="-3.21901">
        <ele>8.2</ele>
        <time>2020-08-14T09:15:28Z</time>
      </trkpt>
      <trkpt lat="48.78486" lon="-3.21911">
        <ele>7.9</ele>
        <time>2020-08-14T09:15:31Z</time>
      </trkpt>
      <trkpt lat="48.78481" lon="-3.21912">
        <ele>8.2</ele>
        <time>2020-08-14T09:15:32Z</time>
      </trkpt>
      <trkpt lat="48.78449" lon="-3.21923">
        <ele>6.6</ele>
        <time>2020-08-14T09:15:40Z</time>
      </trkpt>
      <trkpt lat="48.78433" lon="-3.21928">
        <ele>6.8</ele>
        <time>2020-08-14T09:15:46Z</time>
      </trkpt>
      <trkpt lat="48.78419" lon="-3.21931">
        <ele>6.8</ele>
        <time>2020-08-14T09:15:53Z</time>
      </trkpt>
      <trkpt lat="48.78403" lon="-3.21922">
        <ele>7</ele>
        <time>2020-08-14T09:16:01Z</time>
      </trkpt>
      <trkpt lat="48.78389" lon="-3.21909">
        <ele>7.7</ele>
        <time>2020-08-14T09:16:06Z</time>
      </trkpt>
      <trkpt lat="48.78386" lon="-3.21908">
        <ele>7.8</ele>
        <time>2020-08-14T09:16:07Z</time>
      </trkpt>
      <trkpt lat="48.78378" lon="-3.21912">
        <ele>7.7</ele>
        <time>2020-08-14T09:16:13Z</time>
      </trkpt>
      <trkpt lat="48.78378" lon="-3.21912">
        <ele>7.7</ele>
        <time>2020-08-14T09:16:14Z</time>
      </trkpt>
      <trkpt lat="48.78378" lon="-3.21914">
        <ele>7.7</ele>
        <time>2020-08-14T09:16:24Z</time>
      </trkpt>
      <trkpt lat="48.78379" lon="-3.21928">
        <ele>7</ele>
        <time>2020-08-14T09:16:33Z</time>
      </trkpt>
      <trkpt lat="48.78388" lon="-3.21956">
        <ele>7</ele>
        <time>2020-08-14T09:16:42Z</time>
      </trkpt>
      <trkpt lat="48.78395" lon="-3.21975">
        <ele>7</ele>
        <time>2020-08-14T09:16:50Z</time>
      </trkpt>
      <trkpt lat="48.78398" lon="-3.21983">
        <ele>7</ele>
        <time>2020-08-14T09:16:56Z</time>
      </trkpt>
      <trkpt lat="48.78398" lon="-3.21988">
        <ele>7</ele>
        <time>2020-08-14T09:17:47Z</time>
      </trkpt>
      <trkpt lat="48.78401" lon="-3.21995">
        <ele>7</ele>
        <time>2020-08-14T09:18:22Z</time>
      </trkpt>
      <trkpt lat="48.78408" lon="-3.22015">
        <time>2020-08-14T09:18:28Z</time>
      </trkpt>
      <trkpt lat="48.78417" lon="-3.22042">
        <time>2020-08-14T09:18:36Z</time>
      </trkpt>
      <trkpt lat="48.78428" lon="-3.22076">
        <time>2020-08-14T09:18:45Z</time>
      </trkpt>
      <trkpt lat="48.78441" lon="-3.22116">
        <time>2020-08-14T09:18:55Z</time>
      </trkpt>
      <trkpt lat="48.78451" lon="-3.22151">
        <ele>2.71</ele>
        <time>2020-08-14T09:19:03Z</time>
      </trkpt>
      <trkpt lat="48.78468" lon="-3.22181">
        <ele>7.5</ele>
        <time>2020-08-14T09:19:11Z</time>
      </trkpt>
      <trkpt lat="48.78477" lon="-3.22195">
        <ele>7.4</ele>
        <time>2020-08-14T09:19:15Z</time>
      </trkpt>
      <trkpt lat="48.78495" lon="-3.2222">
        <ele>7.3</ele>
        <time>2020-08-14T09:19:23Z</time>
      </trkpt>
      <trkpt lat="48.78505" lon="-3.22228">
        <ele>6.1</ele>
        <time>2020-08-14T09:19:28Z</time>
      </trkpt>
      <trkpt lat="48.78522" lon="-3.22241">
        <ele>5.9</ele>
        <time>2020-08-14T09:19:35Z</time>
      </trkpt>
      <trkpt lat="48.78544" lon="-3.22259">
        <ele>6.7</ele>
        <time>2020-08-14T09:19:43Z</time>
      </trkpt>
      <trkpt lat="48.78564" lon="-3.22276">
        <ele>6.4</ele>
        <time>2020-08-14T09:19:51Z</time>
      </trkpt>
      <trkpt lat="48.78584" lon="-3.22292">
        <ele>4.6</ele>
        <time>2020-08-14T09:19:59Z</time>
      </trkpt>
      <trkpt lat="48.786" lon="-3.22305">
        <ele>5</ele>
        <time>2020-08-14T09:20:07Z</time>
      </trkpt>
      <trkpt lat="48.78603" lon="-3.22306">
        <ele>4.9</ele>
        <time>2020-08-14T09:20:12Z</time>
      </trkpt>
      <trkpt lat="48.78605" lon="-3.22307">
        <ele>4.9</ele>
        <time>2020-08-14T09:20:14Z</time>
      </trkpt>
      <trkpt lat="48.78614" lon="-3.22316">
        <ele>4.9</ele>
        <time>2020-08-14T09:20:21Z</time>
      </trkpt>
      <trkpt lat="48.78627" lon="-3.22328">
        <ele>4.5</ele>
        <time>2020-08-14T09:20:27Z</time>
      </trkpt>
      <trkpt lat="48.78636" lon="-3.22334">
        <ele>5.5</ele>
        <time>2020-08-14T09:20:32Z</time>
      </trkpt>
      <trkpt lat="48.78641" lon="-3.22338">
        <ele>5.3</ele>
        <time>2020-08-14T09:20:36Z</time>
      </trkpt>
      <trkpt lat="48.78644" lon="-3.22339">
        <ele>5.1</ele>
        <time>2020-08-14T09:20:42Z</time>
      </trkpt>
      <trkpt lat="48.78651" lon="-3.22321">
        <ele>3.8</ele>
        <time>2020-08-14T09:21:00Z</time>
      </trkpt>
      <trkpt lat="48.78655" lon="-3.22305">
        <ele>3.9</ele>
        <time>2020-08-14T09:21:05Z</time>
      </trkpt>
      <trkpt lat="48.78663" lon="-3.22307">
        <ele>3.8</ele>
        <time>2020-08-14T09:21:11Z</time>
      </trkpt>
      <trkpt lat="48.78675" lon="-3.22318">
        <ele>3</ele>
        <time>2020-08-14T09:21:17Z</time>
      </trkpt>
      <trkpt lat="48.78681" lon="-3.22323">
        <ele>3</ele>
        <time>2020-08-14T09:21:20Z</time>
      </trkpt>
      <trkpt lat="48.7868" lon="-3.2233">
        <ele>3</ele>
        <time>2020-08-14T09:21:24Z</time>
      </trkpt>
      <trkpt lat="48.7868" lon="-3.2233">
        <ele>3</ele>
        <time>2020-08-14T09:21:25Z</time>
      </trkpt>
      <trkpt lat="48.78669" lon="-3.22318">
        <ele>3</ele>
        <time>2020-08-14T09:21:33Z</time>
      </trkpt>
      <trkpt lat="48.78662" lon="-3.22307">
        <ele>3.8</ele>
        <time>2020-08-14T09:21:37Z</time>
      </trkpt>
      <trkpt lat="48.7865" lon="-3.223">
        <ele>4</ele>
        <time>2020-08-14T09:21:42Z</time>
      </trkpt>
      <trkpt lat="48.78626" lon="-3.22286">
        <ele>4.3</ele>
        <time>2020-08-14T09:21:51Z</time>
      </trkpt>
      <trkpt lat="48.78613" lon="-3.22291">
        <ele>4.4</ele>
        <time>2020-08-14T09:21:57Z</time>
      </trkpt>
      <trkpt lat="48.78607" lon="-3.22303">
        <ele>4.8</ele>
        <time>2020-08-14T09:22:02Z</time>
      </trkpt>
      <trkpt lat="48.78615" lon="-3.2232">
        <ele>4.9</ele>
        <time>2020-08-14T09:22:08Z</time>
      </trkpt>
      <trkpt lat="48.7862" lon="-3.22326">
        <ele>4.8</ele>
        <time>2020-08-14T09:22:12Z</time>
      </trkpt>
      <trkpt lat="48.78629" lon="-3.22331">
        <ele>4.5</ele>
        <time>2020-08-14T09:22:22Z</time>
      </trkpt>
      <trkpt lat="48.78643" lon="-3.22348">
        <ele>5.4</ele>
        <time>2020-08-14T09:22:30Z</time>
      </trkpt>
      <trkpt lat="48.78656" lon="-3.22358">
        <ele>5.3</ele>
        <time>2020-08-14T09:22:35Z</time>
      </trkpt>
      <trkpt lat="48.78684" lon="-3.22381">
        <ele>4.8</ele>
        <time>2020-08-14T09:22:46Z</time>
      </trkpt>
      <trkpt lat="48.78712" lon="-3.22403">
        <ele>4.9</ele>
        <time>2020-08-14T09:22:56Z</time>
      </trkpt>
      <trkpt lat="48.78732" lon="-3.22419">
        <ele>5.5</ele>
        <time>2020-08-14T09:23:04Z</time>
      </trkpt>
      <trkpt lat="48.78753" lon="-3.22437">
        <ele>5.1</ele>
        <time>2020-08-14T09:23:11Z</time>
      </trkpt>
      <trkpt lat="48.7877" lon="-3.22452">
        <ele>5.1</ele>
        <time>2020-08-14T09:23:17Z</time>
      </trkpt>
      <trkpt lat="48.78781" lon="-3.22466">
        <ele>5.1</ele>
        <time>2020-08-14T09:23:22Z</time>
      </trkpt>
      <trkpt lat="48.78802" lon="-3.22486">
        <ele>4.8</ele>
        <time>2020-08-14T09:23:31Z</time>
      </trkpt>
      <trkpt lat="48.78821" lon="-3.22509">
        <ele>5.1</ele>
        <time>2020-08-14T09:23:41Z</time>
      </trkpt>
      <trkpt lat="48.78836" lon="-3.22524">
        <ele>4.7</ele>
        <time>2020-08-14T09:23:48Z</time>
      </trkpt>
      <trkpt lat="48.78859" lon="-3.22549">
        <ele>5.2</ele>
        <time>2020-08-14T09:23:59Z</time>
      </trkpt>
      <trkpt lat="48.78867" lon="-3.22559">
        <ele>5.3</ele>
        <time>2020-08-14T09:24:07Z</time>
      </trkpt>
      <trkpt lat="48.78867" lon="-3.2256">
        <ele>5.3</ele>
        <time>2020-08-14T09:24:08Z</time>
      </trkpt>
      <trkpt lat="48.78863" lon="-3.2258">
        <ele>5.6</ele>
        <time>2020-08-14T09:24:32Z</time>
      </trkpt>
      <trkpt lat="48.78859" lon="-3.226">
        <ele>7.4</ele>
        <time>2020-08-14T09:24:39Z</time>
      </trkpt>
      <trkpt lat="48.78856" lon="-3.22618">
        <ele>7.9</ele>
        <time>2020-08-14T09:24:46Z</time>
      </trkpt>
      <trkpt lat="48.78855" lon="-3.2263">
        <ele>8.3</ele>
        <time>2020-08-14T09:24:52Z</time>
      </trkpt>
      <trkpt lat="48.78851" lon="-3.22641">
        <ele>8.9</ele>
        <time>2020-08-14T09:24:57Z</time>
      </trkpt>
      <trkpt lat="48.78849" lon="-3.22662">
        <ele>10</ele>
        <time>2020-08-14T09:25:08Z</time>
      </trkpt>
      <trkpt lat="48.78848" lon="-3.22679">
        <ele>12.5</ele>
        <time>2020-08-14T09:25:15Z</time>
      </trkpt>
      <trkpt lat="48.78847" lon="-3.22697">
        <ele>13.1</ele>
        <time>2020-08-14T09:25:23Z</time>
      </trkpt>
      <trkpt lat="48.78848" lon="-3.22714">
        <ele>13.9</ele>
        <time>2020-08-14T09:25:31Z</time>
      </trkpt>
      <trkpt lat="48.7885" lon="-3.2273">
        <ele>14.7</ele>
        <time>2020-08-14T09:25:39Z</time>
      </trkpt>
      <trkpt lat="48.78853" lon="-3.22749">
        <ele>15.4</ele>
        <time>2020-08-14T09:25:49Z</time>
      </trkpt>
      <trkpt lat="48.78854" lon="-3.22761">
        <ele>18.4</ele>
        <time>2020-08-14T09:25:55Z</time>
      </trkpt>
      <trkpt lat="48.78856" lon="-3.22785">
        <ele>19.1</ele>
        <time>2020-08-14T09:26:05Z</time>
      </trkpt>
      <trkpt lat="48.78856" lon="-3.22787">
        <ele>19.1</ele>
        <time>2020-08-14T09:26:06Z</time>
      </trkpt>
      <trkpt lat="48.78855" lon="-3.22791">
        <ele>19.3</ele>
        <time>2020-08-14T09:26:08Z</time>
      </trkpt>
      <trkpt lat="48.78855" lon="-3.22803">
        <ele>19.9</ele>
        <time>2020-08-14T09:26:13Z</time>
      </trkpt>
      <trkpt lat="48.78854" lon="-3.22819">
        <ele>20.9</ele>
        <time>2020-08-14T09:26:21Z</time>
      </trkpt>
      <trkpt lat="48.78852" lon="-3.22834">
        <ele>24.2</ele>
        <time>2020-08-14T09:26:29Z</time>
      </trkpt>
      <trkpt lat="48.7885" lon="-3.22846">
        <ele>24.4</ele>
        <time>2020-08-14T09:26:36Z</time>
      </trkpt>
      <trkpt lat="48.78846" lon="-3.2286">
        <ele>24.6</ele>
        <time>2020-08-14T09:26:43Z</time>
      </trkpt>
      <trkpt lat="48.78845" lon="-3.22861">
        <ele>24.7</ele>
        <time>2020-08-14T09:26:44Z</time>
      </trkpt>
      <trkpt lat="48.78835" lon="-3.22871">
        <ele>25.1</ele>
        <time>2020-08-14T09:26:52Z</time>
      </trkpt>
      <trkpt lat="48.78825" lon="-3.22886">
        <ele>27.5</ele>
        <time>2020-08-14T09:27:02Z</time>
      </trkpt>
      <trkpt lat="48.78817" lon="-3.22896">
        <ele>27.9</ele>
        <time>2020-08-14T09:27:09Z</time>
      </trkpt>
      <trkpt lat="48.78809" lon="-3.22906">
        <ele>28</ele>
        <time>2020-08-14T09:27:16Z</time>
      </trkpt>
      <trkpt lat="48.78804" lon="-3.2291">
        <ele>27.9</ele>
        <time>2020-08-14T09:27:20Z</time>
      </trkpt>
      <trkpt lat="48.788" lon="-3.22917">
        <ele>30.3</ele>
        <time>2020-08-14T09:27:24Z</time>
      </trkpt>
      <trkpt lat="48.78798" lon="-3.22938">
        <ele>30.5</ele>
        <time>2020-08-14T09:27:32Z</time>
      </trkpt>
      <trkpt lat="48.78801" lon="-3.22949">
        <ele>30.6</ele>
        <time>2020-08-14T09:27:37Z</time>
      </trkpt>
      <trkpt lat="48.78801" lon="-3.22958">
        <ele>30.7</ele>
        <time>2020-08-14T09:27:44Z</time>
      </trkpt>
      <trkpt lat="48.788" lon="-3.22964">
        <ele>30.8</ele>
        <time>2020-08-14T09:31:08Z</time>
      </trkpt>
      <trkpt lat="48.78801" lon="-3.22978">
        <ele>31</ele>
        <time>2020-08-14T09:31:15Z</time>
      </trkpt>
      <trkpt lat="48.78797" lon="-3.2299">
        <ele>31.1</ele>
        <time>2020-08-14T09:31:21Z</time>
      </trkpt>
      <trkpt lat="48.78797" lon="-3.22992">
        <ele>31.1</ele>
        <time>2020-08-14T09:31:22Z</time>
      </trkpt>
      <trkpt lat="48.78792" lon="-3.23003">
        <ele>33.4</ele>
        <time>2020-08-14T09:31:29Z</time>
      </trkpt>
      <trkpt lat="48.78785" lon="-3.23015">
        <ele>33.7</ele>
        <time>2020-08-14T09:31:37Z</time>
      </trkpt>
      <trkpt lat="48.78784" lon="-3.23016">
        <ele>33.7</ele>
        <time>2020-08-14T09:31:38Z</time>
      </trkpt>
      <trkpt lat="48.78772" lon="-3.23023">
        <ele>34</ele>
        <time>2020-08-14T09:31:47Z</time>
      </trkpt>
      <trkpt lat="48.78758" lon="-3.23024">
        <ele>34.1</ele>
        <time>2020-08-14T09:31:54Z</time>
      </trkpt>
      <trkpt lat="48.78738" lon="-3.23023">
        <ele>36.4</ele>
        <time>2020-08-14T09:32:04Z</time>
      </trkpt>
      <trkpt lat="48.78735" lon="-3.23024">
        <ele>36.6</ele>
        <time>2020-08-14T09:32:06Z</time>
      </trkpt>
      <trkpt lat="48.78732" lon="-3.23043">
        <ele>37.7</ele>
        <time>2020-08-14T09:32:14Z</time>
      </trkpt>
      <trkpt lat="48.78727" lon="-3.23061">
        <ele>38.4</ele>
        <time>2020-08-14T09:32:22Z</time>
      </trkpt>
      <trkpt lat="48.78719" lon="-3.23075">
        <ele>38.9</ele>
        <time>2020-08-14T09:32:30Z</time>
      </trkpt>
      <trkpt lat="48.78717" lon="-3.23078">
        <ele>39</ele>
        <time>2020-08-14T09:32:32Z</time>
      </trkpt>
      <trkpt lat="48.78715" lon="-3.23101">
        <ele>41.4</ele>
        <time>2020-08-14T09:32:41Z</time>
      </trkpt>
      <trkpt lat="48.78713" lon="-3.23122">
        <ele>41.6</ele>
        <time>2020-08-14T09:32:51Z</time>
      </trkpt>
      <trkpt lat="48.78714" lon="-3.23124">
        <ele>41.7</ele>
        <time>2020-08-14T09:32:54Z</time>
      </trkpt>
      <trkpt lat="48.78714" lon="-3.23126">
        <ele>41.7</ele>
        <time>2020-08-14T09:35:06Z</time>
      </trkpt>
      <trkpt lat="48.7871" lon="-3.23135">
        <ele>41.8</ele>
        <time>2020-08-14T09:35:11Z</time>
      </trkpt>
      <trkpt lat="48.78707" lon="-3.23139">
        <ele>41.9</ele>
        <time>2020-08-14T09:35:14Z</time>
      </trkpt>
      <trkpt lat="48.78702" lon="-3.23149">
        <ele>42</ele>
        <time>2020-08-14T09:35:20Z</time>
      </trkpt>
      <trkpt lat="48.78691" lon="-3.23158">
        <ele>42.3</ele>
        <time>2020-08-14T09:35:29Z</time>
      </trkpt>
      <trkpt lat="48.78675" lon="-3.23158">
        <ele>42.6</ele>
        <time>2020-08-14T09:35:39Z</time>
      </trkpt>
      <trkpt lat="48.78669" lon="-3.23155">
        <ele>42.6</ele>
        <time>2020-08-14T09:35:46Z</time>
      </trkpt>
      <trkpt lat="48.78661" lon="-3.23148">
        <ele>44.5</ele>
        <time>2020-08-14T09:35:55Z</time>
      </trkpt>
      <trkpt lat="48.78649" lon="-3.23137">
        <ele>45.2</ele>
        <time>2020-08-14T09:36:03Z</time>
      </trkpt>
      <trkpt lat="48.78646" lon="-3.23135">
        <ele>45.3</ele>
        <time>2020-08-14T09:36:05Z</time>
      </trkpt>
      <trkpt lat="48.78643" lon="-3.23134">
        <ele>45.4</ele>
        <time>2020-08-14T09:36:10Z</time>
      </trkpt>
      <trkpt lat="48.78645" lon="-3.23127">
        <ele>45.3</ele>
        <time>2020-08-14T09:36:30Z</time>
      </trkpt>
      <trkpt lat="48.78645" lon="-3.23126">
        <ele>45.3</ele>
        <time>2020-08-14T09:36:31Z</time>
      </trkpt>
      <trkpt lat="48.7865" lon="-3.23126">
        <ele>45.2</ele>
        <time>2020-08-14T09:36:36Z</time>
      </trkpt>
      <trkpt lat="48.78657" lon="-3.23135">
        <ele>45</ele>
        <time>2020-08-14T09:36:42Z</time>
      </trkpt>
      <trkpt lat="48.78665" lon="-3.23148">
        <ele>44.5</ele>
        <time>2020-08-14T09:36:58Z</time>
      </trkpt>
      <trkpt lat="48.78673" lon="-3.23159">
        <ele>42.6</ele>
        <time>2020-08-14T09:37:04Z</time>
      </trkpt>
      <trkpt lat="48.78684" lon="-3.23165">
        <ele>42.4</ele>
        <time>2020-08-14T09:37:10Z</time>
      </trkpt>
      <trkpt lat="48.78686" lon="-3.23165">
        <ele>42.4</ele>
        <time>2020-08-14T09:37:13Z</time>
      </trkpt>
      <trkpt lat="48.7869" lon="-3.23165">
        <ele>42.3</ele>
        <time>2020-08-14T09:37:19Z</time>
      </trkpt>
      <trkpt lat="48.78691" lon="-3.23165">
        <ele>42.3</ele>
        <time>2020-08-14T09:37:21Z</time>
      </trkpt>
      <trkpt lat="48.78706" lon="-3.23145">
        <ele>41.9</ele>
        <time>2020-08-14T09:37:31Z</time>
      </trkpt>
      <trkpt lat="48.78708" lon="-3.23143">
        <ele>41.9</ele>
        <time>2020-08-14T09:37:32Z</time>
      </trkpt>
      <trkpt lat="48.78716" lon="-3.23136">
        <ele>41.8</ele>
        <time>2020-08-14T09:37:38Z</time>
      </trkpt>
      <trkpt lat="48.78732" lon="-3.23143">
        <ele>41.7</ele>
        <time>2020-08-14T09:37:45Z</time>
      </trkpt>
      <trkpt lat="48.78753" lon="-3.23146">
        <ele>39.5</ele>
        <time>2020-08-14T09:37:53Z</time>
      </trkpt>
      <trkpt lat="48.78764" lon="-3.23146">
        <ele>39.1</ele>
        <time>2020-08-14T09:37:59Z</time>
      </trkpt>
      <trkpt lat="48.78764" lon="-3.23146">
        <ele>39.1</ele>
        <time>2020-08-14T09:38:00Z</time>
      </trkpt>
      <trkpt lat="48.78768" lon="-3.23145">
        <ele>38.9</ele>
        <time>2020-08-14T09:38:16Z</time>
      </trkpt>
      <trkpt lat="48.7877" lon="-3.23144">
        <ele>38.8</ele>
        <time>2020-08-14T09:38:18Z</time>
      </trkpt>
      <trkpt lat="48.78777" lon="-3.23154">
        <ele>38.7</ele>
        <time>2020-08-14T09:38:23Z</time>
      </trkpt>
      <trkpt lat="48.78779" lon="-3.23172">
        <ele>39.1</ele>
        <time>2020-08-14T09:38:29Z</time>
      </trkpt>
      <trkpt lat="48.78772" lon="-3.23187">
        <ele>39.3</ele>
        <time>2020-08-14T09:38:35Z</time>
      </trkpt>
      <trkpt lat="48.78765" lon="-3.23202">
        <ele>39.3</ele>
        <time>2020-08-14T09:38:41Z</time>
      </trkpt>
      <trkpt lat="48.78756" lon="-3.23214">
        <ele>39.4</ele>
        <time>2020-08-14T09:38:47Z</time>
      </trkpt>
      <trkpt lat="48.78748" lon="-3.23234">
        <ele>41.6</ele>
        <time>2020-08-14T09:38:54Z</time>
      </trkpt>
      <trkpt lat="48.78741" lon="-3.23249">
        <ele>41.4</ele>
        <time>2020-08-14T09:39:01Z</time>
      </trkpt>
      <trkpt lat="48.78736" lon="-3.2326">
        <ele>41.5</ele>
        <time>2020-08-14T09:39:06Z</time>
      </trkpt>
      <trkpt lat="48.78743" lon="-3.2327">
        <ele>41.5</ele>
        <time>2020-08-14T09:39:11Z</time>
      </trkpt>
      <trkpt lat="48.78758" lon="-3.23281">
        <ele>38.5</ele>
        <time>2020-08-14T09:39:16Z</time>
      </trkpt>
      <trkpt lat="48.78776" lon="-3.23294">
        <ele>37.8</ele>
        <time>2020-08-14T09:39:22Z</time>
      </trkpt>
      <trkpt lat="48.7879" lon="-3.23306">
        <ele>37.2</ele>
        <time>2020-08-14T09:39:28Z</time>
      </trkpt>
      <trkpt lat="48.78802" lon="-3.23315">
        <ele>36.5</ele>
        <time>2020-08-14T09:39:33Z</time>
      </trkpt>
      <trkpt lat="48.7882" lon="-3.23332">
        <ele>34.8</ele>
        <time>2020-08-14T09:39:39Z</time>
      </trkpt>
      <trkpt lat="48.78827" lon="-3.23355">
        <ele>33.4</ele>
        <time>2020-08-14T09:39:44Z</time>
      </trkpt>
      <trkpt lat="48.78828" lon="-3.23367">
        <ele>33.1</ele>
        <time>2020-08-14T09:39:46Z</time>
      </trkpt>
      <trkpt lat="48.78827" lon="-3.23394">
        <ele>31.4</ele>
        <time>2020-08-14T09:39:50Z</time>
      </trkpt>
      <trkpt lat="48.78823" lon="-3.23428">
        <ele>27.9</ele>
        <time>2020-08-14T09:39:56Z</time>
      </trkpt>
      <trkpt lat="48.78822" lon="-3.23442">
        <ele>27.9</ele>
        <time>2020-08-14T09:40:01Z</time>
      </trkpt>
      <trkpt lat="48.78822" lon="-3.23442">
        <ele>27.9</ele>
        <time>2020-08-14T09:40:02Z</time>
      </trkpt>
      <trkpt lat="48.78818" lon="-3.23455">
        <ele>27.6</ele>
        <time>2020-08-14T09:41:03Z</time>
      </trkpt>
      <trkpt lat="48.78816" lon="-3.2347">
        <ele>26.8</ele>
        <time>2020-08-14T09:41:06Z</time>
      </trkpt>
      <trkpt lat="48.78808" lon="-3.235">
        <ele>25.8</ele>
        <time>2020-08-14T09:41:11Z</time>
      </trkpt>
      <trkpt lat="48.78802" lon="-3.2352">
        <ele>25.3</ele>
        <time>2020-08-14T09:41:14Z</time>
      </trkpt>
      <trkpt lat="48.78798" lon="-3.23557">
        <ele>25.8</ele>
        <time>2020-08-14T09:41:19Z</time>
      </trkpt>
      <trkpt lat="48.78806" lon="-3.23581">
        <ele>24.3</ele>
        <time>2020-08-14T09:41:24Z</time>
      </trkpt>
      <trkpt lat="48.78817" lon="-3.23605">
        <ele>25.5</ele>
        <time>2020-08-14T09:41:28Z</time>
      </trkpt>
      <trkpt lat="48.7884" lon="-3.23664">
        <ele>21.7</ele>
        <time>2020-08-14T09:41:36Z</time>
      </trkpt>
      <trkpt lat="48.78843" lon="-3.23669">
        <ele>21.9</ele>
        <time>2020-08-14T09:41:37Z</time>
      </trkpt>
      <trkpt lat="48.78863" lon="-3.23698">
        <ele>17.2</ele>
        <time>2020-08-14T09:41:44Z</time>
      </trkpt>
      <trkpt lat="48.78876" lon="-3.2372">
        <ele>15.8</ele>
        <time>2020-08-14T09:41:50Z</time>
      </trkpt>
      <trkpt lat="48.78894" lon="-3.23739">
        <ele>12.7</ele>
        <time>2020-08-14T09:41:55Z</time>
      </trkpt>
      <trkpt lat="48.78903" lon="-3.23746">
        <ele>10.4</ele>
        <time>2020-08-14T09:41:57Z</time>
      </trkpt>
      <trkpt lat="48.78933" lon="-3.23755">
        <ele>6.7</ele>
        <time>2020-08-14T09:42:04Z</time>
      </trkpt>
      <trkpt lat="48.78951" lon="-3.23749">
        <ele>4.3</ele>
        <time>2020-08-14T09:42:09Z</time>
      </trkpt>
      <trkpt lat="48.78964" lon="-3.23743">
        <ele>3.9</ele>
        <time>2020-08-14T09:42:14Z</time>
      </trkpt>
      <trkpt lat="48.78979" lon="-3.23727">
        <ele>3.3</ele>
        <time>2020-08-14T09:42:22Z</time>
      </trkpt>
      <trkpt lat="48.7898" lon="-3.23726">
        <ele>3.3</ele>
        <time>2020-08-14T09:42:25Z</time>
      </trkpt>
      <trkpt lat="48.78981" lon="-3.23722">
        <ele>3.2</ele>
        <time>2020-08-14T09:42:29Z</time>
      </trkpt>
      <trkpt lat="48.78982" lon="-3.23719">
        <ele>3.1</ele>
        <time>2020-08-14T09:42:33Z</time>
      </trkpt>
      <trkpt lat="48.7898" lon="-3.2371">
        <ele>3</ele>
        <time>2020-08-14T09:44:02Z</time>
      </trkpt>
      <trkpt lat="48.78978" lon="-3.23703">
        <ele>2.8</ele>
        <time>2020-08-14T09:44:09Z</time>
      </trkpt>
      <trkpt lat="48.78976" lon="-3.23692">
        <ele>2.6</ele>
        <time>2020-08-14T09:44:17Z</time>
      </trkpt>
      <trkpt lat="48.78975" lon="-3.23688">
        <ele>2.6</ele>
        <time>2020-08-14T09:44:21Z</time>
      </trkpt>
      <trkpt lat="48.78972" lon="-3.2367">
        <ele>2.4</ele>
        <time>2020-08-14T09:44:28Z</time>
      </trkpt>
      <trkpt lat="48.78968" lon="-3.23647">
        <ele>3.4</ele>
        <time>2020-08-14T09:44:38Z</time>
      </trkpt>
      <trkpt lat="48.78966" lon="-3.23635">
        <ele>3.8</ele>
        <time>2020-08-14T09:44:46Z</time>
      </trkpt>
      <trkpt lat="48.78966" lon="-3.23632">
        <ele>3.9</ele>
        <time>2020-08-14T09:44:51Z</time>
      </trkpt>
      <trkpt lat="48.78966" lon="-3.23629">
        <ele>4</ele>
        <time>2020-08-14T09:44:57Z</time>
      </trkpt>
      <trkpt lat="48.78964" lon="-3.23622">
        <ele>4.2</ele>
        <time>2020-08-14T09:45:02Z</time>
      </trkpt>
      <trkpt lat="48.78964" lon="-3.23616">
        <ele>4.3</ele>
        <time>2020-08-14T09:45:11Z</time>
      </trkpt>
      <trkpt lat="48.78972" lon="-3.23609">
        <ele>4.8</ele>
        <time>2020-08-14T09:45:38Z</time>
      </trkpt>
      <trkpt lat="48.78983" lon="-3.23606">
        <ele>5.4</ele>
        <time>2020-08-14T09:45:44Z</time>
      </trkpt>
      <trkpt lat="48.78985" lon="-3.23605">
        <ele>5.5</ele>
        <time>2020-08-14T09:45:46Z</time>
      </trkpt>
      <trkpt lat="48.78987" lon="-3.23594">
        <ele>6.4</ele>
        <time>2020-08-14T09:45:52Z</time>
      </trkpt>
      <trkpt lat="48.78988" lon="-3.23579">
        <ele>8.1</ele>
        <time>2020-08-14T09:45:59Z</time>
      </trkpt>
      <trkpt lat="48.78981" lon="-3.23567">
        <ele>7.6</ele>
        <time>2020-08-14T09:46:06Z</time>
      </trkpt>
      <trkpt lat="48.78978" lon="-3.23552">
        <ele>7.5</ele>
        <time>2020-08-14T09:46:14Z</time>
      </trkpt>
      <trkpt lat="48.78978" lon="-3.2355">
        <ele>7.5</ele>
        <time>2020-08-14T09:46:15Z</time>
      </trkpt>
      <trkpt lat="48.7898" lon="-3.2354">
        <ele>7.7</ele>
        <time>2020-08-14T09:46:22Z</time>
      </trkpt>
      <trkpt lat="48.78979" lon="-3.23536">
        <ele>7.7</ele>
        <time>2020-08-14T09:46:24Z</time>
      </trkpt>
      <trkpt lat="48.78979" lon="-3.23532">
        <ele>7.8</ele>
        <time>2020-08-14T09:46:26Z</time>
      </trkpt>
      <trkpt lat="48.78982" lon="-3.23524">
        <ele>8.3</ele>
        <time>2020-08-14T09:46:31Z</time>
      </trkpt>
      <trkpt lat="48.78987" lon="-3.23507">
        <ele>9.6</ele>
        <time>2020-08-14T09:46:39Z</time>
      </trkpt>
      <trkpt lat="48.78995" lon="-3.23485">
        <ele>9.8</ele>
        <time>2020-08-14T09:46:47Z</time>
      </trkpt>
      <trkpt lat="48.79003" lon="-3.23464">
        <ele>14.1</ele>
        <time>2020-08-14T09:46:54Z</time>
      </trkpt>
      <trkpt lat="48.79014" lon="-3.23447">
        <ele>14</ele>
        <time>2020-08-14T09:47:01Z</time>
      </trkpt>
      <trkpt lat="48.79018" lon="-3.23447">
        <ele>14.2</ele>
        <time>2020-08-14T09:47:03Z</time>
      </trkpt>
      <trkpt lat="48.79024" lon="-3.23458">
        <ele>14.8</ele>
        <time>2020-08-14T09:47:08Z</time>
      </trkpt>
      <trkpt lat="48.79029" lon="-3.23492">
        <ele>15.1</ele>
        <time>2020-08-14T09:47:18Z</time>
      </trkpt>
      <trkpt lat="48.79038" lon="-3.23522">
        <ele>15</ele>
        <time>2020-08-14T09:47:27Z</time>
      </trkpt>
      <trkpt lat="48.79054" lon="-3.23554">
        <ele>15</ele>
        <time>2020-08-14T09:47:38Z</time>
      </trkpt>
      <trkpt lat="48.79061" lon="-3.23564">
        <ele>15.1</ele>
        <time>2020-08-14T09:47:41Z</time>
      </trkpt>
      <trkpt lat="48.79085" lon="-3.23584">
        <ele>16</ele>
        <time>2020-08-14T09:47:47Z</time>
      </trkpt>
      <trkpt lat="48.79102" lon="-3.23596">
        <ele>16.3</ele>
        <time>2020-08-14T09:47:51Z</time>
      </trkpt>
      <trkpt lat="48.79134" lon="-3.23638">
        <ele>15.5</ele>
        <time>2020-08-14T09:48:00Z</time>
      </trkpt>
      <trkpt lat="48.7916" lon="-3.23674">
        <ele>10.8</ele>
        <time>2020-08-14T09:48:07Z</time>
      </trkpt>
      <trkpt lat="48.79189" lon="-3.23711">
        <ele>13</ele>
        <time>2020-08-14T09:48:13Z</time>
      </trkpt>
      <trkpt lat="48.79204" lon="-3.23731">
        <ele>12.9</ele>
        <time>2020-08-14T09:48:16Z</time>
      </trkpt>
      <trkpt lat="48.79215" lon="-3.2376">
        <ele>10.3</ele>
        <time>2020-08-14T09:48:20Z</time>
      </trkpt>
      <trkpt lat="48.7921" lon="-3.2378">
        <ele>9.8</ele>
        <time>2020-08-14T09:48:23Z</time>
      </trkpt>
      <trkpt lat="48.79199" lon="-3.23785">
        <ele>9.2</ele>
        <time>2020-08-14T09:48:26Z</time>
      </trkpt>
      <trkpt lat="48.79185" lon="-3.2379">
        <ele>8.6</ele>
        <time>2020-08-14T09:48:32Z</time>
      </trkpt>
      <trkpt lat="48.79181" lon="-3.2379">
        <ele>8.5</ele>
        <time>2020-08-14T09:48:34Z</time>
      </trkpt>
      <trkpt lat="48.79183" lon="-3.23785">
        <ele>8.4</ele>
        <time>2020-08-14T09:48:38Z</time>
      </trkpt>
      <trkpt lat="48.79185" lon="-3.23784">
        <ele>8.5</ele>
        <time>2020-08-14T09:48:39Z</time>
      </trkpt>
      <trkpt lat="48.7921" lon="-3.23779">
        <ele>9.8</ele>
        <time>2020-08-14T09:48:48Z</time>
      </trkpt>
      <trkpt lat="48.7923" lon="-3.23783">
        <ele>10.9</ele>
        <time>2020-08-14T09:48:56Z</time>
      </trkpt>
      <trkpt lat="48.7924" lon="-3.23793">
        <ele>11.1</ele>
        <time>2020-08-14T09:49:02Z</time>
      </trkpt>
      <trkpt lat="48.79251" lon="-3.238">
        <ele>17.1</ele>
        <time>2020-08-14T09:49:09Z</time>
      </trkpt>
      <trkpt lat="48.79266" lon="-3.2381">
        <ele>17.2</ele>
        <time>2020-08-14T09:49:19Z</time>
      </trkpt>
      <trkpt lat="48.79278" lon="-3.23819">
        <ele>17.7</ele>
        <time>2020-08-14T09:49:28Z</time>
      </trkpt>
      <trkpt lat="48.7929" lon="-3.23826">
        <ele>18.5</ele>
        <time>2020-08-14T09:49:37Z</time>
      </trkpt>
      <trkpt lat="48.793" lon="-3.23833">
        <ele>19.1</ele>
        <time>2020-08-14T09:49:46Z</time>
      </trkpt>
      <trkpt lat="48.79308" lon="-3.2384">
        <ele>19.1</ele>
        <time>2020-08-14T09:49:53Z</time>
      </trkpt>
      <trkpt lat="48.7932" lon="-3.23849">
        <ele>19.7</ele>
        <time>2020-08-14T09:50:03Z</time>
      </trkpt>
      <trkpt lat="48.79332" lon="-3.23858">
        <ele>19.9</ele>
        <time>2020-08-14T09:50:13Z</time>
      </trkpt>
      <trkpt lat="48.7934" lon="-3.23866">
        <ele>27.6</ele>
        <time>2020-08-14T09:50:21Z</time>
      </trkpt>
      <trkpt lat="48.79348" lon="-3.23872">
        <ele>28.4</ele>
        <time>2020-08-14T09:50:28Z</time>
      </trkpt>
      <trkpt lat="48.79353" lon="-3.23878">
        <ele>28.9</ele>
        <time>2020-08-14T09:50:34Z</time>
      </trkpt>
      <trkpt lat="48.79358" lon="-3.2388">
        <ele>29.3</ele>
        <time>2020-08-14T09:50:38Z</time>
      </trkpt>
      <trkpt lat="48.79365" lon="-3.23884">
        <ele>29.9</ele>
        <time>2020-08-14T09:50:44Z</time>
      </trkpt>
      <trkpt lat="48.79363" lon="-3.23892">
        <ele>29.7</ele>
        <time>2020-08-14T09:50:49Z</time>
      </trkpt>
      <trkpt lat="48.7936" lon="-3.23902">
        <ele>29.3</ele>
        <time>2020-08-14T09:50:55Z</time>
      </trkpt>
      <trkpt lat="48.79355" lon="-3.23917">
        <ele>31.6</ele>
        <time>2020-08-14T09:51:03Z</time>
      </trkpt>
      <trkpt lat="48.79353" lon="-3.23931">
        <ele>32.3</ele>
        <time>2020-08-14T09:51:10Z</time>
      </trkpt>
      <trkpt lat="48.79349" lon="-3.23945">
        <ele>33.5</ele>
        <time>2020-08-14T09:51:17Z</time>
      </trkpt>
      <trkpt lat="48.79346" lon="-3.23958">
        <ele>34.8</ele>
        <time>2020-08-14T09:51:23Z</time>
      </trkpt>
      <trkpt lat="48.79339" lon="-3.23977">
        <ele>36.1</ele>
        <time>2020-08-14T09:51:32Z</time>
      </trkpt>
      <trkpt lat="48.79331" lon="-3.23993">
        <ele>33.8</ele>
        <time>2020-08-14T09:51:40Z</time>
      </trkpt>
      <trkpt lat="48.79322" lon="-3.24008">
        <ele>35.6</ele>
        <time>2020-08-14T09:51:48Z</time>
      </trkpt>
      <trkpt lat="48.79313" lon="-3.24022">
        <ele>34.9</ele>
        <time>2020-08-14T09:51:57Z</time>
      </trkpt>
      <trkpt lat="48.79306" lon="-3.2403">
        <ele>34.7</ele>
        <time>2020-08-14T09:52:05Z</time>
      </trkpt>
      <trkpt lat="48.79306" lon="-3.2403">
        <ele>34.7</ele>
        <time>2020-08-14T09:52:06Z</time>
      </trkpt>
      <trkpt lat="48.79301" lon="-3.24035">
        <ele>34.6</ele>
        <time>2020-08-14T09:53:09Z</time>
      </trkpt>
      <trkpt lat="48.79286" lon="-3.24048">
        <ele>34.2</ele>
        <time>2020-08-14T09:53:18Z</time>
      </trkpt>
      <trkpt lat="48.7927" lon="-3.24059">
        <ele>34.1</ele>
        <time>2020-08-14T09:53:27Z</time>
      </trkpt>
      <trkpt lat="48.79255" lon="-3.24068">
        <ele>34.3</ele>
        <time>2020-08-14T09:53:36Z</time>
      </trkpt>
      <trkpt lat="48.7924" lon="-3.24078">
        <ele>31.2</ele>
        <time>2020-08-14T09:53:44Z</time>
      </trkpt>
      <trkpt lat="48.79222" lon="-3.2409">
        <ele>33.8</ele>
        <time>2020-08-14T09:53:54Z</time>
      </trkpt>
      <trkpt lat="48.7921" lon="-3.24105">
        <ele>33.4</ele>
        <time>2020-08-14T09:54:01Z</time>
      </trkpt>
      <trkpt lat="48.79195" lon="-3.24131">
        <ele>33.6</ele>
        <time>2020-08-14T09:54:12Z</time>
      </trkpt>
      <trkpt lat="48.79182" lon="-3.2416">
        <ele>33.3</ele>
        <time>2020-08-14T09:54:23Z</time>
      </trkpt>
      <trkpt lat="48.79175" lon="-3.24184">
        <ele>37.5</ele>
        <time>2020-08-14T09:54:32Z</time>
      </trkpt>
      <trkpt lat="48.79166" lon="-3.24211">
        <ele>32.8</ele>
        <time>2020-08-14T09:54:41Z</time>
      </trkpt>
      <trkpt lat="48.7916" lon="-3.24231">
        <ele>35.1</ele>
        <time>2020-08-14T09:54:49Z</time>
      </trkpt>
      <trkpt lat="48.79154" lon="-3.24257">
        <ele>38.5</ele>
        <time>2020-08-14T09:54:57Z</time>
      </trkpt>
      <trkpt lat="48.79147" lon="-3.24285">
        <ele>37</ele>
        <time>2020-08-14T09:55:05Z</time>
      </trkpt>
      <trkpt lat="48.79139" lon="-3.2432">
        <ele>37.4</ele>
        <time>2020-08-14T09:55:15Z</time>
      </trkpt>
      <trkpt lat="48.79135" lon="-3.24349">
        <ele>38.3</ele>
        <time>2020-08-14T09:55:23Z</time>
      </trkpt>
      <trkpt lat="48.79132" lon="-3.24369">
        <ele>38</ele>
        <time>2020-08-14T09:55:30Z</time>
      </trkpt>
      <trkpt lat="48.79129" lon="-3.24384">
        <ele>37.9</ele>
        <time>2020-08-14T09:55:35Z</time>
      </trkpt>
      <trkpt lat="48.79128" lon="-3.24402">
        <ele>37.9</ele>
        <time>2020-08-14T09:55:41Z</time>
      </trkpt>
      <trkpt lat="48.79124" lon="-3.2443">
        <ele>37.6</ele>
        <time>2020-08-14T09:55:50Z</time>
      </trkpt>
      <trkpt lat="48.79121" lon="-3.24457">
        <ele>37.3</ele>
        <time>2020-08-14T09:55:58Z</time>
      </trkpt>
      <trkpt lat="48.79117" lon="-3.24486">
        <ele>36.8</ele>
        <time>2020-08-14T09:56:07Z</time>
      </trkpt>
      <trkpt lat="48.79113" lon="-3.24515">
        <ele>37.9</ele>
        <time>2020-08-14T09:56:16Z</time>
      </trkpt>
      <trkpt lat="48.79111" lon="-3.24544">
        <ele>38.8</ele>
        <time>2020-08-14T09:56:25Z</time>
      </trkpt>
      <trkpt lat="48.79108" lon="-3.2457">
        <ele>39</ele>
        <time>2020-08-14T09:56:32Z</time>
      </trkpt>
      <trkpt lat="48.79107" lon="-3.24604">
        <ele>41.5</ele>
        <time>2020-08-14T09:56:42Z</time>
      </trkpt>
      <trkpt lat="48.79109" lon="-3.24634">
        <ele>42.1</ele>
        <time>2020-08-14T09:56:51Z</time>
      </trkpt>
      <trkpt lat="48.79112" lon="-3.24656">
        <ele>42.1</ele>
        <time>2020-08-14T09:56:58Z</time>
      </trkpt>
      <trkpt lat="48.79116" lon="-3.24672">
        <ele>42.5</ele>
        <time>2020-08-14T09:57:04Z</time>
      </trkpt>
      <trkpt lat="48.7912" lon="-3.24684">
        <ele>43</ele>
        <time>2020-08-14T09:57:10Z</time>
      </trkpt>
      <trkpt lat="48.7912" lon="-3.24685">
        <ele>43</ele>
        <time>2020-08-14T09:57:12Z</time>
      </trkpt>
      <trkpt lat="48.79123" lon="-3.24693">
        <ele>43.3</ele>
        <time>2020-08-14T09:58:27Z</time>
      </trkpt>
      <trkpt lat="48.79128" lon="-3.24705">
        <ele>43.6</ele>
        <time>2020-08-14T09:58:33Z</time>
      </trkpt>
      <trkpt lat="48.79132" lon="-3.24715">
        <ele>43.8</ele>
        <time>2020-08-14T09:58:37Z</time>
      </trkpt>
      <trkpt lat="48.79137" lon="-3.24725">
        <ele>44.2</ele>
        <time>2020-08-14T09:58:41Z</time>
      </trkpt>
      <trkpt lat="48.79148" lon="-3.24749">
        <ele>45.7</ele>
        <time>2020-08-14T09:58:49Z</time>
      </trkpt>
      <trkpt lat="48.79154" lon="-3.24763">
        <ele>44.5</ele>
        <time>2020-08-14T09:58:56Z</time>
      </trkpt>
      <trkpt lat="48.79156" lon="-3.2477">
        <ele>44</ele>
        <time>2020-08-14T09:59:02Z</time>
      </trkpt>
      <trkpt lat="48.79157" lon="-3.24771">
        <ele>44</ele>
        <time>2020-08-14T09:59:03Z</time>
      </trkpt>
      <trkpt lat="48.79159" lon="-3.24777">
        <ele>43.6</ele>
        <time>2020-08-14T09:59:13Z</time>
      </trkpt>
      <trkpt lat="48.79167" lon="-3.24788">
        <ele>50.1</ele>
        <time>2020-08-14T10:04:11Z</time>
      </trkpt>
      <trkpt lat="48.79177" lon="-3.24807">
        <ele>49.9</ele>
        <time>2020-08-14T10:04:17Z</time>
      </trkpt>
      <trkpt lat="48.79188" lon="-3.24832">
        <ele>49.8</ele>
        <time>2020-08-14T10:04:26Z</time>
      </trkpt>
      <trkpt lat="48.79195" lon="-3.24852">
        <ele>50.3</ele>
        <time>2020-08-14T10:04:32Z</time>
      </trkpt>
      <trkpt lat="48.79209" lon="-3.24882">
        <ele>51.1</ele>
        <time>2020-08-14T10:04:42Z</time>
      </trkpt>
      <trkpt lat="48.79222" lon="-3.24907">
        <ele>52.2</ele>
        <time>2020-08-14T10:04:51Z</time>
      </trkpt>
      <trkpt lat="48.79231" lon="-3.24927">
        <ele>54</ele>
        <time>2020-08-14T10:04:58Z</time>
      </trkpt>
      <trkpt lat="48.79239" lon="-3.24943">
        <ele>54.1</ele>
        <time>2020-08-14T10:05:04Z</time>
      </trkpt>
      <trkpt lat="48.79248" lon="-3.24961">
        <ele>54.4</ele>
        <time>2020-08-14T10:05:11Z</time>
      </trkpt>
      <trkpt lat="48.79257" lon="-3.24983">
        <ele>57.4</ele>
        <time>2020-08-14T10:05:18Z</time>
      </trkpt>
      <trkpt lat="48.79268" lon="-3.25009">
        <ele>57.9</ele>
        <time>2020-08-14T10:05:27Z</time>
      </trkpt>
      <trkpt lat="48.79277" lon="-3.25033">
        <ele>57.8</ele>
        <time>2020-08-14T10:05:35Z</time>
      </trkpt>
      <trkpt lat="48.79289" lon="-3.25056">
        <ele>57.8</ele>
        <time>2020-08-14T10:05:43Z</time>
      </trkpt>
      <trkpt lat="48.79302" lon="-3.25083">
        <ele>57.7</ele>
        <time>2020-08-14T10:05:52Z</time>
      </trkpt>
      <trkpt lat="48.7931" lon="-3.25103">
        <ele>56.7</ele>
        <time>2020-08-14T10:05:59Z</time>
      </trkpt>
      <trkpt lat="48.79322" lon="-3.2513">
        <ele>56.2</ele>
        <time>2020-08-14T10:06:08Z</time>
      </trkpt>
      <trkpt lat="48.79338" lon="-3.25167">
        <ele>55</ele>
        <time>2020-08-14T10:06:18Z</time>
      </trkpt>
      <trkpt lat="48.79351" lon="-3.25203">
        <ele>55</ele>
        <time>2020-08-14T10:06:27Z</time>
      </trkpt>
      <trkpt lat="48.7936" lon="-3.25231">
        <ele>55</ele>
        <time>2020-08-14T10:06:34Z</time>
      </trkpt>
      <trkpt lat="48.79365" lon="-3.25248">
        <ele>55</ele>
        <time>2020-08-14T10:06:39Z</time>
      </trkpt>
      <trkpt lat="48.7937" lon="-3.25261">
        <ele>55.2</ele>
        <time>2020-08-14T10:06:43Z</time>
      </trkpt>
      <trkpt lat="48.79381" lon="-3.25296">
        <ele>55.3</ele>
        <time>2020-08-14T10:06:53Z</time>
      </trkpt>
      <trkpt lat="48.79395" lon="-3.25334">
        <ele>56.4</ele>
        <time>2020-08-14T10:07:04Z</time>
      </trkpt>
      <trkpt lat="48.79403" lon="-3.25364">
        <ele>56.5</ele>
        <time>2020-08-14T10:07:12Z</time>
      </trkpt>
      <trkpt lat="48.79411" lon="-3.25384">
        <ele>56.9</ele>
        <time>2020-08-14T10:07:19Z</time>
      </trkpt>
      <trkpt lat="48.79418" lon="-3.25406">
        <ele>59.1</ele>
        <time>2020-08-14T10:07:26Z</time>
      </trkpt>
      <trkpt lat="48.79425" lon="-3.25429">
        <ele>59.5</ele>
        <time>2020-08-14T10:07:34Z</time>
      </trkpt>
      <trkpt lat="48.79431" lon="-3.25447">
        <ele>59.8</ele>
        <time>2020-08-14T10:07:40Z</time>
      </trkpt>
      <trkpt lat="48.79438" lon="-3.25468">
        <ele>60</ele>
        <time>2020-08-14T10:07:46Z</time>
      </trkpt>
      <trkpt lat="48.79451" lon="-3.25503">
        <ele>60.5</ele>
        <time>2020-08-14T10:07:56Z</time>
      </trkpt>
      <trkpt lat="48.79463" lon="-3.25539">
        <ele>60.8</ele>
        <time>2020-08-14T10:08:06Z</time>
      </trkpt>
      <trkpt lat="48.79474" lon="-3.25572">
        <ele>61.1</ele>
        <time>2020-08-14T10:08:16Z</time>
      </trkpt>
      <trkpt lat="48.79482" lon="-3.25599">
        <ele>61.4</ele>
        <time>2020-08-14T10:08:24Z</time>
      </trkpt>
      <trkpt lat="48.79491" lon="-3.25626">
        <ele>61.3</ele>
        <time>2020-08-14T10:08:32Z</time>
      </trkpt>
      <trkpt lat="48.79499" lon="-3.25652">
        <ele>61.6</ele>
        <time>2020-08-14T10:08:40Z</time>
      </trkpt>
      <trkpt lat="48.79508" lon="-3.2567">
        <ele>61.9</ele>
        <time>2020-08-14T10:08:47Z</time>
      </trkpt>
      <trkpt lat="48.79516" lon="-3.25701">
        <ele>61.7</ele>
        <time>2020-08-14T10:08:55Z</time>
      </trkpt>
      <trkpt lat="48.79528" lon="-3.25733">
        <ele>61.6</ele>
        <time>2020-08-14T10:09:03Z</time>
      </trkpt>
      <trkpt lat="48.79547" lon="-3.25791">
        <ele>61.5</ele>
        <time>2020-08-14T10:09:15Z</time>
      </trkpt>
      <trkpt lat="48.79563" lon="-3.25835">
        <ele>61.2</ele>
        <time>2020-08-14T10:09:23Z</time>
      </trkpt>
      <trkpt lat="48.79583" lon="-3.25887">
        <ele>60.8</ele>
        <time>2020-08-14T10:09:32Z</time>
      </trkpt>
      <trkpt lat="48.79603" lon="-3.25939">
        <ele>60</ele>
        <time>2020-08-14T10:09:41Z</time>
      </trkpt>
      <trkpt lat="48.79626" lon="-3.25997">
        <ele>60</ele>
        <time>2020-08-14T10:09:52Z</time>
      </trkpt>
      <trkpt lat="48.79647" lon="-3.26052">
        <ele>60.2</ele>
        <time>2020-08-14T10:10:03Z</time>
      </trkpt>
      <trkpt lat="48.79668" lon="-3.26117">
        <ele>59.7</ele>
        <time>2020-08-14T10:10:15Z</time>
      </trkpt>
      <trkpt lat="48.79683" lon="-3.26177">
        <ele>59.5</ele>
        <time>2020-08-14T10:10:26Z</time>
      </trkpt>
      <trkpt lat="48.79691" lon="-3.26217">
        <ele>59</ele>
        <time>2020-08-14T10:10:33Z</time>
      </trkpt>
      <trkpt lat="48.79699" lon="-3.26282">
        <ele>58.3</ele>
        <time>2020-08-14T10:10:43Z</time>
      </trkpt>
      <trkpt lat="48.79707" lon="-3.26346">
        <ele>57.7</ele>
        <time>2020-08-14T10:10:53Z</time>
      </trkpt>
      <trkpt lat="48.79715" lon="-3.26405">
        <ele>57.2</ele>
        <time>2020-08-14T10:11:02Z</time>
      </trkpt>
      <trkpt lat="48.79726" lon="-3.26458">
        <ele>56.8</ele>
        <time>2020-08-14T10:11:10Z</time>
      </trkpt>
      <trkpt lat="48.79747" lon="-3.26517">
        <ele>56.4</ele>
        <time>2020-08-14T10:11:20Z</time>
      </trkpt>
      <trkpt lat="48.79769" lon="-3.26564">
        <ele>55.6</ele>
        <time>2020-08-14T10:11:28Z</time>
      </trkpt>
      <trkpt lat="48.79791" lon="-3.266">
        <ele>55.2</ele>
        <time>2020-08-14T10:11:36Z</time>
      </trkpt>
      <trkpt lat="48.79815" lon="-3.26635">
        <ele>55.1</ele>
        <time>2020-08-14T10:11:44Z</time>
      </trkpt>
      <trkpt lat="48.7985" lon="-3.2668">
        <ele>55.2</ele>
        <time>2020-08-14T10:11:55Z</time>
      </trkpt>
      <trkpt lat="48.79867" lon="-3.267">
        <ele>55.2</ele>
        <time>2020-08-14T10:12:01Z</time>
      </trkpt>
      <trkpt lat="48.79876" lon="-3.26705">
        <ele>55.2</ele>
        <time>2020-08-14T10:12:06Z</time>
      </trkpt>
      <trkpt lat="48.79877" lon="-3.26706">
        <ele>55.2</ele>
        <time>2020-08-14T10:12:09Z</time>
      </trkpt>
      <trkpt lat="48.79883" lon="-3.2672">
        <ele>55.3</ele>
        <time>2020-08-14T10:14:12Z</time>
      </trkpt>
      <trkpt lat="48.79903" lon="-3.26746">
        <ele>55.2</ele>
        <time>2020-08-14T10:14:20Z</time>
      </trkpt>
      <trkpt lat="48.79929" lon="-3.26781">
        <ele>53.8</ele>
        <time>2020-08-14T10:14:29Z</time>
      </trkpt>
      <trkpt lat="48.79966" lon="-3.26829">
        <ele>53.1</ele>
        <time>2020-08-14T10:14:40Z</time>
      </trkpt>
      <trkpt lat="48.80009" lon="-3.26885">
        <ele>50.6</ele>
        <time>2020-08-14T10:14:51Z</time>
      </trkpt>
      <trkpt lat="48.80053" lon="-3.26944">
        <ele>50.3</ele>
        <time>2020-08-14T10:15:02Z</time>
      </trkpt>
      <trkpt lat="48.80061" lon="-3.26954">
        <ele>50.3</ele>
        <time>2020-08-14T10:15:04Z</time>
      </trkpt>
      <trkpt lat="48.80088" lon="-3.26998">
        <ele>49.6</ele>
        <time>2020-08-14T10:15:12Z</time>
      </trkpt>
      <trkpt lat="48.80105" lon="-3.2703">
        <ele>48.9</ele>
        <time>2020-08-14T10:15:18Z</time>
      </trkpt>
      <trkpt lat="48.80124" lon="-3.27083">
        <ele>48.5</ele>
        <time>2020-08-14T10:15:26Z</time>
      </trkpt>
      <trkpt lat="48.80127" lon="-3.27096">
        <ele>48.6</ele>
        <time>2020-08-14T10:15:28Z</time>
      </trkpt>
      <trkpt lat="48.80133" lon="-3.27123">
        <ele>48.5</ele>
        <time>2020-08-14T10:15:32Z</time>
      </trkpt>
      <trkpt lat="48.80138" lon="-3.27147">
        <ele>48.3</ele>
        <time>2020-08-14T10:15:35Z</time>
      </trkpt>
      <trkpt lat="48.80146" lon="-3.27215">
        <ele>47.9</ele>
        <time>2020-08-14T10:15:43Z</time>
      </trkpt>
      <trkpt lat="48.80145" lon="-3.27271">
        <ele>47.4</ele>
        <time>2020-08-14T10:15:50Z</time>
      </trkpt>
      <trkpt lat="48.80143" lon="-3.27327">
        <ele>47.3</ele>
        <time>2020-08-14T10:15:58Z</time>
      </trkpt>
      <trkpt lat="48.80134" lon="-3.27387">
        <ele>47.5</ele>
        <time>2020-08-14T10:16:07Z</time>
      </trkpt>
      <trkpt lat="48.80123" lon="-3.27447">
        <ele>48</ele>
        <time>2020-08-14T10:16:16Z</time>
      </trkpt>
      <trkpt lat="48.80114" lon="-3.27496">
        <ele>48.7</ele>
        <time>2020-08-14T10:16:24Z</time>
      </trkpt>
      <trkpt lat="48.80111" lon="-3.2752">
        <ele>49.4</ele>
        <time>2020-08-14T10:16:29Z</time>
      </trkpt>
      <trkpt lat="48.80106" lon="-3.27545">
        <ele>49.6</ele>
        <time>2020-08-14T10:16:34Z</time>
      </trkpt>
      <trkpt lat="48.80101" lon="-3.27569">
        <ele>50.2</ele>
        <time>2020-08-14T10:16:39Z</time>
      </trkpt>
      <trkpt lat="48.80096" lon="-3.27594">
        <ele>51</ele>
        <time>2020-08-14T10:16:44Z</time>
      </trkpt>
      <trkpt lat="48.80091" lon="-3.27615">
        <ele>50.7</ele>
        <time>2020-08-14T10:16:49Z</time>
      </trkpt>
      <trkpt lat="48.80087" lon="-3.2764">
        <ele>50.9</ele>
        <time>2020-08-14T10:16:54Z</time>
      </trkpt>
      <trkpt lat="48.80078" lon="-3.27695">
        <ele>51.8</ele>
        <time>2020-08-14T10:17:06Z</time>
      </trkpt>
      <trkpt lat="48.80074" lon="-3.27723">
        <ele>51.9</ele>
        <time>2020-08-14T10:17:13Z</time>
      </trkpt>
      <trkpt lat="48.8007" lon="-3.27752">
        <ele>52</ele>
        <time>2020-08-14T10:17:20Z</time>
      </trkpt>
      <trkpt lat="48.80068" lon="-3.27772">
        <ele>51.9</ele>
        <time>2020-08-14T10:17:24Z</time>
      </trkpt>
      <trkpt lat="48.80064" lon="-3.27797">
        <ele>51.8</ele>
        <time>2020-08-14T10:17:29Z</time>
      </trkpt>
      <trkpt lat="48.80061" lon="-3.27836">
        <ele>51.5</ele>
        <time>2020-08-14T10:17:36Z</time>
      </trkpt>
      <trkpt lat="48.80061" lon="-3.27873">
        <ele>51.6</ele>
        <time>2020-08-14T10:17:42Z</time>
      </trkpt>
      <trkpt lat="48.80067" lon="-3.27899">
        <ele>51.4</ele>
        <time>2020-08-14T10:17:47Z</time>
      </trkpt>
      <trkpt lat="48.80065" lon="-3.27918">
        <ele>51.7</ele>
        <time>2020-08-14T10:17:51Z</time>
      </trkpt>
      <trkpt lat="48.80066" lon="-3.27939">
        <ele>52</ele>
        <time>2020-08-14T10:17:55Z</time>
      </trkpt>
      <trkpt lat="48.80067" lon="-3.27963">
        <ele>52.4</ele>
        <time>2020-08-14T10:18:00Z</time>
      </trkpt>
      <trkpt lat="48.80071" lon="-3.28011">
        <ele>53.2</ele>
        <time>2020-08-14T10:18:10Z</time>
      </trkpt>
      <trkpt lat="48.80074" lon="-3.28037">
        <ele>53.3</ele>
        <time>2020-08-14T10:18:17Z</time>
      </trkpt>
      <trkpt lat="48.80079" lon="-3.28059">
        <ele>53.5</ele>
        <time>2020-08-14T10:18:24Z</time>
      </trkpt>
      <trkpt lat="48.80083" lon="-3.28082">
        <ele>54</ele>
        <time>2020-08-14T10:18:32Z</time>
      </trkpt>
      <trkpt lat="48.80085" lon="-3.28102">
        <ele>53</ele>
        <time>2020-08-14T10:18:38Z</time>
      </trkpt>
      <trkpt lat="48.80091" lon="-3.28135">
        <ele>52.1</ele>
        <time>2020-08-14T10:18:46Z</time>
      </trkpt>
      <trkpt lat="48.80095" lon="-3.28169">
        <ele>51.6</ele>
        <time>2020-08-14T10:18:55Z</time>
      </trkpt>
      <trkpt lat="48.80101" lon="-3.28202">
        <ele>52.4</ele>
        <time>2020-08-14T10:19:04Z</time>
      </trkpt>
      <trkpt lat="48.80108" lon="-3.28246">
        <ele>53.1</ele>
        <time>2020-08-14T10:19:16Z</time>
      </trkpt>
      <trkpt lat="48.80114" lon="-3.28285">
        <ele>54.7</ele>
        <time>2020-08-14T10:19:26Z</time>
      </trkpt>
      <trkpt lat="48.80118" lon="-3.28318">
        <ele>55.1</ele>
        <time>2020-08-14T10:19:34Z</time>
      </trkpt>
      <trkpt lat="48.80123" lon="-3.28358">
        <ele>55.8</ele>
        <time>2020-08-14T10:19:44Z</time>
      </trkpt>
      <trkpt lat="48.8013" lon="-3.28396">
        <ele>55.7</ele>
        <time>2020-08-14T10:19:53Z</time>
      </trkpt>
      <trkpt lat="48.80136" lon="-3.28445">
        <ele>55.7</ele>
        <time>2020-08-14T10:20:04Z</time>
      </trkpt>
      <trkpt lat="48.8014" lon="-3.28501">
        <ele>56</ele>
        <time>2020-08-14T10:20:16Z</time>
      </trkpt>
      <trkpt lat="48.80144" lon="-3.28542">
        <ele>56</ele>
        <time>2020-08-14T10:20:25Z</time>
      </trkpt>
      <trkpt lat="48.80149" lon="-3.28576">
        <ele>56</ele>
        <time>2020-08-14T10:20:33Z</time>
      </trkpt>
      <trkpt lat="48.80153" lon="-3.28603">
        <ele>56.6</ele>
        <time>2020-08-14T10:20:40Z</time>
      </trkpt>
      <trkpt lat="48.80156" lon="-3.28649">
        <ele>57.4</ele>
        <time>2020-08-14T10:20:51Z</time>
      </trkpt>
      <trkpt lat="48.8016" lon="-3.28688">
        <ele>58.9</ele>
        <time>2020-08-14T10:21:01Z</time>
      </trkpt>
      <trkpt lat="48.80163" lon="-3.28721">
        <ele>59.8</ele>
        <time>2020-08-14T10:21:10Z</time>
      </trkpt>
      <trkpt lat="48.80166" lon="-3.28754">
        <ele>61.2</ele>
        <time>2020-08-14T10:21:18Z</time>
      </trkpt>
      <trkpt lat="48.80169" lon="-3.2879">
        <ele>60.9</ele>
        <time>2020-08-14T10:21:27Z</time>
      </trkpt>
      <trkpt lat="48.80173" lon="-3.28831">
        <ele>62.3</ele>
        <time>2020-08-14T10:21:37Z</time>
      </trkpt>
      <trkpt lat="48.80176" lon="-3.2888">
        <ele>62.1</ele>
        <time>2020-08-14T10:21:49Z</time>
      </trkpt>
      <trkpt lat="48.80179" lon="-3.28905">
        <ele>62.7</ele>
        <time>2020-08-14T10:21:56Z</time>
      </trkpt>
      <trkpt lat="48.80181" lon="-3.28932">
        <ele>63.3</ele>
        <time>2020-08-14T10:22:03Z</time>
      </trkpt>
      <trkpt lat="48.80186" lon="-3.28963">
        <ele>63.2</ele>
        <time>2020-08-14T10:22:12Z</time>
      </trkpt>
      <trkpt lat="48.80187" lon="-3.28974">
        <ele>63.4</ele>
        <time>2020-08-14T10:22:18Z</time>
      </trkpt>
      <trkpt lat="48.80188" lon="-3.2898">
        <ele>63.5</ele>
        <time>2020-08-14T10:24:33Z</time>
      </trkpt>
      <trkpt lat="48.80192" lon="-3.28997">
        <ele>63.5</ele>
        <time>2020-08-14T10:24:37Z</time>
      </trkpt>
      <trkpt lat="48.80201" lon="-3.2903">
        <ele>64.3</ele>
        <time>2020-08-14T10:24:45Z</time>
      </trkpt>
      <trkpt lat="48.80212" lon="-3.29067">
        <ele>64.4</ele>
        <time>2020-08-14T10:24:54Z</time>
      </trkpt>
      <trkpt lat="48.8023" lon="-3.29113">
        <ele>65.9</ele>
        <time>2020-08-14T10:25:06Z</time>
      </trkpt>
      <trkpt lat="48.80244" lon="-3.29145">
        <ele>66.2</ele>
        <time>2020-08-14T10:25:15Z</time>
      </trkpt>
      <trkpt lat="48.80259" lon="-3.29178">
        <ele>66.2</ele>
        <time>2020-08-14T10:25:24Z</time>
      </trkpt>
      <trkpt lat="48.80271" lon="-3.29202">
        <ele>66.4</ele>
        <time>2020-08-14T10:25:30Z</time>
      </trkpt>
      <trkpt lat="48.80284" lon="-3.29229">
        <ele>66.4</ele>
        <time>2020-08-14T10:25:37Z</time>
      </trkpt>
      <trkpt lat="48.80298" lon="-3.29258">
        <ele>66.4</ele>
        <time>2020-08-14T10:25:45Z</time>
      </trkpt>
      <trkpt lat="48.80316" lon="-3.29294">
        <ele>66.4</ele>
        <time>2020-08-14T10:25:55Z</time>
      </trkpt>
      <trkpt lat="48.80332" lon="-3.29324">
        <ele>66.8</ele>
        <time>2020-08-14T10:26:03Z</time>
      </trkpt>
      <trkpt lat="48.80349" lon="-3.29357">
        <ele>67.7</ele>
        <time>2020-08-14T10:26:12Z</time>
      </trkpt>
      <trkpt lat="48.80364" lon="-3.29386">
        <ele>67.9</ele>
        <time>2020-08-14T10:26:20Z</time>
      </trkpt>
      <trkpt lat="48.80381" lon="-3.29419">
        <ele>68.2</ele>
        <time>2020-08-14T10:26:29Z</time>
      </trkpt>
      <trkpt lat="48.80395" lon="-3.2945">
        <ele>68.3</ele>
        <time>2020-08-14T10:26:38Z</time>
      </trkpt>
      <trkpt lat="48.8041" lon="-3.29477">
        <ele>68.2</ele>
        <time>2020-08-14T10:26:47Z</time>
      </trkpt>
      <trkpt lat="48.80428" lon="-3.29511">
        <ele>68</ele>
        <time>2020-08-14T10:26:56Z</time>
      </trkpt>
      <trkpt lat="48.80441" lon="-3.29538">
        <ele>68.1</ele>
        <time>2020-08-14T10:27:04Z</time>
      </trkpt>
      <trkpt lat="48.80449" lon="-3.29562">
        <ele>68.4</ele>
        <time>2020-08-14T10:27:11Z</time>
      </trkpt>
      <trkpt lat="48.80458" lon="-3.29596">
        <ele>69.4</ele>
        <time>2020-08-14T10:27:20Z</time>
      </trkpt>
      <trkpt lat="48.80465" lon="-3.29626">
        <ele>69.5</ele>
        <time>2020-08-14T10:27:28Z</time>
      </trkpt>
      <trkpt lat="48.80471" lon="-3.29659">
        <ele>69.7</ele>
        <time>2020-08-14T10:27:37Z</time>
      </trkpt>
      <trkpt lat="48.80469" lon="-3.29685">
        <ele>70</ele>
        <time>2020-08-14T10:27:43Z</time>
      </trkpt>
      <trkpt lat="48.80464" lon="-3.29725">
        <ele>69.9</ele>
        <time>2020-08-14T10:27:53Z</time>
      </trkpt>
      <trkpt lat="48.80457" lon="-3.29761">
        <ele>70.2</ele>
        <time>2020-08-14T10:28:01Z</time>
      </trkpt>
      <trkpt lat="48.80447" lon="-3.29806">
        <ele>70.4</ele>
        <time>2020-08-14T10:28:12Z</time>
      </trkpt>
      <trkpt lat="48.8044" lon="-3.29839">
        <ele>71.4</ele>
        <time>2020-08-14T10:28:21Z</time>
      </trkpt>
      <trkpt lat="48.80439" lon="-3.29847">
        <ele>71.5</ele>
        <time>2020-08-14T10:28:24Z</time>
      </trkpt>
      <trkpt lat="48.80448" lon="-3.29858">
        <ele>71.6</ele>
        <time>2020-08-14T10:28:29Z</time>
      </trkpt>
      <trkpt lat="48.80457" lon="-3.29864">
        <ele>71.6</ele>
        <time>2020-08-14T10:28:31Z</time>
      </trkpt>
      <trkpt lat="48.80468" lon="-3.29887">
        <ele>71.8</ele>
        <time>2020-08-14T10:28:35Z</time>
      </trkpt>
      <trkpt lat="48.80472" lon="-3.29915">
        <ele>72</ele>
        <time>2020-08-14T10:28:40Z</time>
      </trkpt>
      <trkpt lat="48.80473" lon="-3.29929">
        <ele>72.9</ele>
        <time>2020-08-14T10:28:44Z</time>
      </trkpt>
      <trkpt lat="48.80472" lon="-3.29948">
        <ele>73.1</ele>
        <time>2020-08-14T10:28:50Z</time>
      </trkpt>
      <trkpt lat="48.80472" lon="-3.29965">
        <ele>73.2</ele>
        <time>2020-08-14T10:28:55Z</time>
      </trkpt>
      <trkpt lat="48.80474" lon="-3.29989">
        <ele>73.2</ele>
        <time>2020-08-14T10:29:03Z</time>
      </trkpt>
      <trkpt lat="48.8048" lon="-3.30013">
        <ele>73.7</ele>
        <time>2020-08-14T10:29:11Z</time>
      </trkpt>
      <trkpt lat="48.80488" lon="-3.30032">
        <ele>73.9</ele>
        <time>2020-08-14T10:29:18Z</time>
      </trkpt>
      <trkpt lat="48.8049" lon="-3.30037">
        <ele>73.9</ele>
        <time>2020-08-14T10:29:20Z</time>
      </trkpt>
      <trkpt lat="48.80502" lon="-3.30052">
        <ele>74.2</ele>
        <time>2020-08-14T10:29:28Z</time>
      </trkpt>
      <trkpt lat="48.8052" lon="-3.30067">
        <ele>74.3</ele>
        <time>2020-08-14T10:29:36Z</time>
      </trkpt>
      <trkpt lat="48.80543" lon="-3.30086">
        <ele>74.6</ele>
        <time>2020-08-14T10:29:45Z</time>
      </trkpt>
      <trkpt lat="48.80549" lon="-3.30092">
        <ele>74.6</ele>
        <time>2020-08-14T10:29:48Z</time>
      </trkpt>
      <trkpt lat="48.8055" lon="-3.30117">
        <ele>74.7</ele>
        <time>2020-08-14T10:29:56Z</time>
      </trkpt>
      <trkpt lat="48.80548" lon="-3.30143">
        <ele>74.8</ele>
        <time>2020-08-14T10:30:04Z</time>
      </trkpt>
      <trkpt lat="48.80549" lon="-3.30146">
        <ele>74.8</ele>
        <time>2020-08-14T10:30:05Z</time>
      </trkpt>
      <trkpt lat="48.80558" lon="-3.30163">
        <ele>74.8</ele>
        <time>2020-08-14T10:30:13Z</time>
      </trkpt>
      <trkpt lat="48.8058" lon="-3.30182">
        <ele>74.8</ele>
        <time>2020-08-14T10:30:22Z</time>
      </trkpt>
      <trkpt lat="48.80604" lon="-3.30196">
        <ele>75.3</ele>
        <time>2020-08-14T10:30:31Z</time>
      </trkpt>
      <trkpt lat="48.80621" lon="-3.30192">
        <ele>75.5</ele>
        <time>2020-08-14T10:30:37Z</time>
      </trkpt>
      <trkpt lat="48.80637" lon="-3.30194">
        <ele>75.6</ele>
        <time>2020-08-14T10:30:42Z</time>
      </trkpt>
      <trkpt lat="48.80651" lon="-3.30207">
        <ele>75.8</ele>
        <time>2020-08-14T10:30:48Z</time>
      </trkpt>
      <trkpt lat="48.80662" lon="-3.30217">
        <ele>75.9</ele>
        <time>2020-08-14T10:30:53Z</time>
      </trkpt>
      <trkpt lat="48.80679" lon="-3.3024">
        <ele>76.9</ele>
        <time>2020-08-14T10:31:01Z</time>
      </trkpt>
      <trkpt lat="48.80697" lon="-3.30269">
        <ele>76.8</ele>
        <time>2020-08-14T10:31:10Z</time>
      </trkpt>
      <trkpt lat="48.80717" lon="-3.30296">
        <ele>76.8</ele>
        <time>2020-08-14T10:31:19Z</time>
      </trkpt>
      <trkpt lat="48.80734" lon="-3.30311">
        <ele>76.8</ele>
        <time>2020-08-14T10:31:26Z</time>
      </trkpt>
      <trkpt lat="48.80752" lon="-3.30322">
        <ele>76.8</ele>
        <time>2020-08-14T10:31:34Z</time>
      </trkpt>
      <trkpt lat="48.80753" lon="-3.30323">
        <ele>76.8</ele>
        <time>2020-08-14T10:31:37Z</time>
      </trkpt>
      <trkpt lat="48.80755" lon="-3.30326">
        <ele>76.8</ele>
        <time>2020-08-14T10:31:49Z</time>
      </trkpt>
      <trkpt lat="48.80753" lon="-3.3034">
        <ele>76.6</ele>
        <time>2020-08-14T10:31:53Z</time>
      </trkpt>
      <trkpt lat="48.80742" lon="-3.30374">
        <ele>76.3</ele>
        <time>2020-08-14T10:32:01Z</time>
      </trkpt>
      <trkpt lat="48.8073" lon="-3.30422">
        <ele>75.9</ele>
        <time>2020-08-14T10:32:11Z</time>
      </trkpt>
      <trkpt lat="48.8072" lon="-3.30458">
        <ele>75.8</ele>
        <time>2020-08-14T10:32:19Z</time>
      </trkpt>
      <trkpt lat="48.80708" lon="-3.30502">
        <ele>75.7</ele>
        <time>2020-08-14T10:32:28Z</time>
      </trkpt>
      <trkpt lat="48.80694" lon="-3.30545">
        <ele>75.7</ele>
        <time>2020-08-14T10:32:37Z</time>
      </trkpt>
      <trkpt lat="48.80683" lon="-3.30573">
        <ele>75.9</ele>
        <time>2020-08-14T10:32:44Z</time>
      </trkpt>
      <trkpt lat="48.80685" lon="-3.30592">
        <ele>76.1</ele>
        <time>2020-08-14T10:32:48Z</time>
      </trkpt>
      <trkpt lat="48.807" lon="-3.30623">
        <ele>76.3</ele>
        <time>2020-08-14T10:32:55Z</time>
      </trkpt>
      <trkpt lat="48.80719" lon="-3.30646">
        <ele>76.2</ele>
        <time>2020-08-14T10:33:02Z</time>
      </trkpt>
      <trkpt lat="48.80743" lon="-3.30666">
        <ele>76.1</ele>
        <time>2020-08-14T10:33:09Z</time>
      </trkpt>
      <trkpt lat="48.80758" lon="-3.30676">
        <ele>76</ele>
        <time>2020-08-14T10:33:13Z</time>
      </trkpt>
      <trkpt lat="48.8079" lon="-3.30702">
        <ele>76</ele>
        <time>2020-08-14T10:33:22Z</time>
      </trkpt>
      <trkpt lat="48.80801" lon="-3.30718">
        <ele>75.9</ele>
        <time>2020-08-14T10:33:26Z</time>
      </trkpt>
      <trkpt lat="48.80808" lon="-3.30749">
        <ele>75.8</ele>
        <time>2020-08-14T10:33:32Z</time>
      </trkpt>
      <trkpt lat="48.80809" lon="-3.30784">
        <ele>75.7</ele>
        <time>2020-08-14T10:33:38Z</time>
      </trkpt>
      <trkpt lat="48.80808" lon="-3.30811">
        <ele>75.5</ele>
        <time>2020-08-14T10:33:44Z</time>
      </trkpt>
      <trkpt lat="48.80805" lon="-3.30853">
        <ele>75.2</ele>
        <time>2020-08-14T10:33:54Z</time>
      </trkpt>
      <trkpt lat="48.80799" lon="-3.30898">
        <ele>75.2</ele>
        <time>2020-08-14T10:34:04Z</time>
      </trkpt>
      <trkpt lat="48.80794" lon="-3.30925">
        <ele>75.7</ele>
        <time>2020-08-14T10:34:10Z</time>
      </trkpt>
      <trkpt lat="48.80789" lon="-3.30954">
        <ele>76.1</ele>
        <time>2020-08-14T10:34:16Z</time>
      </trkpt>
      <trkpt lat="48.80777" lon="-3.3099">
        <ele>76.8</ele>
        <time>2020-08-14T10:34:24Z</time>
      </trkpt>
      <trkpt lat="48.80758" lon="-3.31011">
        <ele>77.8</ele>
        <time>2020-08-14T10:34:31Z</time>
      </trkpt>
      <trkpt lat="48.80737" lon="-3.3102">
        <ele>79</ele>
        <time>2020-08-14T10:34:38Z</time>
      </trkpt>
      <trkpt lat="48.8072" lon="-3.31027">
        <ele>79</ele>
        <time>2020-08-14T10:34:45Z</time>
      </trkpt>
      <trkpt lat="48.80706" lon="-3.31045">
        <ele>79</ele>
        <time>2020-08-14T10:34:53Z</time>
      </trkpt>
      <trkpt lat="48.80694" lon="-3.31075">
        <ele>78.9</ele>
        <time>2020-08-14T10:35:03Z</time>
      </trkpt>
      <trkpt lat="48.80684" lon="-3.31113">
        <ele>79</ele>
        <time>2020-08-14T10:35:14Z</time>
      </trkpt>
      <trkpt lat="48.80675" lon="-3.31144">
        <ele>79.6</ele>
        <time>2020-08-14T10:35:23Z</time>
      </trkpt>
      <trkpt lat="48.80665" lon="-3.31173">
        <ele>81.2</ele>
        <time>2020-08-14T10:35:32Z</time>
      </trkpt>
      <trkpt lat="48.8066" lon="-3.31192">
        <ele>81.6</ele>
        <time>2020-08-14T10:35:38Z</time>
      </trkpt>
      <trkpt lat="48.80661" lon="-3.31195">
        <ele>81.7</ele>
        <time>2020-08-14T10:35:39Z</time>
      </trkpt>
      <trkpt lat="48.80671" lon="-3.31206">
        <ele>80</ele>
        <time>2020-08-14T10:35:46Z</time>
      </trkpt>
      <trkpt lat="48.80687" lon="-3.31212">
        <ele>79.8</ele>
        <time>2020-08-14T10:35:53Z</time>
      </trkpt>
      <trkpt lat="48.80711" lon="-3.31221">
        <ele>79.2</ele>
        <time>2020-08-14T10:36:01Z</time>
      </trkpt>
      <trkpt lat="48.80736" lon="-3.31234">
        <ele>78.3</ele>
        <time>2020-08-14T10:36:08Z</time>
      </trkpt>
      <trkpt lat="48.80748" lon="-3.31252">
        <ele>77.3</ele>
        <time>2020-08-14T10:36:12Z</time>
      </trkpt>
      <trkpt lat="48.80758" lon="-3.313">
        <ele>75.7</ele>
        <time>2020-08-14T10:36:20Z</time>
      </trkpt>
      <trkpt lat="48.80762" lon="-3.31323">
        <ele>76.1</ele>
        <time>2020-08-14T10:36:25Z</time>
      </trkpt>
      <trkpt lat="48.80768" lon="-3.31356">
        <ele>76</ele>
        <time>2020-08-14T10:36:33Z</time>
      </trkpt>
      <trkpt lat="48.80774" lon="-3.31386">
        <ele>76</ele>
        <time>2020-08-14T10:36:41Z</time>
      </trkpt>
      <trkpt lat="48.80782" lon="-3.31421">
        <ele>76.2</ele>
        <time>2020-08-14T10:36:50Z</time>
      </trkpt>
      <trkpt lat="48.80788" lon="-3.31456">
        <ele>75.9</ele>
        <time>2020-08-14T10:36:58Z</time>
      </trkpt>
      <trkpt lat="48.80793" lon="-3.31497">
        <ele>75.6</ele>
        <time>2020-08-14T10:37:06Z</time>
      </trkpt>
      <trkpt lat="48.80805" lon="-3.31546">
        <ele>75.1</ele>
        <time>2020-08-14T10:37:15Z</time>
      </trkpt>
      <trkpt lat="48.80823" lon="-3.31593">
        <ele>74.1</ele>
        <time>2020-08-14T10:37:24Z</time>
      </trkpt>
      <trkpt lat="48.80844" lon="-3.31624">
        <ele>73.3</ele>
        <time>2020-08-14T10:37:31Z</time>
      </trkpt>
      <trkpt lat="48.8088" lon="-3.31657">
        <ele>73.5</ele>
        <time>2020-08-14T10:37:40Z</time>
      </trkpt>
      <trkpt lat="48.80916" lon="-3.31682">
        <ele>74.1</ele>
        <time>2020-08-14T10:37:48Z</time>
      </trkpt>
      <trkpt lat="48.80959" lon="-3.31702">
        <ele>73</ele>
        <time>2020-08-14T10:37:56Z</time>
      </trkpt>
      <trkpt lat="48.80995" lon="-3.31717">
        <ele>72.6</ele>
        <time>2020-08-14T10:38:04Z</time>
      </trkpt>
      <trkpt lat="48.81027" lon="-3.3173">
        <ele>73</ele>
        <time>2020-08-14T10:38:13Z</time>
      </trkpt>
      <trkpt lat="48.81041" lon="-3.31746">
        <ele>73.3</ele>
        <time>2020-08-14T10:38:19Z</time>
      </trkpt>
      <trkpt lat="48.81045" lon="-3.31768">
        <ele>73.9</ele>
        <time>2020-08-14T10:38:25Z</time>
      </trkpt>
      <trkpt lat="48.81049" lon="-3.318">
        <ele>74.1</ele>
        <time>2020-08-14T10:38:34Z</time>
      </trkpt>
      <trkpt lat="48.81052" lon="-3.31828">
        <ele>74.1</ele>
        <time>2020-08-14T10:38:42Z</time>
      </trkpt>
      <trkpt lat="48.81054" lon="-3.31852">
        <ele>74.6</ele>
        <time>2020-08-14T10:38:49Z</time>
      </trkpt>
      <trkpt lat="48.81057" lon="-3.31863">
        <ele>74.6</ele>
        <time>2020-08-14T10:38:53Z</time>
      </trkpt>
      <trkpt lat="48.81062" lon="-3.31889">
        <ele>74.8</ele>
        <time>2020-08-14T10:39:02Z</time>
      </trkpt>
      <trkpt lat="48.81068" lon="-3.31915">
        <ele>74.9</ele>
        <time>2020-08-14T10:39:10Z</time>
      </trkpt>
      <trkpt lat="48.81075" lon="-3.31942">
        <ele>74.1</ele>
        <time>2020-08-14T10:39:17Z</time>
      </trkpt>
      <trkpt lat="48.81087" lon="-3.31975">
        <ele>72.9</ele>
        <time>2020-08-14T10:39:24Z</time>
      </trkpt>
      <trkpt lat="48.81108" lon="-3.32009">
        <ele>72.4</ele>
        <time>2020-08-14T10:39:31Z</time>
      </trkpt>
      <trkpt lat="48.81128" lon="-3.32028">
        <ele>72.5</ele>
        <time>2020-08-14T10:39:36Z</time>
      </trkpt>
      <trkpt lat="48.81146" lon="-3.32036">
        <ele>72.6</ele>
        <time>2020-08-14T10:39:40Z</time>
      </trkpt>
      <trkpt lat="48.812" lon="-3.32049">
        <ele>72.4</ele>
        <time>2020-08-14T10:39:52Z</time>
      </trkpt>
      <trkpt lat="48.81212" lon="-3.32057">
        <ele>72.4</ele>
        <time>2020-08-14T10:39:55Z</time>
      </trkpt>
      <trkpt lat="48.81234" lon="-3.3209">
        <ele>73.1</ele>
        <time>2020-08-14T10:40:03Z</time>
      </trkpt>
      <trkpt lat="48.81242" lon="-3.32122">
        <ele>73.3</ele>
        <time>2020-08-14T10:40:10Z</time>
      </trkpt>
      <trkpt lat="48.81247" lon="-3.32163">
        <ele>73.9</ele>
        <time>2020-08-14T10:40:20Z</time>
      </trkpt>
      <trkpt lat="48.81253" lon="-3.32219">
        <ele>72.5</ele>
        <time>2020-08-14T10:40:33Z</time>
      </trkpt>
      <trkpt lat="48.81258" lon="-3.32262">
        <ele>72.7</ele>
        <time>2020-08-14T10:40:43Z</time>
      </trkpt>
      <trkpt lat="48.81263" lon="-3.32305">
        <ele>72.8</ele>
        <time>2020-08-14T10:40:53Z</time>
      </trkpt>
      <trkpt lat="48.81269" lon="-3.32356">
        <ele>73.3</ele>
        <time>2020-08-14T10:41:04Z</time>
      </trkpt>
      <trkpt lat="48.81273" lon="-3.32398">
        <ele>73.3</ele>
        <time>2020-08-14T10:41:14Z</time>
      </trkpt>
      <trkpt lat="48.81278" lon="-3.32442">
        <ele>73.2</ele>
        <time>2020-08-14T10:41:24Z</time>
      </trkpt>
      <trkpt lat="48.81285" lon="-3.32493">
        <ele>72.9</ele>
        <time>2020-08-14T10:41:35Z</time>
      </trkpt>
      <trkpt lat="48.81288" lon="-3.32519">
        <ele>72.3</ele>
        <time>2020-08-14T10:41:41Z</time>
      </trkpt>
      <trkpt lat="48.81292" lon="-3.32558">
        <ele>72.2</ele>
        <time>2020-08-14T10:41:49Z</time>
      </trkpt>
      <trkpt lat="48.81294" lon="-3.32596">
        <ele>71.8</ele>
        <time>2020-08-14T10:41:57Z</time>
      </trkpt>
      <trkpt lat="48.81295" lon="-3.3265">
        <ele>71.6</ele>
        <time>2020-08-14T10:42:08Z</time>
      </trkpt>
      <trkpt lat="48.81291" lon="-3.32697">
        <ele>71.1</ele>
        <time>2020-08-14T10:42:17Z</time>
      </trkpt>
      <trkpt lat="48.81283" lon="-3.32732">
        <ele>71</ele>
        <time>2020-08-14T10:42:24Z</time>
      </trkpt>
      <trkpt lat="48.81274" lon="-3.32777">
        <ele>71</ele>
        <time>2020-08-14T10:42:34Z</time>
      </trkpt>
      <trkpt lat="48.8127" lon="-3.32807">
        <ele>71.3</ele>
        <time>2020-08-14T10:42:40Z</time>
      </trkpt>
      <trkpt lat="48.8127" lon="-3.32847">
        <ele>71.8</ele>
        <time>2020-08-14T10:42:48Z</time>
      </trkpt>
      <trkpt lat="48.81277" lon="-3.32898">
        <ele>72</ele>
        <time>2020-08-14T10:42:58Z</time>
      </trkpt>
      <trkpt lat="48.81282" lon="-3.3294">
        <ele>72.3</ele>
        <time>2020-08-14T10:43:06Z</time>
      </trkpt>
      <trkpt lat="48.8128" lon="-3.32977">
        <ele>72.5</ele>
        <time>2020-08-14T10:43:13Z</time>
      </trkpt>
      <trkpt lat="48.81275" lon="-3.33011">
        <ele>72.8</ele>
        <time>2020-08-14T10:43:20Z</time>
      </trkpt>
      <trkpt lat="48.81271" lon="-3.33042">
        <ele>72.5</ele>
        <time>2020-08-14T10:43:27Z</time>
      </trkpt>
      <trkpt lat="48.81267" lon="-3.33073">
        <ele>72.6</ele>
        <time>2020-08-14T10:43:34Z</time>
      </trkpt>
      <trkpt lat="48.81264" lon="-3.3311">
        <ele>72.3</ele>
        <time>2020-08-14T10:43:42Z</time>
      </trkpt>
      <trkpt lat="48.81261" lon="-3.33158">
        <ele>72.6</ele>
        <time>2020-08-14T10:43:52Z</time>
      </trkpt>
      <trkpt lat="48.81264" lon="-3.33196">
        <ele>72.7</ele>
        <time>2020-08-14T10:43:59Z</time>
      </trkpt>
      <trkpt lat="48.81268" lon="-3.33239">
        <ele>73.1</ele>
        <time>2020-08-14T10:44:07Z</time>
      </trkpt>
      <trkpt lat="48.81269" lon="-3.33277">
        <ele>72.5</ele>
        <time>2020-08-14T10:44:14Z</time>
      </trkpt>
      <trkpt lat="48.81269" lon="-3.33305">
        <ele>72.1</ele>
        <time>2020-08-14T10:44:20Z</time>
      </trkpt>
      <trkpt lat="48.8127" lon="-3.33333">
        <ele>71.9</ele>
        <time>2020-08-14T10:44:27Z</time>
      </trkpt>
      <trkpt lat="48.8127" lon="-3.33337">
        <ele>70.8</ele>
        <time>2020-08-14T10:44:28Z</time>
      </trkpt>
      <trkpt lat="48.81288" lon="-3.33354">
        <ele>70.1</ele>
        <time>2020-08-14T10:44:35Z</time>
      </trkpt>
      <trkpt lat="48.81295" lon="-3.3337">
        <ele>69.8</ele>
        <time>2020-08-14T10:44:40Z</time>
      </trkpt>
      <trkpt lat="48.81295" lon="-3.33394">
        <ele>69.4</ele>
        <time>2020-08-14T10:44:46Z</time>
      </trkpt>
      <trkpt lat="48.81296" lon="-3.33434">
        <ele>67.7</ele>
        <time>2020-08-14T10:44:55Z</time>
      </trkpt>
      <trkpt lat="48.81293" lon="-3.33466">
        <ele>67.4</ele>
        <time>2020-08-14T10:45:01Z</time>
      </trkpt>
      <trkpt lat="48.8129" lon="-3.33492">
        <ele>67.2</ele>
        <time>2020-08-14T10:45:07Z</time>
      </trkpt>
      <trkpt lat="48.81284" lon="-3.33509">
        <ele>65.3</ele>
        <time>2020-08-14T10:45:13Z</time>
      </trkpt>
      <trkpt lat="48.81275" lon="-3.33526">
        <ele>65.1</ele>
        <time>2020-08-14T10:45:20Z</time>
      </trkpt>
      <trkpt lat="48.81277" lon="-3.33533">
        <ele>64.9</ele>
        <time>2020-08-14T10:45:25Z</time>
      </trkpt>
      <trkpt lat="48.81278" lon="-3.33534">
        <ele>64.8</ele>
        <time>2020-08-14T10:45:26Z</time>
      </trkpt>
      <trkpt lat="48.81282" lon="-3.33551">
        <ele>64.4</ele>
        <time>2020-08-14T10:45:47Z</time>
      </trkpt>
      <trkpt lat="48.81286" lon="-3.33555">
        <ele>64.3</ele>
        <time>2020-08-14T10:45:53Z</time>
      </trkpt>
      <trkpt lat="48.81288" lon="-3.33554">
        <ele>64.3</ele>
        <time>2020-08-14T10:46:00Z</time>
      </trkpt>
      <trkpt lat="48.81287" lon="-3.33554">
        <ele>64.3</ele>
        <time>2020-08-14T10:46:01Z</time>
      </trkpt>
      <trkpt lat="48.81282" lon="-3.3355">
        <ele>64.4</ele>
        <time>2020-08-14T10:46:07Z</time>
      </trkpt>
      <trkpt lat="48.81282" lon="-3.33543">
        <ele>64.6</ele>
        <time>2020-08-14T10:46:15Z</time>
      </trkpt>
      <trkpt lat="48.81281" lon="-3.33538">
        <ele>64.7</ele>
        <time>2020-08-14T11:16:17Z</time>
      </trkpt>
      <trkpt lat="48.81275" lon="-3.33531">
        <ele>65</ele>
        <time>2020-08-14T11:16:23Z</time>
      </trkpt>
      <trkpt lat="48.81271" lon="-3.33539">
        <ele>64.8</ele>
        <time>2020-08-14T11:16:27Z</time>
      </trkpt>
      <trkpt lat="48.81265" lon="-3.33545">
        <ele>64.7</ele>
        <time>2020-08-14T11:16:30Z</time>
      </trkpt>
      <trkpt lat="48.81247" lon="-3.33551">
        <ele>65.9</ele>
        <time>2020-08-14T11:16:38Z</time>
      </trkpt>
      <trkpt lat="48.81229" lon="-3.33555">
        <ele>65.9</ele>
        <time>2020-08-14T11:16:46Z</time>
      </trkpt>
      <trkpt lat="48.81206" lon="-3.33561">
        <ele>66.2</ele>
        <time>2020-08-14T11:16:56Z</time>
      </trkpt>
      <trkpt lat="48.81182" lon="-3.33564">
        <ele>66.3</ele>
        <time>2020-08-14T11:17:05Z</time>
      </trkpt>
      <trkpt lat="48.81165" lon="-3.33567">
        <ele>67</ele>
        <time>2020-08-14T11:17:12Z</time>
      </trkpt>
      <trkpt lat="48.81146" lon="-3.33571">
        <ele>67.3</ele>
        <time>2020-08-14T11:17:20Z</time>
      </trkpt>
      <trkpt lat="48.81131" lon="-3.33579">
        <ele>67.5</ele>
        <time>2020-08-14T11:17:27Z</time>
      </trkpt>
      <trkpt lat="48.81111" lon="-3.33597">
        <ele>66.9</ele>
        <time>2020-08-14T11:17:35Z</time>
      </trkpt>
      <trkpt lat="48.81089" lon="-3.33622">
        <ele>66.7</ele>
        <time>2020-08-14T11:17:44Z</time>
      </trkpt>
      <trkpt lat="48.81071" lon="-3.33633">
        <ele>66.5</ele>
        <time>2020-08-14T11:17:51Z</time>
      </trkpt>
      <trkpt lat="48.81046" lon="-3.3364">
        <ele>66.4</ele>
        <time>2020-08-14T11:17:59Z</time>
      </trkpt>
      <trkpt lat="48.81019" lon="-3.33648">
        <ele>66.3</ele>
        <time>2020-08-14T11:18:08Z</time>
      </trkpt>
      <trkpt lat="48.81" lon="-3.33656">
        <ele>66.1</ele>
        <time>2020-08-14T11:18:16Z</time>
      </trkpt>
      <trkpt lat="48.81" lon="-3.33656">
        <ele>66.1</ele>
        <time>2020-08-14T11:18:17Z</time>
      </trkpt>
      <trkpt lat="48.80988" lon="-3.3366">
        <ele>65.7</ele>
        <time>2020-08-14T11:18:47Z</time>
      </trkpt>
      <trkpt lat="48.80974" lon="-3.33667">
        <ele>65.3</ele>
        <time>2020-08-14T11:18:54Z</time>
      </trkpt>
      <trkpt lat="48.80952" lon="-3.33679">
        <ele>64.9</ele>
        <time>2020-08-14T11:19:02Z</time>
      </trkpt>
      <trkpt lat="48.80923" lon="-3.33694">
        <ele>64.5</ele>
        <time>2020-08-14T11:19:12Z</time>
      </trkpt>
      <trkpt lat="48.8092" lon="-3.33695">
        <ele>64.5</ele>
        <time>2020-08-14T11:19:13Z</time>
      </trkpt>
      <trkpt lat="48.80903" lon="-3.33693">
        <ele>63.6</ele>
        <time>2020-08-14T11:19:17Z</time>
      </trkpt>
      <trkpt lat="48.80865" lon="-3.3368">
        <ele>63.7</ele>
        <time>2020-08-14T11:19:25Z</time>
      </trkpt>
      <trkpt lat="48.8085" lon="-3.33675">
        <ele>63.7</ele>
        <time>2020-08-14T11:19:30Z</time>
      </trkpt>
      <trkpt lat="48.80839" lon="-3.33671">
        <ele>63.9</ele>
        <time>2020-08-14T11:19:36Z</time>
      </trkpt>
      <trkpt lat="48.80827" lon="-3.3366">
        <ele>63.8</ele>
        <time>2020-08-14T11:19:41Z</time>
      </trkpt>
      <trkpt lat="48.80818" lon="-3.33651">
        <ele>63.5</ele>
        <time>2020-08-14T11:19:46Z</time>
      </trkpt>
      <trkpt lat="48.80809" lon="-3.33638">
        <ele>63.4</ele>
        <time>2020-08-14T11:19:51Z</time>
      </trkpt>
      <trkpt lat="48.80801" lon="-3.33624">
        <ele>63.3</ele>
        <time>2020-08-14T11:19:57Z</time>
      </trkpt>
      <trkpt lat="48.80796" lon="-3.33621">
        <ele>63.3</ele>
        <time>2020-08-14T11:20:01Z</time>
      </trkpt>
      <trkpt lat="48.80789" lon="-3.33633">
        <ele>63.2</ele>
        <time>2020-08-14T11:20:07Z</time>
      </trkpt>
      <trkpt lat="48.80786" lon="-3.33651">
        <ele>63.1</ele>
        <time>2020-08-14T11:20:14Z</time>
      </trkpt>
      <trkpt lat="48.80783" lon="-3.33661">
        <ele>63</ele>
        <time>2020-08-14T11:20:19Z</time>
      </trkpt>
      <trkpt lat="48.80782" lon="-3.33675">
        <ele>62.3</ele>
        <time>2020-08-14T11:20:25Z</time>
      </trkpt>
      <trkpt lat="48.80782" lon="-3.33679">
        <ele>62.3</ele>
        <time>2020-08-14T11:20:26Z</time>
      </trkpt>
      <trkpt lat="48.80772" lon="-3.33712">
        <ele>61.9</ele>
        <time>2020-08-14T11:20:33Z</time>
      </trkpt>
      <trkpt lat="48.80766" lon="-3.33725">
        <ele>61.6</ele>
        <time>2020-08-14T11:20:38Z</time>
      </trkpt>
      <trkpt lat="48.80752" lon="-3.33732">
        <ele>61.1</ele>
        <time>2020-08-14T11:20:45Z</time>
      </trkpt>
      <trkpt lat="48.8074" lon="-3.33735">
        <ele>60.4</ele>
        <time>2020-08-14T11:20:50Z</time>
      </trkpt>
      <trkpt lat="48.80737" lon="-3.33738">
        <ele>60.4</ele>
        <time>2020-08-14T11:20:52Z</time>
      </trkpt>
      <trkpt lat="48.80735" lon="-3.33742">
        <ele>60.3</ele>
        <time>2020-08-14T11:20:55Z</time>
      </trkpt>
      <trkpt lat="48.80721" lon="-3.3376">
        <ele>58.2</ele>
        <time>2020-08-14T11:21:04Z</time>
      </trkpt>
      <trkpt lat="48.80705" lon="-3.33769">
        <ele>57.8</ele>
        <time>2020-08-14T11:21:11Z</time>
      </trkpt>
      <trkpt lat="48.80697" lon="-3.33776">
        <ele>57.5</ele>
        <time>2020-08-14T11:21:17Z</time>
      </trkpt>
      <trkpt lat="48.80695" lon="-3.3378">
        <ele>57.4</ele>
        <time>2020-08-14T11:21:21Z</time>
      </trkpt>
      <trkpt lat="48.80691" lon="-3.3379">
        <ele>57</ele>
        <time>2020-08-14T11:21:27Z</time>
      </trkpt>
      <trkpt lat="48.80688" lon="-3.33799">
        <ele>56.5</ele>
        <time>2020-08-14T11:21:30Z</time>
      </trkpt>
      <trkpt lat="48.80681" lon="-3.33819">
        <ele>55</ele>
        <time>2020-08-14T11:21:38Z</time>
      </trkpt>
      <trkpt lat="48.80676" lon="-3.33827">
        <ele>54</ele>
        <time>2020-08-14T11:21:42Z</time>
      </trkpt>
      <trkpt lat="48.80675" lon="-3.33831">
        <ele>53.6</ele>
        <time>2020-08-14T11:21:44Z</time>
      </trkpt>
      <trkpt lat="48.80669" lon="-3.33854">
        <ele>52.9</ele>
        <time>2020-08-14T11:21:51Z</time>
      </trkpt>
      <trkpt lat="48.80664" lon="-3.33874">
        <ele>49.2</ele>
        <time>2020-08-14T11:21:58Z</time>
      </trkpt>
      <trkpt lat="48.80661" lon="-3.33881">
        <ele>48.9</ele>
        <time>2020-08-14T11:22:01Z</time>
      </trkpt>
      <trkpt lat="48.80654" lon="-3.33897">
        <ele>48.2</ele>
        <time>2020-08-14T11:22:07Z</time>
      </trkpt>
      <trkpt lat="48.80646" lon="-3.33915">
        <ele>47.8</ele>
        <time>2020-08-14T11:22:14Z</time>
      </trkpt>
      <trkpt lat="48.80642" lon="-3.3392">
        <ele>45.3</ele>
        <time>2020-08-14T11:22:16Z</time>
      </trkpt>
      <trkpt lat="48.80626" lon="-3.33926">
        <ele>44.9</ele>
        <time>2020-08-14T11:22:23Z</time>
      </trkpt>
      <trkpt lat="48.80613" lon="-3.33923">
        <ele>44.6</ele>
        <time>2020-08-14T11:22:28Z</time>
      </trkpt>
      <trkpt lat="48.806" lon="-3.33911">
        <ele>46.5</ele>
        <time>2020-08-14T11:22:33Z</time>
      </trkpt>
      <trkpt lat="48.80586" lon="-3.33903">
        <ele>46.2</ele>
        <time>2020-08-14T11:22:39Z</time>
      </trkpt>
      <trkpt lat="48.80576" lon="-3.33894">
        <ele>47.9</ele>
        <time>2020-08-14T11:22:45Z</time>
      </trkpt>
      <trkpt lat="48.80564" lon="-3.33878">
        <ele>49.3</ele>
        <time>2020-08-14T11:22:53Z</time>
      </trkpt>
      <trkpt lat="48.80552" lon="-3.33868">
        <ele>49.7</ele>
        <time>2020-08-14T11:23:00Z</time>
      </trkpt>
      <trkpt lat="48.80539" lon="-3.33857">
        <ele>49.8</ele>
        <time>2020-08-14T11:23:07Z</time>
      </trkpt>
      <trkpt lat="48.8053" lon="-3.33849">
        <ele>49.5</ele>
        <time>2020-08-14T11:23:12Z</time>
      </trkpt>
      <trkpt lat="48.80524" lon="-3.33845">
        <ele>49.2</ele>
        <time>2020-08-14T11:23:15Z</time>
      </trkpt>
      <trkpt lat="48.80513" lon="-3.3384">
        <ele>48.5</ele>
        <time>2020-08-14T11:23:20Z</time>
      </trkpt>
      <trkpt lat="48.80499" lon="-3.33833">
        <ele>47.2</ele>
        <time>2020-08-14T11:23:26Z</time>
      </trkpt>
      <trkpt lat="48.80487" lon="-3.33821">
        <ele>49</ele>
        <time>2020-08-14T11:23:31Z</time>
      </trkpt>
      <trkpt lat="48.80471" lon="-3.33811">
        <ele>49.9</ele>
        <time>2020-08-14T11:23:36Z</time>
      </trkpt>
      <trkpt lat="48.80456" lon="-3.33796">
        <ele>50.5</ele>
        <time>2020-08-14T11:23:42Z</time>
      </trkpt>
      <trkpt lat="48.8044" lon="-3.33785">
        <ele>50.7</ele>
        <time>2020-08-14T11:23:48Z</time>
      </trkpt>
      <trkpt lat="48.80417" lon="-3.33778">
        <ele>50.8</ele>
        <time>2020-08-14T11:23:56Z</time>
      </trkpt>
      <trkpt lat="48.80404" lon="-3.33774">
        <ele>51</ele>
        <time>2020-08-14T11:24:00Z</time>
      </trkpt>
      <trkpt lat="48.80389" lon="-3.33767">
        <ele>51.1</ele>
        <time>2020-08-14T11:24:06Z</time>
      </trkpt>
      <trkpt lat="48.80374" lon="-3.3376">
        <ele>51.2</ele>
        <time>2020-08-14T11:24:11Z</time>
      </trkpt>
      <trkpt lat="48.80358" lon="-3.33748">
        <ele>54.2</ele>
        <time>2020-08-14T11:24:17Z</time>
      </trkpt>
      <trkpt lat="48.80345" lon="-3.33734">
        <ele>54.2</ele>
        <time>2020-08-14T11:24:23Z</time>
      </trkpt>
      <trkpt lat="48.80343" lon="-3.33732">
        <ele>54.3</ele>
        <time>2020-08-14T11:24:24Z</time>
      </trkpt>
      <trkpt lat="48.80334" lon="-3.3372">
        <ele>55.4</ele>
        <time>2020-08-14T11:24:30Z</time>
      </trkpt>
      <trkpt lat="48.80332" lon="-3.33719">
        <ele>55.9</ele>
        <time>2020-08-14T11:24:31Z</time>
      </trkpt>
      <trkpt lat="48.80329" lon="-3.33718">
        <ele>56</ele>
        <time>2020-08-14T11:24:33Z</time>
      </trkpt>
      <trkpt lat="48.80322" lon="-3.33724">
        <ele>55.7</ele>
        <time>2020-08-14T11:24:39Z</time>
      </trkpt>
      <trkpt lat="48.80319" lon="-3.33728">
        <ele>55.5</ele>
        <time>2020-08-14T11:24:41Z</time>
      </trkpt>
      <trkpt lat="48.80308" lon="-3.3374">
        <ele>55.6</ele>
        <time>2020-08-14T11:24:48Z</time>
      </trkpt>
      <trkpt lat="48.80305" lon="-3.33745">
        <ele>55.7</ele>
        <time>2020-08-14T11:24:51Z</time>
      </trkpt>
      <trkpt lat="48.80299" lon="-3.33752">
        <ele>57.4</ele>
        <time>2020-08-14T11:24:57Z</time>
      </trkpt>
      <trkpt lat="48.80294" lon="-3.33762">
        <ele>58.2</ele>
        <time>2020-08-14T11:25:03Z</time>
      </trkpt>
      <trkpt lat="48.80293" lon="-3.33762">
        <ele>58.3</ele>
        <time>2020-08-14T11:25:04Z</time>
      </trkpt>
      <trkpt lat="48.80291" lon="-3.33768">
        <ele>58.6</ele>
        <time>2020-08-14T11:25:08Z</time>
      </trkpt>
      <trkpt lat="48.80287" lon="-3.33776">
        <ele>59.2</ele>
        <time>2020-08-14T11:25:12Z</time>
      </trkpt>
      <trkpt lat="48.80283" lon="-3.33786">
        <ele>59.9</ele>
        <time>2020-08-14T11:25:19Z</time>
      </trkpt>
      <trkpt lat="48.80282" lon="-3.33787">
        <ele>60</ele>
        <time>2020-08-14T11:25:21Z</time>
      </trkpt>
      <trkpt lat="48.80281" lon="-3.33786">
        <ele>60</ele>
        <time>2020-08-14T11:26:22Z</time>
      </trkpt>
      <trkpt lat="48.80281" lon="-3.33795">
        <ele>60.5</ele>
        <time>2020-08-14T11:26:27Z</time>
      </trkpt>
      <trkpt lat="48.80281" lon="-3.33795">
        <ele>60.5</ele>
        <time>2020-08-14T11:26:28Z</time>
      </trkpt>
      <trkpt lat="48.80271" lon="-3.338">
        <ele>61.6</ele>
        <time>2020-08-14T11:28:08Z</time>
      </trkpt>
      <trkpt lat="48.8027" lon="-3.338">
        <ele>61.7</ele>
        <time>2020-08-14T11:28:12Z</time>
      </trkpt>
      <trkpt lat="48.80268" lon="-3.33808">
        <ele>62.6</ele>
        <time>2020-08-14T11:28:16Z</time>
      </trkpt>
      <trkpt lat="48.80266" lon="-3.33815">
        <ele>63.7</ele>
        <time>2020-08-14T11:28:19Z</time>
      </trkpt>
      <trkpt lat="48.80262" lon="-3.33831">
        <ele>66.5</ele>
        <time>2020-08-14T11:28:28Z</time>
      </trkpt>
      <trkpt lat="48.80257" lon="-3.33846">
        <ele>67.2</ele>
        <time>2020-08-14T11:28:34Z</time>
      </trkpt>
      <trkpt lat="48.80252" lon="-3.33857">
        <ele>65.9</ele>
        <time>2020-08-14T11:28:40Z</time>
      </trkpt>
      <trkpt lat="48.80249" lon="-3.33868">
        <ele>68.8</ele>
        <time>2020-08-14T11:28:45Z</time>
      </trkpt>
      <trkpt lat="48.80248" lon="-3.3387">
        <ele>68.7</ele>
        <time>2020-08-14T11:28:48Z</time>
      </trkpt>
      <trkpt lat="48.80245" lon="-3.33887">
        <ele>67.9</ele>
        <time>2020-08-14T11:29:03Z</time>
      </trkpt>
      <trkpt lat="48.80244" lon="-3.33903">
        <ele>66.8</ele>
        <time>2020-08-14T11:29:09Z</time>
      </trkpt>
      <trkpt lat="48.80242" lon="-3.33916">
        <ele>66.1</ele>
        <time>2020-08-14T11:29:16Z</time>
      </trkpt>
      <trkpt lat="48.80237" lon="-3.33933">
        <ele>66.1</ele>
        <time>2020-08-14T11:29:23Z</time>
      </trkpt>
      <trkpt lat="48.80235" lon="-3.33935">
        <ele>66.2</ele>
        <time>2020-08-14T11:29:24Z</time>
      </trkpt>
      <trkpt lat="48.8023" lon="-3.33943">
        <ele>66.4</ele>
        <time>2020-08-14T11:29:28Z</time>
      </trkpt>
      <trkpt lat="48.80228" lon="-3.33958">
        <ele>66.3</ele>
        <time>2020-08-14T11:29:35Z</time>
      </trkpt>
      <trkpt lat="48.80227" lon="-3.33969">
        <ele>66.2</ele>
        <time>2020-08-14T11:29:40Z</time>
      </trkpt>
      <trkpt lat="48.80222" lon="-3.33989">
        <ele>65.9</ele>
        <time>2020-08-14T11:29:48Z</time>
      </trkpt>
      <trkpt lat="48.80219" lon="-3.34003">
        <ele>66.7</ele>
        <time>2020-08-14T11:29:54Z</time>
      </trkpt>
      <trkpt lat="48.80219" lon="-3.34013">
        <ele>66.9</ele>
        <time>2020-08-14T11:30:00Z</time>
      </trkpt>
      <trkpt lat="48.80217" lon="-3.34027">
        <ele>67.4</ele>
        <time>2020-08-14T11:30:09Z</time>
      </trkpt>
      <trkpt lat="48.80216" lon="-3.34035">
        <ele>67.6</ele>
        <time>2020-08-14T11:30:14Z</time>
      </trkpt>
      <trkpt lat="48.80213" lon="-3.34045">
        <ele>68</ele>
        <time>2020-08-14T11:30:21Z</time>
      </trkpt>
      <trkpt lat="48.80211" lon="-3.34049">
        <ele>68.1</ele>
        <time>2020-08-14T11:30:24Z</time>
      </trkpt>
      <trkpt lat="48.80198" lon="-3.34065">
        <ele>68.8</ele>
        <time>2020-08-14T11:30:33Z</time>
      </trkpt>
      <trkpt lat="48.80188" lon="-3.34081">
        <ele>69.4</ele>
        <time>2020-08-14T11:30:42Z</time>
      </trkpt>
      <trkpt lat="48.8018" lon="-3.34092">
        <ele>71.1</ele>
        <time>2020-08-14T11:30:49Z</time>
      </trkpt>
      <trkpt lat="48.80171" lon="-3.34099">
        <ele>71.1</ele>
        <time>2020-08-14T11:30:56Z</time>
      </trkpt>
      <trkpt lat="48.80166" lon="-3.34096">
        <ele>71.7</ele>
        <time>2020-08-14T11:31:00Z</time>
      </trkpt>
      <trkpt lat="48.80161" lon="-3.34079">
        <ele>71.1</ele>
        <time>2020-08-14T11:31:09Z</time>
      </trkpt>
      <trkpt lat="48.80154" lon="-3.34066">
        <ele>71.1</ele>
        <time>2020-08-14T11:31:18Z</time>
      </trkpt>
      <trkpt lat="48.80143" lon="-3.34059">
        <ele>71.2</ele>
        <time>2020-08-14T11:31:26Z</time>
      </trkpt>
      <trkpt lat="48.80135" lon="-3.34053">
        <ele>71.2</ele>
        <time>2020-08-14T11:31:32Z</time>
      </trkpt>
      <trkpt lat="48.80125" lon="-3.34046">
        <ele>71.3</ele>
        <time>2020-08-14T11:31:40Z</time>
      </trkpt>
      <trkpt lat="48.80114" lon="-3.34034">
        <ele>71.4</ele>
        <time>2020-08-14T11:31:49Z</time>
      </trkpt>
      <trkpt lat="48.80105" lon="-3.34024">
        <ele>71.4</ele>
        <time>2020-08-14T11:31:56Z</time>
      </trkpt>
      <trkpt lat="48.80094" lon="-3.34012">
        <ele>71.6</ele>
        <time>2020-08-14T11:32:03Z</time>
      </trkpt>
      <trkpt lat="48.80084" lon="-3.33998">
        <ele>71.9</ele>
        <time>2020-08-14T11:32:12Z</time>
      </trkpt>
      <trkpt lat="48.80081" lon="-3.33995">
        <ele>72.5</ele>
        <time>2020-08-14T11:32:15Z</time>
      </trkpt>
      <trkpt lat="48.80077" lon="-3.33989">
        <ele>73.1</ele>
        <time>2020-08-14T11:32:19Z</time>
      </trkpt>
      <trkpt lat="48.80065" lon="-3.33979">
        <ele>73.9</ele>
        <time>2020-08-14T11:32:27Z</time>
      </trkpt>
      <trkpt lat="48.80056" lon="-3.33975">
        <ele>74.3</ele>
        <time>2020-08-14T11:32:34Z</time>
      </trkpt>
      <trkpt lat="48.80044" lon="-3.33974">
        <ele>74.8</ele>
        <time>2020-08-14T11:32:42Z</time>
      </trkpt>
      <trkpt lat="48.80032" lon="-3.33973">
        <ele>75.3</ele>
        <time>2020-08-14T11:32:51Z</time>
      </trkpt>
      <trkpt lat="48.80012" lon="-3.33967">
        <ele>76</ele>
        <time>2020-08-14T11:33:03Z</time>
      </trkpt>
      <trkpt lat="48.79999" lon="-3.33968">
        <ele>79.5</ele>
        <time>2020-08-14T11:33:11Z</time>
      </trkpt>
      <trkpt lat="48.79989" lon="-3.3398">
        <ele>79.6</ele>
        <time>2020-08-14T11:33:19Z</time>
      </trkpt>
      <trkpt lat="48.79976" lon="-3.33997">
        <ele>79.9</ele>
        <time>2020-08-14T11:33:29Z</time>
      </trkpt>
      <trkpt lat="48.79967" lon="-3.34002">
        <ele>80.1</ele>
        <time>2020-08-14T11:33:36Z</time>
      </trkpt>
      <trkpt lat="48.79954" lon="-3.33995">
        <ele>80.7</ele>
        <time>2020-08-14T11:33:44Z</time>
      </trkpt>
      <trkpt lat="48.79941" lon="-3.33983">
        <ele>81.1</ele>
        <time>2020-08-14T11:33:51Z</time>
      </trkpt>
      <trkpt lat="48.79926" lon="-3.33968">
        <ele>81.1</ele>
        <time>2020-08-14T11:33:58Z</time>
      </trkpt>
      <trkpt lat="48.79916" lon="-3.33961">
        <ele>83</ele>
        <time>2020-08-14T11:34:04Z</time>
      </trkpt>
      <trkpt lat="48.79902" lon="-3.33954">
        <ele>83</ele>
        <time>2020-08-14T11:34:12Z</time>
      </trkpt>
      <trkpt lat="48.79896" lon="-3.33953">
        <ele>83</ele>
        <time>2020-08-14T11:34:16Z</time>
      </trkpt>
      <trkpt lat="48.79888" lon="-3.33954">
        <ele>83.1</ele>
        <time>2020-08-14T11:34:22Z</time>
      </trkpt>
      <trkpt lat="48.79883" lon="-3.33956">
        <ele>83.2</ele>
        <time>2020-08-14T11:34:26Z</time>
      </trkpt>
      <trkpt lat="48.79879" lon="-3.33956">
        <ele>83.2</ele>
        <time>2020-08-14T11:34:29Z</time>
      </trkpt>
      <trkpt lat="48.79868" lon="-3.33959">
        <ele>83.3</ele>
        <time>2020-08-14T11:34:36Z</time>
      </trkpt>
      <trkpt lat="48.79851" lon="-3.3396">
        <ele>83.5</ele>
        <time>2020-08-14T11:34:44Z</time>
      </trkpt>
      <trkpt lat="48.79836" lon="-3.33963">
        <ele>83.5</ele>
        <time>2020-08-14T11:34:50Z</time>
      </trkpt>
      <trkpt lat="48.79818" lon="-3.33964">
        <ele>84.5</ele>
        <time>2020-08-14T11:34:59Z</time>
      </trkpt>
      <trkpt lat="48.79802" lon="-3.3396">
        <ele>84.7</ele>
        <time>2020-08-14T11:35:07Z</time>
      </trkpt>
      <trkpt lat="48.79793" lon="-3.33956">
        <ele>84.7</ele>
        <time>2020-08-14T11:35:13Z</time>
      </trkpt>
      <trkpt lat="48.7978" lon="-3.33953">
        <ele>84.8</ele>
        <time>2020-08-14T11:35:20Z</time>
      </trkpt>
      <trkpt lat="48.79758" lon="-3.33945">
        <ele>84.9</ele>
        <time>2020-08-14T11:35:30Z</time>
      </trkpt>
      <trkpt lat="48.79743" lon="-3.33943">
        <ele>85.5</ele>
        <time>2020-08-14T11:35:36Z</time>
      </trkpt>
      <trkpt lat="48.79722" lon="-3.33951">
        <ele>85.7</ele>
        <time>2020-08-14T11:35:44Z</time>
      </trkpt>
      <trkpt lat="48.79707" lon="-3.33962">
        <ele>85.8</ele>
        <time>2020-08-14T11:35:50Z</time>
      </trkpt>
      <trkpt lat="48.79692" lon="-3.33971">
        <ele>85.8</ele>
        <time>2020-08-14T11:35:57Z</time>
      </trkpt>
      <trkpt lat="48.7967" lon="-3.33974">
        <ele>85.9</ele>
        <time>2020-08-14T11:36:05Z</time>
      </trkpt>
      <trkpt lat="48.79653" lon="-3.33971">
        <ele>85.5</ele>
        <time>2020-08-14T11:36:12Z</time>
      </trkpt>
      <trkpt lat="48.79641" lon="-3.33965">
        <ele>85.4</ele>
        <time>2020-08-14T11:36:18Z</time>
      </trkpt>
      <trkpt lat="48.79627" lon="-3.33954">
        <ele>85.3</ele>
        <time>2020-08-14T11:36:24Z</time>
      </trkpt>
      <trkpt lat="48.79602" lon="-3.33936">
        <ele>84.9</ele>
        <time>2020-08-14T11:36:32Z</time>
      </trkpt>
      <trkpt lat="48.79572" lon="-3.33913">
        <ele>83.7</ele>
        <time>2020-08-14T11:36:40Z</time>
      </trkpt>
      <trkpt lat="48.79564" lon="-3.33908">
        <ele>83.6</ele>
        <time>2020-08-14T11:36:42Z</time>
      </trkpt>
      <trkpt lat="48.79549" lon="-3.33895">
        <ele>83.4</ele>
        <time>2020-08-14T11:36:46Z</time>
      </trkpt>
      <trkpt lat="48.79527" lon="-3.33872">
        <ele>83.1</ele>
        <time>2020-08-14T11:36:52Z</time>
      </trkpt>
      <trkpt lat="48.79505" lon="-3.33845">
        <ele>82.5</ele>
        <time>2020-08-14T11:36:59Z</time>
      </trkpt>
      <trkpt lat="48.79487" lon="-3.33822">
        <ele>81.5</ele>
        <time>2020-08-14T11:37:05Z</time>
      </trkpt>
      <trkpt lat="48.79458" lon="-3.33787">
        <ele>81</ele>
        <time>2020-08-14T11:37:12Z</time>
      </trkpt>
      <trkpt lat="48.79428" lon="-3.33751">
        <ele>79.8</ele>
        <time>2020-08-14T11:37:18Z</time>
      </trkpt>
      <trkpt lat="48.79412" lon="-3.33729">
        <ele>78.6</ele>
        <time>2020-08-14T11:37:21Z</time>
      </trkpt>
      <trkpt lat="48.79375" lon="-3.33692">
        <ele>78.2</ele>
        <time>2020-08-14T11:37:27Z</time>
      </trkpt>
      <trkpt lat="48.79338" lon="-3.33648">
        <ele>77.4</ele>
        <time>2020-08-14T11:37:33Z</time>
      </trkpt>
      <trkpt lat="48.79309" lon="-3.33635">
        <ele>77.8</ele>
        <time>2020-08-14T11:37:37Z</time>
      </trkpt>
      <trkpt lat="48.79296" lon="-3.33644">
        <ele>77.9</ele>
        <time>2020-08-14T11:37:39Z</time>
      </trkpt>
      <trkpt lat="48.79273" lon="-3.33669">
        <ele>77.8</ele>
        <time>2020-08-14T11:37:44Z</time>
      </trkpt>
      <trkpt lat="48.79247" lon="-3.33678">
        <ele>78.5</ele>
        <time>2020-08-14T11:37:50Z</time>
      </trkpt>
      <trkpt lat="48.79231" lon="-3.33669">
        <ele>78.7</ele>
        <time>2020-08-14T11:37:54Z</time>
      </trkpt>
      <trkpt lat="48.79212" lon="-3.33651">
        <ele>79.8</ele>
        <time>2020-08-14T11:38:01Z</time>
      </trkpt>
      <trkpt lat="48.79194" lon="-3.33636">
        <ele>80.2</ele>
        <time>2020-08-14T11:38:08Z</time>
      </trkpt>
      <trkpt lat="48.79179" lon="-3.33624">
        <ele>80.5</ele>
        <time>2020-08-14T11:38:15Z</time>
      </trkpt>
      <trkpt lat="48.79166" lon="-3.33615">
        <ele>81.9</ele>
        <time>2020-08-14T11:38:22Z</time>
      </trkpt>
      <trkpt lat="48.79152" lon="-3.33605">
        <ele>82</ele>
        <time>2020-08-14T11:38:30Z</time>
      </trkpt>
      <trkpt lat="48.79136" lon="-3.33597">
        <ele>82.1</ele>
        <time>2020-08-14T11:38:38Z</time>
      </trkpt>
      <trkpt lat="48.79115" lon="-3.33589">
        <ele>82.3</ele>
        <time>2020-08-14T11:38:47Z</time>
      </trkpt>
      <trkpt lat="48.79099" lon="-3.33585">
        <ele>82.5</ele>
        <time>2020-08-14T11:38:54Z</time>
      </trkpt>
      <trkpt lat="48.79083" lon="-3.3358">
        <ele>83.4</ele>
        <time>2020-08-14T11:39:01Z</time>
      </trkpt>
      <trkpt lat="48.79062" lon="-3.33569">
        <ele>84.9</ele>
        <time>2020-08-14T11:39:11Z</time>
      </trkpt>
      <trkpt lat="48.79058" lon="-3.3357">
        <ele>85</ele>
        <time>2020-08-14T11:39:17Z</time>
      </trkpt>
      <trkpt lat="48.79057" lon="-3.33573">
        <ele>85</ele>
        <time>2020-08-14T11:42:40Z</time>
      </trkpt>
      <trkpt lat="48.79057" lon="-3.33573">
        <ele>85</ele>
        <time>2020-08-14T11:42:41Z</time>
      </trkpt>
      <trkpt lat="48.79054" lon="-3.33574">
        <ele>85.2</ele>
        <time>2020-08-14T11:42:45Z</time>
      </trkpt>
      <trkpt lat="48.79049" lon="-3.33589">
        <ele>84.9</ele>
        <time>2020-08-14T11:42:53Z</time>
      </trkpt>
      <trkpt lat="48.79044" lon="-3.33602">
        <ele>85</ele>
        <time>2020-08-14T11:42:59Z</time>
      </trkpt>
      <trkpt lat="48.79037" lon="-3.33619">
        <ele>85.2</ele>
        <time>2020-08-14T11:43:07Z</time>
      </trkpt>
      <trkpt lat="48.79025" lon="-3.33645">
        <ele>85.5</ele>
        <time>2020-08-14T11:43:17Z</time>
      </trkpt>
      <trkpt lat="48.79015" lon="-3.33668">
        <ele>85.6</ele>
        <time>2020-08-14T11:43:25Z</time>
      </trkpt>
      <trkpt lat="48.79001" lon="-3.33699">
        <ele>85</ele>
        <time>2020-08-14T11:43:34Z</time>
      </trkpt>
      <trkpt lat="48.78987" lon="-3.3373">
        <ele>86.8</ele>
        <time>2020-08-14T11:43:41Z</time>
      </trkpt>
      <trkpt lat="48.78963" lon="-3.33782">
        <ele>87.1</ele>
        <time>2020-08-14T11:43:51Z</time>
      </trkpt>
      <trkpt lat="48.78945" lon="-3.33822">
        <ele>87.5</ele>
        <time>2020-08-14T11:43:59Z</time>
      </trkpt>
      <trkpt lat="48.78939" lon="-3.33829">
        <ele>87.6</ele>
        <time>2020-08-14T11:44:02Z</time>
      </trkpt>
      <trkpt lat="48.78931" lon="-3.3382">
        <ele>87.7</ele>
        <time>2020-08-14T11:44:06Z</time>
      </trkpt>
      <trkpt lat="48.78931" lon="-3.33816">
        <ele>87.6</ele>
        <time>2020-08-14T11:44:07Z</time>
      </trkpt>
      <trkpt lat="48.78929" lon="-3.33774">
        <ele>87.8</ele>
        <time>2020-08-14T11:44:16Z</time>
      </trkpt>
      <trkpt lat="48.78926" lon="-3.3374">
        <ele>88.6</ele>
        <time>2020-08-14T11:44:25Z</time>
      </trkpt>
      <trkpt lat="48.78921" lon="-3.33706">
        <ele>88.8</ele>
        <time>2020-08-14T11:44:35Z</time>
      </trkpt>
      <trkpt lat="48.78914" lon="-3.33672">
        <ele>91.2</ele>
        <time>2020-08-14T11:44:45Z</time>
      </trkpt>
      <trkpt lat="48.78904" lon="-3.3364">
        <ele>92.7</ele>
        <time>2020-08-14T11:44:53Z</time>
      </trkpt>
      <trkpt lat="48.78886" lon="-3.33588">
        <ele>93.3</ele>
        <time>2020-08-14T11:45:06Z</time>
      </trkpt>
      <trkpt lat="48.7887" lon="-3.3354">
        <ele>93.6</ele>
        <time>2020-08-14T11:45:18Z</time>
      </trkpt>
      <trkpt lat="48.78856" lon="-3.335">
        <ele>93.5</ele>
        <time>2020-08-14T11:45:28Z</time>
      </trkpt>
      <trkpt lat="48.78841" lon="-3.33467">
        <ele>93.2</ele>
        <time>2020-08-14T11:45:36Z</time>
      </trkpt>
      <trkpt lat="48.78817" lon="-3.33417">
        <ele>94.6</ele>
        <time>2020-08-14T11:45:47Z</time>
      </trkpt>
      <trkpt lat="48.78792" lon="-3.33369">
        <ele>93.9</ele>
        <time>2020-08-14T11:45:57Z</time>
      </trkpt>
      <trkpt lat="48.78771" lon="-3.33337">
        <ele>93.9</ele>
        <time>2020-08-14T11:46:03Z</time>
      </trkpt>
      <trkpt lat="48.78734" lon="-3.33296">
        <ele>94.1</ele>
        <time>2020-08-14T11:46:13Z</time>
      </trkpt>
      <trkpt lat="48.7871" lon="-3.33279">
        <ele>94.4</ele>
        <time>2020-08-14T11:46:20Z</time>
      </trkpt>
      <trkpt lat="48.78696" lon="-3.33274">
        <ele>94.7</ele>
        <time>2020-08-14T11:46:26Z</time>
      </trkpt>
      <trkpt lat="48.78694" lon="-3.33274">
        <ele>94.7</ele>
        <time>2020-08-14T11:46:27Z</time>
      </trkpt>
      <trkpt lat="48.78689" lon="-3.33269">
        <ele>94.9</ele>
        <time>2020-08-14T11:46:31Z</time>
      </trkpt>
      <trkpt lat="48.78678" lon="-3.33259">
        <ele>95.3</ele>
        <time>2020-08-14T11:46:38Z</time>
      </trkpt>
      <trkpt lat="48.78669" lon="-3.33253">
        <ele>95.8</ele>
        <time>2020-08-14T11:46:44Z</time>
      </trkpt>
      <trkpt lat="48.78665" lon="-3.33253">
        <ele>96.1</ele>
        <time>2020-08-14T11:46:46Z</time>
      </trkpt>
      <trkpt lat="48.7866" lon="-3.33263">
        <ele>96.5</ele>
        <time>2020-08-14T11:46:51Z</time>
      </trkpt>
      <trkpt lat="48.78654" lon="-3.33282">
        <ele>96.7</ele>
        <time>2020-08-14T11:46:58Z</time>
      </trkpt>
      <trkpt lat="48.7865" lon="-3.33314">
        <ele>96.6</ele>
        <time>2020-08-14T11:47:06Z</time>
      </trkpt>
      <trkpt lat="48.78651" lon="-3.33345">
        <ele>96.4</ele>
        <time>2020-08-14T11:47:14Z</time>
      </trkpt>
      <trkpt lat="48.78653" lon="-3.3338">
        <ele>96.7</ele>
        <time>2020-08-14T11:47:22Z</time>
      </trkpt>
      <trkpt lat="48.78652" lon="-3.33425">
        <ele>96.9</ele>
        <time>2020-08-14T11:47:32Z</time>
      </trkpt>
      <trkpt lat="48.7865" lon="-3.33467">
        <ele>96.8</ele>
        <time>2020-08-14T11:47:41Z</time>
      </trkpt>
      <trkpt lat="48.78646" lon="-3.33508">
        <ele>96.8</ele>
        <time>2020-08-14T11:47:50Z</time>
      </trkpt>
      <trkpt lat="48.78644" lon="-3.33549">
        <ele>96.8</ele>
        <time>2020-08-14T11:47:59Z</time>
      </trkpt>
      <trkpt lat="48.78645" lon="-3.33584">
        <ele>97.3</ele>
        <time>2020-08-14T11:48:07Z</time>
      </trkpt>
      <trkpt lat="48.78648" lon="-3.33621">
        <ele>97.5</ele>
        <time>2020-08-14T11:48:16Z</time>
      </trkpt>
      <trkpt lat="48.78651" lon="-3.33654">
        <ele>97.7</ele>
        <time>2020-08-14T11:48:24Z</time>
      </trkpt>
      <trkpt lat="48.78653" lon="-3.33683">
        <ele>98.1</ele>
        <time>2020-08-14T11:48:31Z</time>
      </trkpt>
      <trkpt lat="48.78653" lon="-3.33728">
        <ele>98.2</ele>
        <time>2020-08-14T11:48:41Z</time>
      </trkpt>
      <trkpt lat="48.78654" lon="-3.33771">
        <ele>98</ele>
        <time>2020-08-14T11:48:50Z</time>
      </trkpt>
      <trkpt lat="48.78655" lon="-3.33826">
        <ele>97.4</ele>
        <time>2020-08-14T11:49:02Z</time>
      </trkpt>
      <trkpt lat="48.78652" lon="-3.33872">
        <ele>96.9</ele>
        <time>2020-08-14T11:49:11Z</time>
      </trkpt>
      <trkpt lat="48.78647" lon="-3.33916">
        <ele>96.5</ele>
        <time>2020-08-14T11:49:19Z</time>
      </trkpt>
      <trkpt lat="48.78645" lon="-3.33972">
        <ele>97.2</ele>
        <time>2020-08-14T11:49:29Z</time>
      </trkpt>
      <trkpt lat="48.78648" lon="-3.34027">
        <ele>97.3</ele>
        <time>2020-08-14T11:49:39Z</time>
      </trkpt>
      <trkpt lat="48.7865" lon="-3.34063">
        <ele>97</ele>
        <time>2020-08-14T11:49:46Z</time>
      </trkpt>
      <trkpt lat="48.78651" lon="-3.34119">
        <ele>96.5</ele>
        <time>2020-08-14T11:49:56Z</time>
      </trkpt>
      <trkpt lat="48.78647" lon="-3.34169">
        <ele>96.3</ele>
        <time>2020-08-14T11:50:05Z</time>
      </trkpt>
      <trkpt lat="48.78641" lon="-3.34238">
        <ele>95.8</ele>
        <time>2020-08-14T11:50:17Z</time>
      </trkpt>
      <trkpt lat="48.78638" lon="-3.34315">
        <ele>95.6</ele>
        <time>2020-08-14T11:50:30Z</time>
      </trkpt>
      <trkpt lat="48.78634" lon="-3.34378">
        <ele>95.6</ele>
        <time>2020-08-14T11:50:42Z</time>
      </trkpt>
      <trkpt lat="48.78637" lon="-3.34424">
        <ele>95.6</ele>
        <time>2020-08-14T11:50:52Z</time>
      </trkpt>
      <trkpt lat="48.78639" lon="-3.34464">
        <ele>95.6</ele>
        <time>2020-08-14T11:51:02Z</time>
      </trkpt>
      <trkpt lat="48.78638" lon="-3.34503">
        <ele>95.5</ele>
        <time>2020-08-14T11:51:12Z</time>
      </trkpt>
      <trkpt lat="48.78638" lon="-3.34544">
        <ele>95.3</ele>
        <time>2020-08-14T11:51:22Z</time>
      </trkpt>
      <trkpt lat="48.78637" lon="-3.34587">
        <ele>94.5</ele>
        <time>2020-08-14T11:51:31Z</time>
      </trkpt>
      <trkpt lat="48.78635" lon="-3.34604">
        <ele>94.4</ele>
        <time>2020-08-14T11:51:34Z</time>
      </trkpt>
      <trkpt lat="48.78624" lon="-3.34656">
        <ele>94</ele>
        <time>2020-08-14T11:51:41Z</time>
      </trkpt>
      <trkpt lat="48.78605" lon="-3.34722">
        <ele>92.6</ele>
        <time>2020-08-14T11:51:49Z</time>
      </trkpt>
      <trkpt lat="48.78591" lon="-3.34778">
        <ele>91.4</ele>
        <time>2020-08-14T11:51:56Z</time>
      </trkpt>
      <trkpt lat="48.78577" lon="-3.34836">
        <ele>90.2</ele>
        <time>2020-08-14T11:52:04Z</time>
      </trkpt>
      <trkpt lat="48.7857" lon="-3.34878">
        <ele>90.5</ele>
        <time>2020-08-14T11:52:10Z</time>
      </trkpt>
      <trkpt lat="48.78564" lon="-3.34924">
        <ele>90.3</ele>
        <time>2020-08-14T11:52:18Z</time>
      </trkpt>
      <trkpt lat="48.78561" lon="-3.34956">
        <ele>90.3</ele>
        <time>2020-08-14T11:52:24Z</time>
      </trkpt>
      <trkpt lat="48.78562" lon="-3.34996">
        <ele>89.9</ele>
        <time>2020-08-14T11:52:32Z</time>
      </trkpt>
      <trkpt lat="48.78569" lon="-3.35042">
        <ele>89.5</ele>
        <time>2020-08-14T11:52:42Z</time>
      </trkpt>
      <trkpt lat="48.7858" lon="-3.35084">
        <ele>89.1</ele>
        <time>2020-08-14T11:52:52Z</time>
      </trkpt>
      <trkpt lat="48.78592" lon="-3.35126">
        <ele>88.3</ele>
        <time>2020-08-14T11:53:00Z</time>
      </trkpt>
      <trkpt lat="48.78608" lon="-3.35179">
        <ele>88.3</ele>
        <time>2020-08-14T11:53:08Z</time>
      </trkpt>
      <trkpt lat="48.78623" lon="-3.35228">
        <ele>88</ele>
        <time>2020-08-14T11:53:15Z</time>
      </trkpt>
      <trkpt lat="48.78643" lon="-3.35295">
        <ele>87.4</ele>
        <time>2020-08-14T11:53:24Z</time>
      </trkpt>
      <trkpt lat="48.78657" lon="-3.35347">
        <ele>86.8</ele>
        <time>2020-08-14T11:53:32Z</time>
      </trkpt>
      <trkpt lat="48.78669" lon="-3.35387">
        <ele>86.1</ele>
        <time>2020-08-14T11:53:40Z</time>
      </trkpt>
      <trkpt lat="48.7868" lon="-3.35427">
        <ele>85.9</ele>
        <time>2020-08-14T11:53:49Z</time>
      </trkpt>
      <trkpt lat="48.78693" lon="-3.35468">
        <ele>85.9</ele>
        <time>2020-08-14T11:53:58Z</time>
      </trkpt>
      <trkpt lat="48.78708" lon="-3.35511">
        <ele>85.7</ele>
        <time>2020-08-14T11:54:07Z</time>
      </trkpt>
      <trkpt lat="48.78724" lon="-3.35568">
        <ele>85.3</ele>
        <time>2020-08-14T11:54:18Z</time>
      </trkpt>
      <trkpt lat="48.78726" lon="-3.35574">
        <ele>85.3</ele>
        <time>2020-08-14T11:54:19Z</time>
      </trkpt>
      <trkpt lat="48.78736" lon="-3.35619">
        <ele>84.7</ele>
        <time>2020-08-14T11:54:27Z</time>
      </trkpt>
      <trkpt lat="48.78747" lon="-3.35657">
        <ele>84.3</ele>
        <time>2020-08-14T11:54:33Z</time>
      </trkpt>
      <trkpt lat="48.78754" lon="-3.35674">
        <ele>83.9</ele>
        <time>2020-08-14T11:54:36Z</time>
      </trkpt>
      <trkpt lat="48.78777" lon="-3.35695">
        <ele>83.8</ele>
        <time>2020-08-14T11:54:42Z</time>
      </trkpt>
      <trkpt lat="48.78807" lon="-3.35711">
        <ele>83.8</ele>
        <time>2020-08-14T11:54:50Z</time>
      </trkpt>
      <trkpt lat="48.78837" lon="-3.35732">
        <ele>84</ele>
        <time>2020-08-14T11:54:59Z</time>
      </trkpt>
      <trkpt lat="48.78865" lon="-3.35757">
        <ele>83.8</ele>
        <time>2020-08-14T11:55:08Z</time>
      </trkpt>
      <trkpt lat="48.78892" lon="-3.35785">
        <ele>83.8</ele>
        <time>2020-08-14T11:55:18Z</time>
      </trkpt>
      <trkpt lat="48.78921" lon="-3.35814">
        <ele>83.7</ele>
        <time>2020-08-14T11:55:28Z</time>
      </trkpt>
      <trkpt lat="48.7895" lon="-3.35842">
        <ele>83.9</ele>
        <time>2020-08-14T11:55:38Z</time>
      </trkpt>
      <trkpt lat="48.78975" lon="-3.35861">
        <ele>83.8</ele>
        <time>2020-08-14T11:55:46Z</time>
      </trkpt>
      <trkpt lat="48.78996" lon="-3.35873">
        <ele>83.8</ele>
        <time>2020-08-14T11:55:52Z</time>
      </trkpt>
      <trkpt lat="48.79024" lon="-3.35891">
        <ele>83.4</ele>
        <time>2020-08-14T11:55:59Z</time>
      </trkpt>
      <trkpt lat="48.79059" lon="-3.35918">
        <ele>83.5</ele>
        <time>2020-08-14T11:56:08Z</time>
      </trkpt>
      <trkpt lat="48.79081" lon="-3.35936">
        <ele>83.4</ele>
        <time>2020-08-14T11:56:15Z</time>
      </trkpt>
      <trkpt lat="48.79112" lon="-3.3596">
        <ele>83.9</ele>
        <time>2020-08-14T11:56:25Z</time>
      </trkpt>
      <trkpt lat="48.79141" lon="-3.35987">
        <ele>84.3</ele>
        <time>2020-08-14T11:56:35Z</time>
      </trkpt>
      <trkpt lat="48.79159" lon="-3.36011">
        <ele>84.8</ele>
        <time>2020-08-14T11:56:43Z</time>
      </trkpt>
      <trkpt lat="48.79176" lon="-3.36033">
        <ele>85</ele>
        <time>2020-08-14T11:56:51Z</time>
      </trkpt>
      <trkpt lat="48.79197" lon="-3.36059">
        <ele>85</ele>
        <time>2020-08-14T11:57:00Z</time>
      </trkpt>
      <trkpt lat="48.79218" lon="-3.36086">
        <ele>85.2</ele>
        <time>2020-08-14T11:57:09Z</time>
      </trkpt>
      <trkpt lat="48.79234" lon="-3.36107">
        <ele>85.2</ele>
        <time>2020-08-14T11:57:15Z</time>
      </trkpt>
      <trkpt lat="48.79253" lon="-3.36132">
        <ele>85.6</ele>
        <time>2020-08-14T11:57:21Z</time>
      </trkpt>
      <trkpt lat="48.79263" lon="-3.36145">
        <ele>85.6</ele>
        <time>2020-08-14T11:57:24Z</time>
      </trkpt>
      <trkpt lat="48.79274" lon="-3.36154">
        <ele>85.6</ele>
        <time>2020-08-14T11:57:27Z</time>
      </trkpt>
      <trkpt lat="48.79284" lon="-3.36166">
        <ele>85.6</ele>
        <time>2020-08-14T11:57:30Z</time>
      </trkpt>
      <trkpt lat="48.79299" lon="-3.36196">
        <ele>85.1</ele>
        <time>2020-08-14T11:57:35Z</time>
      </trkpt>
      <trkpt lat="48.79321" lon="-3.36265">
        <ele>84.5</ele>
        <time>2020-08-14T11:57:45Z</time>
      </trkpt>
      <trkpt lat="48.79325" lon="-3.36279">
        <ele>84.3</ele>
        <time>2020-08-14T11:57:47Z</time>
      </trkpt>
      <trkpt lat="48.79346" lon="-3.36318">
        <ele>84.4</ele>
        <time>2020-08-14T11:57:54Z</time>
      </trkpt>
      <trkpt lat="48.79368" lon="-3.36341">
        <ele>84.3</ele>
        <time>2020-08-14T11:58:01Z</time>
      </trkpt>
      <trkpt lat="48.79384" lon="-3.36342">
        <ele>84.4</ele>
        <time>2020-08-14T11:58:06Z</time>
      </trkpt>
      <trkpt lat="48.79418" lon="-3.36326">
        <ele>85.1</ele>
        <time>2020-08-14T11:58:16Z</time>
      </trkpt>
      <trkpt lat="48.79447" lon="-3.36317">
        <ele>85.2</ele>
        <time>2020-08-14T11:58:24Z</time>
      </trkpt>
      <trkpt lat="48.79481" lon="-3.36311">
        <ele>85.5</ele>
        <time>2020-08-14T11:58:33Z</time>
      </trkpt>
      <trkpt lat="48.79515" lon="-3.36311">
        <ele>85.5</ele>
        <time>2020-08-14T11:58:42Z</time>
      </trkpt>
      <trkpt lat="48.7955" lon="-3.36317">
        <ele>85.3</ele>
        <time>2020-08-14T11:58:52Z</time>
      </trkpt>
      <trkpt lat="48.79563" lon="-3.36329">
        <ele>85.2</ele>
        <time>2020-08-14T11:58:57Z</time>
      </trkpt>
      <trkpt lat="48.79565" lon="-3.36349">
        <ele>85.2</ele>
        <time>2020-08-14T11:59:01Z</time>
      </trkpt>
      <trkpt lat="48.79558" lon="-3.36372">
        <ele>85.2</ele>
        <time>2020-08-14T11:59:07Z</time>
      </trkpt>
      <trkpt lat="48.79548" lon="-3.36397">
        <ele>85.2</ele>
        <time>2020-08-14T11:59:13Z</time>
      </trkpt>
      <trkpt lat="48.79537" lon="-3.36427">
        <ele>84.8</ele>
        <time>2020-08-14T11:59:20Z</time>
      </trkpt>
      <trkpt lat="48.79524" lon="-3.36463">
        <ele>84.7</ele>
        <time>2020-08-14T11:59:28Z</time>
      </trkpt>
      <trkpt lat="48.7951" lon="-3.36503">
        <ele>84.2</ele>
        <time>2020-08-14T11:59:36Z</time>
      </trkpt>
      <trkpt lat="48.79489" lon="-3.36563">
        <ele>84</ele>
        <time>2020-08-14T11:59:47Z</time>
      </trkpt>
      <trkpt lat="48.79472" lon="-3.36608">
        <ele>83.2</ele>
        <time>2020-08-14T11:59:55Z</time>
      </trkpt>
      <trkpt lat="48.79451" lon="-3.36666">
        <ele>82.7</ele>
        <time>2020-08-14T12:00:05Z</time>
      </trkpt>
      <trkpt lat="48.79425" lon="-3.3671">
        <ele>82</ele>
        <time>2020-08-14T12:00:14Z</time>
      </trkpt>
      <trkpt lat="48.79405" lon="-3.36737">
        <ele>81.3</ele>
        <time>2020-08-14T12:00:20Z</time>
      </trkpt>
      <trkpt lat="48.79377" lon="-3.36792">
        <ele>81.5</ele>
        <time>2020-08-14T12:00:30Z</time>
      </trkpt>
      <trkpt lat="48.79358" lon="-3.36845">
        <ele>81.7</ele>
        <time>2020-08-14T12:00:39Z</time>
      </trkpt>
      <trkpt lat="48.79339" lon="-3.36865">
        <ele>81.5</ele>
        <time>2020-08-14T12:00:44Z</time>
      </trkpt>
      <trkpt lat="48.79296" lon="-3.36891">
        <ele>80.8</ele>
        <time>2020-08-14T12:00:53Z</time>
      </trkpt>
      <trkpt lat="48.79272" lon="-3.36922">
        <ele>80</ele>
        <time>2020-08-14T12:00:59Z</time>
      </trkpt>
      <trkpt lat="48.79247" lon="-3.36966">
        <ele>79.3</ele>
        <time>2020-08-14T12:01:07Z</time>
      </trkpt>
      <trkpt lat="48.79225" lon="-3.37006">
        <ele>78.9</ele>
        <time>2020-08-14T12:01:14Z</time>
      </trkpt>
      <trkpt lat="48.79207" lon="-3.37044">
        <ele>79</ele>
        <time>2020-08-14T12:01:20Z</time>
      </trkpt>
      <trkpt lat="48.79191" lon="-3.3709">
        <ele>79.1</ele>
        <time>2020-08-14T12:01:27Z</time>
      </trkpt>
      <trkpt lat="48.79172" lon="-3.3714">
        <ele>78.7</ele>
        <time>2020-08-14T12:01:36Z</time>
      </trkpt>
      <trkpt lat="48.7915" lon="-3.37181">
        <ele>77.1</ele>
        <time>2020-08-14T12:01:44Z</time>
      </trkpt>
      <trkpt lat="48.79126" lon="-3.37225">
        <ele>76.5</ele>
        <time>2020-08-14T12:01:52Z</time>
      </trkpt>
      <trkpt lat="48.79102" lon="-3.37262">
        <ele>75.9</ele>
        <time>2020-08-14T12:01:58Z</time>
      </trkpt>
      <trkpt lat="48.79069" lon="-3.37306">
        <ele>75.2</ele>
        <time>2020-08-14T12:02:04Z</time>
      </trkpt>
      <trkpt lat="48.7903" lon="-3.37357">
        <ele>74.8</ele>
        <time>2020-08-14T12:02:10Z</time>
      </trkpt>
      <trkpt lat="48.79008" lon="-3.37378">
        <ele>74.6</ele>
        <time>2020-08-14T12:02:14Z</time>
      </trkpt>
      <trkpt lat="48.78976" lon="-3.37394">
        <ele>74.5</ele>
        <time>2020-08-14T12:02:21Z</time>
      </trkpt>
      <trkpt lat="48.78937" lon="-3.37399">
        <ele>74.2</ele>
        <time>2020-08-14T12:02:30Z</time>
      </trkpt>
      <trkpt lat="48.78933" lon="-3.374">
        <ele>74.1</ele>
        <time>2020-08-14T12:02:31Z</time>
      </trkpt>
      <trkpt lat="48.78902" lon="-3.37405">
        <ele>73.7</ele>
        <time>2020-08-14T12:02:39Z</time>
      </trkpt>
      <trkpt lat="48.78877" lon="-3.37411">
        <ele>74</ele>
        <time>2020-08-14T12:02:46Z</time>
      </trkpt>
      <trkpt lat="48.78853" lon="-3.3742">
        <ele>73.6</ele>
        <time>2020-08-14T12:02:53Z</time>
      </trkpt>
      <trkpt lat="48.78828" lon="-3.37428">
        <ele>73.7</ele>
        <time>2020-08-14T12:03:01Z</time>
      </trkpt>
      <trkpt lat="48.78795" lon="-3.3744">
        <ele>73.3</ele>
        <time>2020-08-14T12:03:11Z</time>
      </trkpt>
      <trkpt lat="48.78767" lon="-3.3745">
        <ele>73.2</ele>
        <time>2020-08-14T12:03:20Z</time>
      </trkpt>
      <trkpt lat="48.78735" lon="-3.3746">
        <ele>72.1</ele>
        <time>2020-08-14T12:03:30Z</time>
      </trkpt>
      <trkpt lat="48.78705" lon="-3.37466">
        <ele>71.7</ele>
        <time>2020-08-14T12:03:37Z</time>
      </trkpt>
      <trkpt lat="48.78664" lon="-3.37461">
        <ele>70.5</ele>
        <time>2020-08-14T12:03:45Z</time>
      </trkpt>
      <trkpt lat="48.78625" lon="-3.37454">
        <ele>70.5</ele>
        <time>2020-08-14T12:03:52Z</time>
      </trkpt>
      <trkpt lat="48.78583" lon="-3.37445">
        <ele>70</ele>
        <time>2020-08-14T12:03:58Z</time>
      </trkpt>
      <trkpt lat="48.78535" lon="-3.37437">
        <ele>69.4</ele>
        <time>2020-08-14T12:04:04Z</time>
      </trkpt>
      <trkpt lat="48.78519" lon="-3.37447">
        <ele>69.2</ele>
        <time>2020-08-14T12:04:07Z</time>
      </trkpt>
      <trkpt lat="48.78517" lon="-3.37463">
        <ele>69.3</ele>
        <time>2020-08-14T12:04:09Z</time>
      </trkpt>
      <trkpt lat="48.78518" lon="-3.37482">
        <ele>69.3</ele>
        <time>2020-08-14T12:04:11Z</time>
      </trkpt>
      <trkpt lat="48.78508" lon="-3.37519">
        <ele>69.5</ele>
        <time>2020-08-14T12:04:15Z</time>
      </trkpt>
      <trkpt lat="48.78498" lon="-3.37522">
        <ele>69.8</ele>
        <time>2020-08-14T12:04:17Z</time>
      </trkpt>
      <trkpt lat="48.78475" lon="-3.3752">
        <ele>69.9</ele>
        <time>2020-08-14T12:04:23Z</time>
      </trkpt>
      <trkpt lat="48.78447" lon="-3.37516">
        <ele>70.1</ele>
        <time>2020-08-14T12:04:30Z</time>
      </trkpt>
      <trkpt lat="48.78408" lon="-3.37516">
        <ele>70.1</ele>
        <time>2020-08-14T12:04:38Z</time>
      </trkpt>
      <trkpt lat="48.78378" lon="-3.37526">
        <ele>70</ele>
        <time>2020-08-14T12:04:45Z</time>
      </trkpt>
      <trkpt lat="48.78356" lon="-3.37543">
        <ele>69.9</ele>
        <time>2020-08-14T12:04:51Z</time>
      </trkpt>
      <trkpt lat="48.78349" lon="-3.37551">
        <ele>69.8</ele>
        <time>2020-08-14T12:04:53Z</time>
      </trkpt>
      <trkpt lat="48.78326" lon="-3.37581">
        <ele>69.7</ele>
        <time>2020-08-14T12:05:00Z</time>
      </trkpt>
      <trkpt lat="48.78316" lon="-3.37613">
        <ele>70.5</ele>
        <time>2020-08-14T12:05:06Z</time>
      </trkpt>
      <trkpt lat="48.78312" lon="-3.3764">
        <ele>70.9</ele>
        <time>2020-08-14T12:05:14Z</time>
      </trkpt>
      <trkpt lat="48.78308" lon="-3.37664">
        <ele>71</ele>
        <time>2020-08-14T12:05:23Z</time>
      </trkpt>
      <trkpt lat="48.78304" lon="-3.37689">
        <ele>72.9</ele>
        <time>2020-08-14T12:05:33Z</time>
      </trkpt>
      <trkpt lat="48.78311" lon="-3.37709">
        <ele>73.4</ele>
        <time>2020-08-14T12:05:41Z</time>
      </trkpt>
      <trkpt lat="48.78326" lon="-3.37727">
        <ele>74</ele>
        <time>2020-08-14T12:05:51Z</time>
      </trkpt>
      <trkpt lat="48.78337" lon="-3.37743">
        <ele>74.6</ele>
        <time>2020-08-14T12:05:59Z</time>
      </trkpt>
      <trkpt lat="48.78346" lon="-3.37747">
        <ele>74.4</ele>
        <time>2020-08-14T12:06:03Z</time>
      </trkpt>
      <trkpt lat="48.78355" lon="-3.37734">
        <ele>74</ele>
        <time>2020-08-14T12:06:09Z</time>
      </trkpt>
      <trkpt lat="48.78372" lon="-3.37715">
        <ele>73.6</ele>
        <time>2020-08-14T12:06:17Z</time>
      </trkpt>
      <trkpt lat="48.78384" lon="-3.37718">
        <ele>73.7</ele>
        <time>2020-08-14T12:06:22Z</time>
      </trkpt>
      <trkpt lat="48.784" lon="-3.37737">
        <ele>74.2</ele>
        <time>2020-08-14T12:06:30Z</time>
      </trkpt>
      <trkpt lat="48.78421" lon="-3.3776">
        <ele>74.4</ele>
        <time>2020-08-14T12:06:39Z</time>
      </trkpt>
      <trkpt lat="48.78446" lon="-3.37789">
        <ele>73.5</ele>
        <time>2020-08-14T12:06:49Z</time>
      </trkpt>
      <trkpt lat="48.7847" lon="-3.37817">
        <ele>72.8</ele>
        <time>2020-08-14T12:06:58Z</time>
      </trkpt>
      <trkpt lat="48.78498" lon="-3.37849">
        <ele>71.8</ele>
        <time>2020-08-14T12:07:07Z</time>
      </trkpt>
      <trkpt lat="48.78505" lon="-3.37856">
        <ele>70.5</ele>
        <time>2020-08-14T12:07:12Z</time>
      </trkpt>
      <trkpt lat="48.78505" lon="-3.37857">
        <ele>70.4</ele>
        <time>2020-08-14T12:07:13Z</time>
      </trkpt>
      <trkpt lat="48.78511" lon="-3.37865">
        <ele>70.3</ele>
        <time>2020-08-14T12:07:53Z</time>
      </trkpt>
      <trkpt lat="48.78525" lon="-3.37883">
        <ele>70.2</ele>
        <time>2020-08-14T12:07:58Z</time>
      </trkpt>
      <trkpt lat="48.78545" lon="-3.37911">
        <ele>69.9</ele>
        <time>2020-08-14T12:08:03Z</time>
      </trkpt>
      <trkpt lat="48.78567" lon="-3.37926">
        <ele>69.6</ele>
        <time>2020-08-14T12:08:07Z</time>
      </trkpt>
      <trkpt lat="48.7858" lon="-3.37927">
        <ele>69.4</ele>
        <time>2020-08-14T12:08:09Z</time>
      </trkpt>
      <trkpt lat="48.78599" lon="-3.37926">
        <ele>68.9</ele>
        <time>2020-08-14T12:08:12Z</time>
      </trkpt>
      <trkpt lat="48.78624" lon="-3.37932">
        <ele>68.9</ele>
        <time>2020-08-14T12:08:17Z</time>
      </trkpt>
      <trkpt lat="48.7864" lon="-3.37939">
        <ele>68.9</ele>
        <time>2020-08-14T12:08:23Z</time>
      </trkpt>
      <trkpt lat="48.78653" lon="-3.37944">
        <ele>68.9</ele>
        <time>2020-08-14T12:08:30Z</time>
      </trkpt>
      <trkpt lat="48.78668" lon="-3.37954">
        <ele>69.2</ele>
        <time>2020-08-14T12:08:38Z</time>
      </trkpt>
      <trkpt lat="48.78684" lon="-3.37968">
        <ele>69.6</ele>
        <time>2020-08-14T12:08:46Z</time>
      </trkpt>
      <trkpt lat="48.7871" lon="-3.37995">
        <ele>69.9</ele>
        <time>2020-08-14T12:08:59Z</time>
      </trkpt>
      <trkpt lat="48.78729" lon="-3.38005">
        <ele>71.4</ele>
        <time>2020-08-14T12:09:07Z</time>
      </trkpt>
      <trkpt lat="48.78754" lon="-3.38012">
        <ele>71.4</ele>
        <time>2020-08-14T12:09:17Z</time>
      </trkpt>
      <trkpt lat="48.78776" lon="-3.3802">
        <ele>71.7</ele>
        <time>2020-08-14T12:09:26Z</time>
      </trkpt>
      <trkpt lat="48.78797" lon="-3.38028">
        <ele>71.7</ele>
        <time>2020-08-14T12:09:34Z</time>
      </trkpt>
      <trkpt lat="48.78808" lon="-3.38034">
        <ele>71.8</ele>
        <time>2020-08-14T12:09:40Z</time>
      </trkpt>
      <trkpt lat="48.78823" lon="-3.38039">
        <ele>71.9</ele>
        <time>2020-08-14T12:09:48Z</time>
      </trkpt>
      <trkpt lat="48.78838" lon="-3.38043">
        <ele>70.9</ele>
        <time>2020-08-14T12:09:56Z</time>
      </trkpt>
      <trkpt lat="48.7884" lon="-3.38043">
        <ele>70.9</ele>
        <time>2020-08-14T12:09:59Z</time>
      </trkpt>
      <trkpt lat="48.78844" lon="-3.38044">
        <ele>70.9</ele>
        <time>2020-08-14T12:10:15Z</time>
      </trkpt>
      <trkpt lat="48.78857" lon="-3.3805">
        <ele>70.9</ele>
        <time>2020-08-14T12:10:20Z</time>
      </trkpt>
      <trkpt lat="48.78872" lon="-3.38058">
        <ele>70.7</ele>
        <time>2020-08-14T12:10:27Z</time>
      </trkpt>
      <trkpt lat="48.78888" lon="-3.38062">
        <ele>70.5</ele>
        <time>2020-08-14T12:10:35Z</time>
      </trkpt>
      <trkpt lat="48.78911" lon="-3.38066">
        <ele>70.5</ele>
        <time>2020-08-14T12:10:44Z</time>
      </trkpt>
      <trkpt lat="48.78936" lon="-3.38072">
        <ele>68</ele>
        <time>2020-08-14T12:10:51Z</time>
      </trkpt>
      <trkpt lat="48.78945" lon="-3.38076">
        <ele>67.5</ele>
        <time>2020-08-14T12:10:53Z</time>
      </trkpt>
      <trkpt lat="48.78967" lon="-3.38091">
        <ele>67.9</ele>
        <time>2020-08-14T12:10:57Z</time>
      </trkpt>
      <trkpt lat="48.78997" lon="-3.38138">
        <ele>67.7</ele>
        <time>2020-08-14T12:11:04Z</time>
      </trkpt>
      <trkpt lat="48.79008" lon="-3.38162">
        <ele>66.6</ele>
        <time>2020-08-14T12:11:07Z</time>
      </trkpt>
      <trkpt lat="48.79017" lon="-3.38209">
        <ele>68.4</ele>
        <time>2020-08-14T12:11:13Z</time>
      </trkpt>
      <trkpt lat="48.79018" lon="-3.38229">
        <ele>68.7</ele>
        <time>2020-08-14T12:11:17Z</time>
      </trkpt>
      <trkpt lat="48.79018" lon="-3.38234">
        <ele>68.8</ele>
        <time>2020-08-14T12:11:21Z</time>
      </trkpt>
      <trkpt lat="48.79019" lon="-3.38234">
        <ele>68.8</ele>
        <time>2020-08-14T12:11:30Z</time>
      </trkpt>
      <trkpt lat="48.7902" lon="-3.38235">
        <ele>68.8</ele>
        <time>2020-08-14T12:11:32Z</time>
      </trkpt>
      <trkpt lat="48.79022" lon="-3.38253">
        <ele>70.3</ele>
        <time>2020-08-14T12:11:38Z</time>
      </trkpt>
      <trkpt lat="48.79022" lon="-3.38286">
        <ele>71</ele>
        <time>2020-08-14T12:11:46Z</time>
      </trkpt>
      <trkpt lat="48.79021" lon="-3.3832">
        <ele>71.6</ele>
        <time>2020-08-14T12:11:55Z</time>
      </trkpt>
      <trkpt lat="48.7902" lon="-3.38357">
        <ele>72.9</ele>
        <time>2020-08-14T12:12:05Z</time>
      </trkpt>
      <trkpt lat="48.79019" lon="-3.38395">
        <ele>73.4</ele>
        <time>2020-08-14T12:12:15Z</time>
      </trkpt>
      <trkpt lat="48.79019" lon="-3.38436">
        <ele>74.7</ele>
        <time>2020-08-14T12:12:25Z</time>
      </trkpt>
      <trkpt lat="48.79018" lon="-3.38466">
        <ele>75.1</ele>
        <time>2020-08-14T12:12:33Z</time>
      </trkpt>
      <trkpt lat="48.79016" lon="-3.38494">
        <ele>75.5</ele>
        <time>2020-08-14T12:12:41Z</time>
      </trkpt>
      <trkpt lat="48.79016" lon="-3.38514">
        <ele>76.1</ele>
        <time>2020-08-14T12:12:48Z</time>
      </trkpt>
      <trkpt lat="48.79014" lon="-3.38534">
        <ele>76.1</ele>
        <time>2020-08-14T12:12:54Z</time>
      </trkpt>
      <trkpt lat="48.79019" lon="-3.38557">
        <ele>76</ele>
        <time>2020-08-14T12:13:00Z</time>
      </trkpt>
      <trkpt lat="48.79027" lon="-3.38588">
        <ele>76.7</ele>
        <time>2020-08-14T12:13:09Z</time>
      </trkpt>
      <trkpt lat="48.79032" lon="-3.38605">
        <ele>77.1</ele>
        <time>2020-08-14T12:13:14Z</time>
      </trkpt>
      <trkpt lat="48.79036" lon="-3.38635">
        <ele>77.5</ele>
        <time>2020-08-14T12:13:22Z</time>
      </trkpt>
      <trkpt lat="48.7904" lon="-3.38676">
        <ele>78.8</ele>
        <time>2020-08-14T12:13:33Z</time>
      </trkpt>
      <trkpt lat="48.79043" lon="-3.38723">
        <ele>79.1</ele>
        <time>2020-08-14T12:13:46Z</time>
      </trkpt>
      <trkpt lat="48.79044" lon="-3.38761">
        <ele>79.7</ele>
        <time>2020-08-14T12:13:57Z</time>
      </trkpt>
      <trkpt lat="48.79045" lon="-3.38793">
        <ele>79.7</ele>
        <time>2020-08-14T12:14:07Z</time>
      </trkpt>
      <trkpt lat="48.79048" lon="-3.38822">
        <ele>79.8</ele>
        <time>2020-08-14T12:14:16Z</time>
      </trkpt>
      <trkpt lat="48.79053" lon="-3.38852">
        <ele>80.7</ele>
        <time>2020-08-14T12:14:24Z</time>
      </trkpt>
      <trkpt lat="48.79062" lon="-3.38889">
        <ele>81.2</ele>
        <time>2020-08-14T12:14:34Z</time>
      </trkpt>
      <trkpt lat="48.79067" lon="-3.38908">
        <ele>81.5</ele>
        <time>2020-08-14T12:14:40Z</time>
      </trkpt>
      <trkpt lat="48.79071" lon="-3.38937">
        <ele>81.8</ele>
        <time>2020-08-14T12:14:47Z</time>
      </trkpt>
      <trkpt lat="48.7908" lon="-3.38957">
        <ele>81.7</ele>
        <time>2020-08-14T12:14:53Z</time>
      </trkpt>
      <trkpt lat="48.79093" lon="-3.3897">
        <ele>80.9</ele>
        <time>2020-08-14T12:14:59Z</time>
      </trkpt>
      <trkpt lat="48.79106" lon="-3.38987">
        <ele>80.8</ele>
        <time>2020-08-14T12:15:06Z</time>
      </trkpt>
      <trkpt lat="48.79118" lon="-3.39008">
        <ele>79.8</ele>
        <time>2020-08-14T12:15:13Z</time>
      </trkpt>
      <trkpt lat="48.7913" lon="-3.39027">
        <ele>79.5</ele>
        <time>2020-08-14T12:15:20Z</time>
      </trkpt>
      <trkpt lat="48.79142" lon="-3.39046">
        <ele>79.3</ele>
        <time>2020-08-14T12:15:28Z</time>
      </trkpt>
      <trkpt lat="48.79151" lon="-3.39063">
        <ele>79</ele>
        <time>2020-08-14T12:15:35Z</time>
      </trkpt>
      <trkpt lat="48.79164" lon="-3.39087">
        <ele>78.2</ele>
        <time>2020-08-14T12:15:42Z</time>
      </trkpt>
      <trkpt lat="48.79183" lon="-3.39121">
        <ele>77.9</ele>
        <time>2020-08-14T12:15:50Z</time>
      </trkpt>
      <trkpt lat="48.79198" lon="-3.39152">
        <ele>77.9</ele>
        <time>2020-08-14T12:15:58Z</time>
      </trkpt>
      <trkpt lat="48.79206" lon="-3.39181">
        <ele>78.1</ele>
        <time>2020-08-14T12:16:04Z</time>
      </trkpt>
      <trkpt lat="48.7921" lon="-3.39226">
        <ele>78.4</ele>
        <time>2020-08-14T12:16:13Z</time>
      </trkpt>
      <trkpt lat="48.79214" lon="-3.39267">
        <ele>79</ele>
        <time>2020-08-14T12:16:21Z</time>
      </trkpt>
      <trkpt lat="48.79217" lon="-3.39292">
        <ele>79.1</ele>
        <time>2020-08-14T12:16:27Z</time>
      </trkpt>
      <trkpt lat="48.79221" lon="-3.39323">
        <ele>79.2</ele>
        <time>2020-08-14T12:16:34Z</time>
      </trkpt>
      <trkpt lat="48.7923" lon="-3.39369">
        <ele>77.8</ele>
        <time>2020-08-14T12:16:44Z</time>
      </trkpt>
      <trkpt lat="48.7924" lon="-3.39408">
        <ele>76.6</ele>
        <time>2020-08-14T12:16:51Z</time>
      </trkpt>
      <trkpt lat="48.79246" lon="-3.39443">
        <ele>75.9</ele>
        <time>2020-08-14T12:16:56Z</time>
      </trkpt>
      <trkpt lat="48.79246" lon="-3.39506">
        <ele>75</ele>
        <time>2020-08-14T12:17:05Z</time>
      </trkpt>
      <trkpt lat="48.79249" lon="-3.39548">
        <ele>74.5</ele>
        <time>2020-08-14T12:17:12Z</time>
      </trkpt>
      <trkpt lat="48.7926" lon="-3.3959">
        <ele>73.1</ele>
        <time>2020-08-14T12:17:20Z</time>
      </trkpt>
      <trkpt lat="48.79275" lon="-3.39641">
        <ele>73.2</ele>
        <time>2020-08-14T12:17:30Z</time>
      </trkpt>
      <trkpt lat="48.79288" lon="-3.3969">
        <ele>73.7</ele>
        <time>2020-08-14T12:17:39Z</time>
      </trkpt>
      <trkpt lat="48.79302" lon="-3.39735">
        <ele>74</ele>
        <time>2020-08-14T12:17:47Z</time>
      </trkpt>
      <trkpt lat="48.79313" lon="-3.39781">
        <ele>74.2</ele>
        <time>2020-08-14T12:17:56Z</time>
      </trkpt>
      <trkpt lat="48.79319" lon="-3.39825">
        <ele>74</ele>
        <time>2020-08-14T12:18:04Z</time>
      </trkpt>
      <trkpt lat="48.79323" lon="-3.39865">
        <ele>73.2</ele>
        <time>2020-08-14T12:18:10Z</time>
      </trkpt>
      <trkpt lat="48.79328" lon="-3.39916">
        <ele>71.5</ele>
        <time>2020-08-14T12:18:16Z</time>
      </trkpt>
      <trkpt lat="48.79335" lon="-3.39981">
        <ele>69.1</ele>
        <time>2020-08-14T12:18:23Z</time>
      </trkpt>
      <trkpt lat="48.79343" lon="-3.40064">
        <ele>67.2</ele>
        <time>2020-08-14T12:18:31Z</time>
      </trkpt>
      <trkpt lat="48.79346" lon="-3.40135">
        <ele>66.3</ele>
        <time>2020-08-14T12:18:38Z</time>
      </trkpt>
      <trkpt lat="48.79349" lon="-3.40209">
        <ele>65.2</ele>
        <time>2020-08-14T12:18:46Z</time>
      </trkpt>
      <trkpt lat="48.79355" lon="-3.40284">
        <ele>65.1</ele>
        <time>2020-08-14T12:18:55Z</time>
      </trkpt>
      <trkpt lat="48.79362" lon="-3.40341">
        <ele>65.9</ele>
        <time>2020-08-14T12:19:02Z</time>
      </trkpt>
      <trkpt lat="48.79368" lon="-3.40396">
        <ele>65.7</ele>
        <time>2020-08-14T12:19:09Z</time>
      </trkpt>
      <trkpt lat="48.7937" lon="-3.40411">
        <ele>65.7</ele>
        <time>2020-08-14T12:19:11Z</time>
      </trkpt>
      <trkpt lat="48.79375" lon="-3.40445">
        <ele>65.7</ele>
        <time>2020-08-14T12:19:16Z</time>
      </trkpt>
      <trkpt lat="48.7938" lon="-3.40488">
        <ele>65.8</ele>
        <time>2020-08-14T12:19:24Z</time>
      </trkpt>
      <trkpt lat="48.79384" lon="-3.40517">
        <ele>66.5</ele>
        <time>2020-08-14T12:19:31Z</time>
      </trkpt>
      <trkpt lat="48.7939" lon="-3.40551">
        <ele>66.8</ele>
        <time>2020-08-14T12:19:39Z</time>
      </trkpt>
      <trkpt lat="48.7939" lon="-3.40572">
        <ele>66.9</ele>
        <time>2020-08-14T12:19:45Z</time>
      </trkpt>
      <trkpt lat="48.79387" lon="-3.40596">
        <ele>66.6</ele>
        <time>2020-08-14T12:19:51Z</time>
      </trkpt>
      <trkpt lat="48.79382" lon="-3.4064">
        <ele>65.9</ele>
        <time>2020-08-14T12:20:00Z</time>
      </trkpt>
      <trkpt lat="48.79382" lon="-3.4068">
        <ele>63.9</ele>
        <time>2020-08-14T12:20:06Z</time>
      </trkpt>
      <trkpt lat="48.7938" lon="-3.4071">
        <ele>63.4</ele>
        <time>2020-08-14T12:20:10Z</time>
      </trkpt>
      <trkpt lat="48.79377" lon="-3.4077">
        <ele>61.1</ele>
        <time>2020-08-14T12:20:17Z</time>
      </trkpt>
      <trkpt lat="48.79375" lon="-3.40788">
        <ele>60.8</ele>
        <time>2020-08-14T12:20:19Z</time>
      </trkpt>
      <trkpt lat="48.79369" lon="-3.40839">
        <ele>59.1</ele>
        <time>2020-08-14T12:20:25Z</time>
      </trkpt>
      <trkpt lat="48.79363" lon="-3.40875">
        <ele>58.8</ele>
        <time>2020-08-14T12:20:30Z</time>
      </trkpt>
      <trkpt lat="48.79365" lon="-3.40882">
        <ele>58.7</ele>
        <time>2020-08-14T12:20:31Z</time>
      </trkpt>
      <trkpt lat="48.79379" lon="-3.40948">
        <ele>57.8</ele>
        <time>2020-08-14T12:20:41Z</time>
      </trkpt>
      <trkpt lat="48.79391" lon="-3.40995">
        <ele>58</ele>
        <time>2020-08-14T12:20:49Z</time>
      </trkpt>
      <trkpt lat="48.79398" lon="-3.4103">
        <ele>57.6</ele>
        <time>2020-08-14T12:20:56Z</time>
      </trkpt>
      <trkpt lat="48.79401" lon="-3.41052">
        <ele>57.6</ele>
        <time>2020-08-14T12:21:02Z</time>
      </trkpt>
      <trkpt lat="48.79409" lon="-3.41083">
        <ele>58.4</ele>
        <time>2020-08-14T12:21:11Z</time>
      </trkpt>
      <trkpt lat="48.79415" lon="-3.41101">
        <ele>57.7</ele>
        <time>2020-08-14T12:21:18Z</time>
      </trkpt>
      <trkpt lat="48.79422" lon="-3.41116">
        <ele>59.1</ele>
        <time>2020-08-14T12:21:25Z</time>
      </trkpt>
      <trkpt lat="48.79426" lon="-3.4112">
        <ele>59</ele>
        <time>2020-08-14T12:21:28Z</time>
      </trkpt>
      <trkpt lat="48.79429" lon="-3.41119">
        <ele>59.1</ele>
        <time>2020-08-14T12:21:32Z</time>
      </trkpt>
      <trkpt lat="48.79433" lon="-3.41114">
        <ele>59.1</ele>
        <time>2020-08-14T12:21:51Z</time>
      </trkpt>
      <trkpt lat="48.79435" lon="-3.4111">
        <ele>59.2</ele>
        <time>2020-08-14T12:21:58Z</time>
      </trkpt>
      <trkpt lat="48.79437" lon="-3.41114">
        <ele>59.2</ele>
        <time>2020-08-14T12:43:05Z</time>
      </trkpt>
      <trkpt lat="48.79437" lon="-3.41114">
        <ele>59.2</ele>
        <time>2020-08-14T12:43:06Z</time>
      </trkpt>
      <trkpt lat="48.79433" lon="-3.41122">
        <ele>59.1</ele>
        <time>2020-08-14T12:43:25Z</time>
      </trkpt>
      <trkpt lat="48.79431" lon="-3.41125">
        <ele>59</ele>
        <time>2020-08-14T12:43:29Z</time>
      </trkpt>
      <trkpt lat="48.7944" lon="-3.41142">
        <ele>58.9</ele>
        <time>2020-08-14T12:43:46Z</time>
      </trkpt>
      <trkpt lat="48.7945" lon="-3.41171">
        <ele>56.7</ele>
        <time>2020-08-14T12:43:53Z</time>
      </trkpt>
      <trkpt lat="48.7946" lon="-3.41216">
        <ele>55.5</ele>
        <time>2020-08-14T12:44:00Z</time>
      </trkpt>
      <trkpt lat="48.79461" lon="-3.41223">
        <ele>55.3</ele>
        <time>2020-08-14T12:44:01Z</time>
      </trkpt>
      <trkpt lat="48.79471" lon="-3.41272">
        <ele>51.5</ele>
        <time>2020-08-14T12:44:07Z</time>
      </trkpt>
      <trkpt lat="48.79477" lon="-3.41301">
        <ele>50.7</ele>
        <time>2020-08-14T12:44:10Z</time>
      </trkpt>
      <trkpt lat="48.79487" lon="-3.41353">
        <ele>48.1</ele>
        <time>2020-08-14T12:44:16Z</time>
      </trkpt>
      <trkpt lat="48.7949" lon="-3.41368">
        <ele>47.8</ele>
        <time>2020-08-14T12:44:18Z</time>
      </trkpt>
      <trkpt lat="48.79502" lon="-3.41397">
        <ele>47.8</ele>
        <time>2020-08-14T12:44:23Z</time>
      </trkpt>
      <trkpt lat="48.79498" lon="-3.41428">
        <ele>46.5</ele>
        <time>2020-08-14T12:44:28Z</time>
      </trkpt>
      <trkpt lat="48.79495" lon="-3.41477">
        <ele>45.8</ele>
        <time>2020-08-14T12:44:35Z</time>
      </trkpt>
      <trkpt lat="48.79492" lon="-3.41513">
        <ele>45.1</ele>
        <time>2020-08-14T12:44:41Z</time>
      </trkpt>
      <trkpt lat="48.79486" lon="-3.41553">
        <ele>44.1</ele>
        <time>2020-08-14T12:44:48Z</time>
      </trkpt>
      <trkpt lat="48.79482" lon="-3.41582">
        <ele>43.9</ele>
        <time>2020-08-14T12:44:54Z</time>
      </trkpt>
      <trkpt lat="48.79478" lon="-3.4162">
        <ele>41.7</ele>
        <time>2020-08-14T12:45:00Z</time>
      </trkpt>
      <trkpt lat="48.79477" lon="-3.41655">
        <ele>40.9</ele>
        <time>2020-08-14T12:45:06Z</time>
      </trkpt>
      <trkpt lat="48.79477" lon="-3.41668">
        <ele>39.6</ele>
        <time>2020-08-14T12:45:11Z</time>
      </trkpt>
      <trkpt lat="48.79476" lon="-3.41671">
        <ele>39.5</ele>
        <time>2020-08-14T12:45:13Z</time>
      </trkpt>
      <trkpt lat="48.79469" lon="-3.41672">
        <ele>39.5</ele>
        <time>2020-08-14T12:45:20Z</time>
      </trkpt>
      <trkpt lat="48.79468" lon="-3.41674">
        <ele>39.5</ele>
        <time>2020-08-14T12:45:21Z</time>
      </trkpt>
      <trkpt lat="48.7947" lon="-3.41698">
        <ele>39.3</ele>
        <time>2020-08-14T12:45:27Z</time>
      </trkpt>
      <trkpt lat="48.79474" lon="-3.41736">
        <ele>38.7</ele>
        <time>2020-08-14T12:45:33Z</time>
      </trkpt>
      <trkpt lat="48.79485" lon="-3.41785">
        <ele>37.5</ele>
        <time>2020-08-14T12:45:39Z</time>
      </trkpt>
      <trkpt lat="48.79504" lon="-3.41845">
        <ele>34.6</ele>
        <time>2020-08-14T12:45:46Z</time>
      </trkpt>
      <trkpt lat="48.7952" lon="-3.41893">
        <ele>33.5</ele>
        <time>2020-08-14T12:45:52Z</time>
      </trkpt>
      <trkpt lat="48.79533" lon="-3.41931">
        <ele>32.5</ele>
        <time>2020-08-14T12:45:58Z</time>
      </trkpt>
      <trkpt lat="48.7954" lon="-3.41955">
        <ele>32.5</ele>
        <time>2020-08-14T12:46:04Z</time>
      </trkpt>
      <trkpt lat="48.79551" lon="-3.41987">
        <ele>32</ele>
        <time>2020-08-14T12:46:10Z</time>
      </trkpt>
      <trkpt lat="48.79565" lon="-3.42042">
        <ele>30.6</ele>
        <time>2020-08-14T12:46:17Z</time>
      </trkpt>
      <trkpt lat="48.79575" lon="-3.421">
        <ele>28.4</ele>
        <time>2020-08-14T12:46:23Z</time>
      </trkpt>
      <trkpt lat="48.79583" lon="-3.42161">
        <ele>26.9</ele>
        <time>2020-08-14T12:46:29Z</time>
      </trkpt>
      <trkpt lat="48.79583" lon="-3.42169">
        <ele>26.3</ele>
        <time>2020-08-14T12:46:30Z</time>
      </trkpt>
      <trkpt lat="48.79588" lon="-3.42232">
        <ele>25.2</ele>
        <time>2020-08-14T12:46:37Z</time>
      </trkpt>
      <trkpt lat="48.79594" lon="-3.4231">
        <ele>19.5</ele>
        <time>2020-08-14T12:46:45Z</time>
      </trkpt>
      <trkpt lat="48.79597" lon="-3.42349">
        <ele>14.5</ele>
        <time>2020-08-14T12:46:49Z</time>
      </trkpt>
      <trkpt lat="48.79598" lon="-3.42358">
        <ele>14.3</ele>
        <time>2020-08-14T12:46:50Z</time>
      </trkpt>
      <trkpt lat="48.796" lon="-3.4241">
        <ele>11.8</ele>
        <time>2020-08-14T12:46:56Z</time>
      </trkpt>
      <trkpt lat="48.79606" lon="-3.42484">
        <ele>10.6</ele>
        <time>2020-08-14T12:47:05Z</time>
      </trkpt>
      <trkpt lat="48.7961" lon="-3.4253">
        <ele>10.6</ele>
        <time>2020-08-14T12:47:12Z</time>
      </trkpt>
      <trkpt lat="48.79616" lon="-3.42577">
        <ele>10.7</ele>
        <time>2020-08-14T12:47:21Z</time>
      </trkpt>
      <trkpt lat="48.79622" lon="-3.4261">
        <ele>11.1</ele>
        <time>2020-08-14T12:47:28Z</time>
      </trkpt>
      <trkpt lat="48.7963" lon="-3.42648">
        <ele>10.8</ele>
        <time>2020-08-14T12:47:37Z</time>
      </trkpt>
      <trkpt lat="48.79635" lon="-3.42675">
        <ele>10.5</ele>
        <time>2020-08-14T12:47:44Z</time>
      </trkpt>
      <trkpt lat="48.79646" lon="-3.42684">
        <ele>9.9</ele>
        <time>2020-08-14T12:47:49Z</time>
      </trkpt>
      <trkpt lat="48.79649" lon="-3.42693">
        <ele>9.9</ele>
        <time>2020-08-14T12:47:51Z</time>
      </trkpt>
      <trkpt lat="48.79656" lon="-3.42723">
        <ele>9.4</ele>
        <time>2020-08-14T12:47:57Z</time>
      </trkpt>
      <trkpt lat="48.79665" lon="-3.42774">
        <ele>9.4</ele>
        <time>2020-08-14T12:48:06Z</time>
      </trkpt>
      <trkpt lat="48.79674" lon="-3.42828">
        <ele>7.1</ele>
        <time>2020-08-14T12:48:15Z</time>
      </trkpt>
      <trkpt lat="48.79686" lon="-3.4289">
        <ele>7.2</ele>
        <time>2020-08-14T12:48:26Z</time>
      </trkpt>
      <trkpt lat="48.79693" lon="-3.4293">
        <ele>7.6</ele>
        <time>2020-08-14T12:48:33Z</time>
      </trkpt>
      <trkpt lat="48.79701" lon="-3.42981">
        <ele>7.2</ele>
        <time>2020-08-14T12:48:43Z</time>
      </trkpt>
      <trkpt lat="48.79708" lon="-3.43026">
        <ele>8.8</ele>
        <time>2020-08-14T12:48:53Z</time>
      </trkpt>
      <trkpt lat="48.79716" lon="-3.43061">
        <ele>9.7</ele>
        <time>2020-08-14T12:49:01Z</time>
      </trkpt>
      <trkpt lat="48.79722" lon="-3.43081">
        <ele>10</ele>
        <time>2020-08-14T12:49:07Z</time>
      </trkpt>
      <trkpt lat="48.79725" lon="-3.43098">
        <ele>18</ele>
        <time>2020-08-14T12:49:14Z</time>
      </trkpt>
      <trkpt lat="48.79726" lon="-3.43099">
        <ele>18.1</ele>
        <time>2020-08-14T12:49:17Z</time>
      </trkpt>
      <trkpt lat="48.79727" lon="-3.43116">
        <ele>18.7</ele>
        <time>2020-08-14T12:50:01Z</time>
      </trkpt>
      <trkpt lat="48.7973" lon="-3.43157">
        <ele>20</ele>
        <time>2020-08-14T12:50:08Z</time>
      </trkpt>
      <trkpt lat="48.79734" lon="-3.4322">
        <ele>25.6</ele>
        <time>2020-08-14T12:50:19Z</time>
      </trkpt>
      <trkpt lat="48.79734" lon="-3.43268">
        <ele>23.6</ele>
        <time>2020-08-14T12:50:28Z</time>
      </trkpt>
      <trkpt lat="48.79733" lon="-3.43301">
        <ele>22.7</ele>
        <time>2020-08-14T12:50:35Z</time>
      </trkpt>
      <trkpt lat="48.79732" lon="-3.43334">
        <ele>17.1</ele>
        <time>2020-08-14T12:50:41Z</time>
      </trkpt>
      <trkpt lat="48.79729" lon="-3.43366">
        <ele>16.7</ele>
        <time>2020-08-14T12:50:47Z</time>
      </trkpt>
      <trkpt lat="48.79731" lon="-3.43412">
        <ele>15.9</ele>
        <time>2020-08-14T12:50:55Z</time>
      </trkpt>
      <trkpt lat="48.79734" lon="-3.43461">
        <ele>15</ele>
        <time>2020-08-14T12:51:04Z</time>
      </trkpt>
      <trkpt lat="48.79739" lon="-3.435">
        <ele>13.2</ele>
        <time>2020-08-14T12:51:11Z</time>
      </trkpt>
      <trkpt lat="48.79748" lon="-3.43544">
        <ele>10.7</ele>
        <time>2020-08-14T12:51:19Z</time>
      </trkpt>
      <trkpt lat="48.79764" lon="-3.43603">
        <ele>5.5</ele>
        <time>2020-08-14T12:51:30Z</time>
      </trkpt>
      <trkpt lat="48.79779" lon="-3.43653">
        <ele>7.2</ele>
        <time>2020-08-14T12:51:40Z</time>
      </trkpt>
      <trkpt lat="48.79789" lon="-3.43695">
        <ele>8.4</ele>
        <time>2020-08-14T12:51:49Z</time>
      </trkpt>
      <trkpt lat="48.79795" lon="-3.43733">
        <ele>8</ele>
        <time>2020-08-14T12:51:57Z</time>
      </trkpt>
      <trkpt lat="48.79797" lon="-3.43783">
        <ele>9.3</ele>
        <time>2020-08-14T12:52:07Z</time>
      </trkpt>
      <trkpt lat="48.79796" lon="-3.43829">
        <ele>10.6</ele>
        <time>2020-08-14T12:52:16Z</time>
      </trkpt>
      <trkpt lat="48.79796" lon="-3.43877">
        <ele>12.5</ele>
        <time>2020-08-14T12:52:26Z</time>
      </trkpt>
      <trkpt lat="48.79796" lon="-3.43923">
        <ele>8.4</ele>
        <time>2020-08-14T12:52:36Z</time>
      </trkpt>
      <trkpt lat="48.79796" lon="-3.4396">
        <ele>7.1</ele>
        <time>2020-08-14T12:52:44Z</time>
      </trkpt>
      <trkpt lat="48.79802" lon="-3.43988">
        <ele>5.8</ele>
        <time>2020-08-14T12:52:51Z</time>
      </trkpt>
      <trkpt lat="48.79807" lon="-3.4403">
        <ele>4.8</ele>
        <time>2020-08-14T12:53:00Z</time>
      </trkpt>
      <trkpt lat="48.79811" lon="-3.44052">
        <ele>5</ele>
        <time>2020-08-14T12:53:05Z</time>
      </trkpt>
      <trkpt lat="48.79822" lon="-3.44069">
        <ele>5</ele>
        <time>2020-08-14T12:53:10Z</time>
      </trkpt>
      <trkpt lat="48.79843" lon="-3.44072">
        <ele>4.4</ele>
        <time>2020-08-14T12:53:16Z</time>
      </trkpt>
      <trkpt lat="48.79884" lon="-3.4408">
        <ele>4</ele>
        <time>2020-08-14T12:53:28Z</time>
      </trkpt>
      <trkpt lat="48.79914" lon="-3.44097">
        <ele>4.5</ele>
        <time>2020-08-14T12:53:38Z</time>
      </trkpt>
      <trkpt lat="48.79949" lon="-3.44116">
        <ele>4.4</ele>
        <time>2020-08-14T12:53:49Z</time>
      </trkpt>
      <trkpt lat="48.79975" lon="-3.44132">
        <ele>4.1</ele>
        <time>2020-08-14T12:53:57Z</time>
      </trkpt>
      <trkpt lat="48.80005" lon="-3.44146">
        <ele>3</ele>
        <time>2020-08-14T12:54:06Z</time>
      </trkpt>
      <trkpt lat="48.80028" lon="-3.44159">
        <ele>3</ele>
        <time>2020-08-14T12:54:14Z</time>
      </trkpt>
      <trkpt lat="48.8005" lon="-3.44171">
        <ele>4.3</ele>
        <time>2020-08-14T12:54:22Z</time>
      </trkpt>
      <trkpt lat="48.80072" lon="-3.44184">
        <ele>4.6</ele>
        <time>2020-08-14T12:54:30Z</time>
      </trkpt>
      <trkpt lat="48.80086" lon="-3.44193">
        <ele>5</ele>
        <time>2020-08-14T12:54:35Z</time>
      </trkpt>
      <trkpt lat="48.80112" lon="-3.44207">
        <ele>5</ele>
        <time>2020-08-14T12:54:44Z</time>
      </trkpt>
      <trkpt lat="48.80135" lon="-3.4422">
        <ele>5</ele>
        <time>2020-08-14T12:54:53Z</time>
      </trkpt>
      <trkpt lat="48.80149" lon="-3.44221">
        <ele>5</ele>
        <time>2020-08-14T12:55:00Z</time>
      </trkpt>
      <trkpt lat="48.80149" lon="-3.44221">
        <ele>5</ele>
        <time>2020-08-14T12:55:01Z</time>
      </trkpt>
      <trkpt lat="48.80151" lon="-3.44217">
        <ele>5</ele>
        <time>2020-08-14T12:55:58Z</time>
      </trkpt>
      <trkpt lat="48.80151" lon="-3.44217">
        <ele>5</ele>
        <time>2020-08-14T12:55:59Z</time>
      </trkpt>
      <trkpt lat="48.80151" lon="-3.4422">
        <ele>5</ele>
        <time>2020-08-14T12:59:23Z</time>
      </trkpt>
      <trkpt lat="48.80159" lon="-3.44233">
        <ele>5</ele>
        <time>2020-08-14T12:59:38Z</time>
      </trkpt>
      <trkpt lat="48.80163" lon="-3.44236">
        <ele>5</ele>
        <time>2020-08-14T12:59:40Z</time>
      </trkpt>
      <trkpt lat="48.80186" lon="-3.44248">
        <ele>4.3</ele>
        <time>2020-08-14T12:59:50Z</time>
      </trkpt>
      <trkpt lat="48.80202" lon="-3.44257">
        <ele>4.6</ele>
        <time>2020-08-14T12:59:58Z</time>
      </trkpt>
      <trkpt lat="48.80215" lon="-3.44266">
        <ele>4.4</ele>
        <time>2020-08-14T13:00:06Z</time>
      </trkpt>
      <trkpt lat="48.80221" lon="-3.44273">
        <ele>4.4</ele>
        <time>2020-08-14T13:00:14Z</time>
      </trkpt>
      <trkpt lat="48.80235" lon="-3.44274">
        <ele>4.2</ele>
        <time>2020-08-14T13:00:47Z</time>
      </trkpt>
      <trkpt lat="48.80242" lon="-3.44276">
        <ele>4.2</ele>
        <time>2020-08-14T13:00:51Z</time>
      </trkpt>
      <trkpt lat="48.80254" lon="-3.44282">
        <ele>3.7</ele>
        <time>2020-08-14T13:01:01Z</time>
      </trkpt>
      <trkpt lat="48.80257" lon="-3.44284">
        <ele>3.7</ele>
        <time>2020-08-14T13:01:06Z</time>
      </trkpt>
      <trkpt lat="48.80261" lon="-3.44287">
        <ele>3.7</ele>
        <time>2020-08-14T13:01:22Z</time>
      </trkpt>
      <trkpt lat="48.80274" lon="-3.44295">
        <ele>3.9</ele>
        <time>2020-08-14T13:01:29Z</time>
      </trkpt>
      <trkpt lat="48.80282" lon="-3.44302">
        <ele>3.9</ele>
        <time>2020-08-14T13:01:34Z</time>
      </trkpt>
      <trkpt lat="48.80286" lon="-3.44311">
        <ele>4</ele>
        <time>2020-08-14T13:01:38Z</time>
      </trkpt>
      <trkpt lat="48.80293" lon="-3.44312">
        <ele>4</ele>
        <time>2020-08-14T13:01:42Z</time>
      </trkpt>
      <trkpt lat="48.80311" lon="-3.44308">
        <ele>4</ele>
        <time>2020-08-14T13:01:50Z</time>
      </trkpt>
      <trkpt lat="48.80313" lon="-3.44308">
        <ele>4</ele>
        <time>2020-08-14T13:01:51Z</time>
      </trkpt>
      <trkpt lat="48.80321" lon="-3.44311">
        <ele>4.1</ele>
        <time>2020-08-14T13:01:57Z</time>
      </trkpt>
      <trkpt lat="48.80321" lon="-3.44304">
        <ele>4</ele>
        <time>2020-08-14T13:03:15Z</time>
      </trkpt>
      <trkpt lat="48.80326" lon="-3.44305">
        <ele>4</ele>
        <time>2020-08-14T13:03:35Z</time>
      </trkpt>
      <trkpt lat="48.80338" lon="-3.44308">
        <ele>4.1</ele>
        <time>2020-08-14T13:03:46Z</time>
      </trkpt>
      <trkpt lat="48.80339" lon="-3.44308">
        <ele>4.1</ele>
        <time>2020-08-14T13:03:48Z</time>
      </trkpt>
      <trkpt lat="48.80343" lon="-3.44309">
        <ele>4.1</ele>
        <time>2020-08-14T13:03:53Z</time>
      </trkpt>
      <trkpt lat="48.80349" lon="-3.44312">
        <ele>4.2</ele>
        <time>2020-08-14T13:04:00Z</time>
      </trkpt>
      <trkpt lat="48.80347" lon="-3.44313">
        <ele>4.2</ele>
        <time>2020-08-14T13:04:08Z</time>
      </trkpt>
      <trkpt lat="48.80349" lon="-3.44313">
        <ele>4.2</ele>
        <time>2020-08-14T13:04:13Z</time>
      </trkpt>
      <trkpt lat="48.80347" lon="-3.44316">
        <ele>4.3</ele>
        <time>2020-08-14T13:07:52Z</time>
      </trkpt>
      <trkpt lat="48.80349" lon="-3.44317">
        <ele>4.3</ele>
        <time>2020-08-14T13:07:57Z</time>
      </trkpt>
      <trkpt lat="48.8035" lon="-3.44318">
        <ele>4.3</ele>
        <time>2020-08-14T13:15:34Z</time>
      </trkpt>
      <trkpt lat="48.80353" lon="-3.44316">
        <ele>4.3</ele>
        <time>2020-08-14T13:15:38Z</time>
      </trkpt>
      <trkpt lat="48.8037" lon="-3.44309">
        <ele>4.2</ele>
        <time>2020-08-14T13:15:46Z</time>
      </trkpt>
      <trkpt lat="48.80404" lon="-3.44297">
        <ele>4.1</ele>
        <time>2020-08-14T13:15:57Z</time>
      </trkpt>
      <trkpt lat="48.80438" lon="-3.44286">
        <ele>4.1</ele>
        <time>2020-08-14T13:16:08Z</time>
      </trkpt>
      <trkpt lat="48.80466" lon="-3.44279">
        <ele>4.1</ele>
        <time>2020-08-14T13:16:17Z</time>
      </trkpt>
      <trkpt lat="48.80488" lon="-3.4427">
        <ele>3.6</ele>
        <time>2020-08-14T13:16:25Z</time>
      </trkpt>
      <trkpt lat="48.80495" lon="-3.4427">
        <ele>3.5</ele>
        <time>2020-08-14T13:16:30Z</time>
      </trkpt>
      <trkpt lat="48.80494" lon="-3.44275">
        <ele>3.8</ele>
        <time>2020-08-14T13:17:17Z</time>
      </trkpt>
      <trkpt lat="48.80493" lon="-3.44276">
        <ele>3.9</ele>
        <time>2020-08-14T13:17:20Z</time>
      </trkpt>
      <trkpt lat="48.80483" lon="-3.44285">
        <ele>4.3</ele>
        <time>2020-08-14T13:17:31Z</time>
      </trkpt>
      <trkpt lat="48.80458" lon="-3.44294">
        <ele>4.6</ele>
        <time>2020-08-14T13:17:40Z</time>
      </trkpt>
      <trkpt lat="48.80433" lon="-3.44304">
        <ele>4.9</ele>
        <time>2020-08-14T13:17:49Z</time>
      </trkpt>
      <trkpt lat="48.80396" lon="-3.44315">
        <ele>4.7</ele>
        <time>2020-08-14T13:18:00Z</time>
      </trkpt>
      <trkpt lat="48.80378" lon="-3.44325">
        <ele>4.6</ele>
        <time>2020-08-14T13:18:07Z</time>
      </trkpt>
      <trkpt lat="48.80362" lon="-3.44328">
        <ele>4.4</ele>
        <time>2020-08-14T13:18:13Z</time>
      </trkpt>
      <trkpt lat="48.80339" lon="-3.44326">
        <ele>4.6</ele>
        <time>2020-08-14T13:18:21Z</time>
      </trkpt>
      <trkpt lat="48.80315" lon="-3.44318">
        <ele>4.2</ele>
        <time>2020-08-14T13:18:29Z</time>
      </trkpt>
      <trkpt lat="48.80294" lon="-3.44319">
        <ele>4.1</ele>
        <time>2020-08-14T13:18:37Z</time>
      </trkpt>
      <trkpt lat="48.80286" lon="-3.44324">
        <ele>4.2</ele>
        <time>2020-08-14T13:18:41Z</time>
      </trkpt>
      <trkpt lat="48.80287" lon="-3.44344">
        <ele>5.3</ele>
        <time>2020-08-14T13:18:47Z</time>
      </trkpt>
      <trkpt lat="48.80294" lon="-3.44387">
        <ele>5.6</ele>
        <time>2020-08-14T13:18:58Z</time>
      </trkpt>
      <trkpt lat="48.80298" lon="-3.44419">
        <ele>7.5</ele>
        <time>2020-08-14T13:19:07Z</time>
      </trkpt>
      <trkpt lat="48.80302" lon="-3.44437">
        <ele>7.8</ele>
        <time>2020-08-14T13:19:13Z</time>
      </trkpt>
      <trkpt lat="48.803" lon="-3.44442">
        <ele>7.9</ele>
        <time>2020-08-14T13:19:15Z</time>
      </trkpt>
      <trkpt lat="48.80304" lon="-3.44456">
        <ele>8.4</ele>
        <time>2020-08-14T13:19:21Z</time>
      </trkpt>
      <trkpt lat="48.80304" lon="-3.44459">
        <ele>8.5</ele>
        <time>2020-08-14T13:19:22Z</time>
      </trkpt>
      <trkpt lat="48.80309" lon="-3.44489">
        <ele>9.6</ele>
        <time>2020-08-14T13:19:34Z</time>
      </trkpt>
      <trkpt lat="48.80315" lon="-3.44517">
        <ele>14.5</ele>
        <time>2020-08-14T13:19:46Z</time>
      </trkpt>
      <trkpt lat="48.80306" lon="-3.44527">
        <ele>15.2</ele>
        <time>2020-08-14T13:19:52Z</time>
      </trkpt>
      <trkpt lat="48.80293" lon="-3.44535">
        <ele>15.4</ele>
        <time>2020-08-14T13:19:58Z</time>
      </trkpt>
      <trkpt lat="48.80273" lon="-3.44544">
        <ele>15.2</ele>
        <time>2020-08-14T13:20:06Z</time>
      </trkpt>
      <trkpt lat="48.8026" lon="-3.44554">
        <ele>15.4</ele>
        <time>2020-08-14T13:20:12Z</time>
      </trkpt>
      <trkpt lat="48.80241" lon="-3.44563">
        <ele>12.8</ele>
        <time>2020-08-14T13:20:20Z</time>
      </trkpt>
      <trkpt lat="48.80227" lon="-3.44573">
        <ele>12.6</ele>
        <time>2020-08-14T13:20:26Z</time>
      </trkpt>
      <trkpt lat="48.8021" lon="-3.4458">
        <ele>11.8</ele>
        <time>2020-08-14T13:20:33Z</time>
      </trkpt>
      <trkpt lat="48.80205" lon="-3.44585">
        <ele>16.4</ele>
        <time>2020-08-14T13:20:36Z</time>
      </trkpt>
      <trkpt lat="48.80199" lon="-3.4459">
        <ele>16.2</ele>
        <time>2020-08-14T13:20:42Z</time>
      </trkpt>
      <trkpt lat="48.80197" lon="-3.4459">
        <ele>16</ele>
        <time>2020-08-14T13:22:14Z</time>
      </trkpt>
      <trkpt lat="48.80186" lon="-3.44595">
        <ele>15.3</ele>
        <time>2020-08-14T13:22:21Z</time>
      </trkpt>
      <trkpt lat="48.80168" lon="-3.44604">
        <ele>15</ele>
        <time>2020-08-14T13:22:29Z</time>
      </trkpt>
      <trkpt lat="48.80146" lon="-3.44606">
        <ele>13.3</ele>
        <time>2020-08-14T13:22:37Z</time>
      </trkpt>
      <trkpt lat="48.8013" lon="-3.44599">
        <ele>13.3</ele>
        <time>2020-08-14T13:22:42Z</time>
      </trkpt>
      <trkpt lat="48.80113" lon="-3.44605">
        <ele>13.4</ele>
        <time>2020-08-14T13:22:46Z</time>
      </trkpt>
      <trkpt lat="48.80107" lon="-3.44613">
        <ele>13.6</ele>
        <time>2020-08-14T13:22:48Z</time>
      </trkpt>
      <trkpt lat="48.80093" lon="-3.44634">
        <ele>14.1</ele>
        <time>2020-08-14T13:22:55Z</time>
      </trkpt>
      <trkpt lat="48.80079" lon="-3.44656">
        <ele>15.6</ele>
        <time>2020-08-14T13:23:05Z</time>
      </trkpt>
      <trkpt lat="48.80069" lon="-3.44671">
        <ele>17.7</ele>
        <time>2020-08-14T13:23:13Z</time>
      </trkpt>
      <trkpt lat="48.80057" lon="-3.44689">
        <ele>19.6</ele>
        <time>2020-08-14T13:23:23Z</time>
      </trkpt>
      <trkpt lat="48.80047" lon="-3.44704">
        <ele>20.6</ele>
        <time>2020-08-14T13:23:32Z</time>
      </trkpt>
      <trkpt lat="48.80038" lon="-3.44718">
        <ele>21.5</ele>
        <time>2020-08-14T13:23:41Z</time>
      </trkpt>
      <trkpt lat="48.80028" lon="-3.44736">
        <ele>22.7</ele>
        <time>2020-08-14T13:23:51Z</time>
      </trkpt>
      <trkpt lat="48.80019" lon="-3.44748">
        <ele>23.9</ele>
        <time>2020-08-14T13:23:59Z</time>
      </trkpt>
      <trkpt lat="48.80012" lon="-3.44749">
        <ele>24.7</ele>
        <time>2020-08-14T13:24:06Z</time>
      </trkpt>
      <trkpt lat="48.80005" lon="-3.44736">
        <ele>24.3</ele>
        <time>2020-08-14T13:24:14Z</time>
      </trkpt>
      <trkpt lat="48.80002" lon="-3.44691">
        <ele>21.4</ele>
        <time>2020-08-14T13:24:24Z</time>
      </trkpt>
      <trkpt lat="48.79996" lon="-3.44691">
        <ele>24.8</ele>
        <time>2020-08-14T13:24:28Z</time>
      </trkpt>
      <trkpt lat="48.79991" lon="-3.44698">
        <ele>25.4</ele>
        <time>2020-08-14T13:24:33Z</time>
      </trkpt>
      <trkpt lat="48.7999" lon="-3.44698">
        <ele>25.5</ele>
        <time>2020-08-14T13:24:34Z</time>
      </trkpt>
      <trkpt lat="48.79979" lon="-3.44701">
        <ele>26</ele>
        <time>2020-08-14T13:24:42Z</time>
      </trkpt>
      <trkpt lat="48.79976" lon="-3.44706">
        <ele>26.3</ele>
        <time>2020-08-14T13:24:45Z</time>
      </trkpt>
      <trkpt lat="48.79964" lon="-3.4471">
        <ele>26.8</ele>
        <time>2020-08-14T13:24:55Z</time>
      </trkpt>
      <trkpt lat="48.79956" lon="-3.44717">
        <ele>27.2</ele>
        <time>2020-08-14T13:25:03Z</time>
      </trkpt>
      <trkpt lat="48.7995" lon="-3.44725">
        <ele>27.6</ele>
        <time>2020-08-14T13:25:10Z</time>
      </trkpt>
      <trkpt lat="48.79943" lon="-3.44734">
        <ele>28</ele>
        <time>2020-08-14T13:25:18Z</time>
      </trkpt>
      <trkpt lat="48.7994" lon="-3.44747">
        <ele>28.3</ele>
        <time>2020-08-14T13:25:25Z</time>
      </trkpt>
      <trkpt lat="48.79936" lon="-3.44761">
        <ele>29.8</ele>
        <time>2020-08-14T13:25:33Z</time>
      </trkpt>
      <trkpt lat="48.79932" lon="-3.44772">
        <ele>29.9</ele>
        <time>2020-08-14T13:25:40Z</time>
      </trkpt>
      <trkpt lat="48.79931" lon="-3.44786">
        <ele>30.1</ele>
        <time>2020-08-14T13:25:47Z</time>
      </trkpt>
      <trkpt lat="48.79927" lon="-3.44806">
        <ele>30.8</ele>
        <time>2020-08-14T13:25:57Z</time>
      </trkpt>
      <trkpt lat="48.79922" lon="-3.44819">
        <ele>31.5</ele>
        <time>2020-08-14T13:26:05Z</time>
      </trkpt>
      <trkpt lat="48.7992" lon="-3.4483">
        <ele>32.4</ele>
        <time>2020-08-14T13:26:10Z</time>
      </trkpt>
      <trkpt lat="48.79916" lon="-3.44847">
        <ele>31.6</ele>
        <time>2020-08-14T13:26:18Z</time>
      </trkpt>
      <trkpt lat="48.79911" lon="-3.44863">
        <ele>31.1</ele>
        <time>2020-08-14T13:26:25Z</time>
      </trkpt>
      <trkpt lat="48.79905" lon="-3.4488">
        <ele>31.5</ele>
        <time>2020-08-14T13:26:33Z</time>
      </trkpt>
      <trkpt lat="48.79899" lon="-3.44899">
        <ele>32.5</ele>
        <time>2020-08-14T13:26:43Z</time>
      </trkpt>
      <trkpt lat="48.79893" lon="-3.44917">
        <ele>35.6</ele>
        <time>2020-08-14T13:26:51Z</time>
      </trkpt>
      <trkpt lat="48.79888" lon="-3.44934">
        <ele>35.3</ele>
        <time>2020-08-14T13:26:59Z</time>
      </trkpt>
      <trkpt lat="48.79883" lon="-3.44952">
        <ele>35.3</ele>
        <time>2020-08-14T13:27:08Z</time>
      </trkpt>
      <trkpt lat="48.79879" lon="-3.44969">
        <ele>35.7</ele>
        <time>2020-08-14T13:27:17Z</time>
      </trkpt>
      <trkpt lat="48.79875" lon="-3.44985">
        <ele>35.9</ele>
        <time>2020-08-14T13:27:26Z</time>
      </trkpt>
      <trkpt lat="48.79873" lon="-3.45">
        <ele>39.7</ele>
        <time>2020-08-14T13:27:33Z</time>
      </trkpt>
      <trkpt lat="48.79868" lon="-3.45021">
        <ele>39.8</ele>
        <time>2020-08-14T13:27:42Z</time>
      </trkpt>
      <trkpt lat="48.79863" lon="-3.45037">
        <ele>40.2</ele>
        <time>2020-08-14T13:27:50Z</time>
      </trkpt>
      <trkpt lat="48.79859" lon="-3.45052">
        <ele>40.7</ele>
        <time>2020-08-14T13:27:57Z</time>
      </trkpt>
      <trkpt lat="48.7986" lon="-3.45056">
        <ele>40.9</ele>
        <time>2020-08-14T13:27:59Z</time>
      </trkpt>
      <trkpt lat="48.79856" lon="-3.45062">
        <ele>40.9</ele>
        <time>2020-08-14T13:28:06Z</time>
      </trkpt>
      <trkpt lat="48.79852" lon="-3.45078">
        <ele>41.1</ele>
        <time>2020-08-14T13:28:20Z</time>
      </trkpt>
      <trkpt lat="48.79846" lon="-3.45093">
        <ele>43.5</ele>
        <time>2020-08-14T13:28:27Z</time>
      </trkpt>
      <trkpt lat="48.79838" lon="-3.45117">
        <ele>45</ele>
        <time>2020-08-14T13:28:37Z</time>
      </trkpt>
      <trkpt lat="48.79831" lon="-3.45137">
        <ele>40.9</ele>
        <time>2020-08-14T13:28:46Z</time>
      </trkpt>
      <trkpt lat="48.79826" lon="-3.45156">
        <ele>43.3</ele>
        <time>2020-08-14T13:28:53Z</time>
      </trkpt>
      <trkpt lat="48.79817" lon="-3.45181">
        <ele>45.8</ele>
        <time>2020-08-14T13:29:02Z</time>
      </trkpt>
      <trkpt lat="48.79805" lon="-3.45208">
        <ele>45.9</ele>
        <time>2020-08-14T13:29:12Z</time>
      </trkpt>
      <trkpt lat="48.79793" lon="-3.45235">
        <ele>46.4</ele>
        <time>2020-08-14T13:29:22Z</time>
      </trkpt>
      <trkpt lat="48.79784" lon="-3.45252">
        <ele>49.7</ele>
        <time>2020-08-14T13:29:29Z</time>
      </trkpt>
      <trkpt lat="48.79773" lon="-3.45276">
        <ele>49.7</ele>
        <time>2020-08-14T13:29:37Z</time>
      </trkpt>
      <trkpt lat="48.79762" lon="-3.45302">
        <ele>50.2</ele>
        <time>2020-08-14T13:29:46Z</time>
      </trkpt>
      <trkpt lat="48.79753" lon="-3.45323">
        <ele>50.2</ele>
        <time>2020-08-14T13:29:53Z</time>
      </trkpt>
      <trkpt lat="48.79741" lon="-3.45347">
        <ele>49.4</ele>
        <time>2020-08-14T13:30:01Z</time>
      </trkpt>
      <trkpt lat="48.79731" lon="-3.45366">
        <ele>49.3</ele>
        <time>2020-08-14T13:30:09Z</time>
      </trkpt>
      <trkpt lat="48.79726" lon="-3.45376">
        <ele>49.4</ele>
        <time>2020-08-14T13:30:16Z</time>
      </trkpt>
      <trkpt lat="48.79718" lon="-3.45389">
        <ele>49.6</ele>
        <time>2020-08-14T13:30:24Z</time>
      </trkpt>
      <trkpt lat="48.79715" lon="-3.45397">
        <ele>49.7</ele>
        <time>2020-08-14T13:30:28Z</time>
      </trkpt>
      <trkpt lat="48.79707" lon="-3.45414">
        <ele>49.7</ele>
        <time>2020-08-14T13:30:36Z</time>
      </trkpt>
      <trkpt lat="48.79703" lon="-3.45434">
        <ele>52.6</ele>
        <time>2020-08-14T13:30:43Z</time>
      </trkpt>
      <trkpt lat="48.79706" lon="-3.4545">
        <ele>53</ele>
        <time>2020-08-14T13:30:50Z</time>
      </trkpt>
      <trkpt lat="48.79707" lon="-3.45453">
        <ele>53.1</ele>
        <time>2020-08-14T13:30:52Z</time>
      </trkpt>
      <trkpt lat="48.79709" lon="-3.45463">
        <ele>53.4</ele>
        <time>2020-08-14T13:30:57Z</time>
      </trkpt>
      <trkpt lat="48.79713" lon="-3.45473">
        <ele>53.6</ele>
        <time>2020-08-14T13:31:03Z</time>
      </trkpt>
      <trkpt lat="48.79717" lon="-3.45487">
        <ele>53.9</ele>
        <time>2020-08-14T13:31:11Z</time>
      </trkpt>
      <trkpt lat="48.79721" lon="-3.45501">
        <ele>55.6</ele>
        <time>2020-08-14T13:31:18Z</time>
      </trkpt>
      <trkpt lat="48.79726" lon="-3.45518">
        <ele>55.6</ele>
        <time>2020-08-14T13:31:26Z</time>
      </trkpt>
      <trkpt lat="48.79729" lon="-3.45531">
        <ele>55.8</ele>
        <time>2020-08-14T13:31:32Z</time>
      </trkpt>
      <trkpt lat="48.79732" lon="-3.45541">
        <ele>55.9</ele>
        <time>2020-08-14T13:31:38Z</time>
      </trkpt>
      <trkpt lat="48.79732" lon="-3.45541">
        <ele>55.9</ele>
        <time>2020-08-14T13:31:40Z</time>
      </trkpt>
      <trkpt lat="48.79736" lon="-3.45562">
        <ele>56</ele>
        <time>2020-08-14T13:31:55Z</time>
      </trkpt>
      <trkpt lat="48.79739" lon="-3.4558">
        <ele>56</ele>
        <time>2020-08-14T13:32:02Z</time>
      </trkpt>
      <trkpt lat="48.79742" lon="-3.45604">
        <ele>56.7</ele>
        <time>2020-08-14T13:32:10Z</time>
      </trkpt>
      <trkpt lat="48.79749" lon="-3.45632">
        <ele>56.8</ele>
        <time>2020-08-14T13:32:19Z</time>
      </trkpt>
      <trkpt lat="48.79753" lon="-3.45652">
        <ele>55.8</ele>
        <time>2020-08-14T13:32:25Z</time>
      </trkpt>
      <trkpt lat="48.79757" lon="-3.45672">
        <ele>56.2</ele>
        <time>2020-08-14T13:32:30Z</time>
      </trkpt>
      <trkpt lat="48.79761" lon="-3.45683">
        <ele>56.3</ele>
        <time>2020-08-14T13:32:33Z</time>
      </trkpt>
      <trkpt lat="48.79772" lon="-3.45681">
        <ele>56.3</ele>
        <time>2020-08-14T13:32:37Z</time>
      </trkpt>
      <trkpt lat="48.79781" lon="-3.45673">
        <ele>56.2</ele>
        <time>2020-08-14T13:32:40Z</time>
      </trkpt>
      <trkpt lat="48.79791" lon="-3.45683">
        <ele>56.2</ele>
        <time>2020-08-14T13:32:44Z</time>
      </trkpt>
      <trkpt lat="48.79801" lon="-3.45723">
        <ele>56.5</ele>
        <time>2020-08-14T13:32:52Z</time>
      </trkpt>
      <trkpt lat="48.79807" lon="-3.45747">
        <ele>56.5</ele>
        <time>2020-08-14T13:32:57Z</time>
      </trkpt>
      <trkpt lat="48.79819" lon="-3.45778">
        <ele>58.9</ele>
        <time>2020-08-14T13:33:04Z</time>
      </trkpt>
      <trkpt lat="48.79832" lon="-3.458">
        <ele>59.5</ele>
        <time>2020-08-14T13:33:12Z</time>
      </trkpt>
      <trkpt lat="48.79841" lon="-3.45817">
        <ele>60.2</ele>
        <time>2020-08-14T13:33:19Z</time>
      </trkpt>
      <trkpt lat="48.79846" lon="-3.45828">
        <ele>60.3</ele>
        <time>2020-08-14T13:33:25Z</time>
      </trkpt>
      <trkpt lat="48.79853" lon="-3.45837">
        <ele>62.3</ele>
        <time>2020-08-14T13:33:31Z</time>
      </trkpt>
      <trkpt lat="48.79858" lon="-3.45849">
        <ele>63</ele>
        <time>2020-08-14T13:33:38Z</time>
      </trkpt>
      <trkpt lat="48.79862" lon="-3.45853">
        <ele>63.3</ele>
        <time>2020-08-14T13:33:41Z</time>
      </trkpt>
      <trkpt lat="48.79867" lon="-3.45858">
        <ele>63.6</ele>
        <time>2020-08-14T13:33:45Z</time>
      </trkpt>
      <trkpt lat="48.79874" lon="-3.45865">
        <ele>64</ele>
        <time>2020-08-14T13:33:52Z</time>
      </trkpt>
      <trkpt lat="48.79884" lon="-3.45877">
        <ele>64.4</ele>
        <time>2020-08-14T13:34:02Z</time>
      </trkpt>
      <trkpt lat="48.79892" lon="-3.45887">
        <ele>64.8</ele>
        <time>2020-08-14T13:34:10Z</time>
      </trkpt>
      <trkpt lat="48.79901" lon="-3.45896">
        <ele>65.3</ele>
        <time>2020-08-14T13:34:19Z</time>
      </trkpt>
      <trkpt lat="48.79909" lon="-3.45906">
        <ele>65.9</ele>
        <time>2020-08-14T13:34:27Z</time>
      </trkpt>
      <trkpt lat="48.79915" lon="-3.4592">
        <ele>67</ele>
        <time>2020-08-14T13:34:33Z</time>
      </trkpt>
      <trkpt lat="48.79917" lon="-3.4594">
        <ele>67.9</ele>
        <time>2020-08-14T13:34:39Z</time>
      </trkpt>
      <trkpt lat="48.79918" lon="-3.45967">
        <ele>68.4</ele>
        <time>2020-08-14T13:34:47Z</time>
      </trkpt>
      <trkpt lat="48.79923" lon="-3.45997">
        <ele>68.9</ele>
        <time>2020-08-14T13:34:56Z</time>
      </trkpt>
      <trkpt lat="48.79922" lon="-3.46012">
        <ele>69.6</ele>
        <time>2020-08-14T13:35:01Z</time>
      </trkpt>
      <trkpt lat="48.79917" lon="-3.46038">
        <ele>70.2</ele>
        <time>2020-08-14T13:35:08Z</time>
      </trkpt>
      <trkpt lat="48.79909" lon="-3.46071">
        <ele>69.8</ele>
        <time>2020-08-14T13:35:17Z</time>
      </trkpt>
      <trkpt lat="48.79904" lon="-3.46089">
        <ele>70.2</ele>
        <time>2020-08-14T13:35:23Z</time>
      </trkpt>
      <trkpt lat="48.79898" lon="-3.46119">
        <ele>69.7</ele>
        <time>2020-08-14T13:35:33Z</time>
      </trkpt>
      <trkpt lat="48.79902" lon="-3.46133">
        <ele>69.8</ele>
        <time>2020-08-14T13:35:38Z</time>
      </trkpt>
      <trkpt lat="48.79902" lon="-3.46135">
        <ele>69.8</ele>
        <time>2020-08-14T13:35:39Z</time>
      </trkpt>
      <trkpt lat="48.79905" lon="-3.46137">
        <ele>69.9</ele>
        <time>2020-08-14T13:35:41Z</time>
      </trkpt>
      <trkpt lat="48.79913" lon="-3.46139">
        <ele>70</ele>
        <time>2020-08-14T13:35:46Z</time>
      </trkpt>
      <trkpt lat="48.79928" lon="-3.46144">
        <ele>71.8</ele>
        <time>2020-08-14T13:35:56Z</time>
      </trkpt>
      <trkpt lat="48.79935" lon="-3.46143">
        <ele>71.9</ele>
        <time>2020-08-14T13:36:02Z</time>
      </trkpt>
      <trkpt lat="48.79935" lon="-3.46143">
        <ele>71.9</ele>
        <time>2020-08-14T13:36:03Z</time>
      </trkpt>
      <trkpt lat="48.79942" lon="-3.46146">
        <ele>72</ele>
        <time>2020-08-14T13:36:27Z</time>
      </trkpt>
      <trkpt lat="48.79951" lon="-3.46157">
        <ele>72.2</ele>
        <time>2020-08-14T13:36:33Z</time>
      </trkpt>
      <trkpt lat="48.79956" lon="-3.46175">
        <ele>72.1</ele>
        <time>2020-08-14T13:36:40Z</time>
      </trkpt>
      <trkpt lat="48.79961" lon="-3.46198">
        <ele>72.1</ele>
        <time>2020-08-14T13:36:47Z</time>
      </trkpt>
      <trkpt lat="48.79965" lon="-3.46223">
        <ele>72.1</ele>
        <time>2020-08-14T13:36:54Z</time>
      </trkpt>
      <trkpt lat="48.79968" lon="-3.46242">
        <ele>72.2</ele>
        <time>2020-08-14T13:36:59Z</time>
      </trkpt>
      <trkpt lat="48.79971" lon="-3.46267">
        <ele>71.6</ele>
        <time>2020-08-14T13:37:05Z</time>
      </trkpt>
      <trkpt lat="48.79976" lon="-3.46295">
        <ele>71.5</ele>
        <time>2020-08-14T13:37:11Z</time>
      </trkpt>
      <trkpt lat="48.79981" lon="-3.46316">
        <ele>71.7</ele>
        <time>2020-08-14T13:37:15Z</time>
      </trkpt>
      <trkpt lat="48.79994" lon="-3.4632">
        <ele>72.2</ele>
        <time>2020-08-14T13:37:19Z</time>
      </trkpt>
      <trkpt lat="48.80011" lon="-3.46318">
        <ele>73.5</ele>
        <time>2020-08-14T13:37:25Z</time>
      </trkpt>
      <trkpt lat="48.80012" lon="-3.46318">
        <ele>73.5</ele>
        <time>2020-08-14T13:37:26Z</time>
      </trkpt>
      <trkpt lat="48.80022" lon="-3.46332">
        <ele>73.5</ele>
        <time>2020-08-14T13:37:32Z</time>
      </trkpt>
      <trkpt lat="48.80024" lon="-3.46346">
        <ele>72.7</ele>
        <time>2020-08-14T13:37:36Z</time>
      </trkpt>
      <trkpt lat="48.80028" lon="-3.46372">
        <ele>72.5</ele>
        <time>2020-08-14T13:37:41Z</time>
      </trkpt>
      <trkpt lat="48.80037" lon="-3.46411">
        <ele>72.3</ele>
        <time>2020-08-14T13:37:48Z</time>
      </trkpt>
      <trkpt lat="48.80047" lon="-3.46435">
        <ele>71.6</ele>
        <time>2020-08-14T13:37:53Z</time>
      </trkpt>
      <trkpt lat="48.80057" lon="-3.46454">
        <ele>71.6</ele>
        <time>2020-08-14T13:37:57Z</time>
      </trkpt>
      <trkpt lat="48.80069" lon="-3.46472">
        <ele>71.6</ele>
        <time>2020-08-14T13:38:02Z</time>
      </trkpt>
      <trkpt lat="48.8008" lon="-3.46491">
        <ele>71.8</ele>
        <time>2020-08-14T13:38:07Z</time>
      </trkpt>
      <trkpt lat="48.80087" lon="-3.46507">
        <ele>72.2</ele>
        <time>2020-08-14T13:38:11Z</time>
      </trkpt>
      <trkpt lat="48.80097" lon="-3.46535">
        <ele>72.5</ele>
        <time>2020-08-14T13:38:16Z</time>
      </trkpt>
      <trkpt lat="48.80105" lon="-3.4655">
        <ele>72.6</ele>
        <time>2020-08-14T13:38:20Z</time>
      </trkpt>
      <trkpt lat="48.8011" lon="-3.46573">
        <ele>72.5</ele>
        <time>2020-08-14T13:38:24Z</time>
      </trkpt>
      <trkpt lat="48.80119" lon="-3.46596">
        <ele>72.8</ele>
        <time>2020-08-14T13:38:29Z</time>
      </trkpt>
      <trkpt lat="48.80127" lon="-3.46614">
        <ele>72.9</ele>
        <time>2020-08-14T13:38:35Z</time>
      </trkpt>
      <trkpt lat="48.80134" lon="-3.46629">
        <ele>73.1</ele>
        <time>2020-08-14T13:38:40Z</time>
      </trkpt>
      <trkpt lat="48.8014" lon="-3.46646">
        <ele>73.2</ele>
        <time>2020-08-14T13:38:45Z</time>
      </trkpt>
      <trkpt lat="48.80145" lon="-3.46667">
        <ele>73.6</ele>
        <time>2020-08-14T13:38:50Z</time>
      </trkpt>
      <trkpt lat="48.80152" lon="-3.4669">
        <ele>73.7</ele>
        <time>2020-08-14T13:38:55Z</time>
      </trkpt>
      <trkpt lat="48.80159" lon="-3.46717">
        <ele>74</ele>
        <time>2020-08-14T13:39:01Z</time>
      </trkpt>
      <trkpt lat="48.80161" lon="-3.4675">
        <ele>75.4</ele>
        <time>2020-08-14T13:39:08Z</time>
      </trkpt>
      <trkpt lat="48.8016" lon="-3.46777">
        <ele>73.9</ele>
        <time>2020-08-14T13:39:14Z</time>
      </trkpt>
      <trkpt lat="48.80165" lon="-3.46811">
        <ele>73.5</ele>
        <time>2020-08-14T13:39:21Z</time>
      </trkpt>
      <trkpt lat="48.80178" lon="-3.46846">
        <ele>74.7</ele>
        <time>2020-08-14T13:39:29Z</time>
      </trkpt>
      <trkpt lat="48.80187" lon="-3.46867">
        <ele>75.2</ele>
        <time>2020-08-14T13:39:35Z</time>
      </trkpt>
      <trkpt lat="48.80194" lon="-3.46888">
        <ele>75.4</ele>
        <time>2020-08-14T13:39:40Z</time>
      </trkpt>
      <trkpt lat="48.80201" lon="-3.46908">
        <ele>75.5</ele>
        <time>2020-08-14T13:39:45Z</time>
      </trkpt>
      <trkpt lat="48.80214" lon="-3.46924">
        <ele>76.7</ele>
        <time>2020-08-14T13:39:50Z</time>
      </trkpt>
      <trkpt lat="48.80223" lon="-3.46934">
        <ele>76.9</ele>
        <time>2020-08-14T13:39:56Z</time>
      </trkpt>
      <trkpt lat="48.8023" lon="-3.46951">
        <ele>77.1</ele>
        <time>2020-08-14T13:40:02Z</time>
      </trkpt>
      <trkpt lat="48.80237" lon="-3.46978">
        <ele>77.7</ele>
        <time>2020-08-14T13:40:10Z</time>
      </trkpt>
      <trkpt lat="48.80249" lon="-3.46989">
        <ele>78.3</ele>
        <time>2020-08-14T13:40:14Z</time>
      </trkpt>
      <trkpt lat="48.80242" lon="-3.46995">
        <ele>78.4</ele>
        <time>2020-08-14T13:40:19Z</time>
      </trkpt>
      <trkpt lat="48.80244" lon="-3.46999">
        <ele>78.6</ele>
        <time>2020-08-14T13:40:26Z</time>
      </trkpt>
      <trkpt lat="48.80245" lon="-3.47002">
        <ele>78.9</ele>
        <time>2020-08-14T13:40:31Z</time>
      </trkpt>
      <trkpt lat="48.8025" lon="-3.4703">
        <ele>79.6</ele>
        <time>2020-08-14T13:40:38Z</time>
      </trkpt>
      <trkpt lat="48.80255" lon="-3.47055">
        <ele>79.6</ele>
        <time>2020-08-14T13:40:46Z</time>
      </trkpt>
      <trkpt lat="48.80261" lon="-3.47085">
        <ele>79.6</ele>
        <time>2020-08-14T13:40:54Z</time>
      </trkpt>
      <trkpt lat="48.80272" lon="-3.47117">
        <ele>80.3</ele>
        <time>2020-08-14T13:41:03Z</time>
      </trkpt>
      <trkpt lat="48.80288" lon="-3.47137">
        <ele>80.6</ele>
        <time>2020-08-14T13:41:10Z</time>
      </trkpt>
      <trkpt lat="48.8031" lon="-3.47153">
        <ele>80.7</ele>
        <time>2020-08-14T13:41:19Z</time>
      </trkpt>
      <trkpt lat="48.80331" lon="-3.47171">
        <ele>81</ele>
        <time>2020-08-14T13:41:28Z</time>
      </trkpt>
      <trkpt lat="48.80355" lon="-3.47193">
        <ele>80.6</ele>
        <time>2020-08-14T13:41:38Z</time>
      </trkpt>
      <trkpt lat="48.80376" lon="-3.47216">
        <ele>80.5</ele>
        <time>2020-08-14T13:41:46Z</time>
      </trkpt>
      <trkpt lat="48.80398" lon="-3.47243">
        <ele>80.3</ele>
        <time>2020-08-14T13:41:55Z</time>
      </trkpt>
      <trkpt lat="48.80418" lon="-3.47275">
        <ele>79.9</ele>
        <time>2020-08-14T13:42:03Z</time>
      </trkpt>
      <trkpt lat="48.80445" lon="-3.47309">
        <ele>80</ele>
        <time>2020-08-14T13:42:12Z</time>
      </trkpt>
      <trkpt lat="48.80467" lon="-3.47328">
        <ele>79.7</ele>
        <time>2020-08-14T13:42:19Z</time>
      </trkpt>
      <trkpt lat="48.8049" lon="-3.47341">
        <ele>79.6</ele>
        <time>2020-08-14T13:42:26Z</time>
      </trkpt>
      <trkpt lat="48.80529" lon="-3.47364">
        <ele>79.7</ele>
        <time>2020-08-14T13:42:37Z</time>
      </trkpt>
      <trkpt lat="48.80556" lon="-3.47385">
        <ele>79.8</ele>
        <time>2020-08-14T13:42:45Z</time>
      </trkpt>
      <trkpt lat="48.80576" lon="-3.47408">
        <ele>79.9</ele>
        <time>2020-08-14T13:42:52Z</time>
      </trkpt>
      <trkpt lat="48.80601" lon="-3.47438">
        <ele>79.2</ele>
        <time>2020-08-14T13:43:00Z</time>
      </trkpt>
      <trkpt lat="48.80623" lon="-3.4745">
        <ele>78.8</ele>
        <time>2020-08-14T13:43:06Z</time>
      </trkpt>
      <trkpt lat="48.80627" lon="-3.47451">
        <ele>78.8</ele>
        <time>2020-08-14T13:43:09Z</time>
      </trkpt>
      <trkpt lat="48.80627" lon="-3.47451">
        <ele>78.8</ele>
        <time>2020-08-14T13:44:50Z</time>
      </trkpt>
      <trkpt lat="48.80629" lon="-3.47452">
        <ele>78.8</ele>
        <time>2020-08-14T13:44:57Z</time>
      </trkpt>
      <trkpt lat="48.80642" lon="-3.47438">
        <ele>78.8</ele>
        <time>2020-08-14T13:45:01Z</time>
      </trkpt>
      <trkpt lat="48.80644" lon="-3.47419">
        <ele>78.9</ele>
        <time>2020-08-14T13:45:06Z</time>
      </trkpt>
      <trkpt lat="48.8065" lon="-3.47374">
        <ele>80.2</ele>
        <time>2020-08-14T13:45:15Z</time>
      </trkpt>
      <trkpt lat="48.80655" lon="-3.47344">
        <ele>81</ele>
        <time>2020-08-14T13:45:23Z</time>
      </trkpt>
      <trkpt lat="48.80658" lon="-3.47317">
        <ele>81.1</ele>
        <time>2020-08-14T13:45:30Z</time>
      </trkpt>
      <trkpt lat="48.80666" lon="-3.47268">
        <ele>80.7</ele>
        <time>2020-08-14T13:45:40Z</time>
      </trkpt>
      <trkpt lat="48.80673" lon="-3.47252">
        <ele>80.9</ele>
        <time>2020-08-14T13:45:44Z</time>
      </trkpt>
      <trkpt lat="48.80699" lon="-3.47242">
        <ele>80.4</ele>
        <time>2020-08-14T13:45:52Z</time>
      </trkpt>
      <trkpt lat="48.80714" lon="-3.47226">
        <ele>80.3</ele>
        <time>2020-08-14T13:45:57Z</time>
      </trkpt>
      <trkpt lat="48.80717" lon="-3.47222">
        <ele>80.2</ele>
        <time>2020-08-14T13:45:58Z</time>
      </trkpt>
      <trkpt lat="48.80728" lon="-3.47216">
        <ele>80.1</ele>
        <time>2020-08-14T13:46:01Z</time>
      </trkpt>
      <trkpt lat="48.80741" lon="-3.4721">
        <ele>80</ele>
        <time>2020-08-14T13:46:04Z</time>
      </trkpt>
      <trkpt lat="48.80754" lon="-3.47199">
        <ele>78.5</ele>
        <time>2020-08-14T13:46:08Z</time>
      </trkpt>
      <trkpt lat="48.80757" lon="-3.47193">
        <ele>78.5</ele>
        <time>2020-08-14T13:46:15Z</time>
      </trkpt>
      <trkpt lat="48.80761" lon="-3.47182">
        <ele>78.5</ele>
        <time>2020-08-14T13:46:19Z</time>
      </trkpt>
      <trkpt lat="48.8077" lon="-3.47149">
        <ele>78.5</ele>
        <time>2020-08-14T13:46:27Z</time>
      </trkpt>
      <trkpt lat="48.80777" lon="-3.47135">
        <ele>78.4</ele>
        <time>2020-08-14T13:46:31Z</time>
      </trkpt>
      <trkpt lat="48.80791" lon="-3.47133">
        <ele>78.2</ele>
        <time>2020-08-14T13:46:36Z</time>
      </trkpt>
      <trkpt lat="48.80808" lon="-3.47138">
        <ele>78</ele>
        <time>2020-08-14T13:46:41Z</time>
      </trkpt>
      <trkpt lat="48.80821" lon="-3.47143">
        <ele>77.8</ele>
        <time>2020-08-14T13:46:44Z</time>
      </trkpt>
      <trkpt lat="48.80842" lon="-3.47151">
        <ele>76.5</ele>
        <time>2020-08-14T13:46:49Z</time>
      </trkpt>
      <trkpt lat="48.80866" lon="-3.47147">
        <ele>76</ele>
        <time>2020-08-14T13:46:54Z</time>
      </trkpt>
      <trkpt lat="48.80874" lon="-3.47134">
        <ele>76</ele>
        <time>2020-08-14T13:46:57Z</time>
      </trkpt>
      <trkpt lat="48.80876" lon="-3.47121">
        <ele>76</ele>
        <time>2020-08-14T13:46:59Z</time>
      </trkpt>
      <trkpt lat="48.80879" lon="-3.47081">
        <ele>76.2</ele>
        <time>2020-08-14T13:47:05Z</time>
      </trkpt>
      <trkpt lat="48.80887" lon="-3.47072">
        <ele>76.1</ele>
        <time>2020-08-14T13:47:09Z</time>
      </trkpt>
      <trkpt lat="48.80892" lon="-3.47076">
        <ele>76.1</ele>
        <time>2020-08-14T13:47:11Z</time>
      </trkpt>
      <trkpt lat="48.8091" lon="-3.47091">
        <ele>76</ele>
        <time>2020-08-14T13:47:18Z</time>
      </trkpt>
      <trkpt lat="48.80921" lon="-3.47095">
        <ele>75.1</ele>
        <time>2020-08-14T13:47:22Z</time>
      </trkpt>
      <trkpt lat="48.80942" lon="-3.47099">
        <ele>74.4</ele>
        <time>2020-08-14T13:47:28Z</time>
      </trkpt>
      <trkpt lat="48.80963" lon="-3.47102">
        <ele>73.8</ele>
        <time>2020-08-14T13:47:34Z</time>
      </trkpt>
      <trkpt lat="48.80984" lon="-3.47102">
        <ele>73.5</ele>
        <time>2020-08-14T13:47:40Z</time>
      </trkpt>
      <trkpt lat="48.81005" lon="-3.47102">
        <ele>73</ele>
        <time>2020-08-14T13:47:46Z</time>
      </trkpt>
      <trkpt lat="48.81026" lon="-3.471">
        <ele>73</ele>
        <time>2020-08-14T13:47:52Z</time>
      </trkpt>
      <trkpt lat="48.81041" lon="-3.47089">
        <ele>73.2</ele>
        <time>2020-08-14T13:47:57Z</time>
      </trkpt>
      <trkpt lat="48.81045" lon="-3.47067">
        <ele>73.5</ele>
        <time>2020-08-14T13:48:02Z</time>
      </trkpt>
      <trkpt lat="48.81049" lon="-3.47043">
        <ele>73.5</ele>
        <time>2020-08-14T13:48:08Z</time>
      </trkpt>
      <trkpt lat="48.81062" lon="-3.47039">
        <ele>73.5</ele>
        <time>2020-08-14T13:48:14Z</time>
      </trkpt>
      <trkpt lat="48.81073" lon="-3.47039">
        <ele>73.5</ele>
        <time>2020-08-14T13:48:18Z</time>
      </trkpt>
      <trkpt lat="48.81087" lon="-3.47044">
        <ele>72.9</ele>
        <time>2020-08-14T13:48:24Z</time>
      </trkpt>
      <trkpt lat="48.81099" lon="-3.47052">
        <ele>72.9</ele>
        <time>2020-08-14T13:48:31Z</time>
      </trkpt>
      <trkpt lat="48.81104" lon="-3.4705">
        <ele>72.8</ele>
        <time>2020-08-14T13:48:36Z</time>
      </trkpt>
      <trkpt lat="48.81113" lon="-3.47038">
        <ele>72.6</ele>
        <time>2020-08-14T13:48:43Z</time>
      </trkpt>
      <trkpt lat="48.81125" lon="-3.47021">
        <ele>72.4</ele>
        <time>2020-08-14T13:48:51Z</time>
      </trkpt>
      <trkpt lat="48.8114" lon="-3.47001">
        <ele>72</ele>
        <time>2020-08-14T13:48:59Z</time>
      </trkpt>
      <trkpt lat="48.81151" lon="-3.46992">
        <ele>71.7</ele>
        <time>2020-08-14T13:49:03Z</time>
      </trkpt>
      <trkpt lat="48.81161" lon="-3.47001">
        <ele>71.3</ele>
        <time>2020-08-14T13:49:07Z</time>
      </trkpt>
      <trkpt lat="48.81183" lon="-3.47024">
        <ele>70</ele>
        <time>2020-08-14T13:49:15Z</time>
      </trkpt>
      <trkpt lat="48.81195" lon="-3.47032">
        <ele>69.8</ele>
        <time>2020-08-14T13:49:19Z</time>
      </trkpt>
      <trkpt lat="48.81218" lon="-3.47029">
        <ele>69.2</ele>
        <time>2020-08-14T13:49:24Z</time>
      </trkpt>
      <trkpt lat="48.81227" lon="-3.4702">
        <ele>68.8</ele>
        <time>2020-08-14T13:49:26Z</time>
      </trkpt>
      <trkpt lat="48.81264" lon="-3.46979">
        <ele>66.8</ele>
        <time>2020-08-14T13:49:34Z</time>
      </trkpt>
      <trkpt lat="48.81288" lon="-3.4695">
        <ele>66.7</ele>
        <time>2020-08-14T13:49:41Z</time>
      </trkpt>
      <trkpt lat="48.81295" lon="-3.46942">
        <ele>66.6</ele>
        <time>2020-08-14T13:49:43Z</time>
      </trkpt>
      <trkpt lat="48.8132" lon="-3.46911">
        <ele>66</ele>
        <time>2020-08-14T13:49:51Z</time>
      </trkpt>
      <trkpt lat="48.81339" lon="-3.46879">
        <ele>63.7</ele>
        <time>2020-08-14T13:49:58Z</time>
      </trkpt>
      <trkpt lat="48.81353" lon="-3.46874">
        <ele>63.5</ele>
        <time>2020-08-14T13:50:02Z</time>
      </trkpt>
      <trkpt lat="48.81382" lon="-3.46874">
        <ele>63.1</ele>
        <time>2020-08-14T13:50:09Z</time>
      </trkpt>
      <trkpt lat="48.81404" lon="-3.46873">
        <ele>62.8</ele>
        <time>2020-08-14T13:50:17Z</time>
      </trkpt>
      <trkpt lat="48.81413" lon="-3.46872">
        <ele>62.7</ele>
        <time>2020-08-14T13:50:22Z</time>
      </trkpt>
      <trkpt lat="48.81427" lon="-3.46875">
        <ele>62.7</ele>
        <time>2020-08-14T13:50:28Z</time>
      </trkpt>
      <trkpt lat="48.81443" lon="-3.46881">
        <ele>63</ele>
        <time>2020-08-14T13:50:37Z</time>
      </trkpt>
      <trkpt lat="48.81453" lon="-3.46891">
        <ele>63.2</ele>
        <time>2020-08-14T13:50:44Z</time>
      </trkpt>
      <trkpt lat="48.81466" lon="-3.46915">
        <ele>63.7</ele>
        <time>2020-08-14T13:50:54Z</time>
      </trkpt>
      <trkpt lat="48.81475" lon="-3.4694">
        <ele>65.3</ele>
        <time>2020-08-14T13:51:03Z</time>
      </trkpt>
      <trkpt lat="48.81484" lon="-3.46962">
        <ele>65.5</ele>
        <time>2020-08-14T13:51:11Z</time>
      </trkpt>
      <trkpt lat="48.81494" lon="-3.46988">
        <ele>65.8</ele>
        <time>2020-08-14T13:51:20Z</time>
      </trkpt>
      <trkpt lat="48.81502" lon="-3.47011">
        <ele>65.9</ele>
        <time>2020-08-14T13:51:27Z</time>
      </trkpt>
      <trkpt lat="48.81509" lon="-3.47028">
        <ele>65.9</ele>
        <time>2020-08-14T13:51:33Z</time>
      </trkpt>
      <trkpt lat="48.81522" lon="-3.47064">
        <ele>66.2</ele>
        <time>2020-08-14T13:51:44Z</time>
      </trkpt>
      <trkpt lat="48.81531" lon="-3.47088">
        <ele>67.5</ele>
        <time>2020-08-14T13:51:52Z</time>
      </trkpt>
      <trkpt lat="48.81538" lon="-3.4711">
        <ele>67.8</ele>
        <time>2020-08-14T13:51:59Z</time>
      </trkpt>
      <trkpt lat="48.81553" lon="-3.47132">
        <ele>68</ele>
        <time>2020-08-14T13:52:07Z</time>
      </trkpt>
      <trkpt lat="48.81568" lon="-3.47149">
        <ele>68</ele>
        <time>2020-08-14T13:52:14Z</time>
      </trkpt>
      <trkpt lat="48.81587" lon="-3.47164">
        <ele>67.7</ele>
        <time>2020-08-14T13:52:21Z</time>
      </trkpt>
      <trkpt lat="48.8161" lon="-3.47185">
        <ele>68.1</ele>
        <time>2020-08-14T13:52:29Z</time>
      </trkpt>
      <trkpt lat="48.81623" lon="-3.47195">
        <ele>68.1</ele>
        <time>2020-08-14T13:52:34Z</time>
      </trkpt>
      <trkpt lat="48.81642" lon="-3.47209">
        <ele>68.2</ele>
        <time>2020-08-14T13:52:42Z</time>
      </trkpt>
      <trkpt lat="48.81668" lon="-3.4722">
        <ele>66.7</ele>
        <time>2020-08-14T13:52:51Z</time>
      </trkpt>
      <trkpt lat="48.8167" lon="-3.47231">
        <ele>67.2</ele>
        <time>2020-08-14T13:52:58Z</time>
      </trkpt>
      <trkpt lat="48.8167" lon="-3.47237">
        <ele>67.6</ele>
        <time>2020-08-14T13:53:00Z</time>
      </trkpt>
      <trkpt lat="48.81669" lon="-3.47257">
        <ele>67.8</ele>
        <time>2020-08-14T13:53:07Z</time>
      </trkpt>
      <trkpt lat="48.81668" lon="-3.47272">
        <ele>66.3</ele>
        <time>2020-08-14T13:53:11Z</time>
      </trkpt>
      <trkpt lat="48.81667" lon="-3.47284">
        <ele>65.6</ele>
        <time>2020-08-14T13:53:17Z</time>
      </trkpt>
      <trkpt lat="48.81667" lon="-3.47284">
        <ele>65.6</ele>
        <time>2020-08-14T13:53:18Z</time>
      </trkpt>
      <trkpt lat="48.81657" lon="-3.47304">
        <ele>66.6</ele>
        <time>2020-08-14T13:53:24Z</time>
      </trkpt>
      <trkpt lat="48.81645" lon="-3.47336">
        <ele>64.6</ele>
        <time>2020-08-14T13:53:31Z</time>
      </trkpt>
      <trkpt lat="48.81635" lon="-3.4737">
        <ele>64.6</ele>
        <time>2020-08-14T13:53:38Z</time>
      </trkpt>
      <trkpt lat="48.81629" lon="-3.47414">
        <ele>64.2</ele>
        <time>2020-08-14T13:53:45Z</time>
      </trkpt>
      <trkpt lat="48.81626" lon="-3.47437">
        <ele>62</ele>
        <time>2020-08-14T13:53:49Z</time>
      </trkpt>
      <trkpt lat="48.81625" lon="-3.47449">
        <ele>61.7</ele>
        <time>2020-08-14T13:53:54Z</time>
      </trkpt>
      <trkpt lat="48.81625" lon="-3.47455">
        <ele>61.6</ele>
        <time>2020-08-14T13:54:11Z</time>
      </trkpt>
      <trkpt lat="48.81625" lon="-3.47458">
        <ele>61.5</ele>
        <time>2020-08-14T13:54:14Z</time>
      </trkpt>
      <trkpt lat="48.81625" lon="-3.47464">
        <ele>61.4</ele>
        <time>2020-08-14T13:54:36Z</time>
      </trkpt>
      <trkpt lat="48.81624" lon="-3.47494">
        <ele>60.8</ele>
        <time>2020-08-14T13:54:43Z</time>
      </trkpt>
      <trkpt lat="48.81625" lon="-3.47533">
        <ele>55.9</ele>
        <time>2020-08-14T13:54:51Z</time>
      </trkpt>
      <trkpt lat="48.81625" lon="-3.47537">
        <ele>55.7</ele>
        <time>2020-08-14T13:54:52Z</time>
      </trkpt>
      <trkpt lat="48.81625" lon="-3.47546">
        <ele>55.3</ele>
        <time>2020-08-14T13:54:54Z</time>
      </trkpt>
      <trkpt lat="48.81625" lon="-3.47558">
        <ele>54.7</ele>
        <time>2020-08-14T13:54:57Z</time>
      </trkpt>
      <trkpt lat="48.8162" lon="-3.47572">
        <ele>54.3</ele>
        <time>2020-08-14T13:55:00Z</time>
      </trkpt>
      <trkpt lat="48.81617" lon="-3.4757">
        <ele>54.3</ele>
        <time>2020-08-14T13:55:01Z</time>
      </trkpt>
      <trkpt lat="48.81594" lon="-3.47557">
        <ele>54.6</ele>
        <time>2020-08-14T13:55:10Z</time>
      </trkpt>
      <trkpt lat="48.81574" lon="-3.47544">
        <ele>57</ele>
        <time>2020-08-14T13:55:20Z</time>
      </trkpt>
      <trkpt lat="48.81564" lon="-3.47556">
        <ele>56.4</ele>
        <time>2020-08-14T13:55:23Z</time>
      </trkpt>
      <trkpt lat="48.81572" lon="-3.47572">
        <ele>54.7</ele>
        <time>2020-08-14T13:55:29Z</time>
      </trkpt>
      <trkpt lat="48.81581" lon="-3.47596">
        <ele>50</ele>
        <time>2020-08-14T13:55:34Z</time>
      </trkpt>
      <trkpt lat="48.81588" lon="-3.47634">
        <ele>44.8</ele>
        <time>2020-08-14T13:55:39Z</time>
      </trkpt>
      <trkpt lat="48.81595" lon="-3.47695">
        <ele>39.4</ele>
        <time>2020-08-14T13:55:44Z</time>
      </trkpt>
      <trkpt lat="48.816" lon="-3.47768">
        <ele>38.5</ele>
        <time>2020-08-14T13:55:49Z</time>
      </trkpt>
      <trkpt lat="48.81603" lon="-3.47869">
        <ele>37.8</ele>
        <time>2020-08-14T13:55:56Z</time>
      </trkpt>
      <trkpt lat="48.81603" lon="-3.47899">
        <ele>37.8</ele>
        <time>2020-08-14T13:55:59Z</time>
      </trkpt>
      <trkpt lat="48.81605" lon="-3.47941">
        <ele>36.7</ele>
        <time>2020-08-14T13:56:04Z</time>
      </trkpt>
      <trkpt lat="48.81611" lon="-3.47971">
        <ele>36.2</ele>
        <time>2020-08-14T13:56:09Z</time>
      </trkpt>
      <trkpt lat="48.81618" lon="-3.4799">
        <ele>36.1</ele>
        <time>2020-08-14T13:56:16Z</time>
      </trkpt>
      <trkpt lat="48.8162" lon="-3.47998">
        <ele>36</ele>
        <time>2020-08-14T13:56:18Z</time>
      </trkpt>
      <trkpt lat="48.81624" lon="-3.48024">
        <ele>33.7</ele>
        <time>2020-08-14T13:56:22Z</time>
      </trkpt>
      <trkpt lat="48.81623" lon="-3.48044">
        <ele>33.2</ele>
        <time>2020-08-14T13:56:24Z</time>
      </trkpt>
      <trkpt lat="48.81614" lon="-3.48098">
        <ele>29.1</ele>
        <time>2020-08-14T13:56:29Z</time>
      </trkpt>
      <trkpt lat="48.81596" lon="-3.48154">
        <ele>26.9</ele>
        <time>2020-08-14T13:56:34Z</time>
      </trkpt>
      <trkpt lat="48.81566" lon="-3.48212">
        <ele>23.6</ele>
        <time>2020-08-14T13:56:39Z</time>
      </trkpt>
      <trkpt lat="48.81514" lon="-3.48296">
        <ele>22.1</ele>
        <time>2020-08-14T13:56:46Z</time>
      </trkpt>
      <trkpt lat="48.81502" lon="-3.48322">
        <ele>21.5</ele>
        <time>2020-08-14T13:56:48Z</time>
      </trkpt>
      <trkpt lat="48.81478" lon="-3.48376">
        <ele>22</ele>
        <time>2020-08-14T13:56:53Z</time>
      </trkpt>
      <trkpt lat="48.81459" lon="-3.48414">
        <ele>22.2</ele>
        <time>2020-08-14T13:56:58Z</time>
      </trkpt>
      <trkpt lat="48.81442" lon="-3.4845">
        <ele>24.1</ele>
        <time>2020-08-14T13:57:05Z</time>
      </trkpt>
      <trkpt lat="48.81428" lon="-3.48477">
        <ele>24.6</ele>
        <time>2020-08-14T13:57:13Z</time>
      </trkpt>
      <trkpt lat="48.81417" lon="-3.48499">
        <ele>25</ele>
        <time>2020-08-14T13:57:22Z</time>
      </trkpt>
      <trkpt lat="48.8141" lon="-3.48513">
        <ele>26.3</ele>
        <time>2020-08-14T13:57:29Z</time>
      </trkpt>
      <trkpt lat="48.81402" lon="-3.48531">
        <ele>27.3</ele>
        <time>2020-08-14T13:57:38Z</time>
      </trkpt>
      <trkpt lat="48.81394" lon="-3.48548">
        <ele>28</ele>
        <time>2020-08-14T13:57:47Z</time>
      </trkpt>
      <trkpt lat="48.81387" lon="-3.48567">
        <ele>28.5</ele>
        <time>2020-08-14T13:57:56Z</time>
      </trkpt>
      <trkpt lat="48.8138" lon="-3.48587">
        <ele>31.5</ele>
        <time>2020-08-14T13:58:06Z</time>
      </trkpt>
      <trkpt lat="48.81373" lon="-3.48609">
        <ele>32</ele>
        <time>2020-08-14T13:58:16Z</time>
      </trkpt>
      <trkpt lat="48.81368" lon="-3.48625">
        <ele>32.4</ele>
        <time>2020-08-14T13:58:23Z</time>
      </trkpt>
      <trkpt lat="48.81364" lon="-3.48642">
        <ele>32.8</ele>
        <time>2020-08-14T13:58:31Z</time>
      </trkpt>
      <trkpt lat="48.81358" lon="-3.48663">
        <ele>33.4</ele>
        <time>2020-08-14T13:58:40Z</time>
      </trkpt>
      <trkpt lat="48.81354" lon="-3.48681">
        <ele>36</ele>
        <time>2020-08-14T13:58:48Z</time>
      </trkpt>
      <trkpt lat="48.81349" lon="-3.48698">
        <ele>36.6</ele>
        <time>2020-08-14T13:58:55Z</time>
      </trkpt>
      <trkpt lat="48.81344" lon="-3.48716">
        <ele>37.3</ele>
        <time>2020-08-14T13:59:04Z</time>
      </trkpt>
      <trkpt lat="48.8134" lon="-3.48735">
        <ele>38.4</ele>
        <time>2020-08-14T13:59:14Z</time>
      </trkpt>
      <trkpt lat="48.81338" lon="-3.48749">
        <ele>39.4</ele>
        <time>2020-08-14T13:59:21Z</time>
      </trkpt>
      <trkpt lat="48.81336" lon="-3.48765">
        <ele>41.5</ele>
        <time>2020-08-14T13:59:30Z</time>
      </trkpt>
      <trkpt lat="48.8134" lon="-3.4879">
        <ele>43.2</ele>
        <time>2020-08-14T13:59:42Z</time>
      </trkpt>
      <trkpt lat="48.81346" lon="-3.48798">
        <ele>43.7</ele>
        <time>2020-08-14T13:59:47Z</time>
      </trkpt>
      <trkpt lat="48.8136" lon="-3.48808">
        <ele>44</ele>
        <time>2020-08-14T13:59:56Z</time>
      </trkpt>
      <trkpt lat="48.81373" lon="-3.48818">
        <ele>44</ele>
        <time>2020-08-14T14:00:06Z</time>
      </trkpt>
      <trkpt lat="48.81377" lon="-3.48824">
        <ele>44.1</ele>
        <time>2020-08-14T14:00:12Z</time>
      </trkpt>
      <trkpt lat="48.81384" lon="-3.48835">
        <ele>46.7</ele>
        <time>2020-08-14T14:00:18Z</time>
      </trkpt>
      <trkpt lat="48.81381" lon="-3.48847">
        <ele>46.9</ele>
        <time>2020-08-14T14:00:26Z</time>
      </trkpt>
      <trkpt lat="48.81393" lon="-3.48847">
        <ele>46.5</ele>
        <time>2020-08-14T14:00:33Z</time>
      </trkpt>
      <trkpt lat="48.81398" lon="-3.48853">
        <ele>46.5</ele>
        <time>2020-08-14T14:00:39Z</time>
      </trkpt>
      <trkpt lat="48.81399" lon="-3.48854">
        <ele>46.5</ele>
        <time>2020-08-14T14:01:44Z</time>
      </trkpt>
      <trkpt lat="48.814" lon="-3.48877">
        <ele>46.9</ele>
        <time>2020-08-14T14:01:51Z</time>
      </trkpt>
      <trkpt lat="48.81417" lon="-3.48877">
        <ele>44.3</ele>
        <time>2020-08-14T14:01:58Z</time>
      </trkpt>
      <trkpt lat="48.81436" lon="-3.48876">
        <ele>43.9</ele>
        <time>2020-08-14T14:02:05Z</time>
      </trkpt>
      <trkpt lat="48.81451" lon="-3.48874">
        <ele>43.5</ele>
        <time>2020-08-14T14:02:10Z</time>
      </trkpt>
      <trkpt lat="48.81477" lon="-3.48883">
        <ele>42.7</ele>
        <time>2020-08-14T14:02:16Z</time>
      </trkpt>
      <trkpt lat="48.81515" lon="-3.48888">
        <ele>39.2</ele>
        <time>2020-08-14T14:02:23Z</time>
      </trkpt>
      <trkpt lat="48.81549" lon="-3.48889">
        <ele>38.2</ele>
        <time>2020-08-14T14:02:30Z</time>
      </trkpt>
      <trkpt lat="48.81565" lon="-3.48888">
        <ele>37.7</ele>
        <time>2020-08-14T14:02:35Z</time>
      </trkpt>
      <trkpt lat="48.8158" lon="-3.48888">
        <ele>37.4</ele>
        <time>2020-08-14T14:02:42Z</time>
      </trkpt>
      <trkpt lat="48.81598" lon="-3.48889">
        <ele>35.3</ele>
        <time>2020-08-14T14:02:48Z</time>
      </trkpt>
      <trkpt lat="48.81628" lon="-3.48891">
        <ele>34.9</ele>
        <time>2020-08-14T14:02:55Z</time>
      </trkpt>
      <trkpt lat="48.81657" lon="-3.48892">
        <ele>34.2</ele>
        <time>2020-08-14T14:03:01Z</time>
      </trkpt>
      <trkpt lat="48.81662" lon="-3.48893">
        <ele>34</ele>
        <time>2020-08-14T14:03:02Z</time>
      </trkpt>
      <trkpt lat="48.81699" lon="-3.4891">
        <ele>33.6</ele>
        <time>2020-08-14T14:03:09Z</time>
      </trkpt>
      <trkpt lat="48.81704" lon="-3.48912">
        <ele>33.7</ele>
        <time>2020-08-14T14:03:10Z</time>
      </trkpt>
      <trkpt lat="48.8175" lon="-3.48913">
        <ele>34.1</ele>
        <time>2020-08-14T14:03:19Z</time>
      </trkpt>
      <trkpt lat="48.81759" lon="-3.48911">
        <ele>34.2</ele>
        <time>2020-08-14T14:03:21Z</time>
      </trkpt>
      <trkpt lat="48.8179" lon="-3.48902">
        <ele>34.5</ele>
        <time>2020-08-14T14:03:29Z</time>
      </trkpt>
      <trkpt lat="48.81798" lon="-3.48898">
        <ele>34.5</ele>
        <time>2020-08-14T14:03:31Z</time>
      </trkpt>
      <trkpt lat="48.81817" lon="-3.48893">
        <ele>34.6</ele>
        <time>2020-08-14T14:03:35Z</time>
      </trkpt>
      <trkpt lat="48.81858" lon="-3.48893">
        <ele>34.5</ele>
        <time>2020-08-14T14:03:44Z</time>
      </trkpt>
      <trkpt lat="48.81867" lon="-3.48894">
        <ele>34.4</ele>
        <time>2020-08-14T14:03:46Z</time>
      </trkpt>
      <trkpt lat="48.81887" lon="-3.48895">
        <ele>34.4</ele>
        <time>2020-08-14T14:03:50Z</time>
      </trkpt>
      <trkpt lat="48.81937" lon="-3.48906">
        <ele>32.7</ele>
        <time>2020-08-14T14:04:00Z</time>
      </trkpt>
      <trkpt lat="48.81967" lon="-3.48918">
        <ele>29.7</ele>
        <time>2020-08-14T14:04:07Z</time>
      </trkpt>
      <trkpt lat="48.81993" lon="-3.48927">
        <ele>29</ele>
        <time>2020-08-14T14:04:13Z</time>
      </trkpt>
      <trkpt lat="48.82028" lon="-3.48938">
        <ele>25.2</ele>
        <time>2020-08-14T14:04:20Z</time>
      </trkpt>
      <trkpt lat="48.82054" lon="-3.48948">
        <ele>24.1</ele>
        <time>2020-08-14T14:04:25Z</time>
      </trkpt>
      <trkpt lat="48.82085" lon="-3.48952">
        <ele>21.3</ele>
        <time>2020-08-14T14:04:30Z</time>
      </trkpt>
      <trkpt lat="48.82118" lon="-3.4895">
        <ele>20.7</ele>
        <time>2020-08-14T14:04:36Z</time>
      </trkpt>
      <trkpt lat="48.82143" lon="-3.48948">
        <ele>20.1</ele>
        <time>2020-08-14T14:04:41Z</time>
      </trkpt>
      <trkpt lat="48.82165" lon="-3.4894">
        <ele>20</ele>
        <time>2020-08-14T14:04:46Z</time>
      </trkpt>
      <trkpt lat="48.82178" lon="-3.48927">
        <ele>18.7</ele>
        <time>2020-08-14T14:04:51Z</time>
      </trkpt>
      <trkpt lat="48.82191" lon="-3.48906">
        <ele>18.3</ele>
        <time>2020-08-14T14:04:58Z</time>
      </trkpt>
      <trkpt lat="48.822" lon="-3.48885">
        <ele>17.8</ele>
        <time>2020-08-14T14:05:03Z</time>
      </trkpt>
      <trkpt lat="48.82225" lon="-3.48869">
        <ele>17.1</ele>
        <time>2020-08-14T14:05:09Z</time>
      </trkpt>
      <trkpt lat="48.82264" lon="-3.48873">
        <ele>14.7</ele>
        <time>2020-08-14T14:05:15Z</time>
      </trkpt>
      <trkpt lat="48.82313" lon="-3.48875">
        <ele>13.8</ele>
        <time>2020-08-14T14:05:21Z</time>
      </trkpt>
      <trkpt lat="48.8236" lon="-3.48872">
        <ele>11.7</ele>
        <time>2020-08-14T14:05:26Z</time>
      </trkpt>
      <trkpt lat="48.82397" lon="-3.48869">
        <ele>11.4</ele>
        <time>2020-08-14T14:05:30Z</time>
      </trkpt>
      <trkpt lat="48.8242" lon="-3.48857">
        <ele>10.5</ele>
        <time>2020-08-14T14:05:34Z</time>
      </trkpt>
      <trkpt lat="48.82428" lon="-3.48849">
        <ele>10.8</ele>
        <time>2020-08-14T14:05:36Z</time>
      </trkpt>
      <trkpt lat="48.82448" lon="-3.48827">
        <ele>12</ele>
        <time>2020-08-14T14:05:42Z</time>
      </trkpt>
      <trkpt lat="48.82454" lon="-3.48845">
        <ele>9.8</ele>
        <time>2020-08-14T14:05:46Z</time>
      </trkpt>
      <trkpt lat="48.82457" lon="-3.48849">
        <ele>9.6</ele>
        <time>2020-08-14T14:05:47Z</time>
      </trkpt>
      <trkpt lat="48.8248" lon="-3.48879">
        <ele>8.5</ele>
        <time>2020-08-14T14:05:53Z</time>
      </trkpt>
      <trkpt lat="48.82518" lon="-3.48928">
        <ele>5.6</ele>
        <time>2020-08-14T14:06:01Z</time>
      </trkpt>
      <trkpt lat="48.82526" lon="-3.48935">
        <ele>5.4</ele>
        <time>2020-08-14T14:06:03Z</time>
      </trkpt>
      <trkpt lat="48.8253" lon="-3.48936">
        <ele>5.3</ele>
        <time>2020-08-14T14:06:07Z</time>
      </trkpt>
      <trkpt lat="48.82534" lon="-3.48952">
        <ele>5.1</ele>
        <time>2020-08-14T14:06:13Z</time>
      </trkpt>
      <trkpt lat="48.82534" lon="-3.48952">
        <ele>5.1</ele>
        <time>2020-08-14T14:06:14Z</time>
      </trkpt>
      <trkpt lat="48.82536" lon="-3.48959">
        <ele>5</ele>
        <time>2020-08-14T14:06:37Z</time>
      </trkpt>
      <trkpt lat="48.82538" lon="-3.48969">
        <ele>4.9</ele>
        <time>2020-08-14T14:06:41Z</time>
      </trkpt>
      <trkpt lat="48.82542" lon="-3.48984">
        <ele>4.7</ele>
        <time>2020-08-14T14:06:47Z</time>
      </trkpt>
      <trkpt lat="48.82543" lon="-3.48991">
        <ele>4.7</ele>
        <time>2020-08-14T14:06:49Z</time>
      </trkpt>
      <trkpt lat="48.82551" lon="-3.49021">
        <ele>2.8</ele>
        <time>2020-08-14T14:06:59Z</time>
      </trkpt>
      <trkpt lat="48.82551" lon="-3.49021">
        <ele>2.8</ele>
        <time>2020-08-14T14:07:01Z</time>
      </trkpt>
      <trkpt lat="48.82552" lon="-3.49025">
        <ele>2.7</ele>
        <time>2020-08-14T14:14:50Z</time>
      </trkpt>
      <trkpt lat="48.82556" lon="-3.49045">
        <ele>2.4</ele>
        <time>2020-08-14T14:14:57Z</time>
      </trkpt>
      <trkpt lat="48.82559" lon="-3.49066">
        <ele>2.1</ele>
        <time>2020-08-14T14:15:03Z</time>
      </trkpt>
      <trkpt lat="48.82561" lon="-3.491">
        <ele>2.4</ele>
        <time>2020-08-14T14:15:13Z</time>
      </trkpt>
      <trkpt lat="48.8256" lon="-3.49122">
        <ele>2.7</ele>
        <time>2020-08-14T14:15:21Z</time>
      </trkpt>
      <trkpt lat="48.82576" lon="-3.49127">
        <ele>2.7</ele>
        <time>2020-08-14T14:15:27Z</time>
      </trkpt>
      <trkpt lat="48.82578" lon="-3.49127">
        <ele>2.7</ele>
        <time>2020-08-14T14:15:29Z</time>
      </trkpt>
      <trkpt lat="48.82585" lon="-3.49128">
        <ele>2.2</ele>
        <time>2020-08-14T14:15:36Z</time>
      </trkpt>
      <trkpt lat="48.82595" lon="-3.4913">
        <ele>2.3</ele>
        <time>2020-08-14T14:15:42Z</time>
      </trkpt>
      <trkpt lat="48.82611" lon="-3.49136">
        <ele>2.4</ele>
        <time>2020-08-14T14:15:49Z</time>
      </trkpt>
      <trkpt lat="48.82614" lon="-3.49138">
        <ele>2.4</ele>
        <time>2020-08-14T14:15:51Z</time>
      </trkpt>
      <trkpt lat="48.82617" lon="-3.4914">
        <ele>2.5</ele>
        <time>2020-08-14T14:15:55Z</time>
      </trkpt>
      <trkpt lat="48.82617" lon="-3.4914">
        <ele>2.5</ele>
        <time>2020-08-14T14:17:02Z</time>
      </trkpt>
      <trkpt lat="48.82628" lon="-3.49147">
        <ele>2.5</ele>
        <time>2020-08-14T14:17:17Z</time>
      </trkpt>
      <trkpt lat="48.82645" lon="-3.49166">
        <ele>2.7</ele>
        <time>2020-08-14T14:17:26Z</time>
      </trkpt>
      <trkpt lat="48.8266" lon="-3.49185">
        <ele>2.9</ele>
        <time>2020-08-14T14:17:33Z</time>
      </trkpt>
      <trkpt lat="48.82679" lon="-3.49208">
        <ele>3.9</ele>
        <time>2020-08-14T14:17:42Z</time>
      </trkpt>
      <trkpt lat="48.82697" lon="-3.49229">
        <ele>4</ele>
        <time>2020-08-14T14:17:51Z</time>
      </trkpt>
      <trkpt lat="48.82712" lon="-3.49245">
        <ele>4.4</ele>
        <time>2020-08-14T14:17:58Z</time>
      </trkpt>
      <trkpt lat="48.82726" lon="-3.49262">
        <ele>4.4</ele>
        <time>2020-08-14T14:18:05Z</time>
      </trkpt>
      <trkpt lat="48.82728" lon="-3.49267">
        <ele>4.4</ele>
        <time>2020-08-14T14:18:07Z</time>
      </trkpt>
      <trkpt lat="48.82723" lon="-3.49287">
        <ele>4</ele>
        <time>2020-08-14T14:18:15Z</time>
      </trkpt>
      <trkpt lat="48.82713" lon="-3.49318">
        <ele>3.7</ele>
        <time>2020-08-14T14:18:24Z</time>
      </trkpt>
      <trkpt lat="48.82704" lon="-3.49345">
        <ele>3.6</ele>
        <time>2020-08-14T14:18:32Z</time>
      </trkpt>
      <trkpt lat="48.82695" lon="-3.4937">
        <ele>3.8</ele>
        <time>2020-08-14T14:18:41Z</time>
      </trkpt>
      <trkpt lat="48.8269" lon="-3.49381">
        <ele>3.9</ele>
        <time>2020-08-14T14:18:47Z</time>
      </trkpt>
      <trkpt lat="48.82688" lon="-3.49382">
        <ele>3.9</ele>
        <time>2020-08-14T14:18:48Z</time>
      </trkpt>
      <trkpt lat="48.82686" lon="-3.49431">
        <ele>4.5</ele>
        <time>2020-08-14T14:18:54Z</time>
      </trkpt>
      <trkpt lat="48.82694" lon="-3.49472">
        <ele>4.4</ele>
        <time>2020-08-14T14:18:59Z</time>
      </trkpt>
      <trkpt lat="48.82696" lon="-3.49473">
        <ele>4.4</ele>
        <time>2020-08-14T14:19:00Z</time>
      </trkpt>
      <trkpt lat="48.82714" lon="-3.49481">
        <ele>4.3</ele>
        <time>2020-08-14T14:19:09Z</time>
      </trkpt>
      <trkpt lat="48.82734" lon="-3.49491">
        <ele>4.1</ele>
        <time>2020-08-14T14:19:17Z</time>
      </trkpt>
      <trkpt lat="48.82764" lon="-3.49506">
        <ele>3.8</ele>
        <time>2020-08-14T14:19:28Z</time>
      </trkpt>
      <trkpt lat="48.82788" lon="-3.49518">
        <ele>3.6</ele>
        <time>2020-08-14T14:19:37Z</time>
      </trkpt>
      <trkpt lat="48.8281" lon="-3.49527">
        <ele>3.5</ele>
        <time>2020-08-14T14:19:45Z</time>
      </trkpt>
      <trkpt lat="48.82821" lon="-3.49531">
        <ele>3.5</ele>
        <time>2020-08-14T14:19:50Z</time>
      </trkpt>
      <trkpt lat="48.82824" lon="-3.49534">
        <ele>3.4</ele>
        <time>2020-08-14T14:19:54Z</time>
      </trkpt>
      <trkpt lat="48.82823" lon="-3.49507">
        <ele>3.8</ele>
        <time>2020-08-14T14:20:00Z</time>
      </trkpt>
      <trkpt lat="48.82826" lon="-3.49537">
        <ele>3.4</ele>
        <time>2020-08-14T14:20:02Z</time>
      </trkpt>
      <trkpt lat="48.82826" lon="-3.49537">
        <ele>3.4</ele>
        <time>2020-08-14T14:21:02Z</time>
      </trkpt>
      <trkpt lat="48.82822" lon="-3.49517">
        <ele>3.7</ele>
        <time>2020-08-14T14:21:12Z</time>
      </trkpt>
      <trkpt lat="48.8283" lon="-3.49546">
        <ele>3.2</ele>
        <time>2020-08-14T14:21:18Z</time>
      </trkpt>
      <trkpt lat="48.82832" lon="-3.49549">
        <ele>3.2</ele>
        <time>2020-08-14T14:21:19Z</time>
      </trkpt>
      <trkpt lat="48.82842" lon="-3.49582">
        <ele>2.2</ele>
        <time>2020-08-14T14:21:28Z</time>
      </trkpt>
      <trkpt lat="48.82855" lon="-3.49609">
        <ele>3.8</ele>
        <time>2020-08-14T14:21:36Z</time>
      </trkpt>
      <trkpt lat="48.82869" lon="-3.49632">
        <ele>4.6</ele>
        <time>2020-08-14T14:21:44Z</time>
      </trkpt>
      <trkpt lat="48.82881" lon="-3.49649">
        <ele>5.3</ele>
        <time>2020-08-14T14:21:50Z</time>
      </trkpt>
      <trkpt lat="48.82896" lon="-3.49661">
        <ele>6.3</ele>
        <time>2020-08-14T14:21:56Z</time>
      </trkpt>
      <trkpt lat="48.8291" lon="-3.49664">
        <ele>7.3</ele>
        <time>2020-08-14T14:22:02Z</time>
      </trkpt>
      <trkpt lat="48.82925" lon="-3.49664">
        <ele>7.8</ele>
        <time>2020-08-14T14:22:10Z</time>
      </trkpt>
      <trkpt lat="48.82928" lon="-3.49663">
        <ele>7.7</ele>
        <time>2020-08-14T14:22:14Z</time>
      </trkpt>
      <trkpt lat="48.82928" lon="-3.49663">
        <ele>7.7</ele>
        <time>2020-08-14T14:22:31Z</time>
      </trkpt>
      <trkpt lat="48.82928" lon="-3.49663">
        <ele>7.7</ele>
        <time>2020-08-14T14:24:55Z</time>
      </trkpt>
      <trkpt lat="48.82928" lon="-3.49663">
        <ele>7.7</ele>
        <time>2020-08-14T14:24:57Z</time>
      </trkpt>
      <trkpt lat="48.82928" lon="-3.49663">
        <ele>7.7</ele>
        <time>2020-08-14T14:25:06Z</time>
      </trkpt>
      <trkpt lat="48.82928" lon="-3.49663">
        <ele>7.7</ele>
        <time>2020-08-14T14:25:09Z</time>
      </trkpt>
      <trkpt lat="48.8293" lon="-3.49664">
        <ele>7.7</ele>
        <time>2020-08-14T14:25:17Z</time>
      </trkpt>
      <trkpt lat="48.82932" lon="-3.49665">
        <ele>7.6</ele>
        <time>2020-08-14T14:25:27Z</time>
      </trkpt>
      <trkpt lat="48.82932" lon="-3.49665">
        <ele>7.6</ele>
        <time>2020-08-14T14:26:39Z</time>
      </trkpt>
      <trkpt lat="48.82932" lon="-3.49665">
        <ele>7.6</ele>
        <time>2020-08-14T14:26:43Z</time>
      </trkpt>
      <trkpt lat="48.82931" lon="-3.49665">
        <ele>7.7</ele>
        <time>2020-08-14T14:26:50Z</time>
      </trkpt>
      <trkpt lat="48.82929" lon="-3.49664">
        <ele>7.7</ele>
        <time>2020-08-14T14:26:53Z</time>
      </trkpt>
      <trkpt lat="48.82927" lon="-3.49664">
        <ele>7.7</ele>
        <time>2020-08-14T14:26:59Z</time>
      </trkpt>
      <trkpt lat="48.82923" lon="-3.49664">
        <ele>7.8</ele>
        <time>2020-08-14T14:27:08Z</time>
      </trkpt>
      <trkpt lat="48.82939" lon="-3.49669">
        <ele>7.4</ele>
        <time>2020-08-14T14:27:23Z</time>
      </trkpt>
      <trkpt lat="48.82939" lon="-3.49669">
        <ele>7.4</ele>
        <time>2020-08-14T14:27:32Z</time>
      </trkpt>
      <trkpt lat="48.82939" lon="-3.49669">
        <ele>7.4</ele>
        <time>2020-08-14T14:27:44Z</time>
      </trkpt>
      <trkpt lat="48.82928" lon="-3.49663">
        <ele>7.7</ele>
        <time>2020-08-14T14:27:49Z</time>
      </trkpt>
      <trkpt lat="48.82928" lon="-3.49663">
        <ele>7.7</ele>
        <time>2020-08-14T14:27:52Z</time>
      </trkpt>
      <trkpt lat="48.82928" lon="-3.49663">
        <ele>7.7</ele>
        <time>2020-08-14T14:28:00Z</time>
      </trkpt>
      <trkpt lat="48.82939" lon="-3.49669">
        <ele>7.4</ele>
        <time>2020-08-14T15:19:14Z</time>
      </trkpt>
      <trkpt lat="48.82939" lon="-3.49669">
        <ele>7.4</ele>
        <time>2020-08-14T15:19:18Z</time>
      </trkpt>
      <trkpt lat="48.82931" lon="-3.49631">
        <ele>7.3</ele>
        <time>2020-08-14T15:19:29Z</time>
      </trkpt>
      <trkpt lat="48.82928" lon="-3.49663">
        <ele>7.7</ele>
        <time>2020-08-14T15:19:39Z</time>
      </trkpt>
      <trkpt lat="48.82932" lon="-3.49665">
        <ele>7.6</ele>
        <time>2020-08-14T15:19:48Z</time>
      </trkpt>
      <trkpt lat="48.82932" lon="-3.49665">
        <ele>7.6</ele>
        <time>2020-08-14T15:19:49Z</time>
      </trkpt>
      <trkpt lat="48.82932" lon="-3.49665">
        <ele>7.6</ele>
        <time>2020-08-14T15:19:56Z</time>
      </trkpt>
      <trkpt lat="48.82932" lon="-3.49665">
        <ele>7.6</ele>
        <time>2020-08-14T15:20:00Z</time>
      </trkpt>
      <trkpt lat="48.82932" lon="-3.49665">
        <ele>7.6</ele>
        <time>2020-08-14T15:20:07Z</time>
      </trkpt>
      <trkpt lat="48.82932" lon="-3.49665">
        <ele>7.6</ele>
        <time>2020-08-14T15:20:08Z</time>
      </trkpt>
      <trkpt lat="48.82932" lon="-3.49665">
        <ele>7.6</ele>
        <time>2020-08-14T15:20:13Z</time>
      </trkpt>
      <trkpt lat="48.82938" lon="-3.4967">
        <ele>7.4</ele>
        <time>2020-08-14T15:24:40Z</time>
      </trkpt>
      <trkpt lat="48.82939" lon="-3.49669">
        <ele>7.4</ele>
        <time>2020-08-14T15:25:06Z</time>
      </trkpt>
      <trkpt lat="48.82934" lon="-3.4968">
        <ele>7.4</ele>
        <time>2020-08-14T15:25:11Z</time>
      </trkpt>
      <trkpt lat="48.82931" lon="-3.49693">
        <ele>7.3</ele>
        <time>2020-08-14T15:25:16Z</time>
      </trkpt>
      <trkpt lat="48.82927" lon="-3.49708">
        <ele>7.2</ele>
        <time>2020-08-14T15:25:23Z</time>
      </trkpt>
      <trkpt lat="48.82923" lon="-3.49727">
        <ele>7.1</ele>
        <time>2020-08-14T15:25:30Z</time>
      </trkpt>
      <trkpt lat="48.8292" lon="-3.49744">
        <ele>7</ele>
        <time>2020-08-14T15:25:36Z</time>
      </trkpt>
      <trkpt lat="48.82921" lon="-3.49777">
        <ele>6</ele>
        <time>2020-08-14T15:25:44Z</time>
      </trkpt>
      <trkpt lat="48.82927" lon="-3.4979">
        <ele>5.6</ele>
        <time>2020-08-14T15:25:50Z</time>
      </trkpt>
      <trkpt lat="48.82931" lon="-3.49822">
        <ele>4.6</ele>
        <time>2020-08-14T15:25:59Z</time>
      </trkpt>
      <trkpt lat="48.82936" lon="-3.49849">
        <ele>4.3</ele>
        <time>2020-08-14T15:26:06Z</time>
      </trkpt>
      <trkpt lat="48.82935" lon="-3.49865">
        <ele>4.4</ele>
        <time>2020-08-14T15:26:13Z</time>
      </trkpt>
      <trkpt lat="48.82935" lon="-3.49865">
        <ele>4.4</ele>
        <time>2020-08-14T15:26:14Z</time>
      </trkpt>
      <trkpt lat="48.82929" lon="-3.49869">
        <ele>4.4</ele>
        <time>2020-08-14T15:26:38Z</time>
      </trkpt>
      <trkpt lat="48.82908" lon="-3.49868">
        <ele>4.8</ele>
        <time>2020-08-14T15:26:47Z</time>
      </trkpt>
      <trkpt lat="48.82895" lon="-3.49868">
        <ele>4.9</ele>
        <time>2020-08-14T15:26:53Z</time>
      </trkpt>
      <trkpt lat="48.82873" lon="-3.49871">
        <ele>5</ele>
        <time>2020-08-14T15:27:02Z</time>
      </trkpt>
      <trkpt lat="48.82862" lon="-3.49872">
        <ele>5.1</ele>
        <time>2020-08-14T15:27:07Z</time>
      </trkpt>
      <trkpt lat="48.82845" lon="-3.49877">
        <ele>5.1</ele>
        <time>2020-08-14T15:27:14Z</time>
      </trkpt>
      <trkpt lat="48.82827" lon="-3.49885">
        <ele>5.7</ele>
        <time>2020-08-14T15:27:22Z</time>
      </trkpt>
      <trkpt lat="48.82812" lon="-3.49893">
        <ele>5.7</ele>
        <time>2020-08-14T15:27:29Z</time>
      </trkpt>
      <trkpt lat="48.82792" lon="-3.49903">
        <ele>5.7</ele>
        <time>2020-08-14T15:27:37Z</time>
      </trkpt>
      <trkpt lat="48.82776" lon="-3.49909">
        <ele>5.6</ele>
        <time>2020-08-14T15:27:44Z</time>
      </trkpt>
      <trkpt lat="48.82759" lon="-3.49909">
        <ele>5.4</ele>
        <time>2020-08-14T15:27:50Z</time>
      </trkpt>
      <trkpt lat="48.82737" lon="-3.49909">
        <ele>5.6</ele>
        <time>2020-08-14T15:27:57Z</time>
      </trkpt>
      <trkpt lat="48.82714" lon="-3.49908">
        <ele>5.8</ele>
        <time>2020-08-14T15:28:05Z</time>
      </trkpt>
      <trkpt lat="48.82697" lon="-3.49907">
        <ele>5.8</ele>
        <time>2020-08-14T15:28:11Z</time>
      </trkpt>
      <trkpt lat="48.82674" lon="-3.49903">
        <ele>5.6</ele>
        <time>2020-08-14T15:28:20Z</time>
      </trkpt>
      <trkpt lat="48.82654" lon="-3.49898">
        <ele>5.4</ele>
        <time>2020-08-14T15:28:28Z</time>
      </trkpt>
      <trkpt lat="48.82636" lon="-3.49886">
        <ele>5.5</ele>
        <time>2020-08-14T15:28:37Z</time>
      </trkpt>
      <trkpt lat="48.82626" lon="-3.4988">
        <ele>5.5</ele>
        <time>2020-08-14T15:28:44Z</time>
      </trkpt>
      <trkpt lat="48.82621" lon="-3.49882">
        <ele>5.4</ele>
        <time>2020-08-14T15:28:47Z</time>
      </trkpt>
      <trkpt lat="48.82616" lon="-3.49892">
        <ele>5.4</ele>
        <time>2020-08-14T15:28:53Z</time>
      </trkpt>
      <trkpt lat="48.82611" lon="-3.49904">
        <ele>5.3</ele>
        <time>2020-08-14T15:29:01Z</time>
      </trkpt>
      <trkpt lat="48.82603" lon="-3.49924">
        <ele>5</ele>
        <time>2020-08-14T15:29:09Z</time>
      </trkpt>
      <trkpt lat="48.82593" lon="-3.49948">
        <ele>5</ele>
        <time>2020-08-14T15:29:18Z</time>
      </trkpt>
      <trkpt lat="48.82584" lon="-3.49974">
        <ele>5</ele>
        <time>2020-08-14T15:29:27Z</time>
      </trkpt>
      <trkpt lat="48.82579" lon="-3.49999">
        <ele>4.4</ele>
        <time>2020-08-14T15:29:34Z</time>
      </trkpt>
      <trkpt lat="48.82574" lon="-3.50038">
        <ele>2.5</ele>
        <time>2020-08-14T15:29:41Z</time>
      </trkpt>
      <trkpt lat="48.82566" lon="-3.50035">
        <ele>2.6</ele>
        <time>2020-08-14T15:29:45Z</time>
      </trkpt>
      <trkpt lat="48.82541" lon="-3.50029">
        <ele>2.7</ele>
        <time>2020-08-14T15:29:54Z</time>
      </trkpt>
      <trkpt lat="48.82516" lon="-3.50031">
        <ele>2.8</ele>
        <time>2020-08-14T15:30:03Z</time>
      </trkpt>
      <trkpt lat="48.82485" lon="-3.50041">
        <ele>3.4</ele>
        <time>2020-08-14T15:30:14Z</time>
      </trkpt>
      <trkpt lat="48.82468" lon="-3.5005">
        <ele>3.5</ele>
        <time>2020-08-14T15:30:20Z</time>
      </trkpt>
      <trkpt lat="48.82451" lon="-3.50066">
        <ele>3.7</ele>
        <time>2020-08-14T15:30:28Z</time>
      </trkpt>
      <trkpt lat="48.82437" lon="-3.50069">
        <ele>4.1</ele>
        <time>2020-08-14T15:30:35Z</time>
      </trkpt>
      <trkpt lat="48.8243" lon="-3.50069">
        <ele>4.3</ele>
        <time>2020-08-14T15:30:38Z</time>
      </trkpt>
      <trkpt lat="48.82409" lon="-3.5005">
        <ele>5.3</ele>
        <time>2020-08-14T15:30:46Z</time>
      </trkpt>
      <trkpt lat="48.82405" lon="-3.50031">
        <ele>5.3</ele>
        <time>2020-08-14T15:30:52Z</time>
      </trkpt>
      <trkpt lat="48.82389" lon="-3.50023">
        <ele>5.4</ele>
        <time>2020-08-14T15:30:58Z</time>
      </trkpt>
      <trkpt lat="48.8236" lon="-3.50024">
        <ele>5.6</ele>
        <time>2020-08-14T15:31:06Z</time>
      </trkpt>
      <trkpt lat="48.82358" lon="-3.50038">
        <ele>5.6</ele>
        <time>2020-08-14T15:31:10Z</time>
      </trkpt>
      <trkpt lat="48.82358" lon="-3.50038">
        <ele>5.6</ele>
        <time>2020-08-14T15:31:24Z</time>
      </trkpt>
      <trkpt lat="48.82358" lon="-3.50033">
        <ele>5.6</ele>
        <time>2020-08-14T15:31:28Z</time>
      </trkpt>
      <trkpt lat="48.82349" lon="-3.50036">
        <ele>5.6</ele>
        <time>2020-08-14T15:31:35Z</time>
      </trkpt>
      <trkpt lat="48.82334" lon="-3.50042">
        <ele>5.7</ele>
        <time>2020-08-14T15:31:41Z</time>
      </trkpt>
      <trkpt lat="48.8231" lon="-3.50052">
        <ele>6</ele>
        <time>2020-08-14T15:31:51Z</time>
      </trkpt>
      <trkpt lat="48.8229" lon="-3.50061">
        <ele>6</ele>
        <time>2020-08-14T15:31:59Z</time>
      </trkpt>
      <trkpt lat="48.82269" lon="-3.5007">
        <ele>6</ele>
        <time>2020-08-14T15:32:07Z</time>
      </trkpt>
      <trkpt lat="48.8225" lon="-3.50077">
        <ele>6.1</ele>
        <time>2020-08-14T15:32:14Z</time>
      </trkpt>
      <trkpt lat="48.82227" lon="-3.50085">
        <ele>6.6</ele>
        <time>2020-08-14T15:32:22Z</time>
      </trkpt>
      <trkpt lat="48.82195" lon="-3.50098">
        <ele>6.9</ele>
        <time>2020-08-14T15:32:33Z</time>
      </trkpt>
      <trkpt lat="48.82169" lon="-3.50107">
        <ele>7.1</ele>
        <time>2020-08-14T15:32:42Z</time>
      </trkpt>
      <trkpt lat="48.82155" lon="-3.50111">
        <ele>7.9</ele>
        <time>2020-08-14T15:32:47Z</time>
      </trkpt>
      <trkpt lat="48.82139" lon="-3.50112">
        <ele>8.1</ele>
        <time>2020-08-14T15:32:53Z</time>
      </trkpt>
      <trkpt lat="48.82115" lon="-3.5011">
        <ele>8.3</ele>
        <time>2020-08-14T15:33:02Z</time>
      </trkpt>
      <trkpt lat="48.82093" lon="-3.50108">
        <ele>8.5</ele>
        <time>2020-08-14T15:33:10Z</time>
      </trkpt>
      <trkpt lat="48.82058" lon="-3.501">
        <ele>10.7</ele>
        <time>2020-08-14T15:33:23Z</time>
      </trkpt>
      <trkpt lat="48.82034" lon="-3.50092">
        <ele>11.7</ele>
        <time>2020-08-14T15:33:33Z</time>
      </trkpt>
      <trkpt lat="48.82014" lon="-3.50086">
        <ele>12.8</ele>
        <time>2020-08-14T15:33:42Z</time>
      </trkpt>
      <trkpt lat="48.82001" lon="-3.50082">
        <ele>13.9</ele>
        <time>2020-08-14T15:33:49Z</time>
      </trkpt>
      <trkpt lat="48.81985" lon="-3.50074">
        <ele>15.4</ele>
        <time>2020-08-14T15:33:57Z</time>
      </trkpt>
      <trkpt lat="48.81964" lon="-3.50064">
        <ele>16.4</ele>
        <time>2020-08-14T15:34:07Z</time>
      </trkpt>
      <trkpt lat="48.81947" lon="-3.50057">
        <ele>16.9</ele>
        <time>2020-08-14T15:34:16Z</time>
      </trkpt>
      <trkpt lat="48.81932" lon="-3.5005">
        <ele>17.3</ele>
        <time>2020-08-14T15:34:24Z</time>
      </trkpt>
      <trkpt lat="48.81916" lon="-3.50057">
        <ele>19.8</ele>
        <time>2020-08-14T15:34:32Z</time>
      </trkpt>
      <trkpt lat="48.81903" lon="-3.50064">
        <ele>19.8</ele>
        <time>2020-08-14T15:34:39Z</time>
      </trkpt>
      <trkpt lat="48.81887" lon="-3.50085">
        <ele>19.6</ele>
        <time>2020-08-14T15:34:48Z</time>
      </trkpt>
      <trkpt lat="48.8188" lon="-3.50103">
        <ele>19.9</ele>
        <time>2020-08-14T15:34:54Z</time>
      </trkpt>
      <trkpt lat="48.8188" lon="-3.50106">
        <ele>19.9</ele>
        <time>2020-08-14T15:34:55Z</time>
      </trkpt>
      <trkpt lat="48.81877" lon="-3.50129">
        <ele>20</ele>
        <time>2020-08-14T15:35:03Z</time>
      </trkpt>
      <trkpt lat="48.81876" lon="-3.50148">
        <ele>20</ele>
        <time>2020-08-14T15:35:10Z</time>
      </trkpt>
      <trkpt lat="48.81876" lon="-3.50167">
        <ele>19.7</ele>
        <time>2020-08-14T15:35:18Z</time>
      </trkpt>
      <trkpt lat="48.81876" lon="-3.50178">
        <ele>19.6</ele>
        <time>2020-08-14T15:35:25Z</time>
      </trkpt>
      <trkpt lat="48.81871" lon="-3.50184">
        <ele>19.7</ele>
        <time>2020-08-14T15:35:30Z</time>
      </trkpt>
      <trkpt lat="48.8186" lon="-3.50188">
        <ele>19.8</ele>
        <time>2020-08-14T15:35:37Z</time>
      </trkpt>
      <trkpt lat="48.81855" lon="-3.50199">
        <ele>19.8</ele>
        <time>2020-08-14T15:35:43Z</time>
      </trkpt>
      <trkpt lat="48.81848" lon="-3.5021">
        <ele>19.8</ele>
        <time>2020-08-14T15:35:49Z</time>
      </trkpt>
      <trkpt lat="48.8184" lon="-3.50224">
        <ele>19.8</ele>
        <time>2020-08-14T15:35:57Z</time>
      </trkpt>
      <trkpt lat="48.81835" lon="-3.50236">
        <ele>19.8</ele>
        <time>2020-08-14T15:36:03Z</time>
      </trkpt>
      <trkpt lat="48.81828" lon="-3.50249">
        <ele>20.1</ele>
        <time>2020-08-14T15:36:08Z</time>
      </trkpt>
      <trkpt lat="48.81812" lon="-3.5026">
        <ele>19.2</ele>
        <time>2020-08-14T15:36:14Z</time>
      </trkpt>
      <trkpt lat="48.81789" lon="-3.50278">
        <ele>18.9</ele>
        <time>2020-08-14T15:36:22Z</time>
      </trkpt>
      <trkpt lat="48.81783" lon="-3.50284">
        <ele>18.8</ele>
        <time>2020-08-14T15:36:24Z</time>
      </trkpt>
      <trkpt lat="48.81777" lon="-3.50294">
        <ele>18.7</ele>
        <time>2020-08-14T15:36:26Z</time>
      </trkpt>
      <trkpt lat="48.81768" lon="-3.5032">
        <ele>18.4</ele>
        <time>2020-08-14T15:36:30Z</time>
      </trkpt>
      <trkpt lat="48.81765" lon="-3.50381">
        <ele>16.4</ele>
        <time>2020-08-14T15:36:38Z</time>
      </trkpt>
      <trkpt lat="48.81772" lon="-3.50447">
        <ele>14.4</ele>
        <time>2020-08-14T15:36:47Z</time>
      </trkpt>
      <trkpt lat="48.81774" lon="-3.50461">
        <ele>14.3</ele>
        <time>2020-08-14T15:36:49Z</time>
      </trkpt>
      <trkpt lat="48.81782" lon="-3.50495">
        <ele>14</ele>
        <time>2020-08-14T15:36:54Z</time>
      </trkpt>
      <trkpt lat="48.81785" lon="-3.50497">
        <ele>14</ele>
        <time>2020-08-14T15:36:55Z</time>
      </trkpt>
      <trkpt lat="48.81808" lon="-3.50524">
        <ele>13.4</ele>
        <time>2020-08-14T15:37:04Z</time>
      </trkpt>
      <trkpt lat="48.8182" lon="-3.50547">
        <ele>13.3</ele>
        <time>2020-08-14T15:37:10Z</time>
      </trkpt>
      <trkpt lat="48.81828" lon="-3.50559">
        <ele>13.3</ele>
        <time>2020-08-14T15:37:13Z</time>
      </trkpt>
      <trkpt lat="48.81827" lon="-3.50585">
        <ele>13.1</ele>
        <time>2020-08-14T15:37:19Z</time>
      </trkpt>
      <trkpt lat="48.8182" lon="-3.50641">
        <ele>13.3</ele>
        <time>2020-08-14T15:37:29Z</time>
      </trkpt>
      <trkpt lat="48.81815" lon="-3.50688">
        <ele>13.7</ele>
        <time>2020-08-14T15:37:38Z</time>
      </trkpt>
      <trkpt lat="48.81811" lon="-3.50731">
        <ele>14</ele>
        <time>2020-08-14T15:37:47Z</time>
      </trkpt>
      <trkpt lat="48.81809" lon="-3.50747">
        <ele>14.1</ele>
        <time>2020-08-14T15:37:53Z</time>
      </trkpt>
      <trkpt lat="48.81807" lon="-3.50767">
        <ele>14.5</ele>
        <time>2020-08-14T15:37:59Z</time>
      </trkpt>
      <trkpt lat="48.81803" lon="-3.50804">
        <ele>14.7</ele>
        <time>2020-08-14T15:38:07Z</time>
      </trkpt>
      <trkpt lat="48.818" lon="-3.50832">
        <ele>14.7</ele>
        <time>2020-08-14T15:38:13Z</time>
      </trkpt>
      <trkpt lat="48.81795" lon="-3.50885">
        <ele>15.3</ele>
        <time>2020-08-14T15:38:23Z</time>
      </trkpt>
      <trkpt lat="48.81792" lon="-3.50925">
        <ele>14.5</ele>
        <time>2020-08-14T15:38:30Z</time>
      </trkpt>
      <trkpt lat="48.81786" lon="-3.50989">
        <ele>13.6</ele>
        <time>2020-08-14T15:38:42Z</time>
      </trkpt>
      <trkpt lat="48.81778" lon="-3.51049">
        <ele>12.3</ele>
        <time>2020-08-14T15:38:53Z</time>
      </trkpt>
      <trkpt lat="48.81764" lon="-3.51089">
        <ele>12.2</ele>
        <time>2020-08-14T15:39:01Z</time>
      </trkpt>
      <trkpt lat="48.81744" lon="-3.51136">
        <ele>12.1</ele>
        <time>2020-08-14T15:39:11Z</time>
      </trkpt>
      <trkpt lat="48.8174" lon="-3.51184">
        <ele>12.2</ele>
        <time>2020-08-14T15:39:20Z</time>
      </trkpt>
      <trkpt lat="48.81742" lon="-3.51231">
        <ele>12.6</ele>
        <time>2020-08-14T15:39:29Z</time>
      </trkpt>
      <trkpt lat="48.81745" lon="-3.51282">
        <ele>12.4</ele>
        <time>2020-08-14T15:39:38Z</time>
      </trkpt>
      <trkpt lat="48.81742" lon="-3.51323">
        <ele>12.1</ele>
        <time>2020-08-14T15:39:45Z</time>
      </trkpt>
      <trkpt lat="48.81734" lon="-3.51374">
        <ele>12</ele>
        <time>2020-08-14T15:39:54Z</time>
      </trkpt>
      <trkpt lat="48.81728" lon="-3.51423">
        <ele>11.7</ele>
        <time>2020-08-14T15:40:03Z</time>
      </trkpt>
      <trkpt lat="48.81728" lon="-3.51435">
        <ele>11.7</ele>
        <time>2020-08-14T15:40:05Z</time>
      </trkpt>
      <trkpt lat="48.81729" lon="-3.51483">
        <ele>11.3</ele>
        <time>2020-08-14T15:40:13Z</time>
      </trkpt>
      <trkpt lat="48.81713" lon="-3.515">
        <ele>11.3</ele>
        <time>2020-08-14T15:40:19Z</time>
      </trkpt>
      <trkpt lat="48.81688" lon="-3.51524">
        <ele>11.4</ele>
        <time>2020-08-14T15:40:27Z</time>
      </trkpt>
      <trkpt lat="48.81673" lon="-3.51536">
        <ele>11.6</ele>
        <time>2020-08-14T15:40:31Z</time>
      </trkpt>
      <trkpt lat="48.81643" lon="-3.51564">
        <ele>12.2</ele>
        <time>2020-08-14T15:40:40Z</time>
      </trkpt>
      <trkpt lat="48.81614" lon="-3.51576">
        <ele>12.1</ele>
        <time>2020-08-14T15:40:48Z</time>
      </trkpt>
      <trkpt lat="48.81585" lon="-3.5159">
        <ele>12.1</ele>
        <time>2020-08-14T15:40:57Z</time>
      </trkpt>
      <trkpt lat="48.81563" lon="-3.5161">
        <ele>13</ele>
        <time>2020-08-14T15:41:05Z</time>
      </trkpt>
      <trkpt lat="48.81544" lon="-3.51633">
        <ele>13.3</ele>
        <time>2020-08-14T15:41:13Z</time>
      </trkpt>
      <trkpt lat="48.81523" lon="-3.51662">
        <ele>13.5</ele>
        <time>2020-08-14T15:41:23Z</time>
      </trkpt>
      <trkpt lat="48.81497" lon="-3.51699">
        <ele>14.8</ele>
        <time>2020-08-14T15:41:35Z</time>
      </trkpt>
      <trkpt lat="48.81483" lon="-3.51717">
        <ele>14.9</ele>
        <time>2020-08-14T15:41:42Z</time>
      </trkpt>
      <trkpt lat="48.81463" lon="-3.51746">
        <ele>15.1</ele>
        <time>2020-08-14T15:41:51Z</time>
      </trkpt>
      <trkpt lat="48.81443" lon="-3.51777">
        <ele>15.8</ele>
        <time>2020-08-14T15:42:01Z</time>
      </trkpt>
      <trkpt lat="48.81422" lon="-3.51808">
        <ele>16.2</ele>
        <time>2020-08-14T15:42:11Z</time>
      </trkpt>
      <trkpt lat="48.814" lon="-3.51829">
        <ele>17.1</ele>
        <time>2020-08-14T15:42:21Z</time>
      </trkpt>
      <trkpt lat="48.81382" lon="-3.51843">
        <ele>17.4</ele>
        <time>2020-08-14T15:42:29Z</time>
      </trkpt>
      <trkpt lat="48.81362" lon="-3.51857">
        <ele>17.6</ele>
        <time>2020-08-14T15:42:38Z</time>
      </trkpt>
      <trkpt lat="48.8134" lon="-3.51872">
        <ele>17.8</ele>
        <time>2020-08-14T15:42:48Z</time>
      </trkpt>
      <trkpt lat="48.81317" lon="-3.51886">
        <ele>19.3</ele>
        <time>2020-08-14T15:42:58Z</time>
      </trkpt>
      <trkpt lat="48.81298" lon="-3.51894">
        <ele>19.6</ele>
        <time>2020-08-14T15:43:06Z</time>
      </trkpt>
      <trkpt lat="48.81275" lon="-3.51902">
        <ele>20.2</ele>
        <time>2020-08-14T15:43:15Z</time>
      </trkpt>
      <trkpt lat="48.81262" lon="-3.51907">
        <ele>20.8</ele>
        <time>2020-08-14T15:43:21Z</time>
      </trkpt>
      <trkpt lat="48.81245" lon="-3.51914">
        <ele>21.9</ele>
        <time>2020-08-14T15:43:28Z</time>
      </trkpt>
      <trkpt lat="48.81217" lon="-3.51927">
        <ele>23.3</ele>
        <time>2020-08-14T15:43:41Z</time>
      </trkpt>
      <trkpt lat="48.81208" lon="-3.51931">
        <ele>23.5</ele>
        <time>2020-08-14T15:43:46Z</time>
      </trkpt>
      <trkpt lat="48.81194" lon="-3.51937">
        <ele>23.8</ele>
        <time>2020-08-14T15:43:55Z</time>
      </trkpt>
      <trkpt lat="48.8118" lon="-3.51943">
        <ele>24</ele>
        <time>2020-08-14T15:44:04Z</time>
      </trkpt>
      <trkpt lat="48.81164" lon="-3.51953">
        <ele>26.6</ele>
        <time>2020-08-14T15:44:15Z</time>
      </trkpt>
      <trkpt lat="48.81154" lon="-3.51959">
        <ele>26.9</ele>
        <time>2020-08-14T15:44:22Z</time>
      </trkpt>
      <trkpt lat="48.81141" lon="-3.51967">
        <ele>27.3</ele>
        <time>2020-08-14T15:44:31Z</time>
      </trkpt>
      <trkpt lat="48.8113" lon="-3.51973">
        <ele>27.8</ele>
        <time>2020-08-14T15:44:40Z</time>
      </trkpt>
      <trkpt lat="48.8112" lon="-3.51977">
        <ele>28.2</ele>
        <time>2020-08-14T15:44:48Z</time>
      </trkpt>
      <trkpt lat="48.8111" lon="-3.51979">
        <ele>28.7</ele>
        <time>2020-08-14T15:44:55Z</time>
      </trkpt>
      <trkpt lat="48.81101" lon="-3.5198">
        <ele>29.2</ele>
        <time>2020-08-14T15:45:01Z</time>
      </trkpt>
      <trkpt lat="48.81094" lon="-3.51981">
        <ele>29.5</ele>
        <time>2020-08-14T15:45:06Z</time>
      </trkpt>
      <trkpt lat="48.81081" lon="-3.51995">
        <ele>32.1</ele>
        <time>2020-08-14T15:45:13Z</time>
      </trkpt>
      <trkpt lat="48.81082" lon="-3.52">
        <ele>32.1</ele>
        <time>2020-08-14T15:45:15Z</time>
      </trkpt>
      <trkpt lat="48.81084" lon="-3.52031">
        <ele>30.2</ele>
        <time>2020-08-14T15:45:25Z</time>
      </trkpt>
      <trkpt lat="48.81083" lon="-3.52049">
        <ele>32.3</ele>
        <time>2020-08-14T15:45:30Z</time>
      </trkpt>
      <trkpt lat="48.81081" lon="-3.52076">
        <ele>31.5</ele>
        <time>2020-08-14T15:45:35Z</time>
      </trkpt>
      <trkpt lat="48.81075" lon="-3.52142">
        <ele>30.5</ele>
        <time>2020-08-14T15:45:45Z</time>
      </trkpt>
      <trkpt lat="48.81073" lon="-3.52172">
        <ele>29.5</ele>
        <time>2020-08-14T15:45:51Z</time>
      </trkpt>
      <trkpt lat="48.8107" lon="-3.5221">
        <ele>28.8</ele>
        <time>2020-08-14T15:45:59Z</time>
      </trkpt>
      <trkpt lat="48.81066" lon="-3.52256">
        <ele>27.9</ele>
        <time>2020-08-14T15:46:07Z</time>
      </trkpt>
      <trkpt lat="48.81063" lon="-3.5231">
        <ele>27.1</ele>
        <time>2020-08-14T15:46:14Z</time>
      </trkpt>
      <trkpt lat="48.8105" lon="-3.5239">
        <ele>24.4</ele>
        <time>2020-08-14T15:46:23Z</time>
      </trkpt>
      <trkpt lat="48.81044" lon="-3.52423">
        <ele>21.7</ele>
        <time>2020-08-14T15:46:28Z</time>
      </trkpt>
      <trkpt lat="48.8104" lon="-3.52465">
        <ele>20.8</ele>
        <time>2020-08-14T15:46:34Z</time>
      </trkpt>
      <trkpt lat="48.81041" lon="-3.52504">
        <ele>17.9</ele>
        <time>2020-08-14T15:46:40Z</time>
      </trkpt>
      <trkpt lat="48.81042" lon="-3.52523">
        <ele>17.6</ele>
        <time>2020-08-14T15:46:46Z</time>
      </trkpt>
      <trkpt lat="48.81035" lon="-3.5253">
        <ele>17.5</ele>
        <time>2020-08-14T15:46:50Z</time>
      </trkpt>
      <trkpt lat="48.81011" lon="-3.52539">
        <ele>17.4</ele>
        <time>2020-08-14T15:46:55Z</time>
      </trkpt>
      <trkpt lat="48.80978" lon="-3.52531">
        <ele>19</ele>
        <time>2020-08-14T15:47:01Z</time>
      </trkpt>
      <trkpt lat="48.80953" lon="-3.5253">
        <ele>19.5</ele>
        <time>2020-08-14T15:47:07Z</time>
      </trkpt>
      <trkpt lat="48.80928" lon="-3.52547">
        <ele>19.8</ele>
        <time>2020-08-14T15:47:15Z</time>
      </trkpt>
      <trkpt lat="48.80908" lon="-3.52561">
        <ele>23.2</ele>
        <time>2020-08-14T15:47:22Z</time>
      </trkpt>
      <trkpt lat="48.80881" lon="-3.52577">
        <ele>24.4</ele>
        <time>2020-08-14T15:47:32Z</time>
      </trkpt>
      <trkpt lat="48.80871" lon="-3.52587">
        <ele>25.4</ele>
        <time>2020-08-14T15:47:38Z</time>
      </trkpt>
      <trkpt lat="48.80858" lon="-3.526">
        <ele>26.2</ele>
        <time>2020-08-14T15:47:46Z</time>
      </trkpt>
      <trkpt lat="48.80846" lon="-3.52616">
        <ele>26.5</ele>
        <time>2020-08-14T15:47:54Z</time>
      </trkpt>
      <trkpt lat="48.80838" lon="-3.52638">
        <ele>26.8</ele>
        <time>2020-08-14T15:48:02Z</time>
      </trkpt>
      <trkpt lat="48.80835" lon="-3.52654">
        <ele>27.6</ele>
        <time>2020-08-14T15:48:07Z</time>
      </trkpt>
      <trkpt lat="48.8083" lon="-3.52671">
        <ele>29.4</ele>
        <time>2020-08-14T15:48:14Z</time>
      </trkpt>
      <trkpt lat="48.80823" lon="-3.52688">
        <ele>30.2</ele>
        <time>2020-08-14T15:48:22Z</time>
      </trkpt>
      <trkpt lat="48.80817" lon="-3.52699">
        <ele>30.5</ele>
        <time>2020-08-14T15:48:28Z</time>
      </trkpt>
      <trkpt lat="48.80808" lon="-3.52712">
        <ele>30.7</ele>
        <time>2020-08-14T15:48:35Z</time>
      </trkpt>
      <trkpt lat="48.80802" lon="-3.52725">
        <ele>30.8</ele>
        <time>2020-08-14T15:48:41Z</time>
      </trkpt>
      <trkpt lat="48.80801" lon="-3.52727">
        <ele>30.8</ele>
        <time>2020-08-14T15:48:42Z</time>
      </trkpt>
      <trkpt lat="48.80798" lon="-3.52739">
        <ele>30.9</ele>
        <time>2020-08-14T15:48:47Z</time>
      </trkpt>
      <trkpt lat="48.80783" lon="-3.52736">
        <ele>31.2</ele>
        <time>2020-08-14T15:48:55Z</time>
      </trkpt>
      <trkpt lat="48.80771" lon="-3.52721">
        <ele>31.3</ele>
        <time>2020-08-14T15:49:03Z</time>
      </trkpt>
      <trkpt lat="48.8077" lon="-3.5272">
        <ele>31.3</ele>
        <time>2020-08-14T15:49:05Z</time>
      </trkpt>
      <trkpt lat="48.80767" lon="-3.52716">
        <ele>31.4</ele>
        <time>2020-08-14T15:50:34Z</time>
      </trkpt>
      <trkpt lat="48.80756" lon="-3.52702">
        <ele>31.6</ele>
        <time>2020-08-14T15:50:41Z</time>
      </trkpt>
      <trkpt lat="48.80741" lon="-3.52683">
        <ele>32.5</ele>
        <time>2020-08-14T15:50:49Z</time>
      </trkpt>
      <trkpt lat="48.80722" lon="-3.52659">
        <ele>34.1</ele>
        <time>2020-08-14T15:50:58Z</time>
      </trkpt>
      <trkpt lat="48.807" lon="-3.52646">
        <ele>34.5</ele>
        <time>2020-08-14T15:51:06Z</time>
      </trkpt>
      <trkpt lat="48.8068" lon="-3.52632">
        <ele>34.9</ele>
        <time>2020-08-14T15:51:15Z</time>
      </trkpt>
      <trkpt lat="48.80667" lon="-3.52624">
        <ele>35.3</ele>
        <time>2020-08-14T15:51:20Z</time>
      </trkpt>
      <trkpt lat="48.80643" lon="-3.52611">
        <ele>36.2</ele>
        <time>2020-08-14T15:51:29Z</time>
      </trkpt>
      <trkpt lat="48.80622" lon="-3.52601">
        <ele>36.2</ele>
        <time>2020-08-14T15:51:37Z</time>
      </trkpt>
      <trkpt lat="48.80608" lon="-3.52596">
        <ele>36.3</ele>
        <time>2020-08-14T15:51:42Z</time>
      </trkpt>
      <trkpt lat="48.80592" lon="-3.52595">
        <ele>36.5</ele>
        <time>2020-08-14T15:51:47Z</time>
      </trkpt>
      <trkpt lat="48.80581" lon="-3.52594">
        <ele>36.3</ele>
        <time>2020-08-14T15:51:53Z</time>
      </trkpt>
      <trkpt lat="48.8058" lon="-3.52594">
        <ele>36.3</ele>
        <time>2020-08-14T15:51:55Z</time>
      </trkpt>
      <trkpt lat="48.8057" lon="-3.52608">
        <ele>35.6</ele>
        <time>2020-08-14T15:52:07Z</time>
      </trkpt>
      <trkpt lat="48.80566" lon="-3.52626">
        <ele>35.1</ele>
        <time>2020-08-14T15:52:12Z</time>
      </trkpt>
      <trkpt lat="48.80552" lon="-3.52642">
        <ele>34.7</ele>
        <time>2020-08-14T15:52:18Z</time>
      </trkpt>
      <trkpt lat="48.80546" lon="-3.5265">
        <ele>34.5</ele>
        <time>2020-08-14T15:52:20Z</time>
      </trkpt>
      <trkpt lat="48.80532" lon="-3.52674">
        <ele>31.4</ele>
        <time>2020-08-14T15:52:24Z</time>
      </trkpt>
      <trkpt lat="48.80519" lon="-3.52712">
        <ele>30.4</ele>
        <time>2020-08-14T15:52:28Z</time>
      </trkpt>
      <trkpt lat="48.80512" lon="-3.52743">
        <ele>29.1</ele>
        <time>2020-08-14T15:52:32Z</time>
      </trkpt>
      <trkpt lat="48.80501" lon="-3.52745">
        <ele>28.5</ele>
        <time>2020-08-14T15:52:34Z</time>
      </trkpt>
      <trkpt lat="48.8049" lon="-3.52738">
        <ele>28.8</ele>
        <time>2020-08-14T15:52:36Z</time>
      </trkpt>
      <trkpt lat="48.80455" lon="-3.52725">
        <ele>29.3</ele>
        <time>2020-08-14T15:52:42Z</time>
      </trkpt>
      <trkpt lat="48.80424" lon="-3.52723">
        <ele>29</ele>
        <time>2020-08-14T15:52:48Z</time>
      </trkpt>
      <trkpt lat="48.80394" lon="-3.52723">
        <ele>29.9</ele>
        <time>2020-08-14T15:52:56Z</time>
      </trkpt>
      <trkpt lat="48.8037" lon="-3.52725">
        <ele>30.4</ele>
        <time>2020-08-14T15:53:03Z</time>
      </trkpt>
      <trkpt lat="48.80359" lon="-3.52728">
        <ele>30.5</ele>
        <time>2020-08-14T15:53:06Z</time>
      </trkpt>
      <trkpt lat="48.80324" lon="-3.52757">
        <ele>29.7</ele>
        <time>2020-08-14T15:53:15Z</time>
      </trkpt>
      <trkpt lat="48.80299" lon="-3.52778">
        <ele>29.4</ele>
        <time>2020-08-14T15:53:21Z</time>
      </trkpt>
      <trkpt lat="48.80265" lon="-3.52805">
        <ele>29.3</ele>
        <time>2020-08-14T15:53:29Z</time>
      </trkpt>
      <trkpt lat="48.80248" lon="-3.52813">
        <ele>31</ele>
        <time>2020-08-14T15:53:33Z</time>
      </trkpt>
      <trkpt lat="48.80218" lon="-3.52818">
        <ele>31.9</ele>
        <time>2020-08-14T15:53:40Z</time>
      </trkpt>
      <trkpt lat="48.802" lon="-3.52809">
        <ele>32.6</ele>
        <time>2020-08-14T15:53:45Z</time>
      </trkpt>
      <trkpt lat="48.80185" lon="-3.52793">
        <ele>33.3</ele>
        <time>2020-08-14T15:53:47Z</time>
      </trkpt>
      <trkpt lat="48.80176" lon="-3.52814">
        <ele>33</ele>
        <time>2020-08-14T15:53:52Z</time>
      </trkpt>
      <trkpt lat="48.80154" lon="-3.52866">
        <ele>32</ele>
        <time>2020-08-14T15:54:01Z</time>
      </trkpt>
      <trkpt lat="48.80131" lon="-3.52913">
        <ele>31.3</ele>
        <time>2020-08-14T15:54:08Z</time>
      </trkpt>
      <trkpt lat="48.80102" lon="-3.52965">
        <ele>28.6</ele>
        <time>2020-08-14T15:54:16Z</time>
      </trkpt>
      <trkpt lat="48.80081" lon="-3.53003">
        <ele>27.6</ele>
        <time>2020-08-14T15:54:24Z</time>
      </trkpt>
      <trkpt lat="48.8006" lon="-3.53035">
        <ele>25.5</ele>
        <time>2020-08-14T15:54:32Z</time>
      </trkpt>
      <trkpt lat="48.80036" lon="-3.53068">
        <ele>24.6</ele>
        <time>2020-08-14T15:54:40Z</time>
      </trkpt>
      <trkpt lat="48.80018" lon="-3.53094">
        <ele>22.2</ele>
        <time>2020-08-14T15:54:45Z</time>
      </trkpt>
      <trkpt lat="48.79995" lon="-3.53132">
        <ele>21.8</ele>
        <time>2020-08-14T15:54:50Z</time>
      </trkpt>
      <trkpt lat="48.8" lon="-3.53143">
        <ele>21.4</ele>
        <time>2020-08-14T15:54:52Z</time>
      </trkpt>
      <trkpt lat="48.80021" lon="-3.53197">
        <ele>19.3</ele>
        <time>2020-08-14T15:55:00Z</time>
      </trkpt>
      <trkpt lat="48.80037" lon="-3.5322">
        <ele>19.1</ele>
        <time>2020-08-14T15:55:04Z</time>
      </trkpt>
      <trkpt lat="48.80078" lon="-3.53248">
        <ele>19</ele>
        <time>2020-08-14T15:55:12Z</time>
      </trkpt>
      <trkpt lat="48.80067" lon="-3.53238">
        <ele>19.1</ele>
        <time>2020-08-14T15:55:16Z</time>
      </trkpt>
      <trkpt lat="48.80079" lon="-3.53247">
        <ele>19</ele>
        <time>2020-08-14T15:55:17Z</time>
      </trkpt>
      <trkpt lat="48.80061" lon="-3.53262">
        <ele>18.1</ele>
        <time>2020-08-14T15:55:21Z</time>
      </trkpt>
      <trkpt lat="48.80034" lon="-3.5328">
        <ele>17.9</ele>
        <time>2020-08-14T15:55:27Z</time>
      </trkpt>
      <trkpt lat="48.80016" lon="-3.53301">
        <ele>18</ele>
        <time>2020-08-14T15:55:31Z</time>
      </trkpt>
      <trkpt lat="48.79999" lon="-3.53316">
        <ele>19.4</ele>
        <time>2020-08-14T15:55:35Z</time>
      </trkpt>
      <trkpt lat="48.79985" lon="-3.53313">
        <ele>19.6</ele>
        <time>2020-08-14T15:55:38Z</time>
      </trkpt>
      <trkpt lat="48.7996" lon="-3.5329">
        <ele>20</ele>
        <time>2020-08-14T15:55:46Z</time>
      </trkpt>
      <trkpt lat="48.79943" lon="-3.53279">
        <ele>20.2</ele>
        <time>2020-08-14T15:55:52Z</time>
      </trkpt>
      <trkpt lat="48.79919" lon="-3.53274">
        <ele>20.5</ele>
        <time>2020-08-14T15:55:59Z</time>
      </trkpt>
      <trkpt lat="48.79894" lon="-3.53274">
        <ele>22.1</ele>
        <time>2020-08-14T15:56:08Z</time>
      </trkpt>
      <trkpt lat="48.79875" lon="-3.53275">
        <ele>22.4</ele>
        <time>2020-08-14T15:56:16Z</time>
      </trkpt>
      <trkpt lat="48.79863" lon="-3.53289">
        <ele>22.6</ele>
        <time>2020-08-14T15:56:22Z</time>
      </trkpt>
      <trkpt lat="48.79854" lon="-3.53319">
        <ele>23</ele>
        <time>2020-08-14T15:56:29Z</time>
      </trkpt>
      <trkpt lat="48.79856" lon="-3.53355">
        <ele>23.3</ele>
        <time>2020-08-14T15:56:37Z</time>
      </trkpt>
      <trkpt lat="48.79857" lon="-3.53387">
        <ele>23.2</ele>
        <time>2020-08-14T15:56:45Z</time>
      </trkpt>
      <trkpt lat="48.79855" lon="-3.53418">
        <ele>23.6</ele>
        <time>2020-08-14T15:56:53Z</time>
      </trkpt>
      <trkpt lat="48.79845" lon="-3.53455">
        <ele>23.8</ele>
        <time>2020-08-14T15:57:02Z</time>
      </trkpt>
      <trkpt lat="48.79854" lon="-3.53473">
        <ele>23.9</ele>
        <time>2020-08-14T15:57:08Z</time>
      </trkpt>
      <trkpt lat="48.79871" lon="-3.53506">
        <ele>24.9</ele>
        <time>2020-08-14T15:57:17Z</time>
      </trkpt>
      <trkpt lat="48.79884" lon="-3.53542">
        <ele>25.1</ele>
        <time>2020-08-14T15:57:26Z</time>
      </trkpt>
      <trkpt lat="48.79893" lon="-3.53571">
        <ele>25</ele>
        <time>2020-08-14T15:57:34Z</time>
      </trkpt>
      <trkpt lat="48.79904" lon="-3.53592">
        <ele>25.3</ele>
        <time>2020-08-14T15:57:41Z</time>
      </trkpt>
      <trkpt lat="48.7992" lon="-3.53618">
        <ele>22.6</ele>
        <time>2020-08-14T15:57:48Z</time>
      </trkpt>
      <trkpt lat="48.7993" lon="-3.53637">
        <ele>22.6</ele>
        <time>2020-08-14T15:57:52Z</time>
      </trkpt>
      <trkpt lat="48.79941" lon="-3.53661">
        <ele>22.7</ele>
        <time>2020-08-14T15:57:57Z</time>
      </trkpt>
      <trkpt lat="48.7994" lon="-3.53666">
        <ele>22.8</ele>
        <time>2020-08-14T15:57:58Z</time>
      </trkpt>
      <trkpt lat="48.79932" lon="-3.53698">
        <ele>22.2</ele>
        <time>2020-08-14T15:58:04Z</time>
      </trkpt>
      <trkpt lat="48.79931" lon="-3.53703">
        <ele>22.2</ele>
        <time>2020-08-14T15:58:05Z</time>
      </trkpt>
      <trkpt lat="48.79929" lon="-3.53711">
        <ele>22.1</ele>
        <time>2020-08-14T15:58:10Z</time>
      </trkpt>
      <trkpt lat="48.79919" lon="-3.53705">
        <ele>22.3</ele>
        <time>2020-08-14T15:58:15Z</time>
      </trkpt>
      <trkpt lat="48.79903" lon="-3.53697">
        <ele>25.4</ele>
        <time>2020-08-14T15:58:24Z</time>
      </trkpt>
      <trkpt lat="48.79883" lon="-3.5369">
        <ele>25.8</ele>
        <time>2020-08-14T15:58:34Z</time>
      </trkpt>
      <trkpt lat="48.79867" lon="-3.53685">
        <ele>26.3</ele>
        <time>2020-08-14T15:58:42Z</time>
      </trkpt>
      <trkpt lat="48.79852" lon="-3.5368">
        <ele>27</ele>
        <time>2020-08-14T15:58:50Z</time>
      </trkpt>
      <trkpt lat="48.79839" lon="-3.53679">
        <ele>27.6</ele>
        <time>2020-08-14T15:58:57Z</time>
      </trkpt>
      <trkpt lat="48.79821" lon="-3.53679">
        <ele>28.1</ele>
        <time>2020-08-14T15:59:04Z</time>
      </trkpt>
      <trkpt lat="48.79808" lon="-3.53673">
        <ele>27.9</ele>
        <time>2020-08-14T15:59:10Z</time>
      </trkpt>
      <trkpt lat="48.79791" lon="-3.53665">
        <ele>29</ele>
        <time>2020-08-14T15:59:19Z</time>
      </trkpt>
      <trkpt lat="48.79775" lon="-3.53664">
        <ele>28.8</ele>
        <time>2020-08-14T15:59:26Z</time>
      </trkpt>
      <trkpt lat="48.79763" lon="-3.53663">
        <ele>28.6</ele>
        <time>2020-08-14T15:59:32Z</time>
      </trkpt>
      <trkpt lat="48.7974" lon="-3.53665">
        <ele>28.4</ele>
        <time>2020-08-14T15:59:40Z</time>
      </trkpt>
      <trkpt lat="48.79721" lon="-3.53667">
        <ele>27.2</ele>
        <time>2020-08-14T15:59:47Z</time>
      </trkpt>
      <trkpt lat="48.79708" lon="-3.53667">
        <ele>27.1</ele>
        <time>2020-08-14T15:59:53Z</time>
      </trkpt>
      <trkpt lat="48.79697" lon="-3.53662">
        <ele>28.8</ele>
        <time>2020-08-14T15:59:56Z</time>
      </trkpt>
      <trkpt lat="48.79668" lon="-3.53664">
        <ele>28.1</ele>
        <time>2020-08-14T16:00:03Z</time>
      </trkpt>
      <trkpt lat="48.7965" lon="-3.53655">
        <ele>28.9</ele>
        <time>2020-08-14T16:00:08Z</time>
      </trkpt>
      <trkpt lat="48.79633" lon="-3.53655">
        <ele>29.2</ele>
        <time>2020-08-14T16:00:13Z</time>
      </trkpt>
      <trkpt lat="48.79614" lon="-3.53666">
        <ele>29.5</ele>
        <time>2020-08-14T16:00:20Z</time>
      </trkpt>
      <trkpt lat="48.79584" lon="-3.53677">
        <ele>29.1</ele>
        <time>2020-08-14T16:00:29Z</time>
      </trkpt>
      <trkpt lat="48.79559" lon="-3.53685">
        <ele>30.3</ele>
        <time>2020-08-14T16:00:34Z</time>
      </trkpt>
      <trkpt lat="48.79548" lon="-3.53688">
        <ele>30.5</ele>
        <time>2020-08-14T16:00:36Z</time>
      </trkpt>
      <trkpt lat="48.79526" lon="-3.53696">
        <ele>30.9</ele>
        <time>2020-08-14T16:00:40Z</time>
      </trkpt>
      <trkpt lat="48.79506" lon="-3.53717">
        <ele>31.3</ele>
        <time>2020-08-14T16:00:46Z</time>
      </trkpt>
      <trkpt lat="48.79494" lon="-3.53746">
        <ele>33</ele>
        <time>2020-08-14T16:00:54Z</time>
      </trkpt>
      <trkpt lat="48.79485" lon="-3.53778">
        <ele>33.2</ele>
        <time>2020-08-14T16:01:04Z</time>
      </trkpt>
      <trkpt lat="48.79478" lon="-3.53801">
        <ele>33.2</ele>
        <time>2020-08-14T16:01:11Z</time>
      </trkpt>
      <trkpt lat="48.79467" lon="-3.53827">
        <ele>33.3</ele>
        <time>2020-08-14T16:01:19Z</time>
      </trkpt>
      <trkpt lat="48.79453" lon="-3.53854">
        <ele>33.8</ele>
        <time>2020-08-14T16:01:28Z</time>
      </trkpt>
      <trkpt lat="48.79447" lon="-3.53879">
        <ele>33.9</ele>
        <time>2020-08-14T16:01:36Z</time>
      </trkpt>
      <trkpt lat="48.79443" lon="-3.53902">
        <ele>34.3</ele>
        <time>2020-08-14T16:01:44Z</time>
      </trkpt>
      <trkpt lat="48.79433" lon="-3.53926">
        <ele>34.8</ele>
        <time>2020-08-14T16:01:54Z</time>
      </trkpt>
      <trkpt lat="48.79422" lon="-3.53941">
        <ele>34.7</ele>
        <time>2020-08-14T16:02:02Z</time>
      </trkpt>
      <trkpt lat="48.7942" lon="-3.53943">
        <ele>34.7</ele>
        <time>2020-08-14T16:02:05Z</time>
      </trkpt>
      <trkpt lat="48.79418" lon="-3.53946">
        <ele>34.7</ele>
        <time>2020-08-14T16:02:56Z</time>
      </trkpt>
      <trkpt lat="48.79409" lon="-3.5395">
        <ele>36.3</ele>
        <time>2020-08-14T16:03:04Z</time>
      </trkpt>
      <trkpt lat="48.79392" lon="-3.53953">
        <ele>36.4</ele>
        <time>2020-08-14T16:03:11Z</time>
      </trkpt>
      <trkpt lat="48.79373" lon="-3.53959">
        <ele>36.5</ele>
        <time>2020-08-14T16:03:18Z</time>
      </trkpt>
      <trkpt lat="48.79352" lon="-3.53978">
        <ele>36.7</ele>
        <time>2020-08-14T16:03:25Z</time>
      </trkpt>
      <trkpt lat="48.79342" lon="-3.53999">
        <ele>36.8</ele>
        <time>2020-08-14T16:03:30Z</time>
      </trkpt>
      <trkpt lat="48.79339" lon="-3.54036">
        <ele>37.4</ele>
        <time>2020-08-14T16:03:38Z</time>
      </trkpt>
      <trkpt lat="48.79337" lon="-3.54073">
        <ele>38.4</ele>
        <time>2020-08-14T16:03:46Z</time>
      </trkpt>
      <trkpt lat="48.79336" lon="-3.5411">
        <ele>38.1</ele>
        <time>2020-08-14T16:03:55Z</time>
      </trkpt>
      <trkpt lat="48.79337" lon="-3.54154">
        <ele>37.8</ele>
        <time>2020-08-14T16:04:05Z</time>
      </trkpt>
      <trkpt lat="48.79339" lon="-3.54197">
        <ele>37.1</ele>
        <time>2020-08-14T16:04:14Z</time>
      </trkpt>
      <trkpt lat="48.79334" lon="-3.54231">
        <ele>37.3</ele>
        <time>2020-08-14T16:04:21Z</time>
      </trkpt>
      <trkpt lat="48.79322" lon="-3.54276">
        <ele>40</ele>
        <time>2020-08-14T16:04:30Z</time>
      </trkpt>
      <trkpt lat="48.79316" lon="-3.5429">
        <ele>40.4</ele>
        <time>2020-08-14T16:04:35Z</time>
      </trkpt>
      <trkpt lat="48.7931" lon="-3.54296">
        <ele>40.6</ele>
        <time>2020-08-14T16:04:40Z</time>
      </trkpt>
      <trkpt lat="48.79298" lon="-3.54314">
        <ele>41.1</ele>
        <time>2020-08-14T16:04:50Z</time>
      </trkpt>
      <trkpt lat="48.79292" lon="-3.54325">
        <ele>41.3</ele>
        <time>2020-08-14T16:04:56Z</time>
      </trkpt>
      <trkpt lat="48.79284" lon="-3.54343">
        <ele>43.6</ele>
        <time>2020-08-14T16:05:05Z</time>
      </trkpt>
      <trkpt lat="48.79278" lon="-3.54364">
        <ele>44.1</ele>
        <time>2020-08-14T16:05:13Z</time>
      </trkpt>
      <trkpt lat="48.79271" lon="-3.54391">
        <ele>45</ele>
        <time>2020-08-14T16:05:23Z</time>
      </trkpt>
      <trkpt lat="48.79264" lon="-3.54414">
        <ele>46.3</ele>
        <time>2020-08-14T16:05:34Z</time>
      </trkpt>
      <trkpt lat="48.79259" lon="-3.54428">
        <ele>47</ele>
        <time>2020-08-14T16:05:42Z</time>
      </trkpt>
      <trkpt lat="48.7925" lon="-3.54445">
        <ele>48</ele>
        <time>2020-08-14T16:05:50Z</time>
      </trkpt>
      <trkpt lat="48.79236" lon="-3.54461">
        <ele>48</ele>
        <time>2020-08-14T16:05:57Z</time>
      </trkpt>
      <trkpt lat="48.79223" lon="-3.54492">
        <ele>47.9</ele>
        <time>2020-08-14T16:06:06Z</time>
      </trkpt>
      <trkpt lat="48.79214" lon="-3.54519">
        <ele>46.2</ele>
        <time>2020-08-14T16:06:11Z</time>
      </trkpt>
      <trkpt lat="48.79209" lon="-3.54552">
        <ele>45.5</ele>
        <time>2020-08-14T16:06:17Z</time>
      </trkpt>
      <trkpt lat="48.79206" lon="-3.54572">
        <ele>45.2</ele>
        <time>2020-08-14T16:06:24Z</time>
      </trkpt>
      <trkpt lat="48.79205" lon="-3.54582">
        <ele>45.1</ele>
        <time>2020-08-14T16:06:29Z</time>
      </trkpt>
      <trkpt lat="48.79203" lon="-3.54592">
        <ele>43</ele>
        <time>2020-08-14T16:09:28Z</time>
      </trkpt>
      <trkpt lat="48.79199" lon="-3.54612">
        <ele>42.8</ele>
        <time>2020-08-14T16:09:35Z</time>
      </trkpt>
      <trkpt lat="48.79194" lon="-3.5464">
        <ele>42.3</ele>
        <time>2020-08-14T16:09:42Z</time>
      </trkpt>
      <trkpt lat="48.79187" lon="-3.54673">
        <ele>41</ele>
        <time>2020-08-14T16:09:49Z</time>
      </trkpt>
      <trkpt lat="48.79171" lon="-3.54703">
        <ele>40.8</ele>
        <time>2020-08-14T16:09:56Z</time>
      </trkpt>
      <trkpt lat="48.79161" lon="-3.54708">
        <ele>42.5</ele>
        <time>2020-08-14T16:10:01Z</time>
      </trkpt>
      <trkpt lat="48.79158" lon="-3.54707">
        <ele>42.5</ele>
        <time>2020-08-14T16:10:04Z</time>
      </trkpt>
      <trkpt lat="48.79139" lon="-3.54692">
        <ele>42.9</ele>
        <time>2020-08-14T16:10:13Z</time>
      </trkpt>
      <trkpt lat="48.79125" lon="-3.54675">
        <ele>43.5</ele>
        <time>2020-08-14T16:10:21Z</time>
      </trkpt>
      <trkpt lat="48.79113" lon="-3.54652">
        <ele>45.7</ele>
        <time>2020-08-14T16:10:29Z</time>
      </trkpt>
      <trkpt lat="48.79102" lon="-3.54637">
        <ele>46</ele>
        <time>2020-08-14T16:10:38Z</time>
      </trkpt>
      <trkpt lat="48.7909" lon="-3.54626">
        <ele>46.4</ele>
        <time>2020-08-14T16:10:47Z</time>
      </trkpt>
      <trkpt lat="48.79078" lon="-3.54627">
        <ele>47.8</ele>
        <time>2020-08-14T16:10:55Z</time>
      </trkpt>
      <trkpt lat="48.79059" lon="-3.54635">
        <ele>47.6</ele>
        <time>2020-08-14T16:11:05Z</time>
      </trkpt>
      <trkpt lat="48.79043" lon="-3.54641">
        <ele>47.4</ele>
        <time>2020-08-14T16:11:13Z</time>
      </trkpt>
      <trkpt lat="48.79027" lon="-3.54641">
        <ele>47.3</ele>
        <time>2020-08-14T16:11:20Z</time>
      </trkpt>
      <trkpt lat="48.79012" lon="-3.54632">
        <ele>47.4</ele>
        <time>2020-08-14T16:11:27Z</time>
      </trkpt>
      <trkpt lat="48.78991" lon="-3.54617">
        <ele>44.4</ele>
        <time>2020-08-14T16:11:37Z</time>
      </trkpt>
      <trkpt lat="48.78973" lon="-3.54604">
        <ele>44.1</ele>
        <time>2020-08-14T16:11:43Z</time>
      </trkpt>
      <trkpt lat="48.7895" lon="-3.54591">
        <ele>42.5</ele>
        <time>2020-08-14T16:11:48Z</time>
      </trkpt>
      <trkpt lat="48.78932" lon="-3.5458">
        <ele>43.1</ele>
        <time>2020-08-14T16:11:51Z</time>
      </trkpt>
      <trkpt lat="48.78904" lon="-3.54545">
        <ele>35.9</ele>
        <time>2020-08-14T16:11:58Z</time>
      </trkpt>
      <trkpt lat="48.78884" lon="-3.54499">
        <ele>36.5</ele>
        <time>2020-08-14T16:12:06Z</time>
      </trkpt>
      <trkpt lat="48.78874" lon="-3.54466">
        <ele>35.1</ele>
        <time>2020-08-14T16:12:11Z</time>
      </trkpt>
      <trkpt lat="48.78877" lon="-3.54461">
        <ele>35.4</ele>
        <time>2020-08-14T16:12:13Z</time>
      </trkpt>
      <trkpt lat="48.78873" lon="-3.54469">
        <ele>35</ele>
        <time>2020-08-14T16:12:18Z</time>
      </trkpt>
      <trkpt lat="48.78874" lon="-3.54466">
        <ele>35.1</ele>
        <time>2020-08-14T16:12:30Z</time>
      </trkpt>
      <trkpt lat="48.78874" lon="-3.54466">
        <ele>35.1</ele>
        <time>2020-08-14T16:15:49Z</time>
      </trkpt>
      <trkpt lat="48.78869" lon="-3.54474">
        <ele>34.6</ele>
        <time>2020-08-14T16:15:56Z</time>
      </trkpt>
      <trkpt lat="48.78858" lon="-3.54483">
        <ele>33.1</ele>
        <time>2020-08-14T16:16:01Z</time>
      </trkpt>
      <trkpt lat="48.78858" lon="-3.54483">
        <ele>33.1</ele>
        <time>2020-08-14T16:16:08Z</time>
      </trkpt>
      <trkpt lat="48.78858" lon="-3.54483">
        <ele>33.1</ele>
        <time>2020-08-14T16:16:13Z</time>
      </trkpt>
      <trkpt lat="48.78858" lon="-3.54483">
        <ele>33.1</ele>
        <time>2020-08-14T16:16:18Z</time>
      </trkpt>
      <trkpt lat="48.78868" lon="-3.54622">
        <ele>29.2</ele>
        <time>2020-08-14T16:16:23Z</time>
      </trkpt>
      <trkpt lat="48.78869" lon="-3.54668">
        <ele>26.5</ele>
        <time>2020-08-14T16:16:27Z</time>
      </trkpt>
      <trkpt lat="48.78876" lon="-3.54721">
        <ele>27</ele>
        <time>2020-08-14T16:16:32Z</time>
      </trkpt>
      <trkpt lat="48.78877" lon="-3.54748">
        <ele>27</ele>
        <time>2020-08-14T16:16:36Z</time>
      </trkpt>
      <trkpt lat="48.78876" lon="-3.54769">
        <ele>26.9</ele>
        <time>2020-08-14T16:16:42Z</time>
      </trkpt>
      <trkpt lat="48.78878" lon="-3.54801">
        <ele>27.2</ele>
        <time>2020-08-14T16:16:51Z</time>
      </trkpt>
      <trkpt lat="48.7888" lon="-3.54832">
        <ele>27.6</ele>
        <time>2020-08-14T16:17:00Z</time>
      </trkpt>
      <trkpt lat="48.78882" lon="-3.54855">
        <ele>27.9</ele>
        <time>2020-08-14T16:17:07Z</time>
      </trkpt>
      <trkpt lat="48.78884" lon="-3.54881">
        <ele>27.9</ele>
        <time>2020-08-14T16:17:16Z</time>
      </trkpt>
      <trkpt lat="48.78886" lon="-3.54908">
        <ele>28</ele>
        <time>2020-08-14T16:17:24Z</time>
      </trkpt>
      <trkpt lat="48.78887" lon="-3.54922">
        <ele>26.4</ele>
        <time>2020-08-14T16:17:31Z</time>
      </trkpt>
      <trkpt lat="48.78888" lon="-3.54932">
        <ele>26.2</ele>
        <time>2020-08-14T16:17:42Z</time>
      </trkpt>
      <trkpt lat="48.78889" lon="-3.54956">
        <ele>25.2</ele>
        <time>2020-08-14T16:17:47Z</time>
      </trkpt>
      <trkpt lat="48.78892" lon="-3.54997">
        <ele>23.5</ele>
        <time>2020-08-14T16:17:55Z</time>
      </trkpt>
      <trkpt lat="48.78896" lon="-3.55018">
        <ele>19.8</ele>
        <time>2020-08-14T16:18:00Z</time>
      </trkpt>
      <trkpt lat="48.78886" lon="-3.55021">
        <ele>19.8</ele>
        <time>2020-08-14T16:18:07Z</time>
      </trkpt>
      <trkpt lat="48.78881" lon="-3.55061">
        <ele>18.4</ele>
        <time>2020-08-14T16:18:13Z</time>
      </trkpt>
      <trkpt lat="48.78874" lon="-3.55091">
        <ele>14.2</ele>
        <time>2020-08-14T16:18:19Z</time>
      </trkpt>
      <trkpt lat="48.78869" lon="-3.55114">
        <ele>13.8</ele>
        <time>2020-08-14T16:18:24Z</time>
      </trkpt>
      <trkpt lat="48.78869" lon="-3.55114">
        <ele>13.8</ele>
        <time>2020-08-14T16:18:26Z</time>
      </trkpt>
      <trkpt lat="48.78867" lon="-3.55126">
        <ele>13.4</ele>
        <time>2020-08-14T16:19:17Z</time>
      </trkpt>
      <trkpt lat="48.7886" lon="-3.55171">
        <ele>10.2</ele>
        <time>2020-08-14T16:19:23Z</time>
      </trkpt>
      <trkpt lat="48.78854" lon="-3.55208">
        <ele>9.6</ele>
        <time>2020-08-14T16:19:28Z</time>
      </trkpt>
      <trkpt lat="48.78842" lon="-3.55246">
        <ele>9.1</ele>
        <time>2020-08-14T16:19:33Z</time>
      </trkpt>
      <trkpt lat="48.78836" lon="-3.55304">
        <ele>9.9</ele>
        <time>2020-08-14T16:19:38Z</time>
      </trkpt>
      <trkpt lat="48.78839" lon="-3.5534">
        <ele>11.6</ele>
        <time>2020-08-14T16:19:44Z</time>
      </trkpt>
      <trkpt lat="48.78844" lon="-3.55383">
        <ele>11.5</ele>
        <time>2020-08-14T16:19:53Z</time>
      </trkpt>
      <trkpt lat="48.78848" lon="-3.55423">
        <ele>12.4</ele>
        <time>2020-08-14T16:20:01Z</time>
      </trkpt>
      <trkpt lat="48.78846" lon="-3.55458">
        <ele>11.6</ele>
        <time>2020-08-14T16:20:08Z</time>
      </trkpt>
      <trkpt lat="48.78842" lon="-3.5549">
        <ele>12.1</ele>
        <time>2020-08-14T16:20:14Z</time>
      </trkpt>
      <trkpt lat="48.78837" lon="-3.5553">
        <ele>11.8</ele>
        <time>2020-08-14T16:20:22Z</time>
      </trkpt>
      <trkpt lat="48.78836" lon="-3.55534">
        <ele>11.7</ele>
        <time>2020-08-14T16:20:23Z</time>
      </trkpt>
      <trkpt lat="48.78841" lon="-3.55549">
        <ele>11.8</ele>
        <time>2020-08-14T16:20:27Z</time>
      </trkpt>
      <trkpt lat="48.78865" lon="-3.55564">
        <ele>11.3</ele>
        <time>2020-08-14T16:20:36Z</time>
      </trkpt>
      <trkpt lat="48.78888" lon="-3.5558">
        <ele>10.1</ele>
        <time>2020-08-14T16:20:44Z</time>
      </trkpt>
      <trkpt lat="48.78902" lon="-3.55601">
        <ele>10.4</ele>
        <time>2020-08-14T16:20:51Z</time>
      </trkpt>
      <trkpt lat="48.7892" lon="-3.55639">
        <ele>8.2</ele>
        <time>2020-08-14T16:21:00Z</time>
      </trkpt>
      <trkpt lat="48.7894" lon="-3.55664">
        <ele>8.3</ele>
        <time>2020-08-14T16:21:06Z</time>
      </trkpt>
      <trkpt lat="48.78978" lon="-3.55694">
        <ele>7.7</ele>
        <time>2020-08-14T16:21:15Z</time>
      </trkpt>
      <trkpt lat="48.79008" lon="-3.55717">
        <ele>5.5</ele>
        <time>2020-08-14T16:21:21Z</time>
      </trkpt>
      <trkpt lat="48.79016" lon="-3.55728">
        <ele>5.5</ele>
        <time>2020-08-14T16:21:23Z</time>
      </trkpt>
      <trkpt lat="48.79026" lon="-3.55749">
        <ele>5.5</ele>
        <time>2020-08-14T16:21:27Z</time>
      </trkpt>
      <trkpt lat="48.79027" lon="-3.55755">
        <ele>5.9</ele>
        <time>2020-08-14T16:21:29Z</time>
      </trkpt>
      <trkpt lat="48.79007" lon="-3.55786">
        <ele>6.1</ele>
        <time>2020-08-14T16:21:37Z</time>
      </trkpt>
      <trkpt lat="48.78997" lon="-3.55817">
        <ele>7.6</ele>
        <time>2020-08-14T16:21:43Z</time>
      </trkpt>
      <trkpt lat="48.78995" lon="-3.55841">
        <ele>7.4</ele>
        <time>2020-08-14T16:21:49Z</time>
      </trkpt>
      <trkpt lat="48.78994" lon="-3.55874">
        <ele>7.8</ele>
        <time>2020-08-14T16:21:56Z</time>
      </trkpt>
      <trkpt lat="48.78996" lon="-3.55905">
        <ele>7.5</ele>
        <time>2020-08-14T16:22:04Z</time>
      </trkpt>
      <trkpt lat="48.78995" lon="-3.55934">
        <ele>7.5</ele>
        <time>2020-08-14T16:22:11Z</time>
      </trkpt>
      <trkpt lat="48.78993" lon="-3.55967">
        <ele>7.6</ele>
        <time>2020-08-14T16:22:19Z</time>
      </trkpt>
      <trkpt lat="48.7899" lon="-3.5601">
        <ele>7.2</ele>
        <time>2020-08-14T16:22:28Z</time>
      </trkpt>
      <trkpt lat="48.78987" lon="-3.56048">
        <ele>7.1</ele>
        <time>2020-08-14T16:22:36Z</time>
      </trkpt>
      <trkpt lat="48.78986" lon="-3.56073">
        <ele>6.8</ele>
        <time>2020-08-14T16:22:41Z</time>
      </trkpt>
      <trkpt lat="48.78984" lon="-3.56112">
        <ele>7.1</ele>
        <time>2020-08-14T16:22:49Z</time>
      </trkpt>
      <trkpt lat="48.78981" lon="-3.56148">
        <ele>7.3</ele>
        <time>2020-08-14T16:22:56Z</time>
      </trkpt>
      <trkpt lat="48.78977" lon="-3.56179">
        <ele>7.8</ele>
        <time>2020-08-14T16:23:02Z</time>
      </trkpt>
      <trkpt lat="48.7897" lon="-3.56226">
        <ele>8.1</ele>
        <time>2020-08-14T16:23:11Z</time>
      </trkpt>
      <trkpt lat="48.78961" lon="-3.56274">
        <ele>8.4</ele>
        <time>2020-08-14T16:23:20Z</time>
      </trkpt>
      <trkpt lat="48.78952" lon="-3.56313">
        <ele>8.6</ele>
        <time>2020-08-14T16:23:28Z</time>
      </trkpt>
      <trkpt lat="48.78939" lon="-3.56355">
        <ele>8.6</ele>
        <time>2020-08-14T16:23:37Z</time>
      </trkpt>
      <trkpt lat="48.78924" lon="-3.56393">
        <ele>8.5</ele>
        <time>2020-08-14T16:23:46Z</time>
      </trkpt>
      <trkpt lat="48.78917" lon="-3.5641">
        <ele>8.8</ele>
        <time>2020-08-14T16:23:51Z</time>
      </trkpt>
      <trkpt lat="48.78937" lon="-3.56439">
        <ele>7.6</ele>
        <time>2020-08-14T16:23:56Z</time>
      </trkpt>
      <trkpt lat="48.7894" lon="-3.56443">
        <ele>7.5</ele>
        <time>2020-08-14T16:23:57Z</time>
      </trkpt>
      <trkpt lat="48.78972" lon="-3.56472">
        <ele>6.6</ele>
        <time>2020-08-14T16:24:06Z</time>
      </trkpt>
      <trkpt lat="48.78995" lon="-3.56508">
        <ele>5.3</ele>
        <time>2020-08-14T16:24:14Z</time>
      </trkpt>
      <trkpt lat="48.79017" lon="-3.56542">
        <ele>4.5</ele>
        <time>2020-08-14T16:24:22Z</time>
      </trkpt>
      <trkpt lat="48.79026" lon="-3.56557">
        <ele>4.4</ele>
        <time>2020-08-14T16:24:26Z</time>
      </trkpt>
      <trkpt lat="48.79032" lon="-3.56562">
        <ele>4.4</ele>
        <time>2020-08-14T16:24:29Z</time>
      </trkpt>
      <trkpt lat="48.7903" lon="-3.56568">
        <ele>4.4</ele>
        <time>2020-08-14T16:24:34Z</time>
      </trkpt>
      <trkpt lat="48.79018" lon="-3.56618">
        <ele>4.8</ele>
        <time>2020-08-14T16:24:44Z</time>
      </trkpt>
      <trkpt lat="48.79006" lon="-3.56668">
        <ele>5</ele>
        <time>2020-08-14T16:24:53Z</time>
      </trkpt>
      <trkpt lat="48.78993" lon="-3.56721">
        <ele>5.2</ele>
        <time>2020-08-14T16:25:02Z</time>
      </trkpt>
      <trkpt lat="48.78976" lon="-3.56794">
        <ele>5.1</ele>
        <time>2020-08-14T16:25:14Z</time>
      </trkpt>
      <trkpt lat="48.78957" lon="-3.56871">
        <ele>5</ele>
        <time>2020-08-14T16:25:27Z</time>
      </trkpt>
      <trkpt lat="48.78942" lon="-3.56938">
        <ele>4.9</ele>
        <time>2020-08-14T16:25:38Z</time>
      </trkpt>
      <trkpt lat="48.7893" lon="-3.56987">
        <ele>5.2</ele>
        <time>2020-08-14T16:25:47Z</time>
      </trkpt>
      <trkpt lat="48.78918" lon="-3.57039">
        <ele>5.3</ele>
        <time>2020-08-14T16:25:58Z</time>
      </trkpt>
      <trkpt lat="48.78908" lon="-3.5708">
        <ele>6.9</ele>
        <time>2020-08-14T16:26:07Z</time>
      </trkpt>
      <trkpt lat="48.78897" lon="-3.57126">
        <ele>6.7</ele>
        <time>2020-08-14T16:26:17Z</time>
      </trkpt>
      <trkpt lat="48.78887" lon="-3.57167">
        <ele>5.3</ele>
        <time>2020-08-14T16:26:25Z</time>
      </trkpt>
      <trkpt lat="48.78872" lon="-3.57234">
        <ele>5.4</ele>
        <time>2020-08-14T16:26:38Z</time>
      </trkpt>
      <trkpt lat="48.78859" lon="-3.57289">
        <ele>5</ele>
        <time>2020-08-14T16:26:48Z</time>
      </trkpt>
      <trkpt lat="48.78847" lon="-3.5734">
        <ele>5.2</ele>
        <time>2020-08-14T16:26:58Z</time>
      </trkpt>
      <trkpt lat="48.78837" lon="-3.5738">
        <ele>4.9</ele>
        <time>2020-08-14T16:27:06Z</time>
      </trkpt>
      <trkpt lat="48.78825" lon="-3.57428">
        <ele>8.3</ele>
        <time>2020-08-14T16:27:15Z</time>
      </trkpt>
      <trkpt lat="48.78808" lon="-3.575">
        <ele>9.5</ele>
        <time>2020-08-14T16:27:29Z</time>
      </trkpt>
      <trkpt lat="48.78797" lon="-3.57546">
        <ele>10.4</ele>
        <time>2020-08-14T16:27:39Z</time>
      </trkpt>
      <trkpt lat="48.78782" lon="-3.57583">
        <ele>11.1</ele>
        <time>2020-08-14T16:27:48Z</time>
      </trkpt>
      <trkpt lat="48.78758" lon="-3.57616">
        <ele>9</ele>
        <time>2020-08-14T16:27:58Z</time>
      </trkpt>
      <trkpt lat="48.78739" lon="-3.57632">
        <ele>10.4</ele>
        <time>2020-08-14T16:28:05Z</time>
      </trkpt>
      <trkpt lat="48.78711" lon="-3.57647">
        <ele>10.3</ele>
        <time>2020-08-14T16:28:13Z</time>
      </trkpt>
      <trkpt lat="48.78673" lon="-3.5766">
        <ele>9.7</ele>
        <time>2020-08-14T16:28:22Z</time>
      </trkpt>
      <trkpt lat="48.78646" lon="-3.5767">
        <ele>8.6</ele>
        <time>2020-08-14T16:28:29Z</time>
      </trkpt>
      <trkpt lat="48.78629" lon="-3.57675">
        <ele>8.4</ele>
        <time>2020-08-14T16:28:36Z</time>
      </trkpt>
      <trkpt lat="48.78621" lon="-3.57678">
        <ele>8.3</ele>
        <time>2020-08-14T16:28:41Z</time>
      </trkpt>
      <trkpt lat="48.78611" lon="-3.57675">
        <ele>8.1</ele>
        <time>2020-08-14T16:28:45Z</time>
      </trkpt>
      <trkpt lat="48.78611" lon="-3.57652">
        <ele>10.1</ele>
        <time>2020-08-14T16:28:51Z</time>
      </trkpt>
      <trkpt lat="48.78626" lon="-3.5764">
        <ele>10.9</ele>
        <time>2020-08-14T16:28:57Z</time>
      </trkpt>
      <trkpt lat="48.78649" lon="-3.57651">
        <ele>10.5</ele>
        <time>2020-08-14T16:29:06Z</time>
      </trkpt>
      <trkpt lat="48.7867" lon="-3.57644">
        <ele>10.6</ele>
        <time>2020-08-14T16:29:15Z</time>
      </trkpt>
      <trkpt lat="48.78674" lon="-3.57642">
        <ele>10.7</ele>
        <time>2020-08-14T16:29:17Z</time>
      </trkpt>
      <trkpt lat="48.78686" lon="-3.57629">
        <ele>11.3</ele>
        <time>2020-08-14T16:29:23Z</time>
      </trkpt>
      <trkpt lat="48.78678" lon="-3.5763">
        <ele>11.4</ele>
        <time>2020-08-14T16:29:26Z</time>
      </trkpt>
      <trkpt lat="48.78674" lon="-3.57632">
        <ele>11.3</ele>
        <time>2020-08-14T16:29:29Z</time>
      </trkpt>
      <trkpt lat="48.78671" lon="-3.57632">
        <ele>11.3</ele>
        <time>2020-08-14T16:29:34Z</time>
      </trkpt>
      <trkpt lat="48.78671" lon="-3.57632">
        <ele>11.3</ele>
        <time>2020-08-14T16:29:45Z</time>
      </trkpt>
      <trkpt lat="48.78671" lon="-3.57632">
        <ele>11.3</ele>
        <time>2020-08-14T16:29:49Z</time>
      </trkpt>
      <trkpt lat="48.78671" lon="-3.57632">
        <ele>11.3</ele>
        <time>2020-08-14T16:31:15Z</time>
      </trkpt>
      <trkpt lat="48.78671" lon="-3.57632">
        <ele>11.3</ele>
        <time>2020-08-14T16:31:19Z</time>
      </trkpt>
      <trkpt lat="48.78671" lon="-3.57632">
        <ele>11.3</ele>
        <time>2020-08-14T16:31:31Z</time>
      </trkpt>
      <trkpt lat="48.78671" lon="-3.57632">
        <ele>11.3</ele>
        <time>2020-08-14T16:31:32Z</time>
      </trkpt>
      <trkpt lat="48.78675" lon="-3.57611">
        <ele>12.6</ele>
        <time>2020-08-14T16:32:01Z</time>
      </trkpt>
      <trkpt lat="48.78675" lon="-3.57611">
        <ele>12.6</ele>
        <time>2020-08-14T16:32:06Z</time>
      </trkpt>
      <trkpt lat="48.78675" lon="-3.57611">
        <ele>12.6</ele>
        <time>2020-08-14T16:32:22Z</time>
      </trkpt>
      <trkpt lat="48.78675" lon="-3.57611">
        <ele>12.6</ele>
        <time>2020-08-14T16:32:27Z</time>
      </trkpt>
      <trkpt lat="48.78675" lon="-3.57611">
        <ele>12.6</ele>
        <time>2020-08-14T16:32:31Z</time>
      </trkpt>
      <trkpt lat="48.78675" lon="-3.57611">
        <ele>12.6</ele>
        <time>2020-08-14T16:32:49Z</time>
      </trkpt>
      <trkpt lat="48.78675" lon="-3.57611">
        <ele>12.6</ele>
        <time>2020-08-14T16:32:53Z</time>
      </trkpt>
      <trkpt lat="48.78675" lon="-3.57605">
        <ele>13.1</ele>
        <time>2020-08-14T16:33:00Z</time>
      </trkpt>
      <trkpt lat="48.78675" lon="-3.57605">
        <ele>13.1</ele>
        <time>2020-08-14T16:33:01Z</time>
      </trkpt>
      <trkpt lat="48.78675" lon="-3.57605">
        <ele>13.1</ele>
        <time>2020-08-14T16:33:06Z</time>
      </trkpt>
      <trkpt lat="48.78675" lon="-3.57605">
        <ele>13.1</ele>
        <time>2020-08-14T16:33:21Z</time>
      </trkpt>
      <trkpt lat="48.78675" lon="-3.57605">
        <ele>13.1</ele>
        <time>2020-08-14T16:33:26Z</time>
      </trkpt>
      <trkpt lat="48.78675" lon="-3.57605">
        <ele>13.1</ele>
        <time>2020-08-14T16:34:19Z</time>
      </trkpt>
      <trkpt lat="48.78675" lon="-3.57605">
        <ele>13.1</ele>
        <time>2020-08-14T16:34:22Z</time>
      </trkpt>
      <trkpt lat="48.78679" lon="-3.5763">
        <ele>11.3</ele>
        <time>2020-08-14T16:34:27Z</time>
      </trkpt>
      <trkpt lat="48.78679" lon="-3.5763">
        <ele>11.3</ele>
        <time>2020-08-14T16:34:31Z</time>
      </trkpt>
      <trkpt lat="48.78675" lon="-3.57605">
        <ele>13.1</ele>
        <time>2020-08-14T16:34:38Z</time>
      </trkpt>
      <trkpt lat="48.78675" lon="-3.57605">
        <ele>13.1</ele>
        <time>2020-08-14T16:34:40Z</time>
      </trkpt>
      <trkpt lat="48.7861" lon="-3.57599">
        <ele>12.4</ele>
        <time>2020-08-14T16:34:48Z</time>
      </trkpt>
      <trkpt lat="48.7861" lon="-3.57597">
        <ele>12.5</ele>
        <time>2020-08-14T16:34:53Z</time>
      </trkpt>
      <trkpt lat="48.78609" lon="-3.57596">
        <ele>12.5</ele>
        <time>2020-08-14T16:34:56Z</time>
      </trkpt>
      <trkpt lat="48.78609" lon="-3.57596">
        <ele>12.5</ele>
        <time>2020-08-14T16:35:01Z</time>
      </trkpt>
      <trkpt lat="48.78609" lon="-3.57594">
        <ele>12.6</ele>
        <time>2020-08-14T16:35:04Z</time>
      </trkpt>
      <trkpt lat="48.78609" lon="-3.57594">
        <ele>12.6</ele>
        <time>2020-08-14T16:35:10Z</time>
      </trkpt>
      <trkpt lat="48.78609" lon="-3.57594">
        <ele>12.6</ele>
        <time>2020-08-14T16:35:13Z</time>
      </trkpt>
      <trkpt lat="48.78609" lon="-3.57594">
        <ele>12.6</ele>
        <time>2020-08-14T16:35:15Z</time>
      </trkpt>
      <trkpt lat="48.78609" lon="-3.57594">
        <ele>12.6</ele>
        <time>2020-08-14T16:35:29Z</time>
      </trkpt>
      <trkpt lat="48.78609" lon="-3.57594">
        <ele>12.6</ele>
        <time>2020-08-14T16:35:31Z</time>
      </trkpt>
      <trkpt lat="48.78675" lon="-3.57605">
        <ele>13.1</ele>
        <time>2020-08-14T16:35:37Z</time>
      </trkpt>
      <trkpt lat="48.78675" lon="-3.57605">
        <ele>13.1</ele>
        <time>2020-08-14T16:35:42Z</time>
      </trkpt>
      <trkpt lat="48.78673" lon="-3.57632">
        <ele>11.3</ele>
        <time>2020-08-14T16:35:50Z</time>
      </trkpt>
      <trkpt lat="48.78673" lon="-3.57632">
        <ele>11.3</ele>
        <time>2020-08-14T16:35:58Z</time>
      </trkpt>
      <trkpt lat="48.78673" lon="-3.57632">
        <ele>11.3</ele>
        <time>2020-08-14T16:35:59Z</time>
      </trkpt>
      <trkpt lat="48.78673" lon="-3.57632">
        <ele>11.3</ele>
        <time>2020-08-14T16:36:12Z</time>
      </trkpt>
      <trkpt lat="48.78681" lon="-3.57629">
        <ele>11.4</ele>
        <time>2020-08-14T16:36:25Z</time>
      </trkpt>
      <trkpt lat="48.78682" lon="-3.57629">
        <ele>11.4</ele>
        <time>2020-08-14T16:36:28Z</time>
      </trkpt>
      <trkpt lat="48.78682" lon="-3.57629">
        <ele>11.4</ele>
        <time>2020-08-14T16:36:34Z</time>
      </trkpt>
      <trkpt lat="48.78682" lon="-3.57629">
        <ele>11.4</ele>
        <time>2020-08-14T16:36:35Z</time>
      </trkpt>
      <trkpt lat="48.78682" lon="-3.57629">
        <ele>11.4</ele>
        <time>2020-08-14T16:36:41Z</time>
      </trkpt>
      <trkpt lat="48.78677" lon="-3.57631">
        <ele>11.3</ele>
        <time>2020-08-14T16:36:48Z</time>
      </trkpt>
      <trkpt lat="48.78673" lon="-3.57632">
        <ele>11.3</ele>
        <time>2020-08-14T16:36:53Z</time>
      </trkpt>
      <trkpt lat="48.78673" lon="-3.57632">
        <ele>11.3</ele>
        <time>2020-08-14T16:36:59Z</time>
      </trkpt>
      <trkpt lat="48.78673" lon="-3.57632">
        <ele>11.3</ele>
        <time>2020-08-14T16:37:01Z</time>
      </trkpt>
      <trkpt lat="48.78673" lon="-3.57632">
        <ele>11.3</ele>
        <time>2020-08-14T16:37:17Z</time>
      </trkpt>
      <trkpt lat="48.78673" lon="-3.57632">
        <ele>11.3</ele>
        <time>2020-08-14T16:37:23Z</time>
      </trkpt>
      <trkpt lat="48.7867" lon="-3.57633">
        <ele>11.2</ele>
        <time>2020-08-14T16:37:31Z</time>
      </trkpt>
      <trkpt lat="48.7867" lon="-3.57633">
        <ele>11.2</ele>
        <time>2020-08-14T16:37:35Z</time>
      </trkpt>
      <trkpt lat="48.78675" lon="-3.57631">
        <ele>11.3</ele>
        <time>2020-08-14T16:37:41Z</time>
      </trkpt>
      <trkpt lat="48.78675" lon="-3.57631">
        <ele>11.3</ele>
        <time>2020-08-14T16:37:43Z</time>
      </trkpt>
      <trkpt lat="48.78675" lon="-3.57631">
        <ele>11.3</ele>
        <time>2020-08-14T16:37:54Z</time>
      </trkpt>
      <trkpt lat="48.78675" lon="-3.57605">
        <ele>13.1</ele>
        <time>2020-08-14T16:38:02Z</time>
      </trkpt>
      <trkpt lat="48.78691" lon="-3.57623">
        <ele>11.6</ele>
        <time>2020-08-14T16:38:08Z</time>
      </trkpt>
      <trkpt lat="48.78691" lon="-3.57623">
        <ele>11.6</ele>
        <time>2020-08-14T16:38:10Z</time>
      </trkpt>
      <trkpt lat="48.78675" lon="-3.57605">
        <ele>13.1</ele>
        <time>2020-08-14T16:38:12Z</time>
      </trkpt>
      <trkpt lat="48.78675" lon="-3.57605">
        <ele>13.1</ele>
        <time>2020-08-14T16:38:15Z</time>
      </trkpt>
      <trkpt lat="48.78698" lon="-3.57616">
        <ele>11.8</ele>
        <time>2020-08-14T16:38:24Z</time>
      </trkpt>
      <trkpt lat="48.78698" lon="-3.57616">
        <ele>11.8</ele>
        <time>2020-08-14T16:38:25Z</time>
      </trkpt>
      <trkpt lat="48.78698" lon="-3.57616">
        <ele>11.8</ele>
        <time>2020-08-14T16:38:33Z</time>
      </trkpt>
      <trkpt lat="48.78698" lon="-3.57616">
        <ele>11.8</ele>
        <time>2020-08-14T16:38:34Z</time>
      </trkpt>
      <trkpt lat="48.78698" lon="-3.57616">
        <ele>11.8</ele>
        <time>2020-08-14T16:39:08Z</time>
      </trkpt>
      <trkpt lat="48.78698" lon="-3.57616">
        <ele>11.8</ele>
        <time>2020-08-14T16:39:12Z</time>
      </trkpt>
      <trkpt lat="48.78687" lon="-3.57628">
        <ele>11.4</ele>
        <time>2020-08-14T16:39:24Z</time>
      </trkpt>
      <trkpt lat="48.78675" lon="-3.57605">
        <ele>13.1</ele>
        <time>2020-08-14T16:39:30Z</time>
      </trkpt>
      <trkpt lat="48.78675" lon="-3.57605">
        <ele>13.1</ele>
        <time>2020-08-14T16:39:40Z</time>
      </trkpt>
      <trkpt lat="48.78675" lon="-3.57605">
        <ele>13.1</ele>
        <time>2020-08-14T16:39:43Z</time>
      </trkpt>
      <trkpt lat="48.78625" lon="-3.57639">
        <ele>10.9</ele>
        <time>2020-08-14T16:39:49Z</time>
      </trkpt>
      <trkpt lat="48.78625" lon="-3.57639">
        <ele>10.9</ele>
        <time>2020-08-14T16:39:56Z</time>
      </trkpt>
      <trkpt lat="48.78627" lon="-3.57641">
        <ele>10.9</ele>
        <time>2020-08-14T16:40:03Z</time>
      </trkpt>
      <trkpt lat="48.78627" lon="-3.57641">
        <ele>10.9</ele>
        <time>2020-08-14T16:40:07Z</time>
      </trkpt>
      <trkpt lat="48.78625" lon="-3.57639">
        <ele>10.9</ele>
        <time>2020-08-14T16:40:10Z</time>
      </trkpt>
      <trkpt lat="48.78624" lon="-3.57638">
        <ele>11</ele>
        <time>2020-08-14T16:40:14Z</time>
      </trkpt>
      <trkpt lat="48.7861" lon="-3.57598">
        <ele>12.4</ele>
        <time>2020-08-14T16:40:16Z</time>
      </trkpt>
      <trkpt lat="48.78611" lon="-3.57602">
        <ele>12.3</ele>
        <time>2020-08-14T16:40:22Z</time>
      </trkpt>
      <trkpt lat="48.78611" lon="-3.57602">
        <ele>12.3</ele>
        <time>2020-08-14T16:40:23Z</time>
      </trkpt>
      <trkpt lat="48.78611" lon="-3.57602">
        <ele>12.3</ele>
        <time>2020-08-14T16:40:32Z</time>
      </trkpt>
      <trkpt lat="48.78611" lon="-3.57602">
        <ele>12.3</ele>
        <time>2020-08-14T16:41:35Z</time>
      </trkpt>
      <trkpt lat="48.78611" lon="-3.57602">
        <ele>12.3</ele>
        <time>2020-08-14T16:41:50Z</time>
      </trkpt>
      <trkpt lat="48.78611" lon="-3.57602">
        <ele>12.3</ele>
        <time>2020-08-14T16:42:33Z</time>
      </trkpt>
      <trkpt lat="48.78611" lon="-3.57602">
        <ele>12.3</ele>
        <time>2020-08-14T16:44:31Z</time>
      </trkpt>
      <trkpt lat="48.78611" lon="-3.57602">
        <ele>12.3</ele>
        <time>2020-08-14T16:46:14Z</time>
      </trkpt>
      <trkpt lat="48.78611" lon="-3.57602">
        <ele>12.3</ele>
        <time>2020-08-14T16:46:24Z</time>
      </trkpt>
      <trkpt lat="48.78611" lon="-3.57602">
        <ele>12.3</ele>
        <time>2020-08-14T16:46:43Z</time>
      </trkpt>
      <trkpt lat="48.78611" lon="-3.57602">
        <ele>12.3</ele>
        <time>2020-08-14T16:46:48Z</time>
      </trkpt>
      <trkpt lat="48.78611" lon="-3.57602">
        <ele>12.3</ele>
        <time>2020-08-14T16:47:27Z</time>
      </trkpt>
      <trkpt lat="48.78611" lon="-3.57602">
        <ele>12.3</ele>
        <time>2020-08-14T16:47:28Z</time>
      </trkpt>
      <trkpt lat="48.78611" lon="-3.57602">
        <ele>12.3</ele>
        <time>2020-08-14T16:47:34Z</time>
      </trkpt>
      <trkpt lat="48.78611" lon="-3.57602">
        <ele>12.3</ele>
        <time>2020-08-14T16:47:42Z</time>
      </trkpt>
      <trkpt lat="48.78611" lon="-3.57602">
        <ele>12.3</ele>
        <time>2020-08-14T16:52:41Z</time>
      </trkpt>
      <trkpt lat="48.78611" lon="-3.57602">
        <ele>12.3</ele>
        <time>2020-08-14T16:52:44Z</time>
      </trkpt>
      <trkpt lat="48.78611" lon="-3.57602">
        <ele>12.3</ele>
        <time>2020-08-14T16:53:04Z</time>
      </trkpt>
      <trkpt lat="48.78611" lon="-3.57602">
        <ele>12.3</ele>
        <time>2020-08-14T16:53:14Z</time>
      </trkpt>
      <trkpt lat="48.78612" lon="-3.57605">
        <ele>12.2</ele>
        <time>2020-08-14T16:53:20Z</time>
      </trkpt>
      <trkpt lat="48.78612" lon="-3.57605">
        <ele>12.2</ele>
        <time>2020-08-14T16:53:25Z</time>
      </trkpt>
      <trkpt lat="48.78612" lon="-3.57605">
        <ele>12.2</ele>
        <time>2020-08-14T16:53:32Z</time>
      </trkpt>
      <trkpt lat="48.78612" lon="-3.57605">
        <ele>12.2</ele>
        <time>2020-08-14T16:53:41Z</time>
      </trkpt>
      <trkpt lat="48.78612" lon="-3.57605">
        <ele>12.2</ele>
        <time>2020-08-14T16:53:57Z</time>
      </trkpt>
      <trkpt lat="48.78612" lon="-3.57605">
        <ele>12.2</ele>
        <time>2020-08-14T16:54:03Z</time>
      </trkpt>
      <trkpt lat="48.78612" lon="-3.57605">
        <ele>12.2</ele>
        <time>2020-08-14T16:54:05Z</time>
      </trkpt>
      <trkpt lat="48.78612" lon="-3.57605">
        <ele>12.2</ele>
        <time>2020-08-14T16:54:12Z</time>
      </trkpt>
      <trkpt lat="48.78612" lon="-3.57605">
        <ele>12.2</ele>
        <time>2020-08-14T16:54:23Z</time>
      </trkpt>
      <trkpt lat="48.78612" lon="-3.57605">
        <ele>12.2</ele>
        <time>2020-08-14T16:54:24Z</time>
      </trkpt>
      <trkpt lat="48.78612" lon="-3.57605">
        <ele>12.2</ele>
        <time>2020-08-14T16:55:20Z</time>
      </trkpt>
      <trkpt lat="48.78612" lon="-3.57605">
        <ele>12.2</ele>
        <time>2020-08-14T16:55:32Z</time>
      </trkpt>
      <trkpt lat="48.78612" lon="-3.57605">
        <ele>12.2</ele>
        <time>2020-08-14T16:55:34Z</time>
      </trkpt>
      <trkpt lat="48.78612" lon="-3.57605">
        <ele>12.2</ele>
        <time>2020-08-14T16:56:31Z</time>
      </trkpt>
      <trkpt lat="48.78611" lon="-3.57602">
        <ele>12.3</ele>
        <time>2020-08-14T16:56:38Z</time>
      </trkpt>
      <trkpt lat="48.78611" lon="-3.57602">
        <ele>12.3</ele>
        <time>2020-08-14T16:56:45Z</time>
      </trkpt>
      <trkpt lat="48.78611" lon="-3.57602">
        <ele>12.3</ele>
        <time>2020-08-14T16:56:47Z</time>
      </trkpt>
      <trkpt lat="48.78611" lon="-3.57602">
        <ele>12.3</ele>
        <time>2020-08-14T16:56:55Z</time>
      </trkpt>
      <trkpt lat="48.78611" lon="-3.57602">
        <ele>12.3</ele>
        <time>2020-08-14T16:57:20Z</time>
      </trkpt>
      <trkpt lat="48.78611" lon="-3.57602">
        <ele>12.3</ele>
        <time>2020-08-14T16:57:26Z</time>
      </trkpt>
      <trkpt lat="48.78611" lon="-3.57602">
        <ele>12.3</ele>
        <time>2020-08-14T16:57:49Z</time>
      </trkpt>
      <trkpt lat="48.78611" lon="-3.57602">
        <ele>12.3</ele>
        <time>2020-08-14T16:57:51Z</time>
      </trkpt>
      <trkpt lat="48.78612" lon="-3.57606">
        <ele>12.2</ele>
        <time>2020-08-14T16:58:18Z</time>
      </trkpt>
      <trkpt lat="48.78612" lon="-3.57606">
        <ele>12.2</ele>
        <time>2020-08-14T16:58:33Z</time>
      </trkpt>
      <trkpt lat="48.78612" lon="-3.57606">
        <ele>12.2</ele>
        <time>2020-08-14T16:58:36Z</time>
      </trkpt>
      <trkpt lat="48.78612" lon="-3.57607">
        <ele>12.1</ele>
        <time>2020-08-14T16:59:00Z</time>
      </trkpt>
      <trkpt lat="48.78612" lon="-3.57607">
        <ele>12.1</ele>
        <time>2020-08-14T16:59:04Z</time>
      </trkpt>
      <trkpt lat="48.78612" lon="-3.57607">
        <ele>12.1</ele>
        <time>2020-08-14T16:59:12Z</time>
      </trkpt>
      <trkpt lat="48.78612" lon="-3.57607">
        <ele>12.1</ele>
        <time>2020-08-14T16:59:16Z</time>
      </trkpt>
      <trkpt lat="48.78612" lon="-3.57607">
        <ele>12.1</ele>
        <time>2020-08-14T16:59:21Z</time>
      </trkpt>
      <trkpt lat="48.78612" lon="-3.57607">
        <ele>12.1</ele>
        <time>2020-08-14T16:59:37Z</time>
      </trkpt>
      <trkpt lat="48.78612" lon="-3.57607">
        <ele>12.1</ele>
        <time>2020-08-14T16:59:40Z</time>
      </trkpt>
      <trkpt lat="48.78612" lon="-3.57607">
        <ele>12.1</ele>
        <time>2020-08-14T16:59:41Z</time>
      </trkpt>
      <trkpt lat="48.78628" lon="-3.57642">
        <ele>10.9</ele>
        <time>2020-08-14T16:59:48Z</time>
      </trkpt>
      <trkpt lat="48.78628" lon="-3.57642">
        <ele>10.9</ele>
        <time>2020-08-14T16:59:52Z</time>
      </trkpt>
      <trkpt lat="48.78628" lon="-3.57642">
        <ele>10.9</ele>
        <time>2020-08-14T17:00:07Z</time>
      </trkpt>
      <trkpt lat="48.78628" lon="-3.57642">
        <ele>10.9</ele>
        <time>2020-08-14T17:00:32Z</time>
      </trkpt>
      <trkpt lat="48.78628" lon="-3.57642">
        <ele>10.9</ele>
        <time>2020-08-14T17:00:58Z</time>
      </trkpt>
      <trkpt lat="48.78628" lon="-3.57642">
        <ele>10.9</ele>
        <time>2020-08-14T17:00:59Z</time>
      </trkpt>
      <trkpt lat="48.78628" lon="-3.57642">
        <ele>10.9</ele>
        <time>2020-08-14T17:01:14Z</time>
      </trkpt>
      <trkpt lat="48.78628" lon="-3.57642">
        <ele>10.9</ele>
        <time>2020-08-14T17:01:58Z</time>
      </trkpt>
      <trkpt lat="48.78628" lon="-3.57642">
        <ele>10.9</ele>
        <time>2020-08-14T17:02:16Z</time>
      </trkpt>
      <trkpt lat="48.78628" lon="-3.57642">
        <ele>10.9</ele>
        <time>2020-08-14T17:02:32Z</time>
      </trkpt>
      <trkpt lat="48.78628" lon="-3.57642">
        <ele>10.9</ele>
        <time>2020-08-14T17:02:40Z</time>
      </trkpt>
      <trkpt lat="48.78628" lon="-3.57642">
        <ele>10.9</ele>
        <time>2020-08-14T17:05:21Z</time>
      </trkpt>
      <trkpt lat="48.78628" lon="-3.57642">
        <ele>10.9</ele>
        <time>2020-08-14T17:05:22Z</time>
      </trkpt>
      <trkpt lat="48.78628" lon="-3.57642">
        <ele>10.9</ele>
        <time>2020-08-14T17:05:26Z</time>
      </trkpt>
      <trkpt lat="48.78628" lon="-3.57642">
        <ele>10.9</ele>
        <time>2020-08-14T17:05:42Z</time>
      </trkpt>
      <trkpt lat="48.78628" lon="-3.57642">
        <ele>10.9</ele>
        <time>2020-08-14T17:06:10Z</time>
      </trkpt>
      <trkpt lat="48.78628" lon="-3.57642">
        <ele>10.9</ele>
        <time>2020-08-14T17:06:16Z</time>
      </trkpt>
      <trkpt lat="48.78628" lon="-3.57642">
        <ele>10.9</ele>
        <time>2020-08-14T17:06:19Z</time>
      </trkpt>
      <trkpt lat="48.78628" lon="-3.57642">
        <ele>10.9</ele>
        <time>2020-08-14T17:06:27Z</time>
      </trkpt>
      <trkpt lat="48.78687" lon="-3.57628">
        <ele>11.4</ele>
        <time>2020-08-14T17:06:31Z</time>
      </trkpt>
      <trkpt lat="48.78673" lon="-3.57632">
        <ele>11.3</ele>
        <time>2020-08-14T17:06:48Z</time>
      </trkpt>
      <trkpt lat="48.78673" lon="-3.57632">
        <ele>11.3</ele>
        <time>2020-08-14T17:06:57Z</time>
      </trkpt>
      <trkpt lat="48.78673" lon="-3.57632">
        <ele>11.3</ele>
        <time>2020-08-14T17:07:02Z</time>
      </trkpt>
      <trkpt lat="48.78673" lon="-3.57632">
        <ele>11.3</ele>
        <time>2020-08-14T17:07:07Z</time>
      </trkpt>
      <trkpt lat="48.78673" lon="-3.57632">
        <ele>11.3</ele>
        <time>2020-08-14T17:07:26Z</time>
      </trkpt>
      <trkpt lat="48.78673" lon="-3.57632">
        <ele>11.3</ele>
        <time>2020-08-14T17:07:33Z</time>
      </trkpt>
      <trkpt lat="48.78673" lon="-3.57632">
        <ele>11.3</ele>
        <time>2020-08-14T17:08:30Z</time>
      </trkpt>
      <trkpt lat="48.78673" lon="-3.57632">
        <ele>11.3</ele>
        <time>2020-08-14T17:08:49Z</time>
      </trkpt>
      <trkpt lat="48.78658" lon="-3.57637">
        <ele>11.1</ele>
        <time>2020-08-14T17:08:54Z</time>
      </trkpt>
      <trkpt lat="48.78658" lon="-3.57637">
        <ele>11.1</ele>
        <time>2020-08-14T17:08:55Z</time>
      </trkpt>
      <trkpt lat="48.78035" lon="-3.57885">
        <ele>8.6</ele>
        <time>2020-08-15T08:35:14Z</time>
      </trkpt>
      <trkpt lat="48.78027" lon="-3.57888">
        <ele>8.5</ele>
        <time>2020-08-15T08:35:17Z</time>
      </trkpt>
      <trkpt lat="48.78008" lon="-3.57895">
        <ele>8.2</ele>
        <time>2020-08-15T08:35:26Z</time>
      </trkpt>
      <trkpt lat="48.77988" lon="-3.57901">
        <ele>10.3</ele>
        <time>2020-08-15T08:35:35Z</time>
      </trkpt>
      <trkpt lat="48.7797" lon="-3.57908">
        <ele>11.5</ele>
        <time>2020-08-15T08:35:44Z</time>
      </trkpt>
      <trkpt lat="48.77955" lon="-3.57913">
        <ele>12.5</ele>
        <time>2020-08-15T08:35:53Z</time>
      </trkpt>
      <trkpt lat="48.77944" lon="-3.57917">
        <ele>12.3</ele>
        <time>2020-08-15T08:36:00Z</time>
      </trkpt>
      <trkpt lat="48.77925" lon="-3.57923">
        <ele>13.8</ele>
        <time>2020-08-15T08:36:11Z</time>
      </trkpt>
      <trkpt lat="48.7791" lon="-3.57928">
        <ele>15.9</ele>
        <time>2020-08-15T08:36:20Z</time>
      </trkpt>
      <trkpt lat="48.77895" lon="-3.57933">
        <ele>16.7</ele>
        <time>2020-08-15T08:36:30Z</time>
      </trkpt>
      <trkpt lat="48.77879" lon="-3.57934">
        <ele>17.4</ele>
        <time>2020-08-15T08:36:41Z</time>
      </trkpt>
      <trkpt lat="48.77863" lon="-3.57934">
        <ele>18.3</ele>
        <time>2020-08-15T08:36:51Z</time>
      </trkpt>
      <trkpt lat="48.77847" lon="-3.57931">
        <ele>19.2</ele>
        <time>2020-08-15T08:37:02Z</time>
      </trkpt>
      <trkpt lat="48.77832" lon="-3.57928">
        <ele>22.1</ele>
        <time>2020-08-15T08:37:12Z</time>
      </trkpt>
      <trkpt lat="48.77825" lon="-3.57927">
        <ele>22.3</ele>
        <time>2020-08-15T08:37:21Z</time>
      </trkpt>
      <trkpt lat="48.77825" lon="-3.57927">
        <ele>22.3</ele>
        <time>2020-08-15T08:37:29Z</time>
      </trkpt>
      <trkpt lat="48.77796" lon="-3.57921">
        <ele>23.8</ele>
        <time>2020-08-15T08:37:38Z</time>
      </trkpt>
      <trkpt lat="48.77796" lon="-3.57921">
        <ele>23.8</ele>
        <time>2020-08-15T08:37:47Z</time>
      </trkpt>
      <trkpt lat="48.7776" lon="-3.57914">
        <ele>24.9</ele>
        <time>2020-08-15T08:37:55Z</time>
      </trkpt>
      <trkpt lat="48.77734" lon="-3.57909">
        <ele>26.1</ele>
        <time>2020-08-15T08:38:06Z</time>
      </trkpt>
      <trkpt lat="48.77717" lon="-3.57905">
        <ele>26.3</ele>
        <time>2020-08-15T08:38:14Z</time>
      </trkpt>
      <trkpt lat="48.77699" lon="-3.57902">
        <ele>26.7</ele>
        <time>2020-08-15T08:38:24Z</time>
      </trkpt>
      <trkpt lat="48.77676" lon="-3.57898">
        <ele>27.3</ele>
        <time>2020-08-15T08:38:35Z</time>
      </trkpt>
      <trkpt lat="48.77645" lon="-3.57891">
        <ele>28</ele>
        <time>2020-08-15T08:38:46Z</time>
      </trkpt>
      <trkpt lat="48.77607" lon="-3.57882">
        <ele>27.8</ele>
        <time>2020-08-15T08:38:57Z</time>
      </trkpt>
      <trkpt lat="48.77561" lon="-3.57873">
        <ele>28.4</ele>
        <time>2020-08-15T08:39:09Z</time>
      </trkpt>
      <trkpt lat="48.77531" lon="-3.57867">
        <ele>28.6</ele>
        <time>2020-08-15T08:39:17Z</time>
      </trkpt>
      <trkpt lat="48.77506" lon="-3.57861">
        <ele>28.7</ele>
        <time>2020-08-15T08:39:24Z</time>
      </trkpt>
      <trkpt lat="48.77494" lon="-3.57858">
        <ele>28.8</ele>
        <time>2020-08-15T08:39:27Z</time>
      </trkpt>
      <trkpt lat="48.77459" lon="-3.57851">
        <ele>28.7</ele>
        <time>2020-08-15T08:39:35Z</time>
      </trkpt>
      <trkpt lat="48.77428" lon="-3.57846">
        <ele>28.4</ele>
        <time>2020-08-15T08:39:42Z</time>
      </trkpt>
      <trkpt lat="48.77386" lon="-3.57838">
        <ele>29</ele>
        <time>2020-08-15T08:39:52Z</time>
      </trkpt>
      <trkpt lat="48.77355" lon="-3.57831">
        <ele>29.4</ele>
        <time>2020-08-15T08:40:01Z</time>
      </trkpt>
      <trkpt lat="48.77335" lon="-3.57826">
        <ele>29.8</ele>
        <time>2020-08-15T08:40:09Z</time>
      </trkpt>
      <trkpt lat="48.77313" lon="-3.57822">
        <ele>31.6</ele>
        <time>2020-08-15T08:40:19Z</time>
      </trkpt>
      <trkpt lat="48.7729" lon="-3.57819">
        <ele>32.4</ele>
        <time>2020-08-15T08:40:29Z</time>
      </trkpt>
      <trkpt lat="48.7727" lon="-3.57816">
        <ele>33</ele>
        <time>2020-08-15T08:40:38Z</time>
      </trkpt>
      <trkpt lat="48.77245" lon="-3.57812">
        <ele>35.3</ele>
        <time>2020-08-15T08:40:51Z</time>
      </trkpt>
      <trkpt lat="48.77239" lon="-3.57811">
        <ele>35.4</ele>
        <time>2020-08-15T08:40:54Z</time>
      </trkpt>
      <trkpt lat="48.77229" lon="-3.57809">
        <ele>35.7</ele>
        <time>2020-08-15T08:41:01Z</time>
      </trkpt>
      <trkpt lat="48.77229" lon="-3.57809">
        <ele>35.7</ele>
        <time>2020-08-15T08:41:10Z</time>
      </trkpt>
      <trkpt lat="48.77199" lon="-3.57802">
        <ele>36.4</ele>
        <time>2020-08-15T08:41:17Z</time>
      </trkpt>
      <trkpt lat="48.77188" lon="-3.57799">
        <ele>36.7</ele>
        <time>2020-08-15T08:41:27Z</time>
      </trkpt>
      <trkpt lat="48.77158" lon="-3.57793">
        <ele>38.7</ele>
        <time>2020-08-15T08:41:38Z</time>
      </trkpt>
      <trkpt lat="48.77139" lon="-3.57789">
        <ele>38.9</ele>
        <time>2020-08-15T08:41:48Z</time>
      </trkpt>
      <trkpt lat="48.77125" lon="-3.57785">
        <ele>39.1</ele>
        <time>2020-08-15T08:41:55Z</time>
      </trkpt>
      <trkpt lat="48.77109" lon="-3.57773">
        <ele>39.6</ele>
        <time>2020-08-15T08:42:04Z</time>
      </trkpt>
      <trkpt lat="48.77094" lon="-3.57756">
        <ele>40.8</ele>
        <time>2020-08-15T08:42:14Z</time>
      </trkpt>
      <trkpt lat="48.77083" lon="-3.57742">
        <ele>43</ele>
        <time>2020-08-15T08:42:23Z</time>
      </trkpt>
      <trkpt lat="48.77056" lon="-3.57763">
        <ele>42.6</ele>
        <time>2020-08-15T08:42:32Z</time>
      </trkpt>
      <trkpt lat="48.77039" lon="-3.57762">
        <ele>43.2</ele>
        <time>2020-08-15T08:42:41Z</time>
      </trkpt>
      <trkpt lat="48.77022" lon="-3.57762">
        <ele>44.1</ele>
        <time>2020-08-15T08:42:50Z</time>
      </trkpt>
      <trkpt lat="48.77001" lon="-3.57763">
        <ele>45.2</ele>
        <time>2020-08-15T08:43:00Z</time>
      </trkpt>
      <trkpt lat="48.76982" lon="-3.57766">
        <ele>46.8</ele>
        <time>2020-08-15T08:43:09Z</time>
      </trkpt>
      <trkpt lat="48.76968" lon="-3.57771">
        <ele>46.9</ele>
        <time>2020-08-15T08:43:16Z</time>
      </trkpt>
      <trkpt lat="48.76949" lon="-3.57779">
        <ele>47.1</ele>
        <time>2020-08-15T08:43:26Z</time>
      </trkpt>
      <trkpt lat="48.76935" lon="-3.57787">
        <ele>47.3</ele>
        <time>2020-08-15T08:43:34Z</time>
      </trkpt>
      <trkpt lat="48.76918" lon="-3.57796">
        <ele>47.4</ele>
        <time>2020-08-15T08:43:43Z</time>
      </trkpt>
      <trkpt lat="48.769" lon="-3.57804">
        <ele>49.6</ele>
        <time>2020-08-15T08:43:53Z</time>
      </trkpt>
      <trkpt lat="48.76884" lon="-3.57811">
        <ele>49.7</ele>
        <time>2020-08-15T08:44:01Z</time>
      </trkpt>
      <trkpt lat="48.76863" lon="-3.57816">
        <ele>49.9</ele>
        <time>2020-08-15T08:44:12Z</time>
      </trkpt>
      <trkpt lat="48.76842" lon="-3.57817">
        <ele>49.8</ele>
        <time>2020-08-15T08:44:24Z</time>
      </trkpt>
      <trkpt lat="48.7683" lon="-3.57815">
        <ele>49.9</ele>
        <time>2020-08-15T08:44:31Z</time>
      </trkpt>
      <trkpt lat="48.76818" lon="-3.57812">
        <ele>50</ele>
        <time>2020-08-15T08:44:39Z</time>
      </trkpt>
      <trkpt lat="48.76805" lon="-3.57808">
        <ele>50</ele>
        <time>2020-08-15T08:44:47Z</time>
      </trkpt>
      <trkpt lat="48.76795" lon="-3.57802">
        <ele>50</ele>
        <time>2020-08-15T08:44:54Z</time>
      </trkpt>
      <trkpt lat="48.76786" lon="-3.57798">
        <ele>50</ele>
        <time>2020-08-15T08:45:01Z</time>
      </trkpt>
      <trkpt lat="48.76786" lon="-3.57798">
        <ele>50</ele>
        <time>2020-08-15T08:45:02Z</time>
      </trkpt>
      <trkpt lat="48.76786" lon="-3.57798">
        <ele>50</ele>
        <time>2020-08-15T08:46:48Z</time>
      </trkpt>
      <trkpt lat="48.76773" lon="-3.5779">
        <ele>50.3</ele>
        <time>2020-08-15T08:47:35Z</time>
      </trkpt>
      <trkpt lat="48.76754" lon="-3.57775">
        <ele>51.6</ele>
        <time>2020-08-15T08:47:44Z</time>
      </trkpt>
      <trkpt lat="48.76737" lon="-3.57757">
        <ele>48.3</ele>
        <time>2020-08-15T08:47:53Z</time>
      </trkpt>
      <trkpt lat="48.7673" lon="-3.57748">
        <ele>52.3</ele>
        <time>2020-08-15T08:47:58Z</time>
      </trkpt>
      <trkpt lat="48.7673" lon="-3.57748">
        <ele>52.3</ele>
        <time>2020-08-15T08:47:59Z</time>
      </trkpt>
      <trkpt lat="48.76726" lon="-3.57741">
        <ele>51.8</ele>
        <time>2020-08-15T08:49:28Z</time>
      </trkpt>
      <trkpt lat="48.76718" lon="-3.57729">
        <ele>51.2</ele>
        <time>2020-08-15T08:49:37Z</time>
      </trkpt>
      <trkpt lat="48.76711" lon="-3.57719">
        <ele>50.9</ele>
        <time>2020-08-15T08:49:44Z</time>
      </trkpt>
      <trkpt lat="48.76704" lon="-3.57705">
        <ele>51.1</ele>
        <time>2020-08-15T08:49:51Z</time>
      </trkpt>
      <trkpt lat="48.76694" lon="-3.57685">
        <ele>51.6</ele>
        <time>2020-08-15T08:50:00Z</time>
      </trkpt>
      <trkpt lat="48.76681" lon="-3.57662">
        <ele>54.5</ele>
        <time>2020-08-15T08:50:06Z</time>
      </trkpt>
      <trkpt lat="48.76658" lon="-3.57624">
        <ele>53.9</ele>
        <time>2020-08-15T08:50:14Z</time>
      </trkpt>
      <trkpt lat="48.7663" lon="-3.57589">
        <ele>54.8</ele>
        <time>2020-08-15T08:50:22Z</time>
      </trkpt>
      <trkpt lat="48.766" lon="-3.5757">
        <ele>58.2</ele>
        <time>2020-08-15T08:50:30Z</time>
      </trkpt>
      <trkpt lat="48.76581" lon="-3.57563">
        <ele>58.9</ele>
        <time>2020-08-15T08:50:37Z</time>
      </trkpt>
      <trkpt lat="48.76558" lon="-3.57556">
        <ele>59.7</ele>
        <time>2020-08-15T08:50:47Z</time>
      </trkpt>
      <trkpt lat="48.76539" lon="-3.57555">
        <ele>60.2</ele>
        <time>2020-08-15T08:50:55Z</time>
      </trkpt>
      <trkpt lat="48.76517" lon="-3.57555">
        <ele>60.4</ele>
        <time>2020-08-15T08:51:04Z</time>
      </trkpt>
      <trkpt lat="48.76498" lon="-3.57555">
        <ele>61</ele>
        <time>2020-08-15T08:51:12Z</time>
      </trkpt>
      <trkpt lat="48.76466" lon="-3.57555">
        <ele>61</ele>
        <time>2020-08-15T08:51:23Z</time>
      </trkpt>
      <trkpt lat="48.76437" lon="-3.57556">
        <ele>60.6</ele>
        <time>2020-08-15T08:51:32Z</time>
      </trkpt>
      <trkpt lat="48.76405" lon="-3.57556">
        <ele>59.9</ele>
        <time>2020-08-15T08:51:43Z</time>
      </trkpt>
      <trkpt lat="48.76382" lon="-3.57555">
        <ele>60.2</ele>
        <time>2020-08-15T08:51:51Z</time>
      </trkpt>
      <trkpt lat="48.76354" lon="-3.5755">
        <ele>60.2</ele>
        <time>2020-08-15T08:52:00Z</time>
      </trkpt>
      <trkpt lat="48.76321" lon="-3.57538">
        <ele>60.7</ele>
        <time>2020-08-15T08:52:10Z</time>
      </trkpt>
      <trkpt lat="48.76292" lon="-3.57525">
        <ele>61.1</ele>
        <time>2020-08-15T08:52:19Z</time>
      </trkpt>
      <trkpt lat="48.76263" lon="-3.5751">
        <ele>61.9</ele>
        <time>2020-08-15T08:52:27Z</time>
      </trkpt>
      <trkpt lat="48.76237" lon="-3.57496">
        <ele>63.1</ele>
        <time>2020-08-15T08:52:35Z</time>
      </trkpt>
      <trkpt lat="48.76243" lon="-3.57466">
        <ele>63.3</ele>
        <time>2020-08-15T08:52:40Z</time>
      </trkpt>
      <trkpt lat="48.76242" lon="-3.57458">
        <ele>63.3</ele>
        <time>2020-08-15T08:52:43Z</time>
      </trkpt>
      <trkpt lat="48.76241" lon="-3.57451">
        <ele>63.4</ele>
        <time>2020-08-15T08:52:51Z</time>
      </trkpt>
      <trkpt lat="48.76264" lon="-3.57411">
        <ele>65.2</ele>
        <time>2020-08-15T08:53:01Z</time>
      </trkpt>
      <trkpt lat="48.7628" lon="-3.57384">
        <ele>65.4</ele>
        <time>2020-08-15T08:53:10Z</time>
      </trkpt>
      <trkpt lat="48.76303" lon="-3.57347">
        <ele>65.8</ele>
        <time>2020-08-15T08:53:21Z</time>
      </trkpt>
      <trkpt lat="48.76316" lon="-3.57332">
        <ele>67.3</ele>
        <time>2020-08-15T08:53:27Z</time>
      </trkpt>
      <trkpt lat="48.76333" lon="-3.5731">
        <ele>67.6</ele>
        <time>2020-08-15T08:53:35Z</time>
      </trkpt>
      <trkpt lat="48.76346" lon="-3.57277">
        <ele>68.7</ele>
        <time>2020-08-15T08:53:44Z</time>
      </trkpt>
      <trkpt lat="48.76354" lon="-3.57255">
        <ele>69</ele>
        <time>2020-08-15T08:53:50Z</time>
      </trkpt>
      <trkpt lat="48.76365" lon="-3.57236">
        <ele>70.6</ele>
        <time>2020-08-15T08:53:57Z</time>
      </trkpt>
      <trkpt lat="48.76381" lon="-3.57215">
        <ele>70.8</ele>
        <time>2020-08-15T08:54:07Z</time>
      </trkpt>
      <trkpt lat="48.76391" lon="-3.57202">
        <ele>71</ele>
        <time>2020-08-15T08:54:14Z</time>
      </trkpt>
      <trkpt lat="48.76402" lon="-3.57187">
        <ele>71.3</ele>
        <time>2020-08-15T08:54:22Z</time>
      </trkpt>
      <trkpt lat="48.76418" lon="-3.57164">
        <ele>72.1</ele>
        <time>2020-08-15T08:54:34Z</time>
      </trkpt>
      <trkpt lat="48.76428" lon="-3.57139">
        <ele>72.5</ele>
        <time>2020-08-15T08:54:44Z</time>
      </trkpt>
      <trkpt lat="48.76431" lon="-3.57119">
        <ele>72.9</ele>
        <time>2020-08-15T08:54:52Z</time>
      </trkpt>
      <trkpt lat="48.76434" lon="-3.57088">
        <ele>73.8</ele>
        <time>2020-08-15T08:55:03Z</time>
      </trkpt>
      <trkpt lat="48.76435" lon="-3.57065">
        <ele>75.5</ele>
        <time>2020-08-15T08:55:11Z</time>
      </trkpt>
      <trkpt lat="48.76438" lon="-3.57035">
        <ele>76.2</ele>
        <time>2020-08-15T08:55:22Z</time>
      </trkpt>
      <trkpt lat="48.76442" lon="-3.57014">
        <ele>76.7</ele>
        <time>2020-08-15T08:55:29Z</time>
      </trkpt>
      <trkpt lat="48.76447" lon="-3.56987">
        <ele>78.2</ele>
        <time>2020-08-15T08:55:38Z</time>
      </trkpt>
      <trkpt lat="48.76456" lon="-3.56963">
        <ele>78.2</ele>
        <time>2020-08-15T08:55:47Z</time>
      </trkpt>
      <trkpt lat="48.76467" lon="-3.56939">
        <ele>78.4</ele>
        <time>2020-08-15T08:55:55Z</time>
      </trkpt>
      <trkpt lat="48.76471" lon="-3.56932">
        <ele>78.4</ele>
        <time>2020-08-15T08:55:57Z</time>
      </trkpt>
      <trkpt lat="48.76494" lon="-3.569">
        <ele>78.2</ele>
        <time>2020-08-15T08:56:04Z</time>
      </trkpt>
      <trkpt lat="48.76532" lon="-3.56858">
        <ele>77.1</ele>
        <time>2020-08-15T08:56:13Z</time>
      </trkpt>
      <trkpt lat="48.76544" lon="-3.56846">
        <ele>77.2</ele>
        <time>2020-08-15T08:56:16Z</time>
      </trkpt>
      <trkpt lat="48.76534" lon="-3.56831">
        <ele>76.2</ele>
        <time>2020-08-15T08:56:19Z</time>
      </trkpt>
      <trkpt lat="48.76534" lon="-3.56792">
        <ele>75.9</ele>
        <time>2020-08-15T08:56:25Z</time>
      </trkpt>
      <trkpt lat="48.76538" lon="-3.56739">
        <ele>73.5</ele>
        <time>2020-08-15T08:56:31Z</time>
      </trkpt>
      <trkpt lat="48.76542" lon="-3.56702">
        <ele>72.9</ele>
        <time>2020-08-15T08:56:35Z</time>
      </trkpt>
      <trkpt lat="48.76551" lon="-3.56658">
        <ele>70.9</ele>
        <time>2020-08-15T08:56:42Z</time>
      </trkpt>
      <trkpt lat="48.76556" lon="-3.56645">
        <ele>70.9</ele>
        <time>2020-08-15T08:56:44Z</time>
      </trkpt>
      <trkpt lat="48.76579" lon="-3.56603">
        <ele>71.5</ele>
        <time>2020-08-15T08:56:51Z</time>
      </trkpt>
      <trkpt lat="48.76594" lon="-3.56573">
        <ele>73.4</ele>
        <time>2020-08-15T08:56:58Z</time>
      </trkpt>
      <trkpt lat="48.76606" lon="-3.56546">
        <ele>73.6</ele>
        <time>2020-08-15T08:57:05Z</time>
      </trkpt>
      <trkpt lat="48.76611" lon="-3.5652">
        <ele>73.4</ele>
        <time>2020-08-15T08:57:12Z</time>
      </trkpt>
      <trkpt lat="48.76613" lon="-3.56492">
        <ele>72.8</ele>
        <time>2020-08-15T08:57:21Z</time>
      </trkpt>
      <trkpt lat="48.76615" lon="-3.56465">
        <ele>72.9</ele>
        <time>2020-08-15T08:57:27Z</time>
      </trkpt>
      <trkpt lat="48.76618" lon="-3.5643">
        <ele>72.8</ele>
        <time>2020-08-15T08:57:32Z</time>
      </trkpt>
      <trkpt lat="48.76629" lon="-3.56378">
        <ele>72.9</ele>
        <time>2020-08-15T08:57:39Z</time>
      </trkpt>
      <trkpt lat="48.76641" lon="-3.5633">
        <ele>73</ele>
        <time>2020-08-15T08:57:47Z</time>
      </trkpt>
      <trkpt lat="48.76652" lon="-3.56282">
        <ele>72.7</ele>
        <time>2020-08-15T08:57:56Z</time>
      </trkpt>
      <trkpt lat="48.76658" lon="-3.56254">
        <ele>73.3</ele>
        <time>2020-08-15T08:58:03Z</time>
      </trkpt>
      <trkpt lat="48.76658" lon="-3.56254">
        <ele>73.3</ele>
        <time>2020-08-15T08:58:05Z</time>
      </trkpt>
      <trkpt lat="48.76658" lon="-3.56254">
        <ele>73.3</ele>
        <time>2020-08-15T08:59:40Z</time>
      </trkpt>
      <trkpt lat="48.76658" lon="-3.56254">
        <ele>73.3</ele>
        <time>2020-08-15T08:59:46Z</time>
      </trkpt>
      <trkpt lat="48.76657" lon="-3.562">
        <ele>72.1</ele>
        <time>2020-08-15T08:59:53Z</time>
      </trkpt>
      <trkpt lat="48.76654" lon="-3.56166">
        <ele>72.6</ele>
        <time>2020-08-15T09:00:00Z</time>
      </trkpt>
      <trkpt lat="48.76654" lon="-3.56135">
        <ele>72.4</ele>
        <time>2020-08-15T09:00:06Z</time>
      </trkpt>
      <trkpt lat="48.76653" lon="-3.56115">
        <ele>72.6</ele>
        <time>2020-08-15T09:00:11Z</time>
      </trkpt>
      <trkpt lat="48.76652" lon="-3.56088">
        <ele>73.1</ele>
        <time>2020-08-15T09:00:17Z</time>
      </trkpt>
      <trkpt lat="48.76656" lon="-3.56063">
        <ele>74</ele>
        <time>2020-08-15T09:00:23Z</time>
      </trkpt>
      <trkpt lat="48.76657" lon="-3.56037">
        <ele>74.4</ele>
        <time>2020-08-15T09:00:29Z</time>
      </trkpt>
      <trkpt lat="48.76654" lon="-3.56009">
        <ele>75.5</ele>
        <time>2020-08-15T09:00:37Z</time>
      </trkpt>
      <trkpt lat="48.76653" lon="-3.55986">
        <ele>76.3</ele>
        <time>2020-08-15T09:00:45Z</time>
      </trkpt>
      <trkpt lat="48.76654" lon="-3.55961">
        <ele>76.3</ele>
        <time>2020-08-15T09:00:54Z</time>
      </trkpt>
      <trkpt lat="48.76665" lon="-3.5593">
        <ele>77.1</ele>
        <time>2020-08-15T09:01:03Z</time>
      </trkpt>
      <trkpt lat="48.7666" lon="-3.55916">
        <ele>77.8</ele>
        <time>2020-08-15T09:01:10Z</time>
      </trkpt>
      <trkpt lat="48.76656" lon="-3.55893">
        <ele>77.6</ele>
        <time>2020-08-15T09:01:16Z</time>
      </trkpt>
      <trkpt lat="48.76653" lon="-3.55867">
        <ele>77.7</ele>
        <time>2020-08-15T09:01:22Z</time>
      </trkpt>
      <trkpt lat="48.7665" lon="-3.55825">
        <ele>79.1</ele>
        <time>2020-08-15T09:01:31Z</time>
      </trkpt>
      <trkpt lat="48.76645" lon="-3.55788">
        <ele>79.6</ele>
        <time>2020-08-15T09:01:40Z</time>
      </trkpt>
      <trkpt lat="48.76636" lon="-3.55763">
        <ele>79.9</ele>
        <time>2020-08-15T09:01:47Z</time>
      </trkpt>
      <trkpt lat="48.7662" lon="-3.55738">
        <ele>81.6</ele>
        <time>2020-08-15T09:01:55Z</time>
      </trkpt>
      <trkpt lat="48.76599" lon="-3.55702">
        <ele>82.1</ele>
        <time>2020-08-15T09:02:05Z</time>
      </trkpt>
      <trkpt lat="48.76584" lon="-3.55674">
        <ele>82.8</ele>
        <time>2020-08-15T09:02:13Z</time>
      </trkpt>
      <trkpt lat="48.76567" lon="-3.55647">
        <ele>83.8</ele>
        <time>2020-08-15T09:02:22Z</time>
      </trkpt>
      <trkpt lat="48.76554" lon="-3.55629">
        <ele>84.2</ele>
        <time>2020-08-15T09:02:29Z</time>
      </trkpt>
      <trkpt lat="48.76542" lon="-3.55613">
        <ele>84.4</ele>
        <time>2020-08-15T09:02:35Z</time>
      </trkpt>
      <trkpt lat="48.76522" lon="-3.55596">
        <ele>84.6</ele>
        <time>2020-08-15T09:02:43Z</time>
      </trkpt>
      <trkpt lat="48.76502" lon="-3.55574">
        <ele>85.3</ele>
        <time>2020-08-15T09:02:50Z</time>
      </trkpt>
      <trkpt lat="48.76481" lon="-3.55534">
        <ele>85.2</ele>
        <time>2020-08-15T09:03:00Z</time>
      </trkpt>
      <trkpt lat="48.7647" lon="-3.55504">
        <ele>85.4</ele>
        <time>2020-08-15T09:03:08Z</time>
      </trkpt>
      <trkpt lat="48.76458" lon="-3.55467">
        <ele>87.1</ele>
        <time>2020-08-15T09:03:17Z</time>
      </trkpt>
      <trkpt lat="48.76448" lon="-3.55437">
        <ele>87.5</ele>
        <time>2020-08-15T09:03:25Z</time>
      </trkpt>
      <trkpt lat="48.76442" lon="-3.55418">
        <ele>87.7</ele>
        <time>2020-08-15T09:03:30Z</time>
      </trkpt>
      <trkpt lat="48.76428" lon="-3.55386">
        <ele>88.7</ele>
        <time>2020-08-15T09:03:38Z</time>
      </trkpt>
      <trkpt lat="48.76407" lon="-3.55349">
        <ele>88.7</ele>
        <time>2020-08-15T09:03:48Z</time>
      </trkpt>
      <trkpt lat="48.76393" lon="-3.55331">
        <ele>89.3</ele>
        <time>2020-08-15T09:03:54Z</time>
      </trkpt>
      <trkpt lat="48.76368" lon="-3.55307">
        <ele>89.4</ele>
        <time>2020-08-15T09:04:03Z</time>
      </trkpt>
      <trkpt lat="48.76348" lon="-3.55285">
        <ele>89.6</ele>
        <time>2020-08-15T09:04:10Z</time>
      </trkpt>
      <trkpt lat="48.76336" lon="-3.5527">
        <ele>89.7</ele>
        <time>2020-08-15T09:04:16Z</time>
      </trkpt>
      <trkpt lat="48.76323" lon="-3.55239">
        <ele>89.8</ele>
        <time>2020-08-15T09:04:23Z</time>
      </trkpt>
      <trkpt lat="48.76309" lon="-3.552">
        <ele>89.8</ele>
        <time>2020-08-15T09:04:31Z</time>
      </trkpt>
      <trkpt lat="48.76302" lon="-3.55188">
        <ele>89.8</ele>
        <time>2020-08-15T09:04:35Z</time>
      </trkpt>
      <trkpt lat="48.76284" lon="-3.5518">
        <ele>89.5</ele>
        <time>2020-08-15T09:04:42Z</time>
      </trkpt>
      <trkpt lat="48.76251" lon="-3.5517">
        <ele>89.1</ele>
        <time>2020-08-15T09:04:53Z</time>
      </trkpt>
      <trkpt lat="48.76215" lon="-3.55158">
        <ele>88.9</ele>
        <time>2020-08-15T09:05:05Z</time>
      </trkpt>
      <trkpt lat="48.76183" lon="-3.55143">
        <ele>88.7</ele>
        <time>2020-08-15T09:05:15Z</time>
      </trkpt>
      <trkpt lat="48.76156" lon="-3.55133">
        <ele>88.6</ele>
        <time>2020-08-15T09:05:24Z</time>
      </trkpt>
      <trkpt lat="48.76132" lon="-3.55133">
        <ele>88.7</ele>
        <time>2020-08-15T09:05:32Z</time>
      </trkpt>
      <trkpt lat="48.76109" lon="-3.55133">
        <ele>88.8</ele>
        <time>2020-08-15T09:05:39Z</time>
      </trkpt>
      <trkpt lat="48.76082" lon="-3.55127">
        <ele>89.2</ele>
        <time>2020-08-15T09:05:47Z</time>
      </trkpt>
      <trkpt lat="48.76048" lon="-3.55118">
        <ele>89.2</ele>
        <time>2020-08-15T09:05:55Z</time>
      </trkpt>
      <trkpt lat="48.76012" lon="-3.55111">
        <ele>89.4</ele>
        <time>2020-08-15T09:06:03Z</time>
      </trkpt>
      <trkpt lat="48.75973" lon="-3.55093">
        <ele>90.4</ele>
        <time>2020-08-15T09:06:13Z</time>
      </trkpt>
      <trkpt lat="48.75937" lon="-3.55091">
        <ele>91.1</ele>
        <time>2020-08-15T09:06:23Z</time>
      </trkpt>
      <trkpt lat="48.75915" lon="-3.55091">
        <ele>92</ele>
        <time>2020-08-15T09:06:30Z</time>
      </trkpt>
      <trkpt lat="48.75892" lon="-3.55082">
        <ele>92.5</ele>
        <time>2020-08-15T09:06:36Z</time>
      </trkpt>
      <trkpt lat="48.75891" lon="-3.55061">
        <ele>92.6</ele>
        <time>2020-08-15T09:06:41Z</time>
      </trkpt>
      <trkpt lat="48.75893" lon="-3.55024">
        <ele>93</ele>
        <time>2020-08-15T09:06:49Z</time>
      </trkpt>
      <trkpt lat="48.75889" lon="-3.5497">
        <ele>92.6</ele>
        <time>2020-08-15T09:06:59Z</time>
      </trkpt>
      <trkpt lat="48.75887" lon="-3.5493">
        <ele>92.2</ele>
        <time>2020-08-15T09:07:06Z</time>
      </trkpt>
      <trkpt lat="48.75886" lon="-3.54891">
        <ele>92.4</ele>
        <time>2020-08-15T09:07:13Z</time>
      </trkpt>
      <trkpt lat="48.75882" lon="-3.54852">
        <ele>92.7</ele>
        <time>2020-08-15T09:07:21Z</time>
      </trkpt>
      <trkpt lat="48.75877" lon="-3.54822">
        <ele>93.8</ele>
        <time>2020-08-15T09:07:28Z</time>
      </trkpt>
      <trkpt lat="48.7587" lon="-3.54775">
        <ele>94.2</ele>
        <time>2020-08-15T09:07:38Z</time>
      </trkpt>
      <trkpt lat="48.75867" lon="-3.54733">
        <ele>95.2</ele>
        <time>2020-08-15T09:07:46Z</time>
      </trkpt>
      <trkpt lat="48.75859" lon="-3.54698">
        <ele>95.4</ele>
        <time>2020-08-15T09:07:53Z</time>
      </trkpt>
      <trkpt lat="48.75843" lon="-3.54672">
        <ele>95.8</ele>
        <time>2020-08-15T09:08:01Z</time>
      </trkpt>
      <trkpt lat="48.75831" lon="-3.54658">
        <ele>96.1</ele>
        <time>2020-08-15T09:08:07Z</time>
      </trkpt>
      <trkpt lat="48.75812" lon="-3.54647">
        <ele>96.2</ele>
        <time>2020-08-15T09:08:15Z</time>
      </trkpt>
      <trkpt lat="48.75787" lon="-3.54641">
        <ele>96.1</ele>
        <time>2020-08-15T09:08:23Z</time>
      </trkpt>
      <trkpt lat="48.75754" lon="-3.54633">
        <ele>95.8</ele>
        <time>2020-08-15T09:08:32Z</time>
      </trkpt>
      <trkpt lat="48.75734" lon="-3.54629">
        <ele>94.8</ele>
        <time>2020-08-15T09:08:38Z</time>
      </trkpt>
      <trkpt lat="48.75697" lon="-3.54625">
        <ele>94.7</ele>
        <time>2020-08-15T09:08:48Z</time>
      </trkpt>
      <trkpt lat="48.75675" lon="-3.54616">
        <ele>94.6</ele>
        <time>2020-08-15T09:08:54Z</time>
      </trkpt>
      <trkpt lat="48.75649" lon="-3.54586">
        <ele>94.2</ele>
        <time>2020-08-15T09:09:02Z</time>
      </trkpt>
      <trkpt lat="48.7563" lon="-3.54555">
        <ele>94</ele>
        <time>2020-08-15T09:09:09Z</time>
      </trkpt>
      <trkpt lat="48.75629" lon="-3.54549">
        <ele>94</ele>
        <time>2020-08-15T09:09:10Z</time>
      </trkpt>
      <trkpt lat="48.75616" lon="-3.54536">
        <ele>93.9</ele>
        <time>2020-08-15T09:09:14Z</time>
      </trkpt>
      <trkpt lat="48.75614" lon="-3.5454">
        <ele>93.9</ele>
        <time>2020-08-15T09:09:15Z</time>
      </trkpt>
      <trkpt lat="48.75583" lon="-3.54586">
        <ele>94.1</ele>
        <time>2020-08-15T09:09:26Z</time>
      </trkpt>
      <trkpt lat="48.75552" lon="-3.54622">
        <ele>94.5</ele>
        <time>2020-08-15T09:09:35Z</time>
      </trkpt>
      <trkpt lat="48.7553" lon="-3.54645">
        <ele>94.6</ele>
        <time>2020-08-15T09:09:42Z</time>
      </trkpt>
      <trkpt lat="48.75508" lon="-3.54666">
        <ele>94.9</ele>
        <time>2020-08-15T09:09:49Z</time>
      </trkpt>
      <trkpt lat="48.75489" lon="-3.547">
        <ele>93.9</ele>
        <time>2020-08-15T09:09:56Z</time>
      </trkpt>
      <trkpt lat="48.75478" lon="-3.54752">
        <ele>93.5</ele>
        <time>2020-08-15T09:10:05Z</time>
      </trkpt>
      <trkpt lat="48.75466" lon="-3.54805">
        <ele>93.2</ele>
        <time>2020-08-15T09:10:14Z</time>
      </trkpt>
      <trkpt lat="48.75446" lon="-3.5484">
        <ele>92.9</ele>
        <time>2020-08-15T09:10:21Z</time>
      </trkpt>
      <trkpt lat="48.75429" lon="-3.54868">
        <ele>92.8</ele>
        <time>2020-08-15T09:10:27Z</time>
      </trkpt>
      <trkpt lat="48.75407" lon="-3.54906">
        <ele>92.8</ele>
        <time>2020-08-15T09:10:36Z</time>
      </trkpt>
      <trkpt lat="48.754" lon="-3.54929">
        <ele>92.4</ele>
        <time>2020-08-15T09:10:40Z</time>
      </trkpt>
      <trkpt lat="48.75391" lon="-3.54937">
        <ele>92.2</ele>
        <time>2020-08-15T09:10:44Z</time>
      </trkpt>
      <trkpt lat="48.75377" lon="-3.54926">
        <ele>92.2</ele>
        <time>2020-08-15T09:10:50Z</time>
      </trkpt>
      <trkpt lat="48.75363" lon="-3.54902">
        <ele>92.4</ele>
        <time>2020-08-15T09:10:57Z</time>
      </trkpt>
      <trkpt lat="48.75348" lon="-3.54871">
        <ele>92.4</ele>
        <time>2020-08-15T09:11:04Z</time>
      </trkpt>
      <trkpt lat="48.75341" lon="-3.54856">
        <ele>92.3</ele>
        <time>2020-08-15T09:11:07Z</time>
      </trkpt>
      <trkpt lat="48.75328" lon="-3.54789">
        <ele>90</ele>
        <time>2020-08-15T09:11:17Z</time>
      </trkpt>
      <trkpt lat="48.75321" lon="-3.5473">
        <ele>89.4</ele>
        <time>2020-08-15T09:11:26Z</time>
      </trkpt>
      <trkpt lat="48.7532" lon="-3.54718">
        <ele>89.1</ele>
        <time>2020-08-15T09:11:28Z</time>
      </trkpt>
      <trkpt lat="48.75313" lon="-3.5467">
        <ele>89.3</ele>
        <time>2020-08-15T09:11:35Z</time>
      </trkpt>
      <trkpt lat="48.75309" lon="-3.54639">
        <ele>88.4</ele>
        <time>2020-08-15T09:11:39Z</time>
      </trkpt>
      <trkpt lat="48.75305" lon="-3.54601">
        <ele>88.2</ele>
        <time>2020-08-15T09:11:44Z</time>
      </trkpt>
      <trkpt lat="48.75309" lon="-3.54565">
        <ele>86.9</ele>
        <time>2020-08-15T09:11:48Z</time>
      </trkpt>
      <trkpt lat="48.75321" lon="-3.54511">
        <ele>85.9</ele>
        <time>2020-08-15T09:11:53Z</time>
      </trkpt>
      <trkpt lat="48.75326" lon="-3.54464">
        <ele>82.9</ele>
        <time>2020-08-15T09:11:57Z</time>
      </trkpt>
      <trkpt lat="48.75324" lon="-3.54431">
        <ele>82</ele>
        <time>2020-08-15T09:12:00Z</time>
      </trkpt>
      <trkpt lat="48.75328" lon="-3.54386">
        <ele>78.1</ele>
        <time>2020-08-15T09:12:04Z</time>
      </trkpt>
      <trkpt lat="48.75332" lon="-3.54363">
        <ele>76.9</ele>
        <time>2020-08-15T09:12:06Z</time>
      </trkpt>
      <trkpt lat="48.75333" lon="-3.54327">
        <ele>75</ele>
        <time>2020-08-15T09:12:09Z</time>
      </trkpt>
      <trkpt lat="48.75317" lon="-3.54269">
        <ele>72.7</ele>
        <time>2020-08-15T09:12:15Z</time>
      </trkpt>
      <trkpt lat="48.75307" lon="-3.54212">
        <ele>70.1</ele>
        <time>2020-08-15T09:12:21Z</time>
      </trkpt>
      <trkpt lat="48.75291" lon="-3.54168">
        <ele>68.6</ele>
        <time>2020-08-15T09:12:26Z</time>
      </trkpt>
      <trkpt lat="48.75286" lon="-3.54147">
        <ele>67.5</ele>
        <time>2020-08-15T09:12:30Z</time>
      </trkpt>
      <trkpt lat="48.75289" lon="-3.54105">
        <ele>67.6</ele>
        <time>2020-08-15T09:12:32Z</time>
      </trkpt>
      <trkpt lat="48.75317" lon="-3.54056">
        <ele>68.3</ele>
        <time>2020-08-15T09:12:40Z</time>
      </trkpt>
      <trkpt lat="48.75333" lon="-3.54015">
        <ele>68.8</ele>
        <time>2020-08-15T09:12:48Z</time>
      </trkpt>
      <trkpt lat="48.75346" lon="-3.53989">
        <ele>71.6</ele>
        <time>2020-08-15T09:12:55Z</time>
      </trkpt>
      <trkpt lat="48.75362" lon="-3.53958">
        <ele>71.6</ele>
        <time>2020-08-15T09:13:06Z</time>
      </trkpt>
      <trkpt lat="48.75379" lon="-3.53934">
        <ele>71.8</ele>
        <time>2020-08-15T09:13:13Z</time>
      </trkpt>
      <trkpt lat="48.75395" lon="-3.53918">
        <ele>72.6</ele>
        <time>2020-08-15T09:13:17Z</time>
      </trkpt>
      <trkpt lat="48.7542" lon="-3.53902">
        <ele>74.4</ele>
        <time>2020-08-15T09:13:22Z</time>
      </trkpt>
      <trkpt lat="48.75445" lon="-3.53867">
        <ele>74.5</ele>
        <time>2020-08-15T09:13:29Z</time>
      </trkpt>
      <trkpt lat="48.75467" lon="-3.53833">
        <ele>74.3</ele>
        <time>2020-08-15T09:13:36Z</time>
      </trkpt>
      <trkpt lat="48.75486" lon="-3.5381">
        <ele>74.9</ele>
        <time>2020-08-15T09:13:42Z</time>
      </trkpt>
      <trkpt lat="48.75499" lon="-3.53796">
        <ele>74.8</ele>
        <time>2020-08-15T09:13:48Z</time>
      </trkpt>
      <trkpt lat="48.75512" lon="-3.53778">
        <ele>77.2</ele>
        <time>2020-08-15T09:13:55Z</time>
      </trkpt>
      <trkpt lat="48.75525" lon="-3.53754">
        <ele>77.2</ele>
        <time>2020-08-15T09:13:59Z</time>
      </trkpt>
      <trkpt lat="48.7555" lon="-3.5372">
        <ele>78.6</ele>
        <time>2020-08-15T09:14:04Z</time>
      </trkpt>
      <trkpt lat="48.75566" lon="-3.53702">
        <ele>79.1</ele>
        <time>2020-08-15T09:14:07Z</time>
      </trkpt>
      <trkpt lat="48.75574" lon="-3.53689">
        <ele>79.5</ele>
        <time>2020-08-15T09:14:09Z</time>
      </trkpt>
      <trkpt lat="48.75584" lon="-3.5366">
        <ele>81.6</ele>
        <time>2020-08-15T09:14:14Z</time>
      </trkpt>
      <trkpt lat="48.75596" lon="-3.53624">
        <ele>82.9</ele>
        <time>2020-08-15T09:14:21Z</time>
      </trkpt>
      <trkpt lat="48.75614" lon="-3.53573">
        <ele>83.4</ele>
        <time>2020-08-15T09:14:31Z</time>
      </trkpt>
      <trkpt lat="48.75634" lon="-3.53527">
        <ele>83.8</ele>
        <time>2020-08-15T09:14:42Z</time>
      </trkpt>
      <trkpt lat="48.7565" lon="-3.53496">
        <ele>84.5</ele>
        <time>2020-08-15T09:14:51Z</time>
      </trkpt>
      <trkpt lat="48.75662" lon="-3.53473">
        <ele>85.2</ele>
        <time>2020-08-15T09:14:59Z</time>
      </trkpt>
      <trkpt lat="48.7567" lon="-3.53457">
        <ele>87.1</ele>
        <time>2020-08-15T09:15:05Z</time>
      </trkpt>
      <trkpt lat="48.75678" lon="-3.53441">
        <ele>87.5</ele>
        <time>2020-08-15T09:15:10Z</time>
      </trkpt>
      <trkpt lat="48.75684" lon="-3.53426">
        <ele>87.6</ele>
        <time>2020-08-15T09:15:15Z</time>
      </trkpt>
      <trkpt lat="48.75687" lon="-3.53419">
        <ele>87.7</ele>
        <time>2020-08-15T09:15:17Z</time>
      </trkpt>
      <trkpt lat="48.757" lon="-3.53379">
        <ele>88.9</ele>
        <time>2020-08-15T09:15:27Z</time>
      </trkpt>
      <trkpt lat="48.75708" lon="-3.53346">
        <ele>89</ele>
        <time>2020-08-15T09:15:35Z</time>
      </trkpt>
      <trkpt lat="48.75719" lon="-3.53312">
        <ele>89.4</ele>
        <time>2020-08-15T09:15:44Z</time>
      </trkpt>
      <trkpt lat="48.75741" lon="-3.5329">
        <ele>89.5</ele>
        <time>2020-08-15T09:15:54Z</time>
      </trkpt>
      <trkpt lat="48.7576" lon="-3.53269">
        <ele>90.2</ele>
        <time>2020-08-15T09:16:01Z</time>
      </trkpt>
      <trkpt lat="48.75774" lon="-3.53251">
        <ele>90.2</ele>
        <time>2020-08-15T09:16:09Z</time>
      </trkpt>
      <trkpt lat="48.75776" lon="-3.53237">
        <ele>90.8</ele>
        <time>2020-08-15T09:16:15Z</time>
      </trkpt>
      <trkpt lat="48.75775" lon="-3.5322">
        <ele>91.1</ele>
        <time>2020-08-15T09:16:22Z</time>
      </trkpt>
      <trkpt lat="48.75774" lon="-3.53205">
        <ele>91.5</ele>
        <time>2020-08-15T09:16:28Z</time>
      </trkpt>
      <trkpt lat="48.75772" lon="-3.53184">
        <ele>92.1</ele>
        <time>2020-08-15T09:16:37Z</time>
      </trkpt>
      <trkpt lat="48.7577" lon="-3.53161">
        <ele>93.6</ele>
        <time>2020-08-15T09:16:46Z</time>
      </trkpt>
      <trkpt lat="48.75769" lon="-3.53135">
        <ele>93.8</ele>
        <time>2020-08-15T09:16:55Z</time>
      </trkpt>
      <trkpt lat="48.75771" lon="-3.53108">
        <ele>94.2</ele>
        <time>2020-08-15T09:17:05Z</time>
      </trkpt>
      <trkpt lat="48.75771" lon="-3.53085">
        <ele>94.6</ele>
        <time>2020-08-15T09:17:11Z</time>
      </trkpt>
      <trkpt lat="48.75769" lon="-3.53073">
        <ele>95.4</ele>
        <time>2020-08-15T09:17:14Z</time>
      </trkpt>
      <trkpt lat="48.75761" lon="-3.5307">
        <ele>95.5</ele>
        <time>2020-08-15T09:17:18Z</time>
      </trkpt>
      <trkpt lat="48.7574" lon="-3.53079">
        <ele>96.5</ele>
        <time>2020-08-15T09:17:27Z</time>
      </trkpt>
      <trkpt lat="48.75718" lon="-3.53085">
        <ele>96.1</ele>
        <time>2020-08-15T09:17:36Z</time>
      </trkpt>
      <trkpt lat="48.75693" lon="-3.531">
        <ele>96.4</ele>
        <time>2020-08-15T09:17:45Z</time>
      </trkpt>
      <trkpt lat="48.75677" lon="-3.5311">
        <ele>96.4</ele>
        <time>2020-08-15T09:17:51Z</time>
      </trkpt>
      <trkpt lat="48.75664" lon="-3.53109">
        <ele>96.9</ele>
        <time>2020-08-15T09:17:56Z</time>
      </trkpt>
      <trkpt lat="48.75654" lon="-3.53089">
        <ele>97.3</ele>
        <time>2020-08-15T09:18:01Z</time>
      </trkpt>
      <trkpt lat="48.75647" lon="-3.53067">
        <ele>98.1</ele>
        <time>2020-08-15T09:18:08Z</time>
      </trkpt>
      <trkpt lat="48.75641" lon="-3.53049">
        <ele>98.2</ele>
        <time>2020-08-15T09:18:15Z</time>
      </trkpt>
      <trkpt lat="48.7563" lon="-3.53025">
        <ele>98.4</ele>
        <time>2020-08-15T09:18:24Z</time>
      </trkpt>
      <trkpt lat="48.75621" lon="-3.53014">
        <ele>98.5</ele>
        <time>2020-08-15T09:18:31Z</time>
      </trkpt>
      <trkpt lat="48.75595" lon="-3.53009">
        <ele>98.7</ele>
        <time>2020-08-15T09:18:41Z</time>
      </trkpt>
      <trkpt lat="48.75566" lon="-3.52999">
        <ele>99.7</ele>
        <time>2020-08-15T09:18:51Z</time>
      </trkpt>
      <trkpt lat="48.75536" lon="-3.52991">
        <ele>100.2</ele>
        <time>2020-08-15T09:19:01Z</time>
      </trkpt>
      <trkpt lat="48.75508" lon="-3.52981">
        <ele>100.3</ele>
        <time>2020-08-15T09:19:10Z</time>
      </trkpt>
      <trkpt lat="48.75485" lon="-3.52975">
        <ele>100.7</ele>
        <time>2020-08-15T09:19:18Z</time>
      </trkpt>
      <trkpt lat="48.75465" lon="-3.52968">
        <ele>100.9</ele>
        <time>2020-08-15T09:19:26Z</time>
      </trkpt>
      <trkpt lat="48.75456" lon="-3.52955">
        <ele>101</ele>
        <time>2020-08-15T09:19:30Z</time>
      </trkpt>
      <trkpt lat="48.75458" lon="-3.52908">
        <ele>102.2</ele>
        <time>2020-08-15T09:19:40Z</time>
      </trkpt>
      <trkpt lat="48.75459" lon="-3.52869">
        <ele>102.3</ele>
        <time>2020-08-15T09:19:48Z</time>
      </trkpt>
      <trkpt lat="48.75462" lon="-3.52807">
        <ele>102.7</ele>
        <time>2020-08-15T09:19:59Z</time>
      </trkpt>
      <trkpt lat="48.75465" lon="-3.52752">
        <ele>103</ele>
        <time>2020-08-15T09:20:09Z</time>
      </trkpt>
      <trkpt lat="48.75465" lon="-3.52699">
        <ele>103</ele>
        <time>2020-08-15T09:20:19Z</time>
      </trkpt>
      <trkpt lat="48.75463" lon="-3.52669">
        <ele>103</ele>
        <time>2020-08-15T09:20:25Z</time>
      </trkpt>
      <trkpt lat="48.75455" lon="-3.52639">
        <ele>103</ele>
        <time>2020-08-15T09:20:31Z</time>
      </trkpt>
      <trkpt lat="48.75435" lon="-3.52633">
        <ele>103</ele>
        <time>2020-08-15T09:20:39Z</time>
      </trkpt>
      <trkpt lat="48.75418" lon="-3.52623">
        <ele>103</ele>
        <time>2020-08-15T09:20:46Z</time>
      </trkpt>
      <trkpt lat="48.7539" lon="-3.52608">
        <ele>103</ele>
        <time>2020-08-15T09:20:55Z</time>
      </trkpt>
      <trkpt lat="48.75367" lon="-3.52595">
        <ele>103</ele>
        <time>2020-08-15T09:21:02Z</time>
      </trkpt>
      <trkpt lat="48.75337" lon="-3.52577">
        <ele>102.9</ele>
        <time>2020-08-15T09:21:10Z</time>
      </trkpt>
      <trkpt lat="48.75302" lon="-3.52556">
        <ele>102.6</ele>
        <time>2020-08-15T09:21:19Z</time>
      </trkpt>
      <trkpt lat="48.75261" lon="-3.52528">
        <ele>102.4</ele>
        <time>2020-08-15T09:21:28Z</time>
      </trkpt>
      <trkpt lat="48.75224" lon="-3.52499">
        <ele>101.3</ele>
        <time>2020-08-15T09:21:37Z</time>
      </trkpt>
      <trkpt lat="48.75194" lon="-3.52475">
        <ele>100.8</ele>
        <time>2020-08-15T09:21:45Z</time>
      </trkpt>
      <trkpt lat="48.75161" lon="-3.5245">
        <ele>100.3</ele>
        <time>2020-08-15T09:21:53Z</time>
      </trkpt>
      <trkpt lat="48.75138" lon="-3.5244">
        <ele>100.2</ele>
        <time>2020-08-15T09:21:58Z</time>
      </trkpt>
      <trkpt lat="48.75125" lon="-3.52447">
        <ele>100.1</ele>
        <time>2020-08-15T09:22:01Z</time>
      </trkpt>
      <trkpt lat="48.75092" lon="-3.52477">
        <ele>99.6</ele>
        <time>2020-08-15T09:22:10Z</time>
      </trkpt>
      <trkpt lat="48.7508" lon="-3.52488">
        <ele>99.1</ele>
        <time>2020-08-15T09:22:13Z</time>
      </trkpt>
      <trkpt lat="48.75064" lon="-3.52499">
        <ele>99.1</ele>
        <time>2020-08-15T09:22:17Z</time>
      </trkpt>
      <trkpt lat="48.75057" lon="-3.52497">
        <ele>99.1</ele>
        <time>2020-08-15T09:22:18Z</time>
      </trkpt>
      <trkpt lat="48.75035" lon="-3.52469">
        <ele>99.1</ele>
        <time>2020-08-15T09:22:26Z</time>
      </trkpt>
      <trkpt lat="48.75012" lon="-3.52445">
        <ele>99.4</ele>
        <time>2020-08-15T09:22:35Z</time>
      </trkpt>
      <trkpt lat="48.75006" lon="-3.52425">
        <ele>99.7</ele>
        <time>2020-08-15T09:22:40Z</time>
      </trkpt>
      <trkpt lat="48.75013" lon="-3.52396">
        <ele>100.6</ele>
        <time>2020-08-15T09:22:47Z</time>
      </trkpt>
      <trkpt lat="48.75021" lon="-3.52359">
        <ele>101.2</ele>
        <time>2020-08-15T09:22:55Z</time>
      </trkpt>
      <trkpt lat="48.75032" lon="-3.52308">
        <ele>102.4</ele>
        <time>2020-08-15T09:23:06Z</time>
      </trkpt>
      <trkpt lat="48.75034" lon="-3.52272">
        <ele>102.6</ele>
        <time>2020-08-15T09:23:14Z</time>
      </trkpt>
      <trkpt lat="48.75026" lon="-3.52234">
        <ele>103</ele>
        <time>2020-08-15T09:23:22Z</time>
      </trkpt>
      <trkpt lat="48.75017" lon="-3.52164">
        <ele>102.9</ele>
        <time>2020-08-15T09:23:35Z</time>
      </trkpt>
      <trkpt lat="48.7501" lon="-3.52124">
        <ele>102.8</ele>
        <time>2020-08-15T09:23:44Z</time>
      </trkpt>
      <trkpt lat="48.75003" lon="-3.52096">
        <ele>102.9</ele>
        <time>2020-08-15T09:23:51Z</time>
      </trkpt>
      <trkpt lat="48.74997" lon="-3.5206">
        <ele>104</ele>
        <time>2020-08-15T09:23:59Z</time>
      </trkpt>
      <trkpt lat="48.74995" lon="-3.52023">
        <ele>104.6</ele>
        <time>2020-08-15T09:24:07Z</time>
      </trkpt>
      <trkpt lat="48.74994" lon="-3.51988">
        <ele>105</ele>
        <time>2020-08-15T09:24:14Z</time>
      </trkpt>
      <trkpt lat="48.74987" lon="-3.51962">
        <ele>105</ele>
        <time>2020-08-15T09:24:20Z</time>
      </trkpt>
      <trkpt lat="48.7497" lon="-3.5192">
        <ele>105</ele>
        <time>2020-08-15T09:24:30Z</time>
      </trkpt>
      <trkpt lat="48.74957" lon="-3.51884">
        <ele>104.6</ele>
        <time>2020-08-15T09:24:38Z</time>
      </trkpt>
      <trkpt lat="48.74944" lon="-3.51847">
        <ele>104.5</ele>
        <time>2020-08-15T09:24:46Z</time>
      </trkpt>
      <trkpt lat="48.74931" lon="-3.51805">
        <ele>104.5</ele>
        <time>2020-08-15T09:24:54Z</time>
      </trkpt>
      <trkpt lat="48.74923" lon="-3.5175">
        <ele>104.8</ele>
        <time>2020-08-15T09:25:02Z</time>
      </trkpt>
      <trkpt lat="48.74917" lon="-3.51692">
        <ele>103.9</ele>
        <time>2020-08-15T09:25:10Z</time>
      </trkpt>
      <trkpt lat="48.74903" lon="-3.51602">
        <ele>102.8</ele>
        <time>2020-08-15T09:25:22Z</time>
      </trkpt>
      <trkpt lat="48.74895" lon="-3.51539">
        <ele>102.8</ele>
        <time>2020-08-15T09:25:30Z</time>
      </trkpt>
      <trkpt lat="48.74894" lon="-3.51499">
        <ele>102.7</ele>
        <time>2020-08-15T09:25:35Z</time>
      </trkpt>
      <trkpt lat="48.74884" lon="-3.51434">
        <ele>102.4</ele>
        <time>2020-08-15T09:25:43Z</time>
      </trkpt>
      <trkpt lat="48.74868" lon="-3.51376">
        <ele>101.5</ele>
        <time>2020-08-15T09:25:50Z</time>
      </trkpt>
      <trkpt lat="48.74855" lon="-3.51293">
        <ele>100.7</ele>
        <time>2020-08-15T09:25:59Z</time>
      </trkpt>
      <trkpt lat="48.74843" lon="-3.51212">
        <ele>100</ele>
        <time>2020-08-15T09:26:07Z</time>
      </trkpt>
      <trkpt lat="48.74843" lon="-3.51149">
        <ele>99.6</ele>
        <time>2020-08-15T09:26:13Z</time>
      </trkpt>
      <trkpt lat="48.74846" lon="-3.51044">
        <ele>100.3</ele>
        <time>2020-08-15T09:26:23Z</time>
      </trkpt>
      <trkpt lat="48.74847" lon="-3.50975">
        <ele>101</ele>
        <time>2020-08-15T09:26:30Z</time>
      </trkpt>
      <trkpt lat="48.74846" lon="-3.50957">
        <ele>101.2</ele>
        <time>2020-08-15T09:26:32Z</time>
      </trkpt>
      <trkpt lat="48.74835" lon="-3.50913">
        <ele>101.2</ele>
        <time>2020-08-15T09:26:38Z</time>
      </trkpt>
      <trkpt lat="48.74812" lon="-3.50861">
        <ele>100.8</ele>
        <time>2020-08-15T09:26:47Z</time>
      </trkpt>
      <trkpt lat="48.74802" lon="-3.50831">
        <ele>100.5</ele>
        <time>2020-08-15T09:26:52Z</time>
      </trkpt>
      <trkpt lat="48.74794" lon="-3.50784">
        <ele>100</ele>
        <time>2020-08-15T09:27:00Z</time>
      </trkpt>
      <trkpt lat="48.74791" lon="-3.50729">
        <ele>99.5</ele>
        <time>2020-08-15T09:27:09Z</time>
      </trkpt>
      <trkpt lat="48.74787" lon="-3.50664">
        <ele>99.8</ele>
        <time>2020-08-15T09:27:19Z</time>
      </trkpt>
      <trkpt lat="48.74783" lon="-3.50619">
        <ele>100.2</ele>
        <time>2020-08-15T09:27:26Z</time>
      </trkpt>
      <trkpt lat="48.74777" lon="-3.50594">
        <ele>100.3</ele>
        <time>2020-08-15T09:27:30Z</time>
      </trkpt>
      <trkpt lat="48.74756" lon="-3.50552">
        <ele>101.3</ele>
        <time>2020-08-15T09:27:38Z</time>
      </trkpt>
      <trkpt lat="48.7473" lon="-3.50513">
        <ele>100.6</ele>
        <time>2020-08-15T09:27:45Z</time>
      </trkpt>
      <trkpt lat="48.74693" lon="-3.50456">
        <ele>100</ele>
        <time>2020-08-15T09:27:54Z</time>
      </trkpt>
      <trkpt lat="48.74655" lon="-3.50394">
        <ele>98.4</ele>
        <time>2020-08-15T09:28:03Z</time>
      </trkpt>
      <trkpt lat="48.74617" lon="-3.50332">
        <ele>98.3</ele>
        <time>2020-08-15T09:28:13Z</time>
      </trkpt>
      <trkpt lat="48.7458" lon="-3.50276">
        <ele>96.6</ele>
        <time>2020-08-15T09:28:22Z</time>
      </trkpt>
      <trkpt lat="48.7455" lon="-3.50228">
        <ele>96.1</ele>
        <time>2020-08-15T09:28:29Z</time>
      </trkpt>
      <trkpt lat="48.74516" lon="-3.50172">
        <ele>94.4</ele>
        <time>2020-08-15T09:28:37Z</time>
      </trkpt>
      <trkpt lat="48.74488" lon="-3.50127">
        <ele>92</ele>
        <time>2020-08-15T09:28:44Z</time>
      </trkpt>
      <trkpt lat="48.74475" lon="-3.50108">
        <ele>91.9</ele>
        <time>2020-08-15T09:28:47Z</time>
      </trkpt>
      <trkpt lat="48.74457" lon="-3.50094">
        <ele>91.8</ele>
        <time>2020-08-15T09:28:52Z</time>
      </trkpt>
      <trkpt lat="48.74454" lon="-3.50094">
        <ele>91.8</ele>
        <time>2020-08-15T09:28:53Z</time>
      </trkpt>
      <trkpt lat="48.74446" lon="-3.50081">
        <ele>91.8</ele>
        <time>2020-08-15T09:29:01Z</time>
      </trkpt>
      <trkpt lat="48.74446" lon="-3.50081">
        <ele>91.8</ele>
        <time>2020-08-15T09:29:02Z</time>
      </trkpt>
      <trkpt lat="48.74447" lon="-3.50066">
        <ele>91.8</ele>
        <time>2020-08-15T09:29:11Z</time>
      </trkpt>
      <trkpt lat="48.74447" lon="-3.50058">
        <ele>91.8</ele>
        <time>2020-08-15T09:29:13Z</time>
      </trkpt>
      <trkpt lat="48.7445" lon="-3.50013">
        <ele>91.6</ele>
        <time>2020-08-15T09:29:22Z</time>
      </trkpt>
      <trkpt lat="48.7446" lon="-3.49961">
        <ele>91.3</ele>
        <time>2020-08-15T09:29:30Z</time>
      </trkpt>
      <trkpt lat="48.74478" lon="-3.49894">
        <ele>90.8</ele>
        <time>2020-08-15T09:29:39Z</time>
      </trkpt>
      <trkpt lat="48.7449" lon="-3.49835">
        <ele>90.7</ele>
        <time>2020-08-15T09:29:46Z</time>
      </trkpt>
      <trkpt lat="48.74491" lon="-3.49825">
        <ele>89.9</ele>
        <time>2020-08-15T09:29:47Z</time>
      </trkpt>
      <trkpt lat="48.74502" lon="-3.4976">
        <ele>88.8</ele>
        <time>2020-08-15T09:29:54Z</time>
      </trkpt>
      <trkpt lat="48.74512" lon="-3.49695">
        <ele>88.4</ele>
        <time>2020-08-15T09:30:01Z</time>
      </trkpt>
      <trkpt lat="48.74513" lon="-3.49676">
        <ele>88</ele>
        <time>2020-08-15T09:30:03Z</time>
      </trkpt>
      <trkpt lat="48.74512" lon="-3.49615">
        <ele>89.3</ele>
        <time>2020-08-15T09:30:10Z</time>
      </trkpt>
      <trkpt lat="48.74507" lon="-3.49571">
        <ele>89.7</ele>
        <time>2020-08-15T09:30:17Z</time>
      </trkpt>
      <trkpt lat="48.74508" lon="-3.49525">
        <ele>91.1</ele>
        <time>2020-08-15T09:30:26Z</time>
      </trkpt>
      <trkpt lat="48.74515" lon="-3.49487">
        <ele>92.5</ele>
        <time>2020-08-15T09:30:35Z</time>
      </trkpt>
      <trkpt lat="48.74527" lon="-3.49455">
        <ele>94.1</ele>
        <time>2020-08-15T09:30:45Z</time>
      </trkpt>
      <trkpt lat="48.7454" lon="-3.49425">
        <ele>94.9</ele>
        <time>2020-08-15T09:30:54Z</time>
      </trkpt>
      <trkpt lat="48.74551" lon="-3.49399">
        <ele>96.5</ele>
        <time>2020-08-15T09:31:02Z</time>
      </trkpt>
      <trkpt lat="48.74562" lon="-3.49371">
        <ele>96.7</ele>
        <time>2020-08-15T09:31:10Z</time>
      </trkpt>
      <trkpt lat="48.74573" lon="-3.4934">
        <ele>97.3</ele>
        <time>2020-08-15T09:31:20Z</time>
      </trkpt>
      <trkpt lat="48.74577" lon="-3.4932">
        <ele>97.4</ele>
        <time>2020-08-15T09:31:26Z</time>
      </trkpt>
      <trkpt lat="48.74578" lon="-3.49284">
        <ele>97.3</ele>
        <time>2020-08-15T09:31:34Z</time>
      </trkpt>
      <trkpt lat="48.74579" lon="-3.49241">
        <ele>98.2</ele>
        <time>2020-08-15T09:31:42Z</time>
      </trkpt>
      <trkpt lat="48.74582" lon="-3.49193">
        <ele>97.3</ele>
        <time>2020-08-15T09:31:50Z</time>
      </trkpt>
      <trkpt lat="48.74585" lon="-3.49146">
        <ele>98.5</ele>
        <time>2020-08-15T09:31:58Z</time>
      </trkpt>
      <trkpt lat="48.74589" lon="-3.49081">
        <ele>98.2</ele>
        <time>2020-08-15T09:32:09Z</time>
      </trkpt>
      <trkpt lat="48.74592" lon="-3.49046">
        <ele>98.5</ele>
        <time>2020-08-15T09:32:15Z</time>
      </trkpt>
      <trkpt lat="48.74592" lon="-3.49009">
        <ele>98.3</ele>
        <time>2020-08-15T09:32:22Z</time>
      </trkpt>
      <trkpt lat="48.7459" lon="-3.48978">
        <ele>98.6</ele>
        <time>2020-08-15T09:32:28Z</time>
      </trkpt>
      <trkpt lat="48.74587" lon="-3.48931">
        <ele>99</ele>
        <time>2020-08-15T09:32:37Z</time>
      </trkpt>
      <trkpt lat="48.74583" lon="-3.489">
        <ele>97.3</ele>
        <time>2020-08-15T09:32:44Z</time>
      </trkpt>
      <trkpt lat="48.74575" lon="-3.48885">
        <ele>96.5</ele>
        <time>2020-08-15T09:32:49Z</time>
      </trkpt>
      <trkpt lat="48.74571" lon="-3.48876">
        <ele>96.3</ele>
        <time>2020-08-15T09:32:54Z</time>
      </trkpt>
      <trkpt lat="48.74571" lon="-3.48876">
        <ele>96.3</ele>
        <time>2020-08-15T09:32:55Z</time>
      </trkpt>
      <trkpt lat="48.74568" lon="-3.48866">
        <ele>96.1</ele>
        <time>2020-08-15T09:34:34Z</time>
      </trkpt>
      <trkpt lat="48.74564" lon="-3.48845">
        <ele>96.3</ele>
        <time>2020-08-15T09:34:40Z</time>
      </trkpt>
      <trkpt lat="48.74567" lon="-3.48827">
        <ele>95.4</ele>
        <time>2020-08-15T09:34:43Z</time>
      </trkpt>
      <trkpt lat="48.74579" lon="-3.48814">
        <ele>95.3</ele>
        <time>2020-08-15T09:34:47Z</time>
      </trkpt>
      <trkpt lat="48.74596" lon="-3.48797">
        <ele>96.3</ele>
        <time>2020-08-15T09:34:54Z</time>
      </trkpt>
      <trkpt lat="48.74601" lon="-3.4877">
        <ele>95.7</ele>
        <time>2020-08-15T09:34:59Z</time>
      </trkpt>
      <trkpt lat="48.74604" lon="-3.4872">
        <ele>92.5</ele>
        <time>2020-08-15T09:35:07Z</time>
      </trkpt>
      <trkpt lat="48.746" lon="-3.48667">
        <ele>90.4</ele>
        <time>2020-08-15T09:35:14Z</time>
      </trkpt>
      <trkpt lat="48.74591" lon="-3.48604">
        <ele>84.9</ele>
        <time>2020-08-15T09:35:21Z</time>
      </trkpt>
      <trkpt lat="48.74587" lon="-3.48549">
        <ele>81.1</ele>
        <time>2020-08-15T09:35:26Z</time>
      </trkpt>
      <trkpt lat="48.74588" lon="-3.48471">
        <ele>77.2</ele>
        <time>2020-08-15T09:35:32Z</time>
      </trkpt>
      <trkpt lat="48.74586" lon="-3.48458">
        <ele>77</ele>
        <time>2020-08-15T09:35:33Z</time>
      </trkpt>
      <trkpt lat="48.74588" lon="-3.48395">
        <ele>75.7</ele>
        <time>2020-08-15T09:35:38Z</time>
      </trkpt>
      <trkpt lat="48.74598" lon="-3.48334">
        <ele>75.9</ele>
        <time>2020-08-15T09:35:44Z</time>
      </trkpt>
      <trkpt lat="48.746" lon="-3.48317">
        <ele>76.3</ele>
        <time>2020-08-15T09:35:46Z</time>
      </trkpt>
      <trkpt lat="48.74596" lon="-3.48293">
        <ele>76.6</ele>
        <time>2020-08-15T09:35:50Z</time>
      </trkpt>
      <trkpt lat="48.7457" lon="-3.48279">
        <ele>73.7</ele>
        <time>2020-08-15T09:35:56Z</time>
      </trkpt>
      <trkpt lat="48.74533" lon="-3.48271">
        <ele>72.7</ele>
        <time>2020-08-15T09:36:03Z</time>
      </trkpt>
      <trkpt lat="48.74496" lon="-3.48267">
        <ele>69.7</ele>
        <time>2020-08-15T09:36:10Z</time>
      </trkpt>
      <trkpt lat="48.74486" lon="-3.48267">
        <ele>69.4</ele>
        <time>2020-08-15T09:36:12Z</time>
      </trkpt>
      <trkpt lat="48.74471" lon="-3.48268">
        <ele>68.7</ele>
        <time>2020-08-15T09:36:15Z</time>
      </trkpt>
      <trkpt lat="48.74466" lon="-3.48269">
        <ele>68.5</ele>
        <time>2020-08-15T09:36:16Z</time>
      </trkpt>
      <trkpt lat="48.74446" lon="-3.48276">
        <ele>67.7</ele>
        <time>2020-08-15T09:36:20Z</time>
      </trkpt>
      <trkpt lat="48.74423" lon="-3.48275">
        <ele>66.6</ele>
        <time>2020-08-15T09:36:24Z</time>
      </trkpt>
      <trkpt lat="48.74418" lon="-3.4827">
        <ele>66.1</ele>
        <time>2020-08-15T09:36:25Z</time>
      </trkpt>
      <trkpt lat="48.74391" lon="-3.48234">
        <ele>62.4</ele>
        <time>2020-08-15T09:36:31Z</time>
      </trkpt>
      <trkpt lat="48.74383" lon="-3.48227">
        <ele>62.3</ele>
        <time>2020-08-15T09:36:33Z</time>
      </trkpt>
      <trkpt lat="48.74367" lon="-3.48217">
        <ele>62.1</ele>
        <time>2020-08-15T09:36:37Z</time>
      </trkpt>
      <trkpt lat="48.74364" lon="-3.48217">
        <ele>62.1</ele>
        <time>2020-08-15T09:36:38Z</time>
      </trkpt>
      <trkpt lat="48.74339" lon="-3.48223">
        <ele>61.8</ele>
        <time>2020-08-15T09:36:45Z</time>
      </trkpt>
      <trkpt lat="48.74324" lon="-3.48221">
        <ele>60.9</ele>
        <time>2020-08-15T09:36:50Z</time>
      </trkpt>
      <trkpt lat="48.74317" lon="-3.48221">
        <ele>60.9</ele>
        <time>2020-08-15T09:36:55Z</time>
      </trkpt>
      <trkpt lat="48.74306" lon="-3.48216">
        <ele>60.8</ele>
        <time>2020-08-15T09:37:00Z</time>
      </trkpt>
      <trkpt lat="48.74298" lon="-3.48198">
        <ele>60.9</ele>
        <time>2020-08-15T09:37:08Z</time>
      </trkpt>
      <trkpt lat="48.74293" lon="-3.48183">
        <ele>61</ele>
        <time>2020-08-15T09:37:16Z</time>
      </trkpt>
      <trkpt lat="48.74288" lon="-3.48171">
        <ele>61</ele>
        <time>2020-08-15T09:37:22Z</time>
      </trkpt>
      <trkpt lat="48.74283" lon="-3.48156">
        <ele>62.2</ele>
        <time>2020-08-15T09:37:29Z</time>
      </trkpt>
      <trkpt lat="48.7427" lon="-3.48129">
        <ele>62.5</ele>
        <time>2020-08-15T09:37:36Z</time>
      </trkpt>
      <trkpt lat="48.74275" lon="-3.4812">
        <ele>62.7</ele>
        <time>2020-08-15T09:37:42Z</time>
      </trkpt>
      <trkpt lat="48.74281" lon="-3.48105">
        <ele>62.9</ele>
        <time>2020-08-15T09:37:49Z</time>
      </trkpt>
      <trkpt lat="48.74287" lon="-3.48089">
        <ele>63.1</ele>
        <time>2020-08-15T09:37:56Z</time>
      </trkpt>
      <trkpt lat="48.74294" lon="-3.4807">
        <ele>64.2</ele>
        <time>2020-08-15T09:38:03Z</time>
      </trkpt>
      <trkpt lat="48.74299" lon="-3.48056">
        <ele>64.3</ele>
        <time>2020-08-15T09:38:09Z</time>
      </trkpt>
      <trkpt lat="48.74305" lon="-3.48037">
        <ele>64.5</ele>
        <time>2020-08-15T09:38:16Z</time>
      </trkpt>
      <trkpt lat="48.74312" lon="-3.48012">
        <ele>64.9</ele>
        <time>2020-08-15T09:38:25Z</time>
      </trkpt>
      <trkpt lat="48.74315" lon="-3.47995">
        <ele>65.2</ele>
        <time>2020-08-15T09:38:32Z</time>
      </trkpt>
      <trkpt lat="48.74315" lon="-3.47978">
        <ele>65</ele>
        <time>2020-08-15T09:38:37Z</time>
      </trkpt>
      <trkpt lat="48.74318" lon="-3.47964">
        <ele>65.1</ele>
        <time>2020-08-15T09:38:44Z</time>
      </trkpt>
      <trkpt lat="48.74318" lon="-3.47962">
        <ele>65.1</ele>
        <time>2020-08-15T09:38:45Z</time>
      </trkpt>
      <trkpt lat="48.74323" lon="-3.47941">
        <ele>65.4</ele>
        <time>2020-08-15T09:38:52Z</time>
      </trkpt>
      <trkpt lat="48.74325" lon="-3.47914">
        <ele>66.4</ele>
        <time>2020-08-15T09:38:59Z</time>
      </trkpt>
      <trkpt lat="48.74322" lon="-3.47891">
        <ele>65.9</ele>
        <time>2020-08-15T09:39:04Z</time>
      </trkpt>
      <trkpt lat="48.74311" lon="-3.47864">
        <ele>65.8</ele>
        <time>2020-08-15T09:39:10Z</time>
      </trkpt>
      <trkpt lat="48.74299" lon="-3.47834">
        <ele>65.7</ele>
        <time>2020-08-15T09:39:17Z</time>
      </trkpt>
      <trkpt lat="48.74286" lon="-3.47811">
        <ele>65</ele>
        <time>2020-08-15T09:39:22Z</time>
      </trkpt>
      <trkpt lat="48.74271" lon="-3.47783">
        <ele>64.4</ele>
        <time>2020-08-15T09:39:28Z</time>
      </trkpt>
      <trkpt lat="48.74258" lon="-3.47762">
        <ele>63.4</ele>
        <time>2020-08-15T09:39:33Z</time>
      </trkpt>
      <trkpt lat="48.74255" lon="-3.4776">
        <ele>63.1</ele>
        <time>2020-08-15T09:39:34Z</time>
      </trkpt>
      <trkpt lat="48.74248" lon="-3.4774">
        <ele>61.6</ele>
        <time>2020-08-15T09:39:38Z</time>
      </trkpt>
      <trkpt lat="48.7424" lon="-3.47726">
        <ele>61.3</ele>
        <time>2020-08-15T09:39:43Z</time>
      </trkpt>
      <trkpt lat="48.74223" lon="-3.47711">
        <ele>61</ele>
        <time>2020-08-15T09:39:50Z</time>
      </trkpt>
      <trkpt lat="48.7421" lon="-3.47695">
        <ele>60.9</ele>
        <time>2020-08-15T09:39:57Z</time>
      </trkpt>
      <trkpt lat="48.74214" lon="-3.47675">
        <ele>61.2</ele>
        <time>2020-08-15T09:40:02Z</time>
      </trkpt>
      <trkpt lat="48.74218" lon="-3.47671">
        <ele>61.3</ele>
        <time>2020-08-15T09:40:05Z</time>
      </trkpt>
      <trkpt lat="48.74227" lon="-3.47653">
        <ele>63.1</ele>
        <time>2020-08-15T09:40:12Z</time>
      </trkpt>
      <trkpt lat="48.74223" lon="-3.47634">
        <ele>63.3</ele>
        <time>2020-08-15T09:40:18Z</time>
      </trkpt>
      <trkpt lat="48.74215" lon="-3.47598">
        <ele>64</ele>
        <time>2020-08-15T09:40:28Z</time>
      </trkpt>
      <trkpt lat="48.74208" lon="-3.47563">
        <ele>65.8</ele>
        <time>2020-08-15T09:40:38Z</time>
      </trkpt>
      <trkpt lat="48.74203" lon="-3.47537">
        <ele>65.9</ele>
        <time>2020-08-15T09:40:46Z</time>
      </trkpt>
      <trkpt lat="48.74196" lon="-3.47502">
        <ele>66</ele>
        <time>2020-08-15T09:40:56Z</time>
      </trkpt>
      <trkpt lat="48.74193" lon="-3.47467">
        <ele>66.8</ele>
        <time>2020-08-15T09:41:06Z</time>
      </trkpt>
      <trkpt lat="48.74196" lon="-3.47433">
        <ele>66.7</ele>
        <time>2020-08-15T09:41:15Z</time>
      </trkpt>
      <trkpt lat="48.74207" lon="-3.47399">
        <ele>67.4</ele>
        <time>2020-08-15T09:41:24Z</time>
      </trkpt>
      <trkpt lat="48.74221" lon="-3.47375">
        <ele>68</ele>
        <time>2020-08-15T09:41:32Z</time>
      </trkpt>
      <trkpt lat="48.74234" lon="-3.47359">
        <ele>68.6</ele>
        <time>2020-08-15T09:41:39Z</time>
      </trkpt>
      <trkpt lat="48.7425" lon="-3.47345">
        <ele>69.8</ele>
        <time>2020-08-15T09:41:47Z</time>
      </trkpt>
      <trkpt lat="48.74258" lon="-3.47324">
        <ele>71.1</ele>
        <time>2020-08-15T09:41:53Z</time>
      </trkpt>
      <trkpt lat="48.74265" lon="-3.47308">
        <ele>71</ele>
        <time>2020-08-15T09:41:59Z</time>
      </trkpt>
      <trkpt lat="48.74274" lon="-3.47304">
        <ele>71.1</ele>
        <time>2020-08-15T09:42:05Z</time>
      </trkpt>
      <trkpt lat="48.74294" lon="-3.47304">
        <ele>71.5</ele>
        <time>2020-08-15T09:42:12Z</time>
      </trkpt>
      <trkpt lat="48.74308" lon="-3.4729">
        <ele>71.6</ele>
        <time>2020-08-15T09:42:19Z</time>
      </trkpt>
      <trkpt lat="48.74323" lon="-3.47276">
        <ele>71.6</ele>
        <time>2020-08-15T09:42:26Z</time>
      </trkpt>
      <trkpt lat="48.74342" lon="-3.47257">
        <ele>72.8</ele>
        <time>2020-08-15T09:42:34Z</time>
      </trkpt>
      <trkpt lat="48.7437" lon="-3.4723">
        <ele>72.4</ele>
        <time>2020-08-15T09:42:43Z</time>
      </trkpt>
      <trkpt lat="48.74408" lon="-3.47194">
        <ele>72.7</ele>
        <time>2020-08-15T09:42:55Z</time>
      </trkpt>
      <trkpt lat="48.7443" lon="-3.47173">
        <ele>73.8</ele>
        <time>2020-08-15T09:43:03Z</time>
      </trkpt>
      <trkpt lat="48.74448" lon="-3.47156">
        <ele>73.2</ele>
        <time>2020-08-15T09:43:10Z</time>
      </trkpt>
      <trkpt lat="48.7447" lon="-3.47136">
        <ele>73.3</ele>
        <time>2020-08-15T09:43:19Z</time>
      </trkpt>
      <trkpt lat="48.74488" lon="-3.47119">
        <ele>73.4</ele>
        <time>2020-08-15T09:43:26Z</time>
      </trkpt>
      <trkpt lat="48.74504" lon="-3.47103">
        <ele>75.3</ele>
        <time>2020-08-15T09:43:33Z</time>
      </trkpt>
      <trkpt lat="48.74517" lon="-3.4709">
        <ele>75.3</ele>
        <time>2020-08-15T09:43:39Z</time>
      </trkpt>
      <trkpt lat="48.74536" lon="-3.4707">
        <ele>75.8</ele>
        <time>2020-08-15T09:43:48Z</time>
      </trkpt>
      <trkpt lat="48.74554" lon="-3.47047">
        <ele>76.3</ele>
        <time>2020-08-15T09:43:57Z</time>
      </trkpt>
      <trkpt lat="48.74571" lon="-3.47021">
        <ele>76.8</ele>
        <time>2020-08-15T09:44:05Z</time>
      </trkpt>
      <trkpt lat="48.74593" lon="-3.46976">
        <ele>78.6</ele>
        <time>2020-08-15T09:44:16Z</time>
      </trkpt>
      <trkpt lat="48.74607" lon="-3.46937">
        <ele>78.4</ele>
        <time>2020-08-15T09:44:24Z</time>
      </trkpt>
      <trkpt lat="48.74617" lon="-3.46897">
        <ele>77.3</ele>
        <time>2020-08-15T09:44:31Z</time>
      </trkpt>
      <trkpt lat="48.74624" lon="-3.46852">
        <ele>77</ele>
        <time>2020-08-15T09:44:38Z</time>
      </trkpt>
      <trkpt lat="48.74628" lon="-3.46808">
        <ele>75.7</ele>
        <time>2020-08-15T09:44:44Z</time>
      </trkpt>
      <trkpt lat="48.74632" lon="-3.46742">
        <ele>74.4</ele>
        <time>2020-08-15T09:44:52Z</time>
      </trkpt>
      <trkpt lat="48.74637" lon="-3.46689">
        <ele>74.2</ele>
        <time>2020-08-15T09:44:58Z</time>
      </trkpt>
      <trkpt lat="48.7463" lon="-3.46664">
        <ele>74.2</ele>
        <time>2020-08-15T09:45:02Z</time>
      </trkpt>
      <trkpt lat="48.74625" lon="-3.46662">
        <ele>74.2</ele>
        <time>2020-08-15T09:45:03Z</time>
      </trkpt>
      <trkpt lat="48.74589" lon="-3.46641">
        <ele>74.1</ele>
        <time>2020-08-15T09:45:11Z</time>
      </trkpt>
      <trkpt lat="48.74555" lon="-3.46612">
        <ele>72.5</ele>
        <time>2020-08-15T09:45:18Z</time>
      </trkpt>
      <trkpt lat="48.74508" lon="-3.4658">
        <ele>70.8</ele>
        <time>2020-08-15T09:45:26Z</time>
      </trkpt>
      <trkpt lat="48.74452" lon="-3.46553">
        <ele>69.3</ele>
        <time>2020-08-15T09:45:35Z</time>
      </trkpt>
      <trkpt lat="48.74378" lon="-3.46521">
        <ele>65.6</ele>
        <time>2020-08-15T09:45:46Z</time>
      </trkpt>
      <trkpt lat="48.74372" lon="-3.46519">
        <ele>65.4</ele>
        <time>2020-08-15T09:45:47Z</time>
      </trkpt>
      <trkpt lat="48.74324" lon="-3.46504">
        <ele>62.4</ele>
        <time>2020-08-15T09:45:54Z</time>
      </trkpt>
      <trkpt lat="48.74269" lon="-3.46489">
        <ele>60.2</ele>
        <time>2020-08-15T09:46:02Z</time>
      </trkpt>
      <trkpt lat="48.7423" lon="-3.4648">
        <ele>57.5</ele>
        <time>2020-08-15T09:46:07Z</time>
      </trkpt>
      <trkpt lat="48.742" lon="-3.46473">
        <ele>56.6</ele>
        <time>2020-08-15T09:46:11Z</time>
      </trkpt>
      <trkpt lat="48.74131" lon="-3.46455">
        <ele>52.6</ele>
        <time>2020-08-15T09:46:19Z</time>
      </trkpt>
      <trkpt lat="48.74064" lon="-3.46438">
        <ele>48.8</ele>
        <time>2020-08-15T09:46:27Z</time>
      </trkpt>
      <trkpt lat="48.74002" lon="-3.46422">
        <ele>47.1</ele>
        <time>2020-08-15T09:46:35Z</time>
      </trkpt>
      <trkpt lat="48.7395" lon="-3.46404">
        <ele>46.1</ele>
        <time>2020-08-15T09:46:42Z</time>
      </trkpt>
      <trkpt lat="48.73917" lon="-3.46386">
        <ele>45.9</ele>
        <time>2020-08-15T09:46:48Z</time>
      </trkpt>
      <trkpt lat="48.73908" lon="-3.46381">
        <ele>45.5</ele>
        <time>2020-08-15T09:46:50Z</time>
      </trkpt>
      <trkpt lat="48.73891" lon="-3.46365">
        <ele>46</ele>
        <time>2020-08-15T09:46:54Z</time>
      </trkpt>
      <trkpt lat="48.73895" lon="-3.46353">
        <ele>46.2</ele>
        <time>2020-08-15T09:46:57Z</time>
      </trkpt>
      <trkpt lat="48.7391" lon="-3.46343">
        <ele>46.6</ele>
        <time>2020-08-15T09:47:04Z</time>
      </trkpt>
      <trkpt lat="48.73917" lon="-3.46338">
        <ele>46.9</ele>
        <time>2020-08-15T09:47:08Z</time>
      </trkpt>
      <trkpt lat="48.73926" lon="-3.46333">
        <ele>48</ele>
        <time>2020-08-15T09:47:12Z</time>
      </trkpt>
      <trkpt lat="48.73929" lon="-3.46317">
        <ele>48.9</ele>
        <time>2020-08-15T09:47:17Z</time>
      </trkpt>
      <trkpt lat="48.73925" lon="-3.46307">
        <ele>49.3</ele>
        <time>2020-08-15T09:47:20Z</time>
      </trkpt>
      <trkpt lat="48.73907" lon="-3.46292">
        <ele>49</ele>
        <time>2020-08-15T09:47:28Z</time>
      </trkpt>
      <trkpt lat="48.73876" lon="-3.46274">
        <ele>49.2</ele>
        <time>2020-08-15T09:47:37Z</time>
      </trkpt>
      <trkpt lat="48.73845" lon="-3.46257">
        <ele>49.1</ele>
        <time>2020-08-15T09:47:45Z</time>
      </trkpt>
      <trkpt lat="48.73807" lon="-3.46235">
        <ele>49.1</ele>
        <time>2020-08-15T09:47:55Z</time>
      </trkpt>
      <trkpt lat="48.73763" lon="-3.4621">
        <ele>49.1</ele>
        <time>2020-08-15T09:48:06Z</time>
      </trkpt>
      <trkpt lat="48.73735" lon="-3.46194">
        <ele>49.5</ele>
        <time>2020-08-15T09:48:14Z</time>
      </trkpt>
      <trkpt lat="48.73707" lon="-3.46176">
        <ele>49.7</ele>
        <time>2020-08-15T09:48:22Z</time>
      </trkpt>
      <trkpt lat="48.7368" lon="-3.46156">
        <ele>49.9</ele>
        <time>2020-08-15T09:48:30Z</time>
      </trkpt>
      <trkpt lat="48.73654" lon="-3.46138">
        <ele>50.4</ele>
        <time>2020-08-15T09:48:38Z</time>
      </trkpt>
      <trkpt lat="48.73626" lon="-3.46123">
        <ele>50.5</ele>
        <time>2020-08-15T09:48:47Z</time>
      </trkpt>
      <trkpt lat="48.73606" lon="-3.46116">
        <ele>50.5</ele>
        <time>2020-08-15T09:48:54Z</time>
      </trkpt>
      <trkpt lat="48.73582" lon="-3.46098">
        <ele>48.7</ele>
        <time>2020-08-15T09:49:00Z</time>
      </trkpt>
      <trkpt lat="48.73583" lon="-3.46072">
        <ele>46.8</ele>
        <time>2020-08-15T09:49:05Z</time>
      </trkpt>
      <trkpt lat="48.73583" lon="-3.46059">
        <ele>44.6</ele>
        <time>2020-08-15T09:49:07Z</time>
      </trkpt>
      <trkpt lat="48.73584" lon="-3.46033">
        <ele>47.9</ele>
        <time>2020-08-15T09:49:11Z</time>
      </trkpt>
      <trkpt lat="48.73591" lon="-3.45996">
        <ele>45.4</ele>
        <time>2020-08-15T09:49:17Z</time>
      </trkpt>
      <trkpt lat="48.73596" lon="-3.45987">
        <ele>45.7</ele>
        <time>2020-08-15T09:49:19Z</time>
      </trkpt>
      <trkpt lat="48.7361" lon="-3.45959">
        <ele>46</ele>
        <time>2020-08-15T09:49:26Z</time>
      </trkpt>
      <trkpt lat="48.73614" lon="-3.4592">
        <ele>45.4</ele>
        <time>2020-08-15T09:49:35Z</time>
      </trkpt>
      <trkpt lat="48.73622" lon="-3.45888">
        <ele>43.2</ele>
        <time>2020-08-15T09:49:43Z</time>
      </trkpt>
      <trkpt lat="48.73635" lon="-3.45861">
        <ele>43.3</ele>
        <time>2020-08-15T09:49:50Z</time>
      </trkpt>
      <trkpt lat="48.73643" lon="-3.45837">
        <ele>44</ele>
        <time>2020-08-15T09:49:56Z</time>
      </trkpt>
      <trkpt lat="48.73653" lon="-3.45816">
        <ele>41.7</ele>
        <time>2020-08-15T09:50:01Z</time>
      </trkpt>
      <trkpt lat="48.73658" lon="-3.45809">
        <ele>41.4</ele>
        <time>2020-08-15T09:50:03Z</time>
      </trkpt>
      <trkpt lat="48.73678" lon="-3.4577">
        <ele>43.3</ele>
        <time>2020-08-15T09:50:10Z</time>
      </trkpt>
      <trkpt lat="48.73699" lon="-3.45711">
        <ele>39.7</ele>
        <time>2020-08-15T09:50:18Z</time>
      </trkpt>
      <trkpt lat="48.73715" lon="-3.45667">
        <ele>38.9</ele>
        <time>2020-08-15T09:50:25Z</time>
      </trkpt>
      <trkpt lat="48.73722" lon="-3.45635">
        <ele>34.1</ele>
        <time>2020-08-15T09:50:28Z</time>
      </trkpt>
      <trkpt lat="48.73722" lon="-3.45605">
        <ele>32.4</ele>
        <time>2020-08-15T09:50:32Z</time>
      </trkpt>
      <trkpt lat="48.73721" lon="-3.45598">
        <ele>32.1</ele>
        <time>2020-08-15T09:50:33Z</time>
      </trkpt>
      <trkpt lat="48.73703" lon="-3.45545">
        <ele>29.7</ele>
        <time>2020-08-15T09:50:39Z</time>
      </trkpt>
      <trkpt lat="48.73703" lon="-3.45538">
        <ele>29.7</ele>
        <time>2020-08-15T09:50:40Z</time>
      </trkpt>
      <trkpt lat="48.73702" lon="-3.45529">
        <ele>29.7</ele>
        <time>2020-08-15T09:50:42Z</time>
      </trkpt>
      <trkpt lat="48.73694" lon="-3.45531">
        <ele>29.7</ele>
        <time>2020-08-15T09:50:44Z</time>
      </trkpt>
      <trkpt lat="48.73672" lon="-3.45532">
        <ele>29.6</ele>
        <time>2020-08-15T09:50:48Z</time>
      </trkpt>
      <trkpt lat="48.73631" lon="-3.4552">
        <ele>25.8</ele>
        <time>2020-08-15T09:50:54Z</time>
      </trkpt>
      <trkpt lat="48.73617" lon="-3.45514">
        <ele>24.8</ele>
        <time>2020-08-15T09:50:56Z</time>
      </trkpt>
      <trkpt lat="48.73582" lon="-3.45509">
        <ele>19.6</ele>
        <time>2020-08-15T09:51:01Z</time>
      </trkpt>
      <trkpt lat="48.73555" lon="-3.45522">
        <ele>18.6</ele>
        <time>2020-08-15T09:51:06Z</time>
      </trkpt>
      <trkpt lat="48.73532" lon="-3.45531">
        <ele>17.7</ele>
        <time>2020-08-15T09:51:11Z</time>
      </trkpt>
      <trkpt lat="48.73496" lon="-3.45535">
        <ele>17.3</ele>
        <time>2020-08-15T09:51:18Z</time>
      </trkpt>
      <trkpt lat="48.73476" lon="-3.45535">
        <ele>18.1</ele>
        <time>2020-08-15T09:51:24Z</time>
      </trkpt>
      <trkpt lat="48.73453" lon="-3.4554">
        <ele>19.3</ele>
        <time>2020-08-15T09:51:30Z</time>
      </trkpt>
      <trkpt lat="48.7343" lon="-3.45553">
        <ele>20.1</ele>
        <time>2020-08-15T09:51:36Z</time>
      </trkpt>
      <trkpt lat="48.73419" lon="-3.45573">
        <ele>20.5</ele>
        <time>2020-08-15T09:51:41Z</time>
      </trkpt>
      <trkpt lat="48.73413" lon="-3.45593">
        <ele>22.9</ele>
        <time>2020-08-15T09:51:47Z</time>
      </trkpt>
      <trkpt lat="48.73411" lon="-3.45603">
        <ele>23.9</ele>
        <time>2020-08-15T09:51:50Z</time>
      </trkpt>
      <trkpt lat="48.73405" lon="-3.45629">
        <ele>24.7</ele>
        <time>2020-08-15T09:51:59Z</time>
      </trkpt>
      <trkpt lat="48.73401" lon="-3.4565">
        <ele>24</ele>
        <time>2020-08-15T09:52:07Z</time>
      </trkpt>
      <trkpt lat="48.73397" lon="-3.45672">
        <ele>23.4</ele>
        <time>2020-08-15T09:52:17Z</time>
      </trkpt>
      <trkpt lat="48.73396" lon="-3.45677">
        <ele>23.7</ele>
        <time>2020-08-15T09:52:27Z</time>
      </trkpt>
      <trkpt lat="48.73396" lon="-3.45677">
        <ele>23.7</ele>
        <time>2020-08-15T09:52:33Z</time>
      </trkpt>
      <trkpt lat="48.73388" lon="-3.45718">
        <ele>24.9</ele>
        <time>2020-08-15T09:52:40Z</time>
      </trkpt>
      <trkpt lat="48.73387" lon="-3.45722">
        <ele>24.9</ele>
        <time>2020-08-15T09:52:49Z</time>
      </trkpt>
      <trkpt lat="48.73387" lon="-3.45722">
        <ele>24.9</ele>
        <time>2020-08-15T09:52:56Z</time>
      </trkpt>
      <trkpt lat="48.73387" lon="-3.45722">
        <ele>24.9</ele>
        <time>2020-08-15T09:53:02Z</time>
      </trkpt>
      <trkpt lat="48.7337" lon="-3.4576">
        <ele>25.9</ele>
        <time>2020-08-15T09:53:09Z</time>
      </trkpt>
      <trkpt lat="48.7337" lon="-3.4576">
        <ele>25.9</ele>
        <time>2020-08-15T09:53:10Z</time>
      </trkpt>
      <trkpt lat="48.73366" lon="-3.45768">
        <ele>26.1</ele>
        <time>2020-08-15T09:53:32Z</time>
      </trkpt>
      <trkpt lat="48.73357" lon="-3.45783">
        <ele>26.3</ele>
        <time>2020-08-15T09:53:40Z</time>
      </trkpt>
      <trkpt lat="48.73354" lon="-3.45787">
        <ele>26.4</ele>
        <time>2020-08-15T09:53:42Z</time>
      </trkpt>
      <trkpt lat="48.73349" lon="-3.45795">
        <ele>26.5</ele>
        <time>2020-08-15T09:53:46Z</time>
      </trkpt>
      <trkpt lat="48.73332" lon="-3.45825">
        <ele>28</ele>
        <time>2020-08-15T09:53:56Z</time>
      </trkpt>
      <trkpt lat="48.73317" lon="-3.45851">
        <ele>24.7</ele>
        <time>2020-08-15T09:54:02Z</time>
      </trkpt>
      <trkpt lat="48.73308" lon="-3.45866">
        <ele>23.5</ele>
        <time>2020-08-15T09:54:07Z</time>
      </trkpt>
      <trkpt lat="48.73298" lon="-3.45872">
        <ele>23.1</ele>
        <time>2020-08-15T09:54:13Z</time>
      </trkpt>
      <trkpt lat="48.73295" lon="-3.45911">
        <ele>21.7</ele>
        <time>2020-08-15T09:54:19Z</time>
      </trkpt>
      <trkpt lat="48.73291" lon="-3.45948">
        <ele>16.9</ele>
        <time>2020-08-15T09:54:26Z</time>
      </trkpt>
      <trkpt lat="48.73289" lon="-3.45963">
        <ele>16.4</ele>
        <time>2020-08-15T09:54:31Z</time>
      </trkpt>
      <trkpt lat="48.73289" lon="-3.45963">
        <ele>16.4</ele>
        <time>2020-08-15T09:54:32Z</time>
      </trkpt>
      <trkpt lat="48.73288" lon="-3.45976">
        <ele>16</ele>
        <time>2020-08-15T09:56:53Z</time>
      </trkpt>
      <trkpt lat="48.73288" lon="-3.45976">
        <ele>16</ele>
        <time>2020-08-15T09:56:54Z</time>
      </trkpt>
      <trkpt lat="48.73284" lon="-3.45995">
        <ele>15.8</ele>
        <time>2020-08-15T09:57:18Z</time>
      </trkpt>
      <trkpt lat="48.7328" lon="-3.45992">
        <ele>16.1</ele>
        <time>2020-08-15T09:57:21Z</time>
      </trkpt>
      <trkpt lat="48.73274" lon="-3.45989">
        <ele>16.3</ele>
        <time>2020-08-15T09:57:25Z</time>
      </trkpt>
      <trkpt lat="48.73265" lon="-3.45983">
        <ele>16.6</ele>
        <time>2020-08-15T09:57:32Z</time>
      </trkpt>
      <trkpt lat="48.73253" lon="-3.45978">
        <ele>16.9</ele>
        <time>2020-08-15T09:57:41Z</time>
      </trkpt>
      <trkpt lat="48.73242" lon="-3.45974">
        <ele>16.6</ele>
        <time>2020-08-15T09:57:48Z</time>
      </trkpt>
      <trkpt lat="48.73233" lon="-3.45966">
        <ele>16.6</ele>
        <time>2020-08-15T09:57:55Z</time>
      </trkpt>
      <trkpt lat="48.73228" lon="-3.45952">
        <ele>16.9</ele>
        <time>2020-08-15T09:58:00Z</time>
      </trkpt>
      <trkpt lat="48.73224" lon="-3.45932">
        <ele>17.4</ele>
        <time>2020-08-15T09:58:07Z</time>
      </trkpt>
      <trkpt lat="48.73219" lon="-3.45911">
        <ele>19.8</ele>
        <time>2020-08-15T09:58:15Z</time>
      </trkpt>
      <trkpt lat="48.73217" lon="-3.45895">
        <ele>19.9</ele>
        <time>2020-08-15T09:58:21Z</time>
      </trkpt>
      <trkpt lat="48.73208" lon="-3.45871">
        <ele>20.1</ele>
        <time>2020-08-15T09:58:28Z</time>
      </trkpt>
      <trkpt lat="48.732" lon="-3.45847">
        <ele>20.2</ele>
        <time>2020-08-15T09:58:35Z</time>
      </trkpt>
      <trkpt lat="48.73188" lon="-3.4582">
        <ele>22.2</ele>
        <time>2020-08-15T09:58:44Z</time>
      </trkpt>
      <trkpt lat="48.73185" lon="-3.45813">
        <ele>22.3</ele>
        <time>2020-08-15T09:58:47Z</time>
      </trkpt>
      <trkpt lat="48.73181" lon="-3.45806">
        <ele>22.5</ele>
        <time>2020-08-15T09:58:51Z</time>
      </trkpt>
      <trkpt lat="48.73171" lon="-3.45784">
        <ele>23.1</ele>
        <time>2020-08-15T09:59:01Z</time>
      </trkpt>
      <trkpt lat="48.73164" lon="-3.45766">
        <ele>21.1</ele>
        <time>2020-08-15T09:59:08Z</time>
      </trkpt>
      <trkpt lat="48.73154" lon="-3.45744">
        <ele>22.5</ele>
        <time>2020-08-15T09:59:16Z</time>
      </trkpt>
      <trkpt lat="48.73151" lon="-3.45737">
        <ele>22.4</ele>
        <time>2020-08-15T09:59:20Z</time>
      </trkpt>
      <trkpt lat="48.73146" lon="-3.4574">
        <ele>22.3</ele>
        <time>2020-08-15T09:59:25Z</time>
      </trkpt>
      <trkpt lat="48.73135" lon="-3.45756">
        <ele>20.1</ele>
        <time>2020-08-15T09:59:31Z</time>
      </trkpt>
      <trkpt lat="48.73126" lon="-3.45771">
        <ele>19.4</ele>
        <time>2020-08-15T09:59:37Z</time>
      </trkpt>
      <trkpt lat="48.73118" lon="-3.45789">
        <ele>18.7</ele>
        <time>2020-08-15T09:59:42Z</time>
      </trkpt>
      <trkpt lat="48.7311" lon="-3.45808">
        <ele>17.6</ele>
        <time>2020-08-15T09:59:48Z</time>
      </trkpt>
      <trkpt lat="48.73106" lon="-3.45817">
        <ele>17</ele>
        <time>2020-08-15T09:59:52Z</time>
      </trkpt>
      <trkpt lat="48.73091" lon="-3.45816">
        <ele>16.1</ele>
        <time>2020-08-15T09:59:58Z</time>
      </trkpt>
      <trkpt lat="48.73066" lon="-3.45804">
        <ele>14.8</ele>
        <time>2020-08-15T10:00:03Z</time>
      </trkpt>
      <trkpt lat="48.73043" lon="-3.45796">
        <ele>14.8</ele>
        <time>2020-08-15T10:00:08Z</time>
      </trkpt>
      <trkpt lat="48.73025" lon="-3.45794">
        <ele>14.6</ele>
        <time>2020-08-15T10:00:14Z</time>
      </trkpt>
      <trkpt lat="48.7301" lon="-3.4579">
        <ele>14.6</ele>
        <time>2020-08-15T10:00:21Z</time>
      </trkpt>
      <trkpt lat="48.72994" lon="-3.45784">
        <ele>13.2</ele>
        <time>2020-08-15T10:00:30Z</time>
      </trkpt>
      <trkpt lat="48.72981" lon="-3.45779">
        <ele>13.3</ele>
        <time>2020-08-15T10:00:37Z</time>
      </trkpt>
      <trkpt lat="48.72965" lon="-3.45772">
        <ele>13.2</ele>
        <time>2020-08-15T10:00:45Z</time>
      </trkpt>
      <trkpt lat="48.72947" lon="-3.45763">
        <ele>13.3</ele>
        <time>2020-08-15T10:00:55Z</time>
      </trkpt>
      <trkpt lat="48.7294" lon="-3.45755">
        <ele>13.6</ele>
        <time>2020-08-15T10:01:01Z</time>
      </trkpt>
      <trkpt lat="48.72937" lon="-3.4575">
        <ele>13.7</ele>
        <time>2020-08-15T10:01:29Z</time>
      </trkpt>
      <trkpt lat="48.72931" lon="-3.45738">
        <ele>16.7</ele>
        <time>2020-08-15T10:01:32Z</time>
      </trkpt>
      <trkpt lat="48.72913" lon="-3.45712">
        <ele>13.5</ele>
        <time>2020-08-15T10:01:38Z</time>
      </trkpt>
      <trkpt lat="48.72885" lon="-3.45685">
        <ele>13.1</ele>
        <time>2020-08-15T10:01:45Z</time>
      </trkpt>
      <trkpt lat="48.72874" lon="-3.45677">
        <ele>12.4</ele>
        <time>2020-08-15T10:01:48Z</time>
      </trkpt>
      <trkpt lat="48.72862" lon="-3.45673">
        <ele>11.5</ele>
        <time>2020-08-15T10:01:52Z</time>
      </trkpt>
      <trkpt lat="48.72848" lon="-3.45686">
        <ele>10.6</ele>
        <time>2020-08-15T10:01:56Z</time>
      </trkpt>
      <trkpt lat="48.72826" lon="-3.45711">
        <ele>5.6</ele>
        <time>2020-08-15T10:02:01Z</time>
      </trkpt>
      <trkpt lat="48.72811" lon="-3.45746">
        <ele>4.7</ele>
        <time>2020-08-15T10:02:06Z</time>
      </trkpt>
      <trkpt lat="48.72803" lon="-3.45768">
        <ele>3.6</ele>
        <time>2020-08-15T10:02:09Z</time>
      </trkpt>
      <trkpt lat="48.72804" lon="-3.45775">
        <ele>3.6</ele>
        <time>2020-08-15T10:02:14Z</time>
      </trkpt>
      <trkpt lat="48.72796" lon="-3.45802">
        <ele>3.4</ele>
        <time>2020-08-15T10:02:22Z</time>
      </trkpt>
      <trkpt lat="48.72788" lon="-3.45832">
        <ele>3.4</ele>
        <time>2020-08-15T10:02:31Z</time>
      </trkpt>
      <trkpt lat="48.72783" lon="-3.45851">
        <ele>4.2</ele>
        <time>2020-08-15T10:02:35Z</time>
      </trkpt>
      <trkpt lat="48.72774" lon="-3.45864">
        <ele>4.5</ele>
        <time>2020-08-15T10:02:39Z</time>
      </trkpt>
      <trkpt lat="48.72765" lon="-3.4586">
        <ele>4.5</ele>
        <time>2020-08-15T10:02:43Z</time>
      </trkpt>
      <trkpt lat="48.72757" lon="-3.45854">
        <ele>4.4</ele>
        <time>2020-08-15T10:02:49Z</time>
      </trkpt>
      <trkpt lat="48.72779" lon="-3.45866">
        <ele>4.5</ele>
        <time>2020-08-15T10:02:52Z</time>
      </trkpt>
      <trkpt lat="48.72759" lon="-3.45856">
        <ele>4.4</ele>
        <time>2020-08-15T10:02:56Z</time>
      </trkpt>
      <trkpt lat="48.72761" lon="-3.45858">
        <ele>4.4</ele>
        <time>2020-08-15T10:02:57Z</time>
      </trkpt>
      <trkpt lat="48.72776" lon="-3.45864">
        <ele>4.5</ele>
        <time>2020-08-15T10:03:03Z</time>
      </trkpt>
      <trkpt lat="48.7278" lon="-3.45864">
        <ele>4.4</ele>
        <time>2020-08-15T10:03:07Z</time>
      </trkpt>
      <trkpt lat="48.7278" lon="-3.45864">
        <ele>4.4</ele>
        <time>2020-08-15T10:03:09Z</time>
      </trkpt>
      <trkpt lat="48.72766" lon="-3.4591">
        <ele>5.8</ele>
        <time>2020-08-15T10:03:17Z</time>
      </trkpt>
      <trkpt lat="48.72765" lon="-3.45934">
        <ele>6.4</ele>
        <time>2020-08-15T10:03:22Z</time>
      </trkpt>
      <trkpt lat="48.72767" lon="-3.45956">
        <ele>6.1</ele>
        <time>2020-08-15T10:03:27Z</time>
      </trkpt>
      <trkpt lat="48.72772" lon="-3.45971">
        <ele>6.1</ele>
        <time>2020-08-15T10:03:34Z</time>
      </trkpt>
      <trkpt lat="48.72772" lon="-3.45971">
        <ele>6.1</ele>
        <time>2020-08-15T10:03:37Z</time>
      </trkpt>
      <trkpt lat="48.72777" lon="-3.45989">
        <ele>6</ele>
        <time>2020-08-15T10:03:41Z</time>
      </trkpt>
      <trkpt lat="48.72783" lon="-3.46023">
        <ele>7.2</ele>
        <time>2020-08-15T10:03:49Z</time>
      </trkpt>
      <trkpt lat="48.72786" lon="-3.46034">
        <ele>7.4</ele>
        <time>2020-08-15T10:03:52Z</time>
      </trkpt>
      <trkpt lat="48.72788" lon="-3.46046">
        <ele>7.6</ele>
        <time>2020-08-15T10:03:56Z</time>
      </trkpt>
      <trkpt lat="48.72809" lon="-3.46052">
        <ele>7.6</ele>
        <time>2020-08-15T10:04:03Z</time>
      </trkpt>
      <trkpt lat="48.72826" lon="-3.46048">
        <ele>7.4</ele>
        <time>2020-08-15T10:04:11Z</time>
      </trkpt>
      <trkpt lat="48.72848" lon="-3.46042">
        <ele>6.8</ele>
        <time>2020-08-15T10:04:19Z</time>
      </trkpt>
      <trkpt lat="48.72873" lon="-3.46035">
        <ele>6.7</ele>
        <time>2020-08-15T10:04:27Z</time>
      </trkpt>
      <trkpt lat="48.72879" lon="-3.46034">
        <ele>6.6</ele>
        <time>2020-08-15T10:04:31Z</time>
      </trkpt>
      <trkpt lat="48.72894" lon="-3.46017">
        <ele>6.2</ele>
        <time>2020-08-15T10:04:37Z</time>
      </trkpt>
      <trkpt lat="48.72894" lon="-3.46017">
        <ele>6.2</ele>
        <time>2020-08-15T10:04:38Z</time>
      </trkpt>
      <trkpt lat="48.72909" lon="-3.4601">
        <ele>5.7</ele>
        <time>2020-08-15T10:04:43Z</time>
      </trkpt>
      <trkpt lat="48.72911" lon="-3.46012">
        <ele>5.7</ele>
        <time>2020-08-15T10:04:45Z</time>
      </trkpt>
      <trkpt lat="48.7293" lon="-3.46031">
        <ele>5.9</ele>
        <time>2020-08-15T10:04:52Z</time>
      </trkpt>
      <trkpt lat="48.72977" lon="-3.46052">
        <ele>6.1</ele>
        <time>2020-08-15T10:05:02Z</time>
      </trkpt>
      <trkpt lat="48.73001" lon="-3.46051">
        <ele>5.6</ele>
        <time>2020-08-15T10:05:07Z</time>
      </trkpt>
      <trkpt lat="48.73014" lon="-3.46048">
        <ele>5.5</ele>
        <time>2020-08-15T10:05:14Z</time>
      </trkpt>
      <trkpt lat="48.73036" lon="-3.46036">
        <ele>5.2</ele>
        <time>2020-08-15T10:05:21Z</time>
      </trkpt>
      <trkpt lat="48.7306" lon="-3.46001">
        <ele>5</ele>
        <time>2020-08-15T10:05:29Z</time>
      </trkpt>
      <trkpt lat="48.73066" lon="-3.45993">
        <ele>5</ele>
        <time>2020-08-15T10:05:37Z</time>
      </trkpt>
      <trkpt lat="48.73066" lon="-3.45993">
        <ele>5</ele>
        <time>2020-08-15T10:05:42Z</time>
      </trkpt>
      <trkpt lat="48.73088" lon="-3.45955">
        <ele>8.7</ele>
        <time>2020-08-15T10:05:47Z</time>
      </trkpt>
      <trkpt lat="48.73095" lon="-3.45944">
        <ele>9</ele>
        <time>2020-08-15T10:05:52Z</time>
      </trkpt>
      <trkpt lat="48.73091" lon="-3.4595">
        <ele>8.8</ele>
        <time>2020-08-15T10:05:57Z</time>
      </trkpt>
      <trkpt lat="48.73091" lon="-3.4595">
        <ele>8.8</ele>
        <time>2020-08-15T10:06:01Z</time>
      </trkpt>
      <trkpt lat="48.7311" lon="-3.4592">
        <ele>9.5</ele>
        <time>2020-08-15T10:18:36Z</time>
      </trkpt>
      <trkpt lat="48.73083" lon="-3.45964">
        <ele>5.4</ele>
        <time>2020-08-15T10:18:43Z</time>
      </trkpt>
      <trkpt lat="48.73079" lon="-3.45972">
        <ele>5.3</ele>
        <time>2020-08-15T10:18:46Z</time>
      </trkpt>
      <trkpt lat="48.73076" lon="-3.45979">
        <ele>5.2</ele>
        <time>2020-08-15T10:18:52Z</time>
      </trkpt>
      <trkpt lat="48.73076" lon="-3.45979">
        <ele>5.2</ele>
        <time>2020-08-15T10:18:53Z</time>
      </trkpt>
      <trkpt lat="48.73074" lon="-3.45985">
        <ele>5.1</ele>
        <time>2020-08-15T10:19:00Z</time>
      </trkpt>
      <trkpt lat="48.73066" lon="-3.45993">
        <ele>5</ele>
        <time>2020-08-15T10:19:05Z</time>
      </trkpt>
      <trkpt lat="48.73066" lon="-3.45993">
        <ele>5</ele>
        <time>2020-08-15T10:19:12Z</time>
      </trkpt>
      <trkpt lat="48.73024" lon="-3.4595">
        <ele>4.7</ele>
        <time>2020-08-15T10:19:20Z</time>
      </trkpt>
      <trkpt lat="48.72997" lon="-3.45927">
        <ele>3.3</ele>
        <time>2020-08-15T10:19:29Z</time>
      </trkpt>
      <trkpt lat="48.72974" lon="-3.45907">
        <ele>4.7</ele>
        <time>2020-08-15T10:19:37Z</time>
      </trkpt>
      <trkpt lat="48.72952" lon="-3.4589">
        <ele>5.2</ele>
        <time>2020-08-15T10:19:44Z</time>
      </trkpt>
      <trkpt lat="48.72932" lon="-3.45874">
        <ele>5.6</ele>
        <time>2020-08-15T10:19:50Z</time>
      </trkpt>
      <trkpt lat="48.72917" lon="-3.45863">
        <ele>5.9</ele>
        <time>2020-08-15T10:19:55Z</time>
      </trkpt>
      <trkpt lat="48.72895" lon="-3.45847">
        <ele>5</ele>
        <time>2020-08-15T10:20:02Z</time>
      </trkpt>
      <trkpt lat="48.72871" lon="-3.45828">
        <ele>5.9</ele>
        <time>2020-08-15T10:20:10Z</time>
      </trkpt>
      <trkpt lat="48.72846" lon="-3.45809">
        <ele>5.1</ele>
        <time>2020-08-15T10:20:18Z</time>
      </trkpt>
      <trkpt lat="48.72825" lon="-3.45796">
        <ele>3.3</ele>
        <time>2020-08-15T10:20:25Z</time>
      </trkpt>
      <trkpt lat="48.72822" lon="-3.45794">
        <ele>3.3</ele>
        <time>2020-08-15T10:20:29Z</time>
      </trkpt>
      <trkpt lat="48.72801" lon="-3.45786">
        <ele>3.5</ele>
        <time>2020-08-15T10:20:33Z</time>
      </trkpt>
      <trkpt lat="48.72789" lon="-3.45828">
        <ele>3.4</ele>
        <time>2020-08-15T10:20:43Z</time>
      </trkpt>
      <trkpt lat="48.72783" lon="-3.45851">
        <ele>4.2</ele>
        <time>2020-08-15T10:20:48Z</time>
      </trkpt>
      <trkpt lat="48.7278" lon="-3.45862">
        <ele>4.4</ele>
        <time>2020-08-15T10:20:52Z</time>
      </trkpt>
      <trkpt lat="48.72775" lon="-3.45864">
        <ele>4.5</ele>
        <time>2020-08-15T10:20:57Z</time>
      </trkpt>
      <trkpt lat="48.72765" lon="-3.4586">
        <ele>4.5</ele>
        <time>2020-08-15T10:21:01Z</time>
      </trkpt>
      <trkpt lat="48.72746" lon="-3.45847">
        <ele>6.6</ele>
        <time>2020-08-15T10:21:09Z</time>
      </trkpt>
      <trkpt lat="48.72728" lon="-3.45837">
        <ele>7.8</ele>
        <time>2020-08-15T10:21:15Z</time>
      </trkpt>
      <trkpt lat="48.72706" lon="-3.45805">
        <ele>7.6</ele>
        <time>2020-08-15T10:21:23Z</time>
      </trkpt>
      <trkpt lat="48.72682" lon="-3.45764">
        <ele>7.3</ele>
        <time>2020-08-15T10:21:33Z</time>
      </trkpt>
      <trkpt lat="48.72668" lon="-3.45746">
        <ele>6.7</ele>
        <time>2020-08-15T10:21:39Z</time>
      </trkpt>
      <trkpt lat="48.72661" lon="-3.45738">
        <ele>10.9</ele>
        <time>2020-08-15T10:21:45Z</time>
      </trkpt>
      <trkpt lat="48.72642" lon="-3.45721">
        <ele>14.7</ele>
        <time>2020-08-15T10:21:51Z</time>
      </trkpt>
      <trkpt lat="48.72626" lon="-3.45701">
        <ele>16.4</ele>
        <time>2020-08-15T10:21:59Z</time>
      </trkpt>
      <trkpt lat="48.72611" lon="-3.45688">
        <ele>18.2</ele>
        <time>2020-08-15T10:22:06Z</time>
      </trkpt>
      <trkpt lat="48.72597" lon="-3.45667">
        <ele>20.8</ele>
        <time>2020-08-15T10:22:15Z</time>
      </trkpt>
      <trkpt lat="48.72585" lon="-3.4565">
        <ele>18</ele>
        <time>2020-08-15T10:22:22Z</time>
      </trkpt>
      <trkpt lat="48.72578" lon="-3.45632">
        <ele>24.8</ele>
        <time>2020-08-15T10:22:27Z</time>
      </trkpt>
      <trkpt lat="48.72572" lon="-3.45612">
        <ele>23.2</ele>
        <time>2020-08-15T10:22:33Z</time>
      </trkpt>
      <trkpt lat="48.72566" lon="-3.45593">
        <ele>21.2</ele>
        <time>2020-08-15T10:22:38Z</time>
      </trkpt>
      <trkpt lat="48.72561" lon="-3.45575">
        <ele>18.3</ele>
        <time>2020-08-15T10:22:42Z</time>
      </trkpt>
      <trkpt lat="48.72541" lon="-3.45529">
        <ele>20.1</ele>
        <time>2020-08-15T10:22:50Z</time>
      </trkpt>
      <trkpt lat="48.72516" lon="-3.45488">
        <ele>18.2</ele>
        <time>2020-08-15T10:22:57Z</time>
      </trkpt>
      <trkpt lat="48.72496" lon="-3.45463">
        <ele>25.2</ele>
        <time>2020-08-15T10:23:03Z</time>
      </trkpt>
      <trkpt lat="48.72475" lon="-3.45421">
        <ele>22.5</ele>
        <time>2020-08-15T10:23:11Z</time>
      </trkpt>
      <trkpt lat="48.72473" lon="-3.45415">
        <ele>16.5</ele>
        <time>2020-08-15T10:23:12Z</time>
      </trkpt>
      <trkpt lat="48.7246" lon="-3.4537">
        <ele>16.5</ele>
        <time>2020-08-15T10:23:19Z</time>
      </trkpt>
      <trkpt lat="48.7245" lon="-3.45337">
        <ele>15.4</ele>
        <time>2020-08-15T10:23:24Z</time>
      </trkpt>
      <trkpt lat="48.72432" lon="-3.45277">
        <ele>8.4</ele>
        <time>2020-08-15T10:23:33Z</time>
      </trkpt>
      <trkpt lat="48.72417" lon="-3.45229">
        <ele>5.7</ele>
        <time>2020-08-15T10:23:40Z</time>
      </trkpt>
      <trkpt lat="48.72409" lon="-3.45208">
        <ele>10.6</ele>
        <time>2020-08-15T10:23:43Z</time>
      </trkpt>
      <trkpt lat="48.72384" lon="-3.45151">
        <ele>7.9</ele>
        <time>2020-08-15T10:23:51Z</time>
      </trkpt>
      <trkpt lat="48.72366" lon="-3.45103">
        <ele>8.1</ele>
        <time>2020-08-15T10:23:58Z</time>
      </trkpt>
      <trkpt lat="48.72347" lon="-3.45058">
        <ele>7</ele>
        <time>2020-08-15T10:24:05Z</time>
      </trkpt>
      <trkpt lat="48.72328" lon="-3.45018">
        <ele>9</ele>
        <time>2020-08-15T10:24:12Z</time>
      </trkpt>
      <trkpt lat="48.72304" lon="-3.44974">
        <ele>8.2</ele>
        <time>2020-08-15T10:24:21Z</time>
      </trkpt>
      <trkpt lat="48.72301" lon="-3.44969">
        <ele>8.3</ele>
        <time>2020-08-15T10:24:22Z</time>
      </trkpt>
      <trkpt lat="48.72287" lon="-3.4494">
        <ele>8.5</ele>
        <time>2020-08-15T10:24:29Z</time>
      </trkpt>
      <trkpt lat="48.7228" lon="-3.44899">
        <ele>7.9</ele>
        <time>2020-08-15T10:24:35Z</time>
      </trkpt>
      <trkpt lat="48.72274" lon="-3.44852">
        <ele>7.7</ele>
        <time>2020-08-15T10:24:43Z</time>
      </trkpt>
      <trkpt lat="48.72267" lon="-3.44809">
        <ele>7.9</ele>
        <time>2020-08-15T10:24:50Z</time>
      </trkpt>
      <trkpt lat="48.72254" lon="-3.4478">
        <ele>7.7</ele>
        <time>2020-08-15T10:24:56Z</time>
      </trkpt>
      <trkpt lat="48.72241" lon="-3.44767">
        <ele>10.3</ele>
        <time>2020-08-15T10:25:02Z</time>
      </trkpt>
      <trkpt lat="48.72227" lon="-3.44761">
        <ele>11.2</ele>
        <time>2020-08-15T10:25:10Z</time>
      </trkpt>
      <trkpt lat="48.72212" lon="-3.4476">
        <ele>12.7</ele>
        <time>2020-08-15T10:25:19Z</time>
      </trkpt>
      <trkpt lat="48.72196" lon="-3.4476">
        <ele>14.1</ele>
        <time>2020-08-15T10:25:29Z</time>
      </trkpt>
      <trkpt lat="48.72183" lon="-3.4476">
        <ele>15.1</ele>
        <time>2020-08-15T10:25:39Z</time>
      </trkpt>
      <trkpt lat="48.7217" lon="-3.44757">
        <ele>16.1</ele>
        <time>2020-08-15T10:25:49Z</time>
      </trkpt>
      <trkpt lat="48.72156" lon="-3.44747">
        <ele>20.3</ele>
        <time>2020-08-15T10:25:59Z</time>
      </trkpt>
      <trkpt lat="48.72148" lon="-3.44738">
        <ele>22.4</ele>
        <time>2020-08-15T10:26:06Z</time>
      </trkpt>
      <trkpt lat="48.7214" lon="-3.44727">
        <ele>24</ele>
        <time>2020-08-15T10:26:13Z</time>
      </trkpt>
      <trkpt lat="48.72135" lon="-3.44717">
        <ele>24.7</ele>
        <time>2020-08-15T10:26:18Z</time>
      </trkpt>
      <trkpt lat="48.72129" lon="-3.44699">
        <ele>25</ele>
        <time>2020-08-15T10:26:26Z</time>
      </trkpt>
      <trkpt lat="48.72124" lon="-3.4467">
        <ele>25.3</ele>
        <time>2020-08-15T10:26:35Z</time>
      </trkpt>
      <trkpt lat="48.72123" lon="-3.44642">
        <ele>23.9</ele>
        <time>2020-08-15T10:26:43Z</time>
      </trkpt>
      <trkpt lat="48.72122" lon="-3.446">
        <ele>23.8</ele>
        <time>2020-08-15T10:26:53Z</time>
      </trkpt>
      <trkpt lat="48.72119" lon="-3.44571">
        <ele>23.5</ele>
        <time>2020-08-15T10:27:00Z</time>
      </trkpt>
      <trkpt lat="48.72117" lon="-3.44552">
        <ele>23.3</ele>
        <time>2020-08-15T10:27:06Z</time>
      </trkpt>
      <trkpt lat="48.72111" lon="-3.44535">
        <ele>23.7</ele>
        <time>2020-08-15T10:27:14Z</time>
      </trkpt>
      <trkpt lat="48.72104" lon="-3.4452">
        <ele>24.7</ele>
        <time>2020-08-15T10:27:22Z</time>
      </trkpt>
      <trkpt lat="48.72095" lon="-3.44503">
        <ele>27</ele>
        <time>2020-08-15T10:27:31Z</time>
      </trkpt>
      <trkpt lat="48.72087" lon="-3.44494">
        <ele>27.4</ele>
        <time>2020-08-15T10:27:38Z</time>
      </trkpt>
      <trkpt lat="48.72074" lon="-3.44482">
        <ele>30.8</ele>
        <time>2020-08-15T10:27:47Z</time>
      </trkpt>
      <trkpt lat="48.72058" lon="-3.44471">
        <ele>31.3</ele>
        <time>2020-08-15T10:27:57Z</time>
      </trkpt>
      <trkpt lat="48.72044" lon="-3.44463">
        <ele>31.8</ele>
        <time>2020-08-15T10:28:06Z</time>
      </trkpt>
      <trkpt lat="48.72035" lon="-3.44459">
        <ele>32.1</ele>
        <time>2020-08-15T10:28:12Z</time>
      </trkpt>
      <trkpt lat="48.72015" lon="-3.44462">
        <ele>33.2</ele>
        <time>2020-08-15T10:28:19Z</time>
      </trkpt>
      <trkpt lat="48.72015" lon="-3.44456">
        <ele>32.9</ele>
        <time>2020-08-15T10:28:21Z</time>
      </trkpt>
      <trkpt lat="48.72015" lon="-3.44472">
        <ele>33.8</ele>
        <time>2020-08-15T10:28:26Z</time>
      </trkpt>
      <trkpt lat="48.72016" lon="-3.44484">
        <ele>34.6</ele>
        <time>2020-08-15T10:28:32Z</time>
      </trkpt>
      <trkpt lat="48.72016" lon="-3.44494">
        <ele>35.4</ele>
        <time>2020-08-15T10:28:37Z</time>
      </trkpt>
      <trkpt lat="48.72016" lon="-3.4451">
        <ele>37.5</ele>
        <time>2020-08-15T10:28:46Z</time>
      </trkpt>
      <trkpt lat="48.72017" lon="-3.44526">
        <ele>37.3</ele>
        <time>2020-08-15T10:28:54Z</time>
      </trkpt>
      <trkpt lat="48.72018" lon="-3.44543">
        <ele>37.5</ele>
        <time>2020-08-15T10:29:02Z</time>
      </trkpt>
      <trkpt lat="48.72019" lon="-3.44555">
        <ele>38</ele>
        <time>2020-08-15T10:29:08Z</time>
      </trkpt>
      <trkpt lat="48.72019" lon="-3.44563">
        <ele>38.4</ele>
        <time>2020-08-15T10:29:12Z</time>
      </trkpt>
      <trkpt lat="48.7202" lon="-3.44583">
        <ele>39.2</ele>
        <time>2020-08-15T10:29:22Z</time>
      </trkpt>
      <trkpt lat="48.72021" lon="-3.44599">
        <ele>40.3</ele>
        <time>2020-08-15T10:29:30Z</time>
      </trkpt>
      <trkpt lat="48.72022" lon="-3.44619">
        <ele>40.1</ele>
        <time>2020-08-15T10:29:40Z</time>
      </trkpt>
      <trkpt lat="48.72022" lon="-3.44638">
        <ele>40.6</ele>
        <time>2020-08-15T10:29:49Z</time>
      </trkpt>
      <trkpt lat="48.72022" lon="-3.44659">
        <ele>41.5</ele>
        <time>2020-08-15T10:29:58Z</time>
      </trkpt>
      <trkpt lat="48.72022" lon="-3.4468">
        <ele>43.4</ele>
        <time>2020-08-15T10:30:07Z</time>
      </trkpt>
      <trkpt lat="48.72022" lon="-3.447">
        <ele>43.4</ele>
        <time>2020-08-15T10:30:16Z</time>
      </trkpt>
      <trkpt lat="48.72022" lon="-3.44726">
        <ele>44.5</ele>
        <time>2020-08-15T10:30:27Z</time>
      </trkpt>
      <trkpt lat="48.72021" lon="-3.44755">
        <ele>47.9</ele>
        <time>2020-08-15T10:30:38Z</time>
      </trkpt>
      <trkpt lat="48.7202" lon="-3.44781">
        <ele>47.5</ele>
        <time>2020-08-15T10:30:48Z</time>
      </trkpt>
      <trkpt lat="48.72019" lon="-3.44807">
        <ele>48.2</ele>
        <time>2020-08-15T10:30:57Z</time>
      </trkpt>
      <trkpt lat="48.72019" lon="-3.44823">
        <ele>49.1</ele>
        <time>2020-08-15T10:31:03Z</time>
      </trkpt>
      <trkpt lat="48.72015" lon="-3.44834">
        <ele>50.9</ele>
        <time>2020-08-15T10:31:09Z</time>
      </trkpt>
      <trkpt lat="48.72001" lon="-3.44841">
        <ele>51.9</ele>
        <time>2020-08-15T10:31:16Z</time>
      </trkpt>
      <trkpt lat="48.71981" lon="-3.44837">
        <ele>54.1</ele>
        <time>2020-08-15T10:31:25Z</time>
      </trkpt>
      <trkpt lat="48.71963" lon="-3.44834">
        <ele>54.8</ele>
        <time>2020-08-15T10:31:34Z</time>
      </trkpt>
      <trkpt lat="48.71958" lon="-3.44833">
        <ele>54.1</ele>
        <time>2020-08-15T10:31:39Z</time>
      </trkpt>
      <trkpt lat="48.71953" lon="-3.44832">
        <ele>54.3</ele>
        <time>2020-08-15T10:32:48Z</time>
      </trkpt>
      <trkpt lat="48.71933" lon="-3.44829">
        <ele>55.3</ele>
        <time>2020-08-15T10:32:57Z</time>
      </trkpt>
      <trkpt lat="48.71907" lon="-3.44825">
        <ele>56.6</ele>
        <time>2020-08-15T10:33:06Z</time>
      </trkpt>
      <trkpt lat="48.71877" lon="-3.44822">
        <ele>56.5</ele>
        <time>2020-08-15T10:33:16Z</time>
      </trkpt>
      <trkpt lat="48.71853" lon="-3.44824">
        <ele>56.9</ele>
        <time>2020-08-15T10:33:24Z</time>
      </trkpt>
      <trkpt lat="48.71827" lon="-3.44833">
        <ele>58.2</ele>
        <time>2020-08-15T10:33:33Z</time>
      </trkpt>
      <trkpt lat="48.71809" lon="-3.44853">
        <ele>61</ele>
        <time>2020-08-15T10:33:40Z</time>
      </trkpt>
      <trkpt lat="48.71801" lon="-3.44887">
        <ele>61.9</ele>
        <time>2020-08-15T10:33:47Z</time>
      </trkpt>
      <trkpt lat="48.71801" lon="-3.44935">
        <ele>63.1</ele>
        <time>2020-08-15T10:33:56Z</time>
      </trkpt>
      <trkpt lat="48.718" lon="-3.44966">
        <ele>63.5</ele>
        <time>2020-08-15T10:34:02Z</time>
      </trkpt>
      <trkpt lat="48.718" lon="-3.45">
        <ele>62.7</ele>
        <time>2020-08-15T10:34:09Z</time>
      </trkpt>
      <trkpt lat="48.71804" lon="-3.45034">
        <ele>62.2</ele>
        <time>2020-08-15T10:34:16Z</time>
      </trkpt>
      <trkpt lat="48.71808" lon="-3.45072">
        <ele>61.4</ele>
        <time>2020-08-15T10:34:24Z</time>
      </trkpt>
      <trkpt lat="48.7181" lon="-3.45091">
        <ele>59.9</ele>
        <time>2020-08-15T10:34:29Z</time>
      </trkpt>
      <trkpt lat="48.71812" lon="-3.45129">
        <ele>59.5</ele>
        <time>2020-08-15T10:34:39Z</time>
      </trkpt>
      <trkpt lat="48.71812" lon="-3.45156">
        <ele>59.1</ele>
        <time>2020-08-15T10:34:46Z</time>
      </trkpt>
      <trkpt lat="48.71805" lon="-3.45194">
        <ele>58.4</ele>
        <time>2020-08-15T10:34:54Z</time>
      </trkpt>
      <trkpt lat="48.71796" lon="-3.45233">
        <ele>58.3</ele>
        <time>2020-08-15T10:35:02Z</time>
      </trkpt>
      <trkpt lat="48.71786" lon="-3.45279">
        <ele>58.1</ele>
        <time>2020-08-15T10:35:11Z</time>
      </trkpt>
      <trkpt lat="48.71781" lon="-3.45305">
        <ele>58</ele>
        <time>2020-08-15T10:35:16Z</time>
      </trkpt>
      <trkpt lat="48.71769" lon="-3.45317">
        <ele>58</ele>
        <time>2020-08-15T10:35:21Z</time>
      </trkpt>
      <trkpt lat="48.71743" lon="-3.453">
        <ele>58.4</ele>
        <time>2020-08-15T10:35:29Z</time>
      </trkpt>
      <trkpt lat="48.71699" lon="-3.45285">
        <ele>58.6</ele>
        <time>2020-08-15T10:35:40Z</time>
      </trkpt>
      <trkpt lat="48.71659" lon="-3.45271">
        <ele>59.1</ele>
        <time>2020-08-15T10:35:50Z</time>
      </trkpt>
      <trkpt lat="48.7162" lon="-3.45259">
        <ele>59</ele>
        <time>2020-08-15T10:36:00Z</time>
      </trkpt>
      <trkpt lat="48.71596" lon="-3.45252">
        <ele>59.4</ele>
        <time>2020-08-15T10:36:07Z</time>
      </trkpt>
      <trkpt lat="48.71579" lon="-3.4525">
        <ele>59.7</ele>
        <time>2020-08-15T10:36:13Z</time>
      </trkpt>
      <trkpt lat="48.7157" lon="-3.45258">
        <ele>59.1</ele>
        <time>2020-08-15T10:36:18Z</time>
      </trkpt>
      <trkpt lat="48.71556" lon="-3.45244">
        <ele>59.8</ele>
        <time>2020-08-15T10:36:23Z</time>
      </trkpt>
      <trkpt lat="48.7153" lon="-3.45221">
        <ele>59.7</ele>
        <time>2020-08-15T10:36:32Z</time>
      </trkpt>
      <trkpt lat="48.71512" lon="-3.45208">
        <ele>59.7</ele>
        <time>2020-08-15T10:36:38Z</time>
      </trkpt>
      <trkpt lat="48.71484" lon="-3.45188">
        <ele>58.9</ele>
        <time>2020-08-15T10:36:47Z</time>
      </trkpt>
      <trkpt lat="48.7145" lon="-3.45163">
        <ele>60</ele>
        <time>2020-08-15T10:36:57Z</time>
      </trkpt>
      <trkpt lat="48.71405" lon="-3.45132">
        <ele>60.6</ele>
        <time>2020-08-15T10:37:09Z</time>
      </trkpt>
      <trkpt lat="48.71371" lon="-3.4511">
        <ele>61.6</ele>
        <time>2020-08-15T10:37:18Z</time>
      </trkpt>
      <trkpt lat="48.71337" lon="-3.4509">
        <ele>63.9</ele>
        <time>2020-08-15T10:37:27Z</time>
      </trkpt>
      <trkpt lat="48.71307" lon="-3.45073">
        <ele>64.4</ele>
        <time>2020-08-15T10:37:35Z</time>
      </trkpt>
      <trkpt lat="48.71285" lon="-3.4506">
        <ele>63.8</ele>
        <time>2020-08-15T10:37:41Z</time>
      </trkpt>
      <trkpt lat="48.71281" lon="-3.45058">
        <ele>63.7</ele>
        <time>2020-08-15T10:37:44Z</time>
      </trkpt>
      <trkpt lat="48.71278" lon="-3.45057">
        <ele>63.6</ele>
        <time>2020-08-15T10:37:54Z</time>
      </trkpt>
      <trkpt lat="48.71266" lon="-3.45051">
        <ele>63.5</ele>
        <time>2020-08-15T10:38:03Z</time>
      </trkpt>
      <trkpt lat="48.71254" lon="-3.45046">
        <ele>63.4</ele>
        <time>2020-08-15T10:38:09Z</time>
      </trkpt>
      <trkpt lat="48.71238" lon="-3.45039">
        <ele>61.9</ele>
        <time>2020-08-15T10:38:17Z</time>
      </trkpt>
      <trkpt lat="48.71224" lon="-3.45033">
        <ele>62</ele>
        <time>2020-08-15T10:38:23Z</time>
      </trkpt>
      <trkpt lat="48.71199" lon="-3.45022">
        <ele>62.1</ele>
        <time>2020-08-15T10:38:32Z</time>
      </trkpt>
      <trkpt lat="48.71178" lon="-3.45013">
        <ele>62.4</ele>
        <time>2020-08-15T10:38:39Z</time>
      </trkpt>
      <trkpt lat="48.71154" lon="-3.45004">
        <ele>62.2</ele>
        <time>2020-08-15T10:38:46Z</time>
      </trkpt>
      <trkpt lat="48.71134" lon="-3.45">
        <ele>61.6</ele>
        <time>2020-08-15T10:38:56Z</time>
      </trkpt>
      <trkpt lat="48.71099" lon="-3.45001">
        <ele>61.1</ele>
        <time>2020-08-15T10:39:03Z</time>
      </trkpt>
      <trkpt lat="48.71064" lon="-3.45001">
        <ele>61</ele>
        <time>2020-08-15T10:39:15Z</time>
      </trkpt>
      <trkpt lat="48.7104" lon="-3.45">
        <ele>61</ele>
        <time>2020-08-15T10:39:24Z</time>
      </trkpt>
      <trkpt lat="48.7103" lon="-3.45023">
        <ele>61</ele>
        <time>2020-08-15T10:39:30Z</time>
      </trkpt>
      <trkpt lat="48.71024" lon="-3.45057">
        <ele>61.2</ele>
        <time>2020-08-15T10:39:38Z</time>
      </trkpt>
      <trkpt lat="48.71021" lon="-3.45081">
        <ele>61.4</ele>
        <time>2020-08-15T10:39:44Z</time>
      </trkpt>
      <trkpt lat="48.71016" lon="-3.45105">
        <ele>60.7</ele>
        <time>2020-08-15T10:39:49Z</time>
      </trkpt>
      <trkpt lat="48.71011" lon="-3.45127">
        <ele>60.3</ele>
        <time>2020-08-15T10:39:53Z</time>
      </trkpt>
      <trkpt lat="48.71006" lon="-3.45151">
        <ele>60</ele>
        <time>2020-08-15T10:39:59Z</time>
      </trkpt>
      <trkpt lat="48.71001" lon="-3.45174">
        <ele>59.5</ele>
        <time>2020-08-15T10:40:05Z</time>
      </trkpt>
      <trkpt lat="48.70999" lon="-3.45204">
        <ele>59.9</ele>
        <time>2020-08-15T10:40:11Z</time>
      </trkpt>
      <trkpt lat="48.70996" lon="-3.45234">
        <ele>59.1</ele>
        <time>2020-08-15T10:40:16Z</time>
      </trkpt>
      <trkpt lat="48.70988" lon="-3.45264">
        <ele>58</ele>
        <time>2020-08-15T10:40:21Z</time>
      </trkpt>
      <trkpt lat="48.70986" lon="-3.45272">
        <ele>57.9</ele>
        <time>2020-08-15T10:40:23Z</time>
      </trkpt>
      <trkpt lat="48.70996" lon="-3.45287">
        <ele>57.7</ele>
        <time>2020-08-15T10:40:28Z</time>
      </trkpt>
      <trkpt lat="48.71005" lon="-3.45316">
        <ele>56.2</ele>
        <time>2020-08-15T10:40:33Z</time>
      </trkpt>
      <trkpt lat="48.71007" lon="-3.4535">
        <ele>55</ele>
        <time>2020-08-15T10:40:38Z</time>
      </trkpt>
      <trkpt lat="48.71013" lon="-3.45375">
        <ele>54.3</ele>
        <time>2020-08-15T10:40:42Z</time>
      </trkpt>
      <trkpt lat="48.7102" lon="-3.45407">
        <ele>53.9</ele>
        <time>2020-08-15T10:40:47Z</time>
      </trkpt>
      <trkpt lat="48.71024" lon="-3.45426">
        <ele>52.7</ele>
        <time>2020-08-15T10:40:53Z</time>
      </trkpt>
      <trkpt lat="48.71008" lon="-3.45438">
        <ele>52.7</ele>
        <time>2020-08-15T10:40:58Z</time>
      </trkpt>
      <trkpt lat="48.70986" lon="-3.45444">
        <ele>54</ele>
        <time>2020-08-15T10:41:06Z</time>
      </trkpt>
      <trkpt lat="48.70965" lon="-3.45446">
        <ele>54.3</ele>
        <time>2020-08-15T10:41:13Z</time>
      </trkpt>
      <trkpt lat="48.7094" lon="-3.45448">
        <ele>54.8</ele>
        <time>2020-08-15T10:41:21Z</time>
      </trkpt>
      <trkpt lat="48.70917" lon="-3.4545">
        <ele>55.1</ele>
        <time>2020-08-15T10:41:29Z</time>
      </trkpt>
      <trkpt lat="48.70894" lon="-3.45451">
        <ele>56.9</ele>
        <time>2020-08-15T10:41:37Z</time>
      </trkpt>
      <trkpt lat="48.70882" lon="-3.45457">
        <ele>56.9</ele>
        <time>2020-08-15T10:41:41Z</time>
      </trkpt>
      <trkpt lat="48.70877" lon="-3.45475">
        <ele>56.8</ele>
        <time>2020-08-15T10:41:47Z</time>
      </trkpt>
      <trkpt lat="48.70872" lon="-3.45496">
        <ele>56.7</ele>
        <time>2020-08-15T10:41:54Z</time>
      </trkpt>
      <trkpt lat="48.70865" lon="-3.45522">
        <ele>54.8</ele>
        <time>2020-08-15T10:42:02Z</time>
      </trkpt>
      <trkpt lat="48.7086" lon="-3.45543">
        <ele>54.3</ele>
        <time>2020-08-15T10:42:08Z</time>
      </trkpt>
      <trkpt lat="48.70852" lon="-3.45572">
        <ele>53.7</ele>
        <time>2020-08-15T10:42:14Z</time>
      </trkpt>
      <trkpt lat="48.70841" lon="-3.45609">
        <ele>52.6</ele>
        <time>2020-08-15T10:42:20Z</time>
      </trkpt>
      <trkpt lat="48.7083" lon="-3.45637">
        <ele>54.5</ele>
        <time>2020-08-15T10:42:24Z</time>
      </trkpt>
      <trkpt lat="48.7082" lon="-3.45656">
        <ele>54.3</ele>
        <time>2020-08-15T10:42:27Z</time>
      </trkpt>
      <trkpt lat="48.70792" lon="-3.45677">
        <ele>55.5</ele>
        <time>2020-08-15T10:42:34Z</time>
      </trkpt>
      <trkpt lat="48.70771" lon="-3.45693">
        <ele>56.1</ele>
        <time>2020-08-15T10:42:42Z</time>
      </trkpt>
      <trkpt lat="48.70756" lon="-3.45719">
        <ele>56.2</ele>
        <time>2020-08-15T10:42:51Z</time>
      </trkpt>
      <trkpt lat="48.70742" lon="-3.45749">
        <ele>57.8</ele>
        <time>2020-08-15T10:43:00Z</time>
      </trkpt>
      <trkpt lat="48.70727" lon="-3.45762">
        <ele>58.7</ele>
        <time>2020-08-15T10:43:07Z</time>
      </trkpt>
      <trkpt lat="48.70708" lon="-3.45761">
        <ele>59.4</ele>
        <time>2020-08-15T10:43:15Z</time>
      </trkpt>
      <trkpt lat="48.70691" lon="-3.45751">
        <ele>59.9</ele>
        <time>2020-08-15T10:43:23Z</time>
      </trkpt>
      <trkpt lat="48.70678" lon="-3.45737">
        <ele>60.4</ele>
        <time>2020-08-15T10:43:31Z</time>
      </trkpt>
      <trkpt lat="48.7066" lon="-3.45719">
        <ele>63.7</ele>
        <time>2020-08-15T10:43:41Z</time>
      </trkpt>
      <trkpt lat="48.70651" lon="-3.45709">
        <ele>64.1</ele>
        <time>2020-08-15T10:43:46Z</time>
      </trkpt>
      <trkpt lat="48.70633" lon="-3.45692">
        <ele>64.9</ele>
        <time>2020-08-15T10:43:56Z</time>
      </trkpt>
      <trkpt lat="48.70622" lon="-3.45683">
        <ele>65.4</ele>
        <time>2020-08-15T10:44:01Z</time>
      </trkpt>
      <trkpt lat="48.70615" lon="-3.45698">
        <ele>65.5</ele>
        <time>2020-08-15T10:44:07Z</time>
      </trkpt>
      <trkpt lat="48.70607" lon="-3.45718">
        <ele>65.5</ele>
        <time>2020-08-15T10:44:14Z</time>
      </trkpt>
      <trkpt lat="48.706" lon="-3.45734">
        <ele>65.8</ele>
        <time>2020-08-15T10:44:20Z</time>
      </trkpt>
      <trkpt lat="48.70592" lon="-3.45757">
        <ele>66</ele>
        <time>2020-08-15T10:44:27Z</time>
      </trkpt>
      <trkpt lat="48.70582" lon="-3.45786">
        <ele>69.2</ele>
        <time>2020-08-15T10:44:34Z</time>
      </trkpt>
      <trkpt lat="48.70582" lon="-3.45796">
        <ele>69.2</ele>
        <time>2020-08-15T10:44:35Z</time>
      </trkpt>
      <trkpt lat="48.70594" lon="-3.45822">
        <ele>65.8</ele>
        <time>2020-08-15T10:44:39Z</time>
      </trkpt>
      <trkpt lat="48.70615" lon="-3.45844">
        <ele>65.2</ele>
        <time>2020-08-15T10:44:44Z</time>
      </trkpt>
      <trkpt lat="48.70654" lon="-3.45876">
        <ele>64.4</ele>
        <time>2020-08-15T10:44:52Z</time>
      </trkpt>
      <trkpt lat="48.70658" lon="-3.4588">
        <ele>64.4</ele>
        <time>2020-08-15T10:44:53Z</time>
      </trkpt>
      <trkpt lat="48.70665" lon="-3.45889">
        <ele>64.4</ele>
        <time>2020-08-15T10:44:55Z</time>
      </trkpt>
      <trkpt lat="48.70675" lon="-3.45905">
        <ele>62.7</ele>
        <time>2020-08-15T10:44:58Z</time>
      </trkpt>
      <trkpt lat="48.70683" lon="-3.45936">
        <ele>63.4</ele>
        <time>2020-08-15T10:45:03Z</time>
      </trkpt>
      <trkpt lat="48.7067" lon="-3.45994">
        <ele>66</ele>
        <time>2020-08-15T10:45:13Z</time>
      </trkpt>
      <trkpt lat="48.70662" lon="-3.46038">
        <ele>67.5</ele>
        <time>2020-08-15T10:45:22Z</time>
      </trkpt>
      <trkpt lat="48.70658" lon="-3.46082">
        <ele>66.6</ele>
        <time>2020-08-15T10:45:31Z</time>
      </trkpt>
      <trkpt lat="48.70659" lon="-3.46123">
        <ele>67.3</ele>
        <time>2020-08-15T10:45:39Z</time>
      </trkpt>
      <trkpt lat="48.70662" lon="-3.46153">
        <ele>66.8</ele>
        <time>2020-08-15T10:45:45Z</time>
      </trkpt>
      <trkpt lat="48.70662" lon="-3.46192">
        <ele>67</ele>
        <time>2020-08-15T10:45:52Z</time>
      </trkpt>
      <trkpt lat="48.7066" lon="-3.46225">
        <ele>67</ele>
        <time>2020-08-15T10:45:58Z</time>
      </trkpt>
      <trkpt lat="48.7066" lon="-3.46254">
        <ele>66.3</ele>
        <time>2020-08-15T10:46:06Z</time>
      </trkpt>
      <trkpt lat="48.70664" lon="-3.46282">
        <ele>66.4</ele>
        <time>2020-08-15T10:46:10Z</time>
      </trkpt>
      <trkpt lat="48.70667" lon="-3.46294">
        <ele>64.3</ele>
        <time>2020-08-15T10:46:12Z</time>
      </trkpt>
      <trkpt lat="48.70681" lon="-3.46339">
        <ele>63.1</ele>
        <time>2020-08-15T10:46:19Z</time>
      </trkpt>
      <trkpt lat="48.70694" lon="-3.46378">
        <ele>62.2</ele>
        <time>2020-08-15T10:46:24Z</time>
      </trkpt>
      <trkpt lat="48.70708" lon="-3.4642">
        <ele>60.2</ele>
        <time>2020-08-15T10:46:30Z</time>
      </trkpt>
      <trkpt lat="48.70722" lon="-3.46457">
        <ele>59.4</ele>
        <time>2020-08-15T10:46:35Z</time>
      </trkpt>
      <trkpt lat="48.70744" lon="-3.46503">
        <ele>56.3</ele>
        <time>2020-08-15T10:46:40Z</time>
      </trkpt>
      <trkpt lat="48.70786" lon="-3.4657">
        <ele>52.8</ele>
        <time>2020-08-15T10:46:47Z</time>
      </trkpt>
      <trkpt lat="48.7079" lon="-3.4658">
        <ele>52.5</ele>
        <time>2020-08-15T10:46:48Z</time>
      </trkpt>
      <trkpt lat="48.70813" lon="-3.46614">
        <ele>50.5</ele>
        <time>2020-08-15T10:46:52Z</time>
      </trkpt>
      <trkpt lat="48.70821" lon="-3.46617">
        <ele>50.3</ele>
        <time>2020-08-15T10:46:53Z</time>
      </trkpt>
      <trkpt lat="48.70865" lon="-3.46632">
        <ele>47.2</ele>
        <time>2020-08-15T10:46:59Z</time>
      </trkpt>
      <trkpt lat="48.70912" lon="-3.46659">
        <ele>45.7</ele>
        <time>2020-08-15T10:47:05Z</time>
      </trkpt>
      <trkpt lat="48.70963" lon="-3.46686">
        <ele>39.2</ele>
        <time>2020-08-15T10:47:11Z</time>
      </trkpt>
      <trkpt lat="48.70998" lon="-3.46714">
        <ele>37.1</ele>
        <time>2020-08-15T10:47:16Z</time>
      </trkpt>
      <trkpt lat="48.71019" lon="-3.46737">
        <ele>30.9</ele>
        <time>2020-08-15T10:47:20Z</time>
      </trkpt>
      <trkpt lat="48.71024" lon="-3.46745">
        <ele>30.7</ele>
        <time>2020-08-15T10:47:22Z</time>
      </trkpt>
      <trkpt lat="48.7103" lon="-3.4679">
        <ele>27.7</ele>
        <time>2020-08-15T10:47:25Z</time>
      </trkpt>
      <trkpt lat="48.71042" lon="-3.46832">
        <ele>27</ele>
        <time>2020-08-15T10:47:28Z</time>
      </trkpt>
      <trkpt lat="48.7105" lon="-3.46872">
        <ele>27.4</ele>
        <time>2020-08-15T10:47:31Z</time>
      </trkpt>
      <trkpt lat="48.71056" lon="-3.46915">
        <ele>29</ele>
        <time>2020-08-15T10:47:35Z</time>
      </trkpt>
      <trkpt lat="48.71051" lon="-3.46931">
        <ele>31.5</ele>
        <time>2020-08-15T10:47:37Z</time>
      </trkpt>
      <trkpt lat="48.71044" lon="-3.46947">
        <ele>31.5</ele>
        <time>2020-08-15T10:47:39Z</time>
      </trkpt>
      <trkpt lat="48.71024" lon="-3.46976">
        <ele>30.7</ele>
        <time>2020-08-15T10:47:43Z</time>
      </trkpt>
      <trkpt lat="48.71011" lon="-3.4698">
        <ele>29.7</ele>
        <time>2020-08-15T10:47:45Z</time>
      </trkpt>
      <trkpt lat="48.70979" lon="-3.46997">
        <ele>26.5</ele>
        <time>2020-08-15T10:47:51Z</time>
      </trkpt>
      <trkpt lat="48.70962" lon="-3.4701">
        <ele>28.7</ele>
        <time>2020-08-15T10:47:57Z</time>
      </trkpt>
      <trkpt lat="48.70947" lon="-3.4702">
        <ele>28.8</ele>
        <time>2020-08-15T10:48:05Z</time>
      </trkpt>
      <trkpt lat="48.70938" lon="-3.47035">
        <ele>29.3</ele>
        <time>2020-08-15T10:48:11Z</time>
      </trkpt>
      <trkpt lat="48.70935" lon="-3.47053">
        <ele>30.1</ele>
        <time>2020-08-15T10:48:17Z</time>
      </trkpt>
      <trkpt lat="48.70934" lon="-3.47058">
        <ele>30.3</ele>
        <time>2020-08-15T10:48:19Z</time>
      </trkpt>
      <trkpt lat="48.70929" lon="-3.47087">
        <ele>33.1</ele>
        <time>2020-08-15T10:48:28Z</time>
      </trkpt>
      <trkpt lat="48.70926" lon="-3.47106">
        <ele>33.8</ele>
        <time>2020-08-15T10:48:35Z</time>
      </trkpt>
      <trkpt lat="48.70922" lon="-3.47126">
        <ele>34.5</ele>
        <time>2020-08-15T10:48:42Z</time>
      </trkpt>
      <trkpt lat="48.70918" lon="-3.47141">
        <ele>35</ele>
        <time>2020-08-15T10:48:47Z</time>
      </trkpt>
      <trkpt lat="48.70913" lon="-3.4716">
        <ele>35</ele>
        <time>2020-08-15T10:48:53Z</time>
      </trkpt>
      <trkpt lat="48.70907" lon="-3.47187">
        <ele>35.6</ele>
        <time>2020-08-15T10:49:01Z</time>
      </trkpt>
      <trkpt lat="48.70903" lon="-3.47212">
        <ele>35.7</ele>
        <time>2020-08-15T10:49:09Z</time>
      </trkpt>
      <trkpt lat="48.70899" lon="-3.47235">
        <ele>35.8</ele>
        <time>2020-08-15T10:49:17Z</time>
      </trkpt>
      <trkpt lat="48.70896" lon="-3.47257">
        <ele>37.4</ele>
        <time>2020-08-15T10:49:25Z</time>
      </trkpt>
      <trkpt lat="48.70893" lon="-3.47278">
        <ele>37.9</ele>
        <time>2020-08-15T10:49:32Z</time>
      </trkpt>
      <trkpt lat="48.70892" lon="-3.47293">
        <ele>38.1</ele>
        <time>2020-08-15T10:49:38Z</time>
      </trkpt>
      <trkpt lat="48.70887" lon="-3.47309">
        <ele>38.4</ele>
        <time>2020-08-15T10:49:45Z</time>
      </trkpt>
      <trkpt lat="48.70882" lon="-3.47326">
        <ele>38.7</ele>
        <time>2020-08-15T10:49:52Z</time>
      </trkpt>
      <trkpt lat="48.70877" lon="-3.47348">
        <ele>41.5</ele>
        <time>2020-08-15T10:50:00Z</time>
      </trkpt>
      <trkpt lat="48.7087" lon="-3.47375">
        <ele>42.4</ele>
        <time>2020-08-15T10:50:09Z</time>
      </trkpt>
      <trkpt lat="48.70867" lon="-3.4739">
        <ele>43</ele>
        <time>2020-08-15T10:50:15Z</time>
      </trkpt>
      <trkpt lat="48.70864" lon="-3.47408">
        <ele>43.7</ele>
        <time>2020-08-15T10:50:21Z</time>
      </trkpt>
      <trkpt lat="48.70862" lon="-3.47422">
        <ele>46.4</ele>
        <time>2020-08-15T10:50:27Z</time>
      </trkpt>
      <trkpt lat="48.70859" lon="-3.47438">
        <ele>46.6</ele>
        <time>2020-08-15T10:50:33Z</time>
      </trkpt>
      <trkpt lat="48.70858" lon="-3.47444">
        <ele>46.7</ele>
        <time>2020-08-15T10:50:35Z</time>
      </trkpt>
      <trkpt lat="48.70855" lon="-3.47467">
        <ele>47.2</ele>
        <time>2020-08-15T10:50:43Z</time>
      </trkpt>
      <trkpt lat="48.70852" lon="-3.47489">
        <ele>48.2</ele>
        <time>2020-08-15T10:50:51Z</time>
      </trkpt>
      <trkpt lat="48.7085" lon="-3.47506">
        <ele>50</ele>
        <time>2020-08-15T10:50:58Z</time>
      </trkpt>
      <trkpt lat="48.70848" lon="-3.47519">
        <ele>50</ele>
        <time>2020-08-15T10:51:03Z</time>
      </trkpt>
      <trkpt lat="48.70847" lon="-3.47532">
        <ele>50.1</ele>
        <time>2020-08-15T10:51:08Z</time>
      </trkpt>
      <trkpt lat="48.70845" lon="-3.47541">
        <ele>50.3</ele>
        <time>2020-08-15T10:51:12Z</time>
      </trkpt>
      <trkpt lat="48.70843" lon="-3.47559">
        <ele>51</ele>
        <time>2020-08-15T10:51:19Z</time>
      </trkpt>
      <trkpt lat="48.70842" lon="-3.4757">
        <ele>51.8</ele>
        <time>2020-08-15T10:51:23Z</time>
      </trkpt>
      <trkpt lat="48.7084" lon="-3.47584">
        <ele>53.3</ele>
        <time>2020-08-15T10:51:29Z</time>
      </trkpt>
      <trkpt lat="48.70839" lon="-3.47597">
        <ele>52.8</ele>
        <time>2020-08-15T10:51:34Z</time>
      </trkpt>
      <trkpt lat="48.70836" lon="-3.47618">
        <ele>52.4</ele>
        <time>2020-08-15T10:51:42Z</time>
      </trkpt>
      <trkpt lat="48.70835" lon="-3.47632">
        <ele>52.6</ele>
        <time>2020-08-15T10:51:47Z</time>
      </trkpt>
      <trkpt lat="48.70832" lon="-3.47653">
        <ele>55.1</ele>
        <time>2020-08-15T10:51:54Z</time>
      </trkpt>
      <trkpt lat="48.70829" lon="-3.47673">
        <ele>55.4</ele>
        <time>2020-08-15T10:52:02Z</time>
      </trkpt>
      <trkpt lat="48.70824" lon="-3.47688">
        <ele>55.9</ele>
        <time>2020-08-15T10:52:09Z</time>
      </trkpt>
      <trkpt lat="48.70821" lon="-3.47703">
        <ele>56.2</ele>
        <time>2020-08-15T10:52:15Z</time>
      </trkpt>
      <trkpt lat="48.70816" lon="-3.47723">
        <ele>56.3</ele>
        <time>2020-08-15T10:52:23Z</time>
      </trkpt>
      <trkpt lat="48.7081" lon="-3.47744">
        <ele>56.3</ele>
        <time>2020-08-15T10:52:31Z</time>
      </trkpt>
      <trkpt lat="48.70805" lon="-3.47763">
        <ele>57.4</ele>
        <time>2020-08-15T10:52:38Z</time>
      </trkpt>
      <trkpt lat="48.708" lon="-3.4778">
        <ele>57.8</ele>
        <time>2020-08-15T10:52:45Z</time>
      </trkpt>
      <trkpt lat="48.70795" lon="-3.47798">
        <ele>58.2</ele>
        <time>2020-08-15T10:52:52Z</time>
      </trkpt>
      <trkpt lat="48.70793" lon="-3.47813">
        <ele>58.4</ele>
        <time>2020-08-15T10:52:58Z</time>
      </trkpt>
      <trkpt lat="48.70791" lon="-3.47833">
        <ele>58.6</ele>
        <time>2020-08-15T10:53:06Z</time>
      </trkpt>
      <trkpt lat="48.70789" lon="-3.47852">
        <ele>59.5</ele>
        <time>2020-08-15T10:53:13Z</time>
      </trkpt>
      <trkpt lat="48.70788" lon="-3.47871">
        <ele>59.7</ele>
        <time>2020-08-15T10:53:19Z</time>
      </trkpt>
      <trkpt lat="48.70783" lon="-3.47897">
        <ele>60.4</ele>
        <time>2020-08-15T10:53:28Z</time>
      </trkpt>
      <trkpt lat="48.70776" lon="-3.47913">
        <ele>61.4</ele>
        <time>2020-08-15T10:53:34Z</time>
      </trkpt>
      <trkpt lat="48.70767" lon="-3.47931">
        <ele>62.9</ele>
        <time>2020-08-15T10:53:42Z</time>
      </trkpt>
      <trkpt lat="48.70764" lon="-3.47939">
        <ele>62.7</ele>
        <time>2020-08-15T10:53:45Z</time>
      </trkpt>
      <trkpt lat="48.70757" lon="-3.47956">
        <ele>62.6</ele>
        <time>2020-08-15T10:53:51Z</time>
      </trkpt>
      <trkpt lat="48.70748" lon="-3.47979">
        <ele>65.8</ele>
        <time>2020-08-15T10:53:58Z</time>
      </trkpt>
      <trkpt lat="48.70736" lon="-3.48011">
        <ele>65.3</ele>
        <time>2020-08-15T10:54:07Z</time>
      </trkpt>
      <trkpt lat="48.70724" lon="-3.48038">
        <ele>65.4</ele>
        <time>2020-08-15T10:54:16Z</time>
      </trkpt>
      <trkpt lat="48.70714" lon="-3.48062">
        <ele>65.4</ele>
        <time>2020-08-15T10:54:25Z</time>
      </trkpt>
      <trkpt lat="48.70714" lon="-3.48062">
        <ele>65.4</ele>
        <time>2020-08-15T10:54:27Z</time>
      </trkpt>
      <trkpt lat="48.70711" lon="-3.48069">
        <ele>65.3</ele>
        <time>2020-08-15T10:56:33Z</time>
      </trkpt>
      <trkpt lat="48.70702" lon="-3.48089">
        <ele>65.6</ele>
        <time>2020-08-15T10:56:41Z</time>
      </trkpt>
      <trkpt lat="48.7069" lon="-3.48114">
        <ele>65.8</ele>
        <time>2020-08-15T10:56:50Z</time>
      </trkpt>
      <trkpt lat="48.70679" lon="-3.48131">
        <ele>66.1</ele>
        <time>2020-08-15T10:56:57Z</time>
      </trkpt>
      <trkpt lat="48.7067" lon="-3.48147">
        <ele>66.4</ele>
        <time>2020-08-15T10:57:03Z</time>
      </trkpt>
      <trkpt lat="48.70652" lon="-3.48175">
        <ele>66</ele>
        <time>2020-08-15T10:57:11Z</time>
      </trkpt>
      <trkpt lat="48.70632" lon="-3.4821">
        <ele>65.1</ele>
        <time>2020-08-15T10:57:20Z</time>
      </trkpt>
      <trkpt lat="48.70615" lon="-3.48235">
        <ele>64.8</ele>
        <time>2020-08-15T10:57:27Z</time>
      </trkpt>
      <trkpt lat="48.706" lon="-3.48259">
        <ele>64.9</ele>
        <time>2020-08-15T10:57:34Z</time>
      </trkpt>
      <trkpt lat="48.70575" lon="-3.48296">
        <ele>65.6</ele>
        <time>2020-08-15T10:57:44Z</time>
      </trkpt>
      <trkpt lat="48.70559" lon="-3.48322">
        <ele>65.9</ele>
        <time>2020-08-15T10:57:50Z</time>
      </trkpt>
      <trkpt lat="48.70543" lon="-3.48352">
        <ele>66.3</ele>
        <time>2020-08-15T10:57:57Z</time>
      </trkpt>
      <trkpt lat="48.70525" lon="-3.48385">
        <ele>66.2</ele>
        <time>2020-08-15T10:58:05Z</time>
      </trkpt>
      <trkpt lat="48.70507" lon="-3.48417">
        <ele>65.9</ele>
        <time>2020-08-15T10:58:14Z</time>
      </trkpt>
      <trkpt lat="48.70497" lon="-3.48435">
        <ele>66.5</ele>
        <time>2020-08-15T10:58:20Z</time>
      </trkpt>
      <trkpt lat="48.70494" lon="-3.48441">
        <ele>66.6</ele>
        <time>2020-08-15T10:58:25Z</time>
      </trkpt>
      <trkpt lat="48.70484" lon="-3.48427">
        <ele>66.5</ele>
        <time>2020-08-15T10:58:31Z</time>
      </trkpt>
      <trkpt lat="48.70483" lon="-3.48424">
        <ele>66.5</ele>
        <time>2020-08-15T10:58:34Z</time>
      </trkpt>
      <trkpt lat="48.70483" lon="-3.48424">
        <ele>66.5</ele>
        <time>2020-08-15T11:03:10Z</time>
      </trkpt>
      <trkpt lat="48.70488" lon="-3.48433">
        <ele>66.5</ele>
        <time>2020-08-15T11:03:42Z</time>
      </trkpt>
      <trkpt lat="48.70489" lon="-3.48449">
        <ele>66.7</ele>
        <time>2020-08-15T11:03:46Z</time>
      </trkpt>
      <trkpt lat="48.70476" lon="-3.48474">
        <ele>66.8</ele>
        <time>2020-08-15T11:03:53Z</time>
      </trkpt>
      <trkpt lat="48.70463" lon="-3.48497">
        <ele>66.9</ele>
        <time>2020-08-15T11:04:00Z</time>
      </trkpt>
      <trkpt lat="48.70447" lon="-3.48519">
        <ele>67.2</ele>
        <time>2020-08-15T11:04:07Z</time>
      </trkpt>
      <trkpt lat="48.7043" lon="-3.48542">
        <ele>67.5</ele>
        <time>2020-08-15T11:04:14Z</time>
      </trkpt>
      <trkpt lat="48.70403" lon="-3.48575">
        <ele>68.9</ele>
        <time>2020-08-15T11:04:24Z</time>
      </trkpt>
      <trkpt lat="48.70377" lon="-3.48609">
        <ele>69.2</ele>
        <time>2020-08-15T11:04:34Z</time>
      </trkpt>
      <trkpt lat="48.70353" lon="-3.48641">
        <ele>69.6</ele>
        <time>2020-08-15T11:04:43Z</time>
      </trkpt>
      <trkpt lat="48.70328" lon="-3.48679">
        <ele>71.5</ele>
        <time>2020-08-15T11:04:53Z</time>
      </trkpt>
      <trkpt lat="48.70302" lon="-3.48725">
        <ele>71.9</ele>
        <time>2020-08-15T11:05:05Z</time>
      </trkpt>
      <trkpt lat="48.70291" lon="-3.48755">
        <ele>72</ele>
        <time>2020-08-15T11:05:12Z</time>
      </trkpt>
      <trkpt lat="48.70281" lon="-3.48793">
        <ele>72.3</ele>
        <time>2020-08-15T11:05:20Z</time>
      </trkpt>
      <trkpt lat="48.70271" lon="-3.48841">
        <ele>72.6</ele>
        <time>2020-08-15T11:05:29Z</time>
      </trkpt>
      <trkpt lat="48.70256" lon="-3.48882">
        <ele>72</ele>
        <time>2020-08-15T11:05:37Z</time>
      </trkpt>
      <trkpt lat="48.70238" lon="-3.48918">
        <ele>73.5</ele>
        <time>2020-08-15T11:05:45Z</time>
      </trkpt>
      <trkpt lat="48.70221" lon="-3.48953">
        <ele>74</ele>
        <time>2020-08-15T11:05:53Z</time>
      </trkpt>
      <trkpt lat="48.70208" lon="-3.48982">
        <ele>74.2</ele>
        <time>2020-08-15T11:06:00Z</time>
      </trkpt>
      <trkpt lat="48.70195" lon="-3.49012">
        <ele>73.9</ele>
        <time>2020-08-15T11:06:08Z</time>
      </trkpt>
      <trkpt lat="48.70185" lon="-3.49037">
        <ele>73.8</ele>
        <time>2020-08-15T11:06:13Z</time>
      </trkpt>
      <trkpt lat="48.70175" lon="-3.4907">
        <ele>73.7</ele>
        <time>2020-08-15T11:06:20Z</time>
      </trkpt>
      <trkpt lat="48.70161" lon="-3.49105">
        <ele>74.2</ele>
        <time>2020-08-15T11:06:26Z</time>
      </trkpt>
      <trkpt lat="48.70138" lon="-3.49151">
        <ele>74.2</ele>
        <time>2020-08-15T11:06:34Z</time>
      </trkpt>
      <trkpt lat="48.7012" lon="-3.49184">
        <ele>74.6</ele>
        <time>2020-08-15T11:06:41Z</time>
      </trkpt>
      <trkpt lat="48.70115" lon="-3.4921">
        <ele>74.6</ele>
        <time>2020-08-15T11:06:47Z</time>
      </trkpt>
      <trkpt lat="48.70111" lon="-3.49242">
        <ele>74.6</ele>
        <time>2020-08-15T11:06:53Z</time>
      </trkpt>
      <trkpt lat="48.70102" lon="-3.49275">
        <ele>75.2</ele>
        <time>2020-08-15T11:07:00Z</time>
      </trkpt>
      <trkpt lat="48.7009" lon="-3.4931">
        <ele>75.5</ele>
        <time>2020-08-15T11:07:08Z</time>
      </trkpt>
      <trkpt lat="48.70081" lon="-3.49336">
        <ele>76.3</ele>
        <time>2020-08-15T11:07:15Z</time>
      </trkpt>
      <trkpt lat="48.70072" lon="-3.4936">
        <ele>77.5</ele>
        <time>2020-08-15T11:07:22Z</time>
      </trkpt>
      <trkpt lat="48.7006" lon="-3.49395">
        <ele>78.2</ele>
        <time>2020-08-15T11:07:32Z</time>
      </trkpt>
      <trkpt lat="48.7005" lon="-3.49425">
        <ele>79.5</ele>
        <time>2020-08-15T11:07:41Z</time>
      </trkpt>
      <trkpt lat="48.70042" lon="-3.4945">
        <ele>79.9</ele>
        <time>2020-08-15T11:07:49Z</time>
      </trkpt>
      <trkpt lat="48.70034" lon="-3.49477">
        <ele>80.3</ele>
        <time>2020-08-15T11:07:58Z</time>
      </trkpt>
      <trkpt lat="48.70024" lon="-3.49502">
        <ele>81.6</ele>
        <time>2020-08-15T11:08:06Z</time>
      </trkpt>
      <trkpt lat="48.70015" lon="-3.49526">
        <ele>81.7</ele>
        <time>2020-08-15T11:08:13Z</time>
      </trkpt>
      <trkpt lat="48.70007" lon="-3.49546">
        <ele>81.9</ele>
        <time>2020-08-15T11:08:19Z</time>
      </trkpt>
      <trkpt lat="48.69996" lon="-3.49574">
        <ele>83.1</ele>
        <time>2020-08-15T11:08:26Z</time>
      </trkpt>
      <trkpt lat="48.6998" lon="-3.49612">
        <ele>84.1</ele>
        <time>2020-08-15T11:08:35Z</time>
      </trkpt>
      <trkpt lat="48.69967" lon="-3.4965">
        <ele>84.5</ele>
        <time>2020-08-15T11:08:43Z</time>
      </trkpt>
      <trkpt lat="48.69957" lon="-3.49691">
        <ele>84.4</ele>
        <time>2020-08-15T11:08:51Z</time>
      </trkpt>
      <trkpt lat="48.69948" lon="-3.49734">
        <ele>84</ele>
        <time>2020-08-15T11:08:59Z</time>
      </trkpt>
      <trkpt lat="48.69933" lon="-3.49789">
        <ele>83.8</ele>
        <time>2020-08-15T11:09:08Z</time>
      </trkpt>
      <trkpt lat="48.69925" lon="-3.49828">
        <ele>84</ele>
        <time>2020-08-15T11:09:15Z</time>
      </trkpt>
      <trkpt lat="48.69925" lon="-3.49846">
        <ele>84.3</ele>
        <time>2020-08-15T11:09:20Z</time>
      </trkpt>
      <trkpt lat="48.69921" lon="-3.49862">
        <ele>84.4</ele>
        <time>2020-08-15T11:09:24Z</time>
      </trkpt>
      <trkpt lat="48.69908" lon="-3.49914">
        <ele>84.9</ele>
        <time>2020-08-15T11:09:31Z</time>
      </trkpt>
      <trkpt lat="48.69899" lon="-3.49969">
        <ele>84.8</ele>
        <time>2020-08-15T11:09:38Z</time>
      </trkpt>
      <trkpt lat="48.69895" lon="-3.49998">
        <ele>84.8</ele>
        <time>2020-08-15T11:09:42Z</time>
      </trkpt>
      <trkpt lat="48.69889" lon="-3.50029">
        <ele>84.4</ele>
        <time>2020-08-15T11:09:47Z</time>
      </trkpt>
      <trkpt lat="48.69871" lon="-3.50071">
        <ele>84.2</ele>
        <time>2020-08-15T11:09:53Z</time>
      </trkpt>
      <trkpt lat="48.69853" lon="-3.50107">
        <ele>83.8</ele>
        <time>2020-08-15T11:09:58Z</time>
      </trkpt>
      <trkpt lat="48.69837" lon="-3.50152">
        <ele>83.9</ele>
        <time>2020-08-15T11:10:05Z</time>
      </trkpt>
      <trkpt lat="48.69825" lon="-3.50204">
        <ele>84.5</ele>
        <time>2020-08-15T11:10:15Z</time>
      </trkpt>
      <trkpt lat="48.69808" lon="-3.50245">
        <ele>84.5</ele>
        <time>2020-08-15T11:10:24Z</time>
      </trkpt>
      <trkpt lat="48.69791" lon="-3.50276">
        <ele>85.1</ele>
        <time>2020-08-15T11:10:32Z</time>
      </trkpt>
      <trkpt lat="48.69775" lon="-3.50302">
        <ele>85.5</ele>
        <time>2020-08-15T11:10:40Z</time>
      </trkpt>
      <trkpt lat="48.69755" lon="-3.50332">
        <ele>86.7</ele>
        <time>2020-08-15T11:10:49Z</time>
      </trkpt>
      <trkpt lat="48.69736" lon="-3.50368">
        <ele>88</ele>
        <time>2020-08-15T11:10:59Z</time>
      </trkpt>
      <trkpt lat="48.69726" lon="-3.50397">
        <ele>88.2</ele>
        <time>2020-08-15T11:11:05Z</time>
      </trkpt>
      <trkpt lat="48.69716" lon="-3.50449">
        <ele>88.5</ele>
        <time>2020-08-15T11:11:14Z</time>
      </trkpt>
      <trkpt lat="48.69706" lon="-3.50506">
        <ele>89</ele>
        <time>2020-08-15T11:11:24Z</time>
      </trkpt>
      <trkpt lat="48.69696" lon="-3.50563">
        <ele>89.5</ele>
        <time>2020-08-15T11:11:34Z</time>
      </trkpt>
      <trkpt lat="48.69684" lon="-3.50629">
        <ele>89.3</ele>
        <time>2020-08-15T11:11:45Z</time>
      </trkpt>
      <trkpt lat="48.69666" lon="-3.50691">
        <ele>89</ele>
        <time>2020-08-15T11:11:56Z</time>
      </trkpt>
      <trkpt lat="48.69643" lon="-3.50728">
        <ele>88.7</ele>
        <time>2020-08-15T11:12:04Z</time>
      </trkpt>
      <trkpt lat="48.69621" lon="-3.50762">
        <ele>88.4</ele>
        <time>2020-08-15T11:12:11Z</time>
      </trkpt>
      <trkpt lat="48.6959" lon="-3.50803">
        <ele>88.6</ele>
        <time>2020-08-15T11:12:20Z</time>
      </trkpt>
      <trkpt lat="48.6958" lon="-3.50817">
        <ele>90.3</ele>
        <time>2020-08-15T11:12:23Z</time>
      </trkpt>
      <trkpt lat="48.69545" lon="-3.50858">
        <ele>90.3</ele>
        <time>2020-08-15T11:12:33Z</time>
      </trkpt>
      <trkpt lat="48.69534" lon="-3.5087">
        <ele>90.5</ele>
        <time>2020-08-15T11:12:36Z</time>
      </trkpt>
      <trkpt lat="48.69511" lon="-3.50898">
        <ele>90.6</ele>
        <time>2020-08-15T11:12:43Z</time>
      </trkpt>
      <trkpt lat="48.69487" lon="-3.50928">
        <ele>90.9</ele>
        <time>2020-08-15T11:12:50Z</time>
      </trkpt>
      <trkpt lat="48.6948" lon="-3.50937">
        <ele>90.9</ele>
        <time>2020-08-15T11:12:52Z</time>
      </trkpt>
      <trkpt lat="48.69455" lon="-3.50972">
        <ele>90.6</ele>
        <time>2020-08-15T11:13:00Z</time>
      </trkpt>
      <trkpt lat="48.69419" lon="-3.51008">
        <ele>90</ele>
        <time>2020-08-15T11:13:10Z</time>
      </trkpt>
      <trkpt lat="48.69392" lon="-3.51037">
        <ele>91.6</ele>
        <time>2020-08-15T11:13:18Z</time>
      </trkpt>
      <trkpt lat="48.69384" lon="-3.51045">
        <ele>91.8</ele>
        <time>2020-08-15T11:13:20Z</time>
      </trkpt>
      <trkpt lat="48.69357" lon="-3.51087">
        <ele>92</ele>
        <time>2020-08-15T11:13:29Z</time>
      </trkpt>
      <trkpt lat="48.69341" lon="-3.51114">
        <ele>92.1</ele>
        <time>2020-08-15T11:13:35Z</time>
      </trkpt>
      <trkpt lat="48.69324" lon="-3.51143">
        <ele>94</ele>
        <time>2020-08-15T11:13:42Z</time>
      </trkpt>
      <trkpt lat="48.69307" lon="-3.51169">
        <ele>93.9</ele>
        <time>2020-08-15T11:13:50Z</time>
      </trkpt>
      <trkpt lat="48.69299" lon="-3.51182">
        <ele>94.2</ele>
        <time>2020-08-15T11:13:55Z</time>
      </trkpt>
      <trkpt lat="48.69287" lon="-3.51199">
        <ele>94.4</ele>
        <time>2020-08-15T11:14:02Z</time>
      </trkpt>
      <trkpt lat="48.69272" lon="-3.5122">
        <ele>94.5</ele>
        <time>2020-08-15T11:14:10Z</time>
      </trkpt>
      <trkpt lat="48.69256" lon="-3.5124">
        <ele>94.7</ele>
        <time>2020-08-15T11:14:18Z</time>
      </trkpt>
      <trkpt lat="48.69236" lon="-3.51258">
        <ele>96.1</ele>
        <time>2020-08-15T11:14:26Z</time>
      </trkpt>
      <trkpt lat="48.69212" lon="-3.51284">
        <ele>97.1</ele>
        <time>2020-08-15T11:14:36Z</time>
      </trkpt>
      <trkpt lat="48.69196" lon="-3.51303">
        <ele>97.5</ele>
        <time>2020-08-15T11:14:43Z</time>
      </trkpt>
      <trkpt lat="48.69177" lon="-3.51328">
        <ele>98.4</ele>
        <time>2020-08-15T11:14:52Z</time>
      </trkpt>
      <trkpt lat="48.69161" lon="-3.51346">
        <ele>99.6</ele>
        <time>2020-08-15T11:15:00Z</time>
      </trkpt>
      <trkpt lat="48.69141" lon="-3.51365">
        <ele>100.2</ele>
        <time>2020-08-15T11:15:10Z</time>
      </trkpt>
      <trkpt lat="48.69121" lon="-3.51383">
        <ele>100.6</ele>
        <time>2020-08-15T11:15:20Z</time>
      </trkpt>
      <trkpt lat="48.69101" lon="-3.51397">
        <ele>101</ele>
        <time>2020-08-15T11:15:29Z</time>
      </trkpt>
      <trkpt lat="48.69082" lon="-3.51408">
        <ele>102.4</ele>
        <time>2020-08-15T11:15:37Z</time>
      </trkpt>
      <trkpt lat="48.69062" lon="-3.51412">
        <ele>102.8</ele>
        <time>2020-08-15T11:15:45Z</time>
      </trkpt>
      <trkpt lat="48.6904" lon="-3.51413">
        <ele>103.4</ele>
        <time>2020-08-15T11:15:54Z</time>
      </trkpt>
      <trkpt lat="48.69013" lon="-3.51417">
        <ele>104.4</ele>
        <time>2020-08-15T11:16:05Z</time>
      </trkpt>
      <trkpt lat="48.68994" lon="-3.51426">
        <ele>105.7</ele>
        <time>2020-08-15T11:16:14Z</time>
      </trkpt>
      <trkpt lat="48.68979" lon="-3.51444">
        <ele>106.5</ele>
        <time>2020-08-15T11:16:22Z</time>
      </trkpt>
      <trkpt lat="48.68966" lon="-3.51477">
        <ele>106.9</ele>
        <time>2020-08-15T11:16:31Z</time>
      </trkpt>
      <trkpt lat="48.68954" lon="-3.51515">
        <ele>107.4</ele>
        <time>2020-08-15T11:16:42Z</time>
      </trkpt>
      <trkpt lat="48.68944" lon="-3.51545">
        <ele>107.5</ele>
        <time>2020-08-15T11:16:52Z</time>
      </trkpt>
      <trkpt lat="48.68935" lon="-3.51575">
        <ele>108</ele>
        <time>2020-08-15T11:17:02Z</time>
      </trkpt>
      <trkpt lat="48.68926" lon="-3.51602">
        <ele>108.3</ele>
        <time>2020-08-15T11:17:11Z</time>
      </trkpt>
      <trkpt lat="48.6892" lon="-3.51629">
        <ele>108.5</ele>
        <time>2020-08-15T11:17:19Z</time>
      </trkpt>
      <trkpt lat="48.68916" lon="-3.51651">
        <ele>111</ele>
        <time>2020-08-15T11:17:26Z</time>
      </trkpt>
      <trkpt lat="48.68911" lon="-3.51679">
        <ele>111.3</ele>
        <time>2020-08-15T11:17:34Z</time>
      </trkpt>
      <trkpt lat="48.68906" lon="-3.51716">
        <ele>111.5</ele>
        <time>2020-08-15T11:17:44Z</time>
      </trkpt>
      <trkpt lat="48.68903" lon="-3.51739">
        <ele>111.4</ele>
        <time>2020-08-15T11:17:50Z</time>
      </trkpt>
      <trkpt lat="48.689" lon="-3.51767">
        <ele>111.6</ele>
        <time>2020-08-15T11:17:58Z</time>
      </trkpt>
      <trkpt lat="48.68897" lon="-3.51799">
        <ele>111.9</ele>
        <time>2020-08-15T11:18:05Z</time>
      </trkpt>
      <trkpt lat="48.68894" lon="-3.51825">
        <ele>112</ele>
        <time>2020-08-15T11:18:11Z</time>
      </trkpt>
      <trkpt lat="48.68884" lon="-3.51845">
        <ele>112.1</ele>
        <time>2020-08-15T11:18:18Z</time>
      </trkpt>
      <trkpt lat="48.6887" lon="-3.51857">
        <ele>112.1</ele>
        <time>2020-08-15T11:18:25Z</time>
      </trkpt>
      <trkpt lat="48.6886" lon="-3.51861">
        <ele>112.2</ele>
        <time>2020-08-15T11:18:31Z</time>
      </trkpt>
      <trkpt lat="48.68846" lon="-3.51867">
        <ele>112.2</ele>
        <time>2020-08-15T11:18:38Z</time>
      </trkpt>
      <trkpt lat="48.68829" lon="-3.51874">
        <ele>112.3</ele>
        <time>2020-08-15T11:18:45Z</time>
      </trkpt>
      <trkpt lat="48.68812" lon="-3.51881">
        <ele>112.3</ele>
        <time>2020-08-15T11:18:52Z</time>
      </trkpt>
      <trkpt lat="48.68801" lon="-3.51885">
        <ele>112.2</ele>
        <time>2020-08-15T11:18:57Z</time>
      </trkpt>
      <trkpt lat="48.68788" lon="-3.51891">
        <ele>112.2</ele>
        <time>2020-08-15T11:19:02Z</time>
      </trkpt>
      <trkpt lat="48.68769" lon="-3.51902">
        <ele>112.1</ele>
        <time>2020-08-15T11:19:09Z</time>
      </trkpt>
      <trkpt lat="48.68747" lon="-3.51913">
        <ele>112.1</ele>
        <time>2020-08-15T11:19:16Z</time>
      </trkpt>
      <trkpt lat="48.68726" lon="-3.51924">
        <ele>112.5</ele>
        <time>2020-08-15T11:19:23Z</time>
      </trkpt>
      <trkpt lat="48.68698" lon="-3.51941">
        <ele>112.8</ele>
        <time>2020-08-15T11:19:31Z</time>
      </trkpt>
      <trkpt lat="48.6868" lon="-3.51951">
        <ele>112.9</ele>
        <time>2020-08-15T11:19:36Z</time>
      </trkpt>
      <trkpt lat="48.68644" lon="-3.51967">
        <ele>113</ele>
        <time>2020-08-15T11:19:45Z</time>
      </trkpt>
      <trkpt lat="48.68611" lon="-3.51983">
        <ele>112.6</ele>
        <time>2020-08-15T11:19:53Z</time>
      </trkpt>
      <trkpt lat="48.68575" lon="-3.52002">
        <ele>112.1</ele>
        <time>2020-08-15T11:20:02Z</time>
      </trkpt>
      <trkpt lat="48.6855" lon="-3.52012">
        <ele>112.2</ele>
        <time>2020-08-15T11:20:08Z</time>
      </trkpt>
      <trkpt lat="48.68514" lon="-3.52034">
        <ele>112.3</ele>
        <time>2020-08-15T11:20:17Z</time>
      </trkpt>
      <trkpt lat="48.68507" lon="-3.5204">
        <ele>112.3</ele>
        <time>2020-08-15T11:20:19Z</time>
      </trkpt>
      <trkpt lat="48.68496" lon="-3.5205">
        <ele>112.3</ele>
        <time>2020-08-15T11:20:22Z</time>
      </trkpt>
      <trkpt lat="48.68465" lon="-3.52078">
        <ele>112.2</ele>
        <time>2020-08-15T11:20:30Z</time>
      </trkpt>
      <trkpt lat="48.68433" lon="-3.52113">
        <ele>112.2</ele>
        <time>2020-08-15T11:20:39Z</time>
      </trkpt>
      <trkpt lat="48.68407" lon="-3.52136">
        <ele>112.2</ele>
        <time>2020-08-15T11:20:47Z</time>
      </trkpt>
      <trkpt lat="48.68385" lon="-3.52151">
        <ele>112.2</ele>
        <time>2020-08-15T11:20:54Z</time>
      </trkpt>
      <trkpt lat="48.68359" lon="-3.5217">
        <ele>111.9</ele>
        <time>2020-08-15T11:21:02Z</time>
      </trkpt>
      <trkpt lat="48.68331" lon="-3.5219">
        <ele>112.1</ele>
        <time>2020-08-15T11:21:10Z</time>
      </trkpt>
      <trkpt lat="48.68304" lon="-3.52209">
        <ele>112.2</ele>
        <time>2020-08-15T11:21:18Z</time>
      </trkpt>
      <trkpt lat="48.68278" lon="-3.52228">
        <ele>112.2</ele>
        <time>2020-08-15T11:21:26Z</time>
      </trkpt>
      <trkpt lat="48.68256" lon="-3.52246">
        <ele>112.1</ele>
        <time>2020-08-15T11:21:33Z</time>
      </trkpt>
      <trkpt lat="48.68232" lon="-3.52266">
        <ele>112.3</ele>
        <time>2020-08-15T11:21:41Z</time>
      </trkpt>
      <trkpt lat="48.6822" lon="-3.52292">
        <ele>112.4</ele>
        <time>2020-08-15T11:21:47Z</time>
      </trkpt>
      <trkpt lat="48.6822" lon="-3.5233">
        <ele>112.4</ele>
        <time>2020-08-15T11:21:54Z</time>
      </trkpt>
      <trkpt lat="48.68221" lon="-3.52373">
        <ele>111.7</ele>
        <time>2020-08-15T11:22:01Z</time>
      </trkpt>
      <trkpt lat="48.68215" lon="-3.52417">
        <ele>110.4</ele>
        <time>2020-08-15T11:22:09Z</time>
      </trkpt>
      <trkpt lat="48.68205" lon="-3.5246">
        <ele>110</ele>
        <time>2020-08-15T11:22:17Z</time>
      </trkpt>
      <trkpt lat="48.68198" lon="-3.5249">
        <ele>109.6</ele>
        <time>2020-08-15T11:22:23Z</time>
      </trkpt>
      <trkpt lat="48.68188" lon="-3.52528">
        <ele>108.1</ele>
        <time>2020-08-15T11:22:31Z</time>
      </trkpt>
      <trkpt lat="48.68177" lon="-3.52572">
        <ele>107.8</ele>
        <time>2020-08-15T11:22:39Z</time>
      </trkpt>
      <trkpt lat="48.68174" lon="-3.52584">
        <ele>107.5</ele>
        <time>2020-08-15T11:22:41Z</time>
      </trkpt>
      <trkpt lat="48.68162" lon="-3.52636">
        <ele>107.2</ele>
        <time>2020-08-15T11:22:49Z</time>
      </trkpt>
      <trkpt lat="48.68153" lon="-3.52675">
        <ele>105.8</ele>
        <time>2020-08-15T11:22:55Z</time>
      </trkpt>
      <trkpt lat="48.68141" lon="-3.52732">
        <ele>105.1</ele>
        <time>2020-08-15T11:23:03Z</time>
      </trkpt>
      <trkpt lat="48.68136" lon="-3.52754">
        <ele>103.8</ele>
        <time>2020-08-15T11:23:06Z</time>
      </trkpt>
      <trkpt lat="48.68128" lon="-3.52788">
        <ele>103.5</ele>
        <time>2020-08-15T11:23:11Z</time>
      </trkpt>
      <trkpt lat="48.68121" lon="-3.52816">
        <ele>103.3</ele>
        <time>2020-08-15T11:23:17Z</time>
      </trkpt>
      <trkpt lat="48.68109" lon="-3.52865">
        <ele>101.5</ele>
        <time>2020-08-15T11:23:26Z</time>
      </trkpt>
      <trkpt lat="48.68098" lon="-3.52915">
        <ele>100.5</ele>
        <time>2020-08-15T11:23:34Z</time>
      </trkpt>
      <trkpt lat="48.68087" lon="-3.52963">
        <ele>99.7</ele>
        <time>2020-08-15T11:23:41Z</time>
      </trkpt>
      <trkpt lat="48.68073" lon="-3.53026">
        <ele>100.1</ele>
        <time>2020-08-15T11:23:49Z</time>
      </trkpt>
      <trkpt lat="48.68055" lon="-3.53103">
        <ele>97.9</ele>
        <time>2020-08-15T11:23:58Z</time>
      </trkpt>
      <trkpt lat="48.68041" lon="-3.53156">
        <ele>97</ele>
        <time>2020-08-15T11:24:04Z</time>
      </trkpt>
      <trkpt lat="48.68038" lon="-3.53163">
        <ele>97</ele>
        <time>2020-08-15T11:24:05Z</time>
      </trkpt>
      <trkpt lat="48.68003" lon="-3.53235">
        <ele>94.5</ele>
        <time>2020-08-15T11:24:14Z</time>
      </trkpt>
      <trkpt lat="48.6797" lon="-3.53274">
        <ele>93.3</ele>
        <time>2020-08-15T11:24:20Z</time>
      </trkpt>
      <trkpt lat="48.67926" lon="-3.53312">
        <ele>92.3</ele>
        <time>2020-08-15T11:24:27Z</time>
      </trkpt>
      <trkpt lat="48.67892" lon="-3.53343">
        <ele>90.2</ele>
        <time>2020-08-15T11:24:33Z</time>
      </trkpt>
      <trkpt lat="48.67869" lon="-3.53364">
        <ele>89.8</ele>
        <time>2020-08-15T11:24:38Z</time>
      </trkpt>
      <trkpt lat="48.67856" lon="-3.53375">
        <ele>89.7</ele>
        <time>2020-08-15T11:24:42Z</time>
      </trkpt>
      <trkpt lat="48.67847" lon="-3.53385">
        <ele>89.6</ele>
        <time>2020-08-15T11:24:47Z</time>
      </trkpt>
      <trkpt lat="48.6783" lon="-3.53401">
        <ele>89.1</ele>
        <time>2020-08-15T11:24:53Z</time>
      </trkpt>
      <trkpt lat="48.67816" lon="-3.53413">
        <ele>89</ele>
        <time>2020-08-15T11:24:58Z</time>
      </trkpt>
      <trkpt lat="48.67816" lon="-3.53413">
        <ele>89</ele>
        <time>2020-08-15T11:24:59Z</time>
      </trkpt>
      <trkpt lat="48.67808" lon="-3.53421">
        <ele>88.6</ele>
        <time>2020-08-15T11:25:51Z</time>
      </trkpt>
      <trkpt lat="48.67795" lon="-3.53434">
        <ele>88.4</ele>
        <time>2020-08-15T11:25:57Z</time>
      </trkpt>
      <trkpt lat="48.67778" lon="-3.53457">
        <ele>88.3</ele>
        <time>2020-08-15T11:26:04Z</time>
      </trkpt>
      <trkpt lat="48.6776" lon="-3.53482">
        <ele>87.8</ele>
        <time>2020-08-15T11:26:12Z</time>
      </trkpt>
      <trkpt lat="48.67749" lon="-3.535">
        <ele>86.8</ele>
        <time>2020-08-15T11:26:17Z</time>
      </trkpt>
      <trkpt lat="48.6774" lon="-3.53519">
        <ele>84</ele>
        <time>2020-08-15T11:26:22Z</time>
      </trkpt>
      <trkpt lat="48.67728" lon="-3.53548">
        <ele>82.7</ele>
        <time>2020-08-15T11:26:28Z</time>
      </trkpt>
      <trkpt lat="48.6772" lon="-3.53575">
        <ele>82.4</ele>
        <time>2020-08-15T11:26:33Z</time>
      </trkpt>
      <trkpt lat="48.67711" lon="-3.53634">
        <ele>77.9</ele>
        <time>2020-08-15T11:26:41Z</time>
      </trkpt>
      <trkpt lat="48.6771" lon="-3.53695">
        <ele>75.4</ele>
        <time>2020-08-15T11:26:48Z</time>
      </trkpt>
      <trkpt lat="48.67712" lon="-3.53756">
        <ele>74.9</ele>
        <time>2020-08-15T11:26:55Z</time>
      </trkpt>
      <trkpt lat="48.67711" lon="-3.5383">
        <ele>74.5</ele>
        <time>2020-08-15T11:27:03Z</time>
      </trkpt>
      <trkpt lat="48.6771" lon="-3.53908">
        <ele>74.5</ele>
        <time>2020-08-15T11:27:12Z</time>
      </trkpt>
      <trkpt lat="48.6771" lon="-3.53916">
        <ele>74.5</ele>
        <time>2020-08-15T11:27:13Z</time>
      </trkpt>
      <trkpt lat="48.67711" lon="-3.53983">
        <ele>75.6</ele>
        <time>2020-08-15T11:27:22Z</time>
      </trkpt>
      <trkpt lat="48.67712" lon="-3.54038">
        <ele>76.8</ele>
        <time>2020-08-15T11:27:30Z</time>
      </trkpt>
      <trkpt lat="48.67712" lon="-3.54103">
        <ele>76.8</ele>
        <time>2020-08-15T11:27:40Z</time>
      </trkpt>
      <trkpt lat="48.6771" lon="-3.54149">
        <ele>76.3</ele>
        <time>2020-08-15T11:27:47Z</time>
      </trkpt>
      <trkpt lat="48.6771" lon="-3.54185">
        <ele>74.4</ele>
        <time>2020-08-15T11:27:53Z</time>
      </trkpt>
      <trkpt lat="48.67711" lon="-3.54233">
        <ele>73.6</ele>
        <time>2020-08-15T11:28:00Z</time>
      </trkpt>
      <trkpt lat="48.67712" lon="-3.54271">
        <ele>71.4</ele>
        <time>2020-08-15T11:28:05Z</time>
      </trkpt>
      <trkpt lat="48.67714" lon="-3.54361">
        <ele>68.6</ele>
        <time>2020-08-15T11:28:15Z</time>
      </trkpt>
      <trkpt lat="48.67714" lon="-3.54408">
        <ele>68.1</ele>
        <time>2020-08-15T11:28:20Z</time>
      </trkpt>
      <trkpt lat="48.6772" lon="-3.54447">
        <ele>66.8</ele>
        <time>2020-08-15T11:28:24Z</time>
      </trkpt>
      <trkpt lat="48.67736" lon="-3.54488">
        <ele>67.1</ele>
        <time>2020-08-15T11:28:29Z</time>
      </trkpt>
      <trkpt lat="48.67768" lon="-3.54518">
        <ele>69.1</ele>
        <time>2020-08-15T11:28:35Z</time>
      </trkpt>
      <trkpt lat="48.67781" lon="-3.54521">
        <ele>69.5</ele>
        <time>2020-08-15T11:28:37Z</time>
      </trkpt>
      <trkpt lat="48.67799" lon="-3.54522">
        <ele>69.8</ele>
        <time>2020-08-15T11:28:40Z</time>
      </trkpt>
      <trkpt lat="48.6781" lon="-3.54521">
        <ele>70.1</ele>
        <time>2020-08-15T11:28:42Z</time>
      </trkpt>
      <trkpt lat="48.67821" lon="-3.54517">
        <ele>70.3</ele>
        <time>2020-08-15T11:28:44Z</time>
      </trkpt>
      <trkpt lat="48.67831" lon="-3.54513">
        <ele>70.5</ele>
        <time>2020-08-15T11:28:46Z</time>
      </trkpt>
      <trkpt lat="48.67865" lon="-3.54486">
        <ele>68.4</ele>
        <time>2020-08-15T11:28:52Z</time>
      </trkpt>
      <trkpt lat="48.67891" lon="-3.54447">
        <ele>67.1</ele>
        <time>2020-08-15T11:28:58Z</time>
      </trkpt>
      <trkpt lat="48.67911" lon="-3.54422">
        <ele>65</ele>
        <time>2020-08-15T11:29:03Z</time>
      </trkpt>
      <trkpt lat="48.67926" lon="-3.54409">
        <ele>65.2</ele>
        <time>2020-08-15T11:29:09Z</time>
      </trkpt>
      <trkpt lat="48.67943" lon="-3.54399">
        <ele>66.2</ele>
        <time>2020-08-15T11:29:15Z</time>
      </trkpt>
      <trkpt lat="48.67951" lon="-3.54395">
        <ele>66.5</ele>
        <time>2020-08-15T11:29:20Z</time>
      </trkpt>
      <trkpt lat="48.67951" lon="-3.54395">
        <ele>66.5</ele>
        <time>2020-08-15T11:29:21Z</time>
      </trkpt>
      <trkpt lat="48.6796" lon="-3.54391">
        <ele>66.7</ele>
        <time>2020-08-15T11:29:30Z</time>
      </trkpt>
      <trkpt lat="48.67974" lon="-3.5439">
        <ele>66.6</ele>
        <time>2020-08-15T11:29:37Z</time>
      </trkpt>
      <trkpt lat="48.67991" lon="-3.54392">
        <ele>66.3</ele>
        <time>2020-08-15T11:29:44Z</time>
      </trkpt>
      <trkpt lat="48.68006" lon="-3.544">
        <ele>68.1</ele>
        <time>2020-08-15T11:29:51Z</time>
      </trkpt>
      <trkpt lat="48.68022" lon="-3.54413">
        <ele>68.7</ele>
        <time>2020-08-15T11:29:59Z</time>
      </trkpt>
      <trkpt lat="48.68038" lon="-3.54428">
        <ele>65.3</ele>
        <time>2020-08-15T11:30:05Z</time>
      </trkpt>
      <trkpt lat="48.68051" lon="-3.5444">
        <ele>65.4</ele>
        <time>2020-08-15T11:30:10Z</time>
      </trkpt>
      <trkpt lat="48.68064" lon="-3.54453">
        <ele>64.9</ele>
        <time>2020-08-15T11:30:17Z</time>
      </trkpt>
      <trkpt lat="48.68068" lon="-3.54457">
        <ele>64.6</ele>
        <time>2020-08-15T11:30:22Z</time>
      </trkpt>
      <trkpt lat="48.68077" lon="-3.54467">
        <ele>63.5</ele>
        <time>2020-08-15T11:30:53Z</time>
      </trkpt>
      <trkpt lat="48.68091" lon="-3.54481">
        <ele>64.6</ele>
        <time>2020-08-15T11:30:58Z</time>
      </trkpt>
      <trkpt lat="48.68107" lon="-3.54498">
        <ele>65</ele>
        <time>2020-08-15T11:31:03Z</time>
      </trkpt>
      <trkpt lat="48.68115" lon="-3.54506">
        <ele>60.7</ele>
        <time>2020-08-15T11:31:05Z</time>
      </trkpt>
      <trkpt lat="48.68123" lon="-3.54514">
        <ele>61.1</ele>
        <time>2020-08-15T11:31:07Z</time>
      </trkpt>
      <trkpt lat="48.68146" lon="-3.54538">
        <ele>61.2</ele>
        <time>2020-08-15T11:31:13Z</time>
      </trkpt>
      <trkpt lat="48.68154" lon="-3.54546">
        <ele>60.8</ele>
        <time>2020-08-15T11:31:15Z</time>
      </trkpt>
      <trkpt lat="48.68164" lon="-3.54556">
        <ele>60</ele>
        <time>2020-08-15T11:31:17Z</time>
      </trkpt>
      <trkpt lat="48.68172" lon="-3.54565">
        <ele>63.2</ele>
        <time>2020-08-15T11:31:19Z</time>
      </trkpt>
      <trkpt lat="48.68194" lon="-3.54597">
        <ele>60.9</ele>
        <time>2020-08-15T11:31:25Z</time>
      </trkpt>
      <trkpt lat="48.68198" lon="-3.54602">
        <ele>61.3</ele>
        <time>2020-08-15T11:31:26Z</time>
      </trkpt>
      <trkpt lat="48.68216" lon="-3.54629">
        <ele>62</ele>
        <time>2020-08-15T11:31:31Z</time>
      </trkpt>
      <trkpt lat="48.68227" lon="-3.54647">
        <ele>61.8</ele>
        <time>2020-08-15T11:31:34Z</time>
      </trkpt>
      <trkpt lat="48.68244" lon="-3.54687">
        <ele>60.8</ele>
        <time>2020-08-15T11:31:40Z</time>
      </trkpt>
      <trkpt lat="48.68247" lon="-3.54702">
        <ele>60.4</ele>
        <time>2020-08-15T11:31:42Z</time>
      </trkpt>
      <trkpt lat="48.68254" lon="-3.54729">
        <ele>63</ele>
        <time>2020-08-15T11:31:46Z</time>
      </trkpt>
      <trkpt lat="48.68256" lon="-3.54743">
        <ele>60</ele>
        <time>2020-08-15T11:31:48Z</time>
      </trkpt>
      <trkpt lat="48.68261" lon="-3.5477">
        <ele>60.6</ele>
        <time>2020-08-15T11:31:52Z</time>
      </trkpt>
      <trkpt lat="48.68266" lon="-3.54799">
        <ele>61.2</ele>
        <time>2020-08-15T11:31:56Z</time>
      </trkpt>
      <trkpt lat="48.68271" lon="-3.5483">
        <ele>60</ele>
        <time>2020-08-15T11:32:00Z</time>
      </trkpt>
      <trkpt lat="48.68274" lon="-3.54855">
        <ele>58.1</ele>
        <time>2020-08-15T11:32:03Z</time>
      </trkpt>
      <trkpt lat="48.68282" lon="-3.5489">
        <ele>58</ele>
        <time>2020-08-15T11:32:08Z</time>
      </trkpt>
      <trkpt lat="48.68287" lon="-3.54923">
        <ele>54.5</ele>
        <time>2020-08-15T11:32:13Z</time>
      </trkpt>
      <trkpt lat="48.68293" lon="-3.54963">
        <ele>53.3</ele>
        <time>2020-08-15T11:32:19Z</time>
      </trkpt>
      <trkpt lat="48.68294" lon="-3.54969">
        <ele>53.1</ele>
        <time>2020-08-15T11:32:20Z</time>
      </trkpt>
      <trkpt lat="48.68294" lon="-3.54994">
        <ele>52.4</ele>
        <time>2020-08-15T11:32:24Z</time>
      </trkpt>
      <trkpt lat="48.68289" lon="-3.55041">
        <ele>50.8</ele>
        <time>2020-08-15T11:32:31Z</time>
      </trkpt>
      <trkpt lat="48.68275" lon="-3.55073">
        <ele>50.9</ele>
        <time>2020-08-15T11:32:36Z</time>
      </trkpt>
      <trkpt lat="48.6826" lon="-3.55106">
        <ele>52.7</ele>
        <time>2020-08-15T11:32:42Z</time>
      </trkpt>
      <trkpt lat="48.68247" lon="-3.55135">
        <ele>55.8</ele>
        <time>2020-08-15T11:32:48Z</time>
      </trkpt>
      <trkpt lat="48.68238" lon="-3.55157">
        <ele>55.2</ele>
        <time>2020-08-15T11:32:52Z</time>
      </trkpt>
      <trkpt lat="48.68232" lon="-3.55186">
        <ele>56.9</ele>
        <time>2020-08-15T11:32:56Z</time>
      </trkpt>
      <trkpt lat="48.68229" lon="-3.55201">
        <ele>57.6</ele>
        <time>2020-08-15T11:32:58Z</time>
      </trkpt>
      <trkpt lat="48.68226" lon="-3.55218">
        <ele>57.9</ele>
        <time>2020-08-15T11:33:00Z</time>
      </trkpt>
      <trkpt lat="48.68235" lon="-3.55267">
        <ele>57.1</ele>
        <time>2020-08-15T11:33:04Z</time>
      </trkpt>
      <trkpt lat="48.68251" lon="-3.55284">
        <ele>53.1</ele>
        <time>2020-08-15T11:33:07Z</time>
      </trkpt>
      <trkpt lat="48.68284" lon="-3.55327">
        <ele>51.9</ele>
        <time>2020-08-15T11:33:14Z</time>
      </trkpt>
      <trkpt lat="48.68304" lon="-3.55367">
        <ele>46.9</ele>
        <time>2020-08-15T11:33:19Z</time>
      </trkpt>
      <trkpt lat="48.6831" lon="-3.55382">
        <ele>46.2</ele>
        <time>2020-08-15T11:33:21Z</time>
      </trkpt>
      <trkpt lat="48.68317" lon="-3.5541">
        <ele>44.4</ele>
        <time>2020-08-15T11:33:24Z</time>
      </trkpt>
      <trkpt lat="48.68329" lon="-3.55469">
        <ele>42</ele>
        <time>2020-08-15T11:33:29Z</time>
      </trkpt>
      <trkpt lat="48.6833" lon="-3.5549">
        <ele>40</ele>
        <time>2020-08-15T11:33:31Z</time>
      </trkpt>
      <trkpt lat="48.68328" lon="-3.5554">
        <ele>42.3</ele>
        <time>2020-08-15T11:33:36Z</time>
      </trkpt>
      <trkpt lat="48.68323" lon="-3.55558">
        <ele>42.3</ele>
        <time>2020-08-15T11:33:38Z</time>
      </trkpt>
      <trkpt lat="48.68312" lon="-3.55594">
        <ele>41.1</ele>
        <time>2020-08-15T11:33:43Z</time>
      </trkpt>
      <trkpt lat="48.68297" lon="-3.55646">
        <ele>40.6</ele>
        <time>2020-08-15T11:33:49Z</time>
      </trkpt>
      <trkpt lat="48.68282" lon="-3.55701">
        <ele>37.1</ele>
        <time>2020-08-15T11:33:56Z</time>
      </trkpt>
      <trkpt lat="48.6827" lon="-3.55748">
        <ele>36.4</ele>
        <time>2020-08-15T11:34:03Z</time>
      </trkpt>
      <trkpt lat="48.68265" lon="-3.55788">
        <ele>36.2</ele>
        <time>2020-08-15T11:34:10Z</time>
      </trkpt>
      <trkpt lat="48.68261" lon="-3.55818">
        <ele>36.9</ele>
        <time>2020-08-15T11:34:16Z</time>
      </trkpt>
      <trkpt lat="48.68259" lon="-3.55849">
        <ele>36.9</ele>
        <time>2020-08-15T11:34:22Z</time>
      </trkpt>
      <trkpt lat="48.68261" lon="-3.5588">
        <ele>36.7</ele>
        <time>2020-08-15T11:34:28Z</time>
      </trkpt>
      <trkpt lat="48.68271" lon="-3.55909">
        <ele>37</ele>
        <time>2020-08-15T11:34:34Z</time>
      </trkpt>
      <trkpt lat="48.68285" lon="-3.55938">
        <ele>35.9</ele>
        <time>2020-08-15T11:34:41Z</time>
      </trkpt>
      <trkpt lat="48.68298" lon="-3.5596">
        <ele>34.9</ele>
        <time>2020-08-15T11:34:47Z</time>
      </trkpt>
      <trkpt lat="48.68308" lon="-3.55972">
        <ele>33.9</ele>
        <time>2020-08-15T11:34:52Z</time>
      </trkpt>
      <trkpt lat="48.68329" lon="-3.55995">
        <ele>29.1</ele>
        <time>2020-08-15T11:34:58Z</time>
      </trkpt>
      <trkpt lat="48.6835" lon="-3.56033">
        <ele>28.9</ele>
        <time>2020-08-15T11:35:04Z</time>
      </trkpt>
      <trkpt lat="48.6837" lon="-3.56082">
        <ele>29.4</ele>
        <time>2020-08-15T11:35:11Z</time>
      </trkpt>
      <trkpt lat="48.68388" lon="-3.56125">
        <ele>31.2</ele>
        <time>2020-08-15T11:35:19Z</time>
      </trkpt>
      <trkpt lat="48.68405" lon="-3.56159">
        <ele>29.8</ele>
        <time>2020-08-15T11:35:28Z</time>
      </trkpt>
      <trkpt lat="48.68414" lon="-3.56173">
        <ele>30.1</ele>
        <time>2020-08-15T11:35:34Z</time>
      </trkpt>
      <trkpt lat="48.68415" lon="-3.56183">
        <ele>31.9</ele>
        <time>2020-08-15T11:35:37Z</time>
      </trkpt>
      <trkpt lat="48.68419" lon="-3.56184">
        <ele>27.9</ele>
        <time>2020-08-15T11:35:42Z</time>
      </trkpt>
      <trkpt lat="48.68416" lon="-3.56184">
        <ele>32</ele>
        <time>2020-08-15T11:35:44Z</time>
      </trkpt>
      <trkpt lat="48.68405" lon="-3.56169">
        <ele>31.3</ele>
        <time>2020-08-15T11:35:54Z</time>
      </trkpt>
      <trkpt lat="48.68403" lon="-3.56167">
        <ele>31.7</ele>
        <time>2020-08-15T11:35:56Z</time>
      </trkpt>
      <trkpt lat="48.68397" lon="-3.56177">
        <ele>33.2</ele>
        <time>2020-08-15T11:36:01Z</time>
      </trkpt>
      <trkpt lat="48.68402" lon="-3.56199">
        <ele>34.3</ele>
        <time>2020-08-15T11:36:09Z</time>
      </trkpt>
      <trkpt lat="48.6841" lon="-3.56232">
        <ele>33.9</ele>
        <time>2020-08-15T11:36:20Z</time>
      </trkpt>
      <trkpt lat="48.68417" lon="-3.56256">
        <ele>30.3</ele>
        <time>2020-08-15T11:36:27Z</time>
      </trkpt>
      <trkpt lat="48.68427" lon="-3.56292">
        <ele>29.1</ele>
        <time>2020-08-15T11:36:36Z</time>
      </trkpt>
      <trkpt lat="48.68436" lon="-3.56325">
        <ele>30</ele>
        <time>2020-08-15T11:36:44Z</time>
      </trkpt>
      <trkpt lat="48.68438" lon="-3.56355">
        <ele>30</ele>
        <time>2020-08-15T11:36:52Z</time>
      </trkpt>
      <trkpt lat="48.68435" lon="-3.56397">
        <ele>31.4</ele>
        <time>2020-08-15T11:36:59Z</time>
      </trkpt>
      <trkpt lat="48.68429" lon="-3.56446">
        <ele>30.9</ele>
        <time>2020-08-15T11:37:06Z</time>
      </trkpt>
      <trkpt lat="48.6842" lon="-3.56524">
        <ele>28.3</ele>
        <time>2020-08-15T11:37:17Z</time>
      </trkpt>
      <trkpt lat="48.68415" lon="-3.56565">
        <ele>34.1</ele>
        <time>2020-08-15T11:37:24Z</time>
      </trkpt>
      <trkpt lat="48.68411" lon="-3.56583">
        <ele>30.5</ele>
        <time>2020-08-15T11:37:29Z</time>
      </trkpt>
      <trkpt lat="48.68411" lon="-3.56583">
        <ele>30.5</ele>
        <time>2020-08-15T11:37:30Z</time>
      </trkpt>
      <trkpt lat="48.68407" lon="-3.56598">
        <ele>28.5</ele>
        <time>2020-08-15T11:38:34Z</time>
      </trkpt>
      <trkpt lat="48.684" lon="-3.56616">
        <ele>28.1</ele>
        <time>2020-08-15T11:38:42Z</time>
      </trkpt>
      <trkpt lat="48.6839" lon="-3.56632">
        <ele>27.5</ele>
        <time>2020-08-15T11:38:49Z</time>
      </trkpt>
      <trkpt lat="48.68378" lon="-3.56644">
        <ele>27.4</ele>
        <time>2020-08-15T11:38:55Z</time>
      </trkpt>
      <trkpt lat="48.6836" lon="-3.56659">
        <ele>27.4</ele>
        <time>2020-08-15T11:39:02Z</time>
      </trkpt>
      <trkpt lat="48.6835" lon="-3.56665">
        <ele>27.2</ele>
        <time>2020-08-15T11:39:07Z</time>
      </trkpt>
      <trkpt lat="48.68345" lon="-3.56666">
        <ele>27</ele>
        <time>2020-08-15T11:39:12Z</time>
      </trkpt>
      <trkpt lat="48.68345" lon="-3.56666">
        <ele>27</ele>
        <time>2020-08-15T11:47:54Z</time>
      </trkpt>
      <trkpt lat="48.68345" lon="-3.56666">
        <ele>27</ele>
        <time>2020-08-15T11:47:55Z</time>
      </trkpt>
      <trkpt lat="48.68341" lon="-3.56667">
        <ele>23.3</ele>
        <time>2020-08-15T11:48:01Z</time>
      </trkpt>
      <trkpt lat="48.68326" lon="-3.56669">
        <ele>24.8</ele>
        <time>2020-08-15T11:48:09Z</time>
      </trkpt>
      <trkpt lat="48.68316" lon="-3.5667">
        <ele>24</ele>
        <time>2020-08-15T11:48:16Z</time>
      </trkpt>
      <trkpt lat="48.683" lon="-3.56673">
        <ele>23.9</ele>
        <time>2020-08-15T11:48:24Z</time>
      </trkpt>
      <trkpt lat="48.68286" lon="-3.56676">
        <ele>24.6</ele>
        <time>2020-08-15T11:48:30Z</time>
      </trkpt>
      <trkpt lat="48.68274" lon="-3.56678">
        <ele>25.8</ele>
        <time>2020-08-15T11:48:35Z</time>
      </trkpt>
      <trkpt lat="48.68254" lon="-3.56683">
        <ele>27.7</ele>
        <time>2020-08-15T11:48:42Z</time>
      </trkpt>
      <trkpt lat="48.68235" lon="-3.56693">
        <ele>31.8</ele>
        <time>2020-08-15T11:48:49Z</time>
      </trkpt>
      <trkpt lat="48.68218" lon="-3.56705">
        <ele>31.4</ele>
        <time>2020-08-15T11:48:56Z</time>
      </trkpt>
      <trkpt lat="48.68198" lon="-3.56723">
        <ele>30.7</ele>
        <time>2020-08-15T11:49:04Z</time>
      </trkpt>
      <trkpt lat="48.68183" lon="-3.56738">
        <ele>29.6</ele>
        <time>2020-08-15T11:49:10Z</time>
      </trkpt>
      <trkpt lat="48.68149" lon="-3.56766">
        <ele>28.5</ele>
        <time>2020-08-15T11:49:22Z</time>
      </trkpt>
      <trkpt lat="48.68121" lon="-3.56788">
        <ele>28.8</ele>
        <time>2020-08-15T11:49:31Z</time>
      </trkpt>
      <trkpt lat="48.68092" lon="-3.568">
        <ele>26.8</ele>
        <time>2020-08-15T11:49:41Z</time>
      </trkpt>
      <trkpt lat="48.68069" lon="-3.56807">
        <ele>30.3</ele>
        <time>2020-08-15T11:49:50Z</time>
      </trkpt>
      <trkpt lat="48.68061" lon="-3.56809">
        <ele>30.8</ele>
        <time>2020-08-15T11:49:56Z</time>
      </trkpt>
      <trkpt lat="48.68061" lon="-3.56809">
        <ele>30.8</ele>
        <time>2020-08-15T11:49:57Z</time>
      </trkpt>
      <trkpt lat="48.68061" lon="-3.56809">
        <ele>30.8</ele>
        <time>2020-08-15T11:50:09Z</time>
      </trkpt>
      <trkpt lat="48.6806" lon="-3.56809">
        <ele>31</ele>
        <time>2020-08-15T12:27:19Z</time>
      </trkpt>
      <trkpt lat="48.68055" lon="-3.56811">
        <ele>31.3</ele>
        <time>2020-08-15T12:27:27Z</time>
      </trkpt>
      <trkpt lat="48.68041" lon="-3.56814">
        <ele>32.5</ele>
        <time>2020-08-15T12:27:36Z</time>
      </trkpt>
      <trkpt lat="48.68027" lon="-3.56822">
        <ele>32.5</ele>
        <time>2020-08-15T12:27:44Z</time>
      </trkpt>
      <trkpt lat="48.68028" lon="-3.56825">
        <ele>32.2</ele>
        <time>2020-08-15T12:27:48Z</time>
      </trkpt>
      <trkpt lat="48.68024" lon="-3.56837">
        <ele>22.9</ele>
        <time>2020-08-15T12:27:55Z</time>
      </trkpt>
      <trkpt lat="48.68005" lon="-3.5686">
        <ele>21.8</ele>
        <time>2020-08-15T12:28:01Z</time>
      </trkpt>
      <trkpt lat="48.67975" lon="-3.56882">
        <ele>22</ele>
        <time>2020-08-15T12:28:09Z</time>
      </trkpt>
      <trkpt lat="48.6794" lon="-3.56907">
        <ele>20.7</ele>
        <time>2020-08-15T12:28:17Z</time>
      </trkpt>
      <trkpt lat="48.679" lon="-3.5693">
        <ele>17.2</ele>
        <time>2020-08-15T12:28:25Z</time>
      </trkpt>
      <trkpt lat="48.67864" lon="-3.56956">
        <ele>16.8</ele>
        <time>2020-08-15T12:28:32Z</time>
      </trkpt>
      <trkpt lat="48.67823" lon="-3.57005">
        <ele>11.3</ele>
        <time>2020-08-15T12:28:40Z</time>
      </trkpt>
      <trkpt lat="48.67803" lon="-3.5702">
        <ele>13.3</ele>
        <time>2020-08-15T12:28:44Z</time>
      </trkpt>
      <trkpt lat="48.67757" lon="-3.57058">
        <ele>12</ele>
        <time>2020-08-15T12:28:52Z</time>
      </trkpt>
      <trkpt lat="48.67698" lon="-3.57108">
        <ele>12.7</ele>
        <time>2020-08-15T12:29:02Z</time>
      </trkpt>
      <trkpt lat="48.67662" lon="-3.57138">
        <ele>14.1</ele>
        <time>2020-08-15T12:29:08Z</time>
      </trkpt>
      <trkpt lat="48.67627" lon="-3.57167">
        <ele>7</ele>
        <time>2020-08-15T12:29:14Z</time>
      </trkpt>
      <trkpt lat="48.67616" lon="-3.57176">
        <ele>7</ele>
        <time>2020-08-15T12:29:16Z</time>
      </trkpt>
      <trkpt lat="48.67595" lon="-3.57194">
        <ele>7</ele>
        <time>2020-08-15T12:29:20Z</time>
      </trkpt>
      <trkpt lat="48.67565" lon="-3.57223">
        <ele>6.9</ele>
        <time>2020-08-15T12:29:26Z</time>
      </trkpt>
      <trkpt lat="48.67551" lon="-3.57237">
        <ele>6.8</ele>
        <time>2020-08-15T12:29:29Z</time>
      </trkpt>
      <trkpt lat="48.6754" lon="-3.5725">
        <ele>6.7</ele>
        <time>2020-08-15T12:29:32Z</time>
      </trkpt>
      <trkpt lat="48.67507" lon="-3.57232">
        <ele>6.5</ele>
        <time>2020-08-15T12:29:37Z</time>
      </trkpt>
      <trkpt lat="48.67512" lon="-3.57243">
        <ele>6.4</ele>
        <time>2020-08-15T12:29:39Z</time>
      </trkpt>
      <trkpt lat="48.67525" lon="-3.57262">
        <ele>5.2</ele>
        <time>2020-08-15T12:29:46Z</time>
      </trkpt>
      <trkpt lat="48.67525" lon="-3.57262">
        <ele>5.2</ele>
        <time>2020-08-15T12:29:48Z</time>
      </trkpt>
      <trkpt lat="48.67528" lon="-3.57265">
        <ele>5.1</ele>
        <time>2020-08-15T12:29:55Z</time>
      </trkpt>
      <trkpt lat="48.67528" lon="-3.57265">
        <ele>5.1</ele>
        <time>2020-08-15T12:30:02Z</time>
      </trkpt>
      <trkpt lat="48.67528" lon="-3.57265">
        <ele>5.1</ele>
        <time>2020-08-15T12:30:10Z</time>
      </trkpt>
      <trkpt lat="48.67528" lon="-3.57265">
        <ele>5.1</ele>
        <time>2020-08-15T12:30:21Z</time>
      </trkpt>
      <trkpt lat="48.67451" lon="-3.57379">
        <ele>15.6</ele>
        <time>2020-08-15T12:30:34Z</time>
      </trkpt>
      <trkpt lat="48.67427" lon="-3.57424">
        <ele>16</ele>
        <time>2020-08-15T12:30:47Z</time>
      </trkpt>
      <trkpt lat="48.67407" lon="-3.57459">
        <ele>24.6</ele>
        <time>2020-08-15T12:30:56Z</time>
      </trkpt>
      <trkpt lat="48.67395" lon="-3.57479">
        <ele>26.3</ele>
        <time>2020-08-15T12:31:02Z</time>
      </trkpt>
      <trkpt lat="48.67378" lon="-3.57508">
        <ele>21.9</ele>
        <time>2020-08-15T12:31:10Z</time>
      </trkpt>
      <trkpt lat="48.67358" lon="-3.57542">
        <ele>19.5</ele>
        <time>2020-08-15T12:31:19Z</time>
      </trkpt>
      <trkpt lat="48.67332" lon="-3.57584">
        <ele>12.6</ele>
        <time>2020-08-15T12:31:30Z</time>
      </trkpt>
      <trkpt lat="48.67309" lon="-3.57623">
        <ele>22.5</ele>
        <time>2020-08-15T12:31:40Z</time>
      </trkpt>
      <trkpt lat="48.67279" lon="-3.57672">
        <ele>18.3</ele>
        <time>2020-08-15T12:31:53Z</time>
      </trkpt>
      <trkpt lat="48.67253" lon="-3.57716">
        <ele>12.4</ele>
        <time>2020-08-15T12:32:05Z</time>
      </trkpt>
      <trkpt lat="48.67237" lon="-3.57741">
        <ele>12.3</ele>
        <time>2020-08-15T12:32:12Z</time>
      </trkpt>
      <trkpt lat="48.67215" lon="-3.57775">
        <ele>9.1</ele>
        <time>2020-08-15T12:32:21Z</time>
      </trkpt>
      <trkpt lat="48.67191" lon="-3.57812">
        <ele>7.9</ele>
        <time>2020-08-15T12:32:31Z</time>
      </trkpt>
      <trkpt lat="48.6717" lon="-3.57844">
        <ele>4</ele>
        <time>2020-08-15T12:32:40Z</time>
      </trkpt>
      <trkpt lat="48.67154" lon="-3.57868">
        <ele>4.7</ele>
        <time>2020-08-15T12:32:47Z</time>
      </trkpt>
      <trkpt lat="48.67138" lon="-3.57891">
        <ele>4.8</ele>
        <time>2020-08-15T12:32:54Z</time>
      </trkpt>
      <trkpt lat="48.67111" lon="-3.57932">
        <ele>3.7</ele>
        <time>2020-08-15T12:33:05Z</time>
      </trkpt>
      <trkpt lat="48.67095" lon="-3.57959">
        <ele>3.5</ele>
        <time>2020-08-15T12:33:12Z</time>
      </trkpt>
      <trkpt lat="48.67073" lon="-3.58001">
        <ele>3.6</ele>
        <time>2020-08-15T12:33:22Z</time>
      </trkpt>
      <trkpt lat="48.67055" lon="-3.58046">
        <ele>4.8</ele>
        <time>2020-08-15T12:33:32Z</time>
      </trkpt>
      <trkpt lat="48.67044" lon="-3.58077">
        <ele>5</ele>
        <time>2020-08-15T12:33:39Z</time>
      </trkpt>
      <trkpt lat="48.67032" lon="-3.5812">
        <ele>5</ele>
        <time>2020-08-15T12:33:48Z</time>
      </trkpt>
      <trkpt lat="48.67024" lon="-3.58163">
        <ele>5</ele>
        <time>2020-08-15T12:33:57Z</time>
      </trkpt>
      <trkpt lat="48.67023" lon="-3.58169">
        <ele>5</ele>
        <time>2020-08-15T12:34:00Z</time>
      </trkpt>
      <trkpt lat="48.67022" lon="-3.58178">
        <ele>5</ele>
        <time>2020-08-15T12:35:06Z</time>
      </trkpt>
      <trkpt lat="48.6702" lon="-3.58211">
        <ele>5</ele>
        <time>2020-08-15T12:35:15Z</time>
      </trkpt>
      <trkpt lat="48.67019" lon="-3.58258">
        <ele>4.8</ele>
        <time>2020-08-15T12:35:27Z</time>
      </trkpt>
      <trkpt lat="48.6702" lon="-3.58303">
        <ele>4.4</ele>
        <time>2020-08-15T12:35:37Z</time>
      </trkpt>
      <trkpt lat="48.67023" lon="-3.58336">
        <ele>4</ele>
        <time>2020-08-15T12:35:44Z</time>
      </trkpt>
      <trkpt lat="48.6703" lon="-3.58378">
        <ele>4</ele>
        <time>2020-08-15T12:35:53Z</time>
      </trkpt>
      <trkpt lat="48.67036" lon="-3.58421">
        <ele>6</ele>
        <time>2020-08-15T12:36:02Z</time>
      </trkpt>
      <trkpt lat="48.67042" lon="-3.58456">
        <ele>6</ele>
        <time>2020-08-15T12:36:09Z</time>
      </trkpt>
      <trkpt lat="48.67049" lon="-3.58514">
        <ele>7.9</ele>
        <time>2020-08-15T12:36:20Z</time>
      </trkpt>
      <trkpt lat="48.67057" lon="-3.58569">
        <ele>9</ele>
        <time>2020-08-15T12:36:30Z</time>
      </trkpt>
      <trkpt lat="48.67068" lon="-3.58635">
        <ele>13.1</ele>
        <time>2020-08-15T12:36:42Z</time>
      </trkpt>
      <trkpt lat="48.67073" lon="-3.58664">
        <ele>13.4</ele>
        <time>2020-08-15T12:36:48Z</time>
      </trkpt>
      <trkpt lat="48.67087" lon="-3.58705">
        <ele>12</ele>
        <time>2020-08-15T12:36:58Z</time>
      </trkpt>
      <trkpt lat="48.67104" lon="-3.58739">
        <ele>12.6</ele>
        <time>2020-08-15T12:37:07Z</time>
      </trkpt>
      <trkpt lat="48.67119" lon="-3.58769">
        <ele>15.3</ele>
        <time>2020-08-15T12:37:17Z</time>
      </trkpt>
      <trkpt lat="48.67135" lon="-3.58808">
        <ele>17.4</ele>
        <time>2020-08-15T12:37:29Z</time>
      </trkpt>
      <trkpt lat="48.67144" lon="-3.58837">
        <ele>33.2</ele>
        <time>2020-08-15T12:37:37Z</time>
      </trkpt>
      <trkpt lat="48.67147" lon="-3.58875">
        <ele>34.5</ele>
        <time>2020-08-15T12:37:46Z</time>
      </trkpt>
      <trkpt lat="48.67144" lon="-3.58906">
        <ele>35.7</ele>
        <time>2020-08-15T12:37:55Z</time>
      </trkpt>
      <trkpt lat="48.67138" lon="-3.58943">
        <ele>32.6</ele>
        <time>2020-08-15T12:38:04Z</time>
      </trkpt>
      <trkpt lat="48.67126" lon="-3.58983">
        <ele>29.3</ele>
        <time>2020-08-15T12:38:13Z</time>
      </trkpt>
      <trkpt lat="48.67116" lon="-3.59006">
        <ele>23</ele>
        <time>2020-08-15T12:38:19Z</time>
      </trkpt>
      <trkpt lat="48.67108" lon="-3.59023">
        <ele>23</ele>
        <time>2020-08-15T12:38:24Z</time>
      </trkpt>
      <trkpt lat="48.67082" lon="-3.59072">
        <ele>32.1</ele>
        <time>2020-08-15T12:38:34Z</time>
      </trkpt>
      <trkpt lat="48.67045" lon="-3.59142">
        <ele>19.6</ele>
        <time>2020-08-15T12:38:47Z</time>
      </trkpt>
      <trkpt lat="48.67011" lon="-3.59204">
        <ele>8.9</ele>
        <time>2020-08-15T12:39:00Z</time>
      </trkpt>
      <trkpt lat="48.66988" lon="-3.59245">
        <ele>8.2</ele>
        <time>2020-08-15T12:39:09Z</time>
      </trkpt>
      <trkpt lat="48.6697" lon="-3.5928">
        <ele>8.6</ele>
        <time>2020-08-15T12:39:16Z</time>
      </trkpt>
      <trkpt lat="48.66949" lon="-3.59317">
        <ele>9.7</ele>
        <time>2020-08-15T12:39:24Z</time>
      </trkpt>
      <trkpt lat="48.66936" lon="-3.59342">
        <ele>9.1</ele>
        <time>2020-08-15T12:39:31Z</time>
      </trkpt>
      <trkpt lat="48.66935" lon="-3.59344">
        <ele>9.1</ele>
        <time>2020-08-15T12:39:32Z</time>
      </trkpt>
      <trkpt lat="48.66929" lon="-3.59355">
        <ele>8.9</ele>
        <time>2020-08-15T12:39:37Z</time>
      </trkpt>
      <trkpt lat="48.66927" lon="-3.59359">
        <ele>8.7</ele>
        <time>2020-08-15T12:39:38Z</time>
      </trkpt>
      <trkpt lat="48.66901" lon="-3.59417">
        <ele>7.7</ele>
        <time>2020-08-15T12:39:50Z</time>
      </trkpt>
      <trkpt lat="48.66879" lon="-3.59473">
        <ele>9.3</ele>
        <time>2020-08-15T12:40:00Z</time>
      </trkpt>
      <trkpt lat="48.66862" lon="-3.59534">
        <ele>10.2</ele>
        <time>2020-08-15T12:40:10Z</time>
      </trkpt>
      <trkpt lat="48.66859" lon="-3.59547">
        <ele>10.2</ele>
        <time>2020-08-15T12:40:12Z</time>
      </trkpt>
      <trkpt lat="48.66853" lon="-3.59573">
        <ele>10.9</ele>
        <time>2020-08-15T12:40:16Z</time>
      </trkpt>
      <trkpt lat="48.66848" lon="-3.59627">
        <ele>9.5</ele>
        <time>2020-08-15T12:40:24Z</time>
      </trkpt>
      <trkpt lat="48.66852" lon="-3.59686">
        <ele>9.1</ele>
        <time>2020-08-15T12:40:33Z</time>
      </trkpt>
      <trkpt lat="48.66855" lon="-3.59726">
        <ele>9.2</ele>
        <time>2020-08-15T12:40:40Z</time>
      </trkpt>
      <trkpt lat="48.66858" lon="-3.59764">
        <ele>9.6</ele>
        <time>2020-08-15T12:40:47Z</time>
      </trkpt>
      <trkpt lat="48.6686" lon="-3.59796">
        <ele>9.5</ele>
        <time>2020-08-15T12:40:53Z</time>
      </trkpt>
      <trkpt lat="48.66858" lon="-3.59823">
        <ele>9.4</ele>
        <time>2020-08-15T12:40:59Z</time>
      </trkpt>
      <trkpt lat="48.66849" lon="-3.59853">
        <ele>9.1</ele>
        <time>2020-08-15T12:41:05Z</time>
      </trkpt>
      <trkpt lat="48.66845" lon="-3.59896">
        <ele>8.8</ele>
        <time>2020-08-15T12:41:13Z</time>
      </trkpt>
      <trkpt lat="48.66843" lon="-3.59932">
        <ele>8.9</ele>
        <time>2020-08-15T12:41:20Z</time>
      </trkpt>
      <trkpt lat="48.66845" lon="-3.59957">
        <ele>9.5</ele>
        <time>2020-08-15T12:41:25Z</time>
      </trkpt>
      <trkpt lat="48.6684" lon="-3.60006">
        <ele>10.5</ele>
        <time>2020-08-15T12:41:35Z</time>
      </trkpt>
      <trkpt lat="48.66837" lon="-3.60048">
        <ele>9.8</ele>
        <time>2020-08-15T12:41:43Z</time>
      </trkpt>
      <trkpt lat="48.66834" lon="-3.60071">
        <ele>9.8</ele>
        <time>2020-08-15T12:41:49Z</time>
      </trkpt>
      <trkpt lat="48.66832" lon="-3.60095">
        <ele>11</ele>
        <time>2020-08-15T12:41:55Z</time>
      </trkpt>
      <trkpt lat="48.66829" lon="-3.60128">
        <ele>11.9</ele>
        <time>2020-08-15T12:42:03Z</time>
      </trkpt>
      <trkpt lat="48.66827" lon="-3.60163">
        <ele>10.9</ele>
        <time>2020-08-15T12:42:12Z</time>
      </trkpt>
      <trkpt lat="48.66825" lon="-3.60198">
        <ele>16.1</ele>
        <time>2020-08-15T12:42:21Z</time>
      </trkpt>
      <trkpt lat="48.66824" lon="-3.60215">
        <ele>16.8</ele>
        <time>2020-08-15T12:42:28Z</time>
      </trkpt>
      <trkpt lat="48.66821" lon="-3.60251">
        <ele>18.4</ele>
        <time>2020-08-15T12:42:37Z</time>
      </trkpt>
      <trkpt lat="48.6682" lon="-3.60266">
        <ele>21.1</ele>
        <time>2020-08-15T12:42:42Z</time>
      </trkpt>
      <trkpt lat="48.66819" lon="-3.60283">
        <ele>23.8</ele>
        <time>2020-08-15T12:42:47Z</time>
      </trkpt>
      <trkpt lat="48.66818" lon="-3.60306">
        <ele>24.6</ele>
        <time>2020-08-15T12:42:53Z</time>
      </trkpt>
      <trkpt lat="48.66817" lon="-3.6033">
        <ele>23.2</ele>
        <time>2020-08-15T12:42:59Z</time>
      </trkpt>
      <trkpt lat="48.66816" lon="-3.60364">
        <ele>30.7</ele>
        <time>2020-08-15T12:43:06Z</time>
      </trkpt>
      <trkpt lat="48.66816" lon="-3.60371">
        <ele>31.3</ele>
        <time>2020-08-15T12:43:08Z</time>
      </trkpt>
      <trkpt lat="48.66818" lon="-3.60393">
        <ele>30.7</ele>
        <time>2020-08-15T12:43:15Z</time>
      </trkpt>
      <trkpt lat="48.66819" lon="-3.60408">
        <ele>28.6</ele>
        <time>2020-08-15T12:43:21Z</time>
      </trkpt>
      <trkpt lat="48.66819" lon="-3.60408">
        <ele>28.6</ele>
        <time>2020-08-15T12:43:22Z</time>
      </trkpt>
      <trkpt lat="48.6682" lon="-3.6042">
        <ele>30.2</ele>
        <time>2020-08-15T12:43:44Z</time>
      </trkpt>
      <trkpt lat="48.66823" lon="-3.60436">
        <ele>33.2</ele>
        <time>2020-08-15T12:43:50Z</time>
      </trkpt>
      <trkpt lat="48.66828" lon="-3.60455">
        <ele>36.1</ele>
        <time>2020-08-15T12:43:56Z</time>
      </trkpt>
      <trkpt lat="48.66834" lon="-3.6047">
        <ele>22.2</ele>
        <time>2020-08-15T12:44:01Z</time>
      </trkpt>
      <trkpt lat="48.66845" lon="-3.60492">
        <ele>25.1</ele>
        <time>2020-08-15T12:44:09Z</time>
      </trkpt>
      <trkpt lat="48.6685" lon="-3.60504">
        <ele>27.1</ele>
        <time>2020-08-15T12:44:14Z</time>
      </trkpt>
      <trkpt lat="48.66857" lon="-3.6052">
        <ele>25.6</ele>
        <time>2020-08-15T12:44:20Z</time>
      </trkpt>
      <trkpt lat="48.66864" lon="-3.60542">
        <ele>25.1</ele>
        <time>2020-08-15T12:44:26Z</time>
      </trkpt>
      <trkpt lat="48.66868" lon="-3.60563">
        <ele>25.6</ele>
        <time>2020-08-15T12:44:32Z</time>
      </trkpt>
      <trkpt lat="48.66871" lon="-3.60583">
        <ele>25.5</ele>
        <time>2020-08-15T12:44:37Z</time>
      </trkpt>
      <trkpt lat="48.66875" lon="-3.60608">
        <ele>26.6</ele>
        <time>2020-08-15T12:44:43Z</time>
      </trkpt>
      <trkpt lat="48.66876" lon="-3.60634">
        <ele>26.6</ele>
        <time>2020-08-15T12:44:49Z</time>
      </trkpt>
      <trkpt lat="48.66877" lon="-3.60669">
        <ele>27.3</ele>
        <time>2020-08-15T12:44:57Z</time>
      </trkpt>
      <trkpt lat="48.66878" lon="-3.60703">
        <ele>27.4</ele>
        <time>2020-08-15T12:45:05Z</time>
      </trkpt>
      <trkpt lat="48.66878" lon="-3.60731">
        <ele>27.5</ele>
        <time>2020-08-15T12:45:11Z</time>
      </trkpt>
      <trkpt lat="48.66878" lon="-3.60751">
        <ele>28.3</ele>
        <time>2020-08-15T12:45:16Z</time>
      </trkpt>
      <trkpt lat="48.66878" lon="-3.60778">
        <ele>28.8</ele>
        <time>2020-08-15T12:45:22Z</time>
      </trkpt>
      <trkpt lat="48.66882" lon="-3.60828">
        <ele>28.4</ele>
        <time>2020-08-15T12:45:32Z</time>
      </trkpt>
      <trkpt lat="48.66886" lon="-3.6087">
        <ele>29.3</ele>
        <time>2020-08-15T12:45:42Z</time>
      </trkpt>
      <trkpt lat="48.66891" lon="-3.6091">
        <ele>27.9</ele>
        <time>2020-08-15T12:45:51Z</time>
      </trkpt>
      <trkpt lat="48.66897" lon="-3.60938">
        <ele>28.1</ele>
        <time>2020-08-15T12:45:58Z</time>
      </trkpt>
      <trkpt lat="48.66899" lon="-3.60975">
        <ele>28.5</ele>
        <time>2020-08-15T12:46:06Z</time>
      </trkpt>
      <trkpt lat="48.66897" lon="-3.61023">
        <ele>29.6</ele>
        <time>2020-08-15T12:46:17Z</time>
      </trkpt>
      <trkpt lat="48.66894" lon="-3.61061">
        <ele>30.7</ele>
        <time>2020-08-15T12:46:26Z</time>
      </trkpt>
      <trkpt lat="48.66892" lon="-3.61094">
        <ele>32.1</ele>
        <time>2020-08-15T12:46:34Z</time>
      </trkpt>
      <trkpt lat="48.66889" lon="-3.61125">
        <ele>33.5</ele>
        <time>2020-08-15T12:46:42Z</time>
      </trkpt>
      <trkpt lat="48.66888" lon="-3.6115">
        <ele>33.8</ele>
        <time>2020-08-15T12:46:47Z</time>
      </trkpt>
      <trkpt lat="48.66888" lon="-3.6119">
        <ele>35.6</ele>
        <time>2020-08-15T12:46:55Z</time>
      </trkpt>
      <trkpt lat="48.66894" lon="-3.61216">
        <ele>35.8</ele>
        <time>2020-08-15T12:47:01Z</time>
      </trkpt>
      <trkpt lat="48.66893" lon="-3.61242">
        <ele>35.8</ele>
        <time>2020-08-15T12:47:07Z</time>
      </trkpt>
      <trkpt lat="48.66897" lon="-3.61263">
        <ele>37.1</ele>
        <time>2020-08-15T12:47:13Z</time>
      </trkpt>
      <trkpt lat="48.66902" lon="-3.61294">
        <ele>38</ele>
        <time>2020-08-15T12:47:21Z</time>
      </trkpt>
      <trkpt lat="48.66907" lon="-3.61325">
        <ele>37.8</ele>
        <time>2020-08-15T12:47:29Z</time>
      </trkpt>
      <trkpt lat="48.6691" lon="-3.6135">
        <ele>38.9</ele>
        <time>2020-08-15T12:47:35Z</time>
      </trkpt>
      <trkpt lat="48.66913" lon="-3.61377">
        <ele>39.6</ele>
        <time>2020-08-15T12:47:42Z</time>
      </trkpt>
      <trkpt lat="48.66914" lon="-3.61397">
        <ele>39.3</ele>
        <time>2020-08-15T12:47:48Z</time>
      </trkpt>
      <trkpt lat="48.66915" lon="-3.61425">
        <ele>39</ele>
        <time>2020-08-15T12:47:55Z</time>
      </trkpt>
      <trkpt lat="48.66914" lon="-3.61462">
        <ele>40.4</ele>
        <time>2020-08-15T12:48:05Z</time>
      </trkpt>
      <trkpt lat="48.66911" lon="-3.61495">
        <ele>39.7</ele>
        <time>2020-08-15T12:48:13Z</time>
      </trkpt>
      <trkpt lat="48.66909" lon="-3.61521">
        <ele>41.5</ele>
        <time>2020-08-15T12:48:20Z</time>
      </trkpt>
      <trkpt lat="48.66904" lon="-3.61548">
        <ele>42.7</ele>
        <time>2020-08-15T12:48:28Z</time>
      </trkpt>
      <trkpt lat="48.66899" lon="-3.61566">
        <ele>43.1</ele>
        <time>2020-08-15T12:48:34Z</time>
      </trkpt>
      <trkpt lat="48.66894" lon="-3.61585">
        <ele>44.4</ele>
        <time>2020-08-15T12:48:39Z</time>
      </trkpt>
      <trkpt lat="48.66886" lon="-3.61617">
        <ele>45</ele>
        <time>2020-08-15T12:48:48Z</time>
      </trkpt>
      <trkpt lat="48.66878" lon="-3.61645">
        <ele>45.4</ele>
        <time>2020-08-15T12:48:56Z</time>
      </trkpt>
      <trkpt lat="48.66874" lon="-3.6166">
        <ele>45.5</ele>
        <time>2020-08-15T12:49:01Z</time>
      </trkpt>
      <trkpt lat="48.66868" lon="-3.61669">
        <ele>45.2</ele>
        <time>2020-08-15T12:49:05Z</time>
      </trkpt>
      <trkpt lat="48.66868" lon="-3.61669">
        <ele>45.2</ele>
        <time>2020-08-15T12:49:06Z</time>
      </trkpt>
      <trkpt lat="48.66873" lon="-3.61678">
        <ele>45.1</ele>
        <time>2020-08-15T12:49:50Z</time>
      </trkpt>
      <trkpt lat="48.6689" lon="-3.61692">
        <ele>45</ele>
        <time>2020-08-15T12:49:57Z</time>
      </trkpt>
      <trkpt lat="48.66902" lon="-3.61695">
        <ele>45</ele>
        <time>2020-08-15T12:50:03Z</time>
      </trkpt>
      <trkpt lat="48.66922" lon="-3.61699">
        <ele>44.4</ele>
        <time>2020-08-15T12:50:11Z</time>
      </trkpt>
      <trkpt lat="48.66943" lon="-3.61705">
        <ele>44.1</ele>
        <time>2020-08-15T12:50:19Z</time>
      </trkpt>
      <trkpt lat="48.66962" lon="-3.61709">
        <ele>44</ele>
        <time>2020-08-15T12:50:25Z</time>
      </trkpt>
      <trkpt lat="48.66984" lon="-3.61713">
        <ele>43.8</ele>
        <time>2020-08-15T12:50:32Z</time>
      </trkpt>
      <trkpt lat="48.67022" lon="-3.6172">
        <ele>43.6</ele>
        <time>2020-08-15T12:50:42Z</time>
      </trkpt>
      <trkpt lat="48.67054" lon="-3.61728">
        <ele>43.8</ele>
        <time>2020-08-15T12:50:51Z</time>
      </trkpt>
      <trkpt lat="48.67089" lon="-3.61736">
        <ele>44.3</ele>
        <time>2020-08-15T12:51:01Z</time>
      </trkpt>
      <trkpt lat="48.67115" lon="-3.61739">
        <ele>44.6</ele>
        <time>2020-08-15T12:51:09Z</time>
      </trkpt>
      <trkpt lat="48.67139" lon="-3.61739">
        <ele>44.8</ele>
        <time>2020-08-15T12:51:17Z</time>
      </trkpt>
      <trkpt lat="48.67161" lon="-3.61734">
        <ele>44.9</ele>
        <time>2020-08-15T12:51:25Z</time>
      </trkpt>
      <trkpt lat="48.67185" lon="-3.61728">
        <ele>44.7</ele>
        <time>2020-08-15T12:51:33Z</time>
      </trkpt>
      <trkpt lat="48.6721" lon="-3.61722">
        <ele>44.4</ele>
        <time>2020-08-15T12:51:39Z</time>
      </trkpt>
      <trkpt lat="48.67259" lon="-3.61712">
        <ele>43</ele>
        <time>2020-08-15T12:51:49Z</time>
      </trkpt>
      <trkpt lat="48.67298" lon="-3.61711">
        <ele>42.7</ele>
        <time>2020-08-15T12:51:57Z</time>
      </trkpt>
      <trkpt lat="48.67338" lon="-3.6172">
        <ele>42.5</ele>
        <time>2020-08-15T12:52:05Z</time>
      </trkpt>
      <trkpt lat="48.67377" lon="-3.61735">
        <ele>42.9</ele>
        <time>2020-08-15T12:52:14Z</time>
      </trkpt>
      <trkpt lat="48.67411" lon="-3.61761">
        <ele>43.5</ele>
        <time>2020-08-15T12:52:23Z</time>
      </trkpt>
      <trkpt lat="48.67444" lon="-3.61788">
        <ele>44.6</ele>
        <time>2020-08-15T12:52:32Z</time>
      </trkpt>
      <trkpt lat="48.67472" lon="-3.61803">
        <ele>44.8</ele>
        <time>2020-08-15T12:52:40Z</time>
      </trkpt>
      <trkpt lat="48.67497" lon="-3.61821">
        <ele>44.9</ele>
        <time>2020-08-15T12:52:47Z</time>
      </trkpt>
      <trkpt lat="48.67505" lon="-3.61827">
        <ele>45</ele>
        <time>2020-08-15T12:52:49Z</time>
      </trkpt>
      <trkpt lat="48.67512" lon="-3.61833">
        <ele>45</ele>
        <time>2020-08-15T12:52:51Z</time>
      </trkpt>
      <trkpt lat="48.6752" lon="-3.6184">
        <ele>44.7</ele>
        <time>2020-08-15T12:52:53Z</time>
      </trkpt>
      <trkpt lat="48.67572" lon="-3.61884">
        <ele>44.3</ele>
        <time>2020-08-15T12:53:06Z</time>
      </trkpt>
      <trkpt lat="48.67598" lon="-3.61906">
        <ele>44.4</ele>
        <time>2020-08-15T12:53:13Z</time>
      </trkpt>
      <trkpt lat="48.67632" lon="-3.61933">
        <ele>45.5</ele>
        <time>2020-08-15T12:53:23Z</time>
      </trkpt>
      <trkpt lat="48.67655" lon="-3.61952">
        <ele>45.8</ele>
        <time>2020-08-15T12:53:31Z</time>
      </trkpt>
      <trkpt lat="48.67672" lon="-3.61974">
        <ele>47.5</ele>
        <time>2020-08-15T12:53:39Z</time>
      </trkpt>
      <trkpt lat="48.67689" lon="-3.62007">
        <ele>48.6</ele>
        <time>2020-08-15T12:53:48Z</time>
      </trkpt>
      <trkpt lat="48.67711" lon="-3.62026">
        <ele>49.5</ele>
        <time>2020-08-15T12:53:56Z</time>
      </trkpt>
      <trkpt lat="48.67735" lon="-3.62039">
        <ele>50.1</ele>
        <time>2020-08-15T12:54:06Z</time>
      </trkpt>
      <trkpt lat="48.67751" lon="-3.62044">
        <ele>52.5</ele>
        <time>2020-08-15T12:54:14Z</time>
      </trkpt>
      <trkpt lat="48.67764" lon="-3.62047">
        <ele>52.6</ele>
        <time>2020-08-15T12:54:21Z</time>
      </trkpt>
      <trkpt lat="48.67781" lon="-3.62045">
        <ele>52.8</ele>
        <time>2020-08-15T12:54:30Z</time>
      </trkpt>
      <trkpt lat="48.67794" lon="-3.62039">
        <ele>53</ele>
        <time>2020-08-15T12:54:37Z</time>
      </trkpt>
      <trkpt lat="48.67808" lon="-3.62027">
        <ele>53.2</ele>
        <time>2020-08-15T12:54:45Z</time>
      </trkpt>
      <trkpt lat="48.67823" lon="-3.62015">
        <ele>53.5</ele>
        <time>2020-08-15T12:54:53Z</time>
      </trkpt>
      <trkpt lat="48.67841" lon="-3.62008">
        <ele>54.9</ele>
        <time>2020-08-15T12:55:01Z</time>
      </trkpt>
      <trkpt lat="48.67852" lon="-3.62005">
        <ele>55.4</ele>
        <time>2020-08-15T12:55:05Z</time>
      </trkpt>
      <trkpt lat="48.67869" lon="-3.61999">
        <ele>54.3</ele>
        <time>2020-08-15T12:55:12Z</time>
      </trkpt>
      <trkpt lat="48.67883" lon="-3.61996">
        <ele>54.6</ele>
        <time>2020-08-15T12:55:18Z</time>
      </trkpt>
      <trkpt lat="48.67904" lon="-3.61992">
        <ele>55.5</ele>
        <time>2020-08-15T12:55:26Z</time>
      </trkpt>
      <trkpt lat="48.6793" lon="-3.61987">
        <ele>57.6</ele>
        <time>2020-08-15T12:55:36Z</time>
      </trkpt>
      <trkpt lat="48.67954" lon="-3.61978">
        <ele>58.4</ele>
        <time>2020-08-15T12:55:45Z</time>
      </trkpt>
      <trkpt lat="48.67974" lon="-3.61966">
        <ele>58.8</ele>
        <time>2020-08-15T12:55:55Z</time>
      </trkpt>
      <trkpt lat="48.67989" lon="-3.61957">
        <ele>58.9</ele>
        <time>2020-08-15T12:56:03Z</time>
      </trkpt>
      <trkpt lat="48.68006" lon="-3.61947">
        <ele>60.9</ele>
        <time>2020-08-15T12:56:12Z</time>
      </trkpt>
      <trkpt lat="48.68028" lon="-3.61933">
        <ele>60.9</ele>
        <time>2020-08-15T12:56:23Z</time>
      </trkpt>
      <trkpt lat="48.68047" lon="-3.61927">
        <ele>61.5</ele>
        <time>2020-08-15T12:56:32Z</time>
      </trkpt>
      <trkpt lat="48.68057" lon="-3.61927">
        <ele>61.8</ele>
        <time>2020-08-15T12:56:38Z</time>
      </trkpt>
      <trkpt lat="48.68073" lon="-3.61937">
        <ele>62.1</ele>
        <time>2020-08-15T12:56:45Z</time>
      </trkpt>
      <trkpt lat="48.68078" lon="-3.61944">
        <ele>62.1</ele>
        <time>2020-08-15T12:56:50Z</time>
      </trkpt>
      <trkpt lat="48.68078" lon="-3.61944">
        <ele>62.1</ele>
        <time>2020-08-15T12:56:52Z</time>
      </trkpt>
      <trkpt lat="48.68087" lon="-3.61957">
        <ele>60.3</ele>
        <time>2020-08-15T12:58:09Z</time>
      </trkpt>
      <trkpt lat="48.68096" lon="-3.61989">
        <ele>60.5</ele>
        <time>2020-08-15T12:58:16Z</time>
      </trkpt>
      <trkpt lat="48.68099" lon="-3.62009">
        <ele>59.7</ele>
        <time>2020-08-15T12:58:19Z</time>
      </trkpt>
      <trkpt lat="48.681" lon="-3.62024">
        <ele>58.9</ele>
        <time>2020-08-15T12:58:21Z</time>
      </trkpt>
      <trkpt lat="48.68103" lon="-3.62064">
        <ele>58.3</ele>
        <time>2020-08-15T12:58:26Z</time>
      </trkpt>
      <trkpt lat="48.681" lon="-3.62131">
        <ele>56.8</ele>
        <time>2020-08-15T12:58:34Z</time>
      </trkpt>
      <trkpt lat="48.681" lon="-3.62151">
        <ele>56.8</ele>
        <time>2020-08-15T12:58:36Z</time>
      </trkpt>
      <trkpt lat="48.68112" lon="-3.6224">
        <ele>56.1</ele>
        <time>2020-08-15T12:58:45Z</time>
      </trkpt>
      <trkpt lat="48.68121" lon="-3.62285">
        <ele>55.6</ele>
        <time>2020-08-15T12:58:51Z</time>
      </trkpt>
      <trkpt lat="48.68126" lon="-3.62316">
        <ele>55.5</ele>
        <time>2020-08-15T12:58:57Z</time>
      </trkpt>
      <trkpt lat="48.68131" lon="-3.62366">
        <ele>55.1</ele>
        <time>2020-08-15T12:59:06Z</time>
      </trkpt>
      <trkpt lat="48.68128" lon="-3.62412">
        <ele>55.1</ele>
        <time>2020-08-15T12:59:13Z</time>
      </trkpt>
      <trkpt lat="48.68121" lon="-3.6247">
        <ele>52.8</ele>
        <time>2020-08-15T12:59:21Z</time>
      </trkpt>
      <trkpt lat="48.68115" lon="-3.62528">
        <ele>49.5</ele>
        <time>2020-08-15T12:59:27Z</time>
      </trkpt>
      <trkpt lat="48.68107" lon="-3.62601">
        <ele>46.1</ele>
        <time>2020-08-15T12:59:33Z</time>
      </trkpt>
      <trkpt lat="48.68095" lon="-3.627">
        <ele>42.5</ele>
        <time>2020-08-15T12:59:40Z</time>
      </trkpt>
      <trkpt lat="48.68084" lon="-3.62798">
        <ele>40.6</ele>
        <time>2020-08-15T12:59:47Z</time>
      </trkpt>
      <trkpt lat="48.68077" lon="-3.6285">
        <ele>42.3</ele>
        <time>2020-08-15T12:59:51Z</time>
      </trkpt>
      <trkpt lat="48.68059" lon="-3.6291">
        <ele>42.6</ele>
        <time>2020-08-15T12:59:56Z</time>
      </trkpt>
      <trkpt lat="48.68053" lon="-3.62971">
        <ele>43.2</ele>
        <time>2020-08-15T13:00:01Z</time>
      </trkpt>
      <trkpt lat="48.68052" lon="-3.63032">
        <ele>43</ele>
        <time>2020-08-15T13:00:07Z</time>
      </trkpt>
      <trkpt lat="48.6805" lon="-3.63099">
        <ele>41.5</ele>
        <time>2020-08-15T13:00:15Z</time>
      </trkpt>
      <trkpt lat="48.68048" lon="-3.63161">
        <ele>40.7</ele>
        <time>2020-08-15T13:00:23Z</time>
      </trkpt>
      <trkpt lat="48.68046" lon="-3.63222">
        <ele>38.4</ele>
        <time>2020-08-15T13:00:30Z</time>
      </trkpt>
      <trkpt lat="48.68046" lon="-3.63272">
        <ele>36.2</ele>
        <time>2020-08-15T13:00:35Z</time>
      </trkpt>
      <trkpt lat="48.68055" lon="-3.63348">
        <ele>33.5</ele>
        <time>2020-08-15T13:00:42Z</time>
      </trkpt>
      <trkpt lat="48.68066" lon="-3.63428">
        <ele>31.8</ele>
        <time>2020-08-15T13:00:50Z</time>
      </trkpt>
      <trkpt lat="48.68071" lon="-3.63483">
        <ele>30.4</ele>
        <time>2020-08-15T13:00:56Z</time>
      </trkpt>
      <trkpt lat="48.68071" lon="-3.6349">
        <ele>30.2</ele>
        <time>2020-08-15T13:00:57Z</time>
      </trkpt>
      <trkpt lat="48.68065" lon="-3.63534">
        <ele>28.1</ele>
        <time>2020-08-15T13:01:02Z</time>
      </trkpt>
      <trkpt lat="48.68063" lon="-3.63542">
        <ele>27.9</ele>
        <time>2020-08-15T13:01:03Z</time>
      </trkpt>
      <trkpt lat="48.68057" lon="-3.63559">
        <ele>27.6</ele>
        <time>2020-08-15T13:01:05Z</time>
      </trkpt>
      <trkpt lat="48.6803" lon="-3.63602">
        <ele>24.7</ele>
        <time>2020-08-15T13:01:10Z</time>
      </trkpt>
      <trkpt lat="48.68015" lon="-3.63614">
        <ele>24.7</ele>
        <time>2020-08-15T13:01:12Z</time>
      </trkpt>
      <trkpt lat="48.67947" lon="-3.63637">
        <ele>24.8</ele>
        <time>2020-08-15T13:01:21Z</time>
      </trkpt>
      <trkpt lat="48.67867" lon="-3.63658">
        <ele>26.3</ele>
        <time>2020-08-15T13:01:31Z</time>
      </trkpt>
      <trkpt lat="48.67859" lon="-3.63661">
        <ele>26.3</ele>
        <time>2020-08-15T13:01:32Z</time>
      </trkpt>
      <trkpt lat="48.67806" lon="-3.63676">
        <ele>21</ele>
        <time>2020-08-15T13:01:39Z</time>
      </trkpt>
      <trkpt lat="48.6776" lon="-3.63689">
        <ele>22.2</ele>
        <time>2020-08-15T13:01:46Z</time>
      </trkpt>
      <trkpt lat="48.67718" lon="-3.637">
        <ele>18.5</ele>
        <time>2020-08-15T13:01:53Z</time>
      </trkpt>
      <trkpt lat="48.67681" lon="-3.63697">
        <ele>17.5</ele>
        <time>2020-08-15T13:02:00Z</time>
      </trkpt>
      <trkpt lat="48.67631" lon="-3.63683">
        <ele>15.5</ele>
        <time>2020-08-15T13:02:10Z</time>
      </trkpt>
      <trkpt lat="48.67622" lon="-3.6368">
        <ele>15.2</ele>
        <time>2020-08-15T13:02:12Z</time>
      </trkpt>
      <trkpt lat="48.67583" lon="-3.63667">
        <ele>14</ele>
        <time>2020-08-15T13:02:21Z</time>
      </trkpt>
      <trkpt lat="48.67557" lon="-3.63649">
        <ele>16</ele>
        <time>2020-08-15T13:02:27Z</time>
      </trkpt>
      <trkpt lat="48.67513" lon="-3.6361">
        <ele>17</ele>
        <time>2020-08-15T13:02:36Z</time>
      </trkpt>
      <trkpt lat="48.67481" lon="-3.63583">
        <ele>18.9</ele>
        <time>2020-08-15T13:02:44Z</time>
      </trkpt>
      <trkpt lat="48.67443" lon="-3.63551">
        <ele>19.6</ele>
        <time>2020-08-15T13:02:54Z</time>
      </trkpt>
      <trkpt lat="48.6742" lon="-3.63531">
        <ele>20.3</ele>
        <time>2020-08-15T13:03:01Z</time>
      </trkpt>
      <trkpt lat="48.67394" lon="-3.63509">
        <ele>19.2</ele>
        <time>2020-08-15T13:03:10Z</time>
      </trkpt>
      <trkpt lat="48.67376" lon="-3.63495">
        <ele>21</ele>
        <time>2020-08-15T13:03:16Z</time>
      </trkpt>
      <trkpt lat="48.67346" lon="-3.63485">
        <ele>19.9</ele>
        <time>2020-08-15T13:03:23Z</time>
      </trkpt>
      <trkpt lat="48.67309" lon="-3.63474">
        <ele>17.6</ele>
        <time>2020-08-15T13:03:29Z</time>
      </trkpt>
      <trkpt lat="48.67255" lon="-3.63456">
        <ele>17</ele>
        <time>2020-08-15T13:03:36Z</time>
      </trkpt>
      <trkpt lat="48.67237" lon="-3.63452">
        <ele>13.8</ele>
        <time>2020-08-15T13:03:38Z</time>
      </trkpt>
      <trkpt lat="48.67199" lon="-3.63452">
        <ele>12.3</ele>
        <time>2020-08-15T13:03:42Z</time>
      </trkpt>
      <trkpt lat="48.67189" lon="-3.63454">
        <ele>11.8</ele>
        <time>2020-08-15T13:03:43Z</time>
      </trkpt>
      <trkpt lat="48.67148" lon="-3.6346">
        <ele>9.5</ele>
        <time>2020-08-15T13:03:47Z</time>
      </trkpt>
      <trkpt lat="48.67107" lon="-3.63472">
        <ele>9.8</ele>
        <time>2020-08-15T13:03:51Z</time>
      </trkpt>
      <trkpt lat="48.67098" lon="-3.6348">
        <ele>9.8</ele>
        <time>2020-08-15T13:03:52Z</time>
      </trkpt>
      <trkpt lat="48.67085" lon="-3.63518">
        <ele>8.4</ele>
        <time>2020-08-15T13:03:55Z</time>
      </trkpt>
      <trkpt lat="48.67071" lon="-3.63607">
        <ele>10.2</ele>
        <time>2020-08-15T13:04:03Z</time>
      </trkpt>
      <trkpt lat="48.67067" lon="-3.63637">
        <ele>10.1</ele>
        <time>2020-08-15T13:04:06Z</time>
      </trkpt>
      <trkpt lat="48.67046" lon="-3.63712">
        <ele>7.5</ele>
        <time>2020-08-15T13:04:15Z</time>
      </trkpt>
      <trkpt lat="48.67024" lon="-3.6379">
        <ele>6.5</ele>
        <time>2020-08-15T13:04:25Z</time>
      </trkpt>
      <trkpt lat="48.67016" lon="-3.63819">
        <ele>6.7</ele>
        <time>2020-08-15T13:04:29Z</time>
      </trkpt>
      <trkpt lat="48.67012" lon="-3.63838">
        <ele>6.4</ele>
        <time>2020-08-15T13:04:32Z</time>
      </trkpt>
      <trkpt lat="48.67004" lon="-3.63871">
        <ele>5.2</ele>
        <time>2020-08-15T13:04:38Z</time>
      </trkpt>
      <trkpt lat="48.66999" lon="-3.63893">
        <ele>5.8</ele>
        <time>2020-08-15T13:04:43Z</time>
      </trkpt>
      <trkpt lat="48.66995" lon="-3.63911">
        <ele>4.3</ele>
        <time>2020-08-15T13:04:49Z</time>
      </trkpt>
      <trkpt lat="48.66993" lon="-3.63923">
        <ele>3.9</ele>
        <time>2020-08-15T13:04:56Z</time>
      </trkpt>
      <trkpt lat="48.66993" lon="-3.63923">
        <ele>3.9</ele>
        <time>2020-08-15T13:09:05Z</time>
      </trkpt>
      <trkpt lat="48.6699" lon="-3.63937">
        <ele>4.5</ele>
        <time>2020-08-15T13:09:13Z</time>
      </trkpt>
      <trkpt lat="48.66983" lon="-3.63976">
        <ele>4.3</ele>
        <time>2020-08-15T13:09:23Z</time>
      </trkpt>
      <trkpt lat="48.66975" lon="-3.64023">
        <ele>4.9</ele>
        <time>2020-08-15T13:09:33Z</time>
      </trkpt>
      <trkpt lat="48.66968" lon="-3.64073">
        <ele>6.7</ele>
        <time>2020-08-15T13:09:42Z</time>
      </trkpt>
      <trkpt lat="48.66963" lon="-3.64136">
        <ele>7</ele>
        <time>2020-08-15T13:09:53Z</time>
      </trkpt>
      <trkpt lat="48.6696" lon="-3.64196">
        <ele>6</ele>
        <time>2020-08-15T13:10:03Z</time>
      </trkpt>
      <trkpt lat="48.6696" lon="-3.64253">
        <ele>5.2</ele>
        <time>2020-08-15T13:10:12Z</time>
      </trkpt>
      <trkpt lat="48.6697" lon="-3.64306">
        <ele>4.8</ele>
        <time>2020-08-15T13:10:20Z</time>
      </trkpt>
      <trkpt lat="48.66992" lon="-3.64349">
        <ele>3.9</ele>
        <time>2020-08-15T13:10:28Z</time>
      </trkpt>
      <trkpt lat="48.67016" lon="-3.6438">
        <ele>3</ele>
        <time>2020-08-15T13:10:36Z</time>
      </trkpt>
      <trkpt lat="48.67054" lon="-3.64407">
        <ele>3</ele>
        <time>2020-08-15T13:10:47Z</time>
      </trkpt>
      <trkpt lat="48.67102" lon="-3.64442">
        <ele>5.7</ele>
        <time>2020-08-15T13:11:01Z</time>
      </trkpt>
      <trkpt lat="48.6713" lon="-3.64463">
        <ele>6.2</ele>
        <time>2020-08-15T13:11:10Z</time>
      </trkpt>
      <trkpt lat="48.67164" lon="-3.64487">
        <ele>8</ele>
        <time>2020-08-15T13:11:21Z</time>
      </trkpt>
      <trkpt lat="48.67181" lon="-3.64497">
        <ele>10.4</ele>
        <time>2020-08-15T13:11:28Z</time>
      </trkpt>
      <trkpt lat="48.67185" lon="-3.64498">
        <ele>10.7</ele>
        <time>2020-08-15T13:11:33Z</time>
      </trkpt>
      <trkpt lat="48.67195" lon="-3.645">
        <ele>14.2</ele>
        <time>2020-08-15T13:12:29Z</time>
      </trkpt>
      <trkpt lat="48.67208" lon="-3.64502">
        <ele>15.6</ele>
        <time>2020-08-15T13:12:36Z</time>
      </trkpt>
      <trkpt lat="48.6721" lon="-3.64502">
        <ele>15.8</ele>
        <time>2020-08-15T13:12:37Z</time>
      </trkpt>
      <trkpt lat="48.67212" lon="-3.64489">
        <ele>13</ele>
        <time>2020-08-15T13:12:41Z</time>
      </trkpt>
      <trkpt lat="48.67211" lon="-3.64459">
        <ele>12</ele>
        <time>2020-08-15T13:12:47Z</time>
      </trkpt>
      <trkpt lat="48.67211" lon="-3.64436">
        <ele>11.3</ele>
        <time>2020-08-15T13:12:50Z</time>
      </trkpt>
      <trkpt lat="48.67211" lon="-3.6442">
        <ele>11</ele>
        <time>2020-08-15T13:12:52Z</time>
      </trkpt>
      <trkpt lat="48.67212" lon="-3.64404">
        <ele>7.8</ele>
        <time>2020-08-15T13:12:54Z</time>
      </trkpt>
      <trkpt lat="48.67219" lon="-3.64327">
        <ele>5.5</ele>
        <time>2020-08-15T13:13:03Z</time>
      </trkpt>
      <trkpt lat="48.67221" lon="-3.64308">
        <ele>5.5</ele>
        <time>2020-08-15T13:13:06Z</time>
      </trkpt>
      <trkpt lat="48.67223" lon="-3.64294">
        <ele>5.4</ele>
        <time>2020-08-15T13:13:11Z</time>
      </trkpt>
      <trkpt lat="48.67224" lon="-3.64289">
        <ele>5.4</ele>
        <time>2020-08-15T13:13:12Z</time>
      </trkpt>
      <trkpt lat="48.67233" lon="-3.6425">
        <ele>5.7</ele>
        <time>2020-08-15T13:13:19Z</time>
      </trkpt>
      <trkpt lat="48.67242" lon="-3.64209">
        <ele>6</ele>
        <time>2020-08-15T13:13:26Z</time>
      </trkpt>
      <trkpt lat="48.67247" lon="-3.64174">
        <ele>6</ele>
        <time>2020-08-15T13:13:34Z</time>
      </trkpt>
      <trkpt lat="48.67253" lon="-3.64142">
        <ele>6.1</ele>
        <time>2020-08-15T13:13:42Z</time>
      </trkpt>
      <trkpt lat="48.67264" lon="-3.64119">
        <ele>5.7</ele>
        <time>2020-08-15T13:13:49Z</time>
      </trkpt>
      <trkpt lat="48.67278" lon="-3.641">
        <ele>5.6</ele>
        <time>2020-08-15T13:13:56Z</time>
      </trkpt>
      <trkpt lat="48.67284" lon="-3.64097">
        <ele>5.8</ele>
        <time>2020-08-15T13:14:01Z</time>
      </trkpt>
      <trkpt lat="48.67292" lon="-3.64095">
        <ele>6</ele>
        <time>2020-08-15T13:14:06Z</time>
      </trkpt>
      <trkpt lat="48.67304" lon="-3.64095">
        <ele>6.4</ele>
        <time>2020-08-15T13:14:15Z</time>
      </trkpt>
      <trkpt lat="48.67318" lon="-3.64034">
        <ele>5.4</ele>
        <time>2020-08-15T13:14:20Z</time>
      </trkpt>
      <trkpt lat="48.67317" lon="-3.64013">
        <ele>5.7</ele>
        <time>2020-08-15T13:14:26Z</time>
      </trkpt>
      <trkpt lat="48.67317" lon="-3.63986">
        <ele>5.8</ele>
        <time>2020-08-15T13:14:33Z</time>
      </trkpt>
      <trkpt lat="48.67324" lon="-3.63958">
        <ele>5.3</ele>
        <time>2020-08-15T13:14:40Z</time>
      </trkpt>
      <trkpt lat="48.67338" lon="-3.63942">
        <ele>7.4</ele>
        <time>2020-08-15T13:14:46Z</time>
      </trkpt>
      <trkpt lat="48.67355" lon="-3.63932">
        <ele>7.4</ele>
        <time>2020-08-15T13:14:53Z</time>
      </trkpt>
      <trkpt lat="48.67369" lon="-3.63931">
        <ele>7.5</ele>
        <time>2020-08-15T13:14:59Z</time>
      </trkpt>
      <trkpt lat="48.67381" lon="-3.63939">
        <ele>7.5</ele>
        <time>2020-08-15T13:15:05Z</time>
      </trkpt>
      <trkpt lat="48.67392" lon="-3.6394">
        <ele>7.6</ele>
        <time>2020-08-15T13:15:12Z</time>
      </trkpt>
      <trkpt lat="48.6741" lon="-3.63996">
        <ele>7.9</ele>
        <time>2020-08-15T13:15:22Z</time>
      </trkpt>
      <trkpt lat="48.67425" lon="-3.64077">
        <ele>9.8</ele>
        <time>2020-08-15T13:15:30Z</time>
      </trkpt>
      <trkpt lat="48.6743" lon="-3.64076">
        <ele>9.5</ele>
        <time>2020-08-15T13:15:35Z</time>
      </trkpt>
      <trkpt lat="48.67437" lon="-3.64076">
        <ele>9</ele>
        <time>2020-08-15T13:15:39Z</time>
      </trkpt>
      <trkpt lat="48.67459" lon="-3.64087">
        <ele>10.8</ele>
        <time>2020-08-15T13:15:46Z</time>
      </trkpt>
      <trkpt lat="48.67469" lon="-3.64108">
        <ele>10.9</ele>
        <time>2020-08-15T13:15:52Z</time>
      </trkpt>
      <trkpt lat="48.67485" lon="-3.64146">
        <ele>11.9</ele>
        <time>2020-08-15T13:16:02Z</time>
      </trkpt>
      <trkpt lat="48.67497" lon="-3.64181">
        <ele>13.8</ele>
        <time>2020-08-15T13:16:11Z</time>
      </trkpt>
      <trkpt lat="48.67519" lon="-3.64213">
        <ele>14.1</ele>
        <time>2020-08-15T13:16:20Z</time>
      </trkpt>
      <trkpt lat="48.67525" lon="-3.64232">
        <ele>14.4</ele>
        <time>2020-08-15T13:16:27Z</time>
      </trkpt>
      <trkpt lat="48.6753" lon="-3.64238">
        <ele>14.4</ele>
        <time>2020-08-15T13:16:32Z</time>
      </trkpt>
      <trkpt lat="48.67539" lon="-3.64242">
        <ele>14.4</ele>
        <time>2020-08-15T13:16:39Z</time>
      </trkpt>
      <trkpt lat="48.67541" lon="-3.64243">
        <ele>14.4</ele>
        <time>2020-08-15T13:16:40Z</time>
      </trkpt>
      <trkpt lat="48.6756" lon="-3.64253">
        <ele>16.3</ele>
        <time>2020-08-15T13:16:46Z</time>
      </trkpt>
      <trkpt lat="48.67579" lon="-3.64266">
        <ele>16.3</ele>
        <time>2020-08-15T13:16:52Z</time>
      </trkpt>
      <trkpt lat="48.6759" lon="-3.64279">
        <ele>15</ele>
        <time>2020-08-15T13:16:59Z</time>
      </trkpt>
      <trkpt lat="48.6759" lon="-3.64279">
        <ele>15</ele>
        <time>2020-08-15T13:17:05Z</time>
      </trkpt>
      <trkpt lat="48.67595" lon="-3.64294">
        <ele>15</ele>
        <time>2020-08-15T13:20:33Z</time>
      </trkpt>
      <trkpt lat="48.67595" lon="-3.6431">
        <ele>15</ele>
        <time>2020-08-15T13:20:38Z</time>
      </trkpt>
      <trkpt lat="48.67595" lon="-3.64351">
        <ele>15.2</ele>
        <time>2020-08-15T13:20:48Z</time>
      </trkpt>
      <trkpt lat="48.67601" lon="-3.64387">
        <ele>15.6</ele>
        <time>2020-08-15T13:20:56Z</time>
      </trkpt>
      <trkpt lat="48.67617" lon="-3.64432">
        <ele>16.3</ele>
        <time>2020-08-15T13:21:05Z</time>
      </trkpt>
      <trkpt lat="48.67634" lon="-3.64464">
        <ele>16.5</ele>
        <time>2020-08-15T13:21:12Z</time>
      </trkpt>
      <trkpt lat="48.67652" lon="-3.64491">
        <ele>16.6</ele>
        <time>2020-08-15T13:21:19Z</time>
      </trkpt>
      <trkpt lat="48.6767" lon="-3.64516">
        <ele>9.3</ele>
        <time>2020-08-15T13:21:26Z</time>
      </trkpt>
      <trkpt lat="48.67687" lon="-3.64545">
        <ele>9.4</ele>
        <time>2020-08-15T13:21:33Z</time>
      </trkpt>
      <trkpt lat="48.67706" lon="-3.6457">
        <ele>8.7</ele>
        <time>2020-08-15T13:21:40Z</time>
      </trkpt>
      <trkpt lat="48.67729" lon="-3.64598">
        <ele>8.2</ele>
        <time>2020-08-15T13:21:49Z</time>
      </trkpt>
      <trkpt lat="48.67748" lon="-3.64617">
        <ele>8.4</ele>
        <time>2020-08-15T13:21:57Z</time>
      </trkpt>
      <trkpt lat="48.67756" lon="-3.64633">
        <ele>7.4</ele>
        <time>2020-08-15T13:22:03Z</time>
      </trkpt>
      <trkpt lat="48.67756" lon="-3.64633">
        <ele>7.4</ele>
        <time>2020-08-15T13:22:04Z</time>
      </trkpt>
      <trkpt lat="48.67756" lon="-3.64642">
        <ele>7.8</ele>
        <time>2020-08-15T13:22:09Z</time>
      </trkpt>
      <trkpt lat="48.67746" lon="-3.64648">
        <ele>9.2</ele>
        <time>2020-08-15T13:22:16Z</time>
      </trkpt>
      <trkpt lat="48.67723" lon="-3.64647">
        <ele>9.6</ele>
        <time>2020-08-15T13:22:27Z</time>
      </trkpt>
      <trkpt lat="48.67719" lon="-3.64647">
        <ele>9.7</ele>
        <time>2020-08-15T13:22:29Z</time>
      </trkpt>
      <trkpt lat="48.67712" lon="-3.64647">
        <ele>9.9</ele>
        <time>2020-08-15T13:22:36Z</time>
      </trkpt>
      <trkpt lat="48.67711" lon="-3.64647">
        <ele>10</ele>
        <time>2020-08-15T13:22:37Z</time>
      </trkpt>
      <trkpt lat="48.67708" lon="-3.64674">
        <ele>12.3</ele>
        <time>2020-08-15T13:22:43Z</time>
      </trkpt>
      <trkpt lat="48.67714" lon="-3.64684">
        <ele>12.3</ele>
        <time>2020-08-15T13:22:49Z</time>
      </trkpt>
      <trkpt lat="48.67718" lon="-3.64689">
        <ele>12.2</ele>
        <time>2020-08-15T13:22:52Z</time>
      </trkpt>
      <trkpt lat="48.67728" lon="-3.64706">
        <ele>12.4</ele>
        <time>2020-08-15T13:23:00Z</time>
      </trkpt>
      <trkpt lat="48.67735" lon="-3.64723">
        <ele>12.6</ele>
        <time>2020-08-15T13:23:06Z</time>
      </trkpt>
      <trkpt lat="48.67745" lon="-3.64751">
        <ele>12.8</ele>
        <time>2020-08-15T13:23:15Z</time>
      </trkpt>
      <trkpt lat="48.67752" lon="-3.64775">
        <ele>12.1</ele>
        <time>2020-08-15T13:23:23Z</time>
      </trkpt>
      <trkpt lat="48.6776" lon="-3.64798">
        <ele>12.5</ele>
        <time>2020-08-15T13:23:31Z</time>
      </trkpt>
      <trkpt lat="48.67769" lon="-3.64822">
        <ele>13.1</ele>
        <time>2020-08-15T13:23:40Z</time>
      </trkpt>
      <trkpt lat="48.67776" lon="-3.64844">
        <ele>14.8</ele>
        <time>2020-08-15T13:23:48Z</time>
      </trkpt>
      <trkpt lat="48.67782" lon="-3.64862">
        <ele>14.9</ele>
        <time>2020-08-15T13:23:55Z</time>
      </trkpt>
      <trkpt lat="48.67787" lon="-3.64877">
        <ele>15.2</ele>
        <time>2020-08-15T13:24:01Z</time>
      </trkpt>
      <trkpt lat="48.67794" lon="-3.64896">
        <ele>15.4</ele>
        <time>2020-08-15T13:24:07Z</time>
      </trkpt>
      <trkpt lat="48.678" lon="-3.64917">
        <ele>17.7</ele>
        <time>2020-08-15T13:24:13Z</time>
      </trkpt>
      <trkpt lat="48.67811" lon="-3.64948">
        <ele>17.9</ele>
        <time>2020-08-15T13:24:22Z</time>
      </trkpt>
      <trkpt lat="48.67818" lon="-3.64968">
        <ele>18.1</ele>
        <time>2020-08-15T13:24:29Z</time>
      </trkpt>
      <trkpt lat="48.67823" lon="-3.64983">
        <ele>17.9</ele>
        <time>2020-08-15T13:24:35Z</time>
      </trkpt>
      <trkpt lat="48.67826" lon="-3.64998">
        <ele>17.5</ele>
        <time>2020-08-15T13:24:42Z</time>
      </trkpt>
      <trkpt lat="48.67824" lon="-3.65007">
        <ele>18.5</ele>
        <time>2020-08-15T13:24:48Z</time>
      </trkpt>
      <trkpt lat="48.67819" lon="-3.65019">
        <ele>19.4</ele>
        <time>2020-08-15T13:24:55Z</time>
      </trkpt>
      <trkpt lat="48.67813" lon="-3.65031">
        <ele>19.9</ele>
        <time>2020-08-15T13:25:02Z</time>
      </trkpt>
      <trkpt lat="48.678" lon="-3.65053">
        <ele>20.6</ele>
        <time>2020-08-15T13:25:09Z</time>
      </trkpt>
      <trkpt lat="48.67804" lon="-3.65063">
        <ele>20.3</ele>
        <time>2020-08-15T13:25:13Z</time>
      </trkpt>
      <trkpt lat="48.67818" lon="-3.65086">
        <ele>20.1</ele>
        <time>2020-08-15T13:25:21Z</time>
      </trkpt>
      <trkpt lat="48.67835" lon="-3.65116">
        <ele>17</ele>
        <time>2020-08-15T13:25:30Z</time>
      </trkpt>
      <trkpt lat="48.67856" lon="-3.65152">
        <ele>17.9</ele>
        <time>2020-08-15T13:25:41Z</time>
      </trkpt>
      <trkpt lat="48.67871" lon="-3.65176">
        <ele>20.3</ele>
        <time>2020-08-15T13:25:49Z</time>
      </trkpt>
      <trkpt lat="48.67889" lon="-3.65211">
        <ele>20.4</ele>
        <time>2020-08-15T13:25:59Z</time>
      </trkpt>
      <trkpt lat="48.67895" lon="-3.65222">
        <ele>20.4</ele>
        <time>2020-08-15T13:26:04Z</time>
      </trkpt>
      <trkpt lat="48.67895" lon="-3.65222">
        <ele>20.4</ele>
        <time>2020-08-15T13:26:05Z</time>
      </trkpt>
      <trkpt lat="48.67898" lon="-3.65228">
        <ele>20.3</ele>
        <time>2020-08-15T13:27:38Z</time>
      </trkpt>
      <trkpt lat="48.67912" lon="-3.65251">
        <ele>20.3</ele>
        <time>2020-08-15T13:27:46Z</time>
      </trkpt>
      <trkpt lat="48.6793" lon="-3.65282">
        <ele>17.3</ele>
        <time>2020-08-15T13:27:54Z</time>
      </trkpt>
      <trkpt lat="48.67949" lon="-3.65316">
        <ele>17.4</ele>
        <time>2020-08-15T13:28:02Z</time>
      </trkpt>
      <trkpt lat="48.67973" lon="-3.65358">
        <ele>19.7</ele>
        <time>2020-08-15T13:28:11Z</time>
      </trkpt>
      <trkpt lat="48.68004" lon="-3.65413">
        <ele>17.5</ele>
        <time>2020-08-15T13:28:22Z</time>
      </trkpt>
      <trkpt lat="48.68033" lon="-3.65461">
        <ele>15.6</ele>
        <time>2020-08-15T13:28:32Z</time>
      </trkpt>
      <trkpt lat="48.68054" lon="-3.65501">
        <ele>16.9</ele>
        <time>2020-08-15T13:28:39Z</time>
      </trkpt>
      <trkpt lat="48.6808" lon="-3.65544">
        <ele>17.4</ele>
        <time>2020-08-15T13:28:47Z</time>
      </trkpt>
      <trkpt lat="48.681" lon="-3.6557">
        <ele>15.9</ele>
        <time>2020-08-15T13:28:54Z</time>
      </trkpt>
      <trkpt lat="48.68118" lon="-3.65586">
        <ele>20.4</ele>
        <time>2020-08-15T13:29:02Z</time>
      </trkpt>
      <trkpt lat="48.68134" lon="-3.65596">
        <ele>21.1</ele>
        <time>2020-08-15T13:29:11Z</time>
      </trkpt>
      <trkpt lat="48.68152" lon="-3.65599">
        <ele>21.3</ele>
        <time>2020-08-15T13:29:20Z</time>
      </trkpt>
      <trkpt lat="48.68168" lon="-3.656">
        <ele>24.3</ele>
        <time>2020-08-15T13:29:29Z</time>
      </trkpt>
      <trkpt lat="48.68191" lon="-3.65595">
        <ele>26</ele>
        <time>2020-08-15T13:29:41Z</time>
      </trkpt>
      <trkpt lat="48.68211" lon="-3.65585">
        <ele>27.7</ele>
        <time>2020-08-15T13:29:52Z</time>
      </trkpt>
      <trkpt lat="48.68224" lon="-3.65575">
        <ele>23</ele>
        <time>2020-08-15T13:30:01Z</time>
      </trkpt>
      <trkpt lat="48.68237" lon="-3.65565">
        <ele>23.6</ele>
        <time>2020-08-15T13:30:09Z</time>
      </trkpt>
      <trkpt lat="48.68253" lon="-3.65553">
        <ele>27.7</ele>
        <time>2020-08-15T13:30:19Z</time>
      </trkpt>
      <trkpt lat="48.68269" lon="-3.6554">
        <ele>26.9</ele>
        <time>2020-08-15T13:30:28Z</time>
      </trkpt>
      <trkpt lat="48.68287" lon="-3.65527">
        <ele>26.9</ele>
        <time>2020-08-15T13:30:38Z</time>
      </trkpt>
      <trkpt lat="48.68303" lon="-3.65518">
        <ele>27.5</ele>
        <time>2020-08-15T13:30:47Z</time>
      </trkpt>
      <trkpt lat="48.68316" lon="-3.6551">
        <ele>27.6</ele>
        <time>2020-08-15T13:30:54Z</time>
      </trkpt>
      <trkpt lat="48.68333" lon="-3.65502">
        <ele>27.1</ele>
        <time>2020-08-15T13:31:02Z</time>
      </trkpt>
      <trkpt lat="48.68354" lon="-3.65494">
        <ele>26.1</ele>
        <time>2020-08-15T13:31:10Z</time>
      </trkpt>
      <trkpt lat="48.68379" lon="-3.65488">
        <ele>26</ele>
        <time>2020-08-15T13:31:18Z</time>
      </trkpt>
      <trkpt lat="48.6841" lon="-3.65481">
        <ele>27</ele>
        <time>2020-08-15T13:31:27Z</time>
      </trkpt>
      <trkpt lat="48.68449" lon="-3.65475">
        <ele>26.2</ele>
        <time>2020-08-15T13:31:37Z</time>
      </trkpt>
      <trkpt lat="48.68476" lon="-3.65464">
        <ele>25.9</ele>
        <time>2020-08-15T13:31:44Z</time>
      </trkpt>
      <trkpt lat="48.68508" lon="-3.65447">
        <ele>27.7</ele>
        <time>2020-08-15T13:31:53Z</time>
      </trkpt>
      <trkpt lat="48.68536" lon="-3.65427">
        <ele>27.9</ele>
        <time>2020-08-15T13:32:01Z</time>
      </trkpt>
      <trkpt lat="48.68563" lon="-3.65408">
        <ele>22.5</ele>
        <time>2020-08-15T13:32:09Z</time>
      </trkpt>
      <trkpt lat="48.68579" lon="-3.65398">
        <ele>23</ele>
        <time>2020-08-15T13:32:14Z</time>
      </trkpt>
      <trkpt lat="48.68609" lon="-3.65381">
        <ele>24.8</ele>
        <time>2020-08-15T13:32:22Z</time>
      </trkpt>
      <trkpt lat="48.6864" lon="-3.65367">
        <ele>24.6</ele>
        <time>2020-08-15T13:32:29Z</time>
      </trkpt>
      <trkpt lat="48.68674" lon="-3.65363">
        <ele>24.9</ele>
        <time>2020-08-15T13:32:35Z</time>
      </trkpt>
      <trkpt lat="48.68717" lon="-3.65356">
        <ele>24.3</ele>
        <time>2020-08-15T13:32:41Z</time>
      </trkpt>
      <trkpt lat="48.68732" lon="-3.65349">
        <ele>23.5</ele>
        <time>2020-08-15T13:32:43Z</time>
      </trkpt>
      <trkpt lat="48.68746" lon="-3.65339">
        <ele>22</ele>
        <time>2020-08-15T13:32:45Z</time>
      </trkpt>
      <trkpt lat="48.68765" lon="-3.65317">
        <ele>21.7</ele>
        <time>2020-08-15T13:32:48Z</time>
      </trkpt>
      <trkpt lat="48.6879" lon="-3.65268">
        <ele>20.8</ele>
        <time>2020-08-15T13:32:54Z</time>
      </trkpt>
      <trkpt lat="48.6881" lon="-3.65231">
        <ele>16.8</ele>
        <time>2020-08-15T13:33:00Z</time>
      </trkpt>
      <trkpt lat="48.68826" lon="-3.65204">
        <ele>15.8</ele>
        <time>2020-08-15T13:33:06Z</time>
      </trkpt>
      <trkpt lat="48.68844" lon="-3.65174">
        <ele>20.9</ele>
        <time>2020-08-15T13:33:14Z</time>
      </trkpt>
      <trkpt lat="48.68863" lon="-3.65145">
        <ele>19.3</ele>
        <time>2020-08-15T13:33:23Z</time>
      </trkpt>
      <trkpt lat="48.68878" lon="-3.65125">
        <ele>19.8</ele>
        <time>2020-08-15T13:33:30Z</time>
      </trkpt>
      <trkpt lat="48.68897" lon="-3.65102">
        <ele>20.3</ele>
        <time>2020-08-15T13:33:39Z</time>
      </trkpt>
      <trkpt lat="48.68914" lon="-3.65079">
        <ele>20.6</ele>
        <time>2020-08-15T13:33:48Z</time>
      </trkpt>
      <trkpt lat="48.68931" lon="-3.65057">
        <ele>21.7</ele>
        <time>2020-08-15T13:33:56Z</time>
      </trkpt>
      <trkpt lat="48.68952" lon="-3.65027">
        <ele>21</ele>
        <time>2020-08-15T13:34:05Z</time>
      </trkpt>
      <trkpt lat="48.68971" lon="-3.65004">
        <ele>21.6</ele>
        <time>2020-08-15T13:34:11Z</time>
      </trkpt>
      <trkpt lat="48.68998" lon="-3.64966">
        <ele>15.9</ele>
        <time>2020-08-15T13:34:20Z</time>
      </trkpt>
      <trkpt lat="48.69019" lon="-3.64936">
        <ele>18.5</ele>
        <time>2020-08-15T13:34:27Z</time>
      </trkpt>
      <trkpt lat="48.69037" lon="-3.6491">
        <ele>14.1</ele>
        <time>2020-08-15T13:34:34Z</time>
      </trkpt>
      <trkpt lat="48.69062" lon="-3.64878">
        <ele>14.1</ele>
        <time>2020-08-15T13:34:43Z</time>
      </trkpt>
      <trkpt lat="48.69081" lon="-3.64863">
        <ele>13.8</ele>
        <time>2020-08-15T13:34:49Z</time>
      </trkpt>
      <trkpt lat="48.69105" lon="-3.64841">
        <ele>15.2</ele>
        <time>2020-08-15T13:34:58Z</time>
      </trkpt>
      <trkpt lat="48.69106" lon="-3.64833">
        <ele>12.6</ele>
        <time>2020-08-15T13:35:01Z</time>
      </trkpt>
      <trkpt lat="48.69104" lon="-3.64823">
        <ele>12.5</ele>
        <time>2020-08-15T13:35:06Z</time>
      </trkpt>
      <trkpt lat="48.69103" lon="-3.64819">
        <ele>12.4</ele>
        <time>2020-08-15T13:35:09Z</time>
      </trkpt>
      <trkpt lat="48.69101" lon="-3.64812">
        <ele>12.3</ele>
        <time>2020-08-15T13:35:41Z</time>
      </trkpt>
      <trkpt lat="48.69098" lon="-3.64785">
        <ele>11.5</ele>
        <time>2020-08-15T13:35:47Z</time>
      </trkpt>
      <trkpt lat="48.69094" lon="-3.64756">
        <ele>10.1</ele>
        <time>2020-08-15T13:35:54Z</time>
      </trkpt>
      <trkpt lat="48.69097" lon="-3.64725">
        <ele>8.1</ele>
        <time>2020-08-15T13:36:00Z</time>
      </trkpt>
      <trkpt lat="48.69112" lon="-3.64705">
        <ele>7.7</ele>
        <time>2020-08-15T13:36:06Z</time>
      </trkpt>
      <trkpt lat="48.69124" lon="-3.64689">
        <ele>7.5</ele>
        <time>2020-08-15T13:36:11Z</time>
      </trkpt>
      <trkpt lat="48.69123" lon="-3.6469">
        <ele>7.5</ele>
        <time>2020-08-15T13:36:16Z</time>
      </trkpt>
      <trkpt lat="48.69115" lon="-3.64669">
        <ele>6.9</ele>
        <time>2020-08-15T13:36:22Z</time>
      </trkpt>
      <trkpt lat="48.6911" lon="-3.64645">
        <ele>6.4</ele>
        <time>2020-08-15T13:36:35Z</time>
      </trkpt>
      <trkpt lat="48.69107" lon="-3.64628">
        <ele>6.8</ele>
        <time>2020-08-15T13:36:42Z</time>
      </trkpt>
      <trkpt lat="48.69102" lon="-3.64607">
        <ele>7.2</ele>
        <time>2020-08-15T13:36:50Z</time>
      </trkpt>
      <trkpt lat="48.69101" lon="-3.64604">
        <ele>7.2</ele>
        <time>2020-08-15T13:36:52Z</time>
      </trkpt>
      <trkpt lat="48.691" lon="-3.64599">
        <ele>7.3</ele>
        <time>2020-08-15T13:36:56Z</time>
      </trkpt>
      <trkpt lat="48.691" lon="-3.6459">
        <ele>7.4</ele>
        <time>2020-08-15T13:37:02Z</time>
      </trkpt>
      <trkpt lat="48.691" lon="-3.6459">
        <ele>7.4</ele>
        <time>2020-08-15T13:37:04Z</time>
      </trkpt>
      <trkpt lat="48.691" lon="-3.6459">
        <ele>7.4</ele>
        <time>2020-08-15T14:02:44Z</time>
      </trkpt>
      <trkpt lat="48.69115" lon="-3.64617">
        <ele>7.2</ele>
        <time>2020-08-15T14:02:52Z</time>
      </trkpt>
      <trkpt lat="48.69115" lon="-3.64618">
        <ele>7.2</ele>
        <time>2020-08-15T14:02:53Z</time>
      </trkpt>
      <trkpt lat="48.69117" lon="-3.64624">
        <ele>7.1</ele>
        <time>2020-08-15T14:02:57Z</time>
      </trkpt>
      <trkpt lat="48.69118" lon="-3.64627">
        <ele>7.1</ele>
        <time>2020-08-15T14:02:59Z</time>
      </trkpt>
      <trkpt lat="48.691" lon="-3.6459">
        <ele>7.4</ele>
        <time>2020-08-15T14:03:04Z</time>
      </trkpt>
      <trkpt lat="48.69096" lon="-3.64729">
        <ele>8.2</ele>
        <time>2020-08-15T14:03:07Z</time>
      </trkpt>
      <trkpt lat="48.69139" lon="-3.64665">
        <ele>7.3</ele>
        <time>2020-08-15T14:03:13Z</time>
      </trkpt>
      <trkpt lat="48.69119" lon="-3.64634">
        <ele>7</ele>
        <time>2020-08-15T14:03:20Z</time>
      </trkpt>
      <trkpt lat="48.6912" lon="-3.64635">
        <ele>7</ele>
        <time>2020-08-15T14:03:21Z</time>
      </trkpt>
      <trkpt lat="48.69124" lon="-3.64651">
        <ele>6.8</ele>
        <time>2020-08-15T14:03:29Z</time>
      </trkpt>
      <trkpt lat="48.69127" lon="-3.64665">
        <ele>6.8</ele>
        <time>2020-08-15T14:03:34Z</time>
      </trkpt>
      <trkpt lat="48.69129" lon="-3.64671">
        <ele>7.4</ele>
        <time>2020-08-15T14:03:37Z</time>
      </trkpt>
      <trkpt lat="48.69138" lon="-3.64666">
        <ele>7.2</ele>
        <time>2020-08-15T14:03:42Z</time>
      </trkpt>
      <trkpt lat="48.69144" lon="-3.64657">
        <ele>7.4</ele>
        <time>2020-08-15T14:03:48Z</time>
      </trkpt>
      <trkpt lat="48.69157" lon="-3.64642">
        <ele>7.7</ele>
        <time>2020-08-15T14:03:56Z</time>
      </trkpt>
      <trkpt lat="48.6917" lon="-3.64627">
        <ele>9.6</ele>
        <time>2020-08-15T14:04:04Z</time>
      </trkpt>
      <trkpt lat="48.69182" lon="-3.64607">
        <ele>9.9</ele>
        <time>2020-08-15T14:04:13Z</time>
      </trkpt>
      <trkpt lat="48.69185" lon="-3.64589">
        <ele>10</ele>
        <time>2020-08-15T14:04:20Z</time>
      </trkpt>
      <trkpt lat="48.69192" lon="-3.64564">
        <ele>9.6</ele>
        <time>2020-08-15T14:04:28Z</time>
      </trkpt>
      <trkpt lat="48.69204" lon="-3.64556">
        <ele>9.6</ele>
        <time>2020-08-15T14:04:35Z</time>
      </trkpt>
      <trkpt lat="48.69219" lon="-3.64553">
        <ele>9.8</ele>
        <time>2020-08-15T14:04:42Z</time>
      </trkpt>
      <trkpt lat="48.69231" lon="-3.64552">
        <ele>10</ele>
        <time>2020-08-15T14:04:48Z</time>
      </trkpt>
      <trkpt lat="48.69235" lon="-3.64553">
        <ele>10</ele>
        <time>2020-08-15T14:04:52Z</time>
      </trkpt>
      <trkpt lat="48.69237" lon="-3.64555">
        <ele>10.1</ele>
        <time>2020-08-15T14:04:57Z</time>
      </trkpt>
      <trkpt lat="48.69237" lon="-3.64555">
        <ele>10.1</ele>
        <time>2020-08-15T14:04:58Z</time>
      </trkpt>
      <trkpt lat="48.69247" lon="-3.64573">
        <ele>10.5</ele>
        <time>2020-08-15T14:05:06Z</time>
      </trkpt>
      <trkpt lat="48.69251" lon="-3.64579">
        <ele>11.3</ele>
        <time>2020-08-15T14:05:11Z</time>
      </trkpt>
      <trkpt lat="48.69254" lon="-3.64584">
        <ele>11.1</ele>
        <time>2020-08-15T14:05:13Z</time>
      </trkpt>
      <trkpt lat="48.69256" lon="-3.64587">
        <ele>11.2</ele>
        <time>2020-08-15T14:05:17Z</time>
      </trkpt>
      <trkpt lat="48.69231" lon="-3.64552">
        <ele>10</ele>
        <time>2020-08-15T14:05:20Z</time>
      </trkpt>
      <trkpt lat="48.69261" lon="-3.64596">
        <ele>11.4</ele>
        <time>2020-08-15T14:05:24Z</time>
      </trkpt>
      <trkpt lat="48.69271" lon="-3.64619">
        <ele>11.6</ele>
        <time>2020-08-15T14:05:32Z</time>
      </trkpt>
      <trkpt lat="48.69277" lon="-3.64653">
        <ele>11.4</ele>
        <time>2020-08-15T14:05:41Z</time>
      </trkpt>
      <trkpt lat="48.69293" lon="-3.6467">
        <ele>11</ele>
        <time>2020-08-15T14:05:48Z</time>
      </trkpt>
      <trkpt lat="48.6931" lon="-3.64685">
        <ele>11</ele>
        <time>2020-08-15T14:05:57Z</time>
      </trkpt>
      <trkpt lat="48.69326" lon="-3.64704">
        <ele>10.9</ele>
        <time>2020-08-15T14:06:05Z</time>
      </trkpt>
      <trkpt lat="48.69337" lon="-3.64726">
        <ele>8.1</ele>
        <time>2020-08-15T14:06:12Z</time>
      </trkpt>
      <trkpt lat="48.69342" lon="-3.64744">
        <ele>8.7</ele>
        <time>2020-08-15T14:06:17Z</time>
      </trkpt>
      <trkpt lat="48.69344" lon="-3.64759">
        <ele>8.6</ele>
        <time>2020-08-15T14:06:22Z</time>
      </trkpt>
      <trkpt lat="48.69344" lon="-3.64785">
        <ele>7.8</ele>
        <time>2020-08-15T14:06:29Z</time>
      </trkpt>
      <trkpt lat="48.69341" lon="-3.64812">
        <ele>8.1</ele>
        <time>2020-08-15T14:06:37Z</time>
      </trkpt>
      <trkpt lat="48.6934" lon="-3.64819">
        <ele>8.3</ele>
        <time>2020-08-15T14:06:39Z</time>
      </trkpt>
      <trkpt lat="48.69338" lon="-3.64829">
        <ele>8.7</ele>
        <time>2020-08-15T14:06:43Z</time>
      </trkpt>
      <trkpt lat="48.69338" lon="-3.64832">
        <ele>8.7</ele>
        <time>2020-08-15T14:06:49Z</time>
      </trkpt>
      <trkpt lat="48.6935" lon="-3.6485">
        <ele>7.7</ele>
        <time>2020-08-15T14:06:52Z</time>
      </trkpt>
      <trkpt lat="48.69335" lon="-3.64837">
        <ele>8.7</ele>
        <time>2020-08-15T14:07:01Z</time>
      </trkpt>
      <trkpt lat="48.69348" lon="-3.64871">
        <ele>7.3</ele>
        <time>2020-08-15T14:07:06Z</time>
      </trkpt>
      <trkpt lat="48.69346" lon="-3.64898">
        <ele>7.5</ele>
        <time>2020-08-15T14:07:13Z</time>
      </trkpt>
      <trkpt lat="48.69344" lon="-3.64925">
        <ele>8.2</ele>
        <time>2020-08-15T14:07:20Z</time>
      </trkpt>
      <trkpt lat="48.69319" lon="-3.6486">
        <ele>11</ele>
        <time>2020-08-15T14:07:26Z</time>
      </trkpt>
      <trkpt lat="48.69318" lon="-3.64935">
        <ele>11.8</ele>
        <time>2020-08-15T14:07:31Z</time>
      </trkpt>
      <trkpt lat="48.69318" lon="-3.64935">
        <ele>11.8</ele>
        <time>2020-08-15T14:07:46Z</time>
      </trkpt>
      <trkpt lat="48.69318" lon="-3.64935">
        <ele>11.8</ele>
        <time>2020-08-15T14:09:37Z</time>
      </trkpt>
      <trkpt lat="48.69318" lon="-3.64935">
        <ele>11.8</ele>
        <time>2020-08-15T14:09:38Z</time>
      </trkpt>
      <trkpt lat="48.69318" lon="-3.64935">
        <ele>11.8</ele>
        <time>2020-08-15T14:09:46Z</time>
      </trkpt>
      <trkpt lat="48.69318" lon="-3.64935">
        <ele>11.8</ele>
        <time>2020-08-15T14:09:53Z</time>
      </trkpt>
      <trkpt lat="48.693" lon="-3.64836">
        <ele>11.4</ele>
        <time>2020-08-15T14:09:58Z</time>
      </trkpt>
      <trkpt lat="48.69312" lon="-3.64863">
        <ele>11.2</ele>
        <time>2020-08-15T14:10:05Z</time>
      </trkpt>
      <trkpt lat="48.69267" lon="-3.64799">
        <ele>11.8</ele>
        <time>2020-08-15T14:10:13Z</time>
      </trkpt>
      <trkpt lat="48.69251" lon="-3.6479">
        <ele>11.9</ele>
        <time>2020-08-15T14:10:20Z</time>
      </trkpt>
      <trkpt lat="48.69225" lon="-3.64788">
        <ele>12.9</ele>
        <time>2020-08-15T14:10:29Z</time>
      </trkpt>
      <trkpt lat="48.69209" lon="-3.64791">
        <ele>13</ele>
        <time>2020-08-15T14:10:35Z</time>
      </trkpt>
      <trkpt lat="48.69191" lon="-3.64799">
        <ele>13.2</ele>
        <time>2020-08-15T14:10:42Z</time>
      </trkpt>
      <trkpt lat="48.69169" lon="-3.64805">
        <ele>13.5</ele>
        <time>2020-08-15T14:10:50Z</time>
      </trkpt>
      <trkpt lat="48.69144" lon="-3.64814">
        <ele>12.9</ele>
        <time>2020-08-15T14:10:59Z</time>
      </trkpt>
      <trkpt lat="48.69134" lon="-3.64817">
        <ele>12.7</ele>
        <time>2020-08-15T14:11:05Z</time>
      </trkpt>
      <trkpt lat="48.69126" lon="-3.6482">
        <ele>12.6</ele>
        <time>2020-08-15T14:11:10Z</time>
      </trkpt>
      <trkpt lat="48.69119" lon="-3.64824">
        <ele>12.6</ele>
        <time>2020-08-15T14:11:15Z</time>
      </trkpt>
      <trkpt lat="48.69115" lon="-3.64827">
        <ele>12.6</ele>
        <time>2020-08-15T14:11:19Z</time>
      </trkpt>
      <trkpt lat="48.69108" lon="-3.64835">
        <ele>15.2</ele>
        <time>2020-08-15T14:11:25Z</time>
      </trkpt>
      <trkpt lat="48.69111" lon="-3.64831">
        <ele>12.6</ele>
        <time>2020-08-15T14:11:44Z</time>
      </trkpt>
      <trkpt lat="48.69114" lon="-3.64828">
        <ele>12.6</ele>
        <time>2020-08-15T14:11:47Z</time>
      </trkpt>
      <trkpt lat="48.69132" lon="-3.64818">
        <ele>12.7</ele>
        <time>2020-08-15T14:11:55Z</time>
      </trkpt>
      <trkpt lat="48.69154" lon="-3.6481">
        <ele>13</ele>
        <time>2020-08-15T14:12:02Z</time>
      </trkpt>
      <trkpt lat="48.69184" lon="-3.64801">
        <ele>13.3</ele>
        <time>2020-08-15T14:12:11Z</time>
      </trkpt>
      <trkpt lat="48.6921" lon="-3.64791">
        <ele>13</ele>
        <time>2020-08-15T14:12:19Z</time>
      </trkpt>
      <trkpt lat="48.69234" lon="-3.64788">
        <ele>12.9</ele>
        <time>2020-08-15T14:12:26Z</time>
      </trkpt>
      <trkpt lat="48.69248" lon="-3.6479">
        <ele>13</ele>
        <time>2020-08-15T14:12:30Z</time>
      </trkpt>
      <trkpt lat="48.69244" lon="-3.64754">
        <ele>12.2</ele>
        <time>2020-08-15T14:12:37Z</time>
      </trkpt>
      <trkpt lat="48.69244" lon="-3.64754">
        <ele>12.2</ele>
        <time>2020-08-15T14:12:45Z</time>
      </trkpt>
      <trkpt lat="48.69244" lon="-3.64754">
        <ele>12.2</ele>
        <time>2020-08-15T14:12:50Z</time>
      </trkpt>
      <trkpt lat="48.69244" lon="-3.64754">
        <ele>12.2</ele>
        <time>2020-08-15T14:12:54Z</time>
      </trkpt>
      <trkpt lat="48.69267" lon="-3.64799">
        <ele>11.8</ele>
        <time>2020-08-15T14:12:59Z</time>
      </trkpt>
      <trkpt lat="48.69341" lon="-3.6474">
        <ele>8.6</ele>
        <time>2020-08-15T14:13:04Z</time>
      </trkpt>
      <trkpt lat="48.69244" lon="-3.64754">
        <ele>12.2</ele>
        <time>2020-08-15T14:13:10Z</time>
      </trkpt>
      <trkpt lat="48.69244" lon="-3.64754">
        <ele>12.2</ele>
        <time>2020-08-15T14:13:11Z</time>
      </trkpt>
      <trkpt lat="48.69244" lon="-3.64754">
        <ele>12.2</ele>
        <time>2020-08-15T14:13:21Z</time>
      </trkpt>
      <trkpt lat="48.69244" lon="-3.64754">
        <ele>12.2</ele>
        <time>2020-08-15T14:13:24Z</time>
      </trkpt>
      <trkpt lat="48.69244" lon="-3.64754">
        <ele>12.2</ele>
        <time>2020-08-15T14:13:28Z</time>
      </trkpt>
      <trkpt lat="48.69266" lon="-3.64798">
        <ele>11.8</ele>
        <time>2020-08-15T14:13:33Z</time>
      </trkpt>
      <trkpt lat="48.69263" lon="-3.64796">
        <ele>11.8</ele>
        <time>2020-08-15T14:13:35Z</time>
      </trkpt>
      <trkpt lat="48.69261" lon="-3.64794">
        <ele>11.8</ele>
        <time>2020-08-15T14:13:39Z</time>
      </trkpt>
      <trkpt lat="48.69261" lon="-3.64794">
        <ele>11.8</ele>
        <time>2020-08-15T14:13:45Z</time>
      </trkpt>
      <trkpt lat="48.69268" lon="-3.648">
        <ele>11.8</ele>
        <time>2020-08-15T14:13:49Z</time>
      </trkpt>
      <trkpt lat="48.69282" lon="-3.64812">
        <ele>11.6</ele>
        <time>2020-08-15T14:13:54Z</time>
      </trkpt>
      <trkpt lat="48.693" lon="-3.64834">
        <ele>11.4</ele>
        <time>2020-08-15T14:14:01Z</time>
      </trkpt>
      <trkpt lat="48.69309" lon="-3.64854">
        <ele>11.2</ele>
        <time>2020-08-15T14:14:06Z</time>
      </trkpt>
      <trkpt lat="48.6933" lon="-3.64852">
        <ele>10.4</ele>
        <time>2020-08-15T14:14:11Z</time>
      </trkpt>
      <trkpt lat="48.69333" lon="-3.64844">
        <ele>10</ele>
        <time>2020-08-15T14:14:15Z</time>
      </trkpt>
      <trkpt lat="48.69335" lon="-3.64837">
        <ele>8.7</ele>
        <time>2020-08-15T14:14:19Z</time>
      </trkpt>
      <trkpt lat="48.6934" lon="-3.64818">
        <ele>8.2</ele>
        <time>2020-08-15T14:14:25Z</time>
      </trkpt>
      <trkpt lat="48.69344" lon="-3.64779">
        <ele>7.9</ele>
        <time>2020-08-15T14:14:33Z</time>
      </trkpt>
      <trkpt lat="48.69343" lon="-3.64749">
        <ele>8.8</ele>
        <time>2020-08-15T14:14:39Z</time>
      </trkpt>
      <trkpt lat="48.69341" lon="-3.6474">
        <ele>8.6</ele>
        <time>2020-08-15T14:14:44Z</time>
      </trkpt>
      <trkpt lat="48.69341" lon="-3.6474">
        <ele>8.6</ele>
        <time>2020-08-15T14:14:48Z</time>
      </trkpt>
      <trkpt lat="48.69341" lon="-3.6474">
        <ele>8.6</ele>
        <time>2020-08-15T14:14:56Z</time>
      </trkpt>
      <trkpt lat="48.69341" lon="-3.6474">
        <ele>8.6</ele>
        <time>2020-08-15T14:15:03Z</time>
      </trkpt>
      <trkpt lat="48.69341" lon="-3.6474">
        <ele>8.6</ele>
        <time>2020-08-15T14:15:10Z</time>
      </trkpt>
      <trkpt lat="48.69312" lon="-3.64686">
        <ele>11</ele>
        <time>2020-08-15T14:15:16Z</time>
      </trkpt>
      <trkpt lat="48.69302" lon="-3.64678">
        <ele>11</ele>
        <time>2020-08-15T14:15:21Z</time>
      </trkpt>
      <trkpt lat="48.69288" lon="-3.64665">
        <ele>11.5</ele>
        <time>2020-08-15T14:15:29Z</time>
      </trkpt>
      <trkpt lat="48.69276" lon="-3.64651">
        <ele>11.5</ele>
        <time>2020-08-15T14:15:35Z</time>
      </trkpt>
      <trkpt lat="48.69271" lon="-3.64621">
        <ele>11.6</ele>
        <time>2020-08-15T14:15:41Z</time>
      </trkpt>
      <trkpt lat="48.69264" lon="-3.64603">
        <ele>11.5</ele>
        <time>2020-08-15T14:15:45Z</time>
      </trkpt>
      <trkpt lat="48.69259" lon="-3.64593">
        <ele>11.4</ele>
        <time>2020-08-15T14:15:48Z</time>
      </trkpt>
      <trkpt lat="48.69254" lon="-3.64584">
        <ele>11.1</ele>
        <time>2020-08-15T14:15:53Z</time>
      </trkpt>
      <trkpt lat="48.69246" lon="-3.64571">
        <ele>10.5</ele>
        <time>2020-08-15T14:15:58Z</time>
      </trkpt>
      <trkpt lat="48.69243" lon="-3.64565">
        <ele>10.3</ele>
        <time>2020-08-15T14:16:00Z</time>
      </trkpt>
      <trkpt lat="48.69236" lon="-3.64555">
        <ele>10.1</ele>
        <time>2020-08-15T14:16:06Z</time>
      </trkpt>
      <trkpt lat="48.69235" lon="-3.64554">
        <ele>10</ele>
        <time>2020-08-15T14:16:07Z</time>
      </trkpt>
      <trkpt lat="48.69231" lon="-3.64552">
        <ele>10</ele>
        <time>2020-08-15T14:16:13Z</time>
      </trkpt>
      <trkpt lat="48.69231" lon="-3.64552">
        <ele>10</ele>
        <time>2020-08-15T14:16:16Z</time>
      </trkpt>
      <trkpt lat="48.69231" lon="-3.64552">
        <ele>10</ele>
        <time>2020-08-15T14:16:24Z</time>
      </trkpt>
      <trkpt lat="48.69231" lon="-3.64552">
        <ele>10</ele>
        <time>2020-08-15T14:16:29Z</time>
      </trkpt>
      <trkpt lat="48.692" lon="-3.64557">
        <ele>9.6</ele>
        <time>2020-08-15T14:16:32Z</time>
      </trkpt>
      <trkpt lat="48.69192" lon="-3.64564">
        <ele>9.6</ele>
        <time>2020-08-15T14:16:37Z</time>
      </trkpt>
      <trkpt lat="48.69187" lon="-3.64574">
        <ele>9.7</ele>
        <time>2020-08-15T14:16:39Z</time>
      </trkpt>
      <trkpt lat="48.69184" lon="-3.64596">
        <ele>10</ele>
        <time>2020-08-15T14:16:44Z</time>
      </trkpt>
      <trkpt lat="48.69182" lon="-3.64604">
        <ele>9.9</ele>
        <time>2020-08-15T14:16:47Z</time>
      </trkpt>
      <trkpt lat="48.69179" lon="-3.64615">
        <ele>9.8</ele>
        <time>2020-08-15T14:16:52Z</time>
      </trkpt>
      <trkpt lat="48.69178" lon="-3.64617">
        <ele>9.8</ele>
        <time>2020-08-15T14:16:53Z</time>
      </trkpt>
      <trkpt lat="48.69176" lon="-3.6462">
        <ele>9.7</ele>
        <time>2020-08-15T14:16:58Z</time>
      </trkpt>
      <trkpt lat="48.69169" lon="-3.64628">
        <ele>9.6</ele>
        <time>2020-08-15T14:17:03Z</time>
      </trkpt>
      <trkpt lat="48.69159" lon="-3.64639">
        <ele>7.8</ele>
        <time>2020-08-15T14:17:08Z</time>
      </trkpt>
      <trkpt lat="48.69149" lon="-3.64652">
        <ele>7.6</ele>
        <time>2020-08-15T14:17:13Z</time>
      </trkpt>
      <trkpt lat="48.69139" lon="-3.64665">
        <ele>7.3</ele>
        <time>2020-08-15T14:17:20Z</time>
      </trkpt>
      <trkpt lat="48.69135" lon="-3.6467">
        <ele>7.6</ele>
        <time>2020-08-15T14:17:22Z</time>
      </trkpt>
      <trkpt lat="48.69131" lon="-3.64676">
        <ele>7.5</ele>
        <time>2020-08-15T14:17:26Z</time>
      </trkpt>
      <trkpt lat="48.69109" lon="-3.64709">
        <ele>7.7</ele>
        <time>2020-08-15T14:17:36Z</time>
      </trkpt>
      <trkpt lat="48.691" lon="-3.64721">
        <ele>8</ele>
        <time>2020-08-15T14:17:43Z</time>
      </trkpt>
      <trkpt lat="48.69101" lon="-3.6472">
        <ele>8</ele>
        <time>2020-08-15T14:17:48Z</time>
      </trkpt>
      <trkpt lat="48.69105" lon="-3.64714">
        <ele>7.8</ele>
        <time>2020-08-15T14:17:51Z</time>
      </trkpt>
      <trkpt lat="48.69116" lon="-3.647">
        <ele>7.6</ele>
        <time>2020-08-15T14:17:58Z</time>
      </trkpt>
      <trkpt lat="48.69119" lon="-3.64696">
        <ele>7.6</ele>
        <time>2020-08-15T14:17:59Z</time>
      </trkpt>
      <trkpt lat="48.69125" lon="-3.64688">
        <ele>7.5</ele>
        <time>2020-08-15T14:18:04Z</time>
      </trkpt>
      <trkpt lat="48.6913" lon="-3.64679">
        <ele>7.5</ele>
        <time>2020-08-15T14:18:08Z</time>
      </trkpt>
      <trkpt lat="48.69114" lon="-3.64661">
        <ele>6.3</ele>
        <time>2020-08-15T14:18:13Z</time>
      </trkpt>
      <trkpt lat="48.69108" lon="-3.64632">
        <ele>6.7</ele>
        <time>2020-08-15T14:18:21Z</time>
      </trkpt>
      <trkpt lat="48.69104" lon="-3.64618">
        <ele>7</ele>
        <time>2020-08-15T14:18:25Z</time>
      </trkpt>
      <trkpt lat="48.691" lon="-3.64599">
        <ele>7.3</ele>
        <time>2020-08-15T14:18:30Z</time>
      </trkpt>
      <trkpt lat="48.69099" lon="-3.64594">
        <ele>7.4</ele>
        <time>2020-08-15T14:18:33Z</time>
      </trkpt>
      <trkpt lat="48.69107" lon="-3.64585">
        <ele>7.6</ele>
        <time>2020-08-15T14:26:19Z</time>
      </trkpt>
      <trkpt lat="48.69144" lon="-3.64658">
        <ele>7.4</ele>
        <time>2020-08-15T14:26:22Z</time>
      </trkpt>
      <trkpt lat="48.691" lon="-3.6459">
        <ele>7.4</ele>
        <time>2020-08-15T14:26:27Z</time>
      </trkpt>
      <trkpt lat="48.69143" lon="-3.64659">
        <ele>7.4</ele>
        <time>2020-08-15T14:26:31Z</time>
      </trkpt>
      <trkpt lat="48.69111" lon="-3.64591">
        <ele>7.7</ele>
        <time>2020-08-15T14:26:35Z</time>
      </trkpt>
      <trkpt lat="48.69114" lon="-3.64612">
        <ele>7.3</ele>
        <time>2020-08-15T14:26:41Z</time>
      </trkpt>
      <trkpt lat="48.69118" lon="-3.64629">
        <ele>7.1</ele>
        <time>2020-08-15T14:26:46Z</time>
      </trkpt>
      <trkpt lat="48.69122" lon="-3.64645">
        <ele>6.9</ele>
        <time>2020-08-15T14:26:51Z</time>
      </trkpt>
      <trkpt lat="48.69123" lon="-3.6465">
        <ele>6.8</ele>
        <time>2020-08-15T14:26:53Z</time>
      </trkpt>
      <trkpt lat="48.69128" lon="-3.64668">
        <ele>7.3</ele>
        <time>2020-08-15T14:27:00Z</time>
      </trkpt>
      <trkpt lat="48.69131" lon="-3.64676">
        <ele>7.5</ele>
        <time>2020-08-15T14:27:03Z</time>
      </trkpt>
      <trkpt lat="48.69132" lon="-3.64675">
        <ele>7.5</ele>
        <time>2020-08-15T14:27:07Z</time>
      </trkpt>
      <trkpt lat="48.69137" lon="-3.64666">
        <ele>7.2</ele>
        <time>2020-08-15T14:27:11Z</time>
      </trkpt>
      <trkpt lat="48.69138" lon="-3.64665">
        <ele>7.2</ele>
        <time>2020-08-15T14:27:14Z</time>
      </trkpt>
      <trkpt lat="48.69141" lon="-3.64662">
        <ele>7.3</ele>
        <time>2020-08-15T14:27:19Z</time>
      </trkpt>
      <trkpt lat="48.69147" lon="-3.64654">
        <ele>7.5</ele>
        <time>2020-08-15T14:27:27Z</time>
      </trkpt>
      <trkpt lat="48.69157" lon="-3.64642">
        <ele>7.7</ele>
        <time>2020-08-15T14:27:34Z</time>
      </trkpt>
      <trkpt lat="48.6917" lon="-3.64627">
        <ele>9.6</ele>
        <time>2020-08-15T14:27:42Z</time>
      </trkpt>
      <trkpt lat="48.69183" lon="-3.64603">
        <ele>9.9</ele>
        <time>2020-08-15T14:27:52Z</time>
      </trkpt>
      <trkpt lat="48.69186" lon="-3.64581">
        <ele>9.7</ele>
        <time>2020-08-15T14:27:58Z</time>
      </trkpt>
      <trkpt lat="48.69195" lon="-3.64561">
        <ele>9.6</ele>
        <time>2020-08-15T14:28:04Z</time>
      </trkpt>
      <trkpt lat="48.69209" lon="-3.64554">
        <ele>9.7</ele>
        <time>2020-08-15T14:28:10Z</time>
      </trkpt>
      <trkpt lat="48.69228" lon="-3.64552">
        <ele>9.9</ele>
        <time>2020-08-15T14:28:18Z</time>
      </trkpt>
      <trkpt lat="48.69234" lon="-3.64553">
        <ele>10</ele>
        <time>2020-08-15T14:28:21Z</time>
      </trkpt>
      <trkpt lat="48.69239" lon="-3.64559">
        <ele>10.1</ele>
        <time>2020-08-15T14:28:25Z</time>
      </trkpt>
      <trkpt lat="48.69254" lon="-3.64584">
        <ele>11.1</ele>
        <time>2020-08-15T14:28:33Z</time>
      </trkpt>
      <trkpt lat="48.69267" lon="-3.6461">
        <ele>11.6</ele>
        <time>2020-08-15T14:28:41Z</time>
      </trkpt>
      <trkpt lat="48.69272" lon="-3.64628">
        <ele>11.6</ele>
        <time>2020-08-15T14:28:47Z</time>
      </trkpt>
      <trkpt lat="48.69277" lon="-3.64654">
        <ele>11.4</ele>
        <time>2020-08-15T14:28:54Z</time>
      </trkpt>
      <trkpt lat="48.6929" lon="-3.64667">
        <ele>11</ele>
        <time>2020-08-15T14:29:00Z</time>
      </trkpt>
      <trkpt lat="48.69302" lon="-3.64677">
        <ele>11</ele>
        <time>2020-08-15T14:29:06Z</time>
      </trkpt>
      <trkpt lat="48.6932" lon="-3.64695">
        <ele>10.9</ele>
        <time>2020-08-15T14:29:15Z</time>
      </trkpt>
      <trkpt lat="48.69335" lon="-3.6472">
        <ele>8</ele>
        <time>2020-08-15T14:29:23Z</time>
      </trkpt>
      <trkpt lat="48.69342" lon="-3.64744">
        <ele>8.7</ele>
        <time>2020-08-15T14:29:29Z</time>
      </trkpt>
      <trkpt lat="48.69344" lon="-3.64774">
        <ele>8</ele>
        <time>2020-08-15T14:29:36Z</time>
      </trkpt>
      <trkpt lat="48.69344" lon="-3.64797">
        <ele>7.8</ele>
        <time>2020-08-15T14:29:42Z</time>
      </trkpt>
      <trkpt lat="48.6934" lon="-3.64816">
        <ele>8.2</ele>
        <time>2020-08-15T14:29:47Z</time>
      </trkpt>
      <trkpt lat="48.69339" lon="-3.64823">
        <ele>8.4</ele>
        <time>2020-08-15T14:29:49Z</time>
      </trkpt>
      <trkpt lat="48.69334" lon="-3.6484">
        <ele>8.6</ele>
        <time>2020-08-15T14:29:56Z</time>
      </trkpt>
      <trkpt lat="48.69329" lon="-3.64852">
        <ele>10.5</ele>
        <time>2020-08-15T14:30:01Z</time>
      </trkpt>
      <trkpt lat="48.69312" lon="-3.64863">
        <ele>11.2</ele>
        <time>2020-08-15T14:30:07Z</time>
      </trkpt>
      <trkpt lat="48.6932" lon="-3.64859">
        <ele>10.9</ele>
        <time>2020-08-15T14:30:08Z</time>
      </trkpt>
      <trkpt lat="48.69318" lon="-3.6486">
        <ele>11</ele>
        <time>2020-08-15T14:30:10Z</time>
      </trkpt>
      <trkpt lat="48.69312" lon="-3.64863">
        <ele>11.2</ele>
        <time>2020-08-15T14:30:15Z</time>
      </trkpt>
      <trkpt lat="48.69312" lon="-3.64863">
        <ele>11.2</ele>
        <time>2020-08-15T14:30:17Z</time>
      </trkpt>
      <trkpt lat="48.69312" lon="-3.64863">
        <ele>11.2</ele>
        <time>2020-08-15T14:30:26Z</time>
      </trkpt>
      <trkpt lat="48.69259" lon="-3.64794">
        <ele>11.9</ele>
        <time>2020-08-15T14:30:34Z</time>
      </trkpt>
      <trkpt lat="48.69232" lon="-3.64788">
        <ele>12.9</ele>
        <time>2020-08-15T14:30:41Z</time>
      </trkpt>
      <trkpt lat="48.69204" lon="-3.64793">
        <ele>13</ele>
        <time>2020-08-15T14:30:48Z</time>
      </trkpt>
      <trkpt lat="48.69167" lon="-3.64806">
        <ele>13.5</ele>
        <time>2020-08-15T14:30:58Z</time>
      </trkpt>
      <trkpt lat="48.69138" lon="-3.64815">
        <ele>12.8</ele>
        <time>2020-08-15T14:31:06Z</time>
      </trkpt>
      <trkpt lat="48.69123" lon="-3.64821">
        <ele>12.6</ele>
        <time>2020-08-15T14:31:11Z</time>
      </trkpt>
      <trkpt lat="48.69107" lon="-3.64837">
        <ele>15.2</ele>
        <time>2020-08-15T14:31:17Z</time>
      </trkpt>
      <trkpt lat="48.69104" lon="-3.64844">
        <ele>15.3</ele>
        <time>2020-08-15T14:31:24Z</time>
      </trkpt>
      <trkpt lat="48.69104" lon="-3.64844">
        <ele>15.3</ele>
        <time>2020-08-15T14:31:33Z</time>
      </trkpt>
      <trkpt lat="48.69104" lon="-3.64844">
        <ele>15.3</ele>
        <time>2020-08-15T14:31:43Z</time>
      </trkpt>
      <trkpt lat="48.69034" lon="-3.64915">
        <ele>14</ele>
        <time>2020-08-15T14:31:51Z</time>
      </trkpt>
      <trkpt lat="48.69023" lon="-3.64931">
        <ele>18.5</ele>
        <time>2020-08-15T14:31:58Z</time>
      </trkpt>
      <trkpt lat="48.69012" lon="-3.64946">
        <ele>19.1</ele>
        <time>2020-08-15T14:32:05Z</time>
      </trkpt>
      <trkpt lat="48.68995" lon="-3.6497">
        <ele>16.3</ele>
        <time>2020-08-15T14:32:15Z</time>
      </trkpt>
      <trkpt lat="48.68973" lon="-3.65001">
        <ele>21.7</ele>
        <time>2020-08-15T14:32:27Z</time>
      </trkpt>
      <trkpt lat="48.68955" lon="-3.65023">
        <ele>21</ele>
        <time>2020-08-15T14:32:36Z</time>
      </trkpt>
      <trkpt lat="48.68936" lon="-3.6505">
        <ele>21.5</ele>
        <time>2020-08-15T14:32:46Z</time>
      </trkpt>
      <trkpt lat="48.68918" lon="-3.65073">
        <ele>21.9</ele>
        <time>2020-08-15T14:32:55Z</time>
      </trkpt>
      <trkpt lat="48.68915" lon="-3.65077">
        <ele>20.3</ele>
        <time>2020-08-15T14:32:58Z</time>
      </trkpt>
      <trkpt lat="48.6891" lon="-3.65085">
        <ele>21.4</ele>
        <time>2020-08-15T14:33:41Z</time>
      </trkpt>
      <trkpt lat="48.68896" lon="-3.65103">
        <ele>20.3</ele>
        <time>2020-08-15T14:33:47Z</time>
      </trkpt>
      <trkpt lat="48.68868" lon="-3.65138">
        <ele>19.5</ele>
        <time>2020-08-15T14:33:55Z</time>
      </trkpt>
      <trkpt lat="48.68836" lon="-3.65186">
        <ele>22.2</ele>
        <time>2020-08-15T14:34:03Z</time>
      </trkpt>
      <trkpt lat="48.68811" lon="-3.65229">
        <ele>16.8</ele>
        <time>2020-08-15T14:34:09Z</time>
      </trkpt>
      <trkpt lat="48.68776" lon="-3.65297">
        <ele>21.4</ele>
        <time>2020-08-15T14:34:17Z</time>
      </trkpt>
      <trkpt lat="48.68763" lon="-3.65319">
        <ele>21.6</ele>
        <time>2020-08-15T14:34:20Z</time>
      </trkpt>
      <trkpt lat="48.68735" lon="-3.65348">
        <ele>23.3</ele>
        <time>2020-08-15T14:34:26Z</time>
      </trkpt>
      <trkpt lat="48.68707" lon="-3.65359">
        <ele>24.6</ele>
        <time>2020-08-15T14:34:32Z</time>
      </trkpt>
      <trkpt lat="48.6868" lon="-3.65363">
        <ele>24.9</ele>
        <time>2020-08-15T14:34:39Z</time>
      </trkpt>
      <trkpt lat="48.68652" lon="-3.65365">
        <ele>24.6</ele>
        <time>2020-08-15T14:34:47Z</time>
      </trkpt>
      <trkpt lat="48.68625" lon="-3.65372">
        <ele>24.5</ele>
        <time>2020-08-15T14:34:55Z</time>
      </trkpt>
      <trkpt lat="48.68596" lon="-3.65388">
        <ele>25.3</ele>
        <time>2020-08-15T14:35:05Z</time>
      </trkpt>
      <trkpt lat="48.68568" lon="-3.65404">
        <ele>22.8</ele>
        <time>2020-08-15T14:35:15Z</time>
      </trkpt>
      <trkpt lat="48.68557" lon="-3.65412">
        <ele>21.8</ele>
        <time>2020-08-15T14:35:21Z</time>
      </trkpt>
      <trkpt lat="48.6854" lon="-3.65424">
        <ele>28.1</ele>
        <time>2020-08-15T14:35:28Z</time>
      </trkpt>
      <trkpt lat="48.68512" lon="-3.65444">
        <ele>27.4</ele>
        <time>2020-08-15T14:35:38Z</time>
      </trkpt>
      <trkpt lat="48.68497" lon="-3.65453">
        <ele>24.8</ele>
        <time>2020-08-15T14:35:45Z</time>
      </trkpt>
      <trkpt lat="48.68485" lon="-3.65461">
        <ele>25.7</ele>
        <time>2020-08-15T14:35:52Z</time>
      </trkpt>
      <trkpt lat="48.68485" lon="-3.65461">
        <ele>25.7</ele>
        <time>2020-08-15T14:35:54Z</time>
      </trkpt>
      <trkpt lat="48.68476" lon="-3.65464">
        <ele>25.9</ele>
        <time>2020-08-15T14:35:59Z</time>
      </trkpt>
      <trkpt lat="48.68457" lon="-3.65472">
        <ele>26</ele>
        <time>2020-08-15T14:36:06Z</time>
      </trkpt>
      <trkpt lat="48.68433" lon="-3.65478">
        <ele>26.6</ele>
        <time>2020-08-15T14:36:14Z</time>
      </trkpt>
      <trkpt lat="48.68405" lon="-3.65482">
        <ele>26.9</ele>
        <time>2020-08-15T14:36:23Z</time>
      </trkpt>
      <trkpt lat="48.6838" lon="-3.65487">
        <ele>26</ele>
        <time>2020-08-15T14:36:31Z</time>
      </trkpt>
      <trkpt lat="48.68348" lon="-3.65496">
        <ele>26.3</ele>
        <time>2020-08-15T14:36:40Z</time>
      </trkpt>
      <trkpt lat="48.68316" lon="-3.65511">
        <ele>27.6</ele>
        <time>2020-08-15T14:36:49Z</time>
      </trkpt>
      <trkpt lat="48.68277" lon="-3.65534">
        <ele>26.8</ele>
        <time>2020-08-15T14:36:58Z</time>
      </trkpt>
      <trkpt lat="48.68244" lon="-3.6556">
        <ele>23.3</ele>
        <time>2020-08-15T14:37:05Z</time>
      </trkpt>
      <trkpt lat="48.68213" lon="-3.65584">
        <ele>27.9</ele>
        <time>2020-08-15T14:37:11Z</time>
      </trkpt>
      <trkpt lat="48.68175" lon="-3.656">
        <ele>24.7</ele>
        <time>2020-08-15T14:37:17Z</time>
      </trkpt>
      <trkpt lat="48.68148" lon="-3.65599">
        <ele>21.3</ele>
        <time>2020-08-15T14:37:22Z</time>
      </trkpt>
      <trkpt lat="48.68135" lon="-3.65597">
        <ele>21.2</ele>
        <time>2020-08-15T14:37:26Z</time>
      </trkpt>
      <trkpt lat="48.68133" lon="-3.65595">
        <ele>21.1</ele>
        <time>2020-08-15T14:37:28Z</time>
      </trkpt>
      <trkpt lat="48.68126" lon="-3.65591">
        <ele>20.8</ele>
        <time>2020-08-15T14:37:33Z</time>
      </trkpt>
      <trkpt lat="48.6812" lon="-3.65587">
        <ele>20.5</ele>
        <time>2020-08-15T14:37:35Z</time>
      </trkpt>
      <trkpt lat="48.68104" lon="-3.65575">
        <ele>16</ele>
        <time>2020-08-15T14:37:40Z</time>
      </trkpt>
      <trkpt lat="48.68093" lon="-3.65575">
        <ele>16.2</ele>
        <time>2020-08-15T14:37:43Z</time>
      </trkpt>
      <trkpt lat="48.68095" lon="-3.65565">
        <ele>15.8</ele>
        <time>2020-08-15T14:38:24Z</time>
      </trkpt>
      <trkpt lat="48.68091" lon="-3.65559">
        <ele>15.5</ele>
        <time>2020-08-15T14:38:26Z</time>
      </trkpt>
      <trkpt lat="48.68087" lon="-3.65554">
        <ele>15.3</ele>
        <time>2020-08-15T14:38:33Z</time>
      </trkpt>
      <trkpt lat="48.68042" lon="-3.65478">
        <ele>15.3</ele>
        <time>2020-08-15T14:38:40Z</time>
      </trkpt>
      <trkpt lat="48.68038" lon="-3.65472">
        <ele>15.5</ele>
        <time>2020-08-15T14:38:41Z</time>
      </trkpt>
      <trkpt lat="48.68032" lon="-3.6546">
        <ele>15.7</ele>
        <time>2020-08-15T14:38:45Z</time>
      </trkpt>
      <trkpt lat="48.68014" lon="-3.65459">
        <ele>16.6</ele>
        <time>2020-08-15T14:38:48Z</time>
      </trkpt>
      <trkpt lat="48.68012" lon="-3.6546">
        <ele>16.8</ele>
        <time>2020-08-15T14:38:55Z</time>
      </trkpt>
      <trkpt lat="48.67993" lon="-3.65491">
        <ele>23.5</ele>
        <time>2020-08-15T14:39:08Z</time>
      </trkpt>
      <trkpt lat="48.67982" lon="-3.65507">
        <ele>26.4</ele>
        <time>2020-08-15T14:39:19Z</time>
      </trkpt>
      <trkpt lat="48.67974" lon="-3.65519">
        <ele>28</ele>
        <time>2020-08-15T14:39:27Z</time>
      </trkpt>
      <trkpt lat="48.67965" lon="-3.65532">
        <ele>29.3</ele>
        <time>2020-08-15T14:39:37Z</time>
      </trkpt>
      <trkpt lat="48.67961" lon="-3.65537">
        <ele>29.7</ele>
        <time>2020-08-15T14:39:41Z</time>
      </trkpt>
      <trkpt lat="48.67957" lon="-3.65541">
        <ele>30.1</ele>
        <time>2020-08-15T14:39:45Z</time>
      </trkpt>
      <trkpt lat="48.67955" lon="-3.65544">
        <ele>30.3</ele>
        <time>2020-08-15T14:39:47Z</time>
      </trkpt>
      <trkpt lat="48.67945" lon="-3.65555">
        <ele>31.3</ele>
        <time>2020-08-15T14:39:56Z</time>
      </trkpt>
      <trkpt lat="48.67935" lon="-3.65568">
        <ele>32.7</ele>
        <time>2020-08-15T14:40:06Z</time>
      </trkpt>
      <trkpt lat="48.67925" lon="-3.6558">
        <ele>34.9</ele>
        <time>2020-08-15T14:40:15Z</time>
      </trkpt>
      <trkpt lat="48.67916" lon="-3.6559">
        <ele>37.9</ele>
        <time>2020-08-15T14:40:22Z</time>
      </trkpt>
      <trkpt lat="48.679" lon="-3.65604">
        <ele>39.5</ele>
        <time>2020-08-15T14:40:35Z</time>
      </trkpt>
      <trkpt lat="48.67891" lon="-3.65613">
        <ele>40.1</ele>
        <time>2020-08-15T14:40:42Z</time>
      </trkpt>
      <trkpt lat="48.67881" lon="-3.65623">
        <ele>40.5</ele>
        <time>2020-08-15T14:40:50Z</time>
      </trkpt>
      <trkpt lat="48.6787" lon="-3.65634">
        <ele>41</ele>
        <time>2020-08-15T14:40:59Z</time>
      </trkpt>
      <trkpt lat="48.67859" lon="-3.65649">
        <ele>41.6</ele>
        <time>2020-08-15T14:41:09Z</time>
      </trkpt>
      <trkpt lat="48.67848" lon="-3.65662">
        <ele>42.5</ele>
        <time>2020-08-15T14:41:17Z</time>
      </trkpt>
      <trkpt lat="48.67836" lon="-3.65678">
        <ele>43.2</ele>
        <time>2020-08-15T14:41:26Z</time>
      </trkpt>
      <trkpt lat="48.67821" lon="-3.657">
        <ele>45.7</ele>
        <time>2020-08-15T14:41:36Z</time>
      </trkpt>
      <trkpt lat="48.67808" lon="-3.65719">
        <ele>46</ele>
        <time>2020-08-15T14:41:45Z</time>
      </trkpt>
      <trkpt lat="48.67796" lon="-3.65738">
        <ele>46.3</ele>
        <time>2020-08-15T14:41:54Z</time>
      </trkpt>
      <trkpt lat="48.67787" lon="-3.6575">
        <ele>46.1</ele>
        <time>2020-08-15T14:42:01Z</time>
      </trkpt>
      <trkpt lat="48.67779" lon="-3.65756">
        <ele>46.5</ele>
        <time>2020-08-15T14:42:06Z</time>
      </trkpt>
      <trkpt lat="48.67767" lon="-3.65762">
        <ele>47</ele>
        <time>2020-08-15T14:42:12Z</time>
      </trkpt>
      <trkpt lat="48.67754" lon="-3.65769">
        <ele>47.3</ele>
        <time>2020-08-15T14:42:19Z</time>
      </trkpt>
      <trkpt lat="48.67739" lon="-3.65782">
        <ele>50.4</ele>
        <time>2020-08-15T14:42:28Z</time>
      </trkpt>
      <trkpt lat="48.67722" lon="-3.658">
        <ele>50.7</ele>
        <time>2020-08-15T14:42:39Z</time>
      </trkpt>
      <trkpt lat="48.67716" lon="-3.65806">
        <ele>50.9</ele>
        <time>2020-08-15T14:42:43Z</time>
      </trkpt>
      <trkpt lat="48.67708" lon="-3.65814">
        <ele>51.1</ele>
        <time>2020-08-15T14:42:49Z</time>
      </trkpt>
      <trkpt lat="48.67707" lon="-3.65815">
        <ele>51.1</ele>
        <time>2020-08-15T14:42:50Z</time>
      </trkpt>
      <trkpt lat="48.67699" lon="-3.65828">
        <ele>51.4</ele>
        <time>2020-08-15T14:42:58Z</time>
      </trkpt>
      <trkpt lat="48.67695" lon="-3.65837">
        <ele>50.7</ele>
        <time>2020-08-15T14:43:03Z</time>
      </trkpt>
      <trkpt lat="48.67693" lon="-3.65841">
        <ele>50.7</ele>
        <time>2020-08-15T14:43:07Z</time>
      </trkpt>
      <trkpt lat="48.67692" lon="-3.65845">
        <ele>50.7</ele>
        <time>2020-08-15T14:43:58Z</time>
      </trkpt>
      <trkpt lat="48.67687" lon="-3.65857">
        <ele>50.6</ele>
        <time>2020-08-15T14:44:03Z</time>
      </trkpt>
      <trkpt lat="48.67667" lon="-3.65867">
        <ele>50.8</ele>
        <time>2020-08-15T14:44:11Z</time>
      </trkpt>
      <trkpt lat="48.67651" lon="-3.6587">
        <ele>53.7</ele>
        <time>2020-08-15T14:44:17Z</time>
      </trkpt>
      <trkpt lat="48.67627" lon="-3.65878">
        <ele>54.2</ele>
        <time>2020-08-15T14:44:26Z</time>
      </trkpt>
      <trkpt lat="48.67612" lon="-3.65893">
        <ele>54.3</ele>
        <time>2020-08-15T14:44:32Z</time>
      </trkpt>
      <trkpt lat="48.676" lon="-3.65913">
        <ele>54.6</ele>
        <time>2020-08-15T14:44:38Z</time>
      </trkpt>
      <trkpt lat="48.67586" lon="-3.65936">
        <ele>54</ele>
        <time>2020-08-15T14:44:45Z</time>
      </trkpt>
      <trkpt lat="48.6756" lon="-3.65968">
        <ele>56.8</ele>
        <time>2020-08-15T14:44:55Z</time>
      </trkpt>
      <trkpt lat="48.67559" lon="-3.65969">
        <ele>56.8</ele>
        <time>2020-08-15T14:45:03Z</time>
      </trkpt>
      <trkpt lat="48.67522" lon="-3.66009">
        <ele>58.3</ele>
        <time>2020-08-15T14:45:09Z</time>
      </trkpt>
      <trkpt lat="48.67495" lon="-3.66031">
        <ele>60.4</ele>
        <time>2020-08-15T14:45:19Z</time>
      </trkpt>
      <trkpt lat="48.67467" lon="-3.66044">
        <ele>60.6</ele>
        <time>2020-08-15T14:45:29Z</time>
      </trkpt>
      <trkpt lat="48.67436" lon="-3.66055">
        <ele>61.1</ele>
        <time>2020-08-15T14:45:40Z</time>
      </trkpt>
      <trkpt lat="48.67432" lon="-3.66057">
        <ele>61.1</ele>
        <time>2020-08-15T14:45:47Z</time>
      </trkpt>
      <trkpt lat="48.67403" lon="-3.66078">
        <ele>62.5</ele>
        <time>2020-08-15T14:45:52Z</time>
      </trkpt>
      <trkpt lat="48.67386" lon="-3.66112">
        <ele>61.8</ele>
        <time>2020-08-15T14:46:01Z</time>
      </trkpt>
      <trkpt lat="48.67367" lon="-3.6614">
        <ele>61.6</ele>
        <time>2020-08-15T14:46:10Z</time>
      </trkpt>
      <trkpt lat="48.6735" lon="-3.66169">
        <ele>60.8</ele>
        <time>2020-08-15T14:46:18Z</time>
      </trkpt>
      <trkpt lat="48.6734" lon="-3.66193">
        <ele>60.6</ele>
        <time>2020-08-15T14:46:24Z</time>
      </trkpt>
      <trkpt lat="48.67332" lon="-3.66222">
        <ele>61.1</ele>
        <time>2020-08-15T14:46:30Z</time>
      </trkpt>
      <trkpt lat="48.67327" lon="-3.66266">
        <ele>60.3</ele>
        <time>2020-08-15T14:46:37Z</time>
      </trkpt>
      <trkpt lat="48.67326" lon="-3.66291">
        <ele>60.3</ele>
        <time>2020-08-15T14:46:41Z</time>
      </trkpt>
      <trkpt lat="48.67324" lon="-3.66311">
        <ele>60</ele>
        <time>2020-08-15T14:46:46Z</time>
      </trkpt>
      <trkpt lat="48.67297" lon="-3.663">
        <ele>60.6</ele>
        <time>2020-08-15T14:46:55Z</time>
      </trkpt>
      <trkpt lat="48.67278" lon="-3.66297">
        <ele>60.9</ele>
        <time>2020-08-15T14:47:02Z</time>
      </trkpt>
      <trkpt lat="48.67252" lon="-3.66299">
        <ele>61.1</ele>
        <time>2020-08-15T14:47:11Z</time>
      </trkpt>
      <trkpt lat="48.67216" lon="-3.66313">
        <ele>62.5</ele>
        <time>2020-08-15T14:47:23Z</time>
      </trkpt>
      <trkpt lat="48.6719" lon="-3.66324">
        <ele>62.6</ele>
        <time>2020-08-15T14:47:32Z</time>
      </trkpt>
      <trkpt lat="48.67165" lon="-3.66332">
        <ele>62.3</ele>
        <time>2020-08-15T14:47:40Z</time>
      </trkpt>
      <trkpt lat="48.67135" lon="-3.66334">
        <ele>62.1</ele>
        <time>2020-08-15T14:47:49Z</time>
      </trkpt>
      <trkpt lat="48.67099" lon="-3.66335">
        <ele>63.4</ele>
        <time>2020-08-15T14:48:00Z</time>
      </trkpt>
      <trkpt lat="48.67078" lon="-3.66329">
        <ele>66.3</ele>
        <time>2020-08-15T14:48:08Z</time>
      </trkpt>
      <trkpt lat="48.67073" lon="-3.66328">
        <ele>67</ele>
        <time>2020-08-15T14:48:13Z</time>
      </trkpt>
      <trkpt lat="48.6706" lon="-3.66333">
        <ele>68.2</ele>
        <time>2020-08-15T14:48:41Z</time>
      </trkpt>
      <trkpt lat="48.67049" lon="-3.66354">
        <ele>66.1</ele>
        <time>2020-08-15T14:48:47Z</time>
      </trkpt>
      <trkpt lat="48.67026" lon="-3.66389">
        <ele>65.9</ele>
        <time>2020-08-15T14:48:55Z</time>
      </trkpt>
      <trkpt lat="48.66999" lon="-3.66421">
        <ele>66</ele>
        <time>2020-08-15T14:49:03Z</time>
      </trkpt>
      <trkpt lat="48.66963" lon="-3.66457">
        <ele>66.1</ele>
        <time>2020-08-15T14:49:13Z</time>
      </trkpt>
      <trkpt lat="48.66926" lon="-3.66484">
        <ele>66.3</ele>
        <time>2020-08-15T14:49:23Z</time>
      </trkpt>
      <trkpt lat="48.66896" lon="-3.66504">
        <ele>66.3</ele>
        <time>2020-08-15T14:49:31Z</time>
      </trkpt>
      <trkpt lat="48.66853" lon="-3.66541">
        <ele>66.6</ele>
        <time>2020-08-15T14:49:42Z</time>
      </trkpt>
      <trkpt lat="48.66828" lon="-3.6656">
        <ele>67.4</ele>
        <time>2020-08-15T14:49:49Z</time>
      </trkpt>
      <trkpt lat="48.66801" lon="-3.66576">
        <ele>67.5</ele>
        <time>2020-08-15T14:49:56Z</time>
      </trkpt>
      <trkpt lat="48.6675" lon="-3.66609">
        <ele>65.2</ele>
        <time>2020-08-15T14:50:08Z</time>
      </trkpt>
      <trkpt lat="48.66706" lon="-3.66632">
        <ele>64.1</ele>
        <time>2020-08-15T14:50:18Z</time>
      </trkpt>
      <trkpt lat="48.66669" lon="-3.66662">
        <ele>62.4</ele>
        <time>2020-08-15T14:50:24Z</time>
      </trkpt>
      <trkpt lat="48.66618" lon="-3.6669">
        <ele>61.1</ele>
        <time>2020-08-15T14:50:33Z</time>
      </trkpt>
      <trkpt lat="48.66557" lon="-3.66731">
        <ele>60.4</ele>
        <time>2020-08-15T14:50:43Z</time>
      </trkpt>
      <trkpt lat="48.66521" lon="-3.66764">
        <ele>61</ele>
        <time>2020-08-15T14:50:50Z</time>
      </trkpt>
      <trkpt lat="48.66469" lon="-3.66826">
        <ele>62</ele>
        <time>2020-08-15T14:51:02Z</time>
      </trkpt>
      <trkpt lat="48.66434" lon="-3.66868">
        <ele>62.9</ele>
        <time>2020-08-15T14:51:10Z</time>
      </trkpt>
      <trkpt lat="48.66403" lon="-3.669">
        <ele>62.8</ele>
        <time>2020-08-15T14:51:17Z</time>
      </trkpt>
      <trkpt lat="48.66371" lon="-3.6692">
        <ele>63.1</ele>
        <time>2020-08-15T14:51:24Z</time>
      </trkpt>
      <trkpt lat="48.6633" lon="-3.66932">
        <ele>62.6</ele>
        <time>2020-08-15T14:51:32Z</time>
      </trkpt>
      <trkpt lat="48.66303" lon="-3.66937">
        <ele>62.9</ele>
        <time>2020-08-15T14:51:38Z</time>
      </trkpt>
      <trkpt lat="48.66292" lon="-3.66938">
        <ele>63</ele>
        <time>2020-08-15T14:51:44Z</time>
      </trkpt>
      <trkpt lat="48.66238" lon="-3.66945">
        <ele>63.2</ele>
        <time>2020-08-15T14:51:53Z</time>
      </trkpt>
      <trkpt lat="48.66204" lon="-3.66952">
        <ele>63.4</ele>
        <time>2020-08-15T14:52:01Z</time>
      </trkpt>
      <trkpt lat="48.6616" lon="-3.66961">
        <ele>64.5</ele>
        <time>2020-08-15T14:52:12Z</time>
      </trkpt>
      <trkpt lat="48.66118" lon="-3.66972">
        <ele>65.2</ele>
        <time>2020-08-15T14:52:23Z</time>
      </trkpt>
      <trkpt lat="48.66085" lon="-3.66984">
        <ele>66.1</ele>
        <time>2020-08-15T14:52:32Z</time>
      </trkpt>
      <trkpt lat="48.66051" lon="-3.66999">
        <ele>67.1</ele>
        <time>2020-08-15T14:52:42Z</time>
      </trkpt>
      <trkpt lat="48.66015" lon="-3.67014">
        <ele>68.2</ele>
        <time>2020-08-15T14:52:53Z</time>
      </trkpt>
      <trkpt lat="48.65987" lon="-3.67027">
        <ele>69.4</ele>
        <time>2020-08-15T14:53:02Z</time>
      </trkpt>
      <trkpt lat="48.65959" lon="-3.67039">
        <ele>70</ele>
        <time>2020-08-15T14:53:12Z</time>
      </trkpt>
      <trkpt lat="48.65931" lon="-3.67053">
        <ele>70.5</ele>
        <time>2020-08-15T14:53:22Z</time>
      </trkpt>
      <trkpt lat="48.65898" lon="-3.67068">
        <ele>71.8</ele>
        <time>2020-08-15T14:53:34Z</time>
      </trkpt>
      <trkpt lat="48.65867" lon="-3.67085">
        <ele>72.9</ele>
        <time>2020-08-15T14:53:46Z</time>
      </trkpt>
      <trkpt lat="48.65837" lon="-3.67098">
        <ele>73</ele>
        <time>2020-08-15T14:53:57Z</time>
      </trkpt>
      <trkpt lat="48.65807" lon="-3.67111">
        <ele>74</ele>
        <time>2020-08-15T14:54:08Z</time>
      </trkpt>
      <trkpt lat="48.65788" lon="-3.67119">
        <ele>74.2</ele>
        <time>2020-08-15T14:54:15Z</time>
      </trkpt>
      <trkpt lat="48.65762" lon="-3.67133">
        <ele>74.6</ele>
        <time>2020-08-15T14:54:24Z</time>
      </trkpt>
      <trkpt lat="48.65717" lon="-3.67154">
        <ele>76.2</ele>
        <time>2020-08-15T14:54:38Z</time>
      </trkpt>
      <trkpt lat="48.65673" lon="-3.6718">
        <ele>77.9</ele>
        <time>2020-08-15T14:54:52Z</time>
      </trkpt>
      <trkpt lat="48.65644" lon="-3.672">
        <ele>78.7</ele>
        <time>2020-08-15T14:55:01Z</time>
      </trkpt>
      <trkpt lat="48.65623" lon="-3.67216">
        <ele>78.8</ele>
        <time>2020-08-15T14:55:08Z</time>
      </trkpt>
      <trkpt lat="48.65602" lon="-3.67233">
        <ele>78.9</ele>
        <time>2020-08-15T14:55:17Z</time>
      </trkpt>
      <trkpt lat="48.65581" lon="-3.67258">
        <ele>78.7</ele>
        <time>2020-08-15T14:55:26Z</time>
      </trkpt>
      <trkpt lat="48.6556" lon="-3.67268">
        <ele>78.3</ele>
        <time>2020-08-15T14:55:33Z</time>
      </trkpt>
      <trkpt lat="48.65539" lon="-3.67287">
        <ele>78</ele>
        <time>2020-08-15T14:55:40Z</time>
      </trkpt>
      <trkpt lat="48.65512" lon="-3.67312">
        <ele>77.6</ele>
        <time>2020-08-15T14:55:49Z</time>
      </trkpt>
      <trkpt lat="48.65485" lon="-3.67333">
        <ele>76.7</ele>
        <time>2020-08-15T14:55:58Z</time>
      </trkpt>
      <trkpt lat="48.65465" lon="-3.67344">
        <ele>76.9</ele>
        <time>2020-08-15T14:56:04Z</time>
      </trkpt>
      <trkpt lat="48.65429" lon="-3.67362">
        <ele>76.8</ele>
        <time>2020-08-15T14:56:14Z</time>
      </trkpt>
      <trkpt lat="48.65403" lon="-3.67375">
        <ele>76.6</ele>
        <time>2020-08-15T14:56:22Z</time>
      </trkpt>
      <trkpt lat="48.65383" lon="-3.67382">
        <ele>76.6</ele>
        <time>2020-08-15T14:56:29Z</time>
      </trkpt>
      <trkpt lat="48.65379" lon="-3.67383">
        <ele>76.6</ele>
        <time>2020-08-15T14:56:33Z</time>
      </trkpt>
      <trkpt lat="48.65377" lon="-3.67384">
        <ele>76.6</ele>
        <time>2020-08-15T14:57:03Z</time>
      </trkpt>
      <trkpt lat="48.65374" lon="-3.67384">
        <ele>76.6</ele>
        <time>2020-08-15T14:57:08Z</time>
      </trkpt>
      <trkpt lat="48.65352" lon="-3.67433">
        <ele>77.4</ele>
        <time>2020-08-15T14:57:16Z</time>
      </trkpt>
      <trkpt lat="48.6533" lon="-3.67473">
        <ele>76.9</ele>
        <time>2020-08-15T14:57:26Z</time>
      </trkpt>
      <trkpt lat="48.65307" lon="-3.67515">
        <ele>77.4</ele>
        <time>2020-08-15T14:57:36Z</time>
      </trkpt>
      <trkpt lat="48.65287" lon="-3.67551">
        <ele>77.2</ele>
        <time>2020-08-15T14:57:44Z</time>
      </trkpt>
      <trkpt lat="48.65265" lon="-3.67594">
        <ele>77.3</ele>
        <time>2020-08-15T14:57:53Z</time>
      </trkpt>
      <trkpt lat="48.65248" lon="-3.67621">
        <ele>76.7</ele>
        <time>2020-08-15T14:57:59Z</time>
      </trkpt>
      <trkpt lat="48.65224" lon="-3.67656">
        <ele>76.8</ele>
        <time>2020-08-15T14:58:07Z</time>
      </trkpt>
      <trkpt lat="48.65217" lon="-3.67665">
        <ele>76.7</ele>
        <time>2020-08-15T14:58:09Z</time>
      </trkpt>
      <trkpt lat="48.65203" lon="-3.67681">
        <ele>76.7</ele>
        <time>2020-08-15T14:58:13Z</time>
      </trkpt>
      <trkpt lat="48.65188" lon="-3.67695">
        <ele>76.6</ele>
        <time>2020-08-15T14:58:17Z</time>
      </trkpt>
      <trkpt lat="48.65152" lon="-3.67734">
        <ele>75.6</ele>
        <time>2020-08-15T14:58:27Z</time>
      </trkpt>
      <trkpt lat="48.65141" lon="-3.67751">
        <ele>75.4</ele>
        <time>2020-08-15T14:58:33Z</time>
      </trkpt>
      <trkpt lat="48.65141" lon="-3.67751">
        <ele>75.4</ele>
        <time>2020-08-15T14:58:34Z</time>
      </trkpt>
      <trkpt lat="48.65143" lon="-3.67839">
        <ele>74.4</ele>
        <time>2020-08-15T14:58:43Z</time>
      </trkpt>
      <trkpt lat="48.65145" lon="-3.67853">
        <ele>74.3</ele>
        <time>2020-08-15T14:58:47Z</time>
      </trkpt>
      <trkpt lat="48.65141" lon="-3.67751">
        <ele>75.4</ele>
        <time>2020-08-15T14:58:52Z</time>
      </trkpt>
      <trkpt lat="48.65141" lon="-3.67751">
        <ele>75.4</ele>
        <time>2020-08-15T14:59:02Z</time>
      </trkpt>
      <trkpt lat="48.65141" lon="-3.67751">
        <ele>75.4</ele>
        <time>2020-08-15T14:59:27Z</time>
      </trkpt>
      <trkpt lat="48.65141" lon="-3.67751">
        <ele>75.4</ele>
        <time>2020-08-15T14:59:33Z</time>
      </trkpt>
      <trkpt lat="48.65141" lon="-3.67751">
        <ele>75.4</ele>
        <time>2020-08-15T15:01:26Z</time>
      </trkpt>
      <trkpt lat="48.65141" lon="-3.67751">
        <ele>75.4</ele>
        <time>2020-08-15T15:01:31Z</time>
      </trkpt>
      <trkpt lat="48.65141" lon="-3.67751">
        <ele>75.4</ele>
        <time>2020-08-15T15:01:36Z</time>
      </trkpt>
      <trkpt lat="48.65141" lon="-3.67751">
        <ele>75.4</ele>
        <time>2020-08-15T15:01:38Z</time>
      </trkpt>
      <trkpt lat="48.65141" lon="-3.67751">
        <ele>75.4</ele>
        <time>2020-08-15T15:01:40Z</time>
      </trkpt>
      <trkpt lat="48.65146" lon="-3.67854">
        <ele>74.3</ele>
        <time>2020-08-15T15:01:44Z</time>
      </trkpt>
      <trkpt lat="48.65148" lon="-3.67862">
        <ele>74.2</ele>
        <time>2020-08-15T15:01:49Z</time>
      </trkpt>
      <trkpt lat="48.6515" lon="-3.67872">
        <ele>74</ele>
        <time>2020-08-15T15:01:52Z</time>
      </trkpt>
      <trkpt lat="48.65156" lon="-3.6791">
        <ele>73.4</ele>
        <time>2020-08-15T15:02:00Z</time>
      </trkpt>
      <trkpt lat="48.65159" lon="-3.67946">
        <ele>71.7</ele>
        <time>2020-08-15T15:02:06Z</time>
      </trkpt>
      <trkpt lat="48.65162" lon="-3.67986">
        <ele>70.1</ele>
        <time>2020-08-15T15:02:13Z</time>
      </trkpt>
      <trkpt lat="48.65163" lon="-3.67996">
        <ele>69.5</ele>
        <time>2020-08-15T15:02:15Z</time>
      </trkpt>
      <trkpt lat="48.65178" lon="-3.68003">
        <ele>68</ele>
        <time>2020-08-15T15:02:20Z</time>
      </trkpt>
      <trkpt lat="48.65181" lon="-3.68003">
        <ele>67.9</ele>
        <time>2020-08-15T15:02:24Z</time>
      </trkpt>
      <trkpt lat="48.65166" lon="-3.68014">
        <ele>68.2</ele>
        <time>2020-08-15T15:02:33Z</time>
      </trkpt>
      <trkpt lat="48.65166" lon="-3.68015">
        <ele>68.1</ele>
        <time>2020-08-15T15:02:36Z</time>
      </trkpt>
      <trkpt lat="48.65166" lon="-3.68015">
        <ele>68.1</ele>
        <time>2020-08-15T15:02:40Z</time>
      </trkpt>
      <trkpt lat="48.65165" lon="-3.68007">
        <ele>68.5</ele>
        <time>2020-08-15T15:02:48Z</time>
      </trkpt>
      <trkpt lat="48.65184" lon="-3.67995">
        <ele>69.3</ele>
        <time>2020-08-15T15:02:55Z</time>
      </trkpt>
      <trkpt lat="48.65181" lon="-3.67993">
        <ele>69.3</ele>
        <time>2020-08-15T16:04:20Z</time>
      </trkpt>
      <trkpt lat="48.65181" lon="-3.67992">
        <ele>69.3</ele>
        <time>2020-08-15T16:04:25Z</time>
      </trkpt>
      <trkpt lat="48.65186" lon="-3.67997">
        <ele>69.3</ele>
        <time>2020-08-15T16:36:15Z</time>
      </trkpt>
      <trkpt lat="48.65178" lon="-3.68005">
        <ele>68</ele>
        <time>2020-08-15T16:36:32Z</time>
      </trkpt>
      <trkpt lat="48.65173" lon="-3.68005">
        <ele>68.3</ele>
        <time>2020-08-15T16:36:35Z</time>
      </trkpt>
      <trkpt lat="48.65164" lon="-3.68">
        <ele>68.8</ele>
        <time>2020-08-15T16:36:40Z</time>
      </trkpt>
      <trkpt lat="48.65162" lon="-3.67984">
        <ele>70.2</ele>
        <time>2020-08-15T16:36:47Z</time>
      </trkpt>
      <trkpt lat="48.65161" lon="-3.67977">
        <ele>70.6</ele>
        <time>2020-08-15T16:36:50Z</time>
      </trkpt>
      <trkpt lat="48.65159" lon="-3.67952">
        <ele>71.5</ele>
        <time>2020-08-15T16:37:01Z</time>
      </trkpt>
      <trkpt lat="48.65158" lon="-3.67928">
        <ele>72.3</ele>
        <time>2020-08-15T16:37:10Z</time>
      </trkpt>
      <trkpt lat="48.65156" lon="-3.67903">
        <ele>73.5</ele>
        <time>2020-08-15T16:37:20Z</time>
      </trkpt>
      <trkpt lat="48.65152" lon="-3.67882">
        <ele>73.9</ele>
        <time>2020-08-15T16:37:28Z</time>
      </trkpt>
      <trkpt lat="48.65148" lon="-3.67864">
        <ele>74.1</ele>
        <time>2020-08-15T16:37:35Z</time>
      </trkpt>
      <trkpt lat="48.65144" lon="-3.67847">
        <ele>74.3</ele>
        <time>2020-08-15T16:37:42Z</time>
      </trkpt>
      <trkpt lat="48.65141" lon="-3.6782">
        <ele>75</ele>
        <time>2020-08-15T16:37:52Z</time>
      </trkpt>
      <trkpt lat="48.65137" lon="-3.67793">
        <ele>75.1</ele>
        <time>2020-08-15T16:38:02Z</time>
      </trkpt>
      <trkpt lat="48.65138" lon="-3.67774">
        <ele>75.2</ele>
        <time>2020-08-15T16:38:08Z</time>
      </trkpt>
      <trkpt lat="48.65141" lon="-3.67751">
        <ele>75.4</ele>
        <time>2020-08-15T16:38:15Z</time>
      </trkpt>
      <trkpt lat="48.65161" lon="-3.67724">
        <ele>75.6</ele>
        <time>2020-08-15T16:38:23Z</time>
      </trkpt>
      <trkpt lat="48.65187" lon="-3.67697">
        <ele>76.6</ele>
        <time>2020-08-15T16:38:33Z</time>
      </trkpt>
      <trkpt lat="48.652" lon="-3.67683">
        <ele>76.7</ele>
        <time>2020-08-15T16:38:40Z</time>
      </trkpt>
      <trkpt lat="48.65221" lon="-3.67659">
        <ele>76.8</ele>
        <time>2020-08-15T16:38:49Z</time>
      </trkpt>
      <trkpt lat="48.65234" lon="-3.67642">
        <ele>76.8</ele>
        <time>2020-08-15T16:38:55Z</time>
      </trkpt>
      <trkpt lat="48.65247" lon="-3.67622">
        <ele>76.7</ele>
        <time>2020-08-15T16:39:02Z</time>
      </trkpt>
      <trkpt lat="48.65259" lon="-3.67604">
        <ele>77.3</ele>
        <time>2020-08-15T16:39:08Z</time>
      </trkpt>
      <trkpt lat="48.65274" lon="-3.67576">
        <ele>77.2</ele>
        <time>2020-08-15T16:39:15Z</time>
      </trkpt>
      <trkpt lat="48.65297" lon="-3.67533">
        <ele>77.3</ele>
        <time>2020-08-15T16:39:25Z</time>
      </trkpt>
      <trkpt lat="48.65319" lon="-3.67494">
        <ele>77.2</ele>
        <time>2020-08-15T16:39:35Z</time>
      </trkpt>
      <trkpt lat="48.65336" lon="-3.67461">
        <ele>77.5</ele>
        <time>2020-08-15T16:39:45Z</time>
      </trkpt>
      <trkpt lat="48.65348" lon="-3.67441">
        <ele>77.4</ele>
        <time>2020-08-15T16:39:52Z</time>
      </trkpt>
      <trkpt lat="48.65361" lon="-3.67415">
        <ele>76.8</ele>
        <time>2020-08-15T16:40:00Z</time>
      </trkpt>
      <trkpt lat="48.65371" lon="-3.67394">
        <ele>76.7</ele>
        <time>2020-08-15T16:40:07Z</time>
      </trkpt>
      <trkpt lat="48.65374" lon="-3.67384">
        <ele>76.6</ele>
        <time>2020-08-15T16:40:14Z</time>
      </trkpt>
      <trkpt lat="48.65374" lon="-3.67384">
        <ele>76.6</ele>
        <time>2020-08-15T16:40:16Z</time>
      </trkpt>
      <trkpt lat="48.65374" lon="-3.67384">
        <ele>76.6</ele>
        <time>2020-08-15T16:40:50Z</time>
      </trkpt>
      <trkpt lat="48.65374" lon="-3.67384">
        <ele>76.6</ele>
        <time>2020-08-15T16:40:56Z</time>
      </trkpt>
      <trkpt lat="48.65398" lon="-3.67378">
        <ele>76.7</ele>
        <time>2020-08-15T16:40:57Z</time>
      </trkpt>
      <trkpt lat="48.65424" lon="-3.67364">
        <ele>76.8</ele>
        <time>2020-08-15T16:41:06Z</time>
      </trkpt>
      <trkpt lat="48.65452" lon="-3.67351">
        <ele>76.8</ele>
        <time>2020-08-15T16:41:15Z</time>
      </trkpt>
      <trkpt lat="48.65484" lon="-3.67334">
        <ele>76.9</ele>
        <time>2020-08-15T16:41:24Z</time>
      </trkpt>
      <trkpt lat="48.65516" lon="-3.67308">
        <ele>77.7</ele>
        <time>2020-08-15T16:41:34Z</time>
      </trkpt>
      <trkpt lat="48.65547" lon="-3.67279">
        <ele>78.1</ele>
        <time>2020-08-15T16:41:44Z</time>
      </trkpt>
      <trkpt lat="48.65585" lon="-3.67248">
        <ele>79</ele>
        <time>2020-08-15T16:41:56Z</time>
      </trkpt>
      <trkpt lat="48.65612" lon="-3.67226">
        <ele>78.8</ele>
        <time>2020-08-15T16:42:05Z</time>
      </trkpt>
      <trkpt lat="48.65636" lon="-3.67206">
        <ele>78.8</ele>
        <time>2020-08-15T16:42:13Z</time>
      </trkpt>
      <trkpt lat="48.65657" lon="-3.67191">
        <ele>78.6</ele>
        <time>2020-08-15T16:42:19Z</time>
      </trkpt>
      <trkpt lat="48.65689" lon="-3.6717">
        <ele>77.8</ele>
        <time>2020-08-15T16:42:27Z</time>
      </trkpt>
      <trkpt lat="48.65735" lon="-3.67145">
        <ele>76</ele>
        <time>2020-08-15T16:42:36Z</time>
      </trkpt>
      <trkpt lat="48.65799" lon="-3.67115">
        <ele>74.1</ele>
        <time>2020-08-15T16:42:47Z</time>
      </trkpt>
      <trkpt lat="48.65871" lon="-3.67083">
        <ele>72.1</ele>
        <time>2020-08-15T16:42:59Z</time>
      </trkpt>
      <trkpt lat="48.65937" lon="-3.6705">
        <ele>70.4</ele>
        <time>2020-08-15T16:43:10Z</time>
      </trkpt>
      <trkpt lat="48.66017" lon="-3.67013">
        <ele>68.1</ele>
        <time>2020-08-15T16:43:23Z</time>
      </trkpt>
      <trkpt lat="48.66074" lon="-3.66989">
        <ele>67</ele>
        <time>2020-08-15T16:43:32Z</time>
      </trkpt>
      <trkpt lat="48.66127" lon="-3.6697">
        <ele>65</ele>
        <time>2020-08-15T16:43:40Z</time>
      </trkpt>
      <trkpt lat="48.66195" lon="-3.66954">
        <ele>63.5</ele>
        <time>2020-08-15T16:43:50Z</time>
      </trkpt>
      <trkpt lat="48.66265" lon="-3.66941">
        <ele>62.9</ele>
        <time>2020-08-15T16:44:00Z</time>
      </trkpt>
      <trkpt lat="48.66292" lon="-3.66938">
        <ele>63</ele>
        <time>2020-08-15T16:44:05Z</time>
      </trkpt>
      <trkpt lat="48.66339" lon="-3.6693">
        <ele>62.6</ele>
        <time>2020-08-15T16:44:14Z</time>
      </trkpt>
      <trkpt lat="48.66371" lon="-3.66919">
        <ele>63.1</ele>
        <time>2020-08-15T16:44:22Z</time>
      </trkpt>
      <trkpt lat="48.66409" lon="-3.66895">
        <ele>62.8</ele>
        <time>2020-08-15T16:44:32Z</time>
      </trkpt>
      <trkpt lat="48.66441" lon="-3.6686">
        <ele>62.8</ele>
        <time>2020-08-15T16:44:41Z</time>
      </trkpt>
      <trkpt lat="48.66472" lon="-3.66826">
        <ele>62</ele>
        <time>2020-08-15T16:44:49Z</time>
      </trkpt>
      <trkpt lat="48.66499" lon="-3.66793">
        <ele>61.7</ele>
        <time>2020-08-15T16:44:57Z</time>
      </trkpt>
      <trkpt lat="48.6653" lon="-3.66755">
        <ele>60.9</ele>
        <time>2020-08-15T16:45:07Z</time>
      </trkpt>
      <trkpt lat="48.66564" lon="-3.66726">
        <ele>60.4</ele>
        <time>2020-08-15T16:45:16Z</time>
      </trkpt>
      <trkpt lat="48.66603" lon="-3.66699">
        <ele>60.9</ele>
        <time>2020-08-15T16:45:26Z</time>
      </trkpt>
      <trkpt lat="48.66635" lon="-3.6668">
        <ele>61.2</ele>
        <time>2020-08-15T16:45:35Z</time>
      </trkpt>
      <trkpt lat="48.66661" lon="-3.66663">
        <ele>62.1</ele>
        <time>2020-08-15T16:45:44Z</time>
      </trkpt>
      <trkpt lat="48.66689" lon="-3.66644">
        <ele>63.6</ele>
        <time>2020-08-15T16:45:55Z</time>
      </trkpt>
      <trkpt lat="48.66714" lon="-3.66628">
        <ele>64.2</ele>
        <time>2020-08-15T16:46:05Z</time>
      </trkpt>
      <trkpt lat="48.6674" lon="-3.66612">
        <ele>65</ele>
        <time>2020-08-15T16:46:16Z</time>
      </trkpt>
      <trkpt lat="48.6677" lon="-3.6659">
        <ele>65.5</ele>
        <time>2020-08-15T16:46:27Z</time>
      </trkpt>
      <trkpt lat="48.66795" lon="-3.66572">
        <ele>67.7</ele>
        <time>2020-08-15T16:46:36Z</time>
      </trkpt>
      <trkpt lat="48.66825" lon="-3.6655">
        <ele>68</ele>
        <time>2020-08-15T16:46:46Z</time>
      </trkpt>
      <trkpt lat="48.66861" lon="-3.66527">
        <ele>67.1</ele>
        <time>2020-08-15T16:46:57Z</time>
      </trkpt>
      <trkpt lat="48.66897" lon="-3.66503">
        <ele>66.3</ele>
        <time>2020-08-15T16:47:07Z</time>
      </trkpt>
      <trkpt lat="48.66945" lon="-3.6647">
        <ele>66.3</ele>
        <time>2020-08-15T16:47:19Z</time>
      </trkpt>
      <trkpt lat="48.66988" lon="-3.66432">
        <ele>66.1</ele>
        <time>2020-08-15T16:47:30Z</time>
      </trkpt>
      <trkpt lat="48.67021" lon="-3.66396">
        <ele>65.8</ele>
        <time>2020-08-15T16:47:39Z</time>
      </trkpt>
      <trkpt lat="48.67043" lon="-3.66365">
        <ele>66</ele>
        <time>2020-08-15T16:47:46Z</time>
      </trkpt>
      <trkpt lat="48.67063" lon="-3.66327">
        <ele>68.1</ele>
        <time>2020-08-15T16:47:55Z</time>
      </trkpt>
      <trkpt lat="48.67065" lon="-3.66323">
        <ele>68.1</ele>
        <time>2020-08-15T16:47:56Z</time>
      </trkpt>
      <trkpt lat="48.67082" lon="-3.6633">
        <ele>65.7</ele>
        <time>2020-08-15T16:48:01Z</time>
      </trkpt>
      <trkpt lat="48.67116" lon="-3.66334">
        <ele>62.5</ele>
        <time>2020-08-15T16:48:08Z</time>
      </trkpt>
      <trkpt lat="48.67159" lon="-3.66333">
        <ele>63</ele>
        <time>2020-08-15T16:48:17Z</time>
      </trkpt>
      <trkpt lat="48.67195" lon="-3.66322">
        <ele>62.6</ele>
        <time>2020-08-15T16:48:25Z</time>
      </trkpt>
      <trkpt lat="48.67234" lon="-3.66305">
        <ele>62.4</ele>
        <time>2020-08-15T16:48:34Z</time>
      </trkpt>
      <trkpt lat="48.67272" lon="-3.66296">
        <ele>61</ele>
        <time>2020-08-15T16:48:42Z</time>
      </trkpt>
      <trkpt lat="48.67309" lon="-3.66304">
        <ele>60.4</ele>
        <time>2020-08-15T16:48:49Z</time>
      </trkpt>
      <trkpt lat="48.67348" lon="-3.66327">
        <ele>59.1</ele>
        <time>2020-08-15T16:48:56Z</time>
      </trkpt>
      <trkpt lat="48.67404" lon="-3.66366">
        <ele>57.5</ele>
        <time>2020-08-15T16:49:06Z</time>
      </trkpt>
      <trkpt lat="48.67455" lon="-3.66396">
        <ele>55.8</ele>
        <time>2020-08-15T16:49:15Z</time>
      </trkpt>
      <trkpt lat="48.67512" lon="-3.66428">
        <ele>54</ele>
        <time>2020-08-15T16:49:26Z</time>
      </trkpt>
      <trkpt lat="48.67526" lon="-3.66437">
        <ele>54</ele>
        <time>2020-08-15T16:49:34Z</time>
      </trkpt>
      <trkpt lat="48.67579" lon="-3.66471">
        <ele>54</ele>
        <time>2020-08-15T16:49:40Z</time>
      </trkpt>
      <trkpt lat="48.67612" lon="-3.66506">
        <ele>53.9</ele>
        <time>2020-08-15T16:49:49Z</time>
      </trkpt>
      <trkpt lat="48.6765" lon="-3.66533">
        <ele>53.9</ele>
        <time>2020-08-15T16:49:58Z</time>
      </trkpt>
      <trkpt lat="48.67682" lon="-3.66554">
        <ele>53.8</ele>
        <time>2020-08-15T16:50:06Z</time>
      </trkpt>
      <trkpt lat="48.67718" lon="-3.66577">
        <ele>53.5</ele>
        <time>2020-08-15T16:50:14Z</time>
      </trkpt>
      <trkpt lat="48.67744" lon="-3.66603">
        <ele>53.4</ele>
        <time>2020-08-15T16:50:21Z</time>
      </trkpt>
      <trkpt lat="48.6777" lon="-3.66623">
        <ele>52.1</ele>
        <time>2020-08-15T16:50:28Z</time>
      </trkpt>
      <trkpt lat="48.67793" lon="-3.66646">
        <ele>51.7</ele>
        <time>2020-08-15T16:50:36Z</time>
      </trkpt>
      <trkpt lat="48.67795" lon="-3.66649">
        <ele>51.6</ele>
        <time>2020-08-15T16:50:41Z</time>
      </trkpt>
      <trkpt lat="48.67821" lon="-3.66643">
        <ele>51.1</ele>
        <time>2020-08-15T16:50:45Z</time>
      </trkpt>
      <trkpt lat="48.67825" lon="-3.66626">
        <ele>51.3</ele>
        <time>2020-08-15T16:50:48Z</time>
      </trkpt>
      <trkpt lat="48.67825" lon="-3.66578">
        <ele>51.4</ele>
        <time>2020-08-15T16:50:55Z</time>
      </trkpt>
      <trkpt lat="48.67834" lon="-3.66523">
        <ele>51.4</ele>
        <time>2020-08-15T16:51:03Z</time>
      </trkpt>
      <trkpt lat="48.67848" lon="-3.66482">
        <ele>51.9</ele>
        <time>2020-08-15T16:51:11Z</time>
      </trkpt>
      <trkpt lat="48.67858" lon="-3.66453">
        <ele>51.9</ele>
        <time>2020-08-15T16:51:17Z</time>
      </trkpt>
      <trkpt lat="48.67874" lon="-3.66422">
        <ele>51.9</ele>
        <time>2020-08-15T16:51:24Z</time>
      </trkpt>
      <trkpt lat="48.67899" lon="-3.66396">
        <ele>51.5</ele>
        <time>2020-08-15T16:51:32Z</time>
      </trkpt>
      <trkpt lat="48.67911" lon="-3.66387">
        <ele>51.5</ele>
        <time>2020-08-15T16:51:35Z</time>
      </trkpt>
      <trkpt lat="48.67939" lon="-3.66356">
        <ele>51.7</ele>
        <time>2020-08-15T16:51:44Z</time>
      </trkpt>
      <trkpt lat="48.67958" lon="-3.6633">
        <ele>51.7</ele>
        <time>2020-08-15T16:51:51Z</time>
      </trkpt>
      <trkpt lat="48.67987" lon="-3.663">
        <ele>51.9</ele>
        <time>2020-08-15T16:52:01Z</time>
      </trkpt>
      <trkpt lat="48.68018" lon="-3.6627">
        <ele>52.4</ele>
        <time>2020-08-15T16:52:11Z</time>
      </trkpt>
      <trkpt lat="48.68054" lon="-3.66235">
        <ele>52.1</ele>
        <time>2020-08-15T16:52:22Z</time>
      </trkpt>
      <trkpt lat="48.68093" lon="-3.66199">
        <ele>51.9</ele>
        <time>2020-08-15T16:52:33Z</time>
      </trkpt>
      <trkpt lat="48.68128" lon="-3.66164">
        <ele>50.4</ele>
        <time>2020-08-15T16:52:41Z</time>
      </trkpt>
      <trkpt lat="48.68155" lon="-3.66146">
        <ele>50.3</ele>
        <time>2020-08-15T16:52:46Z</time>
      </trkpt>
      <trkpt lat="48.68174" lon="-3.66127">
        <ele>49.9</ele>
        <time>2020-08-15T16:52:50Z</time>
      </trkpt>
      <trkpt lat="48.68207" lon="-3.66071">
        <ele>49</ele>
        <time>2020-08-15T16:53:00Z</time>
      </trkpt>
      <trkpt lat="48.68228" lon="-3.66032">
        <ele>49.2</ele>
        <time>2020-08-15T16:53:07Z</time>
      </trkpt>
      <trkpt lat="48.6826" lon="-3.65976">
        <ele>50.1</ele>
        <time>2020-08-15T16:53:17Z</time>
      </trkpt>
      <trkpt lat="48.68281" lon="-3.65946">
        <ele>50.1</ele>
        <time>2020-08-15T16:53:24Z</time>
      </trkpt>
      <trkpt lat="48.68291" lon="-3.65937">
        <ele>50.2</ele>
        <time>2020-08-15T16:53:29Z</time>
      </trkpt>
      <trkpt lat="48.68298" lon="-3.65933">
        <ele>50.3</ele>
        <time>2020-08-15T16:53:33Z</time>
      </trkpt>
      <trkpt lat="48.68314" lon="-3.6593">
        <ele>50.5</ele>
        <time>2020-08-15T16:53:40Z</time>
      </trkpt>
      <trkpt lat="48.68336" lon="-3.65926">
        <ele>50.8</ele>
        <time>2020-08-15T16:53:47Z</time>
      </trkpt>
      <trkpt lat="48.68362" lon="-3.6593">
        <ele>50.4</ele>
        <time>2020-08-15T16:53:54Z</time>
      </trkpt>
      <trkpt lat="48.68403" lon="-3.65942">
        <ele>49.9</ele>
        <time>2020-08-15T16:54:03Z</time>
      </trkpt>
      <trkpt lat="48.68438" lon="-3.65949">
        <ele>49.2</ele>
        <time>2020-08-15T16:54:10Z</time>
      </trkpt>
      <trkpt lat="48.68467" lon="-3.65944">
        <ele>49.1</ele>
        <time>2020-08-15T16:54:16Z</time>
      </trkpt>
      <trkpt lat="48.68502" lon="-3.65923">
        <ele>48.2</ele>
        <time>2020-08-15T16:54:24Z</time>
      </trkpt>
      <trkpt lat="48.68544" lon="-3.65897">
        <ele>48</ele>
        <time>2020-08-15T16:54:33Z</time>
      </trkpt>
      <trkpt lat="48.68579" lon="-3.65889">
        <ele>47.9</ele>
        <time>2020-08-15T16:54:40Z</time>
      </trkpt>
      <trkpt lat="48.68627" lon="-3.65872">
        <ele>47.5</ele>
        <time>2020-08-15T16:54:50Z</time>
      </trkpt>
      <trkpt lat="48.68658" lon="-3.65842">
        <ele>47.2</ele>
        <time>2020-08-15T16:54:58Z</time>
      </trkpt>
      <trkpt lat="48.6869" lon="-3.658">
        <ele>46.2</ele>
        <time>2020-08-15T16:55:07Z</time>
      </trkpt>
      <trkpt lat="48.68722" lon="-3.65762">
        <ele>45.7</ele>
        <time>2020-08-15T16:55:16Z</time>
      </trkpt>
      <trkpt lat="48.6873" lon="-3.65755">
        <ele>45.6</ele>
        <time>2020-08-15T16:55:18Z</time>
      </trkpt>
      <trkpt lat="48.6877" lon="-3.65721">
        <ele>45.1</ele>
        <time>2020-08-15T16:55:28Z</time>
      </trkpt>
      <trkpt lat="48.68802" lon="-3.65705">
        <ele>45.4</ele>
        <time>2020-08-15T16:55:36Z</time>
      </trkpt>
      <trkpt lat="48.6884" lon="-3.6569">
        <ele>46.8</ele>
        <time>2020-08-15T16:55:46Z</time>
      </trkpt>
      <trkpt lat="48.68859" lon="-3.65671">
        <ele>46.8</ele>
        <time>2020-08-15T16:55:52Z</time>
      </trkpt>
      <trkpt lat="48.68882" lon="-3.65648">
        <ele>46.6</ele>
        <time>2020-08-15T16:56:00Z</time>
      </trkpt>
      <trkpt lat="48.68898" lon="-3.6564">
        <ele>46.7</ele>
        <time>2020-08-15T16:56:06Z</time>
      </trkpt>
      <trkpt lat="48.68909" lon="-3.65633">
        <ele>46.7</ele>
        <time>2020-08-15T16:56:11Z</time>
      </trkpt>
      <trkpt lat="48.6891" lon="-3.65632">
        <ele>46.7</ele>
        <time>2020-08-15T16:56:16Z</time>
      </trkpt>
      <trkpt lat="48.68906" lon="-3.65601">
        <ele>46.7</ele>
        <time>2020-08-15T16:56:22Z</time>
      </trkpt>
      <trkpt lat="48.68905" lon="-3.65589">
        <ele>46.8</ele>
        <time>2020-08-15T16:57:16Z</time>
      </trkpt>
      <trkpt lat="48.689" lon="-3.65541">
        <ele>45.7</ele>
        <time>2020-08-15T16:57:25Z</time>
      </trkpt>
      <trkpt lat="48.6891" lon="-3.65508">
        <ele>46.4</ele>
        <time>2020-08-15T16:57:31Z</time>
      </trkpt>
      <trkpt lat="48.68929" lon="-3.65467">
        <ele>46.8</ele>
        <time>2020-08-15T16:57:40Z</time>
      </trkpt>
      <trkpt lat="48.68937" lon="-3.65446">
        <ele>46.8</ele>
        <time>2020-08-15T16:57:46Z</time>
      </trkpt>
      <trkpt lat="48.68946" lon="-3.65417">
        <ele>46.9</ele>
        <time>2020-08-15T16:57:55Z</time>
      </trkpt>
      <trkpt lat="48.68956" lon="-3.65386">
        <ele>47</ele>
        <time>2020-08-15T16:58:02Z</time>
      </trkpt>
      <trkpt lat="48.68971" lon="-3.65343">
        <ele>47.2</ele>
        <time>2020-08-15T16:58:12Z</time>
      </trkpt>
      <trkpt lat="48.68985" lon="-3.65309">
        <ele>46</ele>
        <time>2020-08-15T16:58:20Z</time>
      </trkpt>
      <trkpt lat="48.68994" lon="-3.65297">
        <ele>45.8</ele>
        <time>2020-08-15T16:58:23Z</time>
      </trkpt>
      <trkpt lat="48.69022" lon="-3.65266">
        <ele>45.5</ele>
        <time>2020-08-15T16:58:30Z</time>
      </trkpt>
      <trkpt lat="48.69048" lon="-3.65229">
        <ele>42.7</ele>
        <time>2020-08-15T16:58:37Z</time>
      </trkpt>
      <trkpt lat="48.69059" lon="-3.652">
        <ele>41.9</ele>
        <time>2020-08-15T16:58:43Z</time>
      </trkpt>
      <trkpt lat="48.69061" lon="-3.65181">
        <ele>41.4</ele>
        <time>2020-08-15T16:58:47Z</time>
      </trkpt>
      <trkpt lat="48.69061" lon="-3.65169">
        <ele>41.1</ele>
        <time>2020-08-15T16:58:49Z</time>
      </trkpt>
      <trkpt lat="48.69062" lon="-3.65122">
        <ele>36.8</ele>
        <time>2020-08-15T16:58:56Z</time>
      </trkpt>
      <trkpt lat="48.69064" lon="-3.6511">
        <ele>36.3</ele>
        <time>2020-08-15T16:58:58Z</time>
      </trkpt>
      <trkpt lat="48.69079" lon="-3.65075">
        <ele>33.4</ele>
        <time>2020-08-15T16:59:04Z</time>
      </trkpt>
      <trkpt lat="48.69086" lon="-3.65061">
        <ele>31.9</ele>
        <time>2020-08-15T16:59:06Z</time>
      </trkpt>
      <trkpt lat="48.69094" lon="-3.65049">
        <ele>30.9</ele>
        <time>2020-08-15T16:59:08Z</time>
      </trkpt>
      <trkpt lat="48.69108" lon="-3.65032">
        <ele>29.8</ele>
        <time>2020-08-15T16:59:11Z</time>
      </trkpt>
      <trkpt lat="48.69144" lon="-3.64994">
        <ele>24.3</ele>
        <time>2020-08-15T16:59:19Z</time>
      </trkpt>
      <trkpt lat="48.69152" lon="-3.64987">
        <ele>24.1</ele>
        <time>2020-08-15T16:59:21Z</time>
      </trkpt>
      <trkpt lat="48.69155" lon="-3.64984">
        <ele>24.1</ele>
        <time>2020-08-15T16:59:25Z</time>
      </trkpt>
      <trkpt lat="48.69146" lon="-3.64959">
        <ele>23</ele>
        <time>2020-08-15T16:59:29Z</time>
      </trkpt>
      <trkpt lat="48.69138" lon="-3.64942">
        <ele>22.3</ele>
        <time>2020-08-15T16:59:32Z</time>
      </trkpt>
      <trkpt lat="48.69132" lon="-3.64929">
        <ele>22</ele>
        <time>2020-08-15T16:59:34Z</time>
      </trkpt>
      <trkpt lat="48.69118" lon="-3.64894">
        <ele>17.4</ele>
        <time>2020-08-15T16:59:40Z</time>
      </trkpt>
      <trkpt lat="48.69109" lon="-3.64861">
        <ele>16.1</ele>
        <time>2020-08-15T16:59:45Z</time>
      </trkpt>
      <trkpt lat="48.69106" lon="-3.64849">
        <ele>15.5</ele>
        <time>2020-08-15T16:59:49Z</time>
      </trkpt>
      <trkpt lat="48.69104" lon="-3.64844">
        <ele>15.3</ele>
        <time>2020-08-15T16:59:54Z</time>
      </trkpt>
      <trkpt lat="48.69099" lon="-3.64796">
        <ele>11.9</ele>
        <time>2020-08-15T17:00:00Z</time>
      </trkpt>
      <trkpt lat="48.69094" lon="-3.64757">
        <ele>10.2</ele>
        <time>2020-08-15T17:00:07Z</time>
      </trkpt>
      <trkpt lat="48.69096" lon="-3.64729">
        <ele>8.2</ele>
        <time>2020-08-15T17:00:13Z</time>
      </trkpt>
      <trkpt lat="48.69096" lon="-3.64729">
        <ele>8.2</ele>
        <time>2020-08-15T17:00:19Z</time>
      </trkpt>
      <trkpt lat="48.69126" lon="-3.64687">
        <ele>7.5</ele>
        <time>2020-08-15T17:00:26Z</time>
      </trkpt>
      <trkpt lat="48.69131" lon="-3.64676">
        <ele>7.5</ele>
        <time>2020-08-15T17:00:30Z</time>
      </trkpt>
      <trkpt lat="48.69115" lon="-3.6467">
        <ele>6.9</ele>
        <time>2020-08-15T17:00:36Z</time>
      </trkpt>
      <trkpt lat="48.69131" lon="-3.64676">
        <ele>7.5</ele>
        <time>2020-08-15T17:00:43Z</time>
      </trkpt>
      <trkpt lat="48.69131" lon="-3.64676">
        <ele>7.5</ele>
        <time>2020-08-15T17:00:49Z</time>
      </trkpt>
      <trkpt lat="48.69131" lon="-3.64676">
        <ele>7.5</ele>
        <time>2020-08-15T17:00:50Z</time>
      </trkpt>
      <trkpt lat="48.69131" lon="-3.64676">
        <ele>7.5</ele>
        <time>2020-08-15T17:03:00Z</time>
      </trkpt>
      <trkpt lat="48.69131" lon="-3.64676">
        <ele>7.5</ele>
        <time>2020-08-15T17:11:36Z</time>
      </trkpt>
      <trkpt lat="48.69131" lon="-3.64676">
        <ele>7.5</ele>
        <time>2020-08-15T18:06:58Z</time>
      </trkpt>
      <trkpt lat="48.69131" lon="-3.64676">
        <ele>7.5</ele>
        <time>2020-08-15T18:11:23Z</time>
      </trkpt>
      <trkpt lat="48.69131" lon="-3.64676">
        <ele>7.5</ele>
        <time>2020-08-15T18:11:31Z</time>
      </trkpt>
      <trkpt lat="48.69131" lon="-3.64676">
        <ele>7.5</ele>
        <time>2020-08-15T18:11:39Z</time>
      </trkpt>
      <trkpt lat="48.69131" lon="-3.64676">
        <ele>7.5</ele>
        <time>2020-08-15T18:17:27Z</time>
      </trkpt>
      <trkpt lat="48.69131" lon="-3.64676">
        <ele>7.5</ele>
        <time>2020-08-15T18:17:35Z</time>
      </trkpt>
      <trkpt lat="48.69131" lon="-3.64676">
        <ele>7.5</ele>
        <time>2020-08-15T18:17:37Z</time>
      </trkpt>
      <trkpt lat="48.69131" lon="-3.64676">
        <ele>7.5</ele>
        <time>2020-08-15T18:17:45Z</time>
      </trkpt>
      <trkpt lat="48.69131" lon="-3.64676">
        <ele>7.5</ele>
        <time>2020-08-15T18:23:18Z</time>
      </trkpt>
      <trkpt lat="48.69131" lon="-3.64676">
        <ele>7.5</ele>
        <time>2020-08-15T18:35:38Z</time>
      </trkpt>
      <trkpt lat="48.69131" lon="-3.64676">
        <ele>7.5</ele>
        <time>2020-08-15T18:35:45Z</time>
      </trkpt>
      <trkpt lat="48.69131" lon="-3.64676">
        <ele>7.5</ele>
        <time>2020-08-15T18:35:55Z</time>
      </trkpt>
      <trkpt lat="48.69131" lon="-3.64676">
        <ele>7.5</ele>
        <time>2020-08-15T18:36:02Z</time>
      </trkpt>
      <trkpt lat="48.69131" lon="-3.64676">
        <ele>7.5</ele>
        <time>2020-08-15T18:36:10Z</time>
      </trkpt>
      <trkpt lat="48.69131" lon="-3.64676">
        <ele>7.5</ele>
        <time>2020-08-15T18:36:17Z</time>
      </trkpt>
      <trkpt lat="48.69131" lon="-3.64676">
        <ele>7.5</ele>
        <time>2020-08-15T18:36:21Z</time>
      </trkpt>
      <trkpt lat="48.69131" lon="-3.64676">
        <ele>7.5</ele>
        <time>2020-08-15T18:36:36Z</time>
      </trkpt>
      <trkpt lat="48.69131" lon="-3.64676">
        <ele>7.5</ele>
        <time>2020-08-15T18:38:02Z</time>
      </trkpt>
      <trkpt lat="48.69131" lon="-3.64676">
        <ele>7.5</ele>
        <time>2020-08-15T18:39:14Z</time>
      </trkpt>
      <trkpt lat="48.69131" lon="-3.64676">
        <ele>7.5</ele>
        <time>2020-08-15T18:39:22Z</time>
      </trkpt>
      <trkpt lat="48.69131" lon="-3.64676">
        <ele>7.5</ele>
        <time>2020-08-15T18:39:28Z</time>
      </trkpt>
      <trkpt lat="48.69131" lon="-3.64676">
        <ele>7.5</ele>
        <time>2020-08-15T18:39:33Z</time>
      </trkpt>
      <trkpt lat="48.69131" lon="-3.64676">
        <ele>7.5</ele>
        <time>2020-08-15T18:39:37Z</time>
      </trkpt>
      <trkpt lat="48.69131" lon="-3.64676">
        <ele>7.5</ele>
        <time>2020-08-15T18:39:38Z</time>
      </trkpt>
      <trkpt lat="48.69129" lon="-3.6468">
        <ele>7.5</ele>
        <time>2020-08-15T18:39:49Z</time>
      </trkpt>
      <trkpt lat="48.69129" lon="-3.6468">
        <ele>7.5</ele>
        <time>2020-08-15T18:39:53Z</time>
      </trkpt>
      <trkpt lat="48.69129" lon="-3.6468">
        <ele>7.5</ele>
        <time>2020-08-15T18:39:59Z</time>
      </trkpt>
      <trkpt lat="48.69129" lon="-3.6468">
        <ele>7.5</ele>
        <time>2020-08-15T18:40:09Z</time>
      </trkpt>
      <trkpt lat="48.69129" lon="-3.6468">
        <ele>7.5</ele>
        <time>2020-08-15T18:40:15Z</time>
      </trkpt>
      <trkpt lat="48.69129" lon="-3.6468">
        <ele>7.5</ele>
        <time>2020-08-15T18:40:18Z</time>
      </trkpt>
      <trkpt lat="48.69107" lon="-3.64629">
        <ele>6.7</ele>
        <time>2020-08-15T18:40:29Z</time>
      </trkpt>
      <trkpt lat="48.69106" lon="-3.64624">
        <ele>6.8</ele>
        <time>2020-08-15T18:40:35Z</time>
      </trkpt>
      <trkpt lat="48.69106" lon="-3.64624">
        <ele>6.8</ele>
        <time>2020-08-15T18:40:42Z</time>
      </trkpt>
      <trkpt lat="48.69106" lon="-3.64624">
        <ele>6.8</ele>
        <time>2020-08-15T18:40:45Z</time>
      </trkpt>
      <trkpt lat="48.69106" lon="-3.64624">
        <ele>6.8</ele>
        <time>2020-08-15T18:40:52Z</time>
      </trkpt>
      <trkpt lat="48.691" lon="-3.64598">
        <ele>7.3</ele>
        <time>2020-08-15T18:40:57Z</time>
      </trkpt>
      <trkpt lat="48.691" lon="-3.64598">
        <ele>7.3</ele>
        <time>2020-08-15T18:40:58Z</time>
      </trkpt>
      <trkpt lat="48.69099" lon="-3.64592">
        <ele>7.4</ele>
        <time>2020-08-15T18:41:05Z</time>
      </trkpt>
      <trkpt lat="48.69099" lon="-3.64592">
        <ele>7.4</ele>
        <time>2020-08-15T18:41:13Z</time>
      </trkpt>
      <trkpt lat="48.69099" lon="-3.64592">
        <ele>7.4</ele>
        <time>2020-08-15T18:41:22Z</time>
      </trkpt>
      <trkpt lat="48.69099" lon="-3.64592">
        <ele>7.4</ele>
        <time>2020-08-15T18:41:27Z</time>
      </trkpt>
      <trkpt lat="48.69099" lon="-3.64592">
        <ele>7.4</ele>
        <time>2020-08-15T18:41:36Z</time>
      </trkpt>
      <trkpt lat="48.69099" lon="-3.64592">
        <ele>7.4</ele>
        <time>2020-08-15T18:41:41Z</time>
      </trkpt>
      <trkpt lat="48.69099" lon="-3.64592">
        <ele>7.4</ele>
        <time>2020-08-15T18:41:44Z</time>
      </trkpt>
      <trkpt lat="48.69099" lon="-3.64592">
        <ele>7.4</ele>
        <time>2020-08-15T18:41:56Z</time>
      </trkpt>
      <trkpt lat="48.69099" lon="-3.64592">
        <ele>7.4</ele>
        <time>2020-08-15T18:42:56Z</time>
      </trkpt>
      <trkpt lat="48.69099" lon="-3.64592">
        <ele>7.4</ele>
        <time>2020-08-15T18:43:03Z</time>
      </trkpt>
      <trkpt lat="48.69099" lon="-3.64592">
        <ele>7.4</ele>
        <time>2020-08-15T18:43:39Z</time>
      </trkpt>
      <trkpt lat="48.69099" lon="-3.64592">
        <ele>7.4</ele>
        <time>2020-08-15T18:43:46Z</time>
      </trkpt>
      <trkpt lat="48.69099" lon="-3.64592">
        <ele>7.4</ele>
        <time>2020-08-15T18:44:03Z</time>
      </trkpt>
      <trkpt lat="48.69099" lon="-3.64592">
        <ele>7.4</ele>
        <time>2020-08-15T18:44:08Z</time>
      </trkpt>
      <trkpt lat="48.69099" lon="-3.64592">
        <ele>7.4</ele>
        <time>2020-08-15T18:44:11Z</time>
      </trkpt>
      <trkpt lat="48.69099" lon="-3.64592">
        <ele>7.4</ele>
        <time>2020-08-15T18:44:25Z</time>
      </trkpt>
      <trkpt lat="48.69099" lon="-3.64592">
        <ele>7.4</ele>
        <time>2020-08-15T18:44:32Z</time>
      </trkpt>
      <trkpt lat="48.69099" lon="-3.64592">
        <ele>7.4</ele>
        <time>2020-08-15T18:44:40Z</time>
      </trkpt>
      <trkpt lat="48.69099" lon="-3.64592">
        <ele>7.4</ele>
        <time>2020-08-15T18:44:49Z</time>
      </trkpt>
      <trkpt lat="48.69099" lon="-3.64592">
        <ele>7.4</ele>
        <time>2020-08-15T18:44:58Z</time>
      </trkpt>
      <trkpt lat="48.69099" lon="-3.64592">
        <ele>7.4</ele>
        <time>2020-08-15T18:45:09Z</time>
      </trkpt>
      <trkpt lat="48.69099" lon="-3.64592">
        <ele>7.4</ele>
        <time>2020-08-15T18:45:19Z</time>
      </trkpt>
      <trkpt lat="48.69099" lon="-3.64592">
        <ele>7.4</ele>
        <time>2020-08-15T18:45:24Z</time>
      </trkpt>
      <trkpt lat="48.69099" lon="-3.64592">
        <ele>7.4</ele>
        <time>2020-08-15T18:45:37Z</time>
      </trkpt>
      <trkpt lat="48.69099" lon="-3.64592">
        <ele>7.4</ele>
        <time>2020-08-15T18:45:50Z</time>
      </trkpt>
      <trkpt lat="48.69099" lon="-3.64592">
        <ele>7.4</ele>
        <time>2020-08-15T18:45:55Z</time>
      </trkpt>
      <trkpt lat="48.69099" lon="-3.64592">
        <ele>7.4</ele>
        <time>2020-08-15T18:45:58Z</time>
      </trkpt>
      <trkpt lat="48.69099" lon="-3.64592">
        <ele>7.4</ele>
        <time>2020-08-15T18:46:01Z</time>
      </trkpt>
      <trkpt lat="48.69026" lon="-3.64623">
        <ele>4</ele>
        <time>2020-08-15T18:46:18Z</time>
      </trkpt>
      <trkpt lat="48.69022" lon="-3.64623">
        <ele>4</ele>
        <time>2020-08-15T18:46:26Z</time>
      </trkpt>
      <trkpt lat="48.6902" lon="-3.64623">
        <ele>4</ele>
        <time>2020-08-15T18:46:31Z</time>
      </trkpt>
      <trkpt lat="48.69019" lon="-3.64623">
        <ele>4</ele>
        <time>2020-08-15T18:46:35Z</time>
      </trkpt>
      <trkpt lat="48.69015" lon="-3.64622">
        <ele>4</ele>
        <time>2020-08-15T18:46:42Z</time>
      </trkpt>
      <trkpt lat="48.6901" lon="-3.64621">
        <ele>4</ele>
        <time>2020-08-15T18:46:50Z</time>
      </trkpt>
      <trkpt lat="48.69008" lon="-3.6462">
        <ele>4</ele>
        <time>2020-08-15T18:46:55Z</time>
      </trkpt>
      <trkpt lat="48.69007" lon="-3.6462">
        <ele>4</ele>
        <time>2020-08-15T18:46:57Z</time>
      </trkpt>
      <trkpt lat="48.69005" lon="-3.64618">
        <ele>4</ele>
        <time>2020-08-15T18:47:05Z</time>
      </trkpt>
      <trkpt lat="48.6901" lon="-3.64616">
        <ele>4</ele>
        <time>2020-08-15T18:47:28Z</time>
      </trkpt>
      <trkpt lat="48.69012" lon="-3.64617">
        <ele>4</ele>
        <time>2020-08-15T18:47:37Z</time>
      </trkpt>
      <trkpt lat="48.69015" lon="-3.64618">
        <ele>4</ele>
        <time>2020-08-15T18:47:44Z</time>
      </trkpt>
      <trkpt lat="48.69016" lon="-3.64618">
        <ele>4</ele>
        <time>2020-08-15T18:47:50Z</time>
      </trkpt>
      <trkpt lat="48.69018" lon="-3.64627">
        <ele>4</ele>
        <time>2020-08-15T18:48:40Z</time>
      </trkpt>
      <trkpt lat="48.69025" lon="-3.64627">
        <ele>4</ele>
        <time>2020-08-15T18:48:50Z</time>
      </trkpt>
      <trkpt lat="48.6903" lon="-3.64625">
        <ele>4</ele>
        <time>2020-08-15T18:49:00Z</time>
      </trkpt>
      <trkpt lat="48.69033" lon="-3.64623">
        <ele>4</ele>
        <time>2020-08-15T18:49:05Z</time>
      </trkpt>
      <trkpt lat="48.69037" lon="-3.64618">
        <ele>4</ele>
        <time>2020-08-15T18:49:12Z</time>
      </trkpt>
      <trkpt lat="48.6904" lon="-3.64615">
        <ele>4</ele>
        <time>2020-08-15T18:49:18Z</time>
      </trkpt>
      <trkpt lat="48.69042" lon="-3.64614">
        <ele>4</ele>
        <time>2020-08-15T18:49:27Z</time>
      </trkpt>
      <trkpt lat="48.69045" lon="-3.6461">
        <ele>4</ele>
        <time>2020-08-15T18:49:35Z</time>
      </trkpt>
      <trkpt lat="48.69046" lon="-3.64603">
        <ele>4</ele>
        <time>2020-08-15T18:49:43Z</time>
      </trkpt>
      <trkpt lat="48.69047" lon="-3.64597">
        <ele>4</ele>
        <time>2020-08-15T18:49:51Z</time>
      </trkpt>
      <trkpt lat="48.69049" lon="-3.64597">
        <ele>4</ele>
        <time>2020-08-15T18:49:55Z</time>
      </trkpt>
      <trkpt lat="48.69053" lon="-3.64597">
        <ele>4</ele>
        <time>2020-08-15T18:50:27Z</time>
      </trkpt>
      <trkpt lat="48.69054" lon="-3.64596">
        <ele>4</ele>
        <time>2020-08-15T18:50:29Z</time>
      </trkpt>
      <trkpt lat="48.69057" lon="-3.64593">
        <ele>4</ele>
        <time>2020-08-15T18:50:36Z</time>
      </trkpt>
      <trkpt lat="48.69059" lon="-3.64587">
        <ele>4</ele>
        <time>2020-08-15T18:50:44Z</time>
      </trkpt>
      <trkpt lat="48.69062" lon="-3.64584">
        <ele>4</ele>
        <time>2020-08-15T18:50:52Z</time>
      </trkpt>
      <trkpt lat="48.69064" lon="-3.64583">
        <ele>2.9</ele>
        <time>2020-08-15T18:50:55Z</time>
      </trkpt>
      <trkpt lat="48.69065" lon="-3.64581">
        <ele>3.3</ele>
        <time>2020-08-15T18:50:58Z</time>
      </trkpt>
      <trkpt lat="48.69068" lon="-3.64577">
        <ele>3.9</ele>
        <time>2020-08-15T18:51:05Z</time>
      </trkpt>
      <trkpt lat="48.69071" lon="-3.64573">
        <ele>4.5</ele>
        <time>2020-08-15T18:51:13Z</time>
      </trkpt>
      <trkpt lat="48.69071" lon="-3.64572">
        <ele>4.6</ele>
        <time>2020-08-15T18:51:14Z</time>
      </trkpt>
      <trkpt lat="48.69074" lon="-3.64567">
        <ele>5.2</ele>
        <time>2020-08-15T18:51:25Z</time>
      </trkpt>
      <trkpt lat="48.69076" lon="-3.64563">
        <ele>5.5</ele>
        <time>2020-08-15T18:51:32Z</time>
      </trkpt>
      <trkpt lat="48.69078" lon="-3.64561">
        <ele>5.7</ele>
        <time>2020-08-15T18:51:38Z</time>
      </trkpt>
      <trkpt lat="48.69078" lon="-3.64559">
        <ele>5.8</ele>
        <time>2020-08-15T18:51:40Z</time>
      </trkpt>
      <trkpt lat="48.69088" lon="-3.64551">
        <ele>8.1</ele>
        <time>2020-08-15T18:51:47Z</time>
      </trkpt>
      <trkpt lat="48.69088" lon="-3.64551">
        <ele>8.1</ele>
        <time>2020-08-15T18:51:51Z</time>
      </trkpt>
      <trkpt lat="48.69091" lon="-3.64558">
        <ele>8.2</ele>
        <time>2020-08-15T18:51:54Z</time>
      </trkpt>
      <trkpt lat="48.69091" lon="-3.64558">
        <ele>8.2</ele>
        <time>2020-08-15T18:52:06Z</time>
      </trkpt>
      <trkpt lat="48.69091" lon="-3.64558">
        <ele>8.2</ele>
        <time>2020-08-15T18:52:14Z</time>
      </trkpt>
      <trkpt lat="48.69091" lon="-3.64558">
        <ele>8.2</ele>
        <time>2020-08-15T18:52:16Z</time>
      </trkpt>
      <trkpt lat="48.69098" lon="-3.64581">
        <ele>8.4</ele>
        <time>2020-08-15T18:56:46Z</time>
      </trkpt>
      <trkpt lat="48.69098" lon="-3.64581">
        <ele>8.4</ele>
        <time>2020-08-15T18:56:47Z</time>
      </trkpt>
      <trkpt lat="48.69098" lon="-3.64581">
        <ele>8.4</ele>
        <time>2020-08-15T18:56:53Z</time>
      </trkpt>
      <trkpt lat="48.69098" lon="-3.64581">
        <ele>8.4</ele>
        <time>2020-08-15T18:56:57Z</time>
      </trkpt>
      <trkpt lat="48.69098" lon="-3.64581">
        <ele>8.4</ele>
        <time>2020-08-15T18:57:04Z</time>
      </trkpt>
      <trkpt lat="48.69098" lon="-3.64581">
        <ele>8.4</ele>
        <time>2020-08-15T18:57:09Z</time>
      </trkpt>
      <trkpt lat="48.69098" lon="-3.64581">
        <ele>8.4</ele>
        <time>2020-08-15T18:57:10Z</time>
      </trkpt>
      <trkpt lat="48.69098" lon="-3.64581">
        <ele>8.4</ele>
        <time>2020-08-15T18:57:19Z</time>
      </trkpt>
      <trkpt lat="48.69098" lon="-3.64581">
        <ele>8.4</ele>
        <time>2020-08-15T18:57:22Z</time>
      </trkpt>
      <trkpt lat="48.69112" lon="-3.64602">
        <ele>7.5</ele>
        <time>2020-08-15T18:57:26Z</time>
      </trkpt>
      <trkpt lat="48.69113" lon="-3.64607">
        <ele>7.4</ele>
        <time>2020-08-15T18:57:32Z</time>
      </trkpt>
      <trkpt lat="48.69115" lon="-3.64617">
        <ele>7.2</ele>
        <time>2020-08-15T18:57:41Z</time>
      </trkpt>
      <trkpt lat="48.69116" lon="-3.64621">
        <ele>7.2</ele>
        <time>2020-08-15T18:57:50Z</time>
      </trkpt>
      <trkpt lat="48.69116" lon="-3.64621">
        <ele>7.2</ele>
        <time>2020-08-15T18:57:58Z</time>
      </trkpt>
      <trkpt lat="48.69116" lon="-3.64621">
        <ele>7.2</ele>
        <time>2020-08-15T18:58:03Z</time>
      </trkpt>
      <trkpt lat="48.69116" lon="-3.64621">
        <ele>7.2</ele>
        <time>2020-08-15T18:59:42Z</time>
      </trkpt>
      <trkpt lat="48.69121" lon="-3.6464">
        <ele>6.9</ele>
        <time>2020-08-15T18:59:47Z</time>
      </trkpt>
      <trkpt lat="48.69123" lon="-3.64648">
        <ele>6.8</ele>
        <time>2020-08-15T18:59:56Z</time>
      </trkpt>
      <trkpt lat="48.69124" lon="-3.64652">
        <ele>6.8</ele>
        <time>2020-08-15T19:00:00Z</time>
      </trkpt>
      <trkpt lat="48.69127" lon="-3.64664">
        <ele>6.8</ele>
        <time>2020-08-15T19:00:06Z</time>
      </trkpt>
      <trkpt lat="48.69129" lon="-3.64671">
        <ele>7.4</ele>
        <time>2020-08-15T19:00:11Z</time>
      </trkpt>
      <trkpt lat="48.69145" lon="-3.64656">
        <ele>7.5</ele>
        <time>2020-08-15T19:00:17Z</time>
      </trkpt>
      <trkpt lat="48.69157" lon="-3.64641">
        <ele>7.7</ele>
        <time>2020-08-15T19:00:26Z</time>
      </trkpt>
      <trkpt lat="48.69169" lon="-3.64629">
        <ele>9.6</ele>
        <time>2020-08-15T19:00:35Z</time>
      </trkpt>
      <trkpt lat="48.69177" lon="-3.64618">
        <ele>9.8</ele>
        <time>2020-08-15T19:00:42Z</time>
      </trkpt>
      <trkpt lat="48.69183" lon="-3.646">
        <ele>10</ele>
        <time>2020-08-15T19:00:50Z</time>
      </trkpt>
      <trkpt lat="48.69185" lon="-3.64588">
        <ele>10</ele>
        <time>2020-08-15T19:00:55Z</time>
      </trkpt>
      <trkpt lat="48.69188" lon="-3.6457">
        <ele>9.6</ele>
        <time>2020-08-15T19:01:01Z</time>
      </trkpt>
      <trkpt lat="48.69193" lon="-3.64563">
        <ele>9.6</ele>
        <time>2020-08-15T19:01:05Z</time>
      </trkpt>
      <trkpt lat="48.692" lon="-3.64557">
        <ele>9.6</ele>
        <time>2020-08-15T19:01:11Z</time>
      </trkpt>
      <trkpt lat="48.69222" lon="-3.64553">
        <ele>9.8</ele>
        <time>2020-08-15T19:01:22Z</time>
      </trkpt>
      <trkpt lat="48.69231" lon="-3.64552">
        <ele>10</ele>
        <time>2020-08-15T19:01:30Z</time>
      </trkpt>
      <trkpt lat="48.69246" lon="-3.64525">
        <ele>10.1</ele>
        <time>2020-08-15T19:01:38Z</time>
      </trkpt>
      <trkpt lat="48.69256" lon="-3.64507">
        <ele>11.6</ele>
        <time>2020-08-15T19:01:45Z</time>
      </trkpt>
      <trkpt lat="48.69264" lon="-3.64485">
        <ele>10.7</ele>
        <time>2020-08-15T19:01:53Z</time>
      </trkpt>
      <trkpt lat="48.69266" lon="-3.64481">
        <ele>10.6</ele>
        <time>2020-08-15T19:02:00Z</time>
      </trkpt>
      <trkpt lat="48.69266" lon="-3.64481">
        <ele>10.6</ele>
        <time>2020-08-15T19:02:07Z</time>
      </trkpt>
      <trkpt lat="48.69302" lon="-3.64468">
        <ele>11.2</ele>
        <time>2020-08-15T19:02:16Z</time>
      </trkpt>
      <trkpt lat="48.6931" lon="-3.64466">
        <ele>11.4</ele>
        <time>2020-08-15T19:02:21Z</time>
      </trkpt>
      <trkpt lat="48.69316" lon="-3.64465">
        <ele>11.5</ele>
        <time>2020-08-15T19:02:25Z</time>
      </trkpt>
      <trkpt lat="48.69329" lon="-3.64461">
        <ele>11.6</ele>
        <time>2020-08-15T19:02:33Z</time>
      </trkpt>
      <trkpt lat="48.69346" lon="-3.64452">
        <ele>14.6</ele>
        <time>2020-08-15T19:02:44Z</time>
      </trkpt>
      <trkpt lat="48.6935" lon="-3.64447">
        <ele>14.5</ele>
        <time>2020-08-15T19:02:48Z</time>
      </trkpt>
      <trkpt lat="48.69357" lon="-3.64434">
        <ele>14.2</ele>
        <time>2020-08-15T19:02:56Z</time>
      </trkpt>
      <trkpt lat="48.69367" lon="-3.64415">
        <ele>10.4</ele>
        <time>2020-08-15T19:03:03Z</time>
      </trkpt>
      <trkpt lat="48.69383" lon="-3.64406">
        <ele>11.2</ele>
        <time>2020-08-15T19:03:08Z</time>
      </trkpt>
      <trkpt lat="48.69396" lon="-3.64396">
        <ele>11.6</ele>
        <time>2020-08-15T19:03:14Z</time>
      </trkpt>
      <trkpt lat="48.69415" lon="-3.64381">
        <ele>10.6</ele>
        <time>2020-08-15T19:03:23Z</time>
      </trkpt>
      <trkpt lat="48.69425" lon="-3.64367">
        <ele>11.4</ele>
        <time>2020-08-15T19:03:28Z</time>
      </trkpt>
      <trkpt lat="48.69444" lon="-3.64357">
        <ele>11</ele>
        <time>2020-08-15T19:03:34Z</time>
      </trkpt>
      <trkpt lat="48.69464" lon="-3.64355">
        <ele>11.3</ele>
        <time>2020-08-15T19:03:41Z</time>
      </trkpt>
      <trkpt lat="48.69483" lon="-3.64353">
        <ele>10.8</ele>
        <time>2020-08-15T19:03:48Z</time>
      </trkpt>
      <trkpt lat="48.69504" lon="-3.64357">
        <ele>10.3</ele>
        <time>2020-08-15T19:03:55Z</time>
      </trkpt>
      <trkpt lat="48.69519" lon="-3.64367">
        <ele>11.4</ele>
        <time>2020-08-15T19:04:03Z</time>
      </trkpt>
      <trkpt lat="48.69531" lon="-3.64371">
        <ele>11.5</ele>
        <time>2020-08-15T19:04:10Z</time>
      </trkpt>
      <trkpt lat="48.69536" lon="-3.64371">
        <ele>11.4</ele>
        <time>2020-08-15T19:04:13Z</time>
      </trkpt>
      <trkpt lat="48.69552" lon="-3.64369">
        <ele>10.8</ele>
        <time>2020-08-15T19:04:22Z</time>
      </trkpt>
      <trkpt lat="48.69554" lon="-3.64368">
        <ele>10.6</ele>
        <time>2020-08-15T19:04:23Z</time>
      </trkpt>
      <trkpt lat="48.69567" lon="-3.64364">
        <ele>9.8</ele>
        <time>2020-08-15T19:04:30Z</time>
      </trkpt>
      <trkpt lat="48.69577" lon="-3.64356">
        <ele>8.6</ele>
        <time>2020-08-15T19:04:35Z</time>
      </trkpt>
      <trkpt lat="48.69583" lon="-3.64354">
        <ele>8.2</ele>
        <time>2020-08-15T19:04:41Z</time>
      </trkpt>
      <trkpt lat="48.69583" lon="-3.64354">
        <ele>8.2</ele>
        <time>2020-08-15T19:04:42Z</time>
      </trkpt>
      <trkpt lat="48.69583" lon="-3.64354">
        <ele>8.2</ele>
        <time>2020-08-15T19:04:49Z</time>
      </trkpt>
      <trkpt lat="48.69583" lon="-3.64354">
        <ele>8.2</ele>
        <time>2020-08-15T19:05:24Z</time>
      </trkpt>
      <trkpt lat="48.69607" lon="-3.64356">
        <ele>5.5</ele>
        <time>2020-08-15T19:05:30Z</time>
      </trkpt>
      <trkpt lat="48.69611" lon="-3.64357">
        <ele>5.4</ele>
        <time>2020-08-15T19:05:34Z</time>
      </trkpt>
      <trkpt lat="48.69615" lon="-3.64359">
        <ele>5.4</ele>
        <time>2020-08-15T19:05:38Z</time>
      </trkpt>
      <trkpt lat="48.69619" lon="-3.6436">
        <ele>5.4</ele>
        <time>2020-08-15T19:05:56Z</time>
      </trkpt>
      <trkpt lat="48.69633" lon="-3.6436">
        <ele>4.9</ele>
        <time>2020-08-15T19:06:03Z</time>
      </trkpt>
      <trkpt lat="48.69637" lon="-3.64358">
        <ele>4.7</ele>
        <time>2020-08-15T19:06:04Z</time>
      </trkpt>
      <trkpt lat="48.69647" lon="-3.64368">
        <ele>4.7</ele>
        <time>2020-08-15T19:06:08Z</time>
      </trkpt>
      <trkpt lat="48.69652" lon="-3.64383">
        <ele>5</ele>
        <time>2020-08-15T19:06:12Z</time>
      </trkpt>
      <trkpt lat="48.69655" lon="-3.64395">
        <ele>5.1</ele>
        <time>2020-08-15T19:06:17Z</time>
      </trkpt>
      <trkpt lat="48.69658" lon="-3.6441">
        <ele>4.7</ele>
        <time>2020-08-15T19:06:25Z</time>
      </trkpt>
      <trkpt lat="48.69658" lon="-3.6441">
        <ele>4.7</ele>
        <time>2020-08-15T19:06:32Z</time>
      </trkpt>
      <trkpt lat="48.69658" lon="-3.6441">
        <ele>4.7</ele>
        <time>2020-08-15T19:07:13Z</time>
      </trkpt>
      <trkpt lat="48.69645" lon="-3.64433">
        <ele>7.3</ele>
        <time>2020-08-15T19:07:19Z</time>
      </trkpt>
      <trkpt lat="48.6964" lon="-3.6444">
        <ele>7.9</ele>
        <time>2020-08-15T19:09:43Z</time>
      </trkpt>
      <trkpt lat="48.6964" lon="-3.6444">
        <ele>7.9</ele>
        <time>2020-08-15T19:09:44Z</time>
      </trkpt>
      <trkpt lat="48.69636" lon="-3.64446">
        <ele>8.3</ele>
        <time>2020-08-15T19:09:49Z</time>
      </trkpt>
      <trkpt lat="48.69631" lon="-3.64451">
        <ele>8.7</ele>
        <time>2020-08-15T19:09:52Z</time>
      </trkpt>
      <trkpt lat="48.69629" lon="-3.64453">
        <ele>8.8</ele>
        <time>2020-08-15T19:09:56Z</time>
      </trkpt>
      <trkpt lat="48.6962" lon="-3.64466">
        <ele>9.2</ele>
        <time>2020-08-15T19:10:39Z</time>
      </trkpt>
      <trkpt lat="48.69609" lon="-3.64495">
        <ele>9.2</ele>
        <time>2020-08-15T19:10:45Z</time>
      </trkpt>
      <trkpt lat="48.69598" lon="-3.64502">
        <ele>7.8</ele>
        <time>2020-08-15T19:10:51Z</time>
      </trkpt>
      <trkpt lat="48.69587" lon="-3.64508">
        <ele>8.2</ele>
        <time>2020-08-15T19:10:59Z</time>
      </trkpt>
      <trkpt lat="48.69576" lon="-3.64512">
        <ele>8.6</ele>
        <time>2020-08-15T19:11:06Z</time>
      </trkpt>
      <trkpt lat="48.69564" lon="-3.64519">
        <ele>8.4</ele>
        <time>2020-08-15T19:11:12Z</time>
      </trkpt>
      <trkpt lat="48.69544" lon="-3.64534">
        <ele>8.4</ele>
        <time>2020-08-15T19:11:19Z</time>
      </trkpt>
      <trkpt lat="48.69533" lon="-3.64538">
        <ele>8.6</ele>
        <time>2020-08-15T19:11:24Z</time>
      </trkpt>
      <trkpt lat="48.69512" lon="-3.64556">
        <ele>7.7</ele>
        <time>2020-08-15T19:11:33Z</time>
      </trkpt>
      <trkpt lat="48.69504" lon="-3.64562">
        <ele>7.2</ele>
        <time>2020-08-15T19:11:38Z</time>
      </trkpt>
      <trkpt lat="48.69499" lon="-3.64566">
        <ele>9.2</ele>
        <time>2020-08-15T19:15:50Z</time>
      </trkpt>
      <trkpt lat="48.69488" lon="-3.64574">
        <ele>8.8</ele>
        <time>2020-08-15T19:15:56Z</time>
      </trkpt>
      <trkpt lat="48.69483" lon="-3.64574">
        <ele>9.5</ele>
        <time>2020-08-15T19:16:02Z</time>
      </trkpt>
      <trkpt lat="48.69455" lon="-3.64595">
        <ele>6.6</ele>
        <time>2020-08-15T19:16:08Z</time>
      </trkpt>
      <trkpt lat="48.69442" lon="-3.64599">
        <ele>7.3</ele>
        <time>2020-08-15T19:16:16Z</time>
      </trkpt>
      <trkpt lat="48.6944" lon="-3.646">
        <ele>7.4</ele>
        <time>2020-08-15T19:16:17Z</time>
      </trkpt>
      <trkpt lat="48.69421" lon="-3.6461">
        <ele>7.6</ele>
        <time>2020-08-15T19:16:24Z</time>
      </trkpt>
      <trkpt lat="48.69407" lon="-3.64629">
        <ele>9.2</ele>
        <time>2020-08-15T19:16:30Z</time>
      </trkpt>
      <trkpt lat="48.69391" lon="-3.64652">
        <ele>8.5</ele>
        <time>2020-08-15T19:16:37Z</time>
      </trkpt>
      <trkpt lat="48.69378" lon="-3.64689">
        <ele>6.6</ele>
        <time>2020-08-15T19:16:45Z</time>
      </trkpt>
      <trkpt lat="48.69369" lon="-3.64712">
        <ele>6.7</ele>
        <time>2020-08-15T19:16:51Z</time>
      </trkpt>
      <trkpt lat="48.69357" lon="-3.64727">
        <ele>7.3</ele>
        <time>2020-08-15T19:16:57Z</time>
      </trkpt>
      <trkpt lat="48.69346" lon="-3.64736">
        <ele>8.1</ele>
        <time>2020-08-15T19:17:02Z</time>
      </trkpt>
      <trkpt lat="48.69344" lon="-3.64765">
        <ele>8.3</ele>
        <time>2020-08-15T19:17:08Z</time>
      </trkpt>
      <trkpt lat="48.69344" lon="-3.6479">
        <ele>7.8</ele>
        <time>2020-08-15T19:17:14Z</time>
      </trkpt>
      <trkpt lat="48.6934" lon="-3.64822">
        <ele>8.4</ele>
        <time>2020-08-15T19:17:23Z</time>
      </trkpt>
      <trkpt lat="48.69332" lon="-3.64845">
        <ele>10</ele>
        <time>2020-08-15T19:17:30Z</time>
      </trkpt>
      <trkpt lat="48.69325" lon="-3.64856">
        <ele>10.7</ele>
        <time>2020-08-15T19:17:35Z</time>
      </trkpt>
      <trkpt lat="48.69315" lon="-3.6488">
        <ele>11.2</ele>
        <time>2020-08-15T19:17:39Z</time>
      </trkpt>
      <trkpt lat="48.69319" lon="-3.64919">
        <ele>11</ele>
        <time>2020-08-15T19:17:49Z</time>
      </trkpt>
      <trkpt lat="48.69318" lon="-3.64935">
        <ele>11.8</ele>
        <time>2020-08-15T19:17:58Z</time>
      </trkpt>
      <trkpt lat="48.69312" lon="-3.64978">
        <ele>12.8</ele>
        <time>2020-08-15T19:18:05Z</time>
      </trkpt>
      <trkpt lat="48.69308" lon="-3.65004">
        <ele>14.8</ele>
        <time>2020-08-15T19:18:14Z</time>
      </trkpt>
      <trkpt lat="48.69305" lon="-3.65032">
        <ele>16.1</ele>
        <time>2020-08-15T19:18:24Z</time>
      </trkpt>
      <trkpt lat="48.69303" lon="-3.65056">
        <ele>16.8</ele>
        <time>2020-08-15T19:18:33Z</time>
      </trkpt>
      <trkpt lat="48.69304" lon="-3.65083">
        <ele>17</ele>
        <time>2020-08-15T19:18:43Z</time>
      </trkpt>
      <trkpt lat="48.69308" lon="-3.65113">
        <ele>19.8</ele>
        <time>2020-08-15T19:18:54Z</time>
      </trkpt>
      <trkpt lat="48.69313" lon="-3.65144">
        <ele>19.8</ele>
        <time>2020-08-15T19:19:06Z</time>
      </trkpt>
      <trkpt lat="48.69317" lon="-3.6517">
        <ele>20.8</ele>
        <time>2020-08-15T19:19:17Z</time>
      </trkpt>
      <trkpt lat="48.69317" lon="-3.6517">
        <ele>20.8</ele>
        <time>2020-08-15T19:19:23Z</time>
      </trkpt>
      <trkpt lat="48.69318" lon="-3.65212">
        <ele>23.4</ele>
        <time>2020-08-15T19:19:34Z</time>
      </trkpt>
      <trkpt lat="48.69317" lon="-3.65229">
        <ele>23.7</ele>
        <time>2020-08-15T19:19:42Z</time>
      </trkpt>
      <trkpt lat="48.69314" lon="-3.65247">
        <ele>23.7</ele>
        <time>2020-08-15T19:19:49Z</time>
      </trkpt>
      <trkpt lat="48.69308" lon="-3.65271">
        <ele>26.5</ele>
        <time>2020-08-15T19:19:59Z</time>
      </trkpt>
      <trkpt lat="48.69302" lon="-3.65291">
        <ele>27.4</ele>
        <time>2020-08-15T19:20:08Z</time>
      </trkpt>
      <trkpt lat="48.69296" lon="-3.6531">
        <ele>27.9</ele>
        <time>2020-08-15T19:20:16Z</time>
      </trkpt>
      <trkpt lat="48.69287" lon="-3.65331">
        <ele>28.8</ele>
        <time>2020-08-15T19:20:25Z</time>
      </trkpt>
      <trkpt lat="48.69275" lon="-3.65352">
        <ele>31.4</ele>
        <time>2020-08-15T19:20:35Z</time>
      </trkpt>
      <trkpt lat="48.69265" lon="-3.65369">
        <ele>31.9</ele>
        <time>2020-08-15T19:20:43Z</time>
      </trkpt>
      <trkpt lat="48.69257" lon="-3.65383">
        <ele>32.5</ele>
        <time>2020-08-15T19:20:50Z</time>
      </trkpt>
      <trkpt lat="48.69245" lon="-3.65401">
        <ele>36.5</ele>
        <time>2020-08-15T19:20:59Z</time>
      </trkpt>
      <trkpt lat="48.69234" lon="-3.65418">
        <ele>37.3</ele>
        <time>2020-08-15T19:21:07Z</time>
      </trkpt>
      <trkpt lat="48.69219" lon="-3.65446">
        <ele>38.4</ele>
        <time>2020-08-15T19:21:19Z</time>
      </trkpt>
      <trkpt lat="48.69206" lon="-3.65468">
        <ele>38.9</ele>
        <time>2020-08-15T19:21:29Z</time>
      </trkpt>
      <trkpt lat="48.69194" lon="-3.65487">
        <ele>39.4</ele>
        <time>2020-08-15T19:21:38Z</time>
      </trkpt>
      <trkpt lat="48.69183" lon="-3.65505">
        <ele>40.3</ele>
        <time>2020-08-15T19:21:46Z</time>
      </trkpt>
      <trkpt lat="48.69168" lon="-3.6553">
        <ele>40.3</ele>
        <time>2020-08-15T19:21:56Z</time>
      </trkpt>
      <trkpt lat="48.69155" lon="-3.6555">
        <ele>42.3</ele>
        <time>2020-08-15T19:22:04Z</time>
      </trkpt>
      <trkpt lat="48.69142" lon="-3.65571">
        <ele>42.4</ele>
        <time>2020-08-15T19:22:12Z</time>
      </trkpt>
      <trkpt lat="48.69129" lon="-3.65589">
        <ele>43</ele>
        <time>2020-08-15T19:22:20Z</time>
      </trkpt>
      <trkpt lat="48.69116" lon="-3.65603">
        <ele>43.4</ele>
        <time>2020-08-15T19:22:27Z</time>
      </trkpt>
      <trkpt lat="48.69097" lon="-3.65616">
        <ele>43.8</ele>
        <time>2020-08-15T19:22:36Z</time>
      </trkpt>
      <trkpt lat="48.69073" lon="-3.65625">
        <ele>45.3</ele>
        <time>2020-08-15T19:22:46Z</time>
      </trkpt>
      <trkpt lat="48.69046" lon="-3.65634">
        <ele>45.5</ele>
        <time>2020-08-15T19:22:57Z</time>
      </trkpt>
      <trkpt lat="48.69017" lon="-3.65642">
        <ele>45.7</ele>
        <time>2020-08-15T19:23:08Z</time>
      </trkpt>
      <trkpt lat="48.68991" lon="-3.6565">
        <ele>46.3</ele>
        <time>2020-08-15T19:23:17Z</time>
      </trkpt>
      <trkpt lat="48.68956" lon="-3.65661">
        <ele>46.5</ele>
        <time>2020-08-15T19:23:28Z</time>
      </trkpt>
      <trkpt lat="48.68952" lon="-3.65662">
        <ele>46.6</ele>
        <time>2020-08-15T19:23:33Z</time>
      </trkpt>
      <trkpt lat="48.68952" lon="-3.65662">
        <ele>46.6</ele>
        <time>2020-08-15T19:23:38Z</time>
      </trkpt>
      <trkpt lat="48.68924" lon="-3.65675">
        <ele>46.8</ele>
        <time>2020-08-15T19:23:43Z</time>
      </trkpt>
      <trkpt lat="48.68924" lon="-3.65673">
        <ele>46.8</ele>
        <time>2020-08-15T19:23:45Z</time>
      </trkpt>
      <trkpt lat="48.68918" lon="-3.65658">
        <ele>46.9</ele>
        <time>2020-08-15T19:24:21Z</time>
      </trkpt>
      <trkpt lat="48.68914" lon="-3.65645">
        <ele>46.8</ele>
        <time>2020-08-15T19:24:24Z</time>
      </trkpt>
      <trkpt lat="48.68913" lon="-3.65641">
        <ele>46.7</ele>
        <time>2020-08-15T19:24:26Z</time>
      </trkpt>
      <trkpt lat="48.68889" lon="-3.65644">
        <ele>46.7</ele>
        <time>2020-08-15T19:24:30Z</time>
      </trkpt>
      <trkpt lat="48.68855" lon="-3.65678">
        <ele>46.8</ele>
        <time>2020-08-15T19:24:37Z</time>
      </trkpt>
      <trkpt lat="48.68825" lon="-3.65698">
        <ele>45.8</ele>
        <time>2020-08-15T19:24:43Z</time>
      </trkpt>
      <trkpt lat="48.68776" lon="-3.65717">
        <ele>45.1</ele>
        <time>2020-08-15T19:24:52Z</time>
      </trkpt>
      <trkpt lat="48.68738" lon="-3.65749">
        <ele>44.7</ele>
        <time>2020-08-15T19:25:00Z</time>
      </trkpt>
      <trkpt lat="48.68706" lon="-3.65779">
        <ele>45.9</ele>
        <time>2020-08-15T19:25:08Z</time>
      </trkpt>
      <trkpt lat="48.68674" lon="-3.6582">
        <ele>46.5</ele>
        <time>2020-08-15T19:25:17Z</time>
      </trkpt>
      <trkpt lat="48.68645" lon="-3.65857">
        <ele>47.4</ele>
        <time>2020-08-15T19:25:26Z</time>
      </trkpt>
      <trkpt lat="48.68627" lon="-3.65872">
        <ele>47.5</ele>
        <time>2020-08-15T19:25:31Z</time>
      </trkpt>
      <trkpt lat="48.68589" lon="-3.65886">
        <ele>47.6</ele>
        <time>2020-08-15T19:25:40Z</time>
      </trkpt>
      <trkpt lat="48.68554" lon="-3.65893">
        <ele>48</ele>
        <time>2020-08-15T19:25:48Z</time>
      </trkpt>
      <trkpt lat="48.68546" lon="-3.65896">
        <ele>48</ele>
        <time>2020-08-15T19:25:50Z</time>
      </trkpt>
      <trkpt lat="48.68514" lon="-3.65914">
        <ele>48</ele>
        <time>2020-08-15T19:25:58Z</time>
      </trkpt>
      <trkpt lat="48.68485" lon="-3.65935">
        <ele>48.8</ele>
        <time>2020-08-15T19:26:06Z</time>
      </trkpt>
      <trkpt lat="48.68454" lon="-3.65948">
        <ele>49.2</ele>
        <time>2020-08-15T19:26:14Z</time>
      </trkpt>
      <trkpt lat="48.68412" lon="-3.65944">
        <ele>49.8</ele>
        <time>2020-08-15T19:26:24Z</time>
      </trkpt>
      <trkpt lat="48.68371" lon="-3.65933">
        <ele>50.2</ele>
        <time>2020-08-15T19:26:34Z</time>
      </trkpt>
      <trkpt lat="48.68338" lon="-3.65926">
        <ele>50.7</ele>
        <time>2020-08-15T19:26:43Z</time>
      </trkpt>
      <trkpt lat="48.68307" lon="-3.65931">
        <ele>50.4</ele>
        <time>2020-08-15T19:26:52Z</time>
      </trkpt>
      <trkpt lat="48.6829" lon="-3.65937">
        <ele>50.2</ele>
        <time>2020-08-15T19:26:57Z</time>
      </trkpt>
      <trkpt lat="48.68264" lon="-3.65968">
        <ele>50.1</ele>
        <time>2020-08-15T19:27:04Z</time>
      </trkpt>
      <trkpt lat="48.68228" lon="-3.66033">
        <ele>49.2</ele>
        <time>2020-08-15T19:27:16Z</time>
      </trkpt>
      <trkpt lat="48.68199" lon="-3.66085">
        <ele>49.5</ele>
        <time>2020-08-15T19:27:25Z</time>
      </trkpt>
      <trkpt lat="48.68183" lon="-3.66114">
        <ele>49.7</ele>
        <time>2020-08-15T19:27:30Z</time>
      </trkpt>
      <trkpt lat="48.68151" lon="-3.66148">
        <ele>50.3</ele>
        <time>2020-08-15T19:27:38Z</time>
      </trkpt>
      <trkpt lat="48.68138" lon="-3.66156">
        <ele>50.3</ele>
        <time>2020-08-15T19:27:41Z</time>
      </trkpt>
      <trkpt lat="48.68111" lon="-3.66181">
        <ele>51.8</ele>
        <time>2020-08-15T19:27:49Z</time>
      </trkpt>
      <trkpt lat="48.68095" lon="-3.66197">
        <ele>51.9</ele>
        <time>2020-08-15T19:27:55Z</time>
      </trkpt>
      <trkpt lat="48.68073" lon="-3.66218">
        <ele>52.1</ele>
        <time>2020-08-15T19:28:04Z</time>
      </trkpt>
      <trkpt lat="48.6805" lon="-3.66239">
        <ele>52.1</ele>
        <time>2020-08-15T19:28:13Z</time>
      </trkpt>
      <trkpt lat="48.68024" lon="-3.66265">
        <ele>52.4</ele>
        <time>2020-08-15T19:28:22Z</time>
      </trkpt>
      <trkpt lat="48.67999" lon="-3.66288">
        <ele>51.8</ele>
        <time>2020-08-15T19:28:29Z</time>
      </trkpt>
      <trkpt lat="48.6796" lon="-3.66327">
        <ele>51.7</ele>
        <time>2020-08-15T19:28:39Z</time>
      </trkpt>
      <trkpt lat="48.67936" lon="-3.66361">
        <ele>51.7</ele>
        <time>2020-08-15T19:28:46Z</time>
      </trkpt>
      <trkpt lat="48.67925" lon="-3.66374">
        <ele>51.7</ele>
        <time>2020-08-15T19:28:49Z</time>
      </trkpt>
      <trkpt lat="48.67889" lon="-3.66406">
        <ele>51.6</ele>
        <time>2020-08-15T19:28:58Z</time>
      </trkpt>
      <trkpt lat="48.67881" lon="-3.66413">
        <ele>51.7</ele>
        <time>2020-08-15T19:29:00Z</time>
      </trkpt>
      <trkpt lat="48.67857" lon="-3.66455">
        <ele>51.9</ele>
        <time>2020-08-15T19:29:07Z</time>
      </trkpt>
      <trkpt lat="48.67836" lon="-3.66532">
        <ele>51.3</ele>
        <time>2020-08-15T19:29:16Z</time>
      </trkpt>
      <trkpt lat="48.67831" lon="-3.66556">
        <ele>51.8</ele>
        <time>2020-08-15T19:29:19Z</time>
      </trkpt>
      <trkpt lat="48.6783" lon="-3.66618">
        <ele>51.3</ele>
        <time>2020-08-15T19:29:27Z</time>
      </trkpt>
      <trkpt lat="48.6783" lon="-3.66626">
        <ele>51.3</ele>
        <time>2020-08-15T19:29:28Z</time>
      </trkpt>
      <trkpt lat="48.67821" lon="-3.66653">
        <ele>50.9</ele>
        <time>2020-08-15T19:29:32Z</time>
      </trkpt>
      <trkpt lat="48.67808" lon="-3.6666">
        <ele>51.2</ele>
        <time>2020-08-15T19:29:35Z</time>
      </trkpt>
      <trkpt lat="48.67801" lon="-3.66657">
        <ele>51.4</ele>
        <time>2020-08-15T19:29:37Z</time>
      </trkpt>
      <trkpt lat="48.67794" lon="-3.66648">
        <ele>51.6</ele>
        <time>2020-08-15T19:29:42Z</time>
      </trkpt>
      <trkpt lat="48.67784" lon="-3.66631">
        <ele>51.9</ele>
        <time>2020-08-15T19:29:50Z</time>
      </trkpt>
      <trkpt lat="48.67778" lon="-3.66623">
        <ele>52</ele>
        <time>2020-08-15T19:29:54Z</time>
      </trkpt>
      <trkpt lat="48.67764" lon="-3.66613">
        <ele>52.2</ele>
        <time>2020-08-15T19:30:01Z</time>
      </trkpt>
      <trkpt lat="48.67752" lon="-3.66606">
        <ele>52.4</ele>
        <time>2020-08-15T19:30:06Z</time>
      </trkpt>
      <trkpt lat="48.67732" lon="-3.66592">
        <ele>53.5</ele>
        <time>2020-08-15T19:30:13Z</time>
      </trkpt>
      <trkpt lat="48.67716" lon="-3.66582">
        <ele>53.6</ele>
        <time>2020-08-15T19:30:18Z</time>
      </trkpt>
      <trkpt lat="48.67694" lon="-3.66568">
        <ele>53.9</ele>
        <time>2020-08-15T19:30:25Z</time>
      </trkpt>
      <trkpt lat="48.67662" lon="-3.66549">
        <ele>54.1</ele>
        <time>2020-08-15T19:30:35Z</time>
      </trkpt>
      <trkpt lat="48.67629" lon="-3.66526">
        <ele>53.9</ele>
        <time>2020-08-15T19:30:45Z</time>
      </trkpt>
      <trkpt lat="48.67606" lon="-3.66499">
        <ele>53.7</ele>
        <time>2020-08-15T19:30:52Z</time>
      </trkpt>
      <trkpt lat="48.67565" lon="-3.66461">
        <ele>54</ele>
        <time>2020-08-15T19:31:02Z</time>
      </trkpt>
      <trkpt lat="48.67544" lon="-3.66447">
        <ele>54</ele>
        <time>2020-08-15T19:31:11Z</time>
      </trkpt>
      <trkpt lat="48.6748" lon="-3.66408">
        <ele>55.2</ele>
        <time>2020-08-15T19:31:21Z</time>
      </trkpt>
      <trkpt lat="48.67438" lon="-3.66387">
        <ele>56.1</ele>
        <time>2020-08-15T19:31:31Z</time>
      </trkpt>
      <trkpt lat="48.67418" lon="-3.66375">
        <ele>56.4</ele>
        <time>2020-08-15T19:31:36Z</time>
      </trkpt>
      <trkpt lat="48.67411" lon="-3.6637">
        <ele>57.4</ele>
        <time>2020-08-15T19:31:38Z</time>
      </trkpt>
      <trkpt lat="48.67371" lon="-3.66343">
        <ele>57.9</ele>
        <time>2020-08-15T19:31:49Z</time>
      </trkpt>
      <trkpt lat="48.67348" lon="-3.66327">
        <ele>59.1</ele>
        <time>2020-08-15T19:31:56Z</time>
      </trkpt>
      <trkpt lat="48.6732" lon="-3.6631">
        <ele>60.1</ele>
        <time>2020-08-15T19:32:05Z</time>
      </trkpt>
      <trkpt lat="48.67294" lon="-3.663">
        <ele>60.6</ele>
        <time>2020-08-15T19:32:13Z</time>
      </trkpt>
      <trkpt lat="48.67272" lon="-3.66296">
        <ele>61</ele>
        <time>2020-08-15T19:32:20Z</time>
      </trkpt>
      <trkpt lat="48.67247" lon="-3.663">
        <ele>62.4</ele>
        <time>2020-08-15T19:32:28Z</time>
      </trkpt>
      <trkpt lat="48.67228" lon="-3.66307">
        <ele>62.5</ele>
        <time>2020-08-15T19:32:34Z</time>
      </trkpt>
      <trkpt lat="48.67206" lon="-3.66319">
        <ele>62.6</ele>
        <time>2020-08-15T19:32:41Z</time>
      </trkpt>
      <trkpt lat="48.67176" lon="-3.6633">
        <ele>62.3</ele>
        <time>2020-08-15T19:32:50Z</time>
      </trkpt>
      <trkpt lat="48.67147" lon="-3.66334">
        <ele>61.9</ele>
        <time>2020-08-15T19:32:59Z</time>
      </trkpt>
      <trkpt lat="48.67125" lon="-3.66334">
        <ele>62.3</ele>
        <time>2020-08-15T19:33:07Z</time>
      </trkpt>
      <trkpt lat="48.67109" lon="-3.66335">
        <ele>62.8</ele>
        <time>2020-08-15T19:33:13Z</time>
      </trkpt>
      <trkpt lat="48.67092" lon="-3.66333">
        <ele>65.2</ele>
        <time>2020-08-15T19:33:20Z</time>
      </trkpt>
      <trkpt lat="48.67078" lon="-3.66329">
        <ele>66.3</ele>
        <time>2020-08-15T19:33:26Z</time>
      </trkpt>
      <trkpt lat="48.67069" lon="-3.66326">
        <ele>67.6</ele>
        <time>2020-08-15T19:33:33Z</time>
      </trkpt>
      <trkpt lat="48.67053" lon="-3.66348">
        <ele>66</ele>
        <time>2020-08-15T19:33:39Z</time>
      </trkpt>
      <trkpt lat="48.67041" lon="-3.66368">
        <ele>66</ele>
        <time>2020-08-15T19:33:45Z</time>
      </trkpt>
      <trkpt lat="48.67024" lon="-3.66391">
        <ele>65.9</ele>
        <time>2020-08-15T19:33:51Z</time>
      </trkpt>
      <trkpt lat="48.67001" lon="-3.66419">
        <ele>65.5</ele>
        <time>2020-08-15T19:33:58Z</time>
      </trkpt>
      <trkpt lat="48.6697" lon="-3.6645">
        <ele>66.1</ele>
        <time>2020-08-15T19:34:06Z</time>
      </trkpt>
      <trkpt lat="48.6692" lon="-3.66488">
        <ele>66.2</ele>
        <time>2020-08-15T19:34:18Z</time>
      </trkpt>
      <trkpt lat="48.66885" lon="-3.66511">
        <ele>66.5</ele>
        <time>2020-08-15T19:34:26Z</time>
      </trkpt>
      <trkpt lat="48.66843" lon="-3.66549">
        <ele>66.4</ele>
        <time>2020-08-15T19:34:35Z</time>
      </trkpt>
      <trkpt lat="48.66809" lon="-3.6657">
        <ele>67.4</ele>
        <time>2020-08-15T19:34:43Z</time>
      </trkpt>
      <trkpt lat="48.66771" lon="-3.66596">
        <ele>65.3</ele>
        <time>2020-08-15T19:34:52Z</time>
      </trkpt>
      <trkpt lat="48.66741" lon="-3.66616">
        <ele>64.8</ele>
        <time>2020-08-15T19:34:58Z</time>
      </trkpt>
      <trkpt lat="48.66714" lon="-3.66632">
        <ele>64.1</ele>
        <time>2020-08-15T19:35:03Z</time>
      </trkpt>
      <trkpt lat="48.66669" lon="-3.66663">
        <ele>62.4</ele>
        <time>2020-08-15T19:35:11Z</time>
      </trkpt>
      <trkpt lat="48.66618" lon="-3.66697">
        <ele>61</ele>
        <time>2020-08-15T19:35:20Z</time>
      </trkpt>
      <trkpt lat="48.66579" lon="-3.66717">
        <ele>60.4</ele>
        <time>2020-08-15T19:35:28Z</time>
      </trkpt>
      <trkpt lat="48.66543" lon="-3.66743">
        <ele>60.5</ele>
        <time>2020-08-15T19:35:35Z</time>
      </trkpt>
      <trkpt lat="48.66512" lon="-3.66773">
        <ele>61.1</ele>
        <time>2020-08-15T19:35:42Z</time>
      </trkpt>
      <trkpt lat="48.6649" lon="-3.668">
        <ele>61.8</ele>
        <time>2020-08-15T19:35:48Z</time>
      </trkpt>
      <trkpt lat="48.66457" lon="-3.66841">
        <ele>62.8</ele>
        <time>2020-08-15T19:35:57Z</time>
      </trkpt>
      <trkpt lat="48.66425" lon="-3.66878">
        <ele>63</ele>
        <time>2020-08-15T19:36:05Z</time>
      </trkpt>
      <trkpt lat="48.66395" lon="-3.66905">
        <ele>62.7</ele>
        <time>2020-08-15T19:36:12Z</time>
      </trkpt>
      <trkpt lat="48.6636" lon="-3.66924">
        <ele>62.9</ele>
        <time>2020-08-15T19:36:20Z</time>
      </trkpt>
      <trkpt lat="48.66328" lon="-3.66933">
        <ele>62.6</ele>
        <time>2020-08-15T19:36:27Z</time>
      </trkpt>
      <trkpt lat="48.66295" lon="-3.66938">
        <ele>63</ele>
        <time>2020-08-15T19:36:36Z</time>
      </trkpt>
      <trkpt lat="48.66262" lon="-3.66941">
        <ele>62.9</ele>
        <time>2020-08-15T19:36:46Z</time>
      </trkpt>
      <trkpt lat="48.6624" lon="-3.66944">
        <ele>63.2</ele>
        <time>2020-08-15T19:36:53Z</time>
      </trkpt>
      <trkpt lat="48.66209" lon="-3.66951">
        <ele>63.4</ele>
        <time>2020-08-15T19:37:02Z</time>
      </trkpt>
      <trkpt lat="48.66176" lon="-3.66958">
        <ele>63.5</ele>
        <time>2020-08-15T19:37:11Z</time>
      </trkpt>
      <trkpt lat="48.66147" lon="-3.66965">
        <ele>64.7</ele>
        <time>2020-08-15T19:37:19Z</time>
      </trkpt>
      <trkpt lat="48.66109" lon="-3.66975">
        <ele>65.4</ele>
        <time>2020-08-15T19:37:31Z</time>
      </trkpt>
      <trkpt lat="48.66097" lon="-3.66979">
        <ele>65.8</ele>
        <time>2020-08-15T19:37:36Z</time>
      </trkpt>
      <trkpt lat="48.66079" lon="-3.66987">
        <ele>67</ele>
        <time>2020-08-15T19:37:43Z</time>
      </trkpt>
      <trkpt lat="48.66051" lon="-3.66998">
        <ele>67.1</ele>
        <time>2020-08-15T19:37:52Z</time>
      </trkpt>
      <trkpt lat="48.6603" lon="-3.67007">
        <ele>68.1</ele>
        <time>2020-08-15T19:37:59Z</time>
      </trkpt>
      <trkpt lat="48.6601" lon="-3.67017">
        <ele>68.2</ele>
        <time>2020-08-15T19:38:06Z</time>
      </trkpt>
      <trkpt lat="48.65978" lon="-3.67031">
        <ele>69.6</ele>
        <time>2020-08-15T19:38:16Z</time>
      </trkpt>
      <trkpt lat="48.65948" lon="-3.67045">
        <ele>70.2</ele>
        <time>2020-08-15T19:38:26Z</time>
      </trkpt>
      <trkpt lat="48.65916" lon="-3.6706">
        <ele>71.7</ele>
        <time>2020-08-15T19:38:37Z</time>
      </trkpt>
      <trkpt lat="48.65892" lon="-3.67072">
        <ele>71.9</ele>
        <time>2020-08-15T19:38:45Z</time>
      </trkpt>
      <trkpt lat="48.65864" lon="-3.67086">
        <ele>72.9</ele>
        <time>2020-08-15T19:38:55Z</time>
      </trkpt>
      <trkpt lat="48.65837" lon="-3.67098">
        <ele>73</ele>
        <time>2020-08-15T19:39:05Z</time>
      </trkpt>
      <trkpt lat="48.65814" lon="-3.67108">
        <ele>73.9</ele>
        <time>2020-08-15T19:39:14Z</time>
      </trkpt>
      <trkpt lat="48.65785" lon="-3.67121">
        <ele>74.3</ele>
        <time>2020-08-15T19:39:25Z</time>
      </trkpt>
      <trkpt lat="48.6576" lon="-3.67134">
        <ele>74.7</ele>
        <time>2020-08-15T19:39:34Z</time>
      </trkpt>
      <trkpt lat="48.65749" lon="-3.67138">
        <ele>75.8</ele>
        <time>2020-08-15T19:39:40Z</time>
      </trkpt>
      <trkpt lat="48.65748" lon="-3.67139">
        <ele>75.8</ele>
        <time>2020-08-15T19:39:41Z</time>
      </trkpt>
      <trkpt lat="48.6574" lon="-3.67143">
        <ele>75.9</ele>
        <time>2020-08-15T19:39:46Z</time>
      </trkpt>
      <trkpt lat="48.65719" lon="-3.67152">
        <ele>76.1</ele>
        <time>2020-08-15T19:39:56Z</time>
      </trkpt>
      <trkpt lat="48.65707" lon="-3.67159">
        <ele>76.4</ele>
        <time>2020-08-15T19:40:02Z</time>
      </trkpt>
      <trkpt lat="48.65695" lon="-3.67166">
        <ele>76.7</ele>
        <time>2020-08-15T19:40:08Z</time>
      </trkpt>
      <trkpt lat="48.65682" lon="-3.67174">
        <ele>77.9</ele>
        <time>2020-08-15T19:40:14Z</time>
      </trkpt>
      <trkpt lat="48.65666" lon="-3.67184">
        <ele>78.4</ele>
        <time>2020-08-15T19:40:21Z</time>
      </trkpt>
      <trkpt lat="48.65646" lon="-3.67199">
        <ele>78.7</ele>
        <time>2020-08-15T19:40:30Z</time>
      </trkpt>
      <trkpt lat="48.65625" lon="-3.67214">
        <ele>78.8</ele>
        <time>2020-08-15T19:40:38Z</time>
      </trkpt>
      <trkpt lat="48.65604" lon="-3.67232">
        <ele>78.9</ele>
        <time>2020-08-15T19:40:46Z</time>
      </trkpt>
      <trkpt lat="48.65583" lon="-3.6725">
        <ele>79</ele>
        <time>2020-08-15T19:40:54Z</time>
      </trkpt>
      <trkpt lat="48.65555" lon="-3.67272">
        <ele>78.2</ele>
        <time>2020-08-15T19:41:03Z</time>
      </trkpt>
      <trkpt lat="48.65529" lon="-3.67296">
        <ele>77.8</ele>
        <time>2020-08-15T19:41:11Z</time>
      </trkpt>
      <trkpt lat="48.65501" lon="-3.67321">
        <ele>77.4</ele>
        <time>2020-08-15T19:41:20Z</time>
      </trkpt>
      <trkpt lat="48.65467" lon="-3.67343">
        <ele>76.9</ele>
        <time>2020-08-15T19:41:30Z</time>
      </trkpt>
      <trkpt lat="48.65442" lon="-3.67356">
        <ele>76.8</ele>
        <time>2020-08-15T19:41:38Z</time>
      </trkpt>
      <trkpt lat="48.65411" lon="-3.6737">
        <ele>76.6</ele>
        <time>2020-08-15T19:41:47Z</time>
      </trkpt>
      <trkpt lat="48.65385" lon="-3.67382">
        <ele>76.6</ele>
        <time>2020-08-15T19:41:55Z</time>
      </trkpt>
      <trkpt lat="48.65374" lon="-3.67384">
        <ele>76.6</ele>
        <time>2020-08-15T19:42:01Z</time>
      </trkpt>
      <trkpt lat="48.65355" lon="-3.67426">
        <ele>77.4</ele>
        <time>2020-08-15T19:42:08Z</time>
      </trkpt>
      <trkpt lat="48.65344" lon="-3.67448">
        <ele>77.4</ele>
        <time>2020-08-15T19:42:14Z</time>
      </trkpt>
      <trkpt lat="48.65322" lon="-3.67488">
        <ele>77.2</ele>
        <time>2020-08-15T19:42:24Z</time>
      </trkpt>
      <trkpt lat="48.65302" lon="-3.67524">
        <ele>77.3</ele>
        <time>2020-08-15T19:42:33Z</time>
      </trkpt>
      <trkpt lat="48.6528" lon="-3.67566">
        <ele>77.2</ele>
        <time>2020-08-15T19:42:43Z</time>
      </trkpt>
      <trkpt lat="48.65263" lon="-3.67597">
        <ele>77.3</ele>
        <time>2020-08-15T19:42:51Z</time>
      </trkpt>
      <trkpt lat="48.65248" lon="-3.6762">
        <ele>76.7</ele>
        <time>2020-08-15T19:42:58Z</time>
      </trkpt>
      <trkpt lat="48.65234" lon="-3.67642">
        <ele>76.8</ele>
        <time>2020-08-15T19:43:05Z</time>
      </trkpt>
      <trkpt lat="48.65215" lon="-3.67667">
        <ele>77</ele>
        <time>2020-08-15T19:43:13Z</time>
      </trkpt>
      <trkpt lat="48.65192" lon="-3.67691">
        <ele>76.6</ele>
        <time>2020-08-15T19:43:22Z</time>
      </trkpt>
      <trkpt lat="48.65168" lon="-3.67717">
        <ele>76.4</ele>
        <time>2020-08-15T19:43:31Z</time>
      </trkpt>
      <trkpt lat="48.65147" lon="-3.67742">
        <ele>75.6</ele>
        <time>2020-08-15T19:43:38Z</time>
      </trkpt>
      <trkpt lat="48.65141" lon="-3.67751">
        <ele>75.4</ele>
        <time>2020-08-15T19:43:44Z</time>
      </trkpt>
      <trkpt lat="48.65137" lon="-3.67783">
        <ele>75.1</ele>
        <time>2020-08-15T19:43:45Z</time>
      </trkpt>
      <trkpt lat="48.65139" lon="-3.67809">
        <ele>75</ele>
        <time>2020-08-15T19:43:49Z</time>
      </trkpt>
      <trkpt lat="48.65148" lon="-3.67864">
        <ele>74.1</ele>
        <time>2020-08-15T19:43:57Z</time>
      </trkpt>
      <trkpt lat="48.65156" lon="-3.67904">
        <ele>73.5</ele>
        <time>2020-08-15T19:44:04Z</time>
      </trkpt>
      <trkpt lat="48.65158" lon="-3.67929">
        <ele>72.3</ele>
        <time>2020-08-15T19:44:10Z</time>
      </trkpt>
      <trkpt lat="48.6516" lon="-3.67958">
        <ele>71.3</ele>
        <time>2020-08-15T19:44:15Z</time>
      </trkpt>
      <trkpt lat="48.65162" lon="-3.67987">
        <ele>70.1</ele>
        <time>2020-08-15T19:44:21Z</time>
      </trkpt>
      <trkpt lat="48.65164" lon="-3.68002">
        <ele>68.8</ele>
        <time>2020-08-15T19:44:25Z</time>
      </trkpt>
      <trkpt lat="48.6518" lon="-3.68003">
        <ele>67.9</ele>
        <time>2020-08-15T19:44:29Z</time>
      </trkpt>
      <trkpt lat="48.65164" lon="-3.68003">
        <ele>68.7</ele>
        <time>2020-08-15T19:44:33Z</time>
      </trkpt>
      <trkpt lat="48.65164" lon="-3.68003">
        <ele>68.7</ele>
        <time>2020-08-15T19:44:34Z</time>
      </trkpt>
      <trkpt lat="48.65164" lon="-3.68005">
        <ele>68.6</ele>
        <time>2020-08-15T19:45:53Z</time>
      </trkpt>
      <trkpt lat="48.65164" lon="-3.68005">
        <ele>68.6</ele>
        <time>2020-08-15T19:46:02Z</time>
      </trkpt>
      <trkpt lat="48.65164" lon="-3.68005">
        <ele>68.6</ele>
        <time>2020-08-15T19:49:21Z</time>
      </trkpt>
      <trkpt lat="48.65164" lon="-3.68005">
        <ele>68.6</ele>
        <time>2020-08-15T19:49:25Z</time>
      </trkpt>
      <trkpt lat="48.65164" lon="-3.68005">
        <ele>68.6</ele>
        <time>2020-08-15T19:55:44Z</time>
      </trkpt>
      <trkpt lat="48.65164" lon="-3.68005">
        <ele>68.6</ele>
        <time>2020-08-15T19:55:53Z</time>
      </trkpt>
      <trkpt lat="48.65164" lon="-3.68005">
        <ele>68.6</ele>
        <time>2020-08-15T20:03:46Z</time>
      </trkpt>
      <trkpt lat="48.65165" lon="-3.68006">
        <ele>68.6</ele>
        <time>2020-08-15T20:05:42Z</time>
      </trkpt>
      <trkpt lat="48.65165" lon="-3.68006">
        <ele>68.6</ele>
        <time>2020-08-15T20:05:44Z</time>
      </trkpt>
      <trkpt lat="48.65165" lon="-3.68007">
        <ele>68.5</ele>
        <time>2020-08-15T20:05:51Z</time>
      </trkpt>
      <trkpt lat="48.65165" lon="-3.68011">
        <ele>68.3</ele>
        <time>2020-08-15T20:05:57Z</time>
      </trkpt>
      <trkpt lat="48.65201" lon="-3.67999">
        <ele>69.2</ele>
        <time>2020-08-15T20:06:00Z</time>
      </trkpt>
      <trkpt lat="48.65165" lon="-3.6801">
        <ele>68.4</ele>
        <time>2020-08-15T20:06:03Z</time>
      </trkpt>
      <trkpt lat="48.65164" lon="-3.68002">
        <ele>68.8</ele>
        <time>2020-08-15T20:06:11Z</time>
      </trkpt>
      <trkpt lat="48.65164" lon="-3.68002">
        <ele>68.8</ele>
        <time>2020-08-15T20:06:20Z</time>
      </trkpt>
      <trkpt lat="48.65164" lon="-3.68002">
        <ele>68.8</ele>
        <time>2020-08-15T20:06:21Z</time>
      </trkpt>
      <trkpt lat="48.65164" lon="-3.68002">
        <ele>68.8</ele>
        <time>2020-08-15T20:06:26Z</time>
      </trkpt>
      <trkpt lat="48.65164" lon="-3.68002">
        <ele>68.8</ele>
        <time>2020-08-15T20:06:45Z</time>
      </trkpt>
      <trkpt lat="48.65165" lon="-3.68006">
        <ele>68.6</ele>
        <time>2020-08-15T20:07:13Z</time>
      </trkpt>
      <trkpt lat="48.65165" lon="-3.68006">
        <ele>68.6</ele>
        <time>2020-08-15T20:07:17Z</time>
      </trkpt>
      <trkpt lat="48.65165" lon="-3.68006">
        <ele>68.6</ele>
        <time>2020-08-15T20:07:21Z</time>
      </trkpt>
      <trkpt lat="48.65165" lon="-3.68006">
        <ele>68.6</ele>
        <time>2020-08-15T20:07:27Z</time>
      </trkpt>
      <trkpt lat="48.65165" lon="-3.68006">
        <ele>68.6</ele>
        <time>2020-08-15T20:07:28Z</time>
      </trkpt>
      <trkpt lat="48.65165" lon="-3.68006">
        <ele>68.6</ele>
        <time>2020-08-15T20:07:34Z</time>
      </trkpt>
      <trkpt lat="48.65165" lon="-3.68006">
        <ele>68.6</ele>
        <time>2020-08-15T20:07:43Z</time>
      </trkpt>
      <trkpt lat="48.65163" lon="-3.67997">
        <ele>69.4</ele>
        <time>2020-08-15T20:07:50Z</time>
      </trkpt>
      <trkpt lat="48.65163" lon="-3.67997">
        <ele>69.4</ele>
        <time>2020-08-15T20:08:36Z</time>
      </trkpt>
      <trkpt lat="48.65163" lon="-3.67997">
        <ele>69.4</ele>
        <time>2020-08-15T20:08:37Z</time>
      </trkpt>
      <trkpt lat="48.65163" lon="-3.67997">
        <ele>69.4</ele>
        <time>2020-08-15T20:09:22Z</time>
      </trkpt>
      <trkpt lat="48.65163" lon="-3.67997">
        <ele>69.4</ele>
        <time>2020-08-15T20:09:26Z</time>
      </trkpt>
      <trkpt lat="48.65163" lon="-3.67997">
        <ele>69.4</ele>
        <time>2020-08-15T20:09:31Z</time>
      </trkpt>
      <trkpt lat="48.65165" lon="-3.68008">
        <ele>68.5</ele>
        <time>2020-08-15T20:09:36Z</time>
      </trkpt>
      <trkpt lat="48.65165" lon="-3.68008">
        <ele>68.5</ele>
        <time>2020-08-15T20:10:01Z</time>
      </trkpt>
      <trkpt lat="48.65165" lon="-3.68008">
        <ele>68.5</ele>
        <time>2020-08-15T20:10:25Z</time>
      </trkpt>
      <trkpt lat="48.65165" lon="-3.68008">
        <ele>68.5</ele>
        <time>2020-08-15T20:10:42Z</time>
      </trkpt>
      <trkpt lat="48.65165" lon="-3.68008">
        <ele>68.5</ele>
        <time>2020-08-15T20:10:58Z</time>
      </trkpt>
      <trkpt lat="48.65165" lon="-3.68008">
        <ele>68.5</ele>
        <time>2020-08-15T20:11:58Z</time>
      </trkpt>
      <trkpt lat="48.65165" lon="-3.68008">
        <ele>68.5</ele>
        <time>2020-08-15T20:11:59Z</time>
      </trkpt>
      <trkpt lat="48.65165" lon="-3.68008">
        <ele>68.5</ele>
        <time>2020-08-15T20:12:10Z</time>
      </trkpt>
      <trkpt lat="48.65164" lon="-3.67999">
        <ele>69.3</ele>
        <time>2020-08-15T20:14:19Z</time>
      </trkpt>
      <trkpt lat="48.65163" lon="-3.67998">
        <ele>69.4</ele>
        <time>2020-08-15T20:14:28Z</time>
      </trkpt>
      <trkpt lat="48.65163" lon="-3.67998">
        <ele>69.4</ele>
        <time>2020-08-15T20:14:31Z</time>
      </trkpt>
      <trkpt lat="48.65163" lon="-3.67998">
        <ele>69.4</ele>
        <time>2020-08-15T20:14:45Z</time>
      </trkpt>
      <trkpt lat="48.65163" lon="-3.67998">
        <ele>69.4</ele>
        <time>2020-08-15T20:14:57Z</time>
      </trkpt>
      <trkpt lat="48.65163" lon="-3.67998">
        <ele>69.4</ele>
        <time>2020-08-15T20:15:08Z</time>
      </trkpt>
      <trkpt lat="48.65163" lon="-3.67998">
        <ele>69.4</ele>
        <time>2020-08-15T20:15:14Z</time>
      </trkpt>
      <trkpt lat="48.65163" lon="-3.67998">
        <ele>69.4</ele>
        <time>2020-08-15T20:15:29Z</time>
      </trkpt>
      <trkpt lat="48.65163" lon="-3.67998">
        <ele>69.4</ele>
        <time>2020-08-15T20:17:19Z</time>
      </trkpt>
      <trkpt lat="48.65174" lon="-3.68002">
        <ele>68.3</ele>
        <time>2020-08-15T20:17:29Z</time>
      </trkpt>
      <trkpt lat="48.65172" lon="-3.68004">
        <ele>68.4</ele>
        <time>2020-08-15T20:17:34Z</time>
      </trkpt>
      <trkpt lat="48.65182" lon="-3.68002">
        <ele>67.8</ele>
        <time>2020-08-15T20:17:59Z</time>
      </trkpt>
      <trkpt lat="48.6518" lon="-3.68003">
        <ele>67.9</ele>
        <time>2020-08-15T20:18:03Z</time>
      </trkpt>
      <trkpt lat="48.65181" lon="-3.68008">
        <ele>67.7</ele>
        <time>2020-08-15T20:18:15Z</time>
      </trkpt>
      <trkpt lat="48.65178" lon="-3.68013">
        <ele>67.7</ele>
        <time>2020-08-15T20:18:21Z</time>
      </trkpt>
      <trkpt lat="48.65178" lon="-3.68011">
        <ele>67.8</ele>
        <time>2020-08-15T20:18:23Z</time>
      </trkpt>
      <trkpt lat="48.65184" lon="-3.68">
        <ele>67.8</ele>
        <time>2020-08-15T20:18:35Z</time>
      </trkpt>
      <trkpt lat="48.65184" lon="-3.67997">
        <ele>69.3</ele>
        <time>2020-08-15T20:18:38Z</time>
      </trkpt>
      <trkpt lat="48.65184" lon="-3.68001">
        <ele>67.7</ele>
        <time>2020-08-15T20:18:45Z</time>
      </trkpt>
      <trkpt lat="48.65181" lon="-3.68002">
        <ele>67.9</ele>
        <time>2020-08-15T20:18:49Z</time>
      </trkpt>
      <trkpt lat="48.65178" lon="-3.68006">
        <ele>67.9</ele>
        <time>2020-08-15T20:18:58Z</time>
      </trkpt>
      <trkpt lat="48.65179" lon="-3.68006">
        <ele>67.9</ele>
        <time>2020-08-15T20:18:59Z</time>
      </trkpt>
      <trkpt lat="48.65183" lon="-3.68004">
        <ele>67.8</ele>
        <time>2020-08-15T20:19:08Z</time>
      </trkpt>
      <trkpt lat="48.65172" lon="-3.68003">
        <ele>68.4</ele>
        <time>2020-08-15T20:19:52Z</time>
      </trkpt>
      <trkpt lat="48.65171" lon="-3.68">
        <ele>68.6</ele>
        <time>2020-08-15T20:19:58Z</time>
      </trkpt>
      <trkpt lat="48.65188" lon="-3.67994">
        <ele>69.3</ele>
        <time>2020-08-15T20:20:23Z</time>
      </trkpt>
      <trkpt lat="48.65191" lon="-3.67995">
        <ele>69.3</ele>
        <time>2020-08-15T20:20:30Z</time>
      </trkpt>
      <trkpt lat="48.6519" lon="-3.67997">
        <ele>69.3</ele>
        <time>2020-08-15T20:20:39Z</time>
      </trkpt>
      <trkpt lat="48.65178" lon="-3.67998">
        <ele>69.2</ele>
        <time>2020-08-15T20:21:00Z</time>
      </trkpt>
      <trkpt lat="48.65173" lon="-3.68001">
        <ele>68.4</ele>
        <time>2020-08-15T20:21:04Z</time>
      </trkpt>
      <trkpt lat="48.6517" lon="-3.68004">
        <ele>68.5</ele>
        <time>2020-08-15T20:21:11Z</time>
      </trkpt>
      <trkpt lat="48.65173" lon="-3.68004">
        <ele>68.3</ele>
        <time>2020-08-15T20:21:13Z</time>
      </trkpt>
      <trkpt lat="48.65188" lon="-3.67994">
        <ele>69.3</ele>
        <time>2020-08-15T20:21:26Z</time>
      </trkpt>
      <trkpt lat="48.65188" lon="-3.67993">
        <ele>69.3</ele>
        <time>2020-08-15T20:21:30Z</time>
      </trkpt>
      <trkpt lat="48.65181" lon="-3.67998">
        <ele>69.3</ele>
        <time>2020-08-15T20:21:45Z</time>
      </trkpt>
      <trkpt lat="48.6518" lon="-3.68002">
        <ele>67.9</ele>
        <time>2020-08-15T20:22:05Z</time>
      </trkpt>
      <trkpt lat="48.65191" lon="-3.67993">
        <ele>69.3</ele>
        <time>2020-08-15T20:22:20Z</time>
      </trkpt>
      <trkpt lat="48.6519" lon="-3.67991">
        <ele>69.4</ele>
        <time>2020-08-15T20:22:23Z</time>
      </trkpt>
      <trkpt lat="48.65193" lon="-3.67991">
        <ele>69.3</ele>
        <time>2020-08-15T20:22:46Z</time>
      </trkpt>
      <trkpt lat="48.65164" lon="-3.67999">
        <ele>69.3</ele>
        <time>2020-08-15T20:22:53Z</time>
      </trkpt>
      <trkpt lat="48.65165" lon="-3.68007">
        <ele>68.5</ele>
        <time>2020-08-15T20:22:59Z</time>
      </trkpt>
      <trkpt lat="48.65165" lon="-3.68007">
        <ele>68.5</ele>
        <time>2020-08-15T20:23:06Z</time>
      </trkpt>
      <trkpt lat="48.65165" lon="-3.68007">
        <ele>68.5</ele>
        <time>2020-08-15T20:23:12Z</time>
      </trkpt>
      <trkpt lat="48.65165" lon="-3.68007">
        <ele>68.5</ele>
        <time>2020-08-15T20:23:18Z</time>
      </trkpt>
      <trkpt lat="48.65199" lon="-3.67995">
        <ele>69.3</ele>
        <time>2020-08-15T20:23:49Z</time>
      </trkpt>
      <trkpt lat="48.65204" lon="-3.67997">
        <ele>69.2</ele>
        <time>2020-08-15T20:24:02Z</time>
      </trkpt>
      <trkpt lat="48.65203" lon="-3.67997">
        <ele>69.2</ele>
        <time>2020-08-15T20:24:03Z</time>
      </trkpt>
      <trkpt lat="48.65165" lon="-3.6801">
        <ele>68.4</ele>
        <time>2020-08-15T20:24:18Z</time>
      </trkpt>
      <trkpt lat="48.65165" lon="-3.6801">
        <ele>68.4</ele>
        <time>2020-08-15T20:24:24Z</time>
      </trkpt>
      <trkpt lat="48.65165" lon="-3.6801">
        <ele>68.4</ele>
        <time>2020-08-15T20:24:25Z</time>
      </trkpt>
      <trkpt lat="48.65165" lon="-3.6801">
        <ele>68.4</ele>
        <time>2020-08-15T20:25:53Z</time>
      </trkpt>
      <trkpt lat="48.65165" lon="-3.6801">
        <ele>68.4</ele>
        <time>2020-08-15T20:26:04Z</time>
      </trkpt>
      <trkpt lat="48.65165" lon="-3.6801">
        <ele>68.4</ele>
        <time>2020-08-15T20:26:09Z</time>
      </trkpt>
      <trkpt lat="48.65165" lon="-3.6801">
        <ele>68.4</ele>
        <time>2020-08-15T20:28:21Z</time>
      </trkpt>
      <trkpt lat="48.65165" lon="-3.6801">
        <ele>68.4</ele>
        <time>2020-08-15T20:28:56Z</time>
      </trkpt>
      <trkpt lat="48.65165" lon="-3.6801">
        <ele>68.4</ele>
        <time>2020-08-15T20:28:59Z</time>
      </trkpt>
      <trkpt lat="48.65165" lon="-3.6801">
        <ele>68.4</ele>
        <time>2020-08-15T20:29:10Z</time>
      </trkpt>
      <trkpt lat="48.65165" lon="-3.6801">
        <ele>68.4</ele>
        <time>2020-08-15T20:29:15Z</time>
      </trkpt>
      <trkpt lat="48.65165" lon="-3.6801">
        <ele>68.4</ele>
        <time>2020-08-15T20:29:20Z</time>
      </trkpt>
      <trkpt lat="48.65165" lon="-3.6801">
        <ele>68.4</ele>
        <time>2020-08-15T20:29:25Z</time>
      </trkpt>
      <trkpt lat="48.65165" lon="-3.6801">
        <ele>68.4</ele>
        <time>2020-08-15T20:29:35Z</time>
      </trkpt>
      <trkpt lat="48.65165" lon="-3.6801">
        <ele>68.4</ele>
        <time>2020-08-15T20:29:37Z</time>
      </trkpt>
      <trkpt lat="48.65165" lon="-3.6801">
        <ele>68.4</ele>
        <time>2020-08-15T20:29:44Z</time>
      </trkpt>
      <trkpt lat="48.65165" lon="-3.6801">
        <ele>68.4</ele>
        <time>2020-08-15T20:29:54Z</time>
      </trkpt>
      <trkpt lat="48.65165" lon="-3.6801">
        <ele>68.4</ele>
        <time>2020-08-15T20:30:05Z</time>
      </trkpt>
      <trkpt lat="48.65165" lon="-3.6801">
        <ele>68.4</ele>
        <time>2020-08-15T20:30:06Z</time>
      </trkpt>
      <trkpt lat="48.65165" lon="-3.6801">
        <ele>68.4</ele>
        <time>2020-08-15T20:30:11Z</time>
      </trkpt>
      <trkpt lat="48.65165" lon="-3.6801">
        <ele>68.4</ele>
        <time>2020-08-15T20:30:15Z</time>
      </trkpt>
      <trkpt lat="48.65181" lon="-3.68014">
        <ele>67.5</ele>
        <time>2020-08-15T20:30:20Z</time>
      </trkpt>
      <trkpt lat="48.65186" lon="-3.68012">
        <ele>67.4</ele>
        <time>2020-08-15T20:30:33Z</time>
      </trkpt>
      <trkpt lat="48.65181" lon="-3.68014">
        <ele>67.5</ele>
        <time>2020-08-15T20:30:42Z</time>
      </trkpt>
      <trkpt lat="48.65177" lon="-3.68014">
        <ele>67.7</ele>
        <time>2020-08-15T20:30:52Z</time>
      </trkpt>
      <trkpt lat="48.65178" lon="-3.68014">
        <ele>67.6</ele>
        <time>2020-08-15T20:30:53Z</time>
      </trkpt>
      <trkpt lat="48.65186" lon="-3.68013">
        <ele>67.4</ele>
        <time>2020-08-15T20:31:01Z</time>
      </trkpt>
      <trkpt lat="48.65181" lon="-3.68012">
        <ele>67.6</ele>
        <time>2020-08-15T20:31:53Z</time>
      </trkpt>
      <trkpt lat="48.65189" lon="-3.67995">
        <ele>69.3</ele>
        <time>2020-08-15T20:35:26Z</time>
      </trkpt>
      <trkpt lat="48.65184" lon="-3.68002">
        <ele>67.7</ele>
        <time>2020-08-15T20:40:45Z</time>
      </trkpt>
      <trkpt lat="48.65165" lon="-3.68007">
        <ele>68.5</ele>
        <time>2020-08-15T20:41:10Z</time>
      </trkpt>
      <trkpt lat="48.65165" lon="-3.68007">
        <ele>68.5</ele>
        <time>2020-08-15T20:41:14Z</time>
      </trkpt>
      <trkpt lat="48.65165" lon="-3.68007">
        <ele>68.5</ele>
        <time>2020-08-15T20:41:21Z</time>
      </trkpt>
      <trkpt lat="48.65165" lon="-3.68008">
        <ele>68.5</ele>
        <time>2020-08-15T20:41:40Z</time>
      </trkpt>
      <trkpt lat="48.65165" lon="-3.68008">
        <ele>68.5</ele>
        <time>2020-08-15T20:41:46Z</time>
      </trkpt>
      <trkpt lat="48.65165" lon="-3.68008">
        <ele>68.5</ele>
        <time>2020-08-15T20:41:47Z</time>
      </trkpt>
      <trkpt lat="48.65173" lon="-3.6799">
        <ele>69.3</ele>
        <time>2020-08-15T20:42:04Z</time>
      </trkpt>
      <trkpt lat="48.65166" lon="-3.67991">
        <ele>69.8</ele>
        <time>2020-08-15T20:42:10Z</time>
      </trkpt>
      <trkpt lat="48.65168" lon="-3.67991">
        <ele>69.3</ele>
        <time>2020-08-15T20:42:13Z</time>
      </trkpt>
      <trkpt lat="48.65179" lon="-3.67994">
        <ele>69.3</ele>
        <time>2020-08-15T20:42:28Z</time>
      </trkpt>
      <trkpt lat="48.6518" lon="-3.67993">
        <ele>69.3</ele>
        <time>2020-08-15T20:42:29Z</time>
      </trkpt>
      <trkpt lat="48.65185" lon="-3.67995">
        <ele>69.3</ele>
        <time>2020-08-15T20:42:34Z</time>
      </trkpt>
      <trkpt lat="48.65184" lon="-3.67994">
        <ele>69.3</ele>
        <time>2020-08-15T20:42:52Z</time>
      </trkpt>
      <trkpt lat="48.65164" lon="-3.68004">
        <ele>68.7</ele>
        <time>2020-08-15T20:43:15Z</time>
      </trkpt>
      <trkpt lat="48.65164" lon="-3.68004">
        <ele>68.7</ele>
        <time>2020-08-15T20:43:24Z</time>
      </trkpt>
      <trkpt lat="48.65164" lon="-3.68004">
        <ele>68.7</ele>
        <time>2020-08-15T20:44:12Z</time>
      </trkpt>
      <trkpt lat="48.65164" lon="-3.68004">
        <ele>68.7</ele>
        <time>2020-08-15T20:46:32Z</time>
      </trkpt>
      <trkpt lat="48.65164" lon="-3.68004">
        <ele>68.7</ele>
        <time>2020-08-15T20:46:40Z</time>
      </trkpt>
      <trkpt lat="48.65164" lon="-3.68004">
        <ele>68.7</ele>
        <time>2020-08-15T20:46:43Z</time>
      </trkpt>
      <trkpt lat="48.65164" lon="-3.68004">
        <ele>68.7</ele>
        <time>2020-08-15T20:46:47Z</time>
      </trkpt>
      <trkpt lat="48.6518" lon="-3.67996">
        <ele>69.3</ele>
        <time>2020-08-15T20:46:57Z</time>
      </trkpt>
      <trkpt lat="48.65181" lon="-3.67995">
        <ele>69.3</ele>
        <time>2020-08-15T20:47:00Z</time>
      </trkpt>
      <trkpt lat="48.65187" lon="-3.67993">
        <ele>69.3</ele>
        <time>2020-08-15T20:47:06Z</time>
      </trkpt>
      <trkpt lat="48.65188" lon="-3.67992">
        <ele>69.4</ele>
        <time>2020-08-15T20:47:08Z</time>
      </trkpt>
      <trkpt lat="48.65194" lon="-3.67989">
        <ele>69.4</ele>
        <time>2020-08-15T20:47:36Z</time>
      </trkpt>
      <trkpt lat="48.65197" lon="-3.6799">
        <ele>69.3</ele>
        <time>2020-08-15T20:47:59Z</time>
      </trkpt>
      <trkpt lat="48.65188" lon="-3.67995">
        <ele>69.3</ele>
        <time>2020-08-15T21:00:59Z</time>
      </trkpt>
      <trkpt lat="48.65192" lon="-3.67998">
        <ele>69.3</ele>
        <time>2020-08-15T21:11:24Z</time>
      </trkpt>
      <trkpt lat="48.65187" lon="-3.67996">
        <ele>69.3</ele>
        <time>2020-08-15T21:11:56Z</time>
      </trkpt>
      <trkpt lat="48.65949" lon="-3.67044">
        <ele>70.1</ele>
        <time>2020-08-16T08:02:20Z</time>
      </trkpt>
      <trkpt lat="48.66004" lon="-3.67019">
        <ele>68.2</ele>
        <time>2020-08-16T08:02:28Z</time>
      </trkpt>
      <trkpt lat="48.66032" lon="-3.67007">
        <ele>68.1</ele>
        <time>2020-08-16T08:02:31Z</time>
      </trkpt>
      <trkpt lat="48.66088" lon="-3.66983">
        <ele>66</ele>
        <time>2020-08-16T08:02:40Z</time>
      </trkpt>
      <trkpt lat="48.66094" lon="-3.6698">
        <ele>65.8</ele>
        <time>2020-08-16T08:02:41Z</time>
      </trkpt>
      <trkpt lat="48.66134" lon="-3.66968">
        <ele>64.9</ele>
        <time>2020-08-16T08:02:47Z</time>
      </trkpt>
      <trkpt lat="48.66187" lon="-3.66955">
        <ele>63.5</ele>
        <time>2020-08-16T08:02:55Z</time>
      </trkpt>
      <trkpt lat="48.66228" lon="-3.66947">
        <ele>63.3</ele>
        <time>2020-08-16T08:03:01Z</time>
      </trkpt>
      <trkpt lat="48.66281" lon="-3.66939">
        <ele>63</ele>
        <time>2020-08-16T08:03:09Z</time>
      </trkpt>
      <trkpt lat="48.66292" lon="-3.66938">
        <ele>63</ele>
        <time>2020-08-16T08:03:13Z</time>
      </trkpt>
      <trkpt lat="48.66292" lon="-3.66938">
        <ele>63</ele>
        <time>2020-08-16T08:03:18Z</time>
      </trkpt>
      <trkpt lat="48.66326" lon="-3.66934">
        <ele>62.7</ele>
        <time>2020-08-16T08:03:27Z</time>
      </trkpt>
      <trkpt lat="48.66353" lon="-3.66927">
        <ele>62.8</ele>
        <time>2020-08-16T08:03:35Z</time>
      </trkpt>
      <trkpt lat="48.66373" lon="-3.66919">
        <ele>63.1</ele>
        <time>2020-08-16T08:03:44Z</time>
      </trkpt>
      <trkpt lat="48.664" lon="-3.66902">
        <ele>62.8</ele>
        <time>2020-08-16T08:03:53Z</time>
      </trkpt>
      <trkpt lat="48.66421" lon="-3.66882">
        <ele>63.1</ele>
        <time>2020-08-16T08:04:00Z</time>
      </trkpt>
      <trkpt lat="48.66449" lon="-3.6685">
        <ele>62.8</ele>
        <time>2020-08-16T08:04:09Z</time>
      </trkpt>
      <trkpt lat="48.66464" lon="-3.66832">
        <ele>61.9</ele>
        <time>2020-08-16T08:04:15Z</time>
      </trkpt>
      <trkpt lat="48.66483" lon="-3.66805">
        <ele>61.9</ele>
        <time>2020-08-16T08:04:24Z</time>
      </trkpt>
      <trkpt lat="48.66504" lon="-3.66782">
        <ele>61.2</ele>
        <time>2020-08-16T08:04:33Z</time>
      </trkpt>
      <trkpt lat="48.66529" lon="-3.66751">
        <ele>60.9</ele>
        <time>2020-08-16T08:04:44Z</time>
      </trkpt>
      <trkpt lat="48.66556" lon="-3.66727">
        <ele>60.4</ele>
        <time>2020-08-16T08:04:53Z</time>
      </trkpt>
      <trkpt lat="48.66588" lon="-3.66706">
        <ele>60.8</ele>
        <time>2020-08-16T08:05:03Z</time>
      </trkpt>
      <trkpt lat="48.66604" lon="-3.66698">
        <ele>60.9</ele>
        <time>2020-08-16T08:05:10Z</time>
      </trkpt>
      <trkpt lat="48.66635" lon="-3.6668">
        <ele>61.2</ele>
        <time>2020-08-16T08:05:19Z</time>
      </trkpt>
      <trkpt lat="48.66665" lon="-3.6666">
        <ele>62.1</ele>
        <time>2020-08-16T08:05:28Z</time>
      </trkpt>
      <trkpt lat="48.66691" lon="-3.66643">
        <ele>63.7</ele>
        <time>2020-08-16T08:05:36Z</time>
      </trkpt>
      <trkpt lat="48.66715" lon="-3.66626">
        <ele>64.3</ele>
        <time>2020-08-16T08:05:44Z</time>
      </trkpt>
      <trkpt lat="48.6674" lon="-3.66612">
        <ele>65</ele>
        <time>2020-08-16T08:05:55Z</time>
      </trkpt>
      <trkpt lat="48.66786" lon="-3.66579">
        <ele>67.7</ele>
        <time>2020-08-16T08:06:06Z</time>
      </trkpt>
      <trkpt lat="48.66813" lon="-3.66559">
        <ele>67.7</ele>
        <time>2020-08-16T08:06:14Z</time>
      </trkpt>
      <trkpt lat="48.66845" lon="-3.66536">
        <ele>67.1</ele>
        <time>2020-08-16T08:06:23Z</time>
      </trkpt>
      <trkpt lat="48.6686" lon="-3.66527">
        <ele>67.1</ele>
        <time>2020-08-16T08:06:27Z</time>
      </trkpt>
      <trkpt lat="48.66896" lon="-3.66504">
        <ele>66.3</ele>
        <time>2020-08-16T08:06:36Z</time>
      </trkpt>
      <trkpt lat="48.66937" lon="-3.66477">
        <ele>66.3</ele>
        <time>2020-08-16T08:06:45Z</time>
      </trkpt>
      <trkpt lat="48.66976" lon="-3.66445">
        <ele>66.1</ele>
        <time>2020-08-16T08:06:54Z</time>
      </trkpt>
      <trkpt lat="48.67017" lon="-3.66401">
        <ele>65.8</ele>
        <time>2020-08-16T08:07:04Z</time>
      </trkpt>
      <trkpt lat="48.67049" lon="-3.66354">
        <ele>66.1</ele>
        <time>2020-08-16T08:07:14Z</time>
      </trkpt>
      <trkpt lat="48.67063" lon="-3.66326">
        <ele>68.1</ele>
        <time>2020-08-16T08:07:20Z</time>
      </trkpt>
      <trkpt lat="48.67088" lon="-3.66332">
        <ele>65.1</ele>
        <time>2020-08-16T08:07:25Z</time>
      </trkpt>
      <trkpt lat="48.67132" lon="-3.66334">
        <ele>62.1</ele>
        <time>2020-08-16T08:07:33Z</time>
      </trkpt>
      <trkpt lat="48.67191" lon="-3.66324">
        <ele>62.6</ele>
        <time>2020-08-16T08:07:43Z</time>
      </trkpt>
      <trkpt lat="48.67237" lon="-3.66304">
        <ele>62.4</ele>
        <time>2020-08-16T08:07:51Z</time>
      </trkpt>
      <trkpt lat="48.67249" lon="-3.66299">
        <ele>62.5</ele>
        <time>2020-08-16T08:07:53Z</time>
      </trkpt>
      <trkpt lat="48.67285" lon="-3.66298">
        <ele>60.8</ele>
        <time>2020-08-16T08:07:59Z</time>
      </trkpt>
      <trkpt lat="48.67328" lon="-3.66313">
        <ele>59.9</ele>
        <time>2020-08-16T08:08:06Z</time>
      </trkpt>
      <trkpt lat="48.67366" lon="-3.6634">
        <ele>57.9</ele>
        <time>2020-08-16T08:08:12Z</time>
      </trkpt>
      <trkpt lat="48.67428" lon="-3.66382">
        <ele>56.2</ele>
        <time>2020-08-16T08:08:21Z</time>
      </trkpt>
      <trkpt lat="48.67463" lon="-3.66399">
        <ele>55.7</ele>
        <time>2020-08-16T08:08:26Z</time>
      </trkpt>
      <trkpt lat="48.67512" lon="-3.66428">
        <ele>54</ele>
        <time>2020-08-16T08:08:34Z</time>
      </trkpt>
      <trkpt lat="48.67526" lon="-3.66437">
        <ele>54</ele>
        <time>2020-08-16T08:08:40Z</time>
      </trkpt>
      <trkpt lat="48.67587" lon="-3.66478">
        <ele>53.7</ele>
        <time>2020-08-16T08:08:48Z</time>
      </trkpt>
      <trkpt lat="48.67634" lon="-3.66516">
        <ele>53.8</ele>
        <time>2020-08-16T08:08:57Z</time>
      </trkpt>
      <trkpt lat="48.67671" lon="-3.66544">
        <ele>53.7</ele>
        <time>2020-08-16T08:09:05Z</time>
      </trkpt>
      <trkpt lat="48.6772" lon="-3.66574">
        <ele>53.5</ele>
        <time>2020-08-16T08:09:15Z</time>
      </trkpt>
      <trkpt lat="48.67732" lon="-3.66581">
        <ele>53.3</ele>
        <time>2020-08-16T08:09:19Z</time>
      </trkpt>
      <trkpt lat="48.67735" lon="-3.66583">
        <ele>53.3</ele>
        <time>2020-08-16T08:09:23Z</time>
      </trkpt>
      <trkpt lat="48.67734" lon="-3.66596">
        <ele>53.4</ele>
        <time>2020-08-16T08:09:40Z</time>
      </trkpt>
      <trkpt lat="48.6774" lon="-3.666">
        <ele>53.4</ele>
        <time>2020-08-16T08:09:45Z</time>
      </trkpt>
      <trkpt lat="48.67745" lon="-3.66603">
        <ele>53.4</ele>
        <time>2020-08-16T08:11:27Z</time>
      </trkpt>
      <trkpt lat="48.67764" lon="-3.66617">
        <ele>52.1</ele>
        <time>2020-08-16T08:11:35Z</time>
      </trkpt>
      <trkpt lat="48.67784" lon="-3.66635">
        <ele>51.8</ele>
        <time>2020-08-16T08:11:43Z</time>
      </trkpt>
      <trkpt lat="48.6779" lon="-3.66642">
        <ele>51.7</ele>
        <time>2020-08-16T08:11:45Z</time>
      </trkpt>
      <trkpt lat="48.67795" lon="-3.66649">
        <ele>51.6</ele>
        <time>2020-08-16T08:11:52Z</time>
      </trkpt>
      <trkpt lat="48.6781" lon="-3.66682">
        <ele>50.6</ele>
        <time>2020-08-16T08:11:54Z</time>
      </trkpt>
      <trkpt lat="48.67826" lon="-3.66719">
        <ele>50.2</ele>
        <time>2020-08-16T08:12:00Z</time>
      </trkpt>
      <trkpt lat="48.67834" lon="-3.66733">
        <ele>49.1</ele>
        <time>2020-08-16T08:12:02Z</time>
      </trkpt>
      <trkpt lat="48.67865" lon="-3.66768">
        <ele>47.9</ele>
        <time>2020-08-16T08:12:08Z</time>
      </trkpt>
      <trkpt lat="48.67898" lon="-3.66787">
        <ele>47.4</ele>
        <time>2020-08-16T08:12:14Z</time>
      </trkpt>
      <trkpt lat="48.67932" lon="-3.66806">
        <ele>45.9</ele>
        <time>2020-08-16T08:12:20Z</time>
      </trkpt>
      <trkpt lat="48.67976" lon="-3.66833">
        <ele>44.7</ele>
        <time>2020-08-16T08:12:27Z</time>
      </trkpt>
      <trkpt lat="48.68016" lon="-3.66859">
        <ele>41.3</ele>
        <time>2020-08-16T08:12:33Z</time>
      </trkpt>
      <trkpt lat="48.68024" lon="-3.66866">
        <ele>41</ele>
        <time>2020-08-16T08:12:34Z</time>
      </trkpt>
      <trkpt lat="48.68054" lon="-3.66896">
        <ele>39.8</ele>
        <time>2020-08-16T08:12:39Z</time>
      </trkpt>
      <trkpt lat="48.68066" lon="-3.6691">
        <ele>38.9</ele>
        <time>2020-08-16T08:12:41Z</time>
      </trkpt>
      <trkpt lat="48.6808" lon="-3.66925">
        <ele>37.7</ele>
        <time>2020-08-16T08:12:43Z</time>
      </trkpt>
      <trkpt lat="48.68112" lon="-3.66947">
        <ele>35.8</ele>
        <time>2020-08-16T08:12:47Z</time>
      </trkpt>
      <trkpt lat="48.68161" lon="-3.66961">
        <ele>35.2</ele>
        <time>2020-08-16T08:12:54Z</time>
      </trkpt>
      <trkpt lat="48.68184" lon="-3.66958">
        <ele>34.3</ele>
        <time>2020-08-16T08:12:58Z</time>
      </trkpt>
      <trkpt lat="48.68222" lon="-3.66941">
        <ele>34.3</ele>
        <time>2020-08-16T08:13:07Z</time>
      </trkpt>
      <trkpt lat="48.68257" lon="-3.66923">
        <ele>34.1</ele>
        <time>2020-08-16T08:13:14Z</time>
      </trkpt>
      <trkpt lat="48.68311" lon="-3.66895">
        <ele>35.4</ele>
        <time>2020-08-16T08:13:23Z</time>
      </trkpt>
      <trkpt lat="48.6835" lon="-3.66891">
        <ele>33.9</ele>
        <time>2020-08-16T08:13:29Z</time>
      </trkpt>
      <trkpt lat="48.68392" lon="-3.66893">
        <ele>32.9</ele>
        <time>2020-08-16T08:13:35Z</time>
      </trkpt>
      <trkpt lat="48.68418" lon="-3.66912">
        <ele>30.3</ele>
        <time>2020-08-16T08:13:39Z</time>
      </trkpt>
      <trkpt lat="48.68455" lon="-3.66969">
        <ele>25.6</ele>
        <time>2020-08-16T08:13:45Z</time>
      </trkpt>
      <trkpt lat="48.68488" lon="-3.66993">
        <ele>23.7</ele>
        <time>2020-08-16T08:13:49Z</time>
      </trkpt>
      <trkpt lat="48.68546" lon="-3.67">
        <ele>24.9</ele>
        <time>2020-08-16T08:13:56Z</time>
      </trkpt>
      <trkpt lat="48.68576" lon="-3.67019">
        <ele>22.3</ele>
        <time>2020-08-16T08:14:00Z</time>
      </trkpt>
      <trkpt lat="48.68592" lon="-3.6704">
        <ele>27.2</ele>
        <time>2020-08-16T08:14:03Z</time>
      </trkpt>
      <trkpt lat="48.68602" lon="-3.6706">
        <ele>26.9</ele>
        <time>2020-08-16T08:14:07Z</time>
      </trkpt>
      <trkpt lat="48.68604" lon="-3.67069">
        <ele>26.6</ele>
        <time>2020-08-16T08:14:12Z</time>
      </trkpt>
      <trkpt lat="48.68601" lon="-3.67106">
        <ele>25.1</ele>
        <time>2020-08-16T08:14:18Z</time>
      </trkpt>
      <trkpt lat="48.68599" lon="-3.6714">
        <ele>24.1</ele>
        <time>2020-08-16T08:14:22Z</time>
      </trkpt>
      <trkpt lat="48.68608" lon="-3.67202">
        <ele>21.3</ele>
        <time>2020-08-16T08:14:28Z</time>
      </trkpt>
      <trkpt lat="48.68611" lon="-3.6721">
        <ele>21.3</ele>
        <time>2020-08-16T08:14:29Z</time>
      </trkpt>
      <trkpt lat="48.68629" lon="-3.67257">
        <ele>17.4</ele>
        <time>2020-08-16T08:14:34Z</time>
      </trkpt>
      <trkpt lat="48.68664" lon="-3.67337">
        <ele>15.1</ele>
        <time>2020-08-16T08:14:42Z</time>
      </trkpt>
      <trkpt lat="48.68679" lon="-3.67385">
        <ele>18.2</ele>
        <time>2020-08-16T08:14:47Z</time>
      </trkpt>
      <trkpt lat="48.68684" lon="-3.6744">
        <ele>13.4</ele>
        <time>2020-08-16T08:14:52Z</time>
      </trkpt>
      <trkpt lat="48.6868" lon="-3.67496">
        <ele>11.6</ele>
        <time>2020-08-16T08:14:57Z</time>
      </trkpt>
      <trkpt lat="48.6867" lon="-3.67557">
        <ele>8.4</ele>
        <time>2020-08-16T08:15:03Z</time>
      </trkpt>
      <trkpt lat="48.6865" lon="-3.67607">
        <ele>7</ele>
        <time>2020-08-16T08:15:09Z</time>
      </trkpt>
      <trkpt lat="48.68625" lon="-3.67644">
        <ele>6.7</ele>
        <time>2020-08-16T08:15:15Z</time>
      </trkpt>
      <trkpt lat="48.68608" lon="-3.67662">
        <ele>7</ele>
        <time>2020-08-16T08:15:20Z</time>
      </trkpt>
      <trkpt lat="48.68603" lon="-3.6767">
        <ele>7.3</ele>
        <time>2020-08-16T08:15:22Z</time>
      </trkpt>
      <trkpt lat="48.68599" lon="-3.67692">
        <ele>7.2</ele>
        <time>2020-08-16T08:15:30Z</time>
      </trkpt>
      <trkpt lat="48.68599" lon="-3.67695">
        <ele>7.2</ele>
        <time>2020-08-16T08:15:31Z</time>
      </trkpt>
      <trkpt lat="48.68609" lon="-3.6774">
        <ele>7.4</ele>
        <time>2020-08-16T08:15:41Z</time>
      </trkpt>
      <trkpt lat="48.68618" lon="-3.67772">
        <ele>8.2</ele>
        <time>2020-08-16T08:15:49Z</time>
      </trkpt>
      <trkpt lat="48.68622" lon="-3.67815">
        <ele>8.7</ele>
        <time>2020-08-16T08:16:00Z</time>
      </trkpt>
      <trkpt lat="48.68624" lon="-3.67843">
        <ele>10.9</ele>
        <time>2020-08-16T08:16:09Z</time>
      </trkpt>
      <trkpt lat="48.68624" lon="-3.67857">
        <ele>11.1</ele>
        <time>2020-08-16T08:16:14Z</time>
      </trkpt>
      <trkpt lat="48.68626" lon="-3.67881">
        <ele>11.6</ele>
        <time>2020-08-16T08:16:23Z</time>
      </trkpt>
      <trkpt lat="48.68629" lon="-3.67912">
        <ele>11.7</ele>
        <time>2020-08-16T08:16:34Z</time>
      </trkpt>
      <trkpt lat="48.6863" lon="-3.67933">
        <ele>14.1</ele>
        <time>2020-08-16T08:16:42Z</time>
      </trkpt>
      <trkpt lat="48.68631" lon="-3.67953">
        <ele>14.5</ele>
        <time>2020-08-16T08:16:49Z</time>
      </trkpt>
      <trkpt lat="48.68631" lon="-3.67976">
        <ele>14.7</ele>
        <time>2020-08-16T08:16:58Z</time>
      </trkpt>
      <trkpt lat="48.68631" lon="-3.67996">
        <ele>14.7</ele>
        <time>2020-08-16T08:17:05Z</time>
      </trkpt>
      <trkpt lat="48.68631" lon="-3.68019">
        <ele>17.9</ele>
        <time>2020-08-16T08:17:14Z</time>
      </trkpt>
      <trkpt lat="48.68631" lon="-3.68038">
        <ele>18.7</ele>
        <time>2020-08-16T08:17:22Z</time>
      </trkpt>
      <trkpt lat="48.68633" lon="-3.68062">
        <ele>19</ele>
        <time>2020-08-16T08:17:32Z</time>
      </trkpt>
      <trkpt lat="48.68634" lon="-3.68081">
        <ele>18.8</ele>
        <time>2020-08-16T08:17:39Z</time>
      </trkpt>
      <trkpt lat="48.68637" lon="-3.68106">
        <ele>23.1</ele>
        <time>2020-08-16T08:17:47Z</time>
      </trkpt>
      <trkpt lat="48.68645" lon="-3.68138">
        <ele>23.9</ele>
        <time>2020-08-16T08:17:57Z</time>
      </trkpt>
      <trkpt lat="48.6865" lon="-3.68155">
        <ele>23</ele>
        <time>2020-08-16T08:18:04Z</time>
      </trkpt>
      <trkpt lat="48.68655" lon="-3.68169">
        <ele>24.9</ele>
        <time>2020-08-16T08:18:09Z</time>
      </trkpt>
      <trkpt lat="48.68661" lon="-3.68185">
        <ele>27.2</ele>
        <time>2020-08-16T08:18:16Z</time>
      </trkpt>
      <trkpt lat="48.68668" lon="-3.68202">
        <ele>17.8</ele>
        <time>2020-08-16T08:18:24Z</time>
      </trkpt>
      <trkpt lat="48.68669" lon="-3.68203">
        <ele>17.8</ele>
        <time>2020-08-16T08:18:27Z</time>
      </trkpt>
      <trkpt lat="48.68671" lon="-3.68208">
        <ele>18.1</ele>
        <time>2020-08-16T08:19:12Z</time>
      </trkpt>
      <trkpt lat="48.6868" lon="-3.68238">
        <ele>22.2</ele>
        <time>2020-08-16T08:19:22Z</time>
      </trkpt>
      <trkpt lat="48.68689" lon="-3.68272">
        <ele>23.5</ele>
        <time>2020-08-16T08:19:31Z</time>
      </trkpt>
      <trkpt lat="48.68694" lon="-3.68303">
        <ele>23.6</ele>
        <time>2020-08-16T08:19:39Z</time>
      </trkpt>
      <trkpt lat="48.68698" lon="-3.6834">
        <ele>28.5</ele>
        <time>2020-08-16T08:19:48Z</time>
      </trkpt>
      <trkpt lat="48.68703" lon="-3.68374">
        <ele>28</ele>
        <time>2020-08-16T08:19:58Z</time>
      </trkpt>
      <trkpt lat="48.68707" lon="-3.68406">
        <ele>28.5</ele>
        <time>2020-08-16T08:20:08Z</time>
      </trkpt>
      <trkpt lat="48.6871" lon="-3.68433">
        <ele>32.6</ele>
        <time>2020-08-16T08:20:17Z</time>
      </trkpt>
      <trkpt lat="48.68713" lon="-3.68453">
        <ele>32.9</ele>
        <time>2020-08-16T08:20:24Z</time>
      </trkpt>
      <trkpt lat="48.68717" lon="-3.68484">
        <ele>33</ele>
        <time>2020-08-16T08:20:34Z</time>
      </trkpt>
      <trkpt lat="48.6872" lon="-3.68514">
        <ele>36.4</ele>
        <time>2020-08-16T08:20:44Z</time>
      </trkpt>
      <trkpt lat="48.68725" lon="-3.68548">
        <ele>37.8</ele>
        <time>2020-08-16T08:20:55Z</time>
      </trkpt>
      <trkpt lat="48.6873" lon="-3.6859">
        <ele>40.1</ele>
        <time>2020-08-16T08:21:08Z</time>
      </trkpt>
      <trkpt lat="48.68735" lon="-3.68616">
        <ele>42.3</ele>
        <time>2020-08-16T08:21:17Z</time>
      </trkpt>
      <trkpt lat="48.68743" lon="-3.68638">
        <ele>43.6</ele>
        <time>2020-08-16T08:21:25Z</time>
      </trkpt>
      <trkpt lat="48.68753" lon="-3.68654">
        <ele>40.6</ele>
        <time>2020-08-16T08:21:34Z</time>
      </trkpt>
      <trkpt lat="48.68766" lon="-3.68666">
        <ele>40.3</ele>
        <time>2020-08-16T08:21:43Z</time>
      </trkpt>
      <trkpt lat="48.68782" lon="-3.68672">
        <ele>48.6</ele>
        <time>2020-08-16T08:21:51Z</time>
      </trkpt>
      <trkpt lat="48.688" lon="-3.68674">
        <ele>48.7</ele>
        <time>2020-08-16T08:22:01Z</time>
      </trkpt>
      <trkpt lat="48.68821" lon="-3.68674">
        <ele>46.8</ele>
        <time>2020-08-16T08:22:13Z</time>
      </trkpt>
      <trkpt lat="48.68843" lon="-3.68674">
        <ele>46.2</ele>
        <time>2020-08-16T08:22:24Z</time>
      </trkpt>
      <trkpt lat="48.6886" lon="-3.68673">
        <ele>47.9</ele>
        <time>2020-08-16T08:22:33Z</time>
      </trkpt>
      <trkpt lat="48.68874" lon="-3.68673">
        <ele>48.2</ele>
        <time>2020-08-16T08:22:41Z</time>
      </trkpt>
      <trkpt lat="48.68889" lon="-3.68673">
        <ele>47.6</ele>
        <time>2020-08-16T08:22:50Z</time>
      </trkpt>
      <trkpt lat="48.68901" lon="-3.68676">
        <ele>46.6</ele>
        <time>2020-08-16T08:22:59Z</time>
      </trkpt>
      <trkpt lat="48.6891" lon="-3.68683">
        <ele>46.7</ele>
        <time>2020-08-16T08:23:07Z</time>
      </trkpt>
      <trkpt lat="48.68916" lon="-3.68691">
        <ele>47.9</ele>
        <time>2020-08-16T08:23:15Z</time>
      </trkpt>
      <trkpt lat="48.68919" lon="-3.68694">
        <ele>39</ele>
        <time>2020-08-16T08:23:20Z</time>
      </trkpt>
      <trkpt lat="48.68919" lon="-3.68694">
        <ele>39</ele>
        <time>2020-08-16T08:29:12Z</time>
      </trkpt>
      <trkpt lat="48.6892" lon="-3.68697">
        <ele>39.1</ele>
        <time>2020-08-16T08:29:14Z</time>
      </trkpt>
      <trkpt lat="48.68926" lon="-3.68709">
        <ele>39.7</ele>
        <time>2020-08-16T08:29:22Z</time>
      </trkpt>
      <trkpt lat="48.6893" lon="-3.68723">
        <ele>41.7</ele>
        <time>2020-08-16T08:29:29Z</time>
      </trkpt>
      <trkpt lat="48.68937" lon="-3.68744">
        <ele>44.2</ele>
        <time>2020-08-16T08:29:36Z</time>
      </trkpt>
      <trkpt lat="48.68942" lon="-3.6876">
        <ele>50.6</ele>
        <time>2020-08-16T08:29:43Z</time>
      </trkpt>
      <trkpt lat="48.68952" lon="-3.68788">
        <ele>49.9</ele>
        <time>2020-08-16T08:29:50Z</time>
      </trkpt>
      <trkpt lat="48.68969" lon="-3.68816">
        <ele>49.6</ele>
        <time>2020-08-16T08:29:56Z</time>
      </trkpt>
      <trkpt lat="48.68977" lon="-3.68825">
        <ele>49</ele>
        <time>2020-08-16T08:29:58Z</time>
      </trkpt>
      <trkpt lat="48.68987" lon="-3.68833">
        <ele>48.1</ele>
        <time>2020-08-16T08:30:00Z</time>
      </trkpt>
      <trkpt lat="48.69017" lon="-3.6884">
        <ele>45.8</ele>
        <time>2020-08-16T08:30:05Z</time>
      </trkpt>
      <trkpt lat="48.69035" lon="-3.68841">
        <ele>44</ele>
        <time>2020-08-16T08:30:08Z</time>
      </trkpt>
      <trkpt lat="48.69048" lon="-3.68843">
        <ele>42.3</ele>
        <time>2020-08-16T08:30:10Z</time>
      </trkpt>
      <trkpt lat="48.69069" lon="-3.68856">
        <ele>40.3</ele>
        <time>2020-08-16T08:30:15Z</time>
      </trkpt>
      <trkpt lat="48.69072" lon="-3.68862">
        <ele>41</ele>
        <time>2020-08-16T08:30:16Z</time>
      </trkpt>
      <trkpt lat="48.69079" lon="-3.68875">
        <ele>42.3</ele>
        <time>2020-08-16T08:30:18Z</time>
      </trkpt>
      <trkpt lat="48.69089" lon="-3.68905">
        <ele>36.8</ele>
        <time>2020-08-16T08:30:24Z</time>
      </trkpt>
      <trkpt lat="48.69094" lon="-3.68927">
        <ele>34.1</ele>
        <time>2020-08-16T08:30:32Z</time>
      </trkpt>
      <trkpt lat="48.69094" lon="-3.68957">
        <ele>29</ele>
        <time>2020-08-16T08:30:41Z</time>
      </trkpt>
      <trkpt lat="48.69091" lon="-3.68966">
        <ele>29.3</ele>
        <time>2020-08-16T08:30:47Z</time>
      </trkpt>
      <trkpt lat="48.69088" lon="-3.68978">
        <ele>30.8</ele>
        <time>2020-08-16T08:30:53Z</time>
      </trkpt>
      <trkpt lat="48.69082" lon="-3.68994">
        <ele>41.4</ele>
        <time>2020-08-16T08:30:58Z</time>
      </trkpt>
      <trkpt lat="48.69073" lon="-3.69029">
        <ele>41.4</ele>
        <time>2020-08-16T08:31:05Z</time>
      </trkpt>
      <trkpt lat="48.69058" lon="-3.69076">
        <ele>38.8</ele>
        <time>2020-08-16T08:31:13Z</time>
      </trkpt>
      <trkpt lat="48.69041" lon="-3.69135">
        <ele>36.5</ele>
        <time>2020-08-16T08:31:22Z</time>
      </trkpt>
      <trkpt lat="48.69029" lon="-3.69177">
        <ele>35.2</ele>
        <time>2020-08-16T08:31:29Z</time>
      </trkpt>
      <trkpt lat="48.69016" lon="-3.6922">
        <ele>34.6</ele>
        <time>2020-08-16T08:31:36Z</time>
      </trkpt>
      <trkpt lat="48.69007" lon="-3.69254">
        <ele>37</ele>
        <time>2020-08-16T08:31:42Z</time>
      </trkpt>
      <trkpt lat="48.69006" lon="-3.69257">
        <ele>36.5</ele>
        <time>2020-08-16T08:31:44Z</time>
      </trkpt>
      <trkpt lat="48.69006" lon="-3.69259">
        <ele>36</ele>
        <time>2020-08-16T08:32:38Z</time>
      </trkpt>
      <trkpt lat="48.69" lon="-3.69279">
        <ele>43.2</ele>
        <time>2020-08-16T08:32:46Z</time>
      </trkpt>
      <trkpt lat="48.68995" lon="-3.69308">
        <ele>42.1</ele>
        <time>2020-08-16T08:32:53Z</time>
      </trkpt>
      <trkpt lat="48.68993" lon="-3.69326">
        <ele>39.8</ele>
        <time>2020-08-16T08:32:56Z</time>
      </trkpt>
      <trkpt lat="48.68995" lon="-3.69356">
        <ele>39.6</ele>
        <time>2020-08-16T08:33:00Z</time>
      </trkpt>
      <trkpt lat="48.69015" lon="-3.69422">
        <ele>30.4</ele>
        <time>2020-08-16T08:33:09Z</time>
      </trkpt>
      <trkpt lat="48.69027" lon="-3.69475">
        <ele>28.2</ele>
        <time>2020-08-16T08:33:17Z</time>
      </trkpt>
      <trkpt lat="48.69035" lon="-3.69518">
        <ele>28.2</ele>
        <time>2020-08-16T08:33:25Z</time>
      </trkpt>
      <trkpt lat="48.69033" lon="-3.69554">
        <ele>27.9</ele>
        <time>2020-08-16T08:33:32Z</time>
      </trkpt>
      <trkpt lat="48.69019" lon="-3.69606">
        <ele>27</ele>
        <time>2020-08-16T08:33:42Z</time>
      </trkpt>
      <trkpt lat="48.68998" lon="-3.69655">
        <ele>34.6</ele>
        <time>2020-08-16T08:33:50Z</time>
      </trkpt>
      <trkpt lat="48.68966" lon="-3.69731">
        <ele>31.3</ele>
        <time>2020-08-16T08:34:01Z</time>
      </trkpt>
      <trkpt lat="48.68941" lon="-3.69797">
        <ele>28.4</ele>
        <time>2020-08-16T08:34:10Z</time>
      </trkpt>
      <trkpt lat="48.68928" lon="-3.69848">
        <ele>28.1</ele>
        <time>2020-08-16T08:34:17Z</time>
      </trkpt>
      <trkpt lat="48.68919" lon="-3.69901">
        <ele>27.2</ele>
        <time>2020-08-16T08:34:23Z</time>
      </trkpt>
      <trkpt lat="48.68907" lon="-3.69973">
        <ele>31</ele>
        <time>2020-08-16T08:34:30Z</time>
      </trkpt>
      <trkpt lat="48.68905" lon="-3.69991">
        <ele>28.9</ele>
        <time>2020-08-16T08:34:32Z</time>
      </trkpt>
      <trkpt lat="48.68904" lon="-3.70028">
        <ele>29.2</ele>
        <time>2020-08-16T08:34:36Z</time>
      </trkpt>
      <trkpt lat="48.68897" lon="-3.70029">
        <ele>29.6</ele>
        <time>2020-08-16T08:34:38Z</time>
      </trkpt>
      <trkpt lat="48.68881" lon="-3.70032">
        <ele>30.7</ele>
        <time>2020-08-16T08:34:45Z</time>
      </trkpt>
      <trkpt lat="48.68868" lon="-3.70034">
        <ele>31.5</ele>
        <time>2020-08-16T08:34:53Z</time>
      </trkpt>
      <trkpt lat="48.68856" lon="-3.70037">
        <ele>32.3</ele>
        <time>2020-08-16T08:35:02Z</time>
      </trkpt>
      <trkpt lat="48.68844" lon="-3.70041">
        <ele>32.9</ele>
        <time>2020-08-16T08:35:11Z</time>
      </trkpt>
      <trkpt lat="48.68828" lon="-3.70048">
        <ele>39.4</ele>
        <time>2020-08-16T08:35:21Z</time>
      </trkpt>
      <trkpt lat="48.68813" lon="-3.70055">
        <ele>40</ele>
        <time>2020-08-16T08:35:32Z</time>
      </trkpt>
      <trkpt lat="48.68802" lon="-3.7006">
        <ele>40.5</ele>
        <time>2020-08-16T08:35:40Z</time>
      </trkpt>
      <trkpt lat="48.68786" lon="-3.70069">
        <ele>41.4</ele>
        <time>2020-08-16T08:35:52Z</time>
      </trkpt>
      <trkpt lat="48.68773" lon="-3.70076">
        <ele>42.4</ele>
        <time>2020-08-16T08:36:02Z</time>
      </trkpt>
      <trkpt lat="48.68762" lon="-3.70084">
        <ele>45.1</ele>
        <time>2020-08-16T08:36:11Z</time>
      </trkpt>
      <trkpt lat="48.68748" lon="-3.70093">
        <ele>47.3</ele>
        <time>2020-08-16T08:36:21Z</time>
      </trkpt>
      <trkpt lat="48.6873" lon="-3.70103">
        <ele>49.8</ele>
        <time>2020-08-16T08:36:32Z</time>
      </trkpt>
      <trkpt lat="48.68711" lon="-3.70115">
        <ele>51.4</ele>
        <time>2020-08-16T08:36:44Z</time>
      </trkpt>
      <trkpt lat="48.68695" lon="-3.70125">
        <ele>52.4</ele>
        <time>2020-08-16T08:36:53Z</time>
      </trkpt>
      <trkpt lat="48.68675" lon="-3.70136">
        <ele>53.6</ele>
        <time>2020-08-16T08:37:03Z</time>
      </trkpt>
      <trkpt lat="48.68657" lon="-3.7014">
        <ele>56.7</ele>
        <time>2020-08-16T08:37:11Z</time>
      </trkpt>
      <trkpt lat="48.68633" lon="-3.70144">
        <ele>56.9</ele>
        <time>2020-08-16T08:37:21Z</time>
      </trkpt>
      <trkpt lat="48.68614" lon="-3.70148">
        <ele>57.2</ele>
        <time>2020-08-16T08:37:29Z</time>
      </trkpt>
      <trkpt lat="48.68593" lon="-3.70157">
        <ele>57.6</ele>
        <time>2020-08-16T08:37:38Z</time>
      </trkpt>
      <trkpt lat="48.68572" lon="-3.70172">
        <ele>59.6</ele>
        <time>2020-08-16T08:37:48Z</time>
      </trkpt>
      <trkpt lat="48.68554" lon="-3.70185">
        <ele>61</ele>
        <time>2020-08-16T08:37:57Z</time>
      </trkpt>
      <trkpt lat="48.68535" lon="-3.70196">
        <ele>61.7</ele>
        <time>2020-08-16T08:38:06Z</time>
      </trkpt>
      <trkpt lat="48.68517" lon="-3.70205">
        <ele>62.1</ele>
        <time>2020-08-16T08:38:15Z</time>
      </trkpt>
      <trkpt lat="48.68497" lon="-3.70216">
        <ele>63.8</ele>
        <time>2020-08-16T08:38:24Z</time>
      </trkpt>
      <trkpt lat="48.68477" lon="-3.70225">
        <ele>63.9</ele>
        <time>2020-08-16T08:38:33Z</time>
      </trkpt>
      <trkpt lat="48.68455" lon="-3.70235">
        <ele>64.1</ele>
        <time>2020-08-16T08:38:43Z</time>
      </trkpt>
      <trkpt lat="48.68432" lon="-3.70242">
        <ele>64.2</ele>
        <time>2020-08-16T08:38:52Z</time>
      </trkpt>
      <trkpt lat="48.68409" lon="-3.70248">
        <ele>64.7</ele>
        <time>2020-08-16T08:39:01Z</time>
      </trkpt>
      <trkpt lat="48.68386" lon="-3.70253">
        <ele>65.7</ele>
        <time>2020-08-16T08:39:10Z</time>
      </trkpt>
      <trkpt lat="48.68358" lon="-3.7026">
        <ele>66.4</ele>
        <time>2020-08-16T08:39:21Z</time>
      </trkpt>
      <trkpt lat="48.68338" lon="-3.70265">
        <ele>66.6</ele>
        <time>2020-08-16T08:39:29Z</time>
      </trkpt>
      <trkpt lat="48.68321" lon="-3.70276">
        <ele>68.1</ele>
        <time>2020-08-16T08:39:37Z</time>
      </trkpt>
      <trkpt lat="48.68302" lon="-3.70295">
        <ele>68.5</ele>
        <time>2020-08-16T08:39:46Z</time>
      </trkpt>
      <trkpt lat="48.68286" lon="-3.70314">
        <ele>68.8</ele>
        <time>2020-08-16T08:39:55Z</time>
      </trkpt>
      <trkpt lat="48.68274" lon="-3.70329">
        <ele>69.1</ele>
        <time>2020-08-16T08:40:02Z</time>
      </trkpt>
      <trkpt lat="48.68265" lon="-3.70339">
        <ele>69.6</ele>
        <time>2020-08-16T08:40:08Z</time>
      </trkpt>
      <trkpt lat="48.68247" lon="-3.70358">
        <ele>71.3</ele>
        <time>2020-08-16T08:40:17Z</time>
      </trkpt>
      <trkpt lat="48.68229" lon="-3.70376">
        <ele>71.8</ele>
        <time>2020-08-16T08:40:26Z</time>
      </trkpt>
      <trkpt lat="48.68207" lon="-3.70398">
        <ele>72.3</ele>
        <time>2020-08-16T08:40:37Z</time>
      </trkpt>
      <trkpt lat="48.68191" lon="-3.70416">
        <ele>72.9</ele>
        <time>2020-08-16T08:40:45Z</time>
      </trkpt>
      <trkpt lat="48.68178" lon="-3.70445">
        <ele>73.6</ele>
        <time>2020-08-16T08:40:54Z</time>
      </trkpt>
      <trkpt lat="48.68165" lon="-3.70476">
        <ele>75.2</ele>
        <time>2020-08-16T08:41:04Z</time>
      </trkpt>
      <trkpt lat="48.68152" lon="-3.70508">
        <ele>76</ele>
        <time>2020-08-16T08:41:14Z</time>
      </trkpt>
      <trkpt lat="48.68143" lon="-3.70529">
        <ele>76.7</ele>
        <time>2020-08-16T08:41:21Z</time>
      </trkpt>
      <trkpt lat="48.68124" lon="-3.70561">
        <ele>77.2</ele>
        <time>2020-08-16T08:41:33Z</time>
      </trkpt>
      <trkpt lat="48.68109" lon="-3.70581">
        <ele>77.2</ele>
        <time>2020-08-16T08:41:42Z</time>
      </trkpt>
      <trkpt lat="48.68087" lon="-3.70605">
        <ele>77.9</ele>
        <time>2020-08-16T08:41:54Z</time>
      </trkpt>
      <trkpt lat="48.68067" lon="-3.70635">
        <ele>78.5</ele>
        <time>2020-08-16T08:42:06Z</time>
      </trkpt>
      <trkpt lat="48.68056" lon="-3.70664">
        <ele>78.8</ele>
        <time>2020-08-16T08:42:15Z</time>
      </trkpt>
      <trkpt lat="48.6805" lon="-3.70692">
        <ele>80.1</ele>
        <time>2020-08-16T08:42:22Z</time>
      </trkpt>
      <trkpt lat="48.68048" lon="-3.70728">
        <ele>80.4</ele>
        <time>2020-08-16T08:42:31Z</time>
      </trkpt>
      <trkpt lat="48.68048" lon="-3.70755">
        <ele>81.5</ele>
        <time>2020-08-16T08:42:38Z</time>
      </trkpt>
      <trkpt lat="48.68047" lon="-3.70786">
        <ele>81.7</ele>
        <time>2020-08-16T08:42:47Z</time>
      </trkpt>
      <trkpt lat="48.68043" lon="-3.70821">
        <ele>82</ele>
        <time>2020-08-16T08:42:57Z</time>
      </trkpt>
      <trkpt lat="48.68037" lon="-3.7085">
        <ele>83.2</ele>
        <time>2020-08-16T08:43:06Z</time>
      </trkpt>
      <trkpt lat="48.68026" lon="-3.70882">
        <ele>83.6</ele>
        <time>2020-08-16T08:43:16Z</time>
      </trkpt>
      <trkpt lat="48.68015" lon="-3.7091">
        <ele>84.3</ele>
        <time>2020-08-16T08:43:25Z</time>
      </trkpt>
      <trkpt lat="48.68003" lon="-3.70937">
        <ele>85.5</ele>
        <time>2020-08-16T08:43:34Z</time>
      </trkpt>
      <trkpt lat="48.67991" lon="-3.70965">
        <ele>86.3</ele>
        <time>2020-08-16T08:43:43Z</time>
      </trkpt>
      <trkpt lat="48.67985" lon="-3.70996">
        <ele>86.7</ele>
        <time>2020-08-16T08:43:50Z</time>
      </trkpt>
      <trkpt lat="48.67985" lon="-3.70997">
        <ele>86.7</ele>
        <time>2020-08-16T08:43:53Z</time>
      </trkpt>
      <trkpt lat="48.67985" lon="-3.70997">
        <ele>86.7</ele>
        <time>2020-08-16T08:44:50Z</time>
      </trkpt>
      <trkpt lat="48.67994" lon="-3.71013">
        <ele>87.3</ele>
        <time>2020-08-16T08:45:13Z</time>
      </trkpt>
      <trkpt lat="48.68008" lon="-3.71037">
        <ele>87.6</ele>
        <time>2020-08-16T08:45:21Z</time>
      </trkpt>
      <trkpt lat="48.6802" lon="-3.71053">
        <ele>87.8</ele>
        <time>2020-08-16T08:45:27Z</time>
      </trkpt>
      <trkpt lat="48.68034" lon="-3.7107">
        <ele>87.9</ele>
        <time>2020-08-16T08:45:33Z</time>
      </trkpt>
      <trkpt lat="48.68054" lon="-3.71089">
        <ele>88.9</ele>
        <time>2020-08-16T08:45:41Z</time>
      </trkpt>
      <trkpt lat="48.68074" lon="-3.71106">
        <ele>89</ele>
        <time>2020-08-16T08:45:49Z</time>
      </trkpt>
      <trkpt lat="48.68088" lon="-3.71117">
        <ele>89</ele>
        <time>2020-08-16T08:45:55Z</time>
      </trkpt>
      <trkpt lat="48.68102" lon="-3.71129">
        <ele>89</ele>
        <time>2020-08-16T08:46:03Z</time>
      </trkpt>
      <trkpt lat="48.68112" lon="-3.71138">
        <ele>89</ele>
        <time>2020-08-16T08:46:08Z</time>
      </trkpt>
      <trkpt lat="48.68117" lon="-3.71143">
        <ele>89.1</ele>
        <time>2020-08-16T08:46:11Z</time>
      </trkpt>
      <trkpt lat="48.68121" lon="-3.71148">
        <ele>89.1</ele>
        <time>2020-08-16T08:46:16Z</time>
      </trkpt>
      <trkpt lat="48.68121" lon="-3.71148">
        <ele>89.1</ele>
        <time>2020-08-16T08:46:17Z</time>
      </trkpt>
      <trkpt lat="48.68124" lon="-3.71152">
        <ele>89.1</ele>
        <time>2020-08-16T08:48:14Z</time>
      </trkpt>
      <trkpt lat="48.68127" lon="-3.71158">
        <ele>89.2</ele>
        <time>2020-08-16T08:48:19Z</time>
      </trkpt>
      <trkpt lat="48.68132" lon="-3.71165">
        <ele>89.2</ele>
        <time>2020-08-16T08:48:24Z</time>
      </trkpt>
      <trkpt lat="48.68141" lon="-3.71191">
        <ele>90.5</ele>
        <time>2020-08-16T08:48:31Z</time>
      </trkpt>
      <trkpt lat="48.68154" lon="-3.71233">
        <ele>91.3</ele>
        <time>2020-08-16T08:48:41Z</time>
      </trkpt>
      <trkpt lat="48.68164" lon="-3.71261">
        <ele>92.5</ele>
        <time>2020-08-16T08:48:47Z</time>
      </trkpt>
      <trkpt lat="48.68177" lon="-3.7129">
        <ele>93.5</ele>
        <time>2020-08-16T08:48:54Z</time>
      </trkpt>
      <trkpt lat="48.68195" lon="-3.71318">
        <ele>94</ele>
        <time>2020-08-16T08:49:02Z</time>
      </trkpt>
      <trkpt lat="48.68214" lon="-3.71347">
        <ele>95.5</ele>
        <time>2020-08-16T08:49:12Z</time>
      </trkpt>
      <trkpt lat="48.68228" lon="-3.7137">
        <ele>95.7</ele>
        <time>2020-08-16T08:49:20Z</time>
      </trkpt>
      <trkpt lat="48.68247" lon="-3.71404">
        <ele>96.5</ele>
        <time>2020-08-16T08:49:31Z</time>
      </trkpt>
      <trkpt lat="48.68265" lon="-3.71434">
        <ele>97.1</ele>
        <time>2020-08-16T08:49:40Z</time>
      </trkpt>
      <trkpt lat="48.68283" lon="-3.71465">
        <ele>97.3</ele>
        <time>2020-08-16T08:49:49Z</time>
      </trkpt>
      <trkpt lat="48.68301" lon="-3.71493">
        <ele>97.5</ele>
        <time>2020-08-16T08:49:58Z</time>
      </trkpt>
      <trkpt lat="48.68323" lon="-3.7152">
        <ele>98.5</ele>
        <time>2020-08-16T08:50:06Z</time>
      </trkpt>
      <trkpt lat="48.68345" lon="-3.71539">
        <ele>99.1</ele>
        <time>2020-08-16T08:50:14Z</time>
      </trkpt>
      <trkpt lat="48.68373" lon="-3.71563">
        <ele>99.4</ele>
        <time>2020-08-16T08:50:24Z</time>
      </trkpt>
      <trkpt lat="48.68399" lon="-3.71585">
        <ele>100</ele>
        <time>2020-08-16T08:50:33Z</time>
      </trkpt>
      <trkpt lat="48.68423" lon="-3.71606">
        <ele>99.5</ele>
        <time>2020-08-16T08:50:41Z</time>
      </trkpt>
      <trkpt lat="48.68456" lon="-3.71639">
        <ele>99.2</ele>
        <time>2020-08-16T08:50:52Z</time>
      </trkpt>
      <trkpt lat="48.68481" lon="-3.7167">
        <ele>99.4</ele>
        <time>2020-08-16T08:51:00Z</time>
      </trkpt>
      <trkpt lat="48.68522" lon="-3.71727">
        <ele>99.3</ele>
        <time>2020-08-16T08:51:12Z</time>
      </trkpt>
      <trkpt lat="48.6856" lon="-3.71779">
        <ele>99.4</ele>
        <time>2020-08-16T08:51:23Z</time>
      </trkpt>
      <trkpt lat="48.68592" lon="-3.71824">
        <ele>98.8</ele>
        <time>2020-08-16T08:51:32Z</time>
      </trkpt>
      <trkpt lat="48.68622" lon="-3.71863">
        <ele>98.8</ele>
        <time>2020-08-16T08:51:40Z</time>
      </trkpt>
      <trkpt lat="48.68651" lon="-3.71883">
        <ele>98.6</ele>
        <time>2020-08-16T08:51:46Z</time>
      </trkpt>
      <trkpt lat="48.68691" lon="-3.71895">
        <ele>98.4</ele>
        <time>2020-08-16T08:51:54Z</time>
      </trkpt>
      <trkpt lat="48.68742" lon="-3.71914">
        <ele>98.1</ele>
        <time>2020-08-16T08:52:04Z</time>
      </trkpt>
      <trkpt lat="48.68778" lon="-3.71931">
        <ele>97.6</ele>
        <time>2020-08-16T08:52:11Z</time>
      </trkpt>
      <trkpt lat="48.6881" lon="-3.71962">
        <ele>97.4</ele>
        <time>2020-08-16T08:52:18Z</time>
      </trkpt>
      <trkpt lat="48.6886" lon="-3.72007">
        <ele>96.4</ele>
        <time>2020-08-16T08:52:28Z</time>
      </trkpt>
      <trkpt lat="48.68902" lon="-3.72028">
        <ele>95.8</ele>
        <time>2020-08-16T08:52:35Z</time>
      </trkpt>
      <trkpt lat="48.68956" lon="-3.72041">
        <ele>95.7</ele>
        <time>2020-08-16T08:52:44Z</time>
      </trkpt>
      <trkpt lat="48.69009" lon="-3.72064">
        <ele>95.9</ele>
        <time>2020-08-16T08:52:53Z</time>
      </trkpt>
      <trkpt lat="48.69059" lon="-3.72095">
        <ele>94</ele>
        <time>2020-08-16T08:53:01Z</time>
      </trkpt>
      <trkpt lat="48.69108" lon="-3.72128">
        <ele>92.8</ele>
        <time>2020-08-16T08:53:09Z</time>
      </trkpt>
      <trkpt lat="48.69162" lon="-3.72174">
        <ele>92.2</ele>
        <time>2020-08-16T08:53:18Z</time>
      </trkpt>
      <trkpt lat="48.69228" lon="-3.72227">
        <ele>91.4</ele>
        <time>2020-08-16T08:53:29Z</time>
      </trkpt>
      <trkpt lat="48.69291" lon="-3.72269">
        <ele>89.3</ele>
        <time>2020-08-16T08:53:39Z</time>
      </trkpt>
      <trkpt lat="48.69351" lon="-3.72308">
        <ele>87.5</ele>
        <time>2020-08-16T08:53:49Z</time>
      </trkpt>
      <trkpt lat="48.69409" lon="-3.72338">
        <ele>86.4</ele>
        <time>2020-08-16T08:53:58Z</time>
      </trkpt>
      <trkpt lat="48.69475" lon="-3.72368">
        <ele>85.1</ele>
        <time>2020-08-16T08:54:08Z</time>
      </trkpt>
      <trkpt lat="48.69545" lon="-3.72402">
        <ele>83.1</ele>
        <time>2020-08-16T08:54:18Z</time>
      </trkpt>
      <trkpt lat="48.69617" lon="-3.72433">
        <ele>79.8</ele>
        <time>2020-08-16T08:54:27Z</time>
      </trkpt>
      <trkpt lat="48.69641" lon="-3.72446">
        <ele>79.3</ele>
        <time>2020-08-16T08:54:30Z</time>
      </trkpt>
      <trkpt lat="48.69672" lon="-3.7247">
        <ele>77.8</ele>
        <time>2020-08-16T08:54:34Z</time>
      </trkpt>
      <trkpt lat="48.697" lon="-3.72502">
        <ele>76.4</ele>
        <time>2020-08-16T08:54:38Z</time>
      </trkpt>
      <trkpt lat="48.69738" lon="-3.72553">
        <ele>75.7</ele>
        <time>2020-08-16T08:54:43Z</time>
      </trkpt>
      <trkpt lat="48.69775" lon="-3.72581">
        <ele>73.2</ele>
        <time>2020-08-16T08:54:47Z</time>
      </trkpt>
      <trkpt lat="48.6982" lon="-3.72598">
        <ele>70.4</ele>
        <time>2020-08-16T08:54:52Z</time>
      </trkpt>
      <trkpt lat="48.6986" lon="-3.72614">
        <ele>70.8</ele>
        <time>2020-08-16T08:54:57Z</time>
      </trkpt>
      <trkpt lat="48.69884" lon="-3.72631">
        <ele>71.6</ele>
        <time>2020-08-16T08:55:01Z</time>
      </trkpt>
      <trkpt lat="48.699" lon="-3.72645">
        <ele>72.4</ele>
        <time>2020-08-16T08:55:05Z</time>
      </trkpt>
      <trkpt lat="48.69915" lon="-3.72658">
        <ele>73.9</ele>
        <time>2020-08-16T08:55:12Z</time>
      </trkpt>
      <trkpt lat="48.69929" lon="-3.72672">
        <ele>76.5</ele>
        <time>2020-08-16T08:55:21Z</time>
      </trkpt>
      <trkpt lat="48.69942" lon="-3.72685">
        <ele>77.6</ele>
        <time>2020-08-16T08:55:30Z</time>
      </trkpt>
      <trkpt lat="48.69951" lon="-3.72697">
        <ele>78.1</ele>
        <time>2020-08-16T08:55:37Z</time>
      </trkpt>
      <trkpt lat="48.6996" lon="-3.72713">
        <ele>78.6</ele>
        <time>2020-08-16T08:55:47Z</time>
      </trkpt>
      <trkpt lat="48.69968" lon="-3.72728">
        <ele>79</ele>
        <time>2020-08-16T08:55:55Z</time>
      </trkpt>
      <trkpt lat="48.69977" lon="-3.72744">
        <ele>79.5</ele>
        <time>2020-08-16T08:56:04Z</time>
      </trkpt>
      <trkpt lat="48.69986" lon="-3.72762">
        <ele>80.9</ele>
        <time>2020-08-16T08:56:14Z</time>
      </trkpt>
      <trkpt lat="48.69993" lon="-3.7278">
        <ele>81</ele>
        <time>2020-08-16T08:56:22Z</time>
      </trkpt>
      <trkpt lat="48.70004" lon="-3.72804">
        <ele>82.8</ele>
        <time>2020-08-16T08:56:31Z</time>
      </trkpt>
      <trkpt lat="48.70017" lon="-3.72831">
        <ele>83</ele>
        <time>2020-08-16T08:56:40Z</time>
      </trkpt>
      <trkpt lat="48.70032" lon="-3.72861">
        <ele>83.2</ele>
        <time>2020-08-16T08:56:49Z</time>
      </trkpt>
      <trkpt lat="48.70044" lon="-3.72892">
        <ele>83.2</ele>
        <time>2020-08-16T08:56:57Z</time>
      </trkpt>
      <trkpt lat="48.70048" lon="-3.72917">
        <ele>83.3</ele>
        <time>2020-08-16T08:57:03Z</time>
      </trkpt>
      <trkpt lat="48.70044" lon="-3.72953">
        <ele>83.5</ele>
        <time>2020-08-16T08:57:11Z</time>
      </trkpt>
      <trkpt lat="48.70031" lon="-3.72992">
        <ele>83.7</ele>
        <time>2020-08-16T08:57:20Z</time>
      </trkpt>
      <trkpt lat="48.70014" lon="-3.73032">
        <ele>83.8</ele>
        <time>2020-08-16T08:57:28Z</time>
      </trkpt>
      <trkpt lat="48.7001" lon="-3.73068">
        <ele>83.9</ele>
        <time>2020-08-16T08:57:34Z</time>
      </trkpt>
      <trkpt lat="48.70013" lon="-3.73139">
        <ele>83.2</ele>
        <time>2020-08-16T08:57:46Z</time>
      </trkpt>
      <trkpt lat="48.70017" lon="-3.7321">
        <ele>83</ele>
        <time>2020-08-16T08:57:58Z</time>
      </trkpt>
      <trkpt lat="48.70021" lon="-3.73268">
        <ele>83.5</ele>
        <time>2020-08-16T08:58:07Z</time>
      </trkpt>
      <trkpt lat="48.70032" lon="-3.73303">
        <ele>83.8</ele>
        <time>2020-08-16T08:58:12Z</time>
      </trkpt>
      <trkpt lat="48.70041" lon="-3.73309">
        <ele>83.9</ele>
        <time>2020-08-16T08:58:14Z</time>
      </trkpt>
      <trkpt lat="48.70064" lon="-3.73318">
        <ele>84.2</ele>
        <time>2020-08-16T08:58:19Z</time>
      </trkpt>
      <trkpt lat="48.70078" lon="-3.73339">
        <ele>84.9</ele>
        <time>2020-08-16T08:58:24Z</time>
      </trkpt>
      <trkpt lat="48.7008" lon="-3.73351">
        <ele>84.8</ele>
        <time>2020-08-16T08:58:26Z</time>
      </trkpt>
      <trkpt lat="48.70086" lon="-3.73427">
        <ele>84.9</ele>
        <time>2020-08-16T08:58:37Z</time>
      </trkpt>
      <trkpt lat="48.70088" lon="-3.73499">
        <ele>84.9</ele>
        <time>2020-08-16T08:58:47Z</time>
      </trkpt>
      <trkpt lat="48.70087" lon="-3.73552">
        <ele>84.1</ele>
        <time>2020-08-16T08:58:55Z</time>
      </trkpt>
      <trkpt lat="48.70087" lon="-3.73558">
        <ele>84.1</ele>
        <time>2020-08-16T08:58:56Z</time>
      </trkpt>
      <trkpt lat="48.70083" lon="-3.73607">
        <ele>84.1</ele>
        <time>2020-08-16T08:59:03Z</time>
      </trkpt>
      <trkpt lat="48.70064" lon="-3.73671">
        <ele>83.5</ele>
        <time>2020-08-16T08:59:12Z</time>
      </trkpt>
      <trkpt lat="48.70049" lon="-3.73733">
        <ele>83.6</ele>
        <time>2020-08-16T08:59:20Z</time>
      </trkpt>
      <trkpt lat="48.70044" lon="-3.73792">
        <ele>83.2</ele>
        <time>2020-08-16T08:59:27Z</time>
      </trkpt>
      <trkpt lat="48.7005" lon="-3.73866">
        <ele>83.4</ele>
        <time>2020-08-16T08:59:36Z</time>
      </trkpt>
      <trkpt lat="48.70055" lon="-3.73928">
        <ele>83.7</ele>
        <time>2020-08-16T08:59:45Z</time>
      </trkpt>
      <trkpt lat="48.70056" lon="-3.73947">
        <ele>83.6</ele>
        <time>2020-08-16T08:59:48Z</time>
      </trkpt>
      <trkpt lat="48.70069" lon="-3.73986">
        <ele>83.3</ele>
        <time>2020-08-16T08:59:54Z</time>
      </trkpt>
      <trkpt lat="48.70086" lon="-3.73998">
        <ele>83</ele>
        <time>2020-08-16T08:59:58Z</time>
      </trkpt>
      <trkpt lat="48.70108" lon="-3.74003">
        <ele>82.9</ele>
        <time>2020-08-16T09:00:03Z</time>
      </trkpt>
      <trkpt lat="48.70154" lon="-3.74009">
        <ele>82.9</ele>
        <time>2020-08-16T09:00:13Z</time>
      </trkpt>
      <trkpt lat="48.70207" lon="-3.74016">
        <ele>82.5</ele>
        <time>2020-08-16T09:00:24Z</time>
      </trkpt>
      <trkpt lat="48.70251" lon="-3.74015">
        <ele>82</ele>
        <time>2020-08-16T09:00:33Z</time>
      </trkpt>
      <trkpt lat="48.70298" lon="-3.74003">
        <ele>80.9</ele>
        <time>2020-08-16T09:00:42Z</time>
      </trkpt>
      <trkpt lat="48.70332" lon="-3.74005">
        <ele>80.1</ele>
        <time>2020-08-16T09:00:49Z</time>
      </trkpt>
      <trkpt lat="48.70337" lon="-3.74006">
        <ele>79.2</ele>
        <time>2020-08-16T09:00:50Z</time>
      </trkpt>
      <trkpt lat="48.70351" lon="-3.74009">
        <ele>78.1</ele>
        <time>2020-08-16T09:00:53Z</time>
      </trkpt>
      <trkpt lat="48.70366" lon="-3.74021">
        <ele>77.1</ele>
        <time>2020-08-16T09:00:57Z</time>
      </trkpt>
      <trkpt lat="48.70371" lon="-3.74039">
        <ele>76.7</ele>
        <time>2020-08-16T09:01:00Z</time>
      </trkpt>
      <trkpt lat="48.70372" lon="-3.74054">
        <ele>76.5</ele>
        <time>2020-08-16T09:01:02Z</time>
      </trkpt>
      <trkpt lat="48.70368" lon="-3.74106">
        <ele>75.8</ele>
        <time>2020-08-16T09:01:08Z</time>
      </trkpt>
      <trkpt lat="48.7036" lon="-3.74174">
        <ele>76.7</ele>
        <time>2020-08-16T09:01:14Z</time>
      </trkpt>
      <trkpt lat="48.70352" lon="-3.74236">
        <ele>77.5</ele>
        <time>2020-08-16T09:01:20Z</time>
      </trkpt>
      <trkpt lat="48.70346" lon="-3.74277">
        <ele>79.1</ele>
        <time>2020-08-16T09:01:26Z</time>
      </trkpt>
      <trkpt lat="48.7034" lon="-3.7431">
        <ele>79.8</ele>
        <time>2020-08-16T09:01:33Z</time>
      </trkpt>
      <trkpt lat="48.70335" lon="-3.74337">
        <ele>81.1</ele>
        <time>2020-08-16T09:01:41Z</time>
      </trkpt>
      <trkpt lat="48.70332" lon="-3.74356">
        <ele>81.8</ele>
        <time>2020-08-16T09:01:47Z</time>
      </trkpt>
      <trkpt lat="48.70329" lon="-3.74387">
        <ele>82.4</ele>
        <time>2020-08-16T09:01:56Z</time>
      </trkpt>
      <trkpt lat="48.70325" lon="-3.7443">
        <ele>83.1</ele>
        <time>2020-08-16T09:02:07Z</time>
      </trkpt>
      <trkpt lat="48.70322" lon="-3.74467">
        <ele>83.2</ele>
        <time>2020-08-16T09:02:16Z</time>
      </trkpt>
      <trkpt lat="48.7032" lon="-3.74509">
        <ele>83.2</ele>
        <time>2020-08-16T09:02:25Z</time>
      </trkpt>
      <trkpt lat="48.70324" lon="-3.74532">
        <ele>83.3</ele>
        <time>2020-08-16T09:02:30Z</time>
      </trkpt>
      <trkpt lat="48.7034" lon="-3.74561">
        <ele>82.6</ele>
        <time>2020-08-16T09:02:38Z</time>
      </trkpt>
      <trkpt lat="48.70353" lon="-3.74582">
        <ele>82.5</ele>
        <time>2020-08-16T09:02:46Z</time>
      </trkpt>
      <trkpt lat="48.70356" lon="-3.74603">
        <ele>82.3</ele>
        <time>2020-08-16T09:02:52Z</time>
      </trkpt>
      <trkpt lat="48.70356" lon="-3.74625">
        <ele>82.3</ele>
        <time>2020-08-16T09:02:58Z</time>
      </trkpt>
      <trkpt lat="48.70354" lon="-3.74646">
        <ele>82.6</ele>
        <time>2020-08-16T09:03:03Z</time>
      </trkpt>
      <trkpt lat="48.70349" lon="-3.74665">
        <ele>83</ele>
        <time>2020-08-16T09:03:10Z</time>
      </trkpt>
      <trkpt lat="48.70344" lon="-3.74683">
        <ele>82.8</ele>
        <time>2020-08-16T09:03:17Z</time>
      </trkpt>
      <trkpt lat="48.70342" lon="-3.74704">
        <ele>82.5</ele>
        <time>2020-08-16T09:03:23Z</time>
      </trkpt>
      <trkpt lat="48.70341" lon="-3.74736">
        <ele>83</ele>
        <time>2020-08-16T09:03:31Z</time>
      </trkpt>
      <trkpt lat="48.70341" lon="-3.74769">
        <ele>82.8</ele>
        <time>2020-08-16T09:03:39Z</time>
      </trkpt>
      <trkpt lat="48.70345" lon="-3.74803">
        <ele>82.5</ele>
        <time>2020-08-16T09:03:48Z</time>
      </trkpt>
      <trkpt lat="48.70349" lon="-3.74832">
        <ele>82.9</ele>
        <time>2020-08-16T09:03:54Z</time>
      </trkpt>
      <trkpt lat="48.70358" lon="-3.7488">
        <ele>82.3</ele>
        <time>2020-08-16T09:04:01Z</time>
      </trkpt>
      <trkpt lat="48.7037" lon="-3.74934">
        <ele>81.9</ele>
        <time>2020-08-16T09:04:09Z</time>
      </trkpt>
      <trkpt lat="48.70382" lon="-3.74982">
        <ele>81.6</ele>
        <time>2020-08-16T09:04:17Z</time>
      </trkpt>
      <trkpt lat="48.70392" lon="-3.75018">
        <ele>80.8</ele>
        <time>2020-08-16T09:04:25Z</time>
      </trkpt>
      <trkpt lat="48.704" lon="-3.75049">
        <ele>80.4</ele>
        <time>2020-08-16T09:04:31Z</time>
      </trkpt>
      <trkpt lat="48.70408" lon="-3.75083">
        <ele>79.5</ele>
        <time>2020-08-16T09:04:36Z</time>
      </trkpt>
      <trkpt lat="48.70413" lon="-3.75096">
        <ele>78.4</ele>
        <time>2020-08-16T09:04:37Z</time>
      </trkpt>
      <trkpt lat="48.70423" lon="-3.75098">
        <ele>76.5</ele>
        <time>2020-08-16T09:04:42Z</time>
      </trkpt>
      <trkpt lat="48.70423" lon="-3.75098">
        <ele>76.5</ele>
        <time>2020-08-16T09:04:43Z</time>
      </trkpt>
      <trkpt lat="48.7043" lon="-3.751">
        <ele>75.9</ele>
        <time>2020-08-16T09:06:33Z</time>
      </trkpt>
      <trkpt lat="48.70434" lon="-3.75101">
        <ele>75.6</ele>
        <time>2020-08-16T09:06:34Z</time>
      </trkpt>
      <trkpt lat="48.70471" lon="-3.75111">
        <ele>73.5</ele>
        <time>2020-08-16T09:06:41Z</time>
      </trkpt>
      <trkpt lat="48.70478" lon="-3.75113">
        <ele>73.3</ele>
        <time>2020-08-16T09:06:42Z</time>
      </trkpt>
      <trkpt lat="48.70501" lon="-3.75127">
        <ele>67.9</ele>
        <time>2020-08-16T09:06:46Z</time>
      </trkpt>
      <trkpt lat="48.70519" lon="-3.75145">
        <ele>67.3</ele>
        <time>2020-08-16T09:06:49Z</time>
      </trkpt>
      <trkpt lat="48.70548" lon="-3.75158">
        <ele>65.1</ele>
        <time>2020-08-16T09:06:53Z</time>
      </trkpt>
      <trkpt lat="48.70568" lon="-3.75147">
        <ele>63.7</ele>
        <time>2020-08-16T09:06:56Z</time>
      </trkpt>
      <trkpt lat="48.70599" lon="-3.75119">
        <ele>56.4</ele>
        <time>2020-08-16T09:07:01Z</time>
      </trkpt>
      <trkpt lat="48.70619" lon="-3.75121">
        <ele>54.9</ele>
        <time>2020-08-16T09:07:05Z</time>
      </trkpt>
      <trkpt lat="48.70621" lon="-3.75127">
        <ele>54.9</ele>
        <time>2020-08-16T09:07:06Z</time>
      </trkpt>
      <trkpt lat="48.7064" lon="-3.75173">
        <ele>57.4</ele>
        <time>2020-08-16T09:07:12Z</time>
      </trkpt>
      <trkpt lat="48.70661" lon="-3.75198">
        <ele>58</ele>
        <time>2020-08-16T09:07:18Z</time>
      </trkpt>
      <trkpt lat="48.70693" lon="-3.75229">
        <ele>52.6</ele>
        <time>2020-08-16T09:07:28Z</time>
      </trkpt>
      <trkpt lat="48.7073" lon="-3.75266">
        <ele>56.2</ele>
        <time>2020-08-16T09:07:38Z</time>
      </trkpt>
      <trkpt lat="48.70751" lon="-3.75297">
        <ele>49.3</ele>
        <time>2020-08-16T09:07:45Z</time>
      </trkpt>
      <trkpt lat="48.70764" lon="-3.75331">
        <ele>53</ele>
        <time>2020-08-16T09:07:53Z</time>
      </trkpt>
      <trkpt lat="48.70772" lon="-3.75374">
        <ele>53.4</ele>
        <time>2020-08-16T09:08:03Z</time>
      </trkpt>
      <trkpt lat="48.70778" lon="-3.75417">
        <ele>54.4</ele>
        <time>2020-08-16T09:08:13Z</time>
      </trkpt>
      <trkpt lat="48.7078" lon="-3.75438">
        <ele>53.6</ele>
        <time>2020-08-16T09:08:19Z</time>
      </trkpt>
      <trkpt lat="48.70784" lon="-3.75472">
        <ele>52.7</ele>
        <time>2020-08-16T09:08:29Z</time>
      </trkpt>
      <trkpt lat="48.70788" lon="-3.75505">
        <ele>50.4</ele>
        <time>2020-08-16T09:08:35Z</time>
      </trkpt>
      <trkpt lat="48.70791" lon="-3.75544">
        <ele>49.1</ele>
        <time>2020-08-16T09:08:39Z</time>
      </trkpt>
      <trkpt lat="48.70798" lon="-3.75606">
        <ele>47</ele>
        <time>2020-08-16T09:08:44Z</time>
      </trkpt>
      <trkpt lat="48.70808" lon="-3.75703">
        <ele>49.6</ele>
        <time>2020-08-16T09:08:51Z</time>
      </trkpt>
      <trkpt lat="48.70809" lon="-3.75745">
        <ele>50</ele>
        <time>2020-08-16T09:08:55Z</time>
      </trkpt>
      <trkpt lat="48.70807" lon="-3.75769">
        <ele>53.3</ele>
        <time>2020-08-16T09:08:59Z</time>
      </trkpt>
      <trkpt lat="48.70799" lon="-3.75804">
        <ele>55</ele>
        <time>2020-08-16T09:09:09Z</time>
      </trkpt>
      <trkpt lat="48.70789" lon="-3.75832">
        <ele>56.4</ele>
        <time>2020-08-16T09:09:19Z</time>
      </trkpt>
      <trkpt lat="48.70778" lon="-3.75856">
        <ele>54.1</ele>
        <time>2020-08-16T09:09:29Z</time>
      </trkpt>
      <trkpt lat="48.70764" lon="-3.7588">
        <ele>53.3</ele>
        <time>2020-08-16T09:09:40Z</time>
      </trkpt>
      <trkpt lat="48.70751" lon="-3.75895">
        <ele>53.5</ele>
        <time>2020-08-16T09:09:47Z</time>
      </trkpt>
      <trkpt lat="48.70737" lon="-3.75909">
        <ele>59.3</ele>
        <time>2020-08-16T09:09:53Z</time>
      </trkpt>
      <trkpt lat="48.70708" lon="-3.75924">
        <ele>57.6</ele>
        <time>2020-08-16T09:10:01Z</time>
      </trkpt>
      <trkpt lat="48.70661" lon="-3.75941">
        <ele>63.6</ele>
        <time>2020-08-16T09:10:13Z</time>
      </trkpt>
      <trkpt lat="48.70657" lon="-3.75944">
        <ele>63.4</ele>
        <time>2020-08-16T09:10:14Z</time>
      </trkpt>
      <trkpt lat="48.70638" lon="-3.7596">
        <ele>63</ele>
        <time>2020-08-16T09:10:19Z</time>
      </trkpt>
      <trkpt lat="48.70625" lon="-3.75981">
        <ele>62.6</ele>
        <time>2020-08-16T09:10:23Z</time>
      </trkpt>
      <trkpt lat="48.70615" lon="-3.76019">
        <ele>62.4</ele>
        <time>2020-08-16T09:10:29Z</time>
      </trkpt>
      <trkpt lat="48.70613" lon="-3.76052">
        <ele>63.4</ele>
        <time>2020-08-16T09:10:35Z</time>
      </trkpt>
      <trkpt lat="48.70616" lon="-3.7608">
        <ele>64.1</ele>
        <time>2020-08-16T09:10:42Z</time>
      </trkpt>
      <trkpt lat="48.70625" lon="-3.76103">
        <ele>66.5</ele>
        <time>2020-08-16T09:10:50Z</time>
      </trkpt>
      <trkpt lat="48.70648" lon="-3.7613">
        <ele>66.6</ele>
        <time>2020-08-16T09:11:02Z</time>
      </trkpt>
      <trkpt lat="48.70665" lon="-3.76145">
        <ele>67</ele>
        <time>2020-08-16T09:11:11Z</time>
      </trkpt>
      <trkpt lat="48.70683" lon="-3.7616">
        <ele>66</ele>
        <time>2020-08-16T09:11:21Z</time>
      </trkpt>
      <trkpt lat="48.70704" lon="-3.76178">
        <ele>67.6</ele>
        <time>2020-08-16T09:11:31Z</time>
      </trkpt>
      <trkpt lat="48.70723" lon="-3.76195">
        <ele>67.4</ele>
        <time>2020-08-16T09:11:39Z</time>
      </trkpt>
      <trkpt lat="48.70744" lon="-3.76221">
        <ele>67.4</ele>
        <time>2020-08-16T09:11:48Z</time>
      </trkpt>
      <trkpt lat="48.70756" lon="-3.76243">
        <ele>61.1</ele>
        <time>2020-08-16T09:11:54Z</time>
      </trkpt>
      <trkpt lat="48.70762" lon="-3.76258">
        <ele>61</ele>
        <time>2020-08-16T09:12:00Z</time>
      </trkpt>
      <trkpt lat="48.70768" lon="-3.76279">
        <ele>57.6</ele>
        <time>2020-08-16T09:12:07Z</time>
      </trkpt>
      <trkpt lat="48.70778" lon="-3.76316">
        <ele>57.5</ele>
        <time>2020-08-16T09:12:16Z</time>
      </trkpt>
      <trkpt lat="48.70781" lon="-3.76331">
        <ele>57.5</ele>
        <time>2020-08-16T09:12:21Z</time>
      </trkpt>
      <trkpt lat="48.70783" lon="-3.76345">
        <ele>58.8</ele>
        <time>2020-08-16T09:12:27Z</time>
      </trkpt>
      <trkpt lat="48.70783" lon="-3.76345">
        <ele>58.8</ele>
        <time>2020-08-16T09:12:28Z</time>
      </trkpt>
      <trkpt lat="48.70785" lon="-3.76367">
        <ele>58.1</ele>
        <time>2020-08-16T09:16:56Z</time>
      </trkpt>
      <trkpt lat="48.70788" lon="-3.76397">
        <ele>57.7</ele>
        <time>2020-08-16T09:17:02Z</time>
      </trkpt>
      <trkpt lat="48.7079" lon="-3.76411">
        <ele>57.4</ele>
        <time>2020-08-16T09:17:06Z</time>
      </trkpt>
      <trkpt lat="48.7079" lon="-3.76411">
        <ele>57.4</ele>
        <time>2020-08-16T09:17:08Z</time>
      </trkpt>
      <trkpt lat="48.70789" lon="-3.76403">
        <ele>57.5</ele>
        <time>2020-08-16T09:18:06Z</time>
      </trkpt>
      <trkpt lat="48.70784" lon="-3.76359">
        <ele>58.3</ele>
        <time>2020-08-16T09:18:09Z</time>
      </trkpt>
      <trkpt lat="48.7079" lon="-3.7641">
        <ele>57.4</ele>
        <time>2020-08-16T09:18:11Z</time>
      </trkpt>
      <trkpt lat="48.70794" lon="-3.76453">
        <ele>54.2</ele>
        <time>2020-08-16T09:18:17Z</time>
      </trkpt>
      <trkpt lat="48.70793" lon="-3.76499">
        <ele>53.1</ele>
        <time>2020-08-16T09:18:22Z</time>
      </trkpt>
      <trkpt lat="48.70779" lon="-3.76547">
        <ele>44.5</ele>
        <time>2020-08-16T09:18:26Z</time>
      </trkpt>
      <trkpt lat="48.70766" lon="-3.76569">
        <ele>43.5</ele>
        <time>2020-08-16T09:18:28Z</time>
      </trkpt>
      <trkpt lat="48.70717" lon="-3.76612">
        <ele>39.6</ele>
        <time>2020-08-16T09:18:33Z</time>
      </trkpt>
      <trkpt lat="48.70677" lon="-3.76655">
        <ele>39.4</ele>
        <time>2020-08-16T09:18:37Z</time>
      </trkpt>
      <trkpt lat="48.7067" lon="-3.76669">
        <ele>38.2</ele>
        <time>2020-08-16T09:18:39Z</time>
      </trkpt>
      <trkpt lat="48.70657" lon="-3.76733">
        <ele>41.8</ele>
        <time>2020-08-16T09:18:42Z</time>
      </trkpt>
      <trkpt lat="48.70666" lon="-3.7681">
        <ele>42.4</ele>
        <time>2020-08-16T09:18:48Z</time>
      </trkpt>
      <trkpt lat="48.70667" lon="-3.76856">
        <ele>33.2</ele>
        <time>2020-08-16T09:18:53Z</time>
      </trkpt>
      <trkpt lat="48.70661" lon="-3.76895">
        <ele>44.8</ele>
        <time>2020-08-16T09:18:59Z</time>
      </trkpt>
      <trkpt lat="48.70653" lon="-3.76921">
        <ele>44.6</ele>
        <time>2020-08-16T09:19:05Z</time>
      </trkpt>
      <trkpt lat="48.70642" lon="-3.76955">
        <ele>45.5</ele>
        <time>2020-08-16T09:19:14Z</time>
      </trkpt>
      <trkpt lat="48.70629" lon="-3.76989">
        <ele>45.6</ele>
        <time>2020-08-16T09:19:23Z</time>
      </trkpt>
      <trkpt lat="48.70615" lon="-3.77029">
        <ele>41.5</ele>
        <time>2020-08-16T09:19:33Z</time>
      </trkpt>
      <trkpt lat="48.70607" lon="-3.77055">
        <ele>40.7</ele>
        <time>2020-08-16T09:19:39Z</time>
      </trkpt>
      <trkpt lat="48.70595" lon="-3.7709">
        <ele>37.4</ele>
        <time>2020-08-16T09:19:45Z</time>
      </trkpt>
      <trkpt lat="48.70575" lon="-3.77148">
        <ele>40</ele>
        <time>2020-08-16T09:19:53Z</time>
      </trkpt>
      <trkpt lat="48.70556" lon="-3.77206">
        <ele>36.6</ele>
        <time>2020-08-16T09:20:00Z</time>
      </trkpt>
      <trkpt lat="48.70533" lon="-3.77276">
        <ele>33.6</ele>
        <time>2020-08-16T09:20:08Z</time>
      </trkpt>
      <trkpt lat="48.70508" lon="-3.77336">
        <ele>32.2</ele>
        <time>2020-08-16T09:20:14Z</time>
      </trkpt>
      <trkpt lat="48.70502" lon="-3.77346">
        <ele>30.3</ele>
        <time>2020-08-16T09:20:15Z</time>
      </trkpt>
      <trkpt lat="48.70456" lon="-3.77409">
        <ele>28.6</ele>
        <time>2020-08-16T09:20:21Z</time>
      </trkpt>
      <trkpt lat="48.70393" lon="-3.77472">
        <ele>19.4</ele>
        <time>2020-08-16T09:20:27Z</time>
      </trkpt>
      <trkpt lat="48.70295" lon="-3.77566">
        <ele>10.5</ele>
        <time>2020-08-16T09:20:36Z</time>
      </trkpt>
      <trkpt lat="48.70268" lon="-3.77596">
        <ele>7.5</ele>
        <time>2020-08-16T09:20:39Z</time>
      </trkpt>
      <trkpt lat="48.70244" lon="-3.77639">
        <ele>7.6</ele>
        <time>2020-08-16T09:20:43Z</time>
      </trkpt>
      <trkpt lat="48.70235" lon="-3.77662">
        <ele>7</ele>
        <time>2020-08-16T09:20:46Z</time>
      </trkpt>
      <trkpt lat="48.70224" lon="-3.77678">
        <ele>5.2</ele>
        <time>2020-08-16T09:20:50Z</time>
      </trkpt>
      <trkpt lat="48.70218" lon="-3.77721">
        <ele>4.4</ele>
        <time>2020-08-16T09:20:56Z</time>
      </trkpt>
      <trkpt lat="48.70209" lon="-3.77771">
        <ele>3.6</ele>
        <time>2020-08-16T09:21:03Z</time>
      </trkpt>
      <trkpt lat="48.70193" lon="-3.77842">
        <ele>4</ele>
        <time>2020-08-16T09:21:13Z</time>
      </trkpt>
      <trkpt lat="48.70179" lon="-3.77904">
        <ele>4</ele>
        <time>2020-08-16T09:21:22Z</time>
      </trkpt>
      <trkpt lat="48.70165" lon="-3.77968">
        <ele>4.1</ele>
        <time>2020-08-16T09:21:32Z</time>
      </trkpt>
      <trkpt lat="48.7015" lon="-3.78038">
        <ele>4.6</ele>
        <time>2020-08-16T09:21:43Z</time>
      </trkpt>
      <trkpt lat="48.70135" lon="-3.78105">
        <ele>4.6</ele>
        <time>2020-08-16T09:21:54Z</time>
      </trkpt>
      <trkpt lat="48.7012" lon="-3.78174">
        <ele>4.1</ele>
        <time>2020-08-16T09:22:06Z</time>
      </trkpt>
      <trkpt lat="48.70111" lon="-3.78215">
        <ele>4.7</ele>
        <time>2020-08-16T09:22:15Z</time>
      </trkpt>
      <trkpt lat="48.70105" lon="-3.78245">
        <ele>5.2</ele>
        <time>2020-08-16T09:22:23Z</time>
      </trkpt>
      <trkpt lat="48.701" lon="-3.78267">
        <ele>7</ele>
        <time>2020-08-16T09:22:31Z</time>
      </trkpt>
      <trkpt lat="48.70095" lon="-3.7829">
        <ele>7.9</ele>
        <time>2020-08-16T09:22:40Z</time>
      </trkpt>
      <trkpt lat="48.7009" lon="-3.78313">
        <ele>9</ele>
        <time>2020-08-16T09:22:49Z</time>
      </trkpt>
      <trkpt lat="48.70084" lon="-3.78341">
        <ele>10.2</ele>
        <time>2020-08-16T09:23:00Z</time>
      </trkpt>
      <trkpt lat="48.70079" lon="-3.78367">
        <ele>17.2</ele>
        <time>2020-08-16T09:23:11Z</time>
      </trkpt>
      <trkpt lat="48.70075" lon="-3.78391">
        <ele>18.6</ele>
        <time>2020-08-16T09:23:22Z</time>
      </trkpt>
      <trkpt lat="48.70069" lon="-3.78419">
        <ele>22.6</ele>
        <time>2020-08-16T09:23:35Z</time>
      </trkpt>
      <trkpt lat="48.70065" lon="-3.78443">
        <ele>26</ele>
        <time>2020-08-16T09:23:46Z</time>
      </trkpt>
      <trkpt lat="48.7006" lon="-3.7847">
        <ele>28.1</ele>
        <time>2020-08-16T09:23:59Z</time>
      </trkpt>
      <trkpt lat="48.70056" lon="-3.78493">
        <ele>28.7</ele>
        <time>2020-08-16T09:24:10Z</time>
      </trkpt>
      <trkpt lat="48.70053" lon="-3.78511">
        <ele>33.4</ele>
        <time>2020-08-16T09:24:18Z</time>
      </trkpt>
      <trkpt lat="48.7005" lon="-3.78531">
        <ele>34.8</ele>
        <time>2020-08-16T09:24:28Z</time>
      </trkpt>
      <trkpt lat="48.70047" lon="-3.7855">
        <ele>35.8</ele>
        <time>2020-08-16T09:24:38Z</time>
      </trkpt>
      <trkpt lat="48.70045" lon="-3.78567">
        <ele>36.3</ele>
        <time>2020-08-16T09:24:47Z</time>
      </trkpt>
      <trkpt lat="48.70041" lon="-3.78584">
        <ele>40.8</ele>
        <time>2020-08-16T09:24:56Z</time>
      </trkpt>
      <trkpt lat="48.70039" lon="-3.78598">
        <ele>41.4</ele>
        <time>2020-08-16T09:25:03Z</time>
      </trkpt>
      <trkpt lat="48.70036" lon="-3.78615">
        <ele>42.2</ele>
        <time>2020-08-16T09:25:11Z</time>
      </trkpt>
      <trkpt lat="48.70032" lon="-3.78636">
        <ele>43.3</ele>
        <time>2020-08-16T09:25:21Z</time>
      </trkpt>
      <trkpt lat="48.70028" lon="-3.78657">
        <ele>44.7</ele>
        <time>2020-08-16T09:25:31Z</time>
      </trkpt>
      <trkpt lat="48.70024" lon="-3.7868">
        <ele>48.7</ele>
        <time>2020-08-16T09:25:42Z</time>
      </trkpt>
      <trkpt lat="48.70018" lon="-3.78696">
        <ele>49</ele>
        <time>2020-08-16T09:25:50Z</time>
      </trkpt>
      <trkpt lat="48.7001" lon="-3.78712">
        <ele>49.4</ele>
        <time>2020-08-16T09:25:59Z</time>
      </trkpt>
      <trkpt lat="48.7" lon="-3.7873">
        <ele>50.2</ele>
        <time>2020-08-16T09:26:10Z</time>
      </trkpt>
      <trkpt lat="48.69992" lon="-3.78747">
        <ele>53.6</ele>
        <time>2020-08-16T09:26:20Z</time>
      </trkpt>
      <trkpt lat="48.69986" lon="-3.78763">
        <ele>56.6</ele>
        <time>2020-08-16T09:26:29Z</time>
      </trkpt>
      <trkpt lat="48.69981" lon="-3.78781">
        <ele>58.5</ele>
        <time>2020-08-16T09:26:38Z</time>
      </trkpt>
      <trkpt lat="48.69975" lon="-3.78803">
        <ele>59.9</ele>
        <time>2020-08-16T09:26:49Z</time>
      </trkpt>
      <trkpt lat="48.6997" lon="-3.78822">
        <ele>60.5</ele>
        <time>2020-08-16T09:26:59Z</time>
      </trkpt>
      <trkpt lat="48.69967" lon="-3.7884">
        <ele>63.2</ele>
        <time>2020-08-16T09:27:08Z</time>
      </trkpt>
      <trkpt lat="48.69965" lon="-3.78859">
        <ele>63.7</ele>
        <time>2020-08-16T09:27:17Z</time>
      </trkpt>
      <trkpt lat="48.69963" lon="-3.78879">
        <ele>64.2</ele>
        <time>2020-08-16T09:27:27Z</time>
      </trkpt>
      <trkpt lat="48.6996" lon="-3.78893">
        <ele>64.6</ele>
        <time>2020-08-16T09:27:34Z</time>
      </trkpt>
      <trkpt lat="48.69957" lon="-3.78908">
        <ele>64.9</ele>
        <time>2020-08-16T09:27:42Z</time>
      </trkpt>
      <trkpt lat="48.69945" lon="-3.78923">
        <ele>67</ele>
        <time>2020-08-16T09:27:53Z</time>
      </trkpt>
      <trkpt lat="48.69934" lon="-3.78933">
        <ele>67.1</ele>
        <time>2020-08-16T09:28:02Z</time>
      </trkpt>
      <trkpt lat="48.69922" lon="-3.78942">
        <ele>67.3</ele>
        <time>2020-08-16T09:28:12Z</time>
      </trkpt>
      <trkpt lat="48.69921" lon="-3.78943">
        <ele>67.3</ele>
        <time>2020-08-16T09:28:14Z</time>
      </trkpt>
      <trkpt lat="48.69925" lon="-3.78946">
        <ele>67.3</ele>
        <time>2020-08-16T09:28:19Z</time>
      </trkpt>
      <trkpt lat="48.6994" lon="-3.78938">
        <ele>67.1</ele>
        <time>2020-08-16T09:28:29Z</time>
      </trkpt>
      <trkpt lat="48.69954" lon="-3.78933">
        <ele>67</ele>
        <time>2020-08-16T09:28:37Z</time>
      </trkpt>
      <trkpt lat="48.69957" lon="-3.78933">
        <ele>66.9</ele>
        <time>2020-08-16T09:28:40Z</time>
      </trkpt>
      <trkpt lat="48.70064" lon="-3.79158">
        <ele>71.6</ele>
        <time>2020-08-16T09:32:24Z</time>
      </trkpt>
      <trkpt lat="48.70077" lon="-3.79168">
        <ele>72.5</ele>
        <time>2020-08-16T09:32:30Z</time>
      </trkpt>
      <trkpt lat="48.70083" lon="-3.79173">
        <ele>72.5</ele>
        <time>2020-08-16T09:32:34Z</time>
      </trkpt>
      <trkpt lat="48.70091" lon="-3.7918">
        <ele>71.8</ele>
        <time>2020-08-16T09:32:43Z</time>
      </trkpt>
      <trkpt lat="48.70093" lon="-3.79199">
        <ele>71.9</ele>
        <time>2020-08-16T09:32:51Z</time>
      </trkpt>
      <trkpt lat="48.70091" lon="-3.79211">
        <ele>72.1</ele>
        <time>2020-08-16T09:32:58Z</time>
      </trkpt>
      <trkpt lat="48.70089" lon="-3.79222">
        <ele>72.3</ele>
        <time>2020-08-16T09:33:04Z</time>
      </trkpt>
      <trkpt lat="48.70089" lon="-3.79238">
        <ele>73</ele>
        <time>2020-08-16T09:33:09Z</time>
      </trkpt>
      <trkpt lat="48.70091" lon="-3.79245">
        <ele>73.2</ele>
        <time>2020-08-16T09:33:12Z</time>
      </trkpt>
      <trkpt lat="48.70101" lon="-3.79266">
        <ele>74.3</ele>
        <time>2020-08-16T09:33:21Z</time>
      </trkpt>
      <trkpt lat="48.70108" lon="-3.79282">
        <ele>74.5</ele>
        <time>2020-08-16T09:33:29Z</time>
      </trkpt>
      <trkpt lat="48.70119" lon="-3.79306">
        <ele>75</ele>
        <time>2020-08-16T09:33:38Z</time>
      </trkpt>
      <trkpt lat="48.70131" lon="-3.79332">
        <ele>75.1</ele>
        <time>2020-08-16T09:33:47Z</time>
      </trkpt>
      <trkpt lat="48.7014" lon="-3.79354">
        <ele>77.4</ele>
        <time>2020-08-16T09:33:55Z</time>
      </trkpt>
      <trkpt lat="48.7015" lon="-3.79379">
        <ele>77.9</ele>
        <time>2020-08-16T09:34:04Z</time>
      </trkpt>
      <trkpt lat="48.70154" lon="-3.79387">
        <ele>78</ele>
        <time>2020-08-16T09:34:08Z</time>
      </trkpt>
      <trkpt lat="48.70158" lon="-3.79381">
        <ele>77.8</ele>
        <time>2020-08-16T09:34:13Z</time>
      </trkpt>
      <trkpt lat="48.70158" lon="-3.79381">
        <ele>77.8</ele>
        <time>2020-08-16T09:34:17Z</time>
      </trkpt>
      <trkpt lat="48.70158" lon="-3.79381">
        <ele>77.8</ele>
        <time>2020-08-16T09:34:20Z</time>
      </trkpt>
      <trkpt lat="48.70156" lon="-3.79395">
        <ele>78.1</ele>
        <time>2020-08-16T09:34:27Z</time>
      </trkpt>
      <trkpt lat="48.70158" lon="-3.79401">
        <ele>78.1</ele>
        <time>2020-08-16T09:34:32Z</time>
      </trkpt>
      <trkpt lat="48.70161" lon="-3.79409">
        <ele>78.1</ele>
        <time>2020-08-16T09:34:36Z</time>
      </trkpt>
      <trkpt lat="48.70167" lon="-3.7943">
        <ele>77.4</ele>
        <time>2020-08-16T09:34:46Z</time>
      </trkpt>
      <trkpt lat="48.7017" lon="-3.79441">
        <ele>77.2</ele>
        <time>2020-08-16T09:34:51Z</time>
      </trkpt>
      <trkpt lat="48.70172" lon="-3.79454">
        <ele>77.2</ele>
        <time>2020-08-16T09:34:57Z</time>
      </trkpt>
      <trkpt lat="48.70173" lon="-3.7946">
        <ele>77.2</ele>
        <time>2020-08-16T09:35:00Z</time>
      </trkpt>
      <trkpt lat="48.70176" lon="-3.79477">
        <ele>77.5</ele>
        <time>2020-08-16T09:35:08Z</time>
      </trkpt>
      <trkpt lat="48.70176" lon="-3.7948">
        <ele>77.6</ele>
        <time>2020-08-16T09:35:12Z</time>
      </trkpt>
      <trkpt lat="48.70177" lon="-3.79498">
        <ele>78.1</ele>
        <time>2020-08-16T09:37:16Z</time>
      </trkpt>
      <trkpt lat="48.70177" lon="-3.795">
        <ele>78.1</ele>
        <time>2020-08-16T09:37:21Z</time>
      </trkpt>
      <trkpt lat="48.70177" lon="-3.795">
        <ele>78.1</ele>
        <time>2020-08-16T09:37:26Z</time>
      </trkpt>
      <trkpt lat="48.70177" lon="-3.795">
        <ele>78.1</ele>
        <time>2020-08-16T09:37:32Z</time>
      </trkpt>
      <trkpt lat="48.70181" lon="-3.79624">
        <ele>75.7</ele>
        <time>2020-08-16T09:37:40Z</time>
      </trkpt>
      <trkpt lat="48.70187" lon="-3.79656">
        <ele>75.5</ele>
        <time>2020-08-16T09:37:47Z</time>
      </trkpt>
      <trkpt lat="48.70194" lon="-3.79699">
        <ele>73</ele>
        <time>2020-08-16T09:37:55Z</time>
      </trkpt>
      <trkpt lat="48.70208" lon="-3.7976">
        <ele>70.2</ele>
        <time>2020-08-16T09:38:06Z</time>
      </trkpt>
      <trkpt lat="48.70221" lon="-3.79831">
        <ele>68.4</ele>
        <time>2020-08-16T09:38:18Z</time>
      </trkpt>
      <trkpt lat="48.70226" lon="-3.79853">
        <ele>67.2</ele>
        <time>2020-08-16T09:38:24Z</time>
      </trkpt>
      <trkpt lat="48.7024" lon="-3.79875">
        <ele>66.9</ele>
        <time>2020-08-16T09:38:29Z</time>
      </trkpt>
      <trkpt lat="48.70226" lon="-3.79853">
        <ele>67.2</ele>
        <time>2020-08-16T09:38:36Z</time>
      </trkpt>
      <trkpt lat="48.70226" lon="-3.79853">
        <ele>67.2</ele>
        <time>2020-08-16T09:38:45Z</time>
      </trkpt>
      <trkpt lat="48.70226" lon="-3.79853">
        <ele>67.2</ele>
        <time>2020-08-16T09:38:50Z</time>
      </trkpt>
      <trkpt lat="48.70226" lon="-3.79853">
        <ele>67.2</ele>
        <time>2020-08-16T09:38:51Z</time>
      </trkpt>
      <trkpt lat="48.70286" lon="-3.79985">
        <ele>63.1</ele>
        <time>2020-08-16T09:38:57Z</time>
      </trkpt>
      <trkpt lat="48.70294" lon="-3.79998">
        <ele>63.2</ele>
        <time>2020-08-16T09:39:02Z</time>
      </trkpt>
      <trkpt lat="48.70299" lon="-3.8001">
        <ele>65</ele>
        <time>2020-08-16T09:39:08Z</time>
      </trkpt>
      <trkpt lat="48.70294" lon="-3.80019">
        <ele>65.1</ele>
        <time>2020-08-16T09:39:15Z</time>
      </trkpt>
      <trkpt lat="48.70293" lon="-3.8002">
        <ele>65.1</ele>
        <time>2020-08-16T09:39:16Z</time>
      </trkpt>
      <trkpt lat="48.70285" lon="-3.8003">
        <ele>65.3</ele>
        <time>2020-08-16T09:39:24Z</time>
      </trkpt>
      <trkpt lat="48.70287" lon="-3.80034">
        <ele>65.3</ele>
        <time>2020-08-16T09:39:28Z</time>
      </trkpt>
      <trkpt lat="48.70299" lon="-3.80033">
        <ele>65.4</ele>
        <time>2020-08-16T09:39:37Z</time>
      </trkpt>
      <trkpt lat="48.70309" lon="-3.80039">
        <ele>65.5</ele>
        <time>2020-08-16T09:39:44Z</time>
      </trkpt>
      <trkpt lat="48.70319" lon="-3.80045">
        <ele>65.7</ele>
        <time>2020-08-16T09:39:51Z</time>
      </trkpt>
      <trkpt lat="48.70328" lon="-3.80049">
        <ele>65.9</ele>
        <time>2020-08-16T09:39:58Z</time>
      </trkpt>
      <trkpt lat="48.7034" lon="-3.80047">
        <ele>66.3</ele>
        <time>2020-08-16T09:40:05Z</time>
      </trkpt>
      <trkpt lat="48.70352" lon="-3.80037">
        <ele>66</ele>
        <time>2020-08-16T09:40:11Z</time>
      </trkpt>
      <trkpt lat="48.70372" lon="-3.80017">
        <ele>65.8</ele>
        <time>2020-08-16T09:40:19Z</time>
      </trkpt>
      <trkpt lat="48.70403" lon="-3.79986">
        <ele>63.5</ele>
        <time>2020-08-16T09:40:28Z</time>
      </trkpt>
      <trkpt lat="48.70427" lon="-3.79962">
        <ele>62.8</ele>
        <time>2020-08-16T09:40:35Z</time>
      </trkpt>
      <trkpt lat="48.7044" lon="-3.7996">
        <ele>62.6</ele>
        <time>2020-08-16T09:40:39Z</time>
      </trkpt>
      <trkpt lat="48.70449" lon="-3.79971">
        <ele>62.8</ele>
        <time>2020-08-16T09:40:43Z</time>
      </trkpt>
      <trkpt lat="48.70467" lon="-3.80009">
        <ele>64.7</ele>
        <time>2020-08-16T09:40:52Z</time>
      </trkpt>
      <trkpt lat="48.70482" lon="-3.80039">
        <ele>64.9</ele>
        <time>2020-08-16T09:41:00Z</time>
      </trkpt>
      <trkpt lat="48.70497" lon="-3.80072">
        <ele>65.1</ele>
        <time>2020-08-16T09:41:09Z</time>
      </trkpt>
      <trkpt lat="48.70512" lon="-3.801">
        <ele>64.3</ele>
        <time>2020-08-16T09:41:17Z</time>
      </trkpt>
      <trkpt lat="48.70527" lon="-3.80123">
        <ele>64</ele>
        <time>2020-08-16T09:41:25Z</time>
      </trkpt>
      <trkpt lat="48.7054" lon="-3.80137">
        <ele>63.9</ele>
        <time>2020-08-16T09:41:31Z</time>
      </trkpt>
      <trkpt lat="48.70551" lon="-3.80149">
        <ele>63.7</ele>
        <time>2020-08-16T09:41:35Z</time>
      </trkpt>
      <trkpt lat="48.70564" lon="-3.80164">
        <ele>63.5</ele>
        <time>2020-08-16T09:41:39Z</time>
      </trkpt>
      <trkpt lat="48.70596" lon="-3.80206">
        <ele>62.2</ele>
        <time>2020-08-16T09:41:48Z</time>
      </trkpt>
      <trkpt lat="48.70624" lon="-3.80248">
        <ele>61.8</ele>
        <time>2020-08-16T09:41:55Z</time>
      </trkpt>
      <trkpt lat="48.70651" lon="-3.80289">
        <ele>63.4</ele>
        <time>2020-08-16T09:42:01Z</time>
      </trkpt>
      <trkpt lat="48.70674" lon="-3.80328">
        <ele>62.3</ele>
        <time>2020-08-16T09:42:07Z</time>
      </trkpt>
      <trkpt lat="48.70691" lon="-3.80351">
        <ele>64.2</ele>
        <time>2020-08-16T09:42:12Z</time>
      </trkpt>
      <trkpt lat="48.70706" lon="-3.80354">
        <ele>63.9</ele>
        <time>2020-08-16T09:42:16Z</time>
      </trkpt>
      <trkpt lat="48.70728" lon="-3.80353">
        <ele>62.9</ele>
        <time>2020-08-16T09:42:21Z</time>
      </trkpt>
      <trkpt lat="48.70736" lon="-3.80356">
        <ele>62.6</ele>
        <time>2020-08-16T09:42:23Z</time>
      </trkpt>
      <trkpt lat="48.70753" lon="-3.80369">
        <ele>58.6</ele>
        <time>2020-08-16T09:42:28Z</time>
      </trkpt>
      <trkpt lat="48.70762" lon="-3.80377">
        <ele>58.7</ele>
        <time>2020-08-16T09:42:30Z</time>
      </trkpt>
      <trkpt lat="48.70784" lon="-3.80381">
        <ele>57.7</ele>
        <time>2020-08-16T09:42:34Z</time>
      </trkpt>
      <trkpt lat="48.70805" lon="-3.8037">
        <ele>56.1</ele>
        <time>2020-08-16T09:42:37Z</time>
      </trkpt>
      <trkpt lat="48.70813" lon="-3.80365">
        <ele>55.4</ele>
        <time>2020-08-16T09:42:38Z</time>
      </trkpt>
      <trkpt lat="48.70863" lon="-3.8032">
        <ele>46.9</ele>
        <time>2020-08-16T09:42:44Z</time>
      </trkpt>
      <trkpt lat="48.70913" lon="-3.80294">
        <ele>45.2</ele>
        <time>2020-08-16T09:42:49Z</time>
      </trkpt>
      <trkpt lat="48.7095" lon="-3.80275">
        <ele>40.8</ele>
        <time>2020-08-16T09:42:53Z</time>
      </trkpt>
      <trkpt lat="48.70985" lon="-3.80275">
        <ele>39.4</ele>
        <time>2020-08-16T09:42:57Z</time>
      </trkpt>
      <trkpt lat="48.71009" lon="-3.80297">
        <ele>33.6</ele>
        <time>2020-08-16T09:43:00Z</time>
      </trkpt>
      <trkpt lat="48.71017" lon="-3.80297">
        <ele>33.2</ele>
        <time>2020-08-16T09:43:01Z</time>
      </trkpt>
      <trkpt lat="48.71031" lon="-3.80296">
        <ele>32.3</ele>
        <time>2020-08-16T09:43:03Z</time>
      </trkpt>
      <trkpt lat="48.71056" lon="-3.80284">
        <ele>30.6</ele>
        <time>2020-08-16T09:43:07Z</time>
      </trkpt>
      <trkpt lat="48.71059" lon="-3.80285">
        <ele>30.4</ele>
        <time>2020-08-16T09:43:09Z</time>
      </trkpt>
      <trkpt lat="48.71062" lon="-3.80295">
        <ele>30.1</ele>
        <time>2020-08-16T09:43:11Z</time>
      </trkpt>
      <trkpt lat="48.71058" lon="-3.80361">
        <ele>27.3</ele>
        <time>2020-08-16T09:43:17Z</time>
      </trkpt>
      <trkpt lat="48.71047" lon="-3.80435">
        <ele>23</ele>
        <time>2020-08-16T09:43:22Z</time>
      </trkpt>
      <trkpt lat="48.71046" lon="-3.80493">
        <ele>21.5</ele>
        <time>2020-08-16T09:43:26Z</time>
      </trkpt>
      <trkpt lat="48.71062" lon="-3.80528">
        <ele>16.5</ele>
        <time>2020-08-16T09:43:29Z</time>
      </trkpt>
      <trkpt lat="48.71077" lon="-3.80547">
        <ele>15.1</ele>
        <time>2020-08-16T09:43:31Z</time>
      </trkpt>
      <trkpt lat="48.71091" lon="-3.80571">
        <ele>8.7</ele>
        <time>2020-08-16T09:43:33Z</time>
      </trkpt>
      <trkpt lat="48.71101" lon="-3.80598">
        <ele>8.2</ele>
        <time>2020-08-16T09:43:37Z</time>
      </trkpt>
      <trkpt lat="48.71121" lon="-3.80688">
        <ele>8.6</ele>
        <time>2020-08-16T09:43:42Z</time>
      </trkpt>
      <trkpt lat="48.71137" lon="-3.8077">
        <ele>6.9</ele>
        <time>2020-08-16T09:43:49Z</time>
      </trkpt>
      <trkpt lat="48.71152" lon="-3.80828">
        <ele>4.7</ele>
        <time>2020-08-16T09:43:55Z</time>
      </trkpt>
      <trkpt lat="48.71159" lon="-3.80854">
        <ele>5.2</ele>
        <time>2020-08-16T09:43:58Z</time>
      </trkpt>
      <trkpt lat="48.71167" lon="-3.80881">
        <ele>3.6</ele>
        <time>2020-08-16T09:44:02Z</time>
      </trkpt>
      <trkpt lat="48.71181" lon="-3.80928">
        <ele>4.2</ele>
        <time>2020-08-16T09:44:10Z</time>
      </trkpt>
      <trkpt lat="48.71183" lon="-3.80937">
        <ele>4.3</ele>
        <time>2020-08-16T09:44:14Z</time>
      </trkpt>
      <trkpt lat="48.71183" lon="-3.80937">
        <ele>4.3</ele>
        <time>2020-08-16T09:55:04Z</time>
      </trkpt>
      <trkpt lat="48.71185" lon="-3.80943">
        <ele>4.3</ele>
        <time>2020-08-16T09:55:09Z</time>
      </trkpt>
      <trkpt lat="48.71191" lon="-3.80961">
        <ele>4.5</ele>
        <time>2020-08-16T09:55:15Z</time>
      </trkpt>
      <trkpt lat="48.71199" lon="-3.80988">
        <ele>4.7</ele>
        <time>2020-08-16T09:55:23Z</time>
      </trkpt>
      <trkpt lat="48.7121" lon="-3.8102">
        <ele>4.4</ele>
        <time>2020-08-16T09:55:32Z</time>
      </trkpt>
      <trkpt lat="48.71214" lon="-3.81034">
        <ele>4.3</ele>
        <time>2020-08-16T09:55:36Z</time>
      </trkpt>
      <trkpt lat="48.71219" lon="-3.81048">
        <ele>4.1</ele>
        <time>2020-08-16T09:55:41Z</time>
      </trkpt>
      <trkpt lat="48.71229" lon="-3.8108">
        <ele>3.3</ele>
        <time>2020-08-16T09:55:48Z</time>
      </trkpt>
      <trkpt lat="48.71238" lon="-3.81105">
        <ele>4.3</ele>
        <time>2020-08-16T09:55:54Z</time>
      </trkpt>
      <trkpt lat="48.71248" lon="-3.81136">
        <ele>5.3</ele>
        <time>2020-08-16T09:56:02Z</time>
      </trkpt>
      <trkpt lat="48.71262" lon="-3.81177">
        <ele>6.2</ele>
        <time>2020-08-16T09:56:12Z</time>
      </trkpt>
      <trkpt lat="48.71275" lon="-3.81214">
        <ele>6.4</ele>
        <time>2020-08-16T09:56:20Z</time>
      </trkpt>
      <trkpt lat="48.71293" lon="-3.81264">
        <ele>7.2</ele>
        <time>2020-08-16T09:56:29Z</time>
      </trkpt>
      <trkpt lat="48.71296" lon="-3.8129">
        <ele>7.5</ele>
        <time>2020-08-16T09:56:34Z</time>
      </trkpt>
      <trkpt lat="48.71296" lon="-3.81291">
        <ele>7.5</ele>
        <time>2020-08-16T09:56:39Z</time>
      </trkpt>
      <trkpt lat="48.71272" lon="-3.81336">
        <ele>9</ele>
        <time>2020-08-16T09:56:46Z</time>
      </trkpt>
      <trkpt lat="48.71255" lon="-3.81358">
        <ele>9.1</ele>
        <time>2020-08-16T09:56:54Z</time>
      </trkpt>
      <trkpt lat="48.71244" lon="-3.81395">
        <ele>9</ele>
        <time>2020-08-16T09:57:03Z</time>
      </trkpt>
      <trkpt lat="48.71234" lon="-3.81433">
        <ele>8.6</ele>
        <time>2020-08-16T09:57:11Z</time>
      </trkpt>
      <trkpt lat="48.71227" lon="-3.8147">
        <ele>8.2</ele>
        <time>2020-08-16T09:57:19Z</time>
      </trkpt>
      <trkpt lat="48.71218" lon="-3.81521">
        <ele>7.8</ele>
        <time>2020-08-16T09:57:28Z</time>
      </trkpt>
      <trkpt lat="48.71211" lon="-3.81564">
        <ele>7.8</ele>
        <time>2020-08-16T09:57:35Z</time>
      </trkpt>
      <trkpt lat="48.71202" lon="-3.8161">
        <ele>7.3</ele>
        <time>2020-08-16T09:57:43Z</time>
      </trkpt>
      <trkpt lat="48.71187" lon="-3.81649">
        <ele>6.5</ele>
        <time>2020-08-16T09:57:51Z</time>
      </trkpt>
      <trkpt lat="48.71177" lon="-3.81662">
        <ele>5.8</ele>
        <time>2020-08-16T09:57:56Z</time>
      </trkpt>
      <trkpt lat="48.71147" lon="-3.81683">
        <ele>5.9</ele>
        <time>2020-08-16T09:58:04Z</time>
      </trkpt>
      <trkpt lat="48.71103" lon="-3.81705">
        <ele>6.9</ele>
        <time>2020-08-16T09:58:17Z</time>
      </trkpt>
      <trkpt lat="48.71079" lon="-3.81725">
        <ele>9.9</ele>
        <time>2020-08-16T09:58:25Z</time>
      </trkpt>
      <trkpt lat="48.71054" lon="-3.81758">
        <ele>7.9</ele>
        <time>2020-08-16T09:58:35Z</time>
      </trkpt>
      <trkpt lat="48.71038" lon="-3.81794">
        <ele>7.6</ele>
        <time>2020-08-16T09:58:43Z</time>
      </trkpt>
      <trkpt lat="48.7101" lon="-3.81855">
        <ele>5.1</ele>
        <time>2020-08-16T09:58:55Z</time>
      </trkpt>
      <trkpt lat="48.71005" lon="-3.81865">
        <ele>4.7</ele>
        <time>2020-08-16T09:58:57Z</time>
      </trkpt>
      <trkpt lat="48.70979" lon="-3.81888">
        <ele>7.1</ele>
        <time>2020-08-16T09:59:04Z</time>
      </trkpt>
      <trkpt lat="48.7094" lon="-3.81909">
        <ele>8.3</ele>
        <time>2020-08-16T09:59:13Z</time>
      </trkpt>
      <trkpt lat="48.70923" lon="-3.81922">
        <ele>7.9</ele>
        <time>2020-08-16T09:59:18Z</time>
      </trkpt>
      <trkpt lat="48.70899" lon="-3.81947">
        <ele>9.9</ele>
        <time>2020-08-16T09:59:27Z</time>
      </trkpt>
      <trkpt lat="48.70886" lon="-3.81963">
        <ele>10</ele>
        <time>2020-08-16T09:59:33Z</time>
      </trkpt>
      <trkpt lat="48.70866" lon="-3.81985">
        <ele>10.8</ele>
        <time>2020-08-16T09:59:43Z</time>
      </trkpt>
      <trkpt lat="48.70851" lon="-3.82001">
        <ele>10.1</ele>
        <time>2020-08-16T09:59:51Z</time>
      </trkpt>
      <trkpt lat="48.70828" lon="-3.82017">
        <ele>12.6</ele>
        <time>2020-08-16T10:00:02Z</time>
      </trkpt>
      <trkpt lat="48.70802" lon="-3.82024">
        <ele>12</ele>
        <time>2020-08-16T10:00:13Z</time>
      </trkpt>
      <trkpt lat="48.70782" lon="-3.82021">
        <ele>12.3</ele>
        <time>2020-08-16T10:00:21Z</time>
      </trkpt>
      <trkpt lat="48.70751" lon="-3.82014">
        <ele>13.9</ele>
        <time>2020-08-16T10:00:32Z</time>
      </trkpt>
      <trkpt lat="48.7072" lon="-3.82006">
        <ele>13.8</ele>
        <time>2020-08-16T10:00:43Z</time>
      </trkpt>
      <trkpt lat="48.70703" lon="-3.82002">
        <ele>14.3</ele>
        <time>2020-08-16T10:00:50Z</time>
      </trkpt>
      <trkpt lat="48.70684" lon="-3.81999">
        <ele>21.6</ele>
        <time>2020-08-16T10:00:57Z</time>
      </trkpt>
      <trkpt lat="48.70654" lon="-3.81998">
        <ele>23.2</ele>
        <time>2020-08-16T10:01:07Z</time>
      </trkpt>
      <trkpt lat="48.70625" lon="-3.81997">
        <ele>25.8</ele>
        <time>2020-08-16T10:01:16Z</time>
      </trkpt>
      <trkpt lat="48.70597" lon="-3.81995">
        <ele>25.2</ele>
        <time>2020-08-16T10:01:25Z</time>
      </trkpt>
      <trkpt lat="48.70557" lon="-3.81994">
        <ele>26.2</ele>
        <time>2020-08-16T10:01:37Z</time>
      </trkpt>
      <trkpt lat="48.70522" lon="-3.81992">
        <ele>25.1</ele>
        <time>2020-08-16T10:01:47Z</time>
      </trkpt>
      <trkpt lat="48.705" lon="-3.81991">
        <ele>21.7</ele>
        <time>2020-08-16T10:01:54Z</time>
      </trkpt>
      <trkpt lat="48.70459" lon="-3.81991">
        <ele>22.9</ele>
        <time>2020-08-16T10:02:05Z</time>
      </trkpt>
      <trkpt lat="48.70413" lon="-3.81986">
        <ele>19.3</ele>
        <time>2020-08-16T10:02:17Z</time>
      </trkpt>
      <trkpt lat="48.70384" lon="-3.81979">
        <ele>21.5</ele>
        <time>2020-08-16T10:02:25Z</time>
      </trkpt>
      <trkpt lat="48.70362" lon="-3.81971">
        <ele>22.1</ele>
        <time>2020-08-16T10:02:33Z</time>
      </trkpt>
      <trkpt lat="48.70358" lon="-3.81969">
        <ele>22.2</ele>
        <time>2020-08-16T10:02:37Z</time>
      </trkpt>
      <trkpt lat="48.70358" lon="-3.81969">
        <ele>22.2</ele>
        <time>2020-08-16T10:02:43Z</time>
      </trkpt>
      <trkpt lat="48.70332" lon="-3.81985">
        <ele>18.9</ele>
        <time>2020-08-16T10:02:48Z</time>
      </trkpt>
      <trkpt lat="48.70332" lon="-3.81985">
        <ele>18.9</ele>
        <time>2020-08-16T10:02:49Z</time>
      </trkpt>
      <trkpt lat="48.70314" lon="-3.8199">
        <ele>19.3</ele>
        <time>2020-08-16T10:03:27Z</time>
      </trkpt>
      <trkpt lat="48.70306" lon="-3.81989">
        <ele>19.7</ele>
        <time>2020-08-16T10:03:32Z</time>
      </trkpt>
      <trkpt lat="48.70264" lon="-3.81965">
        <ele>20.7</ele>
        <time>2020-08-16T10:03:38Z</time>
      </trkpt>
      <trkpt lat="48.70224" lon="-3.81934">
        <ele>18.6</ele>
        <time>2020-08-16T10:03:45Z</time>
      </trkpt>
      <trkpt lat="48.70188" lon="-3.81906">
        <ele>20.2</ele>
        <time>2020-08-16T10:03:50Z</time>
      </trkpt>
      <trkpt lat="48.70147" lon="-3.81884">
        <ele>16.1</ele>
        <time>2020-08-16T10:03:55Z</time>
      </trkpt>
      <trkpt lat="48.70119" lon="-3.81887">
        <ele>15</ele>
        <time>2020-08-16T10:03:58Z</time>
      </trkpt>
      <trkpt lat="48.7011" lon="-3.81892">
        <ele>14.3</ele>
        <time>2020-08-16T10:03:59Z</time>
      </trkpt>
      <trkpt lat="48.70085" lon="-3.8191">
        <ele>10.6</ele>
        <time>2020-08-16T10:04:02Z</time>
      </trkpt>
      <trkpt lat="48.70062" lon="-3.81954">
        <ele>7.9</ele>
        <time>2020-08-16T10:04:06Z</time>
      </trkpt>
      <trkpt lat="48.70055" lon="-3.81982">
        <ele>7.8</ele>
        <time>2020-08-16T10:04:09Z</time>
      </trkpt>
      <trkpt lat="48.70053" lon="-3.82047">
        <ele>7.5</ele>
        <time>2020-08-16T10:04:13Z</time>
      </trkpt>
      <trkpt lat="48.70062" lon="-3.82085">
        <ele>7.9</ele>
        <time>2020-08-16T10:04:16Z</time>
      </trkpt>
      <trkpt lat="48.70103" lon="-3.82178">
        <ele>7</ele>
        <time>2020-08-16T10:04:25Z</time>
      </trkpt>
      <trkpt lat="48.70131" lon="-3.82222">
        <ele>7</ele>
        <time>2020-08-16T10:04:31Z</time>
      </trkpt>
      <trkpt lat="48.70167" lon="-3.82276">
        <ele>5.2</ele>
        <time>2020-08-16T10:04:39Z</time>
      </trkpt>
      <trkpt lat="48.70176" lon="-3.82289">
        <ele>5</ele>
        <time>2020-08-16T10:04:41Z</time>
      </trkpt>
      <trkpt lat="48.70197" lon="-3.82333">
        <ele>4.5</ele>
        <time>2020-08-16T10:04:47Z</time>
      </trkpt>
      <trkpt lat="48.70216" lon="-3.82383">
        <ele>4.3</ele>
        <time>2020-08-16T10:04:54Z</time>
      </trkpt>
      <trkpt lat="48.70244" lon="-3.82458">
        <ele>5.6</ele>
        <time>2020-08-16T10:05:05Z</time>
      </trkpt>
      <trkpt lat="48.70268" lon="-3.8252">
        <ele>5.3</ele>
        <time>2020-08-16T10:05:15Z</time>
      </trkpt>
      <trkpt lat="48.7029" lon="-3.82582">
        <ele>5.7</ele>
        <time>2020-08-16T10:05:25Z</time>
      </trkpt>
      <trkpt lat="48.70307" lon="-3.82626">
        <ele>6.5</ele>
        <time>2020-08-16T10:05:32Z</time>
      </trkpt>
      <trkpt lat="48.70332" lon="-3.82692">
        <ele>7.4</ele>
        <time>2020-08-16T10:05:43Z</time>
      </trkpt>
      <trkpt lat="48.70354" lon="-3.8275">
        <ele>7.4</ele>
        <time>2020-08-16T10:05:53Z</time>
      </trkpt>
      <trkpt lat="48.70385" lon="-3.82812">
        <ele>6.5</ele>
        <time>2020-08-16T10:06:04Z</time>
      </trkpt>
      <trkpt lat="48.70407" lon="-3.82859">
        <ele>8.3</ele>
        <time>2020-08-16T10:06:13Z</time>
      </trkpt>
      <trkpt lat="48.70426" lon="-3.82883">
        <ele>10.7</ele>
        <time>2020-08-16T10:06:20Z</time>
      </trkpt>
      <trkpt lat="48.70444" lon="-3.82896">
        <ele>11.4</ele>
        <time>2020-08-16T10:06:28Z</time>
      </trkpt>
      <trkpt lat="48.70456" lon="-3.82903">
        <ele>12</ele>
        <time>2020-08-16T10:06:35Z</time>
      </trkpt>
      <trkpt lat="48.70469" lon="-3.82908">
        <ele>12.8</ele>
        <time>2020-08-16T10:06:43Z</time>
      </trkpt>
      <trkpt lat="48.70484" lon="-3.82912">
        <ele>14.2</ele>
        <time>2020-08-16T10:06:52Z</time>
      </trkpt>
      <trkpt lat="48.70499" lon="-3.82915">
        <ele>16.6</ele>
        <time>2020-08-16T10:07:02Z</time>
      </trkpt>
      <trkpt lat="48.7051" lon="-3.82918">
        <ele>18.2</ele>
        <time>2020-08-16T10:07:09Z</time>
      </trkpt>
      <trkpt lat="48.70521" lon="-3.82923">
        <ele>19.1</ele>
        <time>2020-08-16T10:07:16Z</time>
      </trkpt>
      <trkpt lat="48.70531" lon="-3.82933">
        <ele>19.7</ele>
        <time>2020-08-16T10:07:24Z</time>
      </trkpt>
      <trkpt lat="48.70542" lon="-3.82949">
        <ele>20.3</ele>
        <time>2020-08-16T10:07:34Z</time>
      </trkpt>
      <trkpt lat="48.70551" lon="-3.82965">
        <ele>20.7</ele>
        <time>2020-08-16T10:07:42Z</time>
      </trkpt>
      <trkpt lat="48.7056" lon="-3.82982">
        <ele>21.1</ele>
        <time>2020-08-16T10:07:51Z</time>
      </trkpt>
      <trkpt lat="48.7057" lon="-3.83003">
        <ele>23</ele>
        <time>2020-08-16T10:08:01Z</time>
      </trkpt>
      <trkpt lat="48.70578" lon="-3.83011">
        <ele>22.9</ele>
        <time>2020-08-16T10:08:08Z</time>
      </trkpt>
      <trkpt lat="48.7058" lon="-3.83012">
        <ele>22.9</ele>
        <time>2020-08-16T10:08:12Z</time>
      </trkpt>
      <trkpt lat="48.70583" lon="-3.83014">
        <ele>23</ele>
        <time>2020-08-16T10:09:29Z</time>
      </trkpt>
      <trkpt lat="48.70593" lon="-3.83017">
        <ele>21.7</ele>
        <time>2020-08-16T10:09:35Z</time>
      </trkpt>
      <trkpt lat="48.70606" lon="-3.83021">
        <ele>21.6</ele>
        <time>2020-08-16T10:09:41Z</time>
      </trkpt>
      <trkpt lat="48.70613" lon="-3.83031">
        <ele>21.5</ele>
        <time>2020-08-16T10:09:47Z</time>
      </trkpt>
      <trkpt lat="48.70614" lon="-3.83034">
        <ele>21.6</ele>
        <time>2020-08-16T10:09:51Z</time>
      </trkpt>
      <trkpt lat="48.7061" lon="-3.83036">
        <ele>21.7</ele>
        <time>2020-08-16T10:10:06Z</time>
      </trkpt>
      <trkpt lat="48.70601" lon="-3.83032">
        <ele>21.7</ele>
        <time>2020-08-16T10:10:11Z</time>
      </trkpt>
      <trkpt lat="48.70597" lon="-3.8303">
        <ele>21.8</ele>
        <time>2020-08-16T10:10:13Z</time>
      </trkpt>
      <trkpt lat="48.70581" lon="-3.83022">
        <ele>23.4</ele>
        <time>2020-08-16T10:10:23Z</time>
      </trkpt>
      <trkpt lat="48.70577" lon="-3.83022">
        <ele>23.4</ele>
        <time>2020-08-16T10:10:26Z</time>
      </trkpt>
      <trkpt lat="48.70575" lon="-3.8303">
        <ele>23.7</ele>
        <time>2020-08-16T10:10:31Z</time>
      </trkpt>
      <trkpt lat="48.70575" lon="-3.83036">
        <ele>23.9</ele>
        <time>2020-08-16T10:10:33Z</time>
      </trkpt>
      <trkpt lat="48.70576" lon="-3.83059">
        <ele>24.2</ele>
        <time>2020-08-16T10:10:42Z</time>
      </trkpt>
      <trkpt lat="48.70573" lon="-3.83078">
        <ele>24.3</ele>
        <time>2020-08-16T10:10:50Z</time>
      </trkpt>
      <trkpt lat="48.70567" lon="-3.83101">
        <ele>26.3</ele>
        <time>2020-08-16T10:10:59Z</time>
      </trkpt>
      <trkpt lat="48.70562" lon="-3.83126">
        <ele>27.1</ele>
        <time>2020-08-16T10:11:07Z</time>
      </trkpt>
      <trkpt lat="48.70552" lon="-3.83162">
        <ele>27.7</ele>
        <time>2020-08-16T10:11:17Z</time>
      </trkpt>
      <trkpt lat="48.70544" lon="-3.83196">
        <ele>28.7</ele>
        <time>2020-08-16T10:11:25Z</time>
      </trkpt>
      <trkpt lat="48.70537" lon="-3.8322">
        <ele>28.9</ele>
        <time>2020-08-16T10:11:31Z</time>
      </trkpt>
      <trkpt lat="48.70519" lon="-3.83237">
        <ele>29.6</ele>
        <time>2020-08-16T10:11:39Z</time>
      </trkpt>
      <trkpt lat="48.70501" lon="-3.83245">
        <ele>30.6</ele>
        <time>2020-08-16T10:11:48Z</time>
      </trkpt>
      <trkpt lat="48.7048" lon="-3.83255">
        <ele>31.8</ele>
        <time>2020-08-16T10:11:59Z</time>
      </trkpt>
      <trkpt lat="48.70457" lon="-3.83268">
        <ele>32.6</ele>
        <time>2020-08-16T10:12:11Z</time>
      </trkpt>
      <trkpt lat="48.70439" lon="-3.83278">
        <ele>33.1</ele>
        <time>2020-08-16T10:12:19Z</time>
      </trkpt>
      <trkpt lat="48.70414" lon="-3.83296">
        <ele>35.1</ele>
        <time>2020-08-16T10:12:28Z</time>
      </trkpt>
      <trkpt lat="48.70384" lon="-3.83321">
        <ele>35</ele>
        <time>2020-08-16T10:12:38Z</time>
      </trkpt>
      <trkpt lat="48.70363" lon="-3.83344">
        <ele>34.6</ele>
        <time>2020-08-16T10:12:46Z</time>
      </trkpt>
      <trkpt lat="48.70335" lon="-3.83368">
        <ele>34.8</ele>
        <time>2020-08-16T10:12:55Z</time>
      </trkpt>
      <trkpt lat="48.70331" lon="-3.83371">
        <ele>35.7</ele>
        <time>2020-08-16T10:12:56Z</time>
      </trkpt>
      <trkpt lat="48.70318" lon="-3.83388">
        <ele>35.7</ele>
        <time>2020-08-16T10:13:00Z</time>
      </trkpt>
      <trkpt lat="48.70305" lon="-3.83422">
        <ele>36.9</ele>
        <time>2020-08-16T10:13:07Z</time>
      </trkpt>
      <trkpt lat="48.70299" lon="-3.83454">
        <ele>37.4</ele>
        <time>2020-08-16T10:13:15Z</time>
      </trkpt>
      <trkpt lat="48.70293" lon="-3.83485">
        <ele>37.9</ele>
        <time>2020-08-16T10:13:24Z</time>
      </trkpt>
      <trkpt lat="48.70288" lon="-3.83512">
        <ele>40.4</ele>
        <time>2020-08-16T10:13:33Z</time>
      </trkpt>
      <trkpt lat="48.70283" lon="-3.83527">
        <ele>40.8</ele>
        <time>2020-08-16T10:13:39Z</time>
      </trkpt>
      <trkpt lat="48.7028" lon="-3.83541">
        <ele>41.2</ele>
        <time>2020-08-16T10:13:44Z</time>
      </trkpt>
      <trkpt lat="48.7028" lon="-3.83562">
        <ele>41.8</ele>
        <time>2020-08-16T10:13:51Z</time>
      </trkpt>
      <trkpt lat="48.70271" lon="-3.83585">
        <ele>44.5</ele>
        <time>2020-08-16T10:14:01Z</time>
      </trkpt>
      <trkpt lat="48.70265" lon="-3.83612">
        <ele>44.7</ele>
        <time>2020-08-16T10:14:11Z</time>
      </trkpt>
      <trkpt lat="48.7026" lon="-3.83634">
        <ele>45.2</ele>
        <time>2020-08-16T10:14:19Z</time>
      </trkpt>
      <trkpt lat="48.70252" lon="-3.83656">
        <ele>46.2</ele>
        <time>2020-08-16T10:14:27Z</time>
      </trkpt>
      <trkpt lat="48.70242" lon="-3.83673">
        <ele>47.9</ele>
        <time>2020-08-16T10:14:34Z</time>
      </trkpt>
      <trkpt lat="48.70231" lon="-3.83688">
        <ele>48.8</ele>
        <time>2020-08-16T10:14:42Z</time>
      </trkpt>
      <trkpt lat="48.70215" lon="-3.83709">
        <ele>49.4</ele>
        <time>2020-08-16T10:14:52Z</time>
      </trkpt>
      <trkpt lat="48.70197" lon="-3.83723">
        <ele>49.8</ele>
        <time>2020-08-16T10:14:59Z</time>
      </trkpt>
      <trkpt lat="48.7018" lon="-3.83736">
        <ele>50.2</ele>
        <time>2020-08-16T10:15:04Z</time>
      </trkpt>
      <trkpt lat="48.70151" lon="-3.83747">
        <ele>51.1</ele>
        <time>2020-08-16T10:15:10Z</time>
      </trkpt>
      <trkpt lat="48.70125" lon="-3.83758">
        <ele>48.2</ele>
        <time>2020-08-16T10:15:15Z</time>
      </trkpt>
      <trkpt lat="48.70094" lon="-3.83769">
        <ele>48.5</ele>
        <time>2020-08-16T10:15:21Z</time>
      </trkpt>
      <trkpt lat="48.7007" lon="-3.83779">
        <ele>50.2</ele>
        <time>2020-08-16T10:15:27Z</time>
      </trkpt>
      <trkpt lat="48.7005" lon="-3.83787">
        <ele>50.5</ele>
        <time>2020-08-16T10:15:34Z</time>
      </trkpt>
      <trkpt lat="48.70033" lon="-3.83793">
        <ele>51.1</ele>
        <time>2020-08-16T10:15:41Z</time>
      </trkpt>
      <trkpt lat="48.70016" lon="-3.83798">
        <ele>51.8</ele>
        <time>2020-08-16T10:15:49Z</time>
      </trkpt>
      <trkpt lat="48.69997" lon="-3.83805">
        <ele>53.1</ele>
        <time>2020-08-16T10:15:58Z</time>
      </trkpt>
      <trkpt lat="48.69977" lon="-3.83815">
        <ele>52.8</ele>
        <time>2020-08-16T10:16:08Z</time>
      </trkpt>
      <trkpt lat="48.69957" lon="-3.83824">
        <ele>51.9</ele>
        <time>2020-08-16T10:16:17Z</time>
      </trkpt>
      <trkpt lat="48.6994" lon="-3.83829">
        <ele>51</ele>
        <time>2020-08-16T10:16:25Z</time>
      </trkpt>
      <trkpt lat="48.69932" lon="-3.8383">
        <ele>50.5</ele>
        <time>2020-08-16T10:16:32Z</time>
      </trkpt>
      <trkpt lat="48.69925" lon="-3.83832">
        <ele>49.9</ele>
        <time>2020-08-16T10:18:02Z</time>
      </trkpt>
      <trkpt lat="48.69921" lon="-3.83832">
        <ele>49.5</ele>
        <time>2020-08-16T10:18:03Z</time>
      </trkpt>
      <trkpt lat="48.69889" lon="-3.83829">
        <ele>46.6</ele>
        <time>2020-08-16T10:18:09Z</time>
      </trkpt>
      <trkpt lat="48.69882" lon="-3.83827">
        <ele>46.1</ele>
        <time>2020-08-16T10:18:10Z</time>
      </trkpt>
      <trkpt lat="48.69843" lon="-3.83807">
        <ele>44.3</ele>
        <time>2020-08-16T10:18:15Z</time>
      </trkpt>
      <trkpt lat="48.6979" lon="-3.83762">
        <ele>39</ele>
        <time>2020-08-16T10:18:21Z</time>
      </trkpt>
      <trkpt lat="48.69741" lon="-3.8372">
        <ele>38.7</ele>
        <time>2020-08-16T10:18:27Z</time>
      </trkpt>
      <trkpt lat="48.69699" lon="-3.83686">
        <ele>39.2</ele>
        <time>2020-08-16T10:18:33Z</time>
      </trkpt>
      <trkpt lat="48.69665" lon="-3.83661">
        <ele>42</ele>
        <time>2020-08-16T10:18:39Z</time>
      </trkpt>
      <trkpt lat="48.69639" lon="-3.83645">
        <ele>44.4</ele>
        <time>2020-08-16T10:18:45Z</time>
      </trkpt>
      <trkpt lat="48.69607" lon="-3.83629">
        <ele>45.2</ele>
        <time>2020-08-16T10:18:54Z</time>
      </trkpt>
      <trkpt lat="48.69583" lon="-3.83618">
        <ele>47.3</ele>
        <time>2020-08-16T10:19:03Z</time>
      </trkpt>
      <trkpt lat="48.69568" lon="-3.83612">
        <ele>47.7</ele>
        <time>2020-08-16T10:19:10Z</time>
      </trkpt>
      <trkpt lat="48.69544" lon="-3.83603">
        <ele>48.3</ele>
        <time>2020-08-16T10:19:21Z</time>
      </trkpt>
      <trkpt lat="48.69522" lon="-3.83597">
        <ele>49.2</ele>
        <time>2020-08-16T10:19:31Z</time>
      </trkpt>
      <trkpt lat="48.69495" lon="-3.83592">
        <ele>51.3</ele>
        <time>2020-08-16T10:19:43Z</time>
      </trkpt>
      <trkpt lat="48.69475" lon="-3.83588">
        <ele>50.8</ele>
        <time>2020-08-16T10:19:51Z</time>
      </trkpt>
      <trkpt lat="48.69451" lon="-3.83583">
        <ele>52.9</ele>
        <time>2020-08-16T10:19:59Z</time>
      </trkpt>
      <trkpt lat="48.69415" lon="-3.83577">
        <ele>52.9</ele>
        <time>2020-08-16T10:20:12Z</time>
      </trkpt>
      <trkpt lat="48.69388" lon="-3.83572">
        <ele>52.5</ele>
        <time>2020-08-16T10:20:21Z</time>
      </trkpt>
      <trkpt lat="48.69357" lon="-3.83566">
        <ele>52.1</ele>
        <time>2020-08-16T10:20:30Z</time>
      </trkpt>
      <trkpt lat="48.6933" lon="-3.8356">
        <ele>50.9</ele>
        <time>2020-08-16T10:20:37Z</time>
      </trkpt>
      <trkpt lat="48.69294" lon="-3.83554">
        <ele>50.7</ele>
        <time>2020-08-16T10:20:45Z</time>
      </trkpt>
      <trkpt lat="48.69245" lon="-3.83545">
        <ele>49.3</ele>
        <time>2020-08-16T10:20:54Z</time>
      </trkpt>
      <trkpt lat="48.6918" lon="-3.83533">
        <ele>48.9</ele>
        <time>2020-08-16T10:21:05Z</time>
      </trkpt>
      <trkpt lat="48.69117" lon="-3.83522">
        <ele>47</ele>
        <time>2020-08-16T10:21:15Z</time>
      </trkpt>
      <trkpt lat="48.69068" lon="-3.83524">
        <ele>46.7</ele>
        <time>2020-08-16T10:21:22Z</time>
      </trkpt>
      <trkpt lat="48.69049" lon="-3.83527">
        <ele>46.9</ele>
        <time>2020-08-16T10:21:25Z</time>
      </trkpt>
      <trkpt lat="48.69048" lon="-3.83527">
        <ele>46.9</ele>
        <time>2020-08-16T10:21:28Z</time>
      </trkpt>
      <trkpt lat="48.6905" lon="-3.83548">
        <ele>46.5</ele>
        <time>2020-08-16T10:21:29Z</time>
      </trkpt>
      <trkpt lat="48.69055" lon="-3.83552">
        <ele>46.4</ele>
        <time>2020-08-16T10:21:33Z</time>
      </trkpt>
      <trkpt lat="48.69057" lon="-3.83554">
        <ele>46.3</ele>
        <time>2020-08-16T10:21:36Z</time>
      </trkpt>
      <trkpt lat="48.69065" lon="-3.83559">
        <ele>46</ele>
        <time>2020-08-16T10:21:39Z</time>
      </trkpt>
      <trkpt lat="48.69075" lon="-3.83571">
        <ele>45.2</ele>
        <time>2020-08-16T10:21:42Z</time>
      </trkpt>
      <trkpt lat="48.69091" lon="-3.83607">
        <ele>43.5</ele>
        <time>2020-08-16T10:21:47Z</time>
      </trkpt>
      <trkpt lat="48.691" lon="-3.83637">
        <ele>42.7</ele>
        <time>2020-08-16T10:21:50Z</time>
      </trkpt>
      <trkpt lat="48.69101" lon="-3.83693">
        <ele>39.2</ele>
        <time>2020-08-16T10:21:55Z</time>
      </trkpt>
      <trkpt lat="48.69095" lon="-3.83766">
        <ele>33.7</ele>
        <time>2020-08-16T10:22:00Z</time>
      </trkpt>
      <trkpt lat="48.69103" lon="-3.8385">
        <ele>28.8</ele>
        <time>2020-08-16T10:22:05Z</time>
      </trkpt>
      <trkpt lat="48.69123" lon="-3.83894">
        <ele>27.4</ele>
        <time>2020-08-16T10:22:08Z</time>
      </trkpt>
      <trkpt lat="48.69132" lon="-3.83906">
        <ele>26.5</ele>
        <time>2020-08-16T10:22:09Z</time>
      </trkpt>
      <trkpt lat="48.69155" lon="-3.83934">
        <ele>23.1</ele>
        <time>2020-08-16T10:22:12Z</time>
      </trkpt>
      <trkpt lat="48.69178" lon="-3.83957">
        <ele>17.8</ele>
        <time>2020-08-16T10:22:16Z</time>
      </trkpt>
      <trkpt lat="48.69183" lon="-3.83964">
        <ele>17.5</ele>
        <time>2020-08-16T10:22:18Z</time>
      </trkpt>
      <trkpt lat="48.69167" lon="-3.8398">
        <ele>17.6</ele>
        <time>2020-08-16T10:22:19Z</time>
      </trkpt>
      <trkpt lat="48.69154" lon="-3.84012">
        <ele>21.2</ele>
        <time>2020-08-16T10:22:25Z</time>
      </trkpt>
      <trkpt lat="48.69148" lon="-3.84023">
        <ele>22.3</ele>
        <time>2020-08-16T10:22:29Z</time>
      </trkpt>
      <trkpt lat="48.6914" lon="-3.84047">
        <ele>23.1</ele>
        <time>2020-08-16T10:22:38Z</time>
      </trkpt>
      <trkpt lat="48.69134" lon="-3.84078">
        <ele>23.2</ele>
        <time>2020-08-16T10:22:48Z</time>
      </trkpt>
      <trkpt lat="48.6913" lon="-3.84103">
        <ele>23.7</ele>
        <time>2020-08-16T10:22:56Z</time>
      </trkpt>
      <trkpt lat="48.69127" lon="-3.84131">
        <ele>24.1</ele>
        <time>2020-08-16T10:23:05Z</time>
      </trkpt>
      <trkpt lat="48.69126" lon="-3.84152">
        <ele>24.2</ele>
        <time>2020-08-16T10:23:12Z</time>
      </trkpt>
      <trkpt lat="48.69126" lon="-3.84175">
        <ele>25.9</ele>
        <time>2020-08-16T10:23:20Z</time>
      </trkpt>
      <trkpt lat="48.69126" lon="-3.84198">
        <ele>26.4</ele>
        <time>2020-08-16T10:23:28Z</time>
      </trkpt>
      <trkpt lat="48.69131" lon="-3.84216">
        <ele>26.6</ele>
        <time>2020-08-16T10:23:34Z</time>
      </trkpt>
      <trkpt lat="48.69137" lon="-3.84234">
        <ele>26.6</ele>
        <time>2020-08-16T10:23:40Z</time>
      </trkpt>
      <trkpt lat="48.69144" lon="-3.84253">
        <ele>28.9</ele>
        <time>2020-08-16T10:23:47Z</time>
      </trkpt>
      <trkpt lat="48.69154" lon="-3.84284">
        <ele>30</ele>
        <time>2020-08-16T10:23:58Z</time>
      </trkpt>
      <trkpt lat="48.69158" lon="-3.84303">
        <ele>30.8</ele>
        <time>2020-08-16T10:24:05Z</time>
      </trkpt>
      <trkpt lat="48.69161" lon="-3.84322">
        <ele>31.1</ele>
        <time>2020-08-16T10:24:12Z</time>
      </trkpt>
      <trkpt lat="48.69165" lon="-3.84338">
        <ele>32.1</ele>
        <time>2020-08-16T10:24:18Z</time>
      </trkpt>
      <trkpt lat="48.69169" lon="-3.84357">
        <ele>31.1</ele>
        <time>2020-08-16T10:24:26Z</time>
      </trkpt>
      <trkpt lat="48.69176" lon="-3.84377">
        <ele>32</ele>
        <time>2020-08-16T10:24:34Z</time>
      </trkpt>
      <trkpt lat="48.69181" lon="-3.84383">
        <ele>32.2</ele>
        <time>2020-08-16T10:24:37Z</time>
      </trkpt>
      <trkpt lat="48.69192" lon="-3.84401">
        <ele>32.9</ele>
        <time>2020-08-16T10:24:47Z</time>
      </trkpt>
      <trkpt lat="48.69203" lon="-3.84421">
        <ele>35.7</ele>
        <time>2020-08-16T10:24:55Z</time>
      </trkpt>
      <trkpt lat="48.69216" lon="-3.84446">
        <ele>35.4</ele>
        <time>2020-08-16T10:25:03Z</time>
      </trkpt>
      <trkpt lat="48.69232" lon="-3.84475">
        <ele>35.6</ele>
        <time>2020-08-16T10:25:11Z</time>
      </trkpt>
      <trkpt lat="48.69245" lon="-3.84497">
        <ele>35.9</ele>
        <time>2020-08-16T10:25:19Z</time>
      </trkpt>
      <trkpt lat="48.69257" lon="-3.84519">
        <ele>35.3</ele>
        <time>2020-08-16T10:25:26Z</time>
      </trkpt>
      <trkpt lat="48.69273" lon="-3.84545">
        <ele>35</ele>
        <time>2020-08-16T10:25:35Z</time>
      </trkpt>
      <trkpt lat="48.69275" lon="-3.84552">
        <ele>35</ele>
        <time>2020-08-16T10:25:39Z</time>
      </trkpt>
      <trkpt lat="48.69275" lon="-3.84552">
        <ele>35</ele>
        <time>2020-08-16T10:25:40Z</time>
      </trkpt>
      <trkpt lat="48.69275" lon="-3.84552">
        <ele>35</ele>
        <time>2020-08-16T10:26:16Z</time>
      </trkpt>
      <trkpt lat="48.69269" lon="-3.84563">
        <ele>34.8</ele>
        <time>2020-08-16T10:26:47Z</time>
      </trkpt>
      <trkpt lat="48.69256" lon="-3.84578">
        <ele>34.3</ele>
        <time>2020-08-16T10:26:52Z</time>
      </trkpt>
      <trkpt lat="48.69233" lon="-3.84566">
        <ele>34.9</ele>
        <time>2020-08-16T10:26:58Z</time>
      </trkpt>
      <trkpt lat="48.69209" lon="-3.84544">
        <ele>35.5</ele>
        <time>2020-08-16T10:27:06Z</time>
      </trkpt>
      <trkpt lat="48.69186" lon="-3.8453">
        <ele>35.8</ele>
        <time>2020-08-16T10:27:14Z</time>
      </trkpt>
      <trkpt lat="48.69164" lon="-3.84531">
        <ele>37.3</ele>
        <time>2020-08-16T10:27:22Z</time>
      </trkpt>
      <trkpt lat="48.69151" lon="-3.84532">
        <ele>37.4</ele>
        <time>2020-08-16T10:27:27Z</time>
      </trkpt>
      <trkpt lat="48.69134" lon="-3.84534">
        <ele>37.7</ele>
        <time>2020-08-16T10:27:34Z</time>
      </trkpt>
      <trkpt lat="48.69116" lon="-3.84535">
        <ele>38.1</ele>
        <time>2020-08-16T10:27:42Z</time>
      </trkpt>
      <trkpt lat="48.691" lon="-3.84541">
        <ele>38.2</ele>
        <time>2020-08-16T10:27:49Z</time>
      </trkpt>
      <trkpt lat="48.6908" lon="-3.84552">
        <ele>39.7</ele>
        <time>2020-08-16T10:27:57Z</time>
      </trkpt>
      <trkpt lat="48.69058" lon="-3.84569">
        <ele>39.6</ele>
        <time>2020-08-16T10:28:05Z</time>
      </trkpt>
      <trkpt lat="48.69031" lon="-3.84585">
        <ele>38</ele>
        <time>2020-08-16T10:28:14Z</time>
      </trkpt>
      <trkpt lat="48.69009" lon="-3.84595">
        <ele>39</ele>
        <time>2020-08-16T10:28:22Z</time>
      </trkpt>
      <trkpt lat="48.68985" lon="-3.84605">
        <ele>39.4</ele>
        <time>2020-08-16T10:28:30Z</time>
      </trkpt>
      <trkpt lat="48.68966" lon="-3.84613">
        <ele>39.1</ele>
        <time>2020-08-16T10:28:36Z</time>
      </trkpt>
      <trkpt lat="48.68946" lon="-3.84618">
        <ele>39.1</ele>
        <time>2020-08-16T10:28:43Z</time>
      </trkpt>
      <trkpt lat="48.68923" lon="-3.84622">
        <ele>39.1</ele>
        <time>2020-08-16T10:28:50Z</time>
      </trkpt>
      <trkpt lat="48.68913" lon="-3.84624">
        <ele>39.5</ele>
        <time>2020-08-16T10:28:53Z</time>
      </trkpt>
      <trkpt lat="48.68892" lon="-3.84644">
        <ele>39</ele>
        <time>2020-08-16T10:29:01Z</time>
      </trkpt>
      <trkpt lat="48.68869" lon="-3.84661">
        <ele>39</ele>
        <time>2020-08-16T10:29:08Z</time>
      </trkpt>
      <trkpt lat="48.68849" lon="-3.84662">
        <ele>39.1</ele>
        <time>2020-08-16T10:29:15Z</time>
      </trkpt>
      <trkpt lat="48.68824" lon="-3.84657">
        <ele>39.4</ele>
        <time>2020-08-16T10:29:24Z</time>
      </trkpt>
      <trkpt lat="48.68805" lon="-3.84648">
        <ele>39.8</ele>
        <time>2020-08-16T10:29:31Z</time>
      </trkpt>
      <trkpt lat="48.68802" lon="-3.84644">
        <ele>39.8</ele>
        <time>2020-08-16T10:29:37Z</time>
      </trkpt>
      <trkpt lat="48.68781" lon="-3.84602">
        <ele>40.2</ele>
        <time>2020-08-16T10:29:45Z</time>
      </trkpt>
      <trkpt lat="48.68776" lon="-3.8459">
        <ele>40.3</ele>
        <time>2020-08-16T10:29:50Z</time>
      </trkpt>
      <trkpt lat="48.68752" lon="-3.84596">
        <ele>40.6</ele>
        <time>2020-08-16T10:29:57Z</time>
      </trkpt>
      <trkpt lat="48.68739" lon="-3.84592">
        <ele>40.3</ele>
        <time>2020-08-16T10:30:03Z</time>
      </trkpt>
      <trkpt lat="48.68718" lon="-3.84587">
        <ele>39.8</ele>
        <time>2020-08-16T10:30:10Z</time>
      </trkpt>
      <trkpt lat="48.68696" lon="-3.84581">
        <ele>40.5</ele>
        <time>2020-08-16T10:30:16Z</time>
      </trkpt>
      <trkpt lat="48.6867" lon="-3.84574">
        <ele>40.3</ele>
        <time>2020-08-16T10:30:22Z</time>
      </trkpt>
      <trkpt lat="48.68643" lon="-3.8457">
        <ele>39.9</ele>
        <time>2020-08-16T10:30:29Z</time>
      </trkpt>
      <trkpt lat="48.68619" lon="-3.8456">
        <ele>39.7</ele>
        <time>2020-08-16T10:30:36Z</time>
      </trkpt>
      <trkpt lat="48.68595" lon="-3.84547">
        <ele>39.7</ele>
        <time>2020-08-16T10:30:44Z</time>
      </trkpt>
      <trkpt lat="48.68575" lon="-3.84534">
        <ele>39.4</ele>
        <time>2020-08-16T10:30:52Z</time>
      </trkpt>
      <trkpt lat="48.68557" lon="-3.84525">
        <ele>39.4</ele>
        <time>2020-08-16T10:31:00Z</time>
      </trkpt>
      <trkpt lat="48.68542" lon="-3.84519">
        <ele>39.4</ele>
        <time>2020-08-16T10:31:07Z</time>
      </trkpt>
      <trkpt lat="48.6854" lon="-3.84519">
        <ele>39.4</ele>
        <time>2020-08-16T10:31:10Z</time>
      </trkpt>
      <trkpt lat="48.6854" lon="-3.84519">
        <ele>39.4</ele>
        <time>2020-08-16T10:31:17Z</time>
      </trkpt>
      <trkpt lat="48.6854" lon="-3.84519">
        <ele>39.4</ele>
        <time>2020-08-16T10:31:18Z</time>
      </trkpt>
      <trkpt lat="48.6854" lon="-3.84519">
        <ele>39.4</ele>
        <time>2020-08-16T10:34:30Z</time>
      </trkpt>
      <trkpt lat="48.68531" lon="-3.84516">
        <ele>39.4</ele>
        <time>2020-08-16T10:34:40Z</time>
      </trkpt>
      <trkpt lat="48.68509" lon="-3.84508">
        <ele>39.6</ele>
        <time>2020-08-16T10:34:48Z</time>
      </trkpt>
      <trkpt lat="48.68488" lon="-3.84497">
        <ele>40.3</ele>
        <time>2020-08-16T10:34:55Z</time>
      </trkpt>
      <trkpt lat="48.6846" lon="-3.84476">
        <ele>40.5</ele>
        <time>2020-08-16T10:35:04Z</time>
      </trkpt>
      <trkpt lat="48.68433" lon="-3.84465">
        <ele>40.5</ele>
        <time>2020-08-16T10:35:12Z</time>
      </trkpt>
      <trkpt lat="48.68404" lon="-3.84448">
        <ele>41.1</ele>
        <time>2020-08-16T10:35:21Z</time>
      </trkpt>
      <trkpt lat="48.68383" lon="-3.84433">
        <ele>41.4</ele>
        <time>2020-08-16T10:35:29Z</time>
      </trkpt>
      <trkpt lat="48.68365" lon="-3.84423">
        <ele>41.7</ele>
        <time>2020-08-16T10:35:37Z</time>
      </trkpt>
      <trkpt lat="48.68349" lon="-3.8441">
        <ele>43.4</ele>
        <time>2020-08-16T10:35:45Z</time>
      </trkpt>
      <trkpt lat="48.68334" lon="-3.84402">
        <ele>43.4</ele>
        <time>2020-08-16T10:35:52Z</time>
      </trkpt>
      <trkpt lat="48.68312" lon="-3.84402">
        <ele>44</ele>
        <time>2020-08-16T10:36:01Z</time>
      </trkpt>
      <trkpt lat="48.68298" lon="-3.84401">
        <ele>44.3</ele>
        <time>2020-08-16T10:36:07Z</time>
      </trkpt>
      <trkpt lat="48.68292" lon="-3.84399">
        <ele>44.4</ele>
        <time>2020-08-16T10:36:14Z</time>
      </trkpt>
      <trkpt lat="48.68276" lon="-3.8436">
        <ele>44.7</ele>
        <time>2020-08-16T10:36:21Z</time>
      </trkpt>
      <trkpt lat="48.68263" lon="-3.84334">
        <ele>44.8</ele>
        <time>2020-08-16T10:36:31Z</time>
      </trkpt>
      <trkpt lat="48.68253" lon="-3.84317">
        <ele>45.7</ele>
        <time>2020-08-16T10:36:38Z</time>
      </trkpt>
      <trkpt lat="48.68244" lon="-3.84296">
        <ele>46.5</ele>
        <time>2020-08-16T10:36:45Z</time>
      </trkpt>
      <trkpt lat="48.68239" lon="-3.84282">
        <ele>46.9</ele>
        <time>2020-08-16T10:36:52Z</time>
      </trkpt>
      <trkpt lat="48.68238" lon="-3.84281">
        <ele>46.9</ele>
        <time>2020-08-16T10:36:54Z</time>
      </trkpt>
      <trkpt lat="48.68238" lon="-3.84281">
        <ele>46.9</ele>
        <time>2020-08-16T10:37:00Z</time>
      </trkpt>
      <trkpt lat="48.68238" lon="-3.84281">
        <ele>46.9</ele>
        <time>2020-08-16T10:37:07Z</time>
      </trkpt>
      <trkpt lat="48.68213" lon="-3.84237">
        <ele>48.7</ele>
        <time>2020-08-16T10:37:16Z</time>
      </trkpt>
      <trkpt lat="48.68202" lon="-3.84226">
        <ele>48.8</ele>
        <time>2020-08-16T10:37:25Z</time>
      </trkpt>
      <trkpt lat="48.68202" lon="-3.84226">
        <ele>48.8</ele>
        <time>2020-08-16T10:37:30Z</time>
      </trkpt>
      <trkpt lat="48.68202" lon="-3.84226">
        <ele>48.8</ele>
        <time>2020-08-16T10:37:31Z</time>
      </trkpt>
      <trkpt lat="48.68209" lon="-3.84233">
        <ele>48.7</ele>
        <time>2020-08-16T10:37:38Z</time>
      </trkpt>
      <trkpt lat="48.6821" lon="-3.84234">
        <ele>48.7</ele>
        <time>2020-08-16T10:37:41Z</time>
      </trkpt>
      <trkpt lat="48.68214" lon="-3.84238">
        <ele>48.7</ele>
        <time>2020-08-16T10:37:48Z</time>
      </trkpt>
      <trkpt lat="48.68222" lon="-3.8425">
        <ele>48.6</ele>
        <time>2020-08-16T10:37:55Z</time>
      </trkpt>
      <trkpt lat="48.68234" lon="-3.84269">
        <ele>47.2</ele>
        <time>2020-08-16T10:38:02Z</time>
      </trkpt>
      <trkpt lat="48.68238" lon="-3.84281">
        <ele>46.9</ele>
        <time>2020-08-16T10:38:06Z</time>
      </trkpt>
      <trkpt lat="48.68238" lon="-3.84281">
        <ele>46.9</ele>
        <time>2020-08-16T10:38:09Z</time>
      </trkpt>
      <trkpt lat="48.68256" lon="-3.84242">
        <ele>48.2</ele>
        <time>2020-08-16T10:38:17Z</time>
      </trkpt>
      <trkpt lat="48.68265" lon="-3.84218">
        <ele>48.7</ele>
        <time>2020-08-16T10:38:27Z</time>
      </trkpt>
      <trkpt lat="48.68276" lon="-3.84185">
        <ele>49.1</ele>
        <time>2020-08-16T10:38:40Z</time>
      </trkpt>
      <trkpt lat="48.68283" lon="-3.84152">
        <ele>50.9</ele>
        <time>2020-08-16T10:38:52Z</time>
      </trkpt>
      <trkpt lat="48.68285" lon="-3.84132">
        <ele>51.1</ele>
        <time>2020-08-16T10:39:00Z</time>
      </trkpt>
      <trkpt lat="48.68289" lon="-3.84107">
        <ele>51.5</ele>
        <time>2020-08-16T10:39:09Z</time>
      </trkpt>
      <trkpt lat="48.68295" lon="-3.84074">
        <ele>53</ele>
        <time>2020-08-16T10:39:21Z</time>
      </trkpt>
      <trkpt lat="48.683" lon="-3.84049">
        <ele>53.3</ele>
        <time>2020-08-16T10:39:30Z</time>
      </trkpt>
      <trkpt lat="48.68305" lon="-3.84025">
        <ele>53.6</ele>
        <time>2020-08-16T10:39:39Z</time>
      </trkpt>
      <trkpt lat="48.68315" lon="-3.83994">
        <ele>55</ele>
        <time>2020-08-16T10:39:50Z</time>
      </trkpt>
      <trkpt lat="48.68324" lon="-3.83969">
        <ele>55.3</ele>
        <time>2020-08-16T10:39:59Z</time>
      </trkpt>
      <trkpt lat="48.68331" lon="-3.83946">
        <ele>55.8</ele>
        <time>2020-08-16T10:40:07Z</time>
      </trkpt>
      <trkpt lat="48.68334" lon="-3.83938">
        <ele>55.7</ele>
        <time>2020-08-16T10:40:10Z</time>
      </trkpt>
      <trkpt lat="48.68328" lon="-3.83934">
        <ele>56.1</ele>
        <time>2020-08-16T10:40:14Z</time>
      </trkpt>
      <trkpt lat="48.68306" lon="-3.83928">
        <ele>55.8</ele>
        <time>2020-08-16T10:40:26Z</time>
      </trkpt>
      <trkpt lat="48.68288" lon="-3.83923">
        <ele>55.7</ele>
        <time>2020-08-16T10:40:34Z</time>
      </trkpt>
      <trkpt lat="48.6827" lon="-3.83917">
        <ele>55.7</ele>
        <time>2020-08-16T10:40:43Z</time>
      </trkpt>
      <trkpt lat="48.68246" lon="-3.8391">
        <ele>56.1</ele>
        <time>2020-08-16T10:40:53Z</time>
      </trkpt>
      <trkpt lat="48.68231" lon="-3.83905">
        <ele>56.1</ele>
        <time>2020-08-16T10:40:59Z</time>
      </trkpt>
      <trkpt lat="48.68209" lon="-3.83897">
        <ele>56.2</ele>
        <time>2020-08-16T10:41:07Z</time>
      </trkpt>
      <trkpt lat="48.68188" lon="-3.83888">
        <ele>56.2</ele>
        <time>2020-08-16T10:41:14Z</time>
      </trkpt>
      <trkpt lat="48.68165" lon="-3.83879">
        <ele>56.2</ele>
        <time>2020-08-16T10:41:22Z</time>
      </trkpt>
      <trkpt lat="48.6815" lon="-3.83872">
        <ele>56.2</ele>
        <time>2020-08-16T10:41:28Z</time>
      </trkpt>
      <trkpt lat="48.68136" lon="-3.83906">
        <ele>55.9</ele>
        <time>2020-08-16T10:41:34Z</time>
      </trkpt>
      <trkpt lat="48.68131" lon="-3.83932">
        <ele>54.7</ele>
        <time>2020-08-16T10:41:39Z</time>
      </trkpt>
      <trkpt lat="48.68129" lon="-3.83944">
        <ele>54.5</ele>
        <time>2020-08-16T10:41:41Z</time>
      </trkpt>
      <trkpt lat="48.68127" lon="-3.83956">
        <ele>54.3</ele>
        <time>2020-08-16T10:41:43Z</time>
      </trkpt>
      <trkpt lat="48.68121" lon="-3.84">
        <ele>53.7</ele>
        <time>2020-08-16T10:41:50Z</time>
      </trkpt>
      <trkpt lat="48.6811" lon="-3.84064">
        <ele>51.5</ele>
        <time>2020-08-16T10:42:00Z</time>
      </trkpt>
      <trkpt lat="48.68102" lon="-3.84126">
        <ele>50</ele>
        <time>2020-08-16T10:42:09Z</time>
      </trkpt>
      <trkpt lat="48.68099" lon="-3.8416">
        <ele>49.6</ele>
        <time>2020-08-16T10:42:15Z</time>
      </trkpt>
      <trkpt lat="48.68097" lon="-3.84206">
        <ele>48.4</ele>
        <time>2020-08-16T10:42:22Z</time>
      </trkpt>
      <trkpt lat="48.68097" lon="-3.84213">
        <ele>48.3</ele>
        <time>2020-08-16T10:42:23Z</time>
      </trkpt>
      <trkpt lat="48.68097" lon="-3.84249">
        <ele>47.6</ele>
        <time>2020-08-16T10:42:28Z</time>
      </trkpt>
      <trkpt lat="48.68098" lon="-3.84265">
        <ele>46.4</ele>
        <time>2020-08-16T10:42:30Z</time>
      </trkpt>
      <trkpt lat="48.68099" lon="-3.84325">
        <ele>44.6</ele>
        <time>2020-08-16T10:42:38Z</time>
      </trkpt>
      <trkpt lat="48.68098" lon="-3.84357">
        <ele>43.3</ele>
        <time>2020-08-16T10:42:43Z</time>
      </trkpt>
      <trkpt lat="48.68093" lon="-3.84371">
        <ele>43.1</ele>
        <time>2020-08-16T10:42:47Z</time>
      </trkpt>
      <trkpt lat="48.68075" lon="-3.84377">
        <ele>39</ele>
        <time>2020-08-16T10:42:53Z</time>
      </trkpt>
      <trkpt lat="48.68039" lon="-3.84379">
        <ele>37.5</ele>
        <time>2020-08-16T10:43:01Z</time>
      </trkpt>
      <trkpt lat="48.68035" lon="-3.84378">
        <ele>37.4</ele>
        <time>2020-08-16T10:43:02Z</time>
      </trkpt>
      <trkpt lat="48.68002" lon="-3.84367">
        <ele>36.7</ele>
        <time>2020-08-16T10:43:09Z</time>
      </trkpt>
      <trkpt lat="48.67969" lon="-3.84348">
        <ele>33.3</ele>
        <time>2020-08-16T10:43:16Z</time>
      </trkpt>
      <trkpt lat="48.67951" lon="-3.84338">
        <ele>32.5</ele>
        <time>2020-08-16T10:43:21Z</time>
      </trkpt>
      <trkpt lat="48.67943" lon="-3.84335">
        <ele>32.2</ele>
        <time>2020-08-16T10:43:28Z</time>
      </trkpt>
      <trkpt lat="48.67898" lon="-3.8431">
        <ele>33.9</ele>
        <time>2020-08-16T10:43:36Z</time>
      </trkpt>
      <trkpt lat="48.6788" lon="-3.84304">
        <ele>34.4</ele>
        <time>2020-08-16T10:43:42Z</time>
      </trkpt>
      <trkpt lat="48.67878" lon="-3.84304">
        <ele>34.5</ele>
        <time>2020-08-16T10:43:43Z</time>
      </trkpt>
      <trkpt lat="48.67867" lon="-3.84302">
        <ele>34.6</ele>
        <time>2020-08-16T10:43:48Z</time>
      </trkpt>
      <trkpt lat="48.67867" lon="-3.84302">
        <ele>34.6</ele>
        <time>2020-08-16T10:43:49Z</time>
      </trkpt>
      <trkpt lat="48.67867" lon="-3.84302">
        <ele>34.6</ele>
        <time>2020-08-16T10:43:54Z</time>
      </trkpt>
      <trkpt lat="48.67835" lon="-3.84306">
        <ele>34.8</ele>
        <time>2020-08-16T10:44:00Z</time>
      </trkpt>
      <trkpt lat="48.67832" lon="-3.84307">
        <ele>36.7</ele>
        <time>2020-08-16T10:44:02Z</time>
      </trkpt>
      <trkpt lat="48.67829" lon="-3.84308">
        <ele>36.7</ele>
        <time>2020-08-16T10:44:08Z</time>
      </trkpt>
      <trkpt lat="48.67829" lon="-3.84308">
        <ele>36.7</ele>
        <time>2020-08-16T10:44:13Z</time>
      </trkpt>
      <trkpt lat="48.67829" lon="-3.84308">
        <ele>36.7</ele>
        <time>2020-08-16T10:44:22Z</time>
      </trkpt>
      <trkpt lat="48.67814" lon="-3.84319">
        <ele>36.9</ele>
        <time>2020-08-16T10:44:26Z</time>
      </trkpt>
      <trkpt lat="48.67814" lon="-3.84319">
        <ele>36.9</ele>
        <time>2020-08-16T10:44:33Z</time>
      </trkpt>
      <trkpt lat="48.67814" lon="-3.84319">
        <ele>36.9</ele>
        <time>2020-08-16T10:44:38Z</time>
      </trkpt>
      <trkpt lat="48.67797" lon="-3.84338">
        <ele>37.4</ele>
        <time>2020-08-16T10:44:49Z</time>
      </trkpt>
      <trkpt lat="48.67794" lon="-3.84345">
        <ele>37.6</ele>
        <time>2020-08-16T10:44:57Z</time>
      </trkpt>
      <trkpt lat="48.67794" lon="-3.84345">
        <ele>37.6</ele>
        <time>2020-08-16T10:45:04Z</time>
      </trkpt>
      <trkpt lat="48.67786" lon="-3.84364">
        <ele>37.9</ele>
        <time>2020-08-16T10:45:13Z</time>
      </trkpt>
      <trkpt lat="48.67786" lon="-3.84364">
        <ele>37.9</ele>
        <time>2020-08-16T10:45:19Z</time>
      </trkpt>
      <trkpt lat="48.67786" lon="-3.84365">
        <ele>37.9</ele>
        <time>2020-08-16T10:45:29Z</time>
      </trkpt>
      <trkpt lat="48.67777" lon="-3.84398">
        <ele>38.3</ele>
        <time>2020-08-16T10:45:41Z</time>
      </trkpt>
      <trkpt lat="48.67769" lon="-3.84407">
        <ele>38.7</ele>
        <time>2020-08-16T10:45:51Z</time>
      </trkpt>
      <trkpt lat="48.67758" lon="-3.84416">
        <ele>39.4</ele>
        <time>2020-08-16T10:46:03Z</time>
      </trkpt>
      <trkpt lat="48.67752" lon="-3.84421">
        <ele>39.7</ele>
        <time>2020-08-16T10:46:13Z</time>
      </trkpt>
      <trkpt lat="48.67752" lon="-3.84421">
        <ele>39.7</ele>
        <time>2020-08-16T10:46:14Z</time>
      </trkpt>
      <trkpt lat="48.67743" lon="-3.84428">
        <ele>40.1</ele>
        <time>2020-08-16T10:47:40Z</time>
      </trkpt>
      <trkpt lat="48.67753" lon="-3.84457">
        <ele>38.9</ele>
        <time>2020-08-16T10:47:45Z</time>
      </trkpt>
      <trkpt lat="48.67774" lon="-3.8447">
        <ele>38.7</ele>
        <time>2020-08-16T10:47:51Z</time>
      </trkpt>
      <trkpt lat="48.67803" lon="-3.8449">
        <ele>38</ele>
        <time>2020-08-16T10:47:57Z</time>
      </trkpt>
      <trkpt lat="48.67809" lon="-3.84495">
        <ele>37.9</ele>
        <time>2020-08-16T10:47:58Z</time>
      </trkpt>
      <trkpt lat="48.67829" lon="-3.84516">
        <ele>37.1</ele>
        <time>2020-08-16T10:48:02Z</time>
      </trkpt>
      <trkpt lat="48.67837" lon="-3.84542">
        <ele>32.6</ele>
        <time>2020-08-16T10:48:05Z</time>
      </trkpt>
      <trkpt lat="48.67837" lon="-3.84553">
        <ele>32.5</ele>
        <time>2020-08-16T10:48:06Z</time>
      </trkpt>
      <trkpt lat="48.67831" lon="-3.84626">
        <ele>32.5</ele>
        <time>2020-08-16T10:48:13Z</time>
      </trkpt>
      <trkpt lat="48.67828" lon="-3.84657">
        <ele>30</ele>
        <time>2020-08-16T10:48:17Z</time>
      </trkpt>
      <trkpt lat="48.67805" lon="-3.8467">
        <ele>27.6</ele>
        <time>2020-08-16T10:48:21Z</time>
      </trkpt>
      <trkpt lat="48.67799" lon="-3.8467">
        <ele>27.7</ele>
        <time>2020-08-16T10:48:22Z</time>
      </trkpt>
      <trkpt lat="48.67775" lon="-3.8467">
        <ele>29</ele>
        <time>2020-08-16T10:48:28Z</time>
      </trkpt>
      <trkpt lat="48.67752" lon="-3.84669">
        <ele>32.2</ele>
        <time>2020-08-16T10:48:36Z</time>
      </trkpt>
      <trkpt lat="48.67732" lon="-3.84669">
        <ele>30.4</ele>
        <time>2020-08-16T10:48:44Z</time>
      </trkpt>
      <trkpt lat="48.67711" lon="-3.84668">
        <ele>29.4</ele>
        <time>2020-08-16T10:48:53Z</time>
      </trkpt>
      <trkpt lat="48.67689" lon="-3.84666">
        <ele>34.4</ele>
        <time>2020-08-16T10:49:02Z</time>
      </trkpt>
      <trkpt lat="48.67669" lon="-3.84665">
        <ele>33.3</ele>
        <time>2020-08-16T10:49:08Z</time>
      </trkpt>
      <trkpt lat="48.67641" lon="-3.84663">
        <ele>32.2</ele>
        <time>2020-08-16T10:49:14Z</time>
      </trkpt>
      <trkpt lat="48.67601" lon="-3.84659">
        <ele>28.8</ele>
        <time>2020-08-16T10:49:20Z</time>
      </trkpt>
      <trkpt lat="48.67545" lon="-3.84648">
        <ele>26.3</ele>
        <time>2020-08-16T10:49:27Z</time>
      </trkpt>
      <trkpt lat="48.67492" lon="-3.84638">
        <ele>22.3</ele>
        <time>2020-08-16T10:49:33Z</time>
      </trkpt>
      <trkpt lat="48.67442" lon="-3.84623">
        <ele>22.7</ele>
        <time>2020-08-16T10:49:39Z</time>
      </trkpt>
      <trkpt lat="48.67405" lon="-3.84611">
        <ele>19.5</ele>
        <time>2020-08-16T10:49:44Z</time>
      </trkpt>
      <trkpt lat="48.67362" lon="-3.84598">
        <ele>17.8</ele>
        <time>2020-08-16T10:49:50Z</time>
      </trkpt>
      <trkpt lat="48.67297" lon="-3.84577">
        <ele>23.5</ele>
        <time>2020-08-16T10:50:00Z</time>
      </trkpt>
      <trkpt lat="48.67231" lon="-3.8455">
        <ele>20.2</ele>
        <time>2020-08-16T10:50:10Z</time>
      </trkpt>
      <trkpt lat="48.6718" lon="-3.84532">
        <ele>20.5</ele>
        <time>2020-08-16T10:50:17Z</time>
      </trkpt>
      <trkpt lat="48.67156" lon="-3.84531">
        <ele>18.1</ele>
        <time>2020-08-16T10:50:20Z</time>
      </trkpt>
      <trkpt lat="48.67113" lon="-3.84543">
        <ele>16.6</ele>
        <time>2020-08-16T10:50:25Z</time>
      </trkpt>
      <trkpt lat="48.67104" lon="-3.84547">
        <ele>16.3</ele>
        <time>2020-08-16T10:50:26Z</time>
      </trkpt>
      <trkpt lat="48.67079" lon="-3.84562">
        <ele>17.8</ele>
        <time>2020-08-16T10:50:29Z</time>
      </trkpt>
      <trkpt lat="48.6704" lon="-3.846">
        <ele>14.8</ele>
        <time>2020-08-16T10:50:35Z</time>
      </trkpt>
      <trkpt lat="48.67013" lon="-3.84637">
        <ele>14.7</ele>
        <time>2020-08-16T10:50:41Z</time>
      </trkpt>
      <trkpt lat="48.66997" lon="-3.84657">
        <ele>18.2</ele>
        <time>2020-08-16T10:50:46Z</time>
      </trkpt>
      <trkpt lat="48.66983" lon="-3.84673">
        <ele>15.7</ele>
        <time>2020-08-16T10:50:53Z</time>
      </trkpt>
      <trkpt lat="48.66971" lon="-3.84686">
        <ele>16.1</ele>
        <time>2020-08-16T10:51:00Z</time>
      </trkpt>
      <trkpt lat="48.66954" lon="-3.84698">
        <ele>16.6</ele>
        <time>2020-08-16T10:51:10Z</time>
      </trkpt>
      <trkpt lat="48.66952" lon="-3.84699">
        <ele>16.6</ele>
        <time>2020-08-16T10:51:11Z</time>
      </trkpt>
      <trkpt lat="48.66945" lon="-3.84705">
        <ele>16.6</ele>
        <time>2020-08-16T10:51:17Z</time>
      </trkpt>
      <trkpt lat="48.66943" lon="-3.84706">
        <ele>16.6</ele>
        <time>2020-08-16T10:51:18Z</time>
      </trkpt>
      <trkpt lat="48.66932" lon="-3.84711">
        <ele>16.6</ele>
        <time>2020-08-16T10:51:27Z</time>
      </trkpt>
      <trkpt lat="48.66923" lon="-3.84714">
        <ele>16.5</ele>
        <time>2020-08-16T10:51:33Z</time>
      </trkpt>
      <trkpt lat="48.66912" lon="-3.84716">
        <ele>17.5</ele>
        <time>2020-08-16T10:51:40Z</time>
      </trkpt>
      <trkpt lat="48.669" lon="-3.84717">
        <ele>17.4</ele>
        <time>2020-08-16T10:51:48Z</time>
      </trkpt>
      <trkpt lat="48.66898" lon="-3.84717">
        <ele>17.4</ele>
        <time>2020-08-16T10:51:50Z</time>
      </trkpt>
      <trkpt lat="48.66898" lon="-3.84717">
        <ele>17.4</ele>
        <time>2020-08-16T10:52:45Z</time>
      </trkpt>
      <trkpt lat="48.66883" lon="-3.84715">
        <ele>17.4</ele>
        <time>2020-08-16T10:52:52Z</time>
      </trkpt>
      <trkpt lat="48.66862" lon="-3.84709">
        <ele>17.4</ele>
        <time>2020-08-16T10:52:59Z</time>
      </trkpt>
      <trkpt lat="48.66836" lon="-3.84697">
        <ele>18.5</ele>
        <time>2020-08-16T10:53:05Z</time>
      </trkpt>
      <trkpt lat="48.66807" lon="-3.8468">
        <ele>16.2</ele>
        <time>2020-08-16T10:53:10Z</time>
      </trkpt>
      <trkpt lat="48.6676" lon="-3.84654">
        <ele>21.4</ele>
        <time>2020-08-16T10:53:17Z</time>
      </trkpt>
      <trkpt lat="48.66732" lon="-3.84639">
        <ele>21.4</ele>
        <time>2020-08-16T10:53:22Z</time>
      </trkpt>
      <trkpt lat="48.66703" lon="-3.84627">
        <ele>22.2</ele>
        <time>2020-08-16T10:53:29Z</time>
      </trkpt>
      <trkpt lat="48.66679" lon="-3.84618">
        <ele>22.9</ele>
        <time>2020-08-16T10:53:37Z</time>
      </trkpt>
      <trkpt lat="48.66661" lon="-3.84614">
        <ele>21.4</ele>
        <time>2020-08-16T10:53:43Z</time>
      </trkpt>
      <trkpt lat="48.66632" lon="-3.84608">
        <ele>20.8</ele>
        <time>2020-08-16T10:53:51Z</time>
      </trkpt>
      <trkpt lat="48.66603" lon="-3.84603">
        <ele>20.8</ele>
        <time>2020-08-16T10:53:57Z</time>
      </trkpt>
      <trkpt lat="48.66559" lon="-3.84595">
        <ele>17.9</ele>
        <time>2020-08-16T10:54:04Z</time>
      </trkpt>
      <trkpt lat="48.66502" lon="-3.84585">
        <ele>16.8</ele>
        <time>2020-08-16T10:54:12Z</time>
      </trkpt>
      <trkpt lat="48.66429" lon="-3.84572">
        <ele>16.9</ele>
        <time>2020-08-16T10:54:21Z</time>
      </trkpt>
      <trkpt lat="48.66344" lon="-3.84557">
        <ele>13.7</ele>
        <time>2020-08-16T10:54:31Z</time>
      </trkpt>
      <trkpt lat="48.66267" lon="-3.84544">
        <ele>10.9</ele>
        <time>2020-08-16T10:54:40Z</time>
      </trkpt>
      <trkpt lat="48.66178" lon="-3.84528">
        <ele>7.2</ele>
        <time>2020-08-16T10:54:50Z</time>
      </trkpt>
      <trkpt lat="48.66124" lon="-3.84524">
        <ele>6.2</ele>
        <time>2020-08-16T10:54:56Z</time>
      </trkpt>
      <trkpt lat="48.66077" lon="-3.84538">
        <ele>6.9</ele>
        <time>2020-08-16T10:55:02Z</time>
      </trkpt>
      <trkpt lat="48.66044" lon="-3.84562">
        <ele>6.9</ele>
        <time>2020-08-16T10:55:07Z</time>
      </trkpt>
      <trkpt lat="48.66013" lon="-3.84606">
        <ele>6.4</ele>
        <time>2020-08-16T10:55:13Z</time>
      </trkpt>
      <trkpt lat="48.65991" lon="-3.84654">
        <ele>7.6</ele>
        <time>2020-08-16T10:55:19Z</time>
      </trkpt>
      <trkpt lat="48.65979" lon="-3.84706">
        <ele>7.7</ele>
        <time>2020-08-16T10:55:25Z</time>
      </trkpt>
      <trkpt lat="48.65978" lon="-3.84714">
        <ele>7.6</ele>
        <time>2020-08-16T10:55:26Z</time>
      </trkpt>
      <trkpt lat="48.65974" lon="-3.84788">
        <ele>7.4</ele>
        <time>2020-08-16T10:55:35Z</time>
      </trkpt>
      <trkpt lat="48.65972" lon="-3.84842">
        <ele>7.4</ele>
        <time>2020-08-16T10:55:42Z</time>
      </trkpt>
      <trkpt lat="48.6597" lon="-3.84889">
        <ele>7.5</ele>
        <time>2020-08-16T10:55:49Z</time>
      </trkpt>
      <trkpt lat="48.65969" lon="-3.84915">
        <ele>7.3</ele>
        <time>2020-08-16T10:55:53Z</time>
      </trkpt>
      <trkpt lat="48.65961" lon="-3.84966">
        <ele>8.5</ele>
        <time>2020-08-16T10:56:02Z</time>
      </trkpt>
      <trkpt lat="48.65955" lon="-3.8499">
        <ele>8.9</ele>
        <time>2020-08-16T10:56:07Z</time>
      </trkpt>
      <trkpt lat="48.65947" lon="-3.85011">
        <ele>10.1</ele>
        <time>2020-08-16T10:56:12Z</time>
      </trkpt>
      <trkpt lat="48.65937" lon="-3.85035">
        <ele>10.3</ele>
        <time>2020-08-16T10:56:18Z</time>
      </trkpt>
      <trkpt lat="48.65927" lon="-3.85053">
        <ele>10.6</ele>
        <time>2020-08-16T10:56:24Z</time>
      </trkpt>
      <trkpt lat="48.65915" lon="-3.8507">
        <ele>12.9</ele>
        <time>2020-08-16T10:56:31Z</time>
      </trkpt>
      <trkpt lat="48.659" lon="-3.85089">
        <ele>14.3</ele>
        <time>2020-08-16T10:56:38Z</time>
      </trkpt>
      <trkpt lat="48.65885" lon="-3.85102">
        <ele>15.6</ele>
        <time>2020-08-16T10:56:47Z</time>
      </trkpt>
      <trkpt lat="48.65874" lon="-3.85111">
        <ele>16.3</ele>
        <time>2020-08-16T10:56:55Z</time>
      </trkpt>
      <trkpt lat="48.65862" lon="-3.85117">
        <ele>16.9</ele>
        <time>2020-08-16T10:57:03Z</time>
      </trkpt>
      <trkpt lat="48.65852" lon="-3.85122">
        <ele>17.3</ele>
        <time>2020-08-16T10:57:10Z</time>
      </trkpt>
      <trkpt lat="48.65837" lon="-3.85127">
        <ele>17.8</ele>
        <time>2020-08-16T10:57:19Z</time>
      </trkpt>
      <trkpt lat="48.65822" lon="-3.85131">
        <ele>23.6</ele>
        <time>2020-08-16T10:57:29Z</time>
      </trkpt>
      <trkpt lat="48.65809" lon="-3.85133">
        <ele>24.2</ele>
        <time>2020-08-16T10:57:38Z</time>
      </trkpt>
      <trkpt lat="48.658" lon="-3.85133">
        <ele>24.7</ele>
        <time>2020-08-16T10:57:45Z</time>
      </trkpt>
      <trkpt lat="48.65786" lon="-3.85132">
        <ele>25.6</ele>
        <time>2020-08-16T10:57:55Z</time>
      </trkpt>
      <trkpt lat="48.65776" lon="-3.8513">
        <ele>26.1</ele>
        <time>2020-08-16T10:58:04Z</time>
      </trkpt>
      <trkpt lat="48.65776" lon="-3.8513">
        <ele>26.1</ele>
        <time>2020-08-16T10:58:12Z</time>
      </trkpt>
      <trkpt lat="48.65752" lon="-3.85117">
        <ele>26.5</ele>
        <time>2020-08-16T10:58:20Z</time>
      </trkpt>
      <trkpt lat="48.6574" lon="-3.8511">
        <ele>32</ele>
        <time>2020-08-16T10:58:29Z</time>
      </trkpt>
      <trkpt lat="48.65727" lon="-3.85103">
        <ele>32.4</ele>
        <time>2020-08-16T10:58:38Z</time>
      </trkpt>
      <trkpt lat="48.65711" lon="-3.85093">
        <ele>33.5</ele>
        <time>2020-08-16T10:58:49Z</time>
      </trkpt>
      <trkpt lat="48.65697" lon="-3.85086">
        <ele>34.5</ele>
        <time>2020-08-16T10:58:59Z</time>
      </trkpt>
      <trkpt lat="48.65681" lon="-3.85079">
        <ele>35</ele>
        <time>2020-08-16T10:59:11Z</time>
      </trkpt>
      <trkpt lat="48.65667" lon="-3.85074">
        <ele>35.8</ele>
        <time>2020-08-16T10:59:22Z</time>
      </trkpt>
      <trkpt lat="48.65657" lon="-3.85071">
        <ele>38.7</ele>
        <time>2020-08-16T10:59:29Z</time>
      </trkpt>
      <trkpt lat="48.65643" lon="-3.85066">
        <ele>39.6</ele>
        <time>2020-08-16T10:59:40Z</time>
      </trkpt>
      <trkpt lat="48.65635" lon="-3.85063">
        <ele>40</ele>
        <time>2020-08-16T10:59:47Z</time>
      </trkpt>
      <trkpt lat="48.65632" lon="-3.85062">
        <ele>40.2</ele>
        <time>2020-08-16T10:59:49Z</time>
      </trkpt>
      <trkpt lat="48.65624" lon="-3.85058">
        <ele>40.5</ele>
        <time>2020-08-16T10:59:56Z</time>
      </trkpt>
      <trkpt lat="48.65608" lon="-3.85049">
        <ele>41.1</ele>
        <time>2020-08-16T11:00:08Z</time>
      </trkpt>
      <trkpt lat="48.65598" lon="-3.85042">
        <ele>41.2</ele>
        <time>2020-08-16T11:00:16Z</time>
      </trkpt>
      <trkpt lat="48.65595" lon="-3.85039">
        <ele>41.3</ele>
        <time>2020-08-16T11:00:19Z</time>
      </trkpt>
      <trkpt lat="48.65586" lon="-3.85032">
        <ele>41.3</ele>
        <time>2020-08-16T11:00:26Z</time>
      </trkpt>
      <trkpt lat="48.65575" lon="-3.85018">
        <ele>44</ele>
        <time>2020-08-16T11:00:35Z</time>
      </trkpt>
      <trkpt lat="48.65564" lon="-3.85002">
        <ele>44</ele>
        <time>2020-08-16T11:00:44Z</time>
      </trkpt>
      <trkpt lat="48.65554" lon="-3.84983">
        <ele>43.9</ele>
        <time>2020-08-16T11:00:53Z</time>
      </trkpt>
      <trkpt lat="48.65539" lon="-3.84955">
        <ele>44.3</ele>
        <time>2020-08-16T11:01:06Z</time>
      </trkpt>
      <trkpt lat="48.65529" lon="-3.84932">
        <ele>44.6</ele>
        <time>2020-08-16T11:01:16Z</time>
      </trkpt>
      <trkpt lat="48.65521" lon="-3.84919">
        <ele>44.9</ele>
        <time>2020-08-16T11:01:22Z</time>
      </trkpt>
      <trkpt lat="48.65507" lon="-3.84894">
        <ele>45.2</ele>
        <time>2020-08-16T11:01:33Z</time>
      </trkpt>
      <trkpt lat="48.6549" lon="-3.8487">
        <ele>47.7</ele>
        <time>2020-08-16T11:01:45Z</time>
      </trkpt>
      <trkpt lat="48.65476" lon="-3.84854">
        <ele>47.9</ele>
        <time>2020-08-16T11:01:54Z</time>
      </trkpt>
      <trkpt lat="48.65455" lon="-3.84835">
        <ele>48.4</ele>
        <time>2020-08-16T11:02:07Z</time>
      </trkpt>
      <trkpt lat="48.6544" lon="-3.84822">
        <ele>49.3</ele>
        <time>2020-08-16T11:02:15Z</time>
      </trkpt>
      <trkpt lat="48.65417" lon="-3.84803">
        <ele>49.5</ele>
        <time>2020-08-16T11:02:27Z</time>
      </trkpt>
      <trkpt lat="48.654" lon="-3.84789">
        <ele>51.2</ele>
        <time>2020-08-16T11:02:35Z</time>
      </trkpt>
      <trkpt lat="48.65379" lon="-3.8477">
        <ele>51.6</ele>
        <time>2020-08-16T11:02:45Z</time>
      </trkpt>
      <trkpt lat="48.65369" lon="-3.84761">
        <ele>51.8</ele>
        <time>2020-08-16T11:02:50Z</time>
      </trkpt>
      <trkpt lat="48.65368" lon="-3.84759">
        <ele>51.8</ele>
        <time>2020-08-16T11:02:51Z</time>
      </trkpt>
      <trkpt lat="48.65358" lon="-3.84767">
        <ele>51.9</ele>
        <time>2020-08-16T11:02:54Z</time>
      </trkpt>
      <trkpt lat="48.65352" lon="-3.84779">
        <ele>51.9</ele>
        <time>2020-08-16T11:03:00Z</time>
      </trkpt>
      <trkpt lat="48.65352" lon="-3.84779">
        <ele>51.9</ele>
        <time>2020-08-16T11:03:01Z</time>
      </trkpt>
      <trkpt lat="48.65352" lon="-3.84779">
        <ele>51.9</ele>
        <time>2020-08-16T11:05:04Z</time>
      </trkpt>
      <trkpt lat="48.65345" lon="-3.84795">
        <ele>51.8</ele>
        <time>2020-08-16T11:05:18Z</time>
      </trkpt>
      <trkpt lat="48.65333" lon="-3.84823">
        <ele>52.4</ele>
        <time>2020-08-16T11:05:26Z</time>
      </trkpt>
      <trkpt lat="48.65323" lon="-3.84864">
        <ele>52.6</ele>
        <time>2020-08-16T11:05:37Z</time>
      </trkpt>
      <trkpt lat="48.65314" lon="-3.84901">
        <ele>52.8</ele>
        <time>2020-08-16T11:05:47Z</time>
      </trkpt>
      <trkpt lat="48.65313" lon="-3.84908">
        <ele>52.8</ele>
        <time>2020-08-16T11:05:49Z</time>
      </trkpt>
      <trkpt lat="48.653" lon="-3.84913">
        <ele>52.8</ele>
        <time>2020-08-16T11:05:54Z</time>
      </trkpt>
      <trkpt lat="48.65279" lon="-3.84899">
        <ele>52.8</ele>
        <time>2020-08-16T11:06:01Z</time>
      </trkpt>
      <trkpt lat="48.65267" lon="-3.84902">
        <ele>52.9</ele>
        <time>2020-08-16T11:06:06Z</time>
      </trkpt>
      <trkpt lat="48.65266" lon="-3.84907">
        <ele>52.9</ele>
        <time>2020-08-16T11:06:07Z</time>
      </trkpt>
      <trkpt lat="48.65255" lon="-3.84953">
        <ele>52.5</ele>
        <time>2020-08-16T11:06:16Z</time>
      </trkpt>
      <trkpt lat="48.6524" lon="-3.84986">
        <ele>52.6</ele>
        <time>2020-08-16T11:06:23Z</time>
      </trkpt>
      <trkpt lat="48.6521" lon="-3.85034">
        <ele>52.1</ele>
        <time>2020-08-16T11:06:34Z</time>
      </trkpt>
      <trkpt lat="48.65188" lon="-3.85071">
        <ele>51.9</ele>
        <time>2020-08-16T11:06:43Z</time>
      </trkpt>
      <trkpt lat="48.65175" lon="-3.85073">
        <ele>52</ele>
        <time>2020-08-16T11:06:47Z</time>
      </trkpt>
      <trkpt lat="48.65146" lon="-3.8505">
        <ele>52.7</ele>
        <time>2020-08-16T11:06:56Z</time>
      </trkpt>
      <trkpt lat="48.65124" lon="-3.85033">
        <ele>52.8</ele>
        <time>2020-08-16T11:07:04Z</time>
      </trkpt>
      <trkpt lat="48.65102" lon="-3.85016">
        <ele>52.9</ele>
        <time>2020-08-16T11:07:14Z</time>
      </trkpt>
      <trkpt lat="48.65083" lon="-3.84999">
        <ele>53</ele>
        <time>2020-08-16T11:07:23Z</time>
      </trkpt>
      <trkpt lat="48.65068" lon="-3.84979">
        <ele>53</ele>
        <time>2020-08-16T11:07:31Z</time>
      </trkpt>
      <trkpt lat="48.65049" lon="-3.84953">
        <ele>53.1</ele>
        <time>2020-08-16T11:07:38Z</time>
      </trkpt>
      <trkpt lat="48.65024" lon="-3.84918">
        <ele>53.1</ele>
        <time>2020-08-16T11:07:46Z</time>
      </trkpt>
      <trkpt lat="48.65007" lon="-3.84899">
        <ele>53.1</ele>
        <time>2020-08-16T11:07:52Z</time>
      </trkpt>
      <trkpt lat="48.64979" lon="-3.8488">
        <ele>51.2</ele>
        <time>2020-08-16T11:08:00Z</time>
      </trkpt>
      <trkpt lat="48.64946" lon="-3.84861">
        <ele>50.3</ele>
        <time>2020-08-16T11:08:08Z</time>
      </trkpt>
      <trkpt lat="48.64916" lon="-3.84839">
        <ele>48.1</ele>
        <time>2020-08-16T11:08:14Z</time>
      </trkpt>
      <trkpt lat="48.64886" lon="-3.84793">
        <ele>46.7</ele>
        <time>2020-08-16T11:08:20Z</time>
      </trkpt>
      <trkpt lat="48.64847" lon="-3.84712">
        <ele>45.6</ele>
        <time>2020-08-16T11:08:28Z</time>
      </trkpt>
      <trkpt lat="48.64816" lon="-3.84654">
        <ele>43.6</ele>
        <time>2020-08-16T11:08:34Z</time>
      </trkpt>
      <trkpt lat="48.64778" lon="-3.84581">
        <ele>45.1</ele>
        <time>2020-08-16T11:08:41Z</time>
      </trkpt>
      <trkpt lat="48.64757" lon="-3.84538">
        <ele>45.8</ele>
        <time>2020-08-16T11:08:46Z</time>
      </trkpt>
      <trkpt lat="48.64744" lon="-3.84502">
        <ele>46.7</ele>
        <time>2020-08-16T11:08:52Z</time>
      </trkpt>
      <trkpt lat="48.64734" lon="-3.84477">
        <ele>47.8</ele>
        <time>2020-08-16T11:08:59Z</time>
      </trkpt>
      <trkpt lat="48.64725" lon="-3.84458">
        <ele>48.2</ele>
        <time>2020-08-16T11:09:06Z</time>
      </trkpt>
      <trkpt lat="48.64714" lon="-3.8444">
        <ele>48.5</ele>
        <time>2020-08-16T11:09:14Z</time>
      </trkpt>
      <trkpt lat="48.64704" lon="-3.84423">
        <ele>48.7</ele>
        <time>2020-08-16T11:09:23Z</time>
      </trkpt>
      <trkpt lat="48.64691" lon="-3.84423">
        <ele>48.9</ele>
        <time>2020-08-16T11:09:29Z</time>
      </trkpt>
      <trkpt lat="48.64675" lon="-3.84419">
        <ele>49.5</ele>
        <time>2020-08-16T11:09:37Z</time>
      </trkpt>
      <trkpt lat="48.64665" lon="-3.84411">
        <ele>50.4</ele>
        <time>2020-08-16T11:09:44Z</time>
      </trkpt>
      <trkpt lat="48.64651" lon="-3.8438">
        <ele>51.7</ele>
        <time>2020-08-16T11:09:53Z</time>
      </trkpt>
      <trkpt lat="48.64641" lon="-3.8436">
        <ele>52.2</ele>
        <time>2020-08-16T11:10:02Z</time>
      </trkpt>
      <trkpt lat="48.64632" lon="-3.84338">
        <ele>52.5</ele>
        <time>2020-08-16T11:10:11Z</time>
      </trkpt>
      <trkpt lat="48.64623" lon="-3.84317">
        <ele>55</ele>
        <time>2020-08-16T11:10:20Z</time>
      </trkpt>
      <trkpt lat="48.64612" lon="-3.84287">
        <ele>55.8</ele>
        <time>2020-08-16T11:10:31Z</time>
      </trkpt>
      <trkpt lat="48.64606" lon="-3.84265">
        <ele>56.6</ele>
        <time>2020-08-16T11:10:38Z</time>
      </trkpt>
      <trkpt lat="48.646" lon="-3.84232">
        <ele>58.8</ele>
        <time>2020-08-16T11:10:48Z</time>
      </trkpt>
      <trkpt lat="48.64595" lon="-3.84203">
        <ele>59.2</ele>
        <time>2020-08-16T11:10:58Z</time>
      </trkpt>
      <trkpt lat="48.64591" lon="-3.84177">
        <ele>60.1</ele>
        <time>2020-08-16T11:11:07Z</time>
      </trkpt>
      <trkpt lat="48.64588" lon="-3.84154">
        <ele>61.1</ele>
        <time>2020-08-16T11:11:15Z</time>
      </trkpt>
      <trkpt lat="48.64583" lon="-3.84129">
        <ele>62.2</ele>
        <time>2020-08-16T11:11:24Z</time>
      </trkpt>
      <trkpt lat="48.64579" lon="-3.84109">
        <ele>62.6</ele>
        <time>2020-08-16T11:11:31Z</time>
      </trkpt>
      <trkpt lat="48.64573" lon="-3.84085">
        <ele>62.8</ele>
        <time>2020-08-16T11:11:39Z</time>
      </trkpt>
      <trkpt lat="48.64567" lon="-3.84049">
        <ele>63.5</ele>
        <time>2020-08-16T11:11:49Z</time>
      </trkpt>
      <trkpt lat="48.64562" lon="-3.84011">
        <ele>63.6</ele>
        <time>2020-08-16T11:11:59Z</time>
      </trkpt>
      <trkpt lat="48.64558" lon="-3.83979">
        <ele>63.9</ele>
        <time>2020-08-16T11:12:07Z</time>
      </trkpt>
      <trkpt lat="48.64552" lon="-3.83948">
        <ele>64</ele>
        <time>2020-08-16T11:12:14Z</time>
      </trkpt>
      <trkpt lat="48.64547" lon="-3.83912">
        <ele>65.1</ele>
        <time>2020-08-16T11:12:22Z</time>
      </trkpt>
      <trkpt lat="48.64538" lon="-3.83863">
        <ele>65.7</ele>
        <time>2020-08-16T11:12:33Z</time>
      </trkpt>
      <trkpt lat="48.64532" lon="-3.83829">
        <ele>67.3</ele>
        <time>2020-08-16T11:12:41Z</time>
      </trkpt>
      <trkpt lat="48.64528" lon="-3.83809">
        <ele>67.5</ele>
        <time>2020-08-16T11:12:47Z</time>
      </trkpt>
      <trkpt lat="48.64519" lon="-3.83764">
        <ele>68.3</ele>
        <time>2020-08-16T11:13:00Z</time>
      </trkpt>
      <trkpt lat="48.64513" lon="-3.83729">
        <ele>69.3</ele>
        <time>2020-08-16T11:13:11Z</time>
      </trkpt>
      <trkpt lat="48.6451" lon="-3.83695">
        <ele>69.7</ele>
        <time>2020-08-16T11:13:21Z</time>
      </trkpt>
      <trkpt lat="48.64501" lon="-3.83665">
        <ele>71</ele>
        <time>2020-08-16T11:13:30Z</time>
      </trkpt>
      <trkpt lat="48.64488" lon="-3.83637">
        <ele>70.6</ele>
        <time>2020-08-16T11:13:39Z</time>
      </trkpt>
      <trkpt lat="48.64472" lon="-3.83604">
        <ele>70.7</ele>
        <time>2020-08-16T11:13:48Z</time>
      </trkpt>
      <trkpt lat="48.64454" lon="-3.83563">
        <ele>71.5</ele>
        <time>2020-08-16T11:13:58Z</time>
      </trkpt>
      <trkpt lat="48.64434" lon="-3.83511">
        <ele>71.5</ele>
        <time>2020-08-16T11:14:09Z</time>
      </trkpt>
      <trkpt lat="48.64422" lon="-3.83483">
        <ele>71.9</ele>
        <time>2020-08-16T11:14:16Z</time>
      </trkpt>
      <trkpt lat="48.64407" lon="-3.8346">
        <ele>71.1</ele>
        <time>2020-08-16T11:14:23Z</time>
      </trkpt>
      <trkpt lat="48.64395" lon="-3.83447">
        <ele>71.2</ele>
        <time>2020-08-16T11:14:27Z</time>
      </trkpt>
      <trkpt lat="48.6439" lon="-3.83437">
        <ele>71.3</ele>
        <time>2020-08-16T11:14:31Z</time>
      </trkpt>
      <trkpt lat="48.6439" lon="-3.83437">
        <ele>71.3</ele>
        <time>2020-08-16T11:14:34Z</time>
      </trkpt>
      <trkpt lat="48.64386" lon="-3.83441">
        <ele>71.2</ele>
        <time>2020-08-16T11:16:44Z</time>
      </trkpt>
      <trkpt lat="48.64384" lon="-3.8348">
        <ele>70.9</ele>
        <time>2020-08-16T11:16:51Z</time>
      </trkpt>
      <trkpt lat="48.64383" lon="-3.83506">
        <ele>69.8</ele>
        <time>2020-08-16T11:16:57Z</time>
      </trkpt>
      <trkpt lat="48.64382" lon="-3.83527">
        <ele>69.7</ele>
        <time>2020-08-16T11:17:01Z</time>
      </trkpt>
      <trkpt lat="48.64378" lon="-3.83599">
        <ele>68.9</ele>
        <time>2020-08-16T11:17:12Z</time>
      </trkpt>
      <trkpt lat="48.64374" lon="-3.83658">
        <ele>68.7</ele>
        <time>2020-08-16T11:17:20Z</time>
      </trkpt>
      <trkpt lat="48.64376" lon="-3.83718">
        <ele>67.4</ele>
        <time>2020-08-16T11:17:28Z</time>
      </trkpt>
      <trkpt lat="48.6438" lon="-3.83753">
        <ele>65.7</ele>
        <time>2020-08-16T11:17:32Z</time>
      </trkpt>
      <trkpt lat="48.64384" lon="-3.8378">
        <ele>65.4</ele>
        <time>2020-08-16T11:17:35Z</time>
      </trkpt>
      <trkpt lat="48.64376" lon="-3.83844">
        <ele>63.5</ele>
        <time>2020-08-16T11:17:42Z</time>
      </trkpt>
      <trkpt lat="48.64353" lon="-3.83949">
        <ele>61.7</ele>
        <time>2020-08-16T11:17:53Z</time>
      </trkpt>
      <trkpt lat="48.64337" lon="-3.84016">
        <ele>60.4</ele>
        <time>2020-08-16T11:18:00Z</time>
      </trkpt>
      <trkpt lat="48.64326" lon="-3.84042">
        <ele>59.3</ele>
        <time>2020-08-16T11:18:03Z</time>
      </trkpt>
      <trkpt lat="48.64304" lon="-3.84078">
        <ele>59.1</ele>
        <time>2020-08-16T11:18:08Z</time>
      </trkpt>
      <trkpt lat="48.64299" lon="-3.84083">
        <ele>59</ele>
        <time>2020-08-16T11:18:09Z</time>
      </trkpt>
      <trkpt lat="48.64277" lon="-3.84112">
        <ele>57.3</ele>
        <time>2020-08-16T11:18:14Z</time>
      </trkpt>
      <trkpt lat="48.64269" lon="-3.8415">
        <ele>56.2</ele>
        <time>2020-08-16T11:18:18Z</time>
      </trkpt>
      <trkpt lat="48.64255" lon="-3.84186">
        <ele>53.2</ele>
        <time>2020-08-16T11:18:23Z</time>
      </trkpt>
      <trkpt lat="48.64255" lon="-3.84186">
        <ele>53.2</ele>
        <time>2020-08-16T11:18:24Z</time>
      </trkpt>
      <trkpt lat="48.64234" lon="-3.84255">
        <ele>46.7</ele>
        <time>2020-08-16T11:18:28Z</time>
      </trkpt>
      <trkpt lat="48.64217" lon="-3.8426">
        <ele>46.1</ele>
        <time>2020-08-16T11:18:31Z</time>
      </trkpt>
      <trkpt lat="48.64203" lon="-3.84242">
        <ele>49.4</ele>
        <time>2020-08-16T11:18:36Z</time>
      </trkpt>
      <trkpt lat="48.64197" lon="-3.84232">
        <ele>49.6</ele>
        <time>2020-08-16T11:18:42Z</time>
      </trkpt>
      <trkpt lat="48.64187" lon="-3.84217">
        <ele>50</ele>
        <time>2020-08-16T11:18:51Z</time>
      </trkpt>
      <trkpt lat="48.64176" lon="-3.84202">
        <ele>50.7</ele>
        <time>2020-08-16T11:19:00Z</time>
      </trkpt>
      <trkpt lat="48.64163" lon="-3.84182">
        <ele>51.3</ele>
        <time>2020-08-16T11:19:11Z</time>
      </trkpt>
      <trkpt lat="48.64148" lon="-3.84164">
        <ele>53.5</ele>
        <time>2020-08-16T11:19:22Z</time>
      </trkpt>
      <trkpt lat="48.64132" lon="-3.84149">
        <ele>53.7</ele>
        <time>2020-08-16T11:19:32Z</time>
      </trkpt>
      <trkpt lat="48.64126" lon="-3.84144">
        <ele>53.7</ele>
        <time>2020-08-16T11:19:39Z</time>
      </trkpt>
      <trkpt lat="48.64088" lon="-3.84137">
        <ele>53</ele>
        <time>2020-08-16T11:19:49Z</time>
      </trkpt>
      <trkpt lat="48.64074" lon="-3.8414">
        <ele>51.1</ele>
        <time>2020-08-16T11:19:54Z</time>
      </trkpt>
      <trkpt lat="48.64074" lon="-3.8414">
        <ele>51.1</ele>
        <time>2020-08-16T11:19:55Z</time>
      </trkpt>
      <trkpt lat="48.64065" lon="-3.84145">
        <ele>51</ele>
        <time>2020-08-16T11:21:03Z</time>
      </trkpt>
      <trkpt lat="48.64044" lon="-3.84165">
        <ele>50.6</ele>
        <time>2020-08-16T11:21:11Z</time>
      </trkpt>
      <trkpt lat="48.64019" lon="-3.84192">
        <ele>48.8</ele>
        <time>2020-08-16T11:21:19Z</time>
      </trkpt>
      <trkpt lat="48.63993" lon="-3.84222">
        <ele>48.6</ele>
        <time>2020-08-16T11:21:26Z</time>
      </trkpt>
      <trkpt lat="48.63981" lon="-3.84233">
        <ele>48.6</ele>
        <time>2020-08-16T11:21:29Z</time>
      </trkpt>
      <trkpt lat="48.63954" lon="-3.84242">
        <ele>48.9</ele>
        <time>2020-08-16T11:21:35Z</time>
      </trkpt>
      <trkpt lat="48.63946" lon="-3.8424">
        <ele>49</ele>
        <time>2020-08-16T11:21:37Z</time>
      </trkpt>
      <trkpt lat="48.63923" lon="-3.84225">
        <ele>49.1</ele>
        <time>2020-08-16T11:21:43Z</time>
      </trkpt>
      <trkpt lat="48.63913" lon="-3.8421">
        <ele>50</ele>
        <time>2020-08-16T11:21:46Z</time>
      </trkpt>
      <trkpt lat="48.63889" lon="-3.84149">
        <ele>47.8</ele>
        <time>2020-08-16T11:21:55Z</time>
      </trkpt>
      <trkpt lat="48.63873" lon="-3.84102">
        <ele>47.1</ele>
        <time>2020-08-16T11:22:01Z</time>
      </trkpt>
      <trkpt lat="48.63867" lon="-3.84085">
        <ele>46.8</ele>
        <time>2020-08-16T11:22:03Z</time>
      </trkpt>
      <trkpt lat="48.63858" lon="-3.8406">
        <ele>45.6</ele>
        <time>2020-08-16T11:22:07Z</time>
      </trkpt>
      <trkpt lat="48.63858" lon="-3.8406">
        <ele>45.6</ele>
        <time>2020-08-16T11:22:08Z</time>
      </trkpt>
      <trkpt lat="48.63819" lon="-3.84075">
        <ele>44.4</ele>
        <time>2020-08-16T11:22:16Z</time>
      </trkpt>
      <trkpt lat="48.63801" lon="-3.84082">
        <ele>44</ele>
        <time>2020-08-16T11:22:20Z</time>
      </trkpt>
      <trkpt lat="48.63784" lon="-3.84093">
        <ele>44.9</ele>
        <time>2020-08-16T11:22:24Z</time>
      </trkpt>
      <trkpt lat="48.6376" lon="-3.84126">
        <ele>45.6</ele>
        <time>2020-08-16T11:22:30Z</time>
      </trkpt>
      <trkpt lat="48.63745" lon="-3.84147">
        <ele>45.8</ele>
        <time>2020-08-16T11:22:32Z</time>
      </trkpt>
      <trkpt lat="48.63718" lon="-3.84189">
        <ele>46.4</ele>
        <time>2020-08-16T11:22:37Z</time>
      </trkpt>
      <trkpt lat="48.637" lon="-3.84222">
        <ele>46</ele>
        <time>2020-08-16T11:22:41Z</time>
      </trkpt>
      <trkpt lat="48.6369" lon="-3.84273">
        <ele>44.2</ele>
        <time>2020-08-16T11:22:46Z</time>
      </trkpt>
      <trkpt lat="48.63694" lon="-3.8432">
        <ele>42.7</ele>
        <time>2020-08-16T11:22:50Z</time>
      </trkpt>
      <trkpt lat="48.63698" lon="-3.84343">
        <ele>40.5</ele>
        <time>2020-08-16T11:22:52Z</time>
      </trkpt>
      <trkpt lat="48.63699" lon="-3.84378">
        <ele>40.3</ele>
        <time>2020-08-16T11:22:56Z</time>
      </trkpt>
      <trkpt lat="48.63699" lon="-3.84405">
        <ele>39.5</ele>
        <time>2020-08-16T11:23:00Z</time>
      </trkpt>
      <trkpt lat="48.63699" lon="-3.84449">
        <ele>37.7</ele>
        <time>2020-08-16T11:23:05Z</time>
      </trkpt>
      <trkpt lat="48.637" lon="-3.84459">
        <ele>37.6</ele>
        <time>2020-08-16T11:23:06Z</time>
      </trkpt>
      <trkpt lat="48.63701" lon="-3.84487">
        <ele>37.1</ele>
        <time>2020-08-16T11:23:09Z</time>
      </trkpt>
      <trkpt lat="48.63702" lon="-3.84516">
        <ele>35.3</ele>
        <time>2020-08-16T11:23:12Z</time>
      </trkpt>
      <trkpt lat="48.63702" lon="-3.84564">
        <ele>34.5</ele>
        <time>2020-08-16T11:23:17Z</time>
      </trkpt>
      <trkpt lat="48.63696" lon="-3.84618">
        <ele>30.6</ele>
        <time>2020-08-16T11:23:23Z</time>
      </trkpt>
      <trkpt lat="48.63693" lon="-3.84635">
        <ele>29.7</ele>
        <time>2020-08-16T11:23:25Z</time>
      </trkpt>
      <trkpt lat="48.63682" lon="-3.84695">
        <ele>22.4</ele>
        <time>2020-08-16T11:23:31Z</time>
      </trkpt>
      <trkpt lat="48.63669" lon="-3.84749">
        <ele>15.7</ele>
        <time>2020-08-16T11:23:36Z</time>
      </trkpt>
      <trkpt lat="48.63659" lon="-3.84801">
        <ele>14.3</ele>
        <time>2020-08-16T11:23:41Z</time>
      </trkpt>
      <trkpt lat="48.63655" lon="-3.84818">
        <ele>12.7</ele>
        <time>2020-08-16T11:23:43Z</time>
      </trkpt>
      <trkpt lat="48.63648" lon="-3.8485">
        <ele>7.8</ele>
        <time>2020-08-16T11:23:47Z</time>
      </trkpt>
      <trkpt lat="48.63638" lon="-3.84871">
        <ele>7.1</ele>
        <time>2020-08-16T11:23:51Z</time>
      </trkpt>
      <trkpt lat="48.63597" lon="-3.84888">
        <ele>6.4</ele>
        <time>2020-08-16T11:24:00Z</time>
      </trkpt>
      <trkpt lat="48.63589" lon="-3.84891">
        <ele>6.2</ele>
        <time>2020-08-16T11:24:06Z</time>
      </trkpt>
      <trkpt lat="48.63546" lon="-3.84892">
        <ele>6.5</ele>
        <time>2020-08-16T11:24:13Z</time>
      </trkpt>
      <trkpt lat="48.6354" lon="-3.84891">
        <ele>6.5</ele>
        <time>2020-08-16T11:24:15Z</time>
      </trkpt>
      <trkpt lat="48.63536" lon="-3.8489">
        <ele>6.6</ele>
        <time>2020-08-16T11:24:18Z</time>
      </trkpt>
      <trkpt lat="48.63524" lon="-3.84889">
        <ele>6.4</ele>
        <time>2020-08-16T11:24:44Z</time>
      </trkpt>
      <trkpt lat="48.63508" lon="-3.84886">
        <ele>6.4</ele>
        <time>2020-08-16T11:24:51Z</time>
      </trkpt>
      <trkpt lat="48.63479" lon="-3.84877">
        <ele>6.9</ele>
        <time>2020-08-16T11:25:01Z</time>
      </trkpt>
      <trkpt lat="48.63471" lon="-3.84874">
        <ele>7.1</ele>
        <time>2020-08-16T11:25:07Z</time>
      </trkpt>
      <trkpt lat="48.63471" lon="-3.84874">
        <ele>7.1</ele>
        <time>2020-08-16T11:25:14Z</time>
      </trkpt>
      <trkpt lat="48.63471" lon="-3.84874">
        <ele>7.1</ele>
        <time>2020-08-16T11:25:15Z</time>
      </trkpt>
      <trkpt lat="48.63439" lon="-3.84858">
        <ele>8</ele>
        <time>2020-08-16T11:25:22Z</time>
      </trkpt>
      <trkpt lat="48.63439" lon="-3.84858">
        <ele>8</ele>
        <time>2020-08-16T11:25:23Z</time>
      </trkpt>
      <trkpt lat="48.63439" lon="-3.84858">
        <ele>8</ele>
        <time>2020-08-16T11:25:28Z</time>
      </trkpt>
      <trkpt lat="48.6343" lon="-3.84853">
        <ele>8.5</ele>
        <time>2020-08-16T11:25:34Z</time>
      </trkpt>
      <trkpt lat="48.63422" lon="-3.84849">
        <ele>9</ele>
        <time>2020-08-16T11:25:37Z</time>
      </trkpt>
      <trkpt lat="48.63402" lon="-3.8484">
        <ele>8.3</ele>
        <time>2020-08-16T11:25:45Z</time>
      </trkpt>
      <trkpt lat="48.63402" lon="-3.8484">
        <ele>8.3</ele>
        <time>2020-08-16T11:25:47Z</time>
      </trkpt>
      <trkpt lat="48.63402" lon="-3.8484">
        <ele>8.3</ele>
        <time>2020-08-16T11:26:09Z</time>
      </trkpt>
      <trkpt lat="48.63402" lon="-3.8484">
        <ele>8.3</ele>
        <time>2020-08-16T11:26:10Z</time>
      </trkpt>
      <trkpt lat="48.63402" lon="-3.8484">
        <ele>8.3</ele>
        <time>2020-08-16T11:26:37Z</time>
      </trkpt>
      <trkpt lat="48.63398" lon="-3.84838">
        <ele>7.9</ele>
        <time>2020-08-16T11:26:42Z</time>
      </trkpt>
      <trkpt lat="48.63398" lon="-3.84838">
        <ele>7.9</ele>
        <time>2020-08-16T11:26:45Z</time>
      </trkpt>
      <trkpt lat="48.63398" lon="-3.84838">
        <ele>7.9</ele>
        <time>2020-08-16T11:26:57Z</time>
      </trkpt>
      <trkpt lat="48.63413" lon="-3.84791">
        <ele>19.9</ele>
        <time>2020-08-16T11:27:03Z</time>
      </trkpt>
      <trkpt lat="48.63402" lon="-3.8484">
        <ele>8.3</ele>
        <time>2020-08-16T11:51:26Z</time>
      </trkpt>
      <trkpt lat="48.634" lon="-3.84838">
        <ele>8.1</ele>
        <time>2020-08-16T11:51:28Z</time>
      </trkpt>
      <trkpt lat="48.63389" lon="-3.84834">
        <ele>7.3</ele>
        <time>2020-08-16T11:51:35Z</time>
      </trkpt>
      <trkpt lat="48.63377" lon="-3.84829">
        <ele>15</ele>
        <time>2020-08-16T11:51:41Z</time>
      </trkpt>
      <trkpt lat="48.63361" lon="-3.84823">
        <ele>14.1</ele>
        <time>2020-08-16T11:51:48Z</time>
      </trkpt>
      <trkpt lat="48.6334" lon="-3.84816">
        <ele>12.6</ele>
        <time>2020-08-16T11:51:56Z</time>
      </trkpt>
      <trkpt lat="48.63311" lon="-3.84805">
        <ele>11.2</ele>
        <time>2020-08-16T11:52:06Z</time>
      </trkpt>
      <trkpt lat="48.63276" lon="-3.84794">
        <ele>11.5</ele>
        <time>2020-08-16T11:52:18Z</time>
      </trkpt>
      <trkpt lat="48.63249" lon="-3.84786">
        <ele>10.9</ele>
        <time>2020-08-16T11:52:27Z</time>
      </trkpt>
      <trkpt lat="48.6322" lon="-3.84775">
        <ele>11.8</ele>
        <time>2020-08-16T11:52:37Z</time>
      </trkpt>
      <trkpt lat="48.63189" lon="-3.84762">
        <ele>11.7</ele>
        <time>2020-08-16T11:52:47Z</time>
      </trkpt>
      <trkpt lat="48.63156" lon="-3.84758">
        <ele>10.9</ele>
        <time>2020-08-16T11:52:57Z</time>
      </trkpt>
      <trkpt lat="48.63136" lon="-3.8476">
        <ele>9.4</ele>
        <time>2020-08-16T11:53:04Z</time>
      </trkpt>
      <trkpt lat="48.63133" lon="-3.84761">
        <ele>9.1</ele>
        <time>2020-08-16T11:53:05Z</time>
      </trkpt>
      <trkpt lat="48.63123" lon="-3.84767">
        <ele>8.4</ele>
        <time>2020-08-16T11:53:10Z</time>
      </trkpt>
      <trkpt lat="48.63107" lon="-3.84768">
        <ele>7.3</ele>
        <time>2020-08-16T11:53:16Z</time>
      </trkpt>
      <trkpt lat="48.63099" lon="-3.84757">
        <ele>6.4</ele>
        <time>2020-08-16T11:53:19Z</time>
      </trkpt>
      <trkpt lat="48.63081" lon="-3.84728">
        <ele>6.2</ele>
        <time>2020-08-16T11:53:28Z</time>
      </trkpt>
      <trkpt lat="48.63069" lon="-3.84706">
        <ele>7.3</ele>
        <time>2020-08-16T11:53:34Z</time>
      </trkpt>
      <trkpt lat="48.63055" lon="-3.84684">
        <ele>7.7</ele>
        <time>2020-08-16T11:53:40Z</time>
      </trkpt>
      <trkpt lat="48.63044" lon="-3.84669">
        <ele>7.2</ele>
        <time>2020-08-16T11:53:44Z</time>
      </trkpt>
      <trkpt lat="48.63035" lon="-3.84658">
        <ele>10</ele>
        <time>2020-08-16T11:53:47Z</time>
      </trkpt>
      <trkpt lat="48.63007" lon="-3.84632">
        <ele>9.5</ele>
        <time>2020-08-16T11:53:55Z</time>
      </trkpt>
      <trkpt lat="48.62995" lon="-3.84613">
        <ele>5.9</ele>
        <time>2020-08-16T11:53:59Z</time>
      </trkpt>
      <trkpt lat="48.62983" lon="-3.84588">
        <ele>6.5</ele>
        <time>2020-08-16T11:54:05Z</time>
      </trkpt>
      <trkpt lat="48.62971" lon="-3.84568">
        <ele>8.5</ele>
        <time>2020-08-16T11:54:10Z</time>
      </trkpt>
      <trkpt lat="48.62947" lon="-3.84533">
        <ele>8.7</ele>
        <time>2020-08-16T11:54:20Z</time>
      </trkpt>
      <trkpt lat="48.62928" lon="-3.84511">
        <ele>7.6</ele>
        <time>2020-08-16T11:54:28Z</time>
      </trkpt>
      <trkpt lat="48.62926" lon="-3.84506">
        <ele>7.2</ele>
        <time>2020-08-16T11:54:32Z</time>
      </trkpt>
      <trkpt lat="48.62923" lon="-3.84502">
        <ele>6.8</ele>
        <time>2020-08-16T11:54:51Z</time>
      </trkpt>
      <trkpt lat="48.62926" lon="-3.84507">
        <ele>7.3</ele>
        <time>2020-08-16T11:55:45Z</time>
      </trkpt>
      <trkpt lat="48.62926" lon="-3.84507">
        <ele>7.3</ele>
        <time>2020-08-16T11:55:52Z</time>
      </trkpt>
      <trkpt lat="48.62926" lon="-3.84507">
        <ele>7.3</ele>
        <time>2020-08-16T11:55:55Z</time>
      </trkpt>
      <trkpt lat="48.62932" lon="-3.84515">
        <ele>7.9</ele>
        <time>2020-08-16T12:19:09Z</time>
      </trkpt>
      <trkpt lat="48.62932" lon="-3.84515">
        <ele>7.9</ele>
        <time>2020-08-16T12:19:18Z</time>
      </trkpt>
      <trkpt lat="48.62932" lon="-3.84515">
        <ele>7.9</ele>
        <time>2020-08-16T12:19:24Z</time>
      </trkpt>
      <trkpt lat="48.62932" lon="-3.84515">
        <ele>7.9</ele>
        <time>2020-08-16T12:19:26Z</time>
      </trkpt>
      <trkpt lat="48.62929" lon="-3.84512">
        <ele>7.7</ele>
        <time>2020-08-16T12:19:32Z</time>
      </trkpt>
      <trkpt lat="48.62929" lon="-3.84512">
        <ele>7.7</ele>
        <time>2020-08-16T12:19:36Z</time>
      </trkpt>
      <trkpt lat="48.62921" lon="-3.84484">
        <ele>10.5</ele>
        <time>2020-08-16T12:19:45Z</time>
      </trkpt>
      <trkpt lat="48.62921" lon="-3.84484">
        <ele>10.5</ele>
        <time>2020-08-16T12:19:49Z</time>
      </trkpt>
      <trkpt lat="48.62921" lon="-3.84484">
        <ele>10.5</ele>
        <time>2020-08-16T12:20:10Z</time>
      </trkpt>
      <trkpt lat="48.62921" lon="-3.84484">
        <ele>10.5</ele>
        <time>2020-08-16T12:20:11Z</time>
      </trkpt>
      <trkpt lat="48.62921" lon="-3.84484">
        <ele>10.5</ele>
        <time>2020-08-16T12:21:09Z</time>
      </trkpt>
      <trkpt lat="48.62921" lon="-3.84484">
        <ele>10.5</ele>
        <time>2020-08-16T12:21:11Z</time>
      </trkpt>
      <trkpt lat="48.62916" lon="-3.84479">
        <ele>7.3</ele>
        <time>2020-08-16T12:21:18Z</time>
      </trkpt>
      <trkpt lat="48.62911" lon="-3.84456">
        <ele>8.6</ele>
        <time>2020-08-16T12:21:25Z</time>
      </trkpt>
      <trkpt lat="48.62899" lon="-3.84424">
        <ele>10</ele>
        <time>2020-08-16T12:21:33Z</time>
      </trkpt>
      <trkpt lat="48.62883" lon="-3.84401">
        <ele>11.2</ele>
        <time>2020-08-16T12:21:40Z</time>
      </trkpt>
      <trkpt lat="48.62865" lon="-3.84371">
        <ele>10.4</ele>
        <time>2020-08-16T12:21:47Z</time>
      </trkpt>
      <trkpt lat="48.62861" lon="-3.84349">
        <ele>9.6</ele>
        <time>2020-08-16T12:21:53Z</time>
      </trkpt>
      <trkpt lat="48.62857" lon="-3.84338">
        <ele>8.8</ele>
        <time>2020-08-16T12:21:58Z</time>
      </trkpt>
      <trkpt lat="48.62855" lon="-3.84332">
        <ele>9</ele>
        <time>2020-08-16T12:22:01Z</time>
      </trkpt>
      <trkpt lat="48.62846" lon="-3.84325">
        <ele>8</ele>
        <time>2020-08-16T12:22:08Z</time>
      </trkpt>
      <trkpt lat="48.62845" lon="-3.84327">
        <ele>7.7</ele>
        <time>2020-08-16T12:22:09Z</time>
      </trkpt>
      <trkpt lat="48.62834" lon="-3.84345">
        <ele>6.9</ele>
        <time>2020-08-16T12:22:17Z</time>
      </trkpt>
      <trkpt lat="48.62822" lon="-3.84367">
        <ele>5</ele>
        <time>2020-08-16T12:22:24Z</time>
      </trkpt>
      <trkpt lat="48.62808" lon="-3.84391">
        <ele>5</ele>
        <time>2020-08-16T12:22:32Z</time>
      </trkpt>
      <trkpt lat="48.62786" lon="-3.84431">
        <ele>4</ele>
        <time>2020-08-16T12:22:43Z</time>
      </trkpt>
      <trkpt lat="48.62759" lon="-3.84478">
        <ele>4</ele>
        <time>2020-08-16T12:22:55Z</time>
      </trkpt>
      <trkpt lat="48.6274" lon="-3.8451">
        <ele>8.9</ele>
        <time>2020-08-16T12:23:03Z</time>
      </trkpt>
      <trkpt lat="48.62721" lon="-3.84542">
        <ele>13.2</ele>
        <time>2020-08-16T12:23:11Z</time>
      </trkpt>
      <trkpt lat="48.62719" lon="-3.84546">
        <ele>13.4</ele>
        <time>2020-08-16T12:23:12Z</time>
      </trkpt>
      <trkpt lat="48.62716" lon="-3.84538">
        <ele>14</ele>
        <time>2020-08-16T12:23:17Z</time>
      </trkpt>
      <trkpt lat="48.62715" lon="-3.84534">
        <ele>14.2</ele>
        <time>2020-08-16T12:23:18Z</time>
      </trkpt>
      <trkpt lat="48.62708" lon="-3.84511">
        <ele>15.9</ele>
        <time>2020-08-16T12:23:24Z</time>
      </trkpt>
      <trkpt lat="48.627" lon="-3.8448">
        <ele>22.4</ele>
        <time>2020-08-16T12:23:31Z</time>
      </trkpt>
      <trkpt lat="48.62694" lon="-3.84459">
        <ele>23.9</ele>
        <time>2020-08-16T12:23:36Z</time>
      </trkpt>
      <trkpt lat="48.62686" lon="-3.84429">
        <ele>26.8</ele>
        <time>2020-08-16T12:23:43Z</time>
      </trkpt>
      <trkpt lat="48.62679" lon="-3.84403">
        <ele>30.4</ele>
        <time>2020-08-16T12:23:50Z</time>
      </trkpt>
      <trkpt lat="48.62675" lon="-3.84371">
        <ele>29.4</ele>
        <time>2020-08-16T12:23:57Z</time>
      </trkpt>
      <trkpt lat="48.62673" lon="-3.84347">
        <ele>28.5</ele>
        <time>2020-08-16T12:24:02Z</time>
      </trkpt>
      <trkpt lat="48.62673" lon="-3.84322">
        <ele>27.5</ele>
        <time>2020-08-16T12:24:07Z</time>
      </trkpt>
      <trkpt lat="48.62672" lon="-3.84288">
        <ele>26.4</ele>
        <time>2020-08-16T12:24:14Z</time>
      </trkpt>
      <trkpt lat="48.62672" lon="-3.84271">
        <ele>25.8</ele>
        <time>2020-08-16T12:24:19Z</time>
      </trkpt>
      <trkpt lat="48.62671" lon="-3.84243">
        <ele>22.5</ele>
        <time>2020-08-16T12:24:25Z</time>
      </trkpt>
      <trkpt lat="48.6267" lon="-3.8422">
        <ele>17.7</ele>
        <time>2020-08-16T12:24:32Z</time>
      </trkpt>
      <trkpt lat="48.62665" lon="-3.842">
        <ele>25.3</ele>
        <time>2020-08-16T12:24:39Z</time>
      </trkpt>
      <trkpt lat="48.62662" lon="-3.84187">
        <ele>23</ele>
        <time>2020-08-16T12:24:43Z</time>
      </trkpt>
      <trkpt lat="48.62654" lon="-3.84169">
        <ele>20.6</ele>
        <time>2020-08-16T12:24:49Z</time>
      </trkpt>
      <trkpt lat="48.62641" lon="-3.8416">
        <ele>18</ele>
        <time>2020-08-16T12:24:54Z</time>
      </trkpt>
      <trkpt lat="48.62624" lon="-3.84147">
        <ele>20.1</ele>
        <time>2020-08-16T12:25:01Z</time>
      </trkpt>
      <trkpt lat="48.6261" lon="-3.84136">
        <ele>20.9</ele>
        <time>2020-08-16T12:25:07Z</time>
      </trkpt>
      <trkpt lat="48.62594" lon="-3.84124">
        <ele>20.6</ele>
        <time>2020-08-16T12:25:14Z</time>
      </trkpt>
      <trkpt lat="48.62579" lon="-3.84113">
        <ele>28.4</ele>
        <time>2020-08-16T12:25:20Z</time>
      </trkpt>
      <trkpt lat="48.62568" lon="-3.84105">
        <ele>27.7</ele>
        <time>2020-08-16T12:25:25Z</time>
      </trkpt>
      <trkpt lat="48.62552" lon="-3.84093">
        <ele>28.9</ele>
        <time>2020-08-16T12:25:33Z</time>
      </trkpt>
      <trkpt lat="48.62535" lon="-3.84081">
        <ele>21.5</ele>
        <time>2020-08-16T12:25:40Z</time>
      </trkpt>
      <trkpt lat="48.62514" lon="-3.84062">
        <ele>23.2</ele>
        <time>2020-08-16T12:25:48Z</time>
      </trkpt>
      <trkpt lat="48.62497" lon="-3.84046">
        <ele>27.3</ele>
        <time>2020-08-16T12:25:55Z</time>
      </trkpt>
      <trkpt lat="48.62484" lon="-3.84033">
        <ele>25.6</ele>
        <time>2020-08-16T12:26:01Z</time>
      </trkpt>
      <trkpt lat="48.6247" lon="-3.8402">
        <ele>25.2</ele>
        <time>2020-08-16T12:26:08Z</time>
      </trkpt>
      <trkpt lat="48.6246" lon="-3.84012">
        <ele>25.8</ele>
        <time>2020-08-16T12:26:13Z</time>
      </trkpt>
      <trkpt lat="48.62447" lon="-3.83999">
        <ele>20.5</ele>
        <time>2020-08-16T12:26:18Z</time>
      </trkpt>
      <trkpt lat="48.62432" lon="-3.83985">
        <ele>22.2</ele>
        <time>2020-08-16T12:26:24Z</time>
      </trkpt>
      <trkpt lat="48.62414" lon="-3.83961">
        <ele>27.8</ele>
        <time>2020-08-16T12:26:30Z</time>
      </trkpt>
      <trkpt lat="48.62401" lon="-3.8394">
        <ele>26.2</ele>
        <time>2020-08-16T12:26:36Z</time>
      </trkpt>
      <trkpt lat="48.62388" lon="-3.83917">
        <ele>26.3</ele>
        <time>2020-08-16T12:26:42Z</time>
      </trkpt>
      <trkpt lat="48.62371" lon="-3.83885">
        <ele>23</ele>
        <time>2020-08-16T12:26:48Z</time>
      </trkpt>
      <trkpt lat="48.62365" lon="-3.83868">
        <ele>22.8</ele>
        <time>2020-08-16T12:26:52Z</time>
      </trkpt>
      <trkpt lat="48.62357" lon="-3.83846">
        <ele>22.9</ele>
        <time>2020-08-16T12:26:57Z</time>
      </trkpt>
      <trkpt lat="48.6235" lon="-3.83828">
        <ele>21.4</ele>
        <time>2020-08-16T12:27:03Z</time>
      </trkpt>
      <trkpt lat="48.6234" lon="-3.83804">
        <ele>20.1</ele>
        <time>2020-08-16T12:27:10Z</time>
      </trkpt>
      <trkpt lat="48.62335" lon="-3.8379">
        <ele>19.1</ele>
        <time>2020-08-16T12:27:17Z</time>
      </trkpt>
      <trkpt lat="48.6235" lon="-3.83755">
        <ele>17.5</ele>
        <time>2020-08-16T12:27:21Z</time>
      </trkpt>
      <trkpt lat="48.62327" lon="-3.83771">
        <ele>20.9</ele>
        <time>2020-08-16T12:27:27Z</time>
      </trkpt>
      <trkpt lat="48.62326" lon="-3.83767">
        <ele>20.4</ele>
        <time>2020-08-16T12:27:29Z</time>
      </trkpt>
      <trkpt lat="48.62322" lon="-3.83757">
        <ele>19.6</ele>
        <time>2020-08-16T12:27:37Z</time>
      </trkpt>
      <trkpt lat="48.62315" lon="-3.83747">
        <ele>19.1</ele>
        <time>2020-08-16T12:27:48Z</time>
      </trkpt>
      <trkpt lat="48.62303" lon="-3.83741">
        <ele>20.5</ele>
        <time>2020-08-16T12:27:56Z</time>
      </trkpt>
      <trkpt lat="48.62289" lon="-3.83732">
        <ele>21.9</ele>
        <time>2020-08-16T12:28:05Z</time>
      </trkpt>
      <trkpt lat="48.62276" lon="-3.83723">
        <ele>22.7</ele>
        <time>2020-08-16T12:28:13Z</time>
      </trkpt>
      <trkpt lat="48.62267" lon="-3.83717">
        <ele>23.1</ele>
        <time>2020-08-16T12:28:20Z</time>
      </trkpt>
      <trkpt lat="48.62267" lon="-3.83717">
        <ele>23.1</ele>
        <time>2020-08-16T12:28:27Z</time>
      </trkpt>
      <trkpt lat="48.62267" lon="-3.83717">
        <ele>23.1</ele>
        <time>2020-08-16T12:28:33Z</time>
      </trkpt>
      <trkpt lat="48.62229" lon="-3.83678">
        <ele>31.4</ele>
        <time>2020-08-16T12:28:42Z</time>
      </trkpt>
      <trkpt lat="48.62219" lon="-3.83664">
        <ele>29.6</ele>
        <time>2020-08-16T12:28:49Z</time>
      </trkpt>
      <trkpt lat="48.62217" lon="-3.83662">
        <ele>29.9</ele>
        <time>2020-08-16T12:28:50Z</time>
      </trkpt>
      <trkpt lat="48.62209" lon="-3.83646">
        <ele>30.6</ele>
        <time>2020-08-16T12:28:56Z</time>
      </trkpt>
      <trkpt lat="48.622" lon="-3.83629">
        <ele>30.7</ele>
        <time>2020-08-16T12:29:02Z</time>
      </trkpt>
      <trkpt lat="48.62193" lon="-3.83612">
        <ele>30.6</ele>
        <time>2020-08-16T12:29:08Z</time>
      </trkpt>
      <trkpt lat="48.62187" lon="-3.83596">
        <ele>30.8</ele>
        <time>2020-08-16T12:29:14Z</time>
      </trkpt>
      <trkpt lat="48.62185" lon="-3.83588">
        <ele>31</ele>
        <time>2020-08-16T12:29:20Z</time>
      </trkpt>
      <trkpt lat="48.62185" lon="-3.83588">
        <ele>31</ele>
        <time>2020-08-16T12:29:27Z</time>
      </trkpt>
      <trkpt lat="48.62185" lon="-3.83588">
        <ele>31</ele>
        <time>2020-08-16T12:29:36Z</time>
      </trkpt>
      <trkpt lat="48.62185" lon="-3.83588">
        <ele>31</ele>
        <time>2020-08-16T12:29:38Z</time>
      </trkpt>
      <trkpt lat="48.62185" lon="-3.83588">
        <ele>31</ele>
        <time>2020-08-16T12:29:46Z</time>
      </trkpt>
      <trkpt lat="48.62175" lon="-3.8356">
        <ele>28.4</ele>
        <time>2020-08-16T12:29:52Z</time>
      </trkpt>
      <trkpt lat="48.62171" lon="-3.83548">
        <ele>27.6</ele>
        <time>2020-08-16T12:29:58Z</time>
      </trkpt>
      <trkpt lat="48.62169" lon="-3.83542">
        <ele>27.3</ele>
        <time>2020-08-16T12:30:01Z</time>
      </trkpt>
      <trkpt lat="48.62165" lon="-3.83529">
        <ele>33.7</ele>
        <time>2020-08-16T12:30:07Z</time>
      </trkpt>
      <trkpt lat="48.62161" lon="-3.83515">
        <ele>31.8</ele>
        <time>2020-08-16T12:30:12Z</time>
      </trkpt>
      <trkpt lat="48.62154" lon="-3.83492">
        <ele>28.7</ele>
        <time>2020-08-16T12:30:19Z</time>
      </trkpt>
      <trkpt lat="48.6215" lon="-3.83478">
        <ele>29.2</ele>
        <time>2020-08-16T12:30:24Z</time>
      </trkpt>
      <trkpt lat="48.62144" lon="-3.83458">
        <ele>29.1</ele>
        <time>2020-08-16T12:30:30Z</time>
      </trkpt>
      <trkpt lat="48.62136" lon="-3.83436">
        <ele>28.6</ele>
        <time>2020-08-16T12:30:37Z</time>
      </trkpt>
      <trkpt lat="48.62127" lon="-3.83415">
        <ele>25.9</ele>
        <time>2020-08-16T12:30:43Z</time>
      </trkpt>
      <trkpt lat="48.62113" lon="-3.83389">
        <ele>26.2</ele>
        <time>2020-08-16T12:30:51Z</time>
      </trkpt>
      <trkpt lat="48.62098" lon="-3.83365">
        <ele>25.8</ele>
        <time>2020-08-16T12:31:00Z</time>
      </trkpt>
      <trkpt lat="48.62085" lon="-3.83343">
        <ele>24.7</ele>
        <time>2020-08-16T12:31:09Z</time>
      </trkpt>
      <trkpt lat="48.62073" lon="-3.83327">
        <ele>25.8</ele>
        <time>2020-08-16T12:31:17Z</time>
      </trkpt>
      <trkpt lat="48.62061" lon="-3.83314">
        <ele>27.3</ele>
        <time>2020-08-16T12:31:25Z</time>
      </trkpt>
      <trkpt lat="48.62047" lon="-3.83302">
        <ele>28.2</ele>
        <time>2020-08-16T12:31:33Z</time>
      </trkpt>
      <trkpt lat="48.62035" lon="-3.83291">
        <ele>28.6</ele>
        <time>2020-08-16T12:31:40Z</time>
      </trkpt>
      <trkpt lat="48.62021" lon="-3.8328">
        <ele>28.7</ele>
        <time>2020-08-16T12:31:48Z</time>
      </trkpt>
      <trkpt lat="48.62009" lon="-3.83273">
        <ele>28.7</ele>
        <time>2020-08-16T12:31:54Z</time>
      </trkpt>
      <trkpt lat="48.61997" lon="-3.83266">
        <ele>33.3</ele>
        <time>2020-08-16T12:32:00Z</time>
      </trkpt>
      <trkpt lat="48.61985" lon="-3.83258">
        <ele>33.7</ele>
        <time>2020-08-16T12:32:06Z</time>
      </trkpt>
      <trkpt lat="48.61973" lon="-3.83245">
        <ele>31.6</ele>
        <time>2020-08-16T12:32:12Z</time>
      </trkpt>
      <trkpt lat="48.61962" lon="-3.83221">
        <ele>32.4</ele>
        <time>2020-08-16T12:32:20Z</time>
      </trkpt>
      <trkpt lat="48.61957" lon="-3.83208">
        <ele>32.3</ele>
        <time>2020-08-16T12:32:25Z</time>
      </trkpt>
      <trkpt lat="48.61949" lon="-3.83188">
        <ele>32.2</ele>
        <time>2020-08-16T12:32:31Z</time>
      </trkpt>
      <trkpt lat="48.61936" lon="-3.83154">
        <ele>29.9</ele>
        <time>2020-08-16T12:32:41Z</time>
      </trkpt>
      <trkpt lat="48.61926" lon="-3.8313">
        <ele>28.9</ele>
        <time>2020-08-16T12:32:49Z</time>
      </trkpt>
      <trkpt lat="48.61916" lon="-3.83107">
        <ele>33.6</ele>
        <time>2020-08-16T12:32:57Z</time>
      </trkpt>
      <trkpt lat="48.61909" lon="-3.83089">
        <ele>31.1</ele>
        <time>2020-08-16T12:33:04Z</time>
      </trkpt>
      <trkpt lat="48.61902" lon="-3.8307">
        <ele>31.6</ele>
        <time>2020-08-16T12:33:11Z</time>
      </trkpt>
      <trkpt lat="48.61895" lon="-3.83055">
        <ele>32.8</ele>
        <time>2020-08-16T12:33:17Z</time>
      </trkpt>
      <trkpt lat="48.61884" lon="-3.83027">
        <ele>33.4</ele>
        <time>2020-08-16T12:33:28Z</time>
      </trkpt>
      <trkpt lat="48.61875" lon="-3.83004">
        <ele>34.1</ele>
        <time>2020-08-16T12:33:36Z</time>
      </trkpt>
      <trkpt lat="48.61864" lon="-3.82979">
        <ele>33.1</ele>
        <time>2020-08-16T12:33:46Z</time>
      </trkpt>
      <trkpt lat="48.61856" lon="-3.82951">
        <ele>32.4</ele>
        <time>2020-08-16T12:33:54Z</time>
      </trkpt>
      <trkpt lat="48.61854" lon="-3.82943">
        <ele>32.3</ele>
        <time>2020-08-16T12:33:57Z</time>
      </trkpt>
      <trkpt lat="48.61846" lon="-3.82939">
        <ele>32.5</ele>
        <time>2020-08-16T12:34:03Z</time>
      </trkpt>
      <trkpt lat="48.61838" lon="-3.82928">
        <ele>32.6</ele>
        <time>2020-08-16T12:34:09Z</time>
      </trkpt>
      <trkpt lat="48.61822" lon="-3.82908">
        <ele>34.4</ele>
        <time>2020-08-16T12:34:20Z</time>
      </trkpt>
      <trkpt lat="48.61811" lon="-3.82897">
        <ele>35.4</ele>
        <time>2020-08-16T12:34:28Z</time>
      </trkpt>
      <trkpt lat="48.61796" lon="-3.82887">
        <ele>36.3</ele>
        <time>2020-08-16T12:34:38Z</time>
      </trkpt>
      <trkpt lat="48.61784" lon="-3.82879">
        <ele>36.9</ele>
        <time>2020-08-16T12:34:46Z</time>
      </trkpt>
      <trkpt lat="48.61774" lon="-3.82873">
        <ele>37.5</ele>
        <time>2020-08-16T12:34:53Z</time>
      </trkpt>
      <trkpt lat="48.61762" lon="-3.82871">
        <ele>38.2</ele>
        <time>2020-08-16T12:35:01Z</time>
      </trkpt>
      <trkpt lat="48.61748" lon="-3.82871">
        <ele>44.4</ele>
        <time>2020-08-16T12:35:11Z</time>
      </trkpt>
      <trkpt lat="48.61736" lon="-3.82871">
        <ele>44.7</ele>
        <time>2020-08-16T12:35:19Z</time>
      </trkpt>
      <trkpt lat="48.61724" lon="-3.82872">
        <ele>45.2</ele>
        <time>2020-08-16T12:35:28Z</time>
      </trkpt>
      <trkpt lat="48.61716" lon="-3.82872">
        <ele>45.6</ele>
        <time>2020-08-16T12:35:33Z</time>
      </trkpt>
      <trkpt lat="48.61703" lon="-3.82873">
        <ele>46.3</ele>
        <time>2020-08-16T12:35:41Z</time>
      </trkpt>
      <trkpt lat="48.61693" lon="-3.82873">
        <ele>46.8</ele>
        <time>2020-08-16T12:35:48Z</time>
      </trkpt>
      <trkpt lat="48.61682" lon="-3.82874">
        <ele>47.3</ele>
        <time>2020-08-16T12:35:56Z</time>
      </trkpt>
      <trkpt lat="48.61671" lon="-3.82874">
        <ele>47.6</ele>
        <time>2020-08-16T12:36:03Z</time>
      </trkpt>
      <trkpt lat="48.61668" lon="-3.82874">
        <ele>47.7</ele>
        <time>2020-08-16T12:36:05Z</time>
      </trkpt>
      <trkpt lat="48.61657" lon="-3.82875">
        <ele>51.3</ele>
        <time>2020-08-16T12:36:13Z</time>
      </trkpt>
      <trkpt lat="48.6165" lon="-3.82876">
        <ele>51.4</ele>
        <time>2020-08-16T12:36:18Z</time>
      </trkpt>
      <trkpt lat="48.61639" lon="-3.82876">
        <ele>51.5</ele>
        <time>2020-08-16T12:36:25Z</time>
      </trkpt>
      <trkpt lat="48.6163" lon="-3.82877">
        <ele>51.7</ele>
        <time>2020-08-16T12:36:32Z</time>
      </trkpt>
      <trkpt lat="48.61616" lon="-3.82878">
        <ele>51.9</ele>
        <time>2020-08-16T12:36:41Z</time>
      </trkpt>
      <trkpt lat="48.61604" lon="-3.82879">
        <ele>52</ele>
        <time>2020-08-16T12:36:49Z</time>
      </trkpt>
      <trkpt lat="48.6159" lon="-3.8288">
        <ele>52.2</ele>
        <time>2020-08-16T12:36:58Z</time>
      </trkpt>
      <trkpt lat="48.61578" lon="-3.82881">
        <ele>53.3</ele>
        <time>2020-08-16T12:37:06Z</time>
      </trkpt>
      <trkpt lat="48.61565" lon="-3.82884">
        <ele>53.4</ele>
        <time>2020-08-16T12:37:15Z</time>
      </trkpt>
      <trkpt lat="48.61546" lon="-3.82891">
        <ele>53.5</ele>
        <time>2020-08-16T12:37:27Z</time>
      </trkpt>
      <trkpt lat="48.61533" lon="-3.82897">
        <ele>53.7</ele>
        <time>2020-08-16T12:37:35Z</time>
      </trkpt>
      <trkpt lat="48.61513" lon="-3.82908">
        <ele>54.3</ele>
        <time>2020-08-16T12:37:48Z</time>
      </trkpt>
      <trkpt lat="48.61499" lon="-3.82919">
        <ele>55.3</ele>
        <time>2020-08-16T12:37:58Z</time>
      </trkpt>
      <trkpt lat="48.61483" lon="-3.82932">
        <ele>56.7</ele>
        <time>2020-08-16T12:38:08Z</time>
      </trkpt>
      <trkpt lat="48.61469" lon="-3.82945">
        <ele>57.4</ele>
        <time>2020-08-16T12:38:17Z</time>
      </trkpt>
      <trkpt lat="48.61459" lon="-3.82954">
        <ele>57.7</ele>
        <time>2020-08-16T12:38:24Z</time>
      </trkpt>
      <trkpt lat="48.61446" lon="-3.82965">
        <ele>58</ele>
        <time>2020-08-16T12:38:32Z</time>
      </trkpt>
      <trkpt lat="48.61431" lon="-3.82977">
        <ele>58.5</ele>
        <time>2020-08-16T12:38:40Z</time>
      </trkpt>
      <trkpt lat="48.61407" lon="-3.82993">
        <ele>59.8</ele>
        <time>2020-08-16T12:38:52Z</time>
      </trkpt>
      <trkpt lat="48.61385" lon="-3.83001">
        <ele>61</ele>
        <time>2020-08-16T12:39:01Z</time>
      </trkpt>
      <trkpt lat="48.61366" lon="-3.83006">
        <ele>61.2</ele>
        <time>2020-08-16T12:39:08Z</time>
      </trkpt>
      <trkpt lat="48.61334" lon="-3.83009">
        <ele>61.2</ele>
        <time>2020-08-16T12:39:19Z</time>
      </trkpt>
      <trkpt lat="48.61311" lon="-3.83002">
        <ele>62.5</ele>
        <time>2020-08-16T12:39:27Z</time>
      </trkpt>
      <trkpt lat="48.61279" lon="-3.82992">
        <ele>62.2</ele>
        <time>2020-08-16T12:39:39Z</time>
      </trkpt>
      <trkpt lat="48.61265" lon="-3.82992">
        <ele>62.8</ele>
        <time>2020-08-16T12:39:45Z</time>
      </trkpt>
      <trkpt lat="48.61241" lon="-3.82991">
        <ele>64</ele>
        <time>2020-08-16T12:39:54Z</time>
      </trkpt>
      <trkpt lat="48.61212" lon="-3.8299">
        <ele>64.3</ele>
        <time>2020-08-16T12:40:05Z</time>
      </trkpt>
      <trkpt lat="48.61189" lon="-3.82991">
        <ele>64.8</ele>
        <time>2020-08-16T12:40:13Z</time>
      </trkpt>
      <trkpt lat="48.61173" lon="-3.82997">
        <ele>65.5</ele>
        <time>2020-08-16T12:40:19Z</time>
      </trkpt>
      <trkpt lat="48.61164" lon="-3.83006">
        <ele>66.3</ele>
        <time>2020-08-16T12:40:25Z</time>
      </trkpt>
      <trkpt lat="48.61164" lon="-3.83007">
        <ele>66.4</ele>
        <time>2020-08-16T12:40:30Z</time>
      </trkpt>
      <trkpt lat="48.61164" lon="-3.83007">
        <ele>66.4</ele>
        <time>2020-08-16T12:40:31Z</time>
      </trkpt>
      <trkpt lat="48.61137" lon="-3.83017">
        <ele>67.1</ele>
        <time>2020-08-16T12:40:38Z</time>
      </trkpt>
      <trkpt lat="48.61123" lon="-3.83028">
        <ele>67.4</ele>
        <time>2020-08-16T12:40:45Z</time>
      </trkpt>
      <trkpt lat="48.61107" lon="-3.83035">
        <ele>67.5</ele>
        <time>2020-08-16T12:40:52Z</time>
      </trkpt>
      <trkpt lat="48.611" lon="-3.83035">
        <ele>67.5</ele>
        <time>2020-08-16T12:40:57Z</time>
      </trkpt>
      <trkpt lat="48.611" lon="-3.83035">
        <ele>67.5</ele>
        <time>2020-08-16T12:40:58Z</time>
      </trkpt>
      <trkpt lat="48.611" lon="-3.83035">
        <ele>67.5</ele>
        <time>2020-08-16T12:41:06Z</time>
      </trkpt>
      <trkpt lat="48.61092" lon="-3.83035">
        <ele>67.6</ele>
        <time>2020-08-16T12:41:33Z</time>
      </trkpt>
      <trkpt lat="48.61071" lon="-3.83031">
        <ele>67.7</ele>
        <time>2020-08-16T12:41:39Z</time>
      </trkpt>
      <trkpt lat="48.61041" lon="-3.83025">
        <ele>67.6</ele>
        <time>2020-08-16T12:41:47Z</time>
      </trkpt>
      <trkpt lat="48.61017" lon="-3.83018">
        <ele>67.5</ele>
        <time>2020-08-16T12:41:53Z</time>
      </trkpt>
      <trkpt lat="48.61009" lon="-3.83016">
        <ele>67.4</ele>
        <time>2020-08-16T12:41:55Z</time>
      </trkpt>
      <trkpt lat="48.60992" lon="-3.83011">
        <ele>67.1</ele>
        <time>2020-08-16T12:41:59Z</time>
      </trkpt>
      <trkpt lat="48.60968" lon="-3.83005">
        <ele>67</ele>
        <time>2020-08-16T12:42:05Z</time>
      </trkpt>
      <trkpt lat="48.60959" lon="-3.83006">
        <ele>67</ele>
        <time>2020-08-16T12:42:07Z</time>
      </trkpt>
      <trkpt lat="48.60928" lon="-3.8302">
        <ele>66.8</ele>
        <time>2020-08-16T12:42:15Z</time>
      </trkpt>
      <trkpt lat="48.60903" lon="-3.83035">
        <ele>66.9</ele>
        <time>2020-08-16T12:42:23Z</time>
      </trkpt>
      <trkpt lat="48.60881" lon="-3.83047">
        <ele>67.1</ele>
        <time>2020-08-16T12:42:30Z</time>
      </trkpt>
      <trkpt lat="48.60852" lon="-3.83052">
        <ele>67.2</ele>
        <time>2020-08-16T12:42:38Z</time>
      </trkpt>
      <trkpt lat="48.60808" lon="-3.83045">
        <ele>67.9</ele>
        <time>2020-08-16T12:42:49Z</time>
      </trkpt>
      <trkpt lat="48.60795" lon="-3.83046">
        <ele>68</ele>
        <time>2020-08-16T12:42:52Z</time>
      </trkpt>
      <trkpt lat="48.60755" lon="-3.83074">
        <ele>69.3</ele>
        <time>2020-08-16T12:43:03Z</time>
      </trkpt>
      <trkpt lat="48.60726" lon="-3.83114">
        <ele>69.8</ele>
        <time>2020-08-16T12:43:13Z</time>
      </trkpt>
      <trkpt lat="48.60702" lon="-3.83149">
        <ele>69.8</ele>
        <time>2020-08-16T12:43:21Z</time>
      </trkpt>
      <trkpt lat="48.60674" lon="-3.83192">
        <ele>70.1</ele>
        <time>2020-08-16T12:43:30Z</time>
      </trkpt>
      <trkpt lat="48.6065" lon="-3.83224">
        <ele>69.2</ele>
        <time>2020-08-16T12:43:38Z</time>
      </trkpt>
      <trkpt lat="48.60628" lon="-3.83256">
        <ele>69.8</ele>
        <time>2020-08-16T12:43:46Z</time>
      </trkpt>
      <trkpt lat="48.606" lon="-3.83289">
        <ele>69.8</ele>
        <time>2020-08-16T12:43:55Z</time>
      </trkpt>
      <trkpt lat="48.60597" lon="-3.83293">
        <ele>69.9</ele>
        <time>2020-08-16T12:44:02Z</time>
      </trkpt>
      <trkpt lat="48.60561" lon="-3.83347">
        <ele>69.5</ele>
        <time>2020-08-16T12:44:10Z</time>
      </trkpt>
      <trkpt lat="48.60557" lon="-3.83354">
        <ele>69.4</ele>
        <time>2020-08-16T12:44:16Z</time>
      </trkpt>
      <trkpt lat="48.60557" lon="-3.83354">
        <ele>69.4</ele>
        <time>2020-08-16T12:44:22Z</time>
      </trkpt>
      <trkpt lat="48.60527" lon="-3.83372">
        <ele>69</ele>
        <time>2020-08-16T12:44:28Z</time>
      </trkpt>
      <trkpt lat="48.60527" lon="-3.83372">
        <ele>69</ele>
        <time>2020-08-16T12:44:34Z</time>
      </trkpt>
      <trkpt lat="48.6051" lon="-3.83414">
        <ele>68.4</ele>
        <time>2020-08-16T12:44:38Z</time>
      </trkpt>
      <trkpt lat="48.60481" lon="-3.83418">
        <ele>67.7</ele>
        <time>2020-08-16T12:44:44Z</time>
      </trkpt>
      <trkpt lat="48.60469" lon="-3.83418">
        <ele>67.5</ele>
        <time>2020-08-16T12:44:46Z</time>
      </trkpt>
      <trkpt lat="48.60438" lon="-3.83406">
        <ele>66.3</ele>
        <time>2020-08-16T12:44:51Z</time>
      </trkpt>
      <trkpt lat="48.60424" lon="-3.83385">
        <ele>66.1</ele>
        <time>2020-08-16T12:44:54Z</time>
      </trkpt>
      <trkpt lat="48.60387" lon="-3.83363">
        <ele>64</ele>
        <time>2020-08-16T12:45:00Z</time>
      </trkpt>
      <trkpt lat="48.6036" lon="-3.83349">
        <ele>63.4</ele>
        <time>2020-08-16T12:45:04Z</time>
      </trkpt>
      <trkpt lat="48.6031" lon="-3.83343">
        <ele>60.8</ele>
        <time>2020-08-16T12:45:11Z</time>
      </trkpt>
      <trkpt lat="48.60264" lon="-3.83337">
        <ele>58.4</ele>
        <time>2020-08-16T12:45:17Z</time>
      </trkpt>
      <trkpt lat="48.60219" lon="-3.83333">
        <ele>54.8</ele>
        <time>2020-08-16T12:45:22Z</time>
      </trkpt>
      <trkpt lat="48.60159" lon="-3.83323">
        <ele>51.6</ele>
        <time>2020-08-16T12:45:28Z</time>
      </trkpt>
      <trkpt lat="48.60128" lon="-3.83317">
        <ele>51.2</ele>
        <time>2020-08-16T12:45:31Z</time>
      </trkpt>
      <trkpt lat="48.60069" lon="-3.8331">
        <ele>48.1</ele>
        <time>2020-08-16T12:45:37Z</time>
      </trkpt>
      <trkpt lat="48.6005" lon="-3.83307">
        <ele>47.1</ele>
        <time>2020-08-16T12:45:39Z</time>
      </trkpt>
      <trkpt lat="48.60003" lon="-3.83292">
        <ele>45.5</ele>
        <time>2020-08-16T12:45:44Z</time>
      </trkpt>
      <trkpt lat="48.59956" lon="-3.83267">
        <ele>42.2</ele>
        <time>2020-08-16T12:45:49Z</time>
      </trkpt>
      <trkpt lat="48.59939" lon="-3.83255">
        <ele>41.8</ele>
        <time>2020-08-16T12:45:51Z</time>
      </trkpt>
      <trkpt lat="48.59913" lon="-3.83236">
        <ele>41.9</ele>
        <time>2020-08-16T12:45:55Z</time>
      </trkpt>
      <trkpt lat="48.59904" lon="-3.83246">
        <ele>41.8</ele>
        <time>2020-08-16T12:45:56Z</time>
      </trkpt>
      <trkpt lat="48.59887" lon="-3.83276">
        <ele>41.4</ele>
        <time>2020-08-16T12:46:01Z</time>
      </trkpt>
      <trkpt lat="48.59883" lon="-3.8329">
        <ele>41.4</ele>
        <time>2020-08-16T12:46:06Z</time>
      </trkpt>
      <trkpt lat="48.59878" lon="-3.83312">
        <ele>41.3</ele>
        <time>2020-08-16T12:46:13Z</time>
      </trkpt>
      <trkpt lat="48.59874" lon="-3.8334">
        <ele>39.1</ele>
        <time>2020-08-16T12:46:19Z</time>
      </trkpt>
      <trkpt lat="48.59869" lon="-3.83372">
        <ele>38.2</ele>
        <time>2020-08-16T12:46:24Z</time>
      </trkpt>
      <trkpt lat="48.59864" lon="-3.83421">
        <ele>34.6</ele>
        <time>2020-08-16T12:46:30Z</time>
      </trkpt>
      <trkpt lat="48.59863" lon="-3.8343">
        <ele>34.5</ele>
        <time>2020-08-16T12:46:31Z</time>
      </trkpt>
      <trkpt lat="48.59851" lon="-3.83478">
        <ele>33.9</ele>
        <time>2020-08-16T12:46:36Z</time>
      </trkpt>
      <trkpt lat="48.5984" lon="-3.83495">
        <ele>33.9</ele>
        <time>2020-08-16T12:46:38Z</time>
      </trkpt>
      <trkpt lat="48.59796" lon="-3.83521">
        <ele>34.3</ele>
        <time>2020-08-16T12:46:44Z</time>
      </trkpt>
      <trkpt lat="48.59775" lon="-3.83544">
        <ele>34.7</ele>
        <time>2020-08-16T12:46:48Z</time>
      </trkpt>
      <trkpt lat="48.59767" lon="-3.83557">
        <ele>35</ele>
        <time>2020-08-16T12:46:50Z</time>
      </trkpt>
      <trkpt lat="48.59752" lon="-3.83597">
        <ele>35.3</ele>
        <time>2020-08-16T12:46:56Z</time>
      </trkpt>
      <trkpt lat="48.5974" lon="-3.83635">
        <ele>38</ele>
        <time>2020-08-16T12:47:04Z</time>
      </trkpt>
      <trkpt lat="48.59732" lon="-3.83659">
        <ele>37.7</ele>
        <time>2020-08-16T12:47:11Z</time>
      </trkpt>
      <trkpt lat="48.59723" lon="-3.83679">
        <ele>36.4</ele>
        <time>2020-08-16T12:47:18Z</time>
      </trkpt>
      <trkpt lat="48.59716" lon="-3.83698">
        <ele>36.2</ele>
        <time>2020-08-16T12:47:26Z</time>
      </trkpt>
      <trkpt lat="48.59711" lon="-3.83713">
        <ele>36</ele>
        <time>2020-08-16T12:47:32Z</time>
      </trkpt>
      <trkpt lat="48.59705" lon="-3.83728">
        <ele>36</ele>
        <time>2020-08-16T12:47:38Z</time>
      </trkpt>
      <trkpt lat="48.59695" lon="-3.83747">
        <ele>36.5</ele>
        <time>2020-08-16T12:47:44Z</time>
      </trkpt>
      <trkpt lat="48.59678" lon="-3.83767">
        <ele>34.2</ele>
        <time>2020-08-16T12:47:50Z</time>
      </trkpt>
      <trkpt lat="48.59672" lon="-3.83773">
        <ele>33.8</ele>
        <time>2020-08-16T12:47:52Z</time>
      </trkpt>
      <trkpt lat="48.59653" lon="-3.83787">
        <ele>33.8</ele>
        <time>2020-08-16T12:47:57Z</time>
      </trkpt>
      <trkpt lat="48.59637" lon="-3.83797">
        <ele>32.9</ele>
        <time>2020-08-16T12:48:01Z</time>
      </trkpt>
      <trkpt lat="48.59617" lon="-3.83808">
        <ele>31.8</ele>
        <time>2020-08-16T12:48:05Z</time>
      </trkpt>
      <trkpt lat="48.59561" lon="-3.83814">
        <ele>27.2</ele>
        <time>2020-08-16T12:48:12Z</time>
      </trkpt>
      <trkpt lat="48.59504" lon="-3.83816">
        <ele>24.3</ele>
        <time>2020-08-16T12:48:18Z</time>
      </trkpt>
      <trkpt lat="48.59495" lon="-3.83816">
        <ele>22.7</ele>
        <time>2020-08-16T12:48:19Z</time>
      </trkpt>
      <trkpt lat="48.59487" lon="-3.83817">
        <ele>22.7</ele>
        <time>2020-08-16T12:48:23Z</time>
      </trkpt>
      <trkpt lat="48.59406" lon="-3.83797">
        <ele>20.4</ele>
        <time>2020-08-16T12:48:29Z</time>
      </trkpt>
      <trkpt lat="48.59357" lon="-3.8378">
        <ele>20</ele>
        <time>2020-08-16T12:48:34Z</time>
      </trkpt>
      <trkpt lat="48.59318" lon="-3.83768">
        <ele>18.9</ele>
        <time>2020-08-16T12:48:38Z</time>
      </trkpt>
      <trkpt lat="48.59289" lon="-3.83771">
        <ele>18</ele>
        <time>2020-08-16T12:48:41Z</time>
      </trkpt>
      <trkpt lat="48.59248" lon="-3.83779">
        <ele>17.7</ele>
        <time>2020-08-16T12:48:46Z</time>
      </trkpt>
      <trkpt lat="48.59207" lon="-3.838">
        <ele>14.9</ele>
        <time>2020-08-16T12:48:52Z</time>
      </trkpt>
      <trkpt lat="48.59194" lon="-3.83807">
        <ele>14</ele>
        <time>2020-08-16T12:48:54Z</time>
      </trkpt>
      <trkpt lat="48.59165" lon="-3.83825">
        <ele>10.5</ele>
        <time>2020-08-16T12:48:59Z</time>
      </trkpt>
      <trkpt lat="48.59143" lon="-3.83834">
        <ele>8.5</ele>
        <time>2020-08-16T12:49:04Z</time>
      </trkpt>
      <trkpt lat="48.59097" lon="-3.83842">
        <ele>12.5</ele>
        <time>2020-08-16T12:49:12Z</time>
      </trkpt>
      <trkpt lat="48.59071" lon="-3.83846">
        <ele>14.1</ele>
        <time>2020-08-16T12:49:18Z</time>
      </trkpt>
      <trkpt lat="48.5906" lon="-3.83852">
        <ele>13.5</ele>
        <time>2020-08-16T12:49:22Z</time>
      </trkpt>
      <trkpt lat="48.5906" lon="-3.83852">
        <ele>13.5</ele>
        <time>2020-08-16T12:49:24Z</time>
      </trkpt>
      <trkpt lat="48.59055" lon="-3.83857">
        <ele>13.2</ele>
        <time>2020-08-16T12:49:57Z</time>
      </trkpt>
      <trkpt lat="48.5905" lon="-3.83862">
        <ele>12.9</ele>
        <time>2020-08-16T12:50:04Z</time>
      </trkpt>
      <trkpt lat="48.59008" lon="-3.83838">
        <ele>13.6</ele>
        <time>2020-08-16T12:50:14Z</time>
      </trkpt>
      <trkpt lat="48.58982" lon="-3.83824">
        <ele>13.9</ele>
        <time>2020-08-16T12:50:22Z</time>
      </trkpt>
      <trkpt lat="48.58947" lon="-3.83806">
        <ele>12.9</ele>
        <time>2020-08-16T12:50:33Z</time>
      </trkpt>
      <trkpt lat="48.58927" lon="-3.83795">
        <ele>12.8</ele>
        <time>2020-08-16T12:50:40Z</time>
      </trkpt>
      <trkpt lat="48.58901" lon="-3.83781">
        <ele>10.1</ele>
        <time>2020-08-16T12:50:48Z</time>
      </trkpt>
      <trkpt lat="48.58868" lon="-3.83764">
        <ele>9.4</ele>
        <time>2020-08-16T12:50:58Z</time>
      </trkpt>
      <trkpt lat="48.58832" lon="-3.83744">
        <ele>9</ele>
        <time>2020-08-16T12:51:08Z</time>
      </trkpt>
      <trkpt lat="48.58797" lon="-3.83724">
        <ele>11.4</ele>
        <time>2020-08-16T12:51:18Z</time>
      </trkpt>
      <trkpt lat="48.58787" lon="-3.83715">
        <ele>11.7</ele>
        <time>2020-08-16T12:51:23Z</time>
      </trkpt>
      <trkpt lat="48.5878" lon="-3.83702">
        <ele>12.2</ele>
        <time>2020-08-16T12:51:29Z</time>
      </trkpt>
      <trkpt lat="48.5878" lon="-3.83702">
        <ele>12.2</ele>
        <time>2020-08-16T12:51:34Z</time>
      </trkpt>
      <trkpt lat="48.58733" lon="-3.83688">
        <ele>10.8</ele>
        <time>2020-08-16T12:51:43Z</time>
      </trkpt>
      <trkpt lat="48.58703" lon="-3.8367">
        <ele>10.2</ele>
        <time>2020-08-16T12:51:52Z</time>
      </trkpt>
      <trkpt lat="48.58671" lon="-3.83649">
        <ele>13.3</ele>
        <time>2020-08-16T12:52:02Z</time>
      </trkpt>
      <trkpt lat="48.58642" lon="-3.8363">
        <ele>11.9</ele>
        <time>2020-08-16T12:52:11Z</time>
      </trkpt>
      <trkpt lat="48.58606" lon="-3.83609">
        <ele>11.5</ele>
        <time>2020-08-16T12:52:22Z</time>
      </trkpt>
      <trkpt lat="48.58585" lon="-3.83588">
        <ele>10.4</ele>
        <time>2020-08-16T12:52:29Z</time>
      </trkpt>
      <trkpt lat="48.58554" lon="-3.83547">
        <ele>10.6</ele>
        <time>2020-08-16T12:52:40Z</time>
      </trkpt>
      <trkpt lat="48.58527" lon="-3.83513">
        <ele>10.3</ele>
        <time>2020-08-16T12:52:49Z</time>
      </trkpt>
      <trkpt lat="48.58505" lon="-3.83483">
        <ele>13.8</ele>
        <time>2020-08-16T12:52:57Z</time>
      </trkpt>
      <trkpt lat="48.58476" lon="-3.83443">
        <ele>12.1</ele>
        <time>2020-08-16T12:53:07Z</time>
      </trkpt>
      <trkpt lat="48.58452" lon="-3.83415">
        <ele>16.2</ele>
        <time>2020-08-16T12:53:14Z</time>
      </trkpt>
      <trkpt lat="48.58436" lon="-3.83402">
        <ele>14.7</ele>
        <time>2020-08-16T12:53:18Z</time>
      </trkpt>
      <trkpt lat="48.584" lon="-3.83391">
        <ele>10.9</ele>
        <time>2020-08-16T12:53:26Z</time>
      </trkpt>
      <trkpt lat="48.58382" lon="-3.83385">
        <ele>11.3</ele>
        <time>2020-08-16T12:53:33Z</time>
      </trkpt>
      <trkpt lat="48.58332" lon="-3.83346">
        <ele>11.1</ele>
        <time>2020-08-16T12:53:43Z</time>
      </trkpt>
      <trkpt lat="48.58298" lon="-3.83318">
        <ele>13.5</ele>
        <time>2020-08-16T12:53:52Z</time>
      </trkpt>
      <trkpt lat="48.58259" lon="-3.83285">
        <ele>13.8</ele>
        <time>2020-08-16T12:54:03Z</time>
      </trkpt>
      <trkpt lat="48.5823" lon="-3.83261">
        <ele>12.4</ele>
        <time>2020-08-16T12:54:12Z</time>
      </trkpt>
      <trkpt lat="48.58196" lon="-3.83229">
        <ele>11.7</ele>
        <time>2020-08-16T12:54:24Z</time>
      </trkpt>
      <trkpt lat="48.58191" lon="-3.83222">
        <ele>11.7</ele>
        <time>2020-08-16T12:54:32Z</time>
      </trkpt>
      <trkpt lat="48.58164" lon="-3.83202">
        <ele>13.8</ele>
        <time>2020-08-16T12:54:36Z</time>
      </trkpt>
      <trkpt lat="48.58157" lon="-3.83202">
        <ele>14.1</ele>
        <time>2020-08-16T12:54:42Z</time>
      </trkpt>
      <trkpt lat="48.58133" lon="-3.83205">
        <ele>15.6</ele>
        <time>2020-08-16T12:54:47Z</time>
      </trkpt>
      <trkpt lat="48.58129" lon="-3.83178">
        <ele>15</ele>
        <time>2020-08-16T12:54:55Z</time>
      </trkpt>
      <trkpt lat="48.58095" lon="-3.83156">
        <ele>14.9</ele>
        <time>2020-08-16T12:55:04Z</time>
      </trkpt>
      <trkpt lat="48.58082" lon="-3.83138">
        <ele>19.8</ele>
        <time>2020-08-16T12:55:11Z</time>
      </trkpt>
      <trkpt lat="48.58067" lon="-3.83115">
        <ele>19.9</ele>
        <time>2020-08-16T12:55:20Z</time>
      </trkpt>
      <trkpt lat="48.58054" lon="-3.83095">
        <ele>19.6</ele>
        <time>2020-08-16T12:55:27Z</time>
      </trkpt>
      <trkpt lat="48.58039" lon="-3.83077">
        <ele>15.8</ele>
        <time>2020-08-16T12:55:34Z</time>
      </trkpt>
      <trkpt lat="48.58032" lon="-3.83069">
        <ele>16</ele>
        <time>2020-08-16T12:55:44Z</time>
      </trkpt>
      <trkpt lat="48.58005" lon="-3.83044">
        <ele>15.3</ele>
        <time>2020-08-16T12:55:51Z</time>
      </trkpt>
      <trkpt lat="48.58004" lon="-3.83043">
        <ele>15.3</ele>
        <time>2020-08-16T12:55:54Z</time>
      </trkpt>
      <trkpt lat="48.57996" lon="-3.83037">
        <ele>20.1</ele>
        <time>2020-08-16T12:56:02Z</time>
      </trkpt>
      <trkpt lat="48.57987" lon="-3.83033">
        <ele>20.1</ele>
        <time>2020-08-16T12:56:05Z</time>
      </trkpt>
      <trkpt lat="48.57976" lon="-3.83027">
        <ele>20.5</ele>
        <time>2020-08-16T12:56:09Z</time>
      </trkpt>
      <trkpt lat="48.57978" lon="-3.83028">
        <ele>20.4</ele>
        <time>2020-08-16T12:56:11Z</time>
      </trkpt>
      <trkpt lat="48.57974" lon="-3.83026">
        <ele>20.6</ele>
        <time>2020-08-16T12:56:15Z</time>
      </trkpt>
      <trkpt lat="48.57974" lon="-3.83026">
        <ele>20.6</ele>
        <time>2020-08-16T12:56:38Z</time>
      </trkpt>
      <trkpt lat="48.57974" lon="-3.83026">
        <ele>20.6</ele>
        <time>2020-08-16T12:56:40Z</time>
      </trkpt>
      <trkpt lat="48.57714" lon="-3.82831">
        <ele>15.3</ele>
        <time>2020-08-16T13:14:44Z</time>
      </trkpt>
      <trkpt lat="48.57714" lon="-3.82831">
        <ele>15.3</ele>
        <time>2020-08-16T13:15:02Z</time>
      </trkpt>
      <trkpt lat="48.57714" lon="-3.82831">
        <ele>15.3</ele>
        <time>2020-08-16T13:15:03Z</time>
      </trkpt>
      <trkpt lat="48.57695" lon="-3.82802">
        <ele>16.1</ele>
        <time>2020-08-16T13:15:09Z</time>
      </trkpt>
      <trkpt lat="48.57694" lon="-3.82801">
        <ele>16.1</ele>
        <time>2020-08-16T13:15:13Z</time>
      </trkpt>
      <trkpt lat="48.57704" lon="-3.82769">
        <ele>16.5</ele>
        <time>2020-08-16T13:15:21Z</time>
      </trkpt>
      <trkpt lat="48.57705" lon="-3.82767">
        <ele>16.5</ele>
        <time>2020-08-16T13:15:22Z</time>
      </trkpt>
      <trkpt lat="48.5771" lon="-3.82759">
        <ele>16.4</ele>
        <time>2020-08-16T13:15:28Z</time>
      </trkpt>
      <trkpt lat="48.57718" lon="-3.82746">
        <ele>17.4</ele>
        <time>2020-08-16T13:15:34Z</time>
      </trkpt>
      <trkpt lat="48.5772" lon="-3.82743">
        <ele>17.3</ele>
        <time>2020-08-16T13:15:38Z</time>
      </trkpt>
      <trkpt lat="48.57726" lon="-3.82737">
        <ele>17.1</ele>
        <time>2020-08-16T13:15:44Z</time>
      </trkpt>
      <trkpt lat="48.5773" lon="-3.82731">
        <ele>17</ele>
        <time>2020-08-16T13:15:51Z</time>
      </trkpt>
      <trkpt lat="48.57724" lon="-3.82736">
        <ele>17.2</ele>
        <time>2020-08-16T13:15:55Z</time>
      </trkpt>
      <trkpt lat="48.57713" lon="-3.8272">
        <ele>17.8</ele>
        <time>2020-08-16T13:16:04Z</time>
      </trkpt>
      <trkpt lat="48.57707" lon="-3.82711">
        <ele>18</ele>
        <time>2020-08-16T13:16:12Z</time>
      </trkpt>
      <trkpt lat="48.57698" lon="-3.82698">
        <ele>18.4</ele>
        <time>2020-08-16T13:16:21Z</time>
      </trkpt>
      <trkpt lat="48.57697" lon="-3.82696">
        <ele>18.4</ele>
        <time>2020-08-16T13:16:22Z</time>
      </trkpt>
      <trkpt lat="48.57688" lon="-3.8268">
        <ele>19</ele>
        <time>2020-08-16T13:16:30Z</time>
      </trkpt>
      <trkpt lat="48.57679" lon="-3.82663">
        <ele>19.8</ele>
        <time>2020-08-16T13:16:38Z</time>
      </trkpt>
      <trkpt lat="48.57668" lon="-3.82643">
        <ele>19.3</ele>
        <time>2020-08-16T13:16:48Z</time>
      </trkpt>
      <trkpt lat="48.57661" lon="-3.82631">
        <ele>22.4</ele>
        <time>2020-08-16T13:16:55Z</time>
      </trkpt>
      <trkpt lat="48.57659" lon="-3.82628">
        <ele>22.4</ele>
        <time>2020-08-16T13:17:02Z</time>
      </trkpt>
      <trkpt lat="48.57659" lon="-3.82628">
        <ele>22.4</ele>
        <time>2020-08-16T13:17:10Z</time>
      </trkpt>
      <trkpt lat="48.57645" lon="-3.82569">
        <ele>19.6</ele>
        <time>2020-08-16T13:17:19Z</time>
      </trkpt>
      <trkpt lat="48.57633" lon="-3.82551">
        <ele>20.1</ele>
        <time>2020-08-16T13:17:29Z</time>
      </trkpt>
      <trkpt lat="48.57626" lon="-3.82542">
        <ele>20.2</ele>
        <time>2020-08-16T13:17:34Z</time>
      </trkpt>
      <trkpt lat="48.57607" lon="-3.82563">
        <ele>21.5</ele>
        <time>2020-08-16T13:17:40Z</time>
      </trkpt>
      <trkpt lat="48.57619" lon="-3.82579">
        <ele>21.1</ele>
        <time>2020-08-16T13:17:46Z</time>
      </trkpt>
      <trkpt lat="48.57624" lon="-3.82587">
        <ele>23</ele>
        <time>2020-08-16T13:17:50Z</time>
      </trkpt>
      <trkpt lat="48.57627" lon="-3.82591">
        <ele>22.9</ele>
        <time>2020-08-16T13:17:52Z</time>
      </trkpt>
      <trkpt lat="48.57635" lon="-3.82602">
        <ele>22.6</ele>
        <time>2020-08-16T13:17:59Z</time>
      </trkpt>
      <trkpt lat="48.57636" lon="-3.82604">
        <ele>22.6</ele>
        <time>2020-08-16T13:18:02Z</time>
      </trkpt>
      <trkpt lat="48.5764" lon="-3.82609">
        <ele>22.5</ele>
        <time>2020-08-16T13:18:55Z</time>
      </trkpt>
      <trkpt lat="48.57649" lon="-3.82622">
        <ele>22.5</ele>
        <time>2020-08-16T13:19:03Z</time>
      </trkpt>
      <trkpt lat="48.57649" lon="-3.82622">
        <ele>22.5</ele>
        <time>2020-08-16T13:19:04Z</time>
      </trkpt>
      <trkpt lat="48.57639" lon="-3.82652">
        <ele>23.4</ele>
        <time>2020-08-16T13:19:49Z</time>
      </trkpt>
      <trkpt lat="48.57639" lon="-3.82652">
        <ele>23.4</ele>
        <time>2020-08-16T13:19:51Z</time>
      </trkpt>
      <trkpt lat="48.57639" lon="-3.82652">
        <ele>23.4</ele>
        <time>2020-08-16T13:19:57Z</time>
      </trkpt>
      <trkpt lat="48.5762" lon="-3.82629">
        <ele>24.1</ele>
        <time>2020-08-16T13:20:03Z</time>
      </trkpt>
      <trkpt lat="48.57618" lon="-3.82626">
        <ele>24.1</ele>
        <time>2020-08-16T13:20:05Z</time>
      </trkpt>
      <trkpt lat="48.57608" lon="-3.82614">
        <ele>24.2</ele>
        <time>2020-08-16T13:20:13Z</time>
      </trkpt>
      <trkpt lat="48.57607" lon="-3.82613">
        <ele>24.3</ele>
        <time>2020-08-16T13:20:14Z</time>
      </trkpt>
      <trkpt lat="48.57602" lon="-3.82606">
        <ele>24.3</ele>
        <time>2020-08-16T13:20:20Z</time>
      </trkpt>
      <trkpt lat="48.57601" lon="-3.82605">
        <ele>24.3</ele>
        <time>2020-08-16T13:20:21Z</time>
      </trkpt>
      <trkpt lat="48.57596" lon="-3.82598">
        <ele>24.4</ele>
        <time>2020-08-16T13:20:26Z</time>
      </trkpt>
      <trkpt lat="48.57598" lon="-3.8258">
        <ele>22.8</ele>
        <time>2020-08-16T13:20:33Z</time>
      </trkpt>
      <trkpt lat="48.57603" lon="-3.82571">
        <ele>22.1</ele>
        <time>2020-08-16T13:20:38Z</time>
      </trkpt>
      <trkpt lat="48.57605" lon="-3.82568">
        <ele>21.8</ele>
        <time>2020-08-16T13:20:42Z</time>
      </trkpt>
      <trkpt lat="48.57602" lon="-3.82569">
        <ele>22</ele>
        <time>2020-08-16T13:20:58Z</time>
      </trkpt>
      <trkpt lat="48.57597" lon="-3.82576">
        <ele>22.8</ele>
        <time>2020-08-16T13:21:06Z</time>
      </trkpt>
      <trkpt lat="48.57594" lon="-3.82581">
        <ele>23.3</ele>
        <time>2020-08-16T13:21:14Z</time>
      </trkpt>
      <trkpt lat="48.57594" lon="-3.82581">
        <ele>23.3</ele>
        <time>2020-08-16T13:21:25Z</time>
      </trkpt>
      <trkpt lat="48.57594" lon="-3.82581">
        <ele>23.3</ele>
        <time>2020-08-16T13:21:30Z</time>
      </trkpt>
      <trkpt lat="48.57594" lon="-3.82581">
        <ele>23.3</ele>
        <time>2020-08-16T13:21:37Z</time>
      </trkpt>
      <trkpt lat="48.57594" lon="-3.82581">
        <ele>23.3</ele>
        <time>2020-08-16T13:21:40Z</time>
      </trkpt>
      <trkpt lat="48.57577" lon="-3.82606">
        <ele>31</ele>
        <time>2020-08-16T13:21:46Z</time>
      </trkpt>
      <trkpt lat="48.57571" lon="-3.82598">
        <ele>30.5</ele>
        <time>2020-08-16T13:21:56Z</time>
      </trkpt>
      <trkpt lat="48.57571" lon="-3.82598">
        <ele>30.5</ele>
        <time>2020-08-16T13:22:02Z</time>
      </trkpt>
      <trkpt lat="48.57571" lon="-3.82598">
        <ele>30.5</ele>
        <time>2020-08-16T13:22:05Z</time>
      </trkpt>
      <trkpt lat="48.57599" lon="-3.82579">
        <ele>22.7</ele>
        <time>2020-08-16T13:22:14Z</time>
      </trkpt>
      <trkpt lat="48.57596" lon="-3.82578">
        <ele>23</ele>
        <time>2020-08-16T13:22:49Z</time>
      </trkpt>
      <trkpt lat="48.57607" lon="-3.82562">
        <ele>21.5</ele>
        <time>2020-08-16T13:22:54Z</time>
      </trkpt>
      <trkpt lat="48.57607" lon="-3.82562">
        <ele>21.5</ele>
        <time>2020-08-16T13:22:59Z</time>
      </trkpt>
      <trkpt lat="48.57607" lon="-3.82562">
        <ele>21.5</ele>
        <time>2020-08-16T13:23:00Z</time>
      </trkpt>
      <trkpt lat="48.57621" lon="-3.82517">
        <ele>20.1</ele>
        <time>2020-08-16T13:23:07Z</time>
      </trkpt>
      <trkpt lat="48.57624" lon="-3.82507">
        <ele>19.9</ele>
        <time>2020-08-16T13:23:14Z</time>
      </trkpt>
      <trkpt lat="48.57629" lon="-3.82507">
        <ele>19.6</ele>
        <time>2020-08-16T13:23:20Z</time>
      </trkpt>
      <trkpt lat="48.57629" lon="-3.82507">
        <ele>19.6</ele>
        <time>2020-08-16T13:23:28Z</time>
      </trkpt>
      <trkpt lat="48.57654" lon="-3.82539">
        <ele>19.2</ele>
        <time>2020-08-16T13:23:36Z</time>
      </trkpt>
      <trkpt lat="48.57673" lon="-3.82561">
        <ele>18.2</ele>
        <time>2020-08-16T13:23:45Z</time>
      </trkpt>
      <trkpt lat="48.57679" lon="-3.82572">
        <ele>18.2</ele>
        <time>2020-08-16T13:23:51Z</time>
      </trkpt>
      <trkpt lat="48.57699" lon="-3.8256">
        <ele>18.5</ele>
        <time>2020-08-16T13:23:56Z</time>
      </trkpt>
      <trkpt lat="48.577" lon="-3.82559">
        <ele>18.5</ele>
        <time>2020-08-16T13:23:57Z</time>
      </trkpt>
      <trkpt lat="48.57707" lon="-3.82555">
        <ele>18.6</ele>
        <time>2020-08-16T13:24:03Z</time>
      </trkpt>
      <trkpt lat="48.57711" lon="-3.82548">
        <ele>18.7</ele>
        <time>2020-08-16T13:24:07Z</time>
      </trkpt>
      <trkpt lat="48.57698" lon="-3.82555">
        <ele>18.5</ele>
        <time>2020-08-16T13:24:11Z</time>
      </trkpt>
      <trkpt lat="48.57711" lon="-3.82552">
        <ele>18.7</ele>
        <time>2020-08-16T13:24:12Z</time>
      </trkpt>
      <trkpt lat="48.57717" lon="-3.82548">
        <ele>18.8</ele>
        <time>2020-08-16T13:24:19Z</time>
      </trkpt>
      <trkpt lat="48.57721" lon="-3.82546">
        <ele>18.9</ele>
        <time>2020-08-16T13:24:23Z</time>
      </trkpt>
      <trkpt lat="48.57721" lon="-3.82546">
        <ele>18.9</ele>
        <time>2020-08-16T13:24:29Z</time>
      </trkpt>
      <trkpt lat="48.57721" lon="-3.82546">
        <ele>18.9</ele>
        <time>2020-08-16T13:24:36Z</time>
      </trkpt>
      <trkpt lat="48.57721" lon="-3.82546">
        <ele>18.9</ele>
        <time>2020-08-16T13:24:43Z</time>
      </trkpt>
      <trkpt lat="48.57751" lon="-3.82591">
        <ele>20</ele>
        <time>2020-08-16T13:24:48Z</time>
      </trkpt>
      <trkpt lat="48.57752" lon="-3.8261">
        <ele>22.3</ele>
        <time>2020-08-16T13:24:55Z</time>
      </trkpt>
      <trkpt lat="48.57752" lon="-3.8262">
        <ele>22.5</ele>
        <time>2020-08-16T13:24:58Z</time>
      </trkpt>
      <trkpt lat="48.57747" lon="-3.82636">
        <ele>17.6</ele>
        <time>2020-08-16T13:25:03Z</time>
      </trkpt>
      <trkpt lat="48.57747" lon="-3.82638">
        <ele>17.5</ele>
        <time>2020-08-16T13:25:09Z</time>
      </trkpt>
      <trkpt lat="48.57747" lon="-3.82638">
        <ele>17.5</ele>
        <time>2020-08-16T13:25:13Z</time>
      </trkpt>
      <trkpt lat="48.57743" lon="-3.82671">
        <ele>16.6</ele>
        <time>2020-08-16T13:25:20Z</time>
      </trkpt>
      <trkpt lat="48.57754" lon="-3.82695">
        <ele>18.4</ele>
        <time>2020-08-16T13:25:28Z</time>
      </trkpt>
      <trkpt lat="48.57749" lon="-3.82714">
        <ele>17</ele>
        <time>2020-08-16T13:25:32Z</time>
      </trkpt>
      <trkpt lat="48.57762" lon="-3.82705">
        <ele>18.7</ele>
        <time>2020-08-16T13:25:36Z</time>
      </trkpt>
      <trkpt lat="48.57768" lon="-3.82713">
        <ele>18.7</ele>
        <time>2020-08-16T13:25:41Z</time>
      </trkpt>
      <trkpt lat="48.57774" lon="-3.82721">
        <ele>18.7</ele>
        <time>2020-08-16T13:25:45Z</time>
      </trkpt>
      <trkpt lat="48.57779" lon="-3.82726">
        <ele>18.7</ele>
        <time>2020-08-16T13:25:48Z</time>
      </trkpt>
      <trkpt lat="48.5779" lon="-3.82737">
        <ele>18.9</ele>
        <time>2020-08-16T13:25:56Z</time>
      </trkpt>
      <trkpt lat="48.57792" lon="-3.82739">
        <ele>18.9</ele>
        <time>2020-08-16T13:25:57Z</time>
      </trkpt>
      <trkpt lat="48.57799" lon="-3.82747">
        <ele>18.9</ele>
        <time>2020-08-16T13:26:03Z</time>
      </trkpt>
      <trkpt lat="48.57806" lon="-3.82753">
        <ele>15.5</ele>
        <time>2020-08-16T13:26:08Z</time>
      </trkpt>
      <trkpt lat="48.57815" lon="-3.8276">
        <ele>15.8</ele>
        <time>2020-08-16T13:26:14Z</time>
      </trkpt>
      <trkpt lat="48.57822" lon="-3.82764">
        <ele>16</ele>
        <time>2020-08-16T13:26:18Z</time>
      </trkpt>
      <trkpt lat="48.57825" lon="-3.82766">
        <ele>15.9</ele>
        <time>2020-08-16T13:26:20Z</time>
      </trkpt>
      <trkpt lat="48.57828" lon="-3.82768">
        <ele>15.9</ele>
        <time>2020-08-16T13:26:22Z</time>
      </trkpt>
      <trkpt lat="48.57837" lon="-3.82774">
        <ele>19.4</ele>
        <time>2020-08-16T13:26:29Z</time>
      </trkpt>
      <trkpt lat="48.57851" lon="-3.82782">
        <ele>19.9</ele>
        <time>2020-08-16T13:26:38Z</time>
      </trkpt>
      <trkpt lat="48.57859" lon="-3.82787">
        <ele>20.2</ele>
        <time>2020-08-16T13:26:45Z</time>
      </trkpt>
      <trkpt lat="48.57862" lon="-3.82788">
        <ele>20.4</ele>
        <time>2020-08-16T13:26:47Z</time>
      </trkpt>
      <trkpt lat="48.57871" lon="-3.82793">
        <ele>20.9</ele>
        <time>2020-08-16T13:26:54Z</time>
      </trkpt>
      <trkpt lat="48.57877" lon="-3.82797">
        <ele>21.2</ele>
        <time>2020-08-16T13:27:00Z</time>
      </trkpt>
      <trkpt lat="48.57877" lon="-3.82797">
        <ele>21.2</ele>
        <time>2020-08-16T13:27:01Z</time>
      </trkpt>
      <trkpt lat="48.57878" lon="-3.82797">
        <ele>21.3</ele>
        <time>2020-08-16T13:27:35Z</time>
      </trkpt>
      <trkpt lat="48.5788" lon="-3.82798">
        <ele>21.4</ele>
        <time>2020-08-16T13:27:41Z</time>
      </trkpt>
      <trkpt lat="48.5788" lon="-3.82798">
        <ele>21.4</ele>
        <time>2020-08-16T13:27:49Z</time>
      </trkpt>
      <trkpt lat="48.57838" lon="-3.82814">
        <ele>16.4</ele>
        <time>2020-08-16T13:27:56Z</time>
      </trkpt>
      <trkpt lat="48.57815" lon="-3.82811">
        <ele>13.4</ele>
        <time>2020-08-16T13:28:03Z</time>
      </trkpt>
      <trkpt lat="48.57852" lon="-3.82895">
        <ele>15.5</ele>
        <time>2020-08-16T13:28:07Z</time>
      </trkpt>
      <trkpt lat="48.57867" lon="-3.82905">
        <ele>15.7</ele>
        <time>2020-08-16T13:28:14Z</time>
      </trkpt>
      <trkpt lat="48.57879" lon="-3.82911">
        <ele>15.8</ele>
        <time>2020-08-16T13:28:20Z</time>
      </trkpt>
      <trkpt lat="48.5789" lon="-3.82918">
        <ele>18.3</ele>
        <time>2020-08-16T13:28:25Z</time>
      </trkpt>
      <trkpt lat="48.57894" lon="-3.82921">
        <ele>18.1</ele>
        <time>2020-08-16T13:28:33Z</time>
      </trkpt>
      <trkpt lat="48.5793" lon="-3.82942">
        <ele>16.2</ele>
        <time>2020-08-16T13:28:41Z</time>
      </trkpt>
      <trkpt lat="48.57957" lon="-3.82959">
        <ele>16</ele>
        <time>2020-08-16T13:28:51Z</time>
      </trkpt>
      <trkpt lat="48.57971" lon="-3.82968">
        <ele>15.4</ele>
        <time>2020-08-16T13:28:56Z</time>
      </trkpt>
      <trkpt lat="48.57987" lon="-3.82978">
        <ele>14.1</ele>
        <time>2020-08-16T13:29:02Z</time>
      </trkpt>
      <trkpt lat="48.58011" lon="-3.82993">
        <ele>13.4</ele>
        <time>2020-08-16T13:29:11Z</time>
      </trkpt>
      <trkpt lat="48.5803" lon="-3.83004">
        <ele>14</ele>
        <time>2020-08-16T13:29:17Z</time>
      </trkpt>
      <trkpt lat="48.58037" lon="-3.83009">
        <ele>14.6</ele>
        <time>2020-08-16T13:29:24Z</time>
      </trkpt>
      <trkpt lat="48.5807" lon="-3.83036">
        <ele>15.5</ele>
        <time>2020-08-16T13:29:31Z</time>
      </trkpt>
      <trkpt lat="48.58088" lon="-3.83064">
        <ele>16.7</ele>
        <time>2020-08-16T13:29:41Z</time>
      </trkpt>
      <trkpt lat="48.58103" lon="-3.83086">
        <ele>13.8</ele>
        <time>2020-08-16T13:29:49Z</time>
      </trkpt>
      <trkpt lat="48.58121" lon="-3.83112">
        <ele>14.1</ele>
        <time>2020-08-16T13:29:58Z</time>
      </trkpt>
      <trkpt lat="48.58131" lon="-3.83128">
        <ele>13.9</ele>
        <time>2020-08-16T13:30:04Z</time>
      </trkpt>
      <trkpt lat="48.58134" lon="-3.83133">
        <ele>13.8</ele>
        <time>2020-08-16T13:30:09Z</time>
      </trkpt>
      <trkpt lat="48.58154" lon="-3.83207">
        <ele>14.3</ele>
        <time>2020-08-16T13:31:11Z</time>
      </trkpt>
      <trkpt lat="48.58154" lon="-3.83207">
        <ele>14.3</ele>
        <time>2020-08-16T13:31:12Z</time>
      </trkpt>
      <trkpt lat="48.58149" lon="-3.83164">
        <ele>12.2</ele>
        <time>2020-08-16T13:31:17Z</time>
      </trkpt>
      <trkpt lat="48.5815" lon="-3.83167">
        <ele>12.8</ele>
        <time>2020-08-16T13:31:25Z</time>
      </trkpt>
      <trkpt lat="48.5815" lon="-3.83167">
        <ele>12.8</ele>
        <time>2020-08-16T13:31:32Z</time>
      </trkpt>
      <trkpt lat="48.5815" lon="-3.83167">
        <ele>12.8</ele>
        <time>2020-08-16T13:31:34Z</time>
      </trkpt>
      <trkpt lat="48.5813" lon="-3.832">
        <ele>15.6</ele>
        <time>2020-08-16T13:35:04Z</time>
      </trkpt>
      <trkpt lat="48.58124" lon="-3.83195">
        <ele>15.8</ele>
        <time>2020-08-16T13:35:10Z</time>
      </trkpt>
      <trkpt lat="48.58109" lon="-3.83176">
        <ele>16</ele>
        <time>2020-08-16T13:35:21Z</time>
      </trkpt>
      <trkpt lat="48.58097" lon="-3.83159">
        <ele>14.9</ele>
        <time>2020-08-16T13:35:28Z</time>
      </trkpt>
      <trkpt lat="48.58082" lon="-3.83136">
        <ele>19.8</ele>
        <time>2020-08-16T13:35:37Z</time>
      </trkpt>
      <trkpt lat="48.58067" lon="-3.83114">
        <ele>19.8</ele>
        <time>2020-08-16T13:35:45Z</time>
      </trkpt>
      <trkpt lat="48.5805" lon="-3.8309">
        <ele>19.8</ele>
        <time>2020-08-16T13:35:54Z</time>
      </trkpt>
      <trkpt lat="48.58037" lon="-3.83075">
        <ele>15.9</ele>
        <time>2020-08-16T13:36:02Z</time>
      </trkpt>
      <trkpt lat="48.58032" lon="-3.83069">
        <ele>16</ele>
        <time>2020-08-16T13:36:08Z</time>
      </trkpt>
      <trkpt lat="48.58032" lon="-3.83069">
        <ele>16</ele>
        <time>2020-08-16T13:36:14Z</time>
      </trkpt>
      <trkpt lat="48.58032" lon="-3.83069">
        <ele>16</ele>
        <time>2020-08-16T13:36:15Z</time>
      </trkpt>
      <trkpt lat="48.58032" lon="-3.83069">
        <ele>16</ele>
        <time>2020-08-16T13:36:21Z</time>
      </trkpt>
      <trkpt lat="48.58037" lon="-3.83009">
        <ele>14.6</ele>
        <time>2020-08-16T13:36:29Z</time>
      </trkpt>
      <trkpt lat="48.58037" lon="-3.83009">
        <ele>14.6</ele>
        <time>2020-08-16T13:36:30Z</time>
      </trkpt>
      <trkpt lat="48.58037" lon="-3.83009">
        <ele>14.6</ele>
        <time>2020-08-16T13:36:34Z</time>
      </trkpt>
      <trkpt lat="48.58037" lon="-3.83009">
        <ele>14.6</ele>
        <time>2020-08-16T13:36:37Z</time>
      </trkpt>
      <trkpt lat="48.58037" lon="-3.83009">
        <ele>14.6</ele>
        <time>2020-08-16T13:36:43Z</time>
      </trkpt>
      <trkpt lat="48.58036" lon="-3.82999">
        <ele>16.3</ele>
        <time>2020-08-16T13:36:55Z</time>
      </trkpt>
      <trkpt lat="48.58035" lon="-3.82996">
        <ele>16.3</ele>
        <time>2020-08-16T13:36:59Z</time>
      </trkpt>
      <trkpt lat="48.58037" lon="-3.83009">
        <ele>14.6</ele>
        <time>2020-08-16T13:40:25Z</time>
      </trkpt>
      <trkpt lat="48.58037" lon="-3.83009">
        <ele>14.6</ele>
        <time>2020-08-16T13:40:29Z</time>
      </trkpt>
      <trkpt lat="48.58037" lon="-3.83009">
        <ele>14.6</ele>
        <time>2020-08-16T13:40:30Z</time>
      </trkpt>
      <trkpt lat="48.58021" lon="-3.83059">
        <ele>16.1</ele>
        <time>2020-08-16T13:40:37Z</time>
      </trkpt>
      <trkpt lat="48.58011" lon="-3.83049">
        <ele>15.7</ele>
        <time>2020-08-16T13:40:45Z</time>
      </trkpt>
      <trkpt lat="48.5801" lon="-3.83048">
        <ele>15.6</ele>
        <time>2020-08-16T13:40:46Z</time>
      </trkpt>
      <trkpt lat="48.57999" lon="-3.83039">
        <ele>20.2</ele>
        <time>2020-08-16T13:40:55Z</time>
      </trkpt>
      <trkpt lat="48.57978" lon="-3.83028">
        <ele>20.4</ele>
        <time>2020-08-16T13:41:04Z</time>
      </trkpt>
      <trkpt lat="48.57961" lon="-3.83018">
        <ele>21.4</ele>
        <time>2020-08-16T13:41:10Z</time>
      </trkpt>
      <trkpt lat="48.57941" lon="-3.83007">
        <ele>22.5</ele>
        <time>2020-08-16T13:41:17Z</time>
      </trkpt>
      <trkpt lat="48.57922" lon="-3.82993">
        <ele>20</ele>
        <time>2020-08-16T13:41:26Z</time>
      </trkpt>
      <trkpt lat="48.57907" lon="-3.82983">
        <ele>21.5</ele>
        <time>2020-08-16T13:41:33Z</time>
      </trkpt>
      <trkpt lat="48.57887" lon="-3.82971">
        <ele>21.4</ele>
        <time>2020-08-16T13:41:41Z</time>
      </trkpt>
      <trkpt lat="48.57885" lon="-3.8297">
        <ele>21.4</ele>
        <time>2020-08-16T13:41:42Z</time>
      </trkpt>
      <trkpt lat="48.57873" lon="-3.82963">
        <ele>21.4</ele>
        <time>2020-08-16T13:41:49Z</time>
      </trkpt>
      <trkpt lat="48.5784" lon="-3.82933">
        <ele>18.4</ele>
        <time>2020-08-16T13:41:56Z</time>
      </trkpt>
      <trkpt lat="48.57802" lon="-3.82899">
        <ele>15.7</ele>
        <time>2020-08-16T13:42:07Z</time>
      </trkpt>
      <trkpt lat="48.57778" lon="-3.82876">
        <ele>15.7</ele>
        <time>2020-08-16T13:42:15Z</time>
      </trkpt>
      <trkpt lat="48.57757" lon="-3.82871">
        <ele>15.7</ele>
        <time>2020-08-16T13:42:21Z</time>
      </trkpt>
      <trkpt lat="48.57737" lon="-3.82858">
        <ele>16.6</ele>
        <time>2020-08-16T13:42:27Z</time>
      </trkpt>
      <trkpt lat="48.57714" lon="-3.82831">
        <ele>15.3</ele>
        <time>2020-08-16T13:42:35Z</time>
      </trkpt>
      <trkpt lat="48.57714" lon="-3.82831">
        <ele>15.3</ele>
        <time>2020-08-16T13:42:43Z</time>
      </trkpt>
      <trkpt lat="48.577" lon="-3.8278">
        <ele>16.4</ele>
        <time>2020-08-16T13:42:50Z</time>
      </trkpt>
      <trkpt lat="48.57708" lon="-3.8276">
        <ele>16.5</ele>
        <time>2020-08-16T13:42:55Z</time>
      </trkpt>
      <trkpt lat="48.5773" lon="-3.82732">
        <ele>17</ele>
        <time>2020-08-16T13:43:02Z</time>
      </trkpt>
      <trkpt lat="48.57746" lon="-3.82716">
        <ele>17</ele>
        <time>2020-08-16T13:43:07Z</time>
      </trkpt>
      <trkpt lat="48.57742" lon="-3.82698">
        <ele>17.2</ele>
        <time>2020-08-16T13:43:13Z</time>
      </trkpt>
      <trkpt lat="48.5774" lon="-3.82694">
        <ele>17.2</ele>
        <time>2020-08-16T13:43:14Z</time>
      </trkpt>
      <trkpt lat="48.57719" lon="-3.82652">
        <ele>18</ele>
        <time>2020-08-16T13:43:24Z</time>
      </trkpt>
      <trkpt lat="48.57703" lon="-3.82618">
        <ele>18.3</ele>
        <time>2020-08-16T13:43:31Z</time>
      </trkpt>
      <trkpt lat="48.57681" lon="-3.82575">
        <ele>18.2</ele>
        <time>2020-08-16T13:43:41Z</time>
      </trkpt>
      <trkpt lat="48.57679" lon="-3.82572">
        <ele>18.2</ele>
        <time>2020-08-16T13:43:49Z</time>
      </trkpt>
      <trkpt lat="48.57639" lon="-3.8252">
        <ele>19.3</ele>
        <time>2020-08-16T13:43:59Z</time>
      </trkpt>
      <trkpt lat="48.5763" lon="-3.82509">
        <ele>19.6</ele>
        <time>2020-08-16T13:44:04Z</time>
      </trkpt>
      <trkpt lat="48.57629" lon="-3.82507">
        <ele>19.6</ele>
        <time>2020-08-16T13:44:10Z</time>
      </trkpt>
      <trkpt lat="48.57617" lon="-3.82463">
        <ele>18.5</ele>
        <time>2020-08-16T13:44:16Z</time>
      </trkpt>
      <trkpt lat="48.57607" lon="-3.8242">
        <ele>18.5</ele>
        <time>2020-08-16T13:44:24Z</time>
      </trkpt>
      <trkpt lat="48.57602" lon="-3.82395">
        <ele>17.6</ele>
        <time>2020-08-16T13:44:29Z</time>
      </trkpt>
      <trkpt lat="48.57594" lon="-3.82359">
        <ele>16.7</ele>
        <time>2020-08-16T13:44:36Z</time>
      </trkpt>
      <trkpt lat="48.57587" lon="-3.82333">
        <ele>15.5</ele>
        <time>2020-08-16T13:44:42Z</time>
      </trkpt>
      <trkpt lat="48.57587" lon="-3.82333">
        <ele>15.5</ele>
        <time>2020-08-16T13:44:47Z</time>
      </trkpt>
      <trkpt lat="48.57587" lon="-3.82333">
        <ele>15.5</ele>
        <time>2020-08-16T13:49:46Z</time>
      </trkpt>
      <trkpt lat="48.57587" lon="-3.82333">
        <ele>15.5</ele>
        <time>2020-08-16T13:49:54Z</time>
      </trkpt>
      <trkpt lat="48.57587" lon="-3.82333">
        <ele>15.5</ele>
        <time>2020-08-16T13:50:16Z</time>
      </trkpt>
      <trkpt lat="48.57587" lon="-3.82333">
        <ele>15.5</ele>
        <time>2020-08-16T13:59:14Z</time>
      </trkpt>
      <trkpt lat="48.57587" lon="-3.82333">
        <ele>15.5</ele>
        <time>2020-08-16T13:59:18Z</time>
      </trkpt>
      <trkpt lat="48.5759" lon="-3.82343">
        <ele>16</ele>
        <time>2020-08-16T13:59:42Z</time>
      </trkpt>
      <trkpt lat="48.57595" lon="-3.82366">
        <ele>16.9</ele>
        <time>2020-08-16T13:59:50Z</time>
      </trkpt>
      <trkpt lat="48.57601" lon="-3.82391">
        <ele>17.5</ele>
        <time>2020-08-16T13:59:58Z</time>
      </trkpt>
      <trkpt lat="48.57608" lon="-3.82424">
        <ele>18.4</ele>
        <time>2020-08-16T14:00:07Z</time>
      </trkpt>
      <trkpt lat="48.57615" lon="-3.82458">
        <ele>18.5</ele>
        <time>2020-08-16T14:00:15Z</time>
      </trkpt>
      <trkpt lat="48.57622" lon="-3.82481">
        <ele>18.6</ele>
        <time>2020-08-16T14:00:21Z</time>
      </trkpt>
      <trkpt lat="48.57628" lon="-3.82504">
        <ele>19.6</ele>
        <time>2020-08-16T14:00:28Z</time>
      </trkpt>
      <trkpt lat="48.57629" lon="-3.82507">
        <ele>19.6</ele>
        <time>2020-08-16T14:00:36Z</time>
      </trkpt>
      <trkpt lat="48.57659" lon="-3.82545">
        <ele>19.2</ele>
        <time>2020-08-16T14:00:42Z</time>
      </trkpt>
      <trkpt lat="48.57676" lon="-3.82567">
        <ele>18.2</ele>
        <time>2020-08-16T14:00:48Z</time>
      </trkpt>
      <trkpt lat="48.57679" lon="-3.82572">
        <ele>18.2</ele>
        <time>2020-08-16T14:00:56Z</time>
      </trkpt>
      <trkpt lat="48.57679" lon="-3.82572">
        <ele>18.2</ele>
        <time>2020-08-16T14:00:57Z</time>
      </trkpt>
      <trkpt lat="48.57718" lon="-3.8265">
        <ele>18</ele>
        <time>2020-08-16T14:01:06Z</time>
      </trkpt>
      <trkpt lat="48.57734" lon="-3.82682">
        <ele>17.2</ele>
        <time>2020-08-16T14:01:14Z</time>
      </trkpt>
      <trkpt lat="48.57742" lon="-3.82698">
        <ele>17.2</ele>
        <time>2020-08-16T14:01:19Z</time>
      </trkpt>
      <trkpt lat="48.57746" lon="-3.82707">
        <ele>17.1</ele>
        <time>2020-08-16T14:01:22Z</time>
      </trkpt>
      <trkpt lat="48.57746" lon="-3.82707">
        <ele>17.1</ele>
        <time>2020-08-16T14:01:23Z</time>
      </trkpt>
      <trkpt lat="48.57746" lon="-3.82707">
        <ele>17.1</ele>
        <time>2020-08-16T14:05:34Z</time>
      </trkpt>
      <trkpt lat="48.5774" lon="-3.82694">
        <ele>17.2</ele>
        <time>2020-08-16T14:05:56Z</time>
      </trkpt>
      <trkpt lat="48.57738" lon="-3.82689">
        <ele>17.2</ele>
        <time>2020-08-16T14:05:58Z</time>
      </trkpt>
      <trkpt lat="48.57727" lon="-3.82668">
        <ele>17.4</ele>
        <time>2020-08-16T14:06:07Z</time>
      </trkpt>
      <trkpt lat="48.57737" lon="-3.82646">
        <ele>17.5</ele>
        <time>2020-08-16T14:06:12Z</time>
      </trkpt>
      <trkpt lat="48.57742" lon="-3.82641">
        <ele>17.5</ele>
        <time>2020-08-16T14:06:15Z</time>
      </trkpt>
      <trkpt lat="48.57747" lon="-3.82638">
        <ele>17.5</ele>
        <time>2020-08-16T14:06:19Z</time>
      </trkpt>
      <trkpt lat="48.57752" lon="-3.82621">
        <ele>22.5</ele>
        <time>2020-08-16T14:06:26Z</time>
      </trkpt>
      <trkpt lat="48.57752" lon="-3.82597">
        <ele>21.1</ele>
        <time>2020-08-16T14:06:34Z</time>
      </trkpt>
      <trkpt lat="48.57751" lon="-3.82578">
        <ele>20.4</ele>
        <time>2020-08-16T14:06:40Z</time>
      </trkpt>
      <trkpt lat="48.57748" lon="-3.82567">
        <ele>18.6</ele>
        <time>2020-08-16T14:06:47Z</time>
      </trkpt>
      <trkpt lat="48.57735" lon="-3.8253">
        <ele>19.7</ele>
        <time>2020-08-16T14:06:52Z</time>
      </trkpt>
      <trkpt lat="48.57721" lon="-3.82526">
        <ele>19.3</ele>
        <time>2020-08-16T14:06:57Z</time>
      </trkpt>
      <trkpt lat="48.57717" lon="-3.82528">
        <ele>19.2</ele>
        <time>2020-08-16T14:07:01Z</time>
      </trkpt>
      <trkpt lat="48.57709" lon="-3.82537">
        <ele>18.8</ele>
        <time>2020-08-16T14:07:05Z</time>
      </trkpt>
      <trkpt lat="48.57705" lon="-3.82512">
        <ele>18.8</ele>
        <time>2020-08-16T14:07:12Z</time>
      </trkpt>
      <trkpt lat="48.57693" lon="-3.82512">
        <ele>18.2</ele>
        <time>2020-08-16T14:07:16Z</time>
      </trkpt>
      <trkpt lat="48.57684" lon="-3.82514">
        <ele>17.8</ele>
        <time>2020-08-16T14:07:20Z</time>
      </trkpt>
      <trkpt lat="48.57676" lon="-3.82516">
        <ele>17.5</ele>
        <time>2020-08-16T14:07:23Z</time>
      </trkpt>
      <trkpt lat="48.57658" lon="-3.8251">
        <ele>17.7</ele>
        <time>2020-08-16T14:07:28Z</time>
      </trkpt>
      <trkpt lat="48.57656" lon="-3.82507">
        <ele>17.7</ele>
        <time>2020-08-16T14:07:29Z</time>
      </trkpt>
      <trkpt lat="48.57649" lon="-3.82471">
        <ele>17.6</ele>
        <time>2020-08-16T14:07:36Z</time>
      </trkpt>
      <trkpt lat="48.57647" lon="-3.82434">
        <ele>17.4</ele>
        <time>2020-08-16T14:07:43Z</time>
      </trkpt>
      <trkpt lat="48.57645" lon="-3.82413">
        <ele>16.9</ele>
        <time>2020-08-16T14:07:49Z</time>
      </trkpt>
      <trkpt lat="48.57641" lon="-3.82386">
        <ele>17.2</ele>
        <time>2020-08-16T14:07:57Z</time>
      </trkpt>
      <trkpt lat="48.57633" lon="-3.82346">
        <ele>17.4</ele>
        <time>2020-08-16T14:08:06Z</time>
      </trkpt>
      <trkpt lat="48.57629" lon="-3.82324">
        <ele>18.7</ele>
        <time>2020-08-16T14:08:16Z</time>
      </trkpt>
      <trkpt lat="48.57618" lon="-3.82276">
        <ele>19.2</ele>
        <time>2020-08-16T14:08:22Z</time>
      </trkpt>
      <trkpt lat="48.57612" lon="-3.8225">
        <ele>21.1</ele>
        <time>2020-08-16T14:08:28Z</time>
      </trkpt>
      <trkpt lat="48.57606" lon="-3.82221">
        <ele>21.4</ele>
        <time>2020-08-16T14:08:34Z</time>
      </trkpt>
      <trkpt lat="48.57599" lon="-3.82191">
        <ele>20.9</ele>
        <time>2020-08-16T14:08:40Z</time>
      </trkpt>
      <trkpt lat="48.57596" lon="-3.82153">
        <ele>21.6</ele>
        <time>2020-08-16T14:08:48Z</time>
      </trkpt>
      <trkpt lat="48.57592" lon="-3.82125">
        <ele>23.6</ele>
        <time>2020-08-16T14:08:55Z</time>
      </trkpt>
      <trkpt lat="48.5759" lon="-3.82113">
        <ele>23.5</ele>
        <time>2020-08-16T14:09:00Z</time>
      </trkpt>
      <trkpt lat="48.5759" lon="-3.82113">
        <ele>23.5</ele>
        <time>2020-08-16T14:09:07Z</time>
      </trkpt>
      <trkpt lat="48.57591" lon="-3.82044">
        <ele>26.4</ele>
        <time>2020-08-16T14:09:15Z</time>
      </trkpt>
      <trkpt lat="48.5759" lon="-3.82017">
        <ele>25.2</ele>
        <time>2020-08-16T14:09:22Z</time>
      </trkpt>
      <trkpt lat="48.57588" lon="-3.81982">
        <ele>26.5</ele>
        <time>2020-08-16T14:09:29Z</time>
      </trkpt>
      <trkpt lat="48.57587" lon="-3.81951">
        <ele>28.3</ele>
        <time>2020-08-16T14:09:35Z</time>
      </trkpt>
      <trkpt lat="48.5758" lon="-3.81904">
        <ele>21.7</ele>
        <time>2020-08-16T14:09:44Z</time>
      </trkpt>
      <trkpt lat="48.57575" lon="-3.81877">
        <ele>21.4</ele>
        <time>2020-08-16T14:09:50Z</time>
      </trkpt>
      <trkpt lat="48.57572" lon="-3.81862">
        <ele>21.2</ele>
        <time>2020-08-16T14:09:54Z</time>
      </trkpt>
      <trkpt lat="48.57563" lon="-3.81827">
        <ele>20.7</ele>
        <time>2020-08-16T14:10:01Z</time>
      </trkpt>
      <trkpt lat="48.57544" lon="-3.81784">
        <ele>20.6</ele>
        <time>2020-08-16T14:10:10Z</time>
      </trkpt>
      <trkpt lat="48.57523" lon="-3.81742">
        <ele>21.3</ele>
        <time>2020-08-16T14:10:18Z</time>
      </trkpt>
      <trkpt lat="48.57503" lon="-3.81699">
        <ele>22.4</ele>
        <time>2020-08-16T14:10:27Z</time>
      </trkpt>
      <trkpt lat="48.57489" lon="-3.81654">
        <ele>21.2</ele>
        <time>2020-08-16T14:10:36Z</time>
      </trkpt>
      <trkpt lat="48.57489" lon="-3.81648">
        <ele>21.3</ele>
        <time>2020-08-16T14:10:42Z</time>
      </trkpt>
      <trkpt lat="48.57459" lon="-3.81622">
        <ele>21.1</ele>
        <time>2020-08-16T14:10:48Z</time>
      </trkpt>
      <trkpt lat="48.57433" lon="-3.81598">
        <ele>19.6</ele>
        <time>2020-08-16T14:10:55Z</time>
      </trkpt>
      <trkpt lat="48.57407" lon="-3.81568">
        <ele>17.4</ele>
        <time>2020-08-16T14:11:02Z</time>
      </trkpt>
      <trkpt lat="48.57377" lon="-3.81527">
        <ele>17.6</ele>
        <time>2020-08-16T14:11:11Z</time>
      </trkpt>
      <trkpt lat="48.57361" lon="-3.81503">
        <ele>16.5</ele>
        <time>2020-08-16T14:11:17Z</time>
      </trkpt>
      <trkpt lat="48.57355" lon="-3.81492">
        <ele>18</ele>
        <time>2020-08-16T14:11:24Z</time>
      </trkpt>
      <trkpt lat="48.57336" lon="-3.8145">
        <ele>19.1</ele>
        <time>2020-08-16T14:11:32Z</time>
      </trkpt>
      <trkpt lat="48.57326" lon="-3.81426">
        <ele>15.7</ele>
        <time>2020-08-16T14:11:39Z</time>
      </trkpt>
      <trkpt lat="48.57314" lon="-3.81401">
        <ele>16.2</ele>
        <time>2020-08-16T14:11:45Z</time>
      </trkpt>
      <trkpt lat="48.57306" lon="-3.81372">
        <ele>16.4</ele>
        <time>2020-08-16T14:11:51Z</time>
      </trkpt>
      <trkpt lat="48.57304" lon="-3.81359">
        <ele>16.6</ele>
        <time>2020-08-16T14:11:58Z</time>
      </trkpt>
      <trkpt lat="48.57304" lon="-3.81359">
        <ele>16.6</ele>
        <time>2020-08-16T14:12:00Z</time>
      </trkpt>
      <trkpt lat="48.57304" lon="-3.81359">
        <ele>16.6</ele>
        <time>2020-08-16T14:12:04Z</time>
      </trkpt>
      <trkpt lat="48.57304" lon="-3.81359">
        <ele>16.6</ele>
        <time>2020-08-16T14:12:09Z</time>
      </trkpt>
      <trkpt lat="48.57292" lon="-3.81322">
        <ele>19.1</ele>
        <time>2020-08-16T14:12:15Z</time>
      </trkpt>
      <trkpt lat="48.57286" lon="-3.81303">
        <ele>19.3</ele>
        <time>2020-08-16T14:12:24Z</time>
      </trkpt>
      <trkpt lat="48.57281" lon="-3.81286">
        <ele>19.5</ele>
        <time>2020-08-16T14:12:32Z</time>
      </trkpt>
      <trkpt lat="48.57274" lon="-3.81268">
        <ele>19.4</ele>
        <time>2020-08-16T14:12:40Z</time>
      </trkpt>
      <trkpt lat="48.57267" lon="-3.81244">
        <ele>22.2</ele>
        <time>2020-08-16T14:12:50Z</time>
      </trkpt>
      <trkpt lat="48.57261" lon="-3.81228">
        <ele>23.3</ele>
        <time>2020-08-16T14:12:57Z</time>
      </trkpt>
      <trkpt lat="48.57254" lon="-3.81209">
        <ele>24.9</ele>
        <time>2020-08-16T14:13:07Z</time>
      </trkpt>
      <trkpt lat="48.57247" lon="-3.81195">
        <ele>20.5</ele>
        <time>2020-08-16T14:13:15Z</time>
      </trkpt>
      <trkpt lat="48.57247" lon="-3.81193">
        <ele>20.7</ele>
        <time>2020-08-16T14:13:19Z</time>
      </trkpt>
      <trkpt lat="48.57241" lon="-3.81187">
        <ele>21.2</ele>
        <time>2020-08-16T14:13:30Z</time>
      </trkpt>
      <trkpt lat="48.57232" lon="-3.81153">
        <ele>26.5</ele>
        <time>2020-08-16T14:13:40Z</time>
      </trkpt>
      <trkpt lat="48.57229" lon="-3.81137">
        <ele>27.3</ele>
        <time>2020-08-16T14:13:48Z</time>
      </trkpt>
      <trkpt lat="48.57226" lon="-3.81125">
        <ele>28</ele>
        <time>2020-08-16T14:13:54Z</time>
      </trkpt>
      <trkpt lat="48.57223" lon="-3.81114">
        <ele>28.8</ele>
        <time>2020-08-16T14:14:00Z</time>
      </trkpt>
      <trkpt lat="48.57221" lon="-3.81104">
        <ele>29.4</ele>
        <time>2020-08-16T14:14:07Z</time>
      </trkpt>
      <trkpt lat="48.57217" lon="-3.81092">
        <ele>29.8</ele>
        <time>2020-08-16T14:14:15Z</time>
      </trkpt>
      <trkpt lat="48.57216" lon="-3.81089">
        <ele>29.8</ele>
        <time>2020-08-16T14:14:16Z</time>
      </trkpt>
      <trkpt lat="48.57213" lon="-3.81079">
        <ele>36.9</ele>
        <time>2020-08-16T14:14:24Z</time>
      </trkpt>
      <trkpt lat="48.57212" lon="-3.81076">
        <ele>36.9</ele>
        <time>2020-08-16T14:14:27Z</time>
      </trkpt>
      <trkpt lat="48.57211" lon="-3.81071">
        <ele>37</ele>
        <time>2020-08-16T14:14:32Z</time>
      </trkpt>
      <trkpt lat="48.57207" lon="-3.81057">
        <ele>37.5</ele>
        <time>2020-08-16T14:14:41Z</time>
      </trkpt>
      <trkpt lat="48.57205" lon="-3.81052">
        <ele>37.8</ele>
        <time>2020-08-16T14:14:49Z</time>
      </trkpt>
      <trkpt lat="48.57204" lon="-3.81045">
        <ele>38.2</ele>
        <time>2020-08-16T14:14:53Z</time>
      </trkpt>
      <trkpt lat="48.572" lon="-3.8103">
        <ele>39.1</ele>
        <time>2020-08-16T14:15:04Z</time>
      </trkpt>
      <trkpt lat="48.57197" lon="-3.81019">
        <ele>39.6</ele>
        <time>2020-08-16T14:15:12Z</time>
      </trkpt>
      <trkpt lat="48.57196" lon="-3.81013">
        <ele>39.8</ele>
        <time>2020-08-16T14:15:20Z</time>
      </trkpt>
      <trkpt lat="48.57192" lon="-3.80999">
        <ele>46.4</ele>
        <time>2020-08-16T14:15:28Z</time>
      </trkpt>
      <trkpt lat="48.57192" lon="-3.80999">
        <ele>46.4</ele>
        <time>2020-08-16T14:15:32Z</time>
      </trkpt>
      <trkpt lat="48.57131" lon="-3.80736">
        <ele>49.4</ele>
        <time>2020-08-16T14:20:37Z</time>
      </trkpt>
      <trkpt lat="48.57129" lon="-3.80717">
        <ele>48.7</ele>
        <time>2020-08-16T14:20:40Z</time>
      </trkpt>
      <trkpt lat="48.57128" lon="-3.80692">
        <ele>48.3</ele>
        <time>2020-08-16T14:20:44Z</time>
      </trkpt>
      <trkpt lat="48.5713" lon="-3.80651">
        <ele>47.4</ele>
        <time>2020-08-16T14:20:50Z</time>
      </trkpt>
      <trkpt lat="48.57131" lon="-3.80626">
        <ele>47.2</ele>
        <time>2020-08-16T14:20:54Z</time>
      </trkpt>
      <trkpt lat="48.57133" lon="-3.80583">
        <ele>47.3</ele>
        <time>2020-08-16T14:21:00Z</time>
      </trkpt>
      <trkpt lat="48.57133" lon="-3.80577">
        <ele>47.3</ele>
        <time>2020-08-16T14:21:01Z</time>
      </trkpt>
      <trkpt lat="48.57131" lon="-3.80525">
        <ele>46.2</ele>
        <time>2020-08-16T14:21:08Z</time>
      </trkpt>
      <trkpt lat="48.57127" lon="-3.80502">
        <ele>45.4</ele>
        <time>2020-08-16T14:21:11Z</time>
      </trkpt>
      <trkpt lat="48.57119" lon="-3.80453">
        <ele>45.2</ele>
        <time>2020-08-16T14:21:18Z</time>
      </trkpt>
      <trkpt lat="48.57116" lon="-3.8044">
        <ele>44.6</ele>
        <time>2020-08-16T14:21:20Z</time>
      </trkpt>
      <trkpt lat="48.57107" lon="-3.80401">
        <ele>45.5</ele>
        <time>2020-08-16T14:21:26Z</time>
      </trkpt>
      <trkpt lat="48.57097" lon="-3.80367">
        <ele>46.8</ele>
        <time>2020-08-16T14:21:30Z</time>
      </trkpt>
      <trkpt lat="48.57089" lon="-3.80344">
        <ele>44</ele>
        <time>2020-08-16T14:21:33Z</time>
      </trkpt>
      <trkpt lat="48.57068" lon="-3.80298">
        <ele>37.2</ele>
        <time>2020-08-16T14:21:40Z</time>
      </trkpt>
      <trkpt lat="48.57058" lon="-3.80281">
        <ele>37.4</ele>
        <time>2020-08-16T14:21:43Z</time>
      </trkpt>
      <trkpt lat="48.57034" lon="-3.80245">
        <ele>43</ele>
        <time>2020-08-16T14:21:50Z</time>
      </trkpt>
      <trkpt lat="48.57026" lon="-3.80232">
        <ele>43</ele>
        <time>2020-08-16T14:21:53Z</time>
      </trkpt>
      <trkpt lat="48.57008" lon="-3.80215">
        <ele>44</ele>
        <time>2020-08-16T14:21:58Z</time>
      </trkpt>
      <trkpt lat="48.56999" lon="-3.80205">
        <ele>40.8</ele>
        <time>2020-08-16T14:22:01Z</time>
      </trkpt>
      <trkpt lat="48.56987" lon="-3.80193">
        <ele>42.2</ele>
        <time>2020-08-16T14:22:04Z</time>
      </trkpt>
      <trkpt lat="48.56962" lon="-3.80176">
        <ele>41.2</ele>
        <time>2020-08-16T14:22:10Z</time>
      </trkpt>
      <trkpt lat="48.56942" lon="-3.80163">
        <ele>47.6</ele>
        <time>2020-08-16T14:22:15Z</time>
      </trkpt>
      <trkpt lat="48.56917" lon="-3.80144">
        <ele>47.1</ele>
        <time>2020-08-16T14:22:22Z</time>
      </trkpt>
      <trkpt lat="48.56894" lon="-3.80125">
        <ele>41.3</ele>
        <time>2020-08-16T14:22:30Z</time>
      </trkpt>
      <trkpt lat="48.56871" lon="-3.80105">
        <ele>40.9</ele>
        <time>2020-08-16T14:22:37Z</time>
      </trkpt>
      <trkpt lat="48.56854" lon="-3.80089">
        <ele>40</ele>
        <time>2020-08-16T14:22:42Z</time>
      </trkpt>
      <trkpt lat="48.56833" lon="-3.80071">
        <ele>38.3</ele>
        <time>2020-08-16T14:22:48Z</time>
      </trkpt>
      <trkpt lat="48.56811" lon="-3.80054">
        <ele>37.4</ele>
        <time>2020-08-16T14:22:54Z</time>
      </trkpt>
      <trkpt lat="48.56782" lon="-3.80033">
        <ele>35.6</ele>
        <time>2020-08-16T14:23:01Z</time>
      </trkpt>
      <trkpt lat="48.5676" lon="-3.80018">
        <ele>33.4</ele>
        <time>2020-08-16T14:23:06Z</time>
      </trkpt>
      <trkpt lat="48.56728" lon="-3.79995">
        <ele>28.7</ele>
        <time>2020-08-16T14:23:13Z</time>
      </trkpt>
      <trkpt lat="48.56703" lon="-3.79976">
        <ele>27.7</ele>
        <time>2020-08-16T14:23:19Z</time>
      </trkpt>
      <trkpt lat="48.5668" lon="-3.79953">
        <ele>27.5</ele>
        <time>2020-08-16T14:23:24Z</time>
      </trkpt>
      <trkpt lat="48.5667" lon="-3.79938">
        <ele>27.4</ele>
        <time>2020-08-16T14:23:26Z</time>
      </trkpt>
      <trkpt lat="48.56633" lon="-3.79913">
        <ele>27.6</ele>
        <time>2020-08-16T14:23:32Z</time>
      </trkpt>
      <trkpt lat="48.56617" lon="-3.79893">
        <ele>27.8</ele>
        <time>2020-08-16T14:23:37Z</time>
      </trkpt>
      <trkpt lat="48.56608" lon="-3.7988">
        <ele>28</ele>
        <time>2020-08-16T14:23:42Z</time>
      </trkpt>
      <trkpt lat="48.566" lon="-3.79871">
        <ele>28.3</ele>
        <time>2020-08-16T14:23:47Z</time>
      </trkpt>
      <trkpt lat="48.56582" lon="-3.7984">
        <ele>30.6</ele>
        <time>2020-08-16T14:23:52Z</time>
      </trkpt>
      <trkpt lat="48.56582" lon="-3.7984">
        <ele>30.6</ele>
        <time>2020-08-16T14:23:53Z</time>
      </trkpt>
      <trkpt lat="48.56599" lon="-3.79869">
        <ele>28.4</ele>
        <time>2020-08-16T14:27:38Z</time>
      </trkpt>
      <trkpt lat="48.56613" lon="-3.79887">
        <ele>27.9</ele>
        <time>2020-08-16T14:27:43Z</time>
      </trkpt>
      <trkpt lat="48.5664" lon="-3.79922">
        <ele>26.8</ele>
        <time>2020-08-16T14:27:49Z</time>
      </trkpt>
      <trkpt lat="48.56668" lon="-3.79967">
        <ele>27.1</ele>
        <time>2020-08-16T14:27:55Z</time>
      </trkpt>
      <trkpt lat="48.56696" lon="-3.80034">
        <ele>26.6</ele>
        <time>2020-08-16T14:28:02Z</time>
      </trkpt>
      <trkpt lat="48.5672" lon="-3.801">
        <ele>27.1</ele>
        <time>2020-08-16T14:28:09Z</time>
      </trkpt>
      <trkpt lat="48.56743" lon="-3.80159">
        <ele>26.7</ele>
        <time>2020-08-16T14:28:16Z</time>
      </trkpt>
      <trkpt lat="48.56767" lon="-3.80213">
        <ele>28.9</ele>
        <time>2020-08-16T14:28:23Z</time>
      </trkpt>
      <trkpt lat="48.56799" lon="-3.80262">
        <ele>32.9</ele>
        <time>2020-08-16T14:28:31Z</time>
      </trkpt>
      <trkpt lat="48.5683" lon="-3.80295">
        <ele>33.6</ele>
        <time>2020-08-16T14:28:38Z</time>
      </trkpt>
      <trkpt lat="48.56864" lon="-3.80324">
        <ele>29.1</ele>
        <time>2020-08-16T14:28:45Z</time>
      </trkpt>
      <trkpt lat="48.56904" lon="-3.8035">
        <ele>30.4</ele>
        <time>2020-08-16T14:28:54Z</time>
      </trkpt>
      <trkpt lat="48.56931" lon="-3.80371">
        <ele>26.3</ele>
        <time>2020-08-16T14:29:01Z</time>
      </trkpt>
      <trkpt lat="48.56948" lon="-3.80404">
        <ele>27</ele>
        <time>2020-08-16T14:29:08Z</time>
      </trkpt>
      <trkpt lat="48.56962" lon="-3.80448">
        <ele>29</ele>
        <time>2020-08-16T14:29:16Z</time>
      </trkpt>
      <trkpt lat="48.56969" lon="-3.80503">
        <ele>29.4</ele>
        <time>2020-08-16T14:29:25Z</time>
      </trkpt>
      <trkpt lat="48.5697" lon="-3.80528">
        <ele>29.5</ele>
        <time>2020-08-16T14:29:29Z</time>
      </trkpt>
      <trkpt lat="48.56965" lon="-3.80596">
        <ele>27.6</ele>
        <time>2020-08-16T14:29:37Z</time>
      </trkpt>
      <trkpt lat="48.56958" lon="-3.80668">
        <ele>26.1</ele>
        <time>2020-08-16T14:29:45Z</time>
      </trkpt>
      <trkpt lat="48.5695" lon="-3.80735">
        <ele>26.1</ele>
        <time>2020-08-16T14:29:53Z</time>
      </trkpt>
      <trkpt lat="48.56945" lon="-3.80768">
        <ele>26.4</ele>
        <time>2020-08-16T14:29:57Z</time>
      </trkpt>
      <trkpt lat="48.56941" lon="-3.80798">
        <ele>26.7</ele>
        <time>2020-08-16T14:30:01Z</time>
      </trkpt>
      <trkpt lat="48.5693" lon="-3.80855">
        <ele>27.6</ele>
        <time>2020-08-16T14:30:08Z</time>
      </trkpt>
      <trkpt lat="48.56927" lon="-3.8087">
        <ele>27</ele>
        <time>2020-08-16T14:30:10Z</time>
      </trkpt>
      <trkpt lat="48.56924" lon="-3.80885">
        <ele>26.6</ele>
        <time>2020-08-16T14:30:12Z</time>
      </trkpt>
      <trkpt lat="48.56914" lon="-3.80937">
        <ele>33.2</ele>
        <time>2020-08-16T14:30:19Z</time>
      </trkpt>
      <trkpt lat="48.56909" lon="-3.8099">
        <ele>30.3</ele>
        <time>2020-08-16T14:30:25Z</time>
      </trkpt>
      <trkpt lat="48.56913" lon="-3.81044">
        <ele>35.1</ele>
        <time>2020-08-16T14:30:31Z</time>
      </trkpt>
      <trkpt lat="48.56921" lon="-3.81072">
        <ele>23.2</ele>
        <time>2020-08-16T14:30:34Z</time>
      </trkpt>
      <trkpt lat="48.56924" lon="-3.8108">
        <ele>23.7</ele>
        <time>2020-08-16T14:30:35Z</time>
      </trkpt>
      <trkpt lat="48.5694" lon="-3.8111">
        <ele>22.8</ele>
        <time>2020-08-16T14:30:39Z</time>
      </trkpt>
      <trkpt lat="48.56978" lon="-3.81144">
        <ele>21.2</ele>
        <time>2020-08-16T14:30:46Z</time>
      </trkpt>
      <trkpt lat="48.57015" lon="-3.81171">
        <ele>18.7</ele>
        <time>2020-08-16T14:30:53Z</time>
      </trkpt>
      <trkpt lat="48.57057" lon="-3.81202">
        <ele>17.6</ele>
        <time>2020-08-16T14:31:01Z</time>
      </trkpt>
      <trkpt lat="48.57087" lon="-3.81232">
        <ele>14.8</ele>
        <time>2020-08-16T14:31:07Z</time>
      </trkpt>
      <trkpt lat="48.57126" lon="-3.81279">
        <ele>14.1</ele>
        <time>2020-08-16T14:31:15Z</time>
      </trkpt>
      <trkpt lat="48.57159" lon="-3.81321">
        <ele>13</ele>
        <time>2020-08-16T14:31:22Z</time>
      </trkpt>
      <trkpt lat="48.57195" lon="-3.81374">
        <ele>13.3</ele>
        <time>2020-08-16T14:31:30Z</time>
      </trkpt>
      <trkpt lat="48.57228" lon="-3.81431">
        <ele>14.8</ele>
        <time>2020-08-16T14:31:39Z</time>
      </trkpt>
      <trkpt lat="48.57254" lon="-3.81487">
        <ele>13.2</ele>
        <time>2020-08-16T14:31:48Z</time>
      </trkpt>
      <trkpt lat="48.57281" lon="-3.81542">
        <ele>15.7</ele>
        <time>2020-08-16T14:31:57Z</time>
      </trkpt>
      <trkpt lat="48.57286" lon="-3.81553">
        <ele>16</ele>
        <time>2020-08-16T14:31:59Z</time>
      </trkpt>
      <trkpt lat="48.57305" lon="-3.8159">
        <ele>20.9</ele>
        <time>2020-08-16T14:32:06Z</time>
      </trkpt>
      <trkpt lat="48.57314" lon="-3.81605">
        <ele>21.2</ele>
        <time>2020-08-16T14:32:09Z</time>
      </trkpt>
      <trkpt lat="48.57334" lon="-3.8162">
        <ele>18.5</ele>
        <time>2020-08-16T14:32:14Z</time>
      </trkpt>
      <trkpt lat="48.57375" lon="-3.81637">
        <ele>18.6</ele>
        <time>2020-08-16T14:32:24Z</time>
      </trkpt>
      <trkpt lat="48.57401" lon="-3.81654">
        <ele>17.5</ele>
        <time>2020-08-16T14:32:32Z</time>
      </trkpt>
      <trkpt lat="48.57418" lon="-3.81675">
        <ele>17.5</ele>
        <time>2020-08-16T14:32:40Z</time>
      </trkpt>
      <trkpt lat="48.57438" lon="-3.81712">
        <ele>21.1</ele>
        <time>2020-08-16T14:32:47Z</time>
      </trkpt>
      <trkpt lat="48.57444" lon="-3.81722">
        <ele>21.5</ele>
        <time>2020-08-16T14:32:49Z</time>
      </trkpt>
      <trkpt lat="48.57458" lon="-3.81747">
        <ele>21.3</ele>
        <time>2020-08-16T14:32:54Z</time>
      </trkpt>
      <trkpt lat="48.57478" lon="-3.8179">
        <ele>23.8</ele>
        <time>2020-08-16T14:33:02Z</time>
      </trkpt>
      <trkpt lat="48.57478" lon="-3.81795">
        <ele>23.9</ele>
        <time>2020-08-16T14:33:03Z</time>
      </trkpt>
      <trkpt lat="48.57486" lon="-3.81846">
        <ele>25.1</ele>
        <time>2020-08-16T14:33:11Z</time>
      </trkpt>
      <trkpt lat="48.5749" lon="-3.81896">
        <ele>27.1</ele>
        <time>2020-08-16T14:33:20Z</time>
      </trkpt>
      <trkpt lat="48.57494" lon="-3.81942">
        <ele>28.8</ele>
        <time>2020-08-16T14:33:28Z</time>
      </trkpt>
      <trkpt lat="48.57503" lon="-3.81984">
        <ele>24.5</ele>
        <time>2020-08-16T14:33:36Z</time>
      </trkpt>
      <trkpt lat="48.57508" lon="-3.82004">
        <ele>24.7</ele>
        <time>2020-08-16T14:33:40Z</time>
      </trkpt>
      <trkpt lat="48.5752" lon="-3.82049">
        <ele>21.9</ele>
        <time>2020-08-16T14:33:47Z</time>
      </trkpt>
      <trkpt lat="48.57526" lon="-3.82072">
        <ele>21.4</ele>
        <time>2020-08-16T14:33:52Z</time>
      </trkpt>
      <trkpt lat="48.57544" lon="-3.82122">
        <ele>18.8</ele>
        <time>2020-08-16T14:33:58Z</time>
      </trkpt>
      <trkpt lat="48.57544" lon="-3.82122">
        <ele>18.8</ele>
        <time>2020-08-16T14:34:03Z</time>
      </trkpt>
      <trkpt lat="48.57544" lon="-3.82122">
        <ele>18.8</ele>
        <time>2020-08-16T14:34:04Z</time>
      </trkpt>
      <trkpt lat="48.57547" lon="-3.82171">
        <ele>18.1</ele>
        <time>2020-08-16T14:34:10Z</time>
      </trkpt>
      <trkpt lat="48.57547" lon="-3.82171">
        <ele>18.1</ele>
        <time>2020-08-16T14:34:12Z</time>
      </trkpt>
      <trkpt lat="48.57547" lon="-3.82171">
        <ele>18.1</ele>
        <time>2020-08-16T14:34:52Z</time>
      </trkpt>
      <trkpt lat="48.57559" lon="-3.82213">
        <ele>18.2</ele>
        <time>2020-08-16T14:34:56Z</time>
      </trkpt>
      <trkpt lat="48.57563" lon="-3.82234">
        <ele>18</ele>
        <time>2020-08-16T14:35:00Z</time>
      </trkpt>
      <trkpt lat="48.57575" lon="-3.82284">
        <ele>18.6</ele>
        <time>2020-08-16T14:35:08Z</time>
      </trkpt>
      <trkpt lat="48.57593" lon="-3.82355">
        <ele>16.6</ele>
        <time>2020-08-16T14:35:19Z</time>
      </trkpt>
      <trkpt lat="48.57606" lon="-3.82414">
        <ele>17.8</ele>
        <time>2020-08-16T14:35:28Z</time>
      </trkpt>
      <trkpt lat="48.57618" lon="-3.82469">
        <ele>18.6</ele>
        <time>2020-08-16T14:35:37Z</time>
      </trkpt>
      <trkpt lat="48.57625" lon="-3.82494">
        <ele>18.5</ele>
        <time>2020-08-16T14:35:43Z</time>
      </trkpt>
      <trkpt lat="48.57629" lon="-3.82507">
        <ele>19.6</ele>
        <time>2020-08-16T14:35:48Z</time>
      </trkpt>
      <trkpt lat="48.57629" lon="-3.82507">
        <ele>19.6</ele>
        <time>2020-08-16T14:35:53Z</time>
      </trkpt>
      <trkpt lat="48.57673" lon="-3.82562">
        <ele>18.2</ele>
        <time>2020-08-16T14:35:59Z</time>
      </trkpt>
      <trkpt lat="48.57677" lon="-3.82569">
        <ele>18.2</ele>
        <time>2020-08-16T14:36:00Z</time>
      </trkpt>
      <trkpt lat="48.57709" lon="-3.82631">
        <ele>18.3</ele>
        <time>2020-08-16T14:36:09Z</time>
      </trkpt>
      <trkpt lat="48.57734" lon="-3.82682">
        <ele>17.2</ele>
        <time>2020-08-16T14:36:17Z</time>
      </trkpt>
      <trkpt lat="48.57749" lon="-3.82714">
        <ele>17</ele>
        <time>2020-08-16T14:36:23Z</time>
      </trkpt>
      <trkpt lat="48.57772" lon="-3.82767">
        <ele>14.7</ele>
        <time>2020-08-16T14:36:33Z</time>
      </trkpt>
      <trkpt lat="48.57792" lon="-3.82805">
        <ele>13.9</ele>
        <time>2020-08-16T14:36:40Z</time>
      </trkpt>
      <trkpt lat="48.57801" lon="-3.82823">
        <ele>13.4</ele>
        <time>2020-08-16T14:36:43Z</time>
      </trkpt>
      <trkpt lat="48.57827" lon="-3.82871">
        <ele>14.3</ele>
        <time>2020-08-16T14:36:52Z</time>
      </trkpt>
      <trkpt lat="48.57847" lon="-3.82893">
        <ele>15.4</ele>
        <time>2020-08-16T14:36:58Z</time>
      </trkpt>
      <trkpt lat="48.57877" lon="-3.8291">
        <ele>15.8</ele>
        <time>2020-08-16T14:37:06Z</time>
      </trkpt>
      <trkpt lat="48.57894" lon="-3.82921">
        <ele>18.1</ele>
        <time>2020-08-16T14:37:14Z</time>
      </trkpt>
      <trkpt lat="48.57935" lon="-3.82945">
        <ele>16.2</ele>
        <time>2020-08-16T14:37:21Z</time>
      </trkpt>
      <trkpt lat="48.57967" lon="-3.82965">
        <ele>15.6</ele>
        <time>2020-08-16T14:37:29Z</time>
      </trkpt>
      <trkpt lat="48.57992" lon="-3.82981">
        <ele>13.6</ele>
        <time>2020-08-16T14:37:35Z</time>
      </trkpt>
      <trkpt lat="48.58029" lon="-3.83003">
        <ele>13.9</ele>
        <time>2020-08-16T14:37:44Z</time>
      </trkpt>
      <trkpt lat="48.58033" lon="-3.83006">
        <ele>14.3</ele>
        <time>2020-08-16T14:37:45Z</time>
      </trkpt>
      <trkpt lat="48.58037" lon="-3.83009">
        <ele>14.6</ele>
        <time>2020-08-16T14:37:51Z</time>
      </trkpt>
      <trkpt lat="48.58085" lon="-3.83059">
        <ele>17.1</ele>
        <time>2020-08-16T14:37:59Z</time>
      </trkpt>
      <trkpt lat="48.58105" lon="-3.83089">
        <ele>13.9</ele>
        <time>2020-08-16T14:38:05Z</time>
      </trkpt>
      <trkpt lat="48.58132" lon="-3.8313">
        <ele>13.9</ele>
        <time>2020-08-16T14:38:14Z</time>
      </trkpt>
      <trkpt lat="48.58148" lon="-3.83163">
        <ele>12.3</ele>
        <time>2020-08-16T14:38:21Z</time>
      </trkpt>
      <trkpt lat="48.5815" lon="-3.83167">
        <ele>12.8</ele>
        <time>2020-08-16T14:38:26Z</time>
      </trkpt>
      <trkpt lat="48.58157" lon="-3.83202">
        <ele>14.1</ele>
        <time>2020-08-16T14:38:31Z</time>
      </trkpt>
      <trkpt lat="48.58153" lon="-3.83216">
        <ele>14.4</ele>
        <time>2020-08-16T14:38:33Z</time>
      </trkpt>
      <trkpt lat="48.58158" lon="-3.83241">
        <ele>12.7</ele>
        <time>2020-08-16T14:38:37Z</time>
      </trkpt>
      <trkpt lat="48.58166" lon="-3.83256">
        <ele>12.5</ele>
        <time>2020-08-16T14:38:40Z</time>
      </trkpt>
      <trkpt lat="48.58198" lon="-3.83306">
        <ele>12.5</ele>
        <time>2020-08-16T14:38:51Z</time>
      </trkpt>
      <trkpt lat="48.58233" lon="-3.83343">
        <ele>13.8</ele>
        <time>2020-08-16T14:39:01Z</time>
      </trkpt>
      <trkpt lat="48.58272" lon="-3.83379">
        <ele>12.4</ele>
        <time>2020-08-16T14:39:12Z</time>
      </trkpt>
      <trkpt lat="48.58299" lon="-3.83402">
        <ele>11.5</ele>
        <time>2020-08-16T14:39:20Z</time>
      </trkpt>
      <trkpt lat="48.58321" lon="-3.83421">
        <ele>10.7</ele>
        <time>2020-08-16T14:39:27Z</time>
      </trkpt>
      <trkpt lat="48.58348" lon="-3.83445">
        <ele>8.4</ele>
        <time>2020-08-16T14:39:36Z</time>
      </trkpt>
      <trkpt lat="48.58371" lon="-3.83464">
        <ele>8.4</ele>
        <time>2020-08-16T14:39:43Z</time>
      </trkpt>
      <trkpt lat="48.58394" lon="-3.83483">
        <ele>8</ele>
        <time>2020-08-16T14:39:50Z</time>
      </trkpt>
      <trkpt lat="48.58416" lon="-3.83505">
        <ele>7.6</ele>
        <time>2020-08-16T14:39:58Z</time>
      </trkpt>
      <trkpt lat="48.58422" lon="-3.83523">
        <ele>7.3</ele>
        <time>2020-08-16T14:40:03Z</time>
      </trkpt>
      <trkpt lat="48.58424" lon="-3.83548">
        <ele>7.6</ele>
        <time>2020-08-16T14:40:09Z</time>
      </trkpt>
      <trkpt lat="48.58424" lon="-3.83586">
        <ele>8.9</ele>
        <time>2020-08-16T14:40:16Z</time>
      </trkpt>
      <trkpt lat="48.58435" lon="-3.83615">
        <ele>9.2</ele>
        <time>2020-08-16T14:40:22Z</time>
      </trkpt>
      <trkpt lat="48.58454" lon="-3.83632">
        <ele>9.1</ele>
        <time>2020-08-16T14:40:29Z</time>
      </trkpt>
      <trkpt lat="48.58479" lon="-3.83647">
        <ele>8.3</ele>
        <time>2020-08-16T14:40:37Z</time>
      </trkpt>
      <trkpt lat="48.58492" lon="-3.83646">
        <ele>7.9</ele>
        <time>2020-08-16T14:40:41Z</time>
      </trkpt>
      <trkpt lat="48.58491" lon="-3.83645">
        <ele>7.9</ele>
        <time>2020-08-16T14:40:45Z</time>
      </trkpt>
      <trkpt lat="48.58495" lon="-3.83658">
        <ele>7.6</ele>
        <time>2020-08-16T14:40:46Z</time>
      </trkpt>
      <trkpt lat="48.58492" lon="-3.83661">
        <ele>7.6</ele>
        <time>2020-08-16T14:40:49Z</time>
      </trkpt>
      <trkpt lat="48.58489" lon="-3.83663">
        <ele>7.8</ele>
        <time>2020-08-16T14:40:53Z</time>
      </trkpt>
      <trkpt lat="48.58496" lon="-3.83659">
        <ele>7.5</ele>
        <time>2020-08-16T14:41:03Z</time>
      </trkpt>
      <trkpt lat="48.58516" lon="-3.83677">
        <ele>12.5</ele>
        <time>2020-08-16T14:41:10Z</time>
      </trkpt>
      <trkpt lat="48.58538" lon="-3.83696">
        <ele>16.2</ele>
        <time>2020-08-16T14:41:17Z</time>
      </trkpt>
      <trkpt lat="48.58555" lon="-3.83706">
        <ele>17.6</ele>
        <time>2020-08-16T14:41:22Z</time>
      </trkpt>
      <trkpt lat="48.58576" lon="-3.83709">
        <ele>18.3</ele>
        <time>2020-08-16T14:41:28Z</time>
      </trkpt>
      <trkpt lat="48.58599" lon="-3.83712">
        <ele>16.7</ele>
        <time>2020-08-16T14:41:34Z</time>
      </trkpt>
      <trkpt lat="48.58622" lon="-3.83723">
        <ele>16.4</ele>
        <time>2020-08-16T14:41:41Z</time>
      </trkpt>
      <trkpt lat="48.58649" lon="-3.83744">
        <ele>15.2</ele>
        <time>2020-08-16T14:41:49Z</time>
      </trkpt>
      <trkpt lat="48.58668" lon="-3.83758">
        <ele>14</ele>
        <time>2020-08-16T14:41:55Z</time>
      </trkpt>
      <trkpt lat="48.58686" lon="-3.83773">
        <ele>14</ele>
        <time>2020-08-16T14:42:01Z</time>
      </trkpt>
      <trkpt lat="48.58687" lon="-3.83813">
        <ele>16.3</ele>
        <time>2020-08-16T14:42:09Z</time>
      </trkpt>
      <trkpt lat="48.58686" lon="-3.83844">
        <ele>21.1</ele>
        <time>2020-08-16T14:42:16Z</time>
      </trkpt>
      <trkpt lat="48.58681" lon="-3.83874">
        <ele>21.5</ele>
        <time>2020-08-16T14:42:23Z</time>
      </trkpt>
      <trkpt lat="48.5867" lon="-3.83913">
        <ele>22</ele>
        <time>2020-08-16T14:42:33Z</time>
      </trkpt>
      <trkpt lat="48.58661" lon="-3.83943">
        <ele>29.4</ele>
        <time>2020-08-16T14:42:43Z</time>
      </trkpt>
      <trkpt lat="48.58651" lon="-3.83974">
        <ele>31.4</ele>
        <time>2020-08-16T14:42:54Z</time>
      </trkpt>
      <trkpt lat="48.58643" lon="-3.83998">
        <ele>31.7</ele>
        <time>2020-08-16T14:43:03Z</time>
      </trkpt>
      <trkpt lat="48.58638" lon="-3.84014">
        <ele>34</ele>
        <time>2020-08-16T14:43:09Z</time>
      </trkpt>
      <trkpt lat="48.5863" lon="-3.84037">
        <ele>35.4</ele>
        <time>2020-08-16T14:43:18Z</time>
      </trkpt>
      <trkpt lat="48.58624" lon="-3.84053">
        <ele>36</ele>
        <time>2020-08-16T14:43:25Z</time>
      </trkpt>
      <trkpt lat="48.58619" lon="-3.84069">
        <ele>36.5</ele>
        <time>2020-08-16T14:43:31Z</time>
      </trkpt>
      <trkpt lat="48.58613" lon="-3.84086">
        <ele>38.1</ele>
        <time>2020-08-16T14:43:37Z</time>
      </trkpt>
      <trkpt lat="48.58607" lon="-3.84105">
        <ele>38.1</ele>
        <time>2020-08-16T14:43:44Z</time>
      </trkpt>
      <trkpt lat="48.58602" lon="-3.84121">
        <ele>38</ele>
        <time>2020-08-16T14:43:51Z</time>
      </trkpt>
      <trkpt lat="48.58595" lon="-3.84142">
        <ele>37.8</ele>
        <time>2020-08-16T14:43:59Z</time>
      </trkpt>
      <trkpt lat="48.58588" lon="-3.84167">
        <ele>37.5</ele>
        <time>2020-08-16T14:44:08Z</time>
      </trkpt>
      <trkpt lat="48.58585" lon="-3.8419">
        <ele>38.7</ele>
        <time>2020-08-16T14:44:16Z</time>
      </trkpt>
      <trkpt lat="48.58584" lon="-3.84209">
        <ele>39.3</ele>
        <time>2020-08-16T14:44:23Z</time>
      </trkpt>
      <trkpt lat="48.58584" lon="-3.84213">
        <ele>39.3</ele>
        <time>2020-08-16T14:44:24Z</time>
      </trkpt>
      <trkpt lat="48.58584" lon="-3.84225">
        <ele>39.4</ele>
        <time>2020-08-16T14:44:29Z</time>
      </trkpt>
      <trkpt lat="48.58584" lon="-3.84242">
        <ele>39.3</ele>
        <time>2020-08-16T14:44:36Z</time>
      </trkpt>
      <trkpt lat="48.58584" lon="-3.84263">
        <ele>40.7</ele>
        <time>2020-08-16T14:44:44Z</time>
      </trkpt>
      <trkpt lat="48.5858" lon="-3.84286">
        <ele>40.1</ele>
        <time>2020-08-16T14:44:52Z</time>
      </trkpt>
      <trkpt lat="48.58579" lon="-3.84296">
        <ele>40.2</ele>
        <time>2020-08-16T14:44:58Z</time>
      </trkpt>
      <trkpt lat="48.58578" lon="-3.843">
        <ele>40.3</ele>
        <time>2020-08-16T14:45:02Z</time>
      </trkpt>
      <trkpt lat="48.58578" lon="-3.84301">
        <ele>40.3</ele>
        <time>2020-08-16T14:45:15Z</time>
      </trkpt>
      <trkpt lat="48.58576" lon="-3.84305">
        <ele>40.3</ele>
        <time>2020-08-16T14:45:19Z</time>
      </trkpt>
      <trkpt lat="48.58576" lon="-3.84305">
        <ele>40.3</ele>
        <time>2020-08-16T14:46:10Z</time>
      </trkpt>
      <trkpt lat="48.58574" lon="-3.8431">
        <ele>40.4</ele>
        <time>2020-08-16T14:46:14Z</time>
      </trkpt>
      <trkpt lat="48.58563" lon="-3.84333">
        <ele>40.4</ele>
        <time>2020-08-16T14:46:21Z</time>
      </trkpt>
      <trkpt lat="48.5855" lon="-3.84358">
        <ele>41.1</ele>
        <time>2020-08-16T14:46:28Z</time>
      </trkpt>
      <trkpt lat="48.58522" lon="-3.8439">
        <ele>41</ele>
        <time>2020-08-16T14:46:38Z</time>
      </trkpt>
      <trkpt lat="48.58494" lon="-3.84419">
        <ele>40.7</ele>
        <time>2020-08-16T14:46:48Z</time>
      </trkpt>
      <trkpt lat="48.58458" lon="-3.84456">
        <ele>42.8</ele>
        <time>2020-08-16T14:47:01Z</time>
      </trkpt>
      <trkpt lat="48.58435" lon="-3.84479">
        <ele>43</ele>
        <time>2020-08-16T14:47:10Z</time>
      </trkpt>
      <trkpt lat="48.58411" lon="-3.84504">
        <ele>44</ele>
        <time>2020-08-16T14:47:20Z</time>
      </trkpt>
      <trkpt lat="48.58389" lon="-3.84524">
        <ele>46.4</ele>
        <time>2020-08-16T14:47:30Z</time>
      </trkpt>
      <trkpt lat="48.58372" lon="-3.8454">
        <ele>47.1</ele>
        <time>2020-08-16T14:47:38Z</time>
      </trkpt>
      <trkpt lat="48.58354" lon="-3.84559">
        <ele>47.5</ele>
        <time>2020-08-16T14:47:47Z</time>
      </trkpt>
      <trkpt lat="48.5834" lon="-3.84575">
        <ele>47.7</ele>
        <time>2020-08-16T14:47:55Z</time>
      </trkpt>
      <trkpt lat="48.58328" lon="-3.84587">
        <ele>49</ele>
        <time>2020-08-16T14:48:01Z</time>
      </trkpt>
      <trkpt lat="48.58311" lon="-3.84603">
        <ele>51.1</ele>
        <time>2020-08-16T14:48:09Z</time>
      </trkpt>
      <trkpt lat="48.58291" lon="-3.84624">
        <ele>52.3</ele>
        <time>2020-08-16T14:48:20Z</time>
      </trkpt>
      <trkpt lat="48.58278" lon="-3.84637">
        <ele>52.8</ele>
        <time>2020-08-16T14:48:27Z</time>
      </trkpt>
      <trkpt lat="48.58264" lon="-3.84654">
        <ele>53.6</ele>
        <time>2020-08-16T14:48:36Z</time>
      </trkpt>
      <trkpt lat="48.58256" lon="-3.84671">
        <ele>55.1</ele>
        <time>2020-08-16T14:48:44Z</time>
      </trkpt>
      <trkpt lat="48.58263" lon="-3.84707">
        <ele>55.8</ele>
        <time>2020-08-16T14:48:54Z</time>
      </trkpt>
      <trkpt lat="48.58279" lon="-3.84729">
        <ele>56.1</ele>
        <time>2020-08-16T14:49:03Z</time>
      </trkpt>
      <trkpt lat="48.58297" lon="-3.84748">
        <ele>56.2</ele>
        <time>2020-08-16T14:49:12Z</time>
      </trkpt>
      <trkpt lat="48.58309" lon="-3.84761">
        <ele>59</ele>
        <time>2020-08-16T14:49:18Z</time>
      </trkpt>
      <trkpt lat="48.58325" lon="-3.84778">
        <ele>59.3</ele>
        <time>2020-08-16T14:49:26Z</time>
      </trkpt>
      <trkpt lat="48.58341" lon="-3.84793">
        <ele>58.9</ele>
        <time>2020-08-16T14:49:33Z</time>
      </trkpt>
      <trkpt lat="48.58359" lon="-3.84806">
        <ele>59.2</ele>
        <time>2020-08-16T14:49:40Z</time>
      </trkpt>
      <trkpt lat="48.58383" lon="-3.84817">
        <ele>59.1</ele>
        <time>2020-08-16T14:49:48Z</time>
      </trkpt>
      <trkpt lat="48.58397" lon="-3.84838">
        <ele>61.7</ele>
        <time>2020-08-16T14:49:54Z</time>
      </trkpt>
      <trkpt lat="48.58423" lon="-3.8485">
        <ele>61.6</ele>
        <time>2020-08-16T14:50:03Z</time>
      </trkpt>
      <trkpt lat="48.58441" lon="-3.84855">
        <ele>62.2</ele>
        <time>2020-08-16T14:50:09Z</time>
      </trkpt>
      <trkpt lat="48.58473" lon="-3.8486">
        <ele>62.5</ele>
        <time>2020-08-16T14:50:20Z</time>
      </trkpt>
      <trkpt lat="48.58495" lon="-3.84868">
        <ele>62.9</ele>
        <time>2020-08-16T14:50:28Z</time>
      </trkpt>
      <trkpt lat="48.58514" lon="-3.84883">
        <ele>65.3</ele>
        <time>2020-08-16T14:50:37Z</time>
      </trkpt>
      <trkpt lat="48.58532" lon="-3.84901">
        <ele>66.2</ele>
        <time>2020-08-16T14:50:47Z</time>
      </trkpt>
      <trkpt lat="48.58535" lon="-3.84905">
        <ele>66.3</ele>
        <time>2020-08-16T14:50:49Z</time>
      </trkpt>
      <trkpt lat="48.58537" lon="-3.84908">
        <ele>66.3</ele>
        <time>2020-08-16T14:50:54Z</time>
      </trkpt>
      <trkpt lat="48.58537" lon="-3.84908">
        <ele>66.3</ele>
        <time>2020-08-16T14:50:55Z</time>
      </trkpt>
      <trkpt lat="48.58521" lon="-3.84919">
        <ele>70.3</ele>
        <time>2020-08-16T14:51:03Z</time>
      </trkpt>
      <trkpt lat="48.58509" lon="-3.84926">
        <ele>70</ele>
        <time>2020-08-16T14:51:08Z</time>
      </trkpt>
      <trkpt lat="48.58509" lon="-3.84926">
        <ele>70</ele>
        <time>2020-08-16T14:51:10Z</time>
      </trkpt>
      <trkpt lat="48.58509" lon="-3.84926">
        <ele>70</ele>
        <time>2020-08-16T14:52:32Z</time>
      </trkpt>
      <trkpt lat="48.58502" lon="-3.84932">
        <ele>70.2</ele>
        <time>2020-08-16T14:52:42Z</time>
      </trkpt>
      <trkpt lat="48.58485" lon="-3.84943">
        <ele>70.4</ele>
        <time>2020-08-16T14:52:50Z</time>
      </trkpt>
      <trkpt lat="48.58469" lon="-3.84952">
        <ele>70.6</ele>
        <time>2020-08-16T14:52:57Z</time>
      </trkpt>
      <trkpt lat="48.58455" lon="-3.84962">
        <ele>70.9</ele>
        <time>2020-08-16T14:53:03Z</time>
      </trkpt>
      <trkpt lat="48.58432" lon="-3.84976">
        <ele>71.5</ele>
        <time>2020-08-16T14:53:13Z</time>
      </trkpt>
      <trkpt lat="48.5841" lon="-3.84991">
        <ele>72.4</ele>
        <time>2020-08-16T14:53:23Z</time>
      </trkpt>
      <trkpt lat="48.58394" lon="-3.85001">
        <ele>75.7</ele>
        <time>2020-08-16T14:53:31Z</time>
      </trkpt>
      <trkpt lat="48.58384" lon="-3.85007">
        <ele>76.1</ele>
        <time>2020-08-16T14:53:37Z</time>
      </trkpt>
      <trkpt lat="48.58366" lon="-3.85017">
        <ele>76.3</ele>
        <time>2020-08-16T14:53:47Z</time>
      </trkpt>
      <trkpt lat="48.58356" lon="-3.85021">
        <ele>76.3</ele>
        <time>2020-08-16T14:53:53Z</time>
      </trkpt>
      <trkpt lat="48.58343" lon="-3.85016">
        <ele>75.8</ele>
        <time>2020-08-16T14:53:58Z</time>
      </trkpt>
      <trkpt lat="48.58328" lon="-3.85025">
        <ele>76.7</ele>
        <time>2020-08-16T14:54:06Z</time>
      </trkpt>
      <trkpt lat="48.58309" lon="-3.85036">
        <ele>77.6</ele>
        <time>2020-08-16T14:54:17Z</time>
      </trkpt>
      <trkpt lat="48.58293" lon="-3.85045">
        <ele>78.1</ele>
        <time>2020-08-16T14:54:26Z</time>
      </trkpt>
      <trkpt lat="48.58278" lon="-3.85054">
        <ele>78.5</ele>
        <time>2020-08-16T14:54:34Z</time>
      </trkpt>
      <trkpt lat="48.58261" lon="-3.85063">
        <ele>79.2</ele>
        <time>2020-08-16T14:54:43Z</time>
      </trkpt>
      <trkpt lat="48.58243" lon="-3.85073">
        <ele>80.6</ele>
        <time>2020-08-16T14:54:52Z</time>
      </trkpt>
      <trkpt lat="48.58225" lon="-3.85084">
        <ele>83.4</ele>
        <time>2020-08-16T14:55:02Z</time>
      </trkpt>
      <trkpt lat="48.58206" lon="-3.85095">
        <ele>84.3</ele>
        <time>2020-08-16T14:55:12Z</time>
      </trkpt>
      <trkpt lat="48.58187" lon="-3.85107">
        <ele>84.8</ele>
        <time>2020-08-16T14:55:22Z</time>
      </trkpt>
      <trkpt lat="48.58173" lon="-3.8512">
        <ele>85.3</ele>
        <time>2020-08-16T14:55:30Z</time>
      </trkpt>
      <trkpt lat="48.58159" lon="-3.85131">
        <ele>86.6</ele>
        <time>2020-08-16T14:55:38Z</time>
      </trkpt>
      <trkpt lat="48.58151" lon="-3.85135">
        <ele>86.7</ele>
        <time>2020-08-16T14:55:43Z</time>
      </trkpt>
      <trkpt lat="48.58132" lon="-3.85146">
        <ele>86.8</ele>
        <time>2020-08-16T14:55:52Z</time>
      </trkpt>
      <trkpt lat="48.58114" lon="-3.85161">
        <ele>87</ele>
        <time>2020-08-16T14:56:01Z</time>
      </trkpt>
      <trkpt lat="48.58093" lon="-3.85173">
        <ele>88.4</ele>
        <time>2020-08-16T14:56:09Z</time>
      </trkpt>
      <trkpt lat="48.58064" lon="-3.85189">
        <ele>88.4</ele>
        <time>2020-08-16T14:56:20Z</time>
      </trkpt>
      <trkpt lat="48.58043" lon="-3.85201">
        <ele>88.5</ele>
        <time>2020-08-16T14:56:28Z</time>
      </trkpt>
      <trkpt lat="48.58025" lon="-3.85211">
        <ele>88.5</ele>
        <time>2020-08-16T14:56:35Z</time>
      </trkpt>
      <trkpt lat="48.58024" lon="-3.85212">
        <ele>88.5</ele>
        <time>2020-08-16T14:56:38Z</time>
      </trkpt>
      <trkpt lat="48.58016" lon="-3.85216">
        <ele>88.6</ele>
        <time>2020-08-16T14:56:43Z</time>
      </trkpt>
      <trkpt lat="48.58002" lon="-3.85224">
        <ele>88.6</ele>
        <time>2020-08-16T14:56:49Z</time>
      </trkpt>
      <trkpt lat="48.57992" lon="-3.85227">
        <ele>88.4</ele>
        <time>2020-08-16T14:56:54Z</time>
      </trkpt>
      <trkpt lat="48.57974" lon="-3.85238">
        <ele>88.2</ele>
        <time>2020-08-16T14:57:01Z</time>
      </trkpt>
      <trkpt lat="48.57959" lon="-3.85247">
        <ele>88</ele>
        <time>2020-08-16T14:57:09Z</time>
      </trkpt>
      <trkpt lat="48.57935" lon="-3.85261">
        <ele>87.5</ele>
        <time>2020-08-16T14:57:18Z</time>
      </trkpt>
      <trkpt lat="48.57906" lon="-3.85277">
        <ele>88.1</ele>
        <time>2020-08-16T14:57:29Z</time>
      </trkpt>
      <trkpt lat="48.57887" lon="-3.85289">
        <ele>88.5</ele>
        <time>2020-08-16T14:57:37Z</time>
      </trkpt>
      <trkpt lat="48.57878" lon="-3.85293">
        <ele>88.7</ele>
        <time>2020-08-16T14:57:41Z</time>
      </trkpt>
      <trkpt lat="48.57871" lon="-3.85298">
        <ele>88.8</ele>
        <time>2020-08-16T14:57:46Z</time>
      </trkpt>
      <trkpt lat="48.57867" lon="-3.85301">
        <ele>88.9</ele>
        <time>2020-08-16T14:57:52Z</time>
      </trkpt>
      <trkpt lat="48.57853" lon="-3.85309">
        <ele>89.2</ele>
        <time>2020-08-16T14:58:00Z</time>
      </trkpt>
      <trkpt lat="48.57835" lon="-3.85319">
        <ele>89.5</ele>
        <time>2020-08-16T14:58:08Z</time>
      </trkpt>
      <trkpt lat="48.57823" lon="-3.85326">
        <ele>90.1</ele>
        <time>2020-08-16T14:58:14Z</time>
      </trkpt>
      <trkpt lat="48.57809" lon="-3.85334">
        <ele>89.4</ele>
        <time>2020-08-16T14:58:20Z</time>
      </trkpt>
      <trkpt lat="48.57803" lon="-3.85347">
        <ele>89.3</ele>
        <time>2020-08-16T14:58:24Z</time>
      </trkpt>
      <trkpt lat="48.57803" lon="-3.85347">
        <ele>89.3</ele>
        <time>2020-08-16T14:58:25Z</time>
      </trkpt>
      <trkpt lat="48.57805" lon="-3.85349">
        <ele>89.3</ele>
        <time>2020-08-16T14:58:31Z</time>
      </trkpt>
      <trkpt lat="48.57812" lon="-3.85348">
        <ele>89.4</ele>
        <time>2020-08-16T14:58:35Z</time>
      </trkpt>
      <trkpt lat="48.57827" lon="-3.85351">
        <ele>89.5</ele>
        <time>2020-08-16T14:58:44Z</time>
      </trkpt>
      <trkpt lat="48.57823" lon="-3.85326">
        <ele>90.1</ele>
        <time>2020-08-16T14:58:49Z</time>
      </trkpt>
      <trkpt lat="48.57822" lon="-3.85327">
        <ele>90.1</ele>
        <time>2020-08-16T14:58:50Z</time>
      </trkpt>
      <trkpt lat="48.57815" lon="-3.85331">
        <ele>90.1</ele>
        <time>2020-08-16T14:58:55Z</time>
      </trkpt>
      <trkpt lat="48.57813" lon="-3.85354">
        <ele>89.3</ele>
        <time>2020-08-16T14:59:01Z</time>
      </trkpt>
      <trkpt lat="48.57814" lon="-3.85356">
        <ele>89.3</ele>
        <time>2020-08-16T14:59:02Z</time>
      </trkpt>
      <trkpt lat="48.57818" lon="-3.85371">
        <ele>89.2</ele>
        <time>2020-08-16T14:59:09Z</time>
      </trkpt>
      <trkpt lat="48.57821" lon="-3.85383">
        <ele>89.1</ele>
        <time>2020-08-16T14:59:15Z</time>
      </trkpt>
      <trkpt lat="48.57823" lon="-3.85391">
        <ele>89.1</ele>
        <time>2020-08-16T14:59:21Z</time>
      </trkpt>
      <trkpt lat="48.57834" lon="-3.85411">
        <ele>88.9</ele>
        <time>2020-08-16T14:59:27Z</time>
      </trkpt>
      <trkpt lat="48.57849" lon="-3.85432">
        <ele>89</ele>
        <time>2020-08-16T14:59:33Z</time>
      </trkpt>
      <trkpt lat="48.57858" lon="-3.85437">
        <ele>88.9</ele>
        <time>2020-08-16T14:59:34Z</time>
      </trkpt>
      <trkpt lat="48.57858" lon="-3.85437">
        <ele>88.9</ele>
        <time>2020-08-16T14:59:35Z</time>
      </trkpt>
      <trkpt lat="48.57858" lon="-3.85437">
        <ele>88.9</ele>
        <time>2020-08-16T14:59:39Z</time>
      </trkpt>
      <trkpt lat="48.57867" lon="-3.85433">
        <ele>88.9</ele>
        <time>2020-08-16T14:59:43Z</time>
      </trkpt>
      <trkpt lat="48.57881" lon="-3.85438">
        <ele>88.9</ele>
        <time>2020-08-16T14:59:47Z</time>
      </trkpt>
      <trkpt lat="48.57909" lon="-3.85459">
        <ele>89</ele>
        <time>2020-08-16T14:59:56Z</time>
      </trkpt>
      <trkpt lat="48.57928" lon="-3.8547">
        <ele>89.2</ele>
        <time>2020-08-16T15:00:02Z</time>
      </trkpt>
      <trkpt lat="48.57954" lon="-3.85481">
        <ele>89.3</ele>
        <time>2020-08-16T15:00:09Z</time>
      </trkpt>
      <trkpt lat="48.57988" lon="-3.85496">
        <ele>89.6</ele>
        <time>2020-08-16T15:00:17Z</time>
      </trkpt>
      <trkpt lat="48.5801" lon="-3.85508">
        <ele>90.4</ele>
        <time>2020-08-16T15:00:23Z</time>
      </trkpt>
      <trkpt lat="48.58035" lon="-3.85525">
        <ele>90.7</ele>
        <time>2020-08-16T15:00:30Z</time>
      </trkpt>
      <trkpt lat="48.58055" lon="-3.85542">
        <ele>91</ele>
        <time>2020-08-16T15:00:36Z</time>
      </trkpt>
      <trkpt lat="48.58079" lon="-3.85558">
        <ele>91.6</ele>
        <time>2020-08-16T15:00:43Z</time>
      </trkpt>
      <trkpt lat="48.58112" lon="-3.85575">
        <ele>91.6</ele>
        <time>2020-08-16T15:00:52Z</time>
      </trkpt>
      <trkpt lat="48.5814" lon="-3.85587">
        <ele>91.4</ele>
        <time>2020-08-16T15:01:00Z</time>
      </trkpt>
      <trkpt lat="48.58164" lon="-3.85598">
        <ele>91.2</ele>
        <time>2020-08-16T15:01:07Z</time>
      </trkpt>
      <trkpt lat="48.58164" lon="-3.85615">
        <ele>91.2</ele>
        <time>2020-08-16T15:01:12Z</time>
      </trkpt>
      <trkpt lat="48.58159" lon="-3.85657">
        <ele>90.6</ele>
        <time>2020-08-16T15:01:19Z</time>
      </trkpt>
      <trkpt lat="48.5815" lon="-3.85699">
        <ele>88.6</ele>
        <time>2020-08-16T15:01:25Z</time>
      </trkpt>
      <trkpt lat="48.58149" lon="-3.85735">
        <ele>87.1</ele>
        <time>2020-08-16T15:01:29Z</time>
      </trkpt>
      <trkpt lat="48.58153" lon="-3.85738">
        <ele>86.8</ele>
        <time>2020-08-16T15:01:30Z</time>
      </trkpt>
      <trkpt lat="48.58186" lon="-3.85765">
        <ele>84.6</ele>
        <time>2020-08-16T15:01:38Z</time>
      </trkpt>
      <trkpt lat="48.58226" lon="-3.85798">
        <ele>84.4</ele>
        <time>2020-08-16T15:01:47Z</time>
      </trkpt>
      <trkpt lat="48.58253" lon="-3.85822">
        <ele>85.3</ele>
        <time>2020-08-16T15:01:54Z</time>
      </trkpt>
      <trkpt lat="48.58281" lon="-3.85864">
        <ele>84.4</ele>
        <time>2020-08-16T15:02:03Z</time>
      </trkpt>
      <trkpt lat="48.58312" lon="-3.85902">
        <ele>84.6</ele>
        <time>2020-08-16T15:02:12Z</time>
      </trkpt>
      <trkpt lat="48.58346" lon="-3.85935">
        <ele>84.6</ele>
        <time>2020-08-16T15:02:21Z</time>
      </trkpt>
      <trkpt lat="48.58355" lon="-3.85941">
        <ele>84.5</ele>
        <time>2020-08-16T15:02:23Z</time>
      </trkpt>
      <trkpt lat="48.58386" lon="-3.85957">
        <ele>84.7</ele>
        <time>2020-08-16T15:02:31Z</time>
      </trkpt>
      <trkpt lat="48.58412" lon="-3.8597">
        <ele>84.9</ele>
        <time>2020-08-16T15:02:40Z</time>
      </trkpt>
      <trkpt lat="48.58436" lon="-3.85993">
        <ele>86.2</ele>
        <time>2020-08-16T15:02:49Z</time>
      </trkpt>
      <trkpt lat="48.58466" lon="-3.86032">
        <ele>85.6</ele>
        <time>2020-08-16T15:03:01Z</time>
      </trkpt>
      <trkpt lat="48.58487" lon="-3.86065">
        <ele>85.6</ele>
        <time>2020-08-16T15:03:11Z</time>
      </trkpt>
      <trkpt lat="48.585" lon="-3.86089">
        <ele>86.1</ele>
        <time>2020-08-16T15:03:19Z</time>
      </trkpt>
      <trkpt lat="48.58523" lon="-3.86126">
        <ele>86.3</ele>
        <time>2020-08-16T15:03:31Z</time>
      </trkpt>
      <trkpt lat="48.58544" lon="-3.8616">
        <ele>86.4</ele>
        <time>2020-08-16T15:03:40Z</time>
      </trkpt>
      <trkpt lat="48.58561" lon="-3.862">
        <ele>86.1</ele>
        <time>2020-08-16T15:03:48Z</time>
      </trkpt>
      <trkpt lat="48.5857" lon="-3.86221">
        <ele>86.4</ele>
        <time>2020-08-16T15:03:52Z</time>
      </trkpt>
      <trkpt lat="48.58586" lon="-3.86262">
        <ele>88.1</ele>
        <time>2020-08-16T15:04:00Z</time>
      </trkpt>
      <trkpt lat="48.58597" lon="-3.86291">
        <ele>88</ele>
        <time>2020-08-16T15:04:06Z</time>
      </trkpt>
      <trkpt lat="48.58609" lon="-3.86324">
        <ele>87.8</ele>
        <time>2020-08-16T15:04:13Z</time>
      </trkpt>
      <trkpt lat="48.58611" lon="-3.86327">
        <ele>87.8</ele>
        <time>2020-08-16T15:04:14Z</time>
      </trkpt>
      <trkpt lat="48.58613" lon="-3.86333">
        <ele>87.8</ele>
        <time>2020-08-16T15:04:20Z</time>
      </trkpt>
      <trkpt lat="48.58613" lon="-3.86332">
        <ele>87.8</ele>
        <time>2020-08-16T15:04:25Z</time>
      </trkpt>
      <trkpt lat="48.58607" lon="-3.86337">
        <ele>87.3</ele>
        <time>2020-08-16T15:04:49Z</time>
      </trkpt>
      <trkpt lat="48.58586" lon="-3.86357">
        <ele>87.2</ele>
        <time>2020-08-16T15:04:56Z</time>
      </trkpt>
      <trkpt lat="48.58561" lon="-3.86383">
        <ele>83.9</ele>
        <time>2020-08-16T15:05:02Z</time>
      </trkpt>
      <trkpt lat="48.58531" lon="-3.86422">
        <ele>81.4</ele>
        <time>2020-08-16T15:05:08Z</time>
      </trkpt>
      <trkpt lat="48.58514" lon="-3.86455">
        <ele>80.7</ele>
        <time>2020-08-16T15:05:12Z</time>
      </trkpt>
      <trkpt lat="48.58491" lon="-3.86509">
        <ele>75.6</ele>
        <time>2020-08-16T15:05:18Z</time>
      </trkpt>
      <trkpt lat="48.58475" lon="-3.86537">
        <ele>74.2</ele>
        <time>2020-08-16T15:05:21Z</time>
      </trkpt>
      <trkpt lat="48.58451" lon="-3.86577">
        <ele>73.2</ele>
        <time>2020-08-16T15:05:25Z</time>
      </trkpt>
      <trkpt lat="48.58421" lon="-3.86614">
        <ele>72.6</ele>
        <time>2020-08-16T15:05:29Z</time>
      </trkpt>
      <trkpt lat="48.58357" lon="-3.8668">
        <ele>61.5</ele>
        <time>2020-08-16T15:05:36Z</time>
      </trkpt>
      <trkpt lat="48.58306" lon="-3.86738">
        <ele>54.4</ele>
        <time>2020-08-16T15:05:42Z</time>
      </trkpt>
      <trkpt lat="48.5827" lon="-3.86778">
        <ele>51.1</ele>
        <time>2020-08-16T15:05:47Z</time>
      </trkpt>
      <trkpt lat="48.58258" lon="-3.86791">
        <ele>50.7</ele>
        <time>2020-08-16T15:05:49Z</time>
      </trkpt>
      <trkpt lat="48.58238" lon="-3.8682">
        <ele>46.7</ele>
        <time>2020-08-16T15:05:53Z</time>
      </trkpt>
      <trkpt lat="48.58241" lon="-3.86827">
        <ele>46.8</ele>
        <time>2020-08-16T15:05:54Z</time>
      </trkpt>
      <trkpt lat="48.58263" lon="-3.86888">
        <ele>47.8</ele>
        <time>2020-08-16T15:06:02Z</time>
      </trkpt>
      <trkpt lat="48.58269" lon="-3.86904">
        <ele>47.3</ele>
        <time>2020-08-16T15:06:04Z</time>
      </trkpt>
      <trkpt lat="48.58275" lon="-3.8692">
        <ele>45.9</ele>
        <time>2020-08-16T15:06:06Z</time>
      </trkpt>
      <trkpt lat="48.58299" lon="-3.87004">
        <ele>44.3</ele>
        <time>2020-08-16T15:06:16Z</time>
      </trkpt>
      <trkpt lat="48.58301" lon="-3.87013">
        <ele>44.3</ele>
        <time>2020-08-16T15:06:17Z</time>
      </trkpt>
      <trkpt lat="48.58314" lon="-3.87035">
        <ele>44.2</ele>
        <time>2020-08-16T15:06:20Z</time>
      </trkpt>
      <trkpt lat="48.58318" lon="-3.87059">
        <ele>43.8</ele>
        <time>2020-08-16T15:06:24Z</time>
      </trkpt>
      <trkpt lat="48.58316" lon="-3.87089">
        <ele>42.4</ele>
        <time>2020-08-16T15:06:27Z</time>
      </trkpt>
      <trkpt lat="48.58317" lon="-3.87143">
        <ele>41.1</ele>
        <time>2020-08-16T15:06:34Z</time>
      </trkpt>
      <trkpt lat="48.58315" lon="-3.87158">
        <ele>41.2</ele>
        <time>2020-08-16T15:06:36Z</time>
      </trkpt>
      <trkpt lat="48.58301" lon="-3.87203">
        <ele>38.6</ele>
        <time>2020-08-16T15:06:45Z</time>
      </trkpt>
      <trkpt lat="48.58284" lon="-3.87231">
        <ele>37.8</ele>
        <time>2020-08-16T15:06:52Z</time>
      </trkpt>
      <trkpt lat="48.58262" lon="-3.87265">
        <ele>37</ele>
        <time>2020-08-16T15:07:01Z</time>
      </trkpt>
      <trkpt lat="48.58242" lon="-3.87297">
        <ele>37.3</ele>
        <time>2020-08-16T15:07:08Z</time>
      </trkpt>
      <trkpt lat="48.58232" lon="-3.87315">
        <ele>37.8</ele>
        <time>2020-08-16T15:07:11Z</time>
      </trkpt>
      <trkpt lat="48.5822" lon="-3.87349">
        <ele>40.8</ele>
        <time>2020-08-16T15:07:15Z</time>
      </trkpt>
      <trkpt lat="48.58223" lon="-3.87396">
        <ele>41.9</ele>
        <time>2020-08-16T15:07:21Z</time>
      </trkpt>
      <trkpt lat="48.58226" lon="-3.87401">
        <ele>41.8</ele>
        <time>2020-08-16T15:07:22Z</time>
      </trkpt>
      <trkpt lat="48.58247" lon="-3.87431">
        <ele>44</ele>
        <time>2020-08-16T15:07:30Z</time>
      </trkpt>
      <trkpt lat="48.58258" lon="-3.87452">
        <ele>43</ele>
        <time>2020-08-16T15:07:37Z</time>
      </trkpt>
      <trkpt lat="48.58266" lon="-3.8748">
        <ele>44.6</ele>
        <time>2020-08-16T15:07:45Z</time>
      </trkpt>
      <trkpt lat="48.58273" lon="-3.87516">
        <ele>48.2</ele>
        <time>2020-08-16T15:07:55Z</time>
      </trkpt>
      <trkpt lat="48.58276" lon="-3.87552">
        <ele>49.1</ele>
        <time>2020-08-16T15:08:06Z</time>
      </trkpt>
      <trkpt lat="48.58278" lon="-3.87588">
        <ele>51.8</ele>
        <time>2020-08-16T15:08:17Z</time>
      </trkpt>
      <trkpt lat="48.58278" lon="-3.87622">
        <ele>52.1</ele>
        <time>2020-08-16T15:08:27Z</time>
      </trkpt>
      <trkpt lat="48.58278" lon="-3.87651">
        <ele>52.5</ele>
        <time>2020-08-16T15:08:36Z</time>
      </trkpt>
      <trkpt lat="48.58276" lon="-3.87677">
        <ele>54.2</ele>
        <time>2020-08-16T15:08:44Z</time>
      </trkpt>
      <trkpt lat="48.58272" lon="-3.87697">
        <ele>54.5</ele>
        <time>2020-08-16T15:08:51Z</time>
      </trkpt>
      <trkpt lat="48.58265" lon="-3.87718">
        <ele>55</ele>
        <time>2020-08-16T15:08:59Z</time>
      </trkpt>
      <trkpt lat="48.58255" lon="-3.87742">
        <ele>56.2</ele>
        <time>2020-08-16T15:09:09Z</time>
      </trkpt>
      <trkpt lat="48.58246" lon="-3.87758">
        <ele>57.8</ele>
        <time>2020-08-16T15:09:17Z</time>
      </trkpt>
      <trkpt lat="48.58231" lon="-3.87781">
        <ele>59</ele>
        <time>2020-08-16T15:09:28Z</time>
      </trkpt>
      <trkpt lat="48.58222" lon="-3.87798">
        <ele>59.4</ele>
        <time>2020-08-16T15:09:35Z</time>
      </trkpt>
      <trkpt lat="48.58215" lon="-3.87821">
        <ele>59.7</ele>
        <time>2020-08-16T15:09:43Z</time>
      </trkpt>
      <trkpt lat="48.5821" lon="-3.87842">
        <ele>61.4</ele>
        <time>2020-08-16T15:09:50Z</time>
      </trkpt>
      <trkpt lat="48.58207" lon="-3.87863">
        <ele>61.8</ele>
        <time>2020-08-16T15:09:57Z</time>
      </trkpt>
      <trkpt lat="48.58207" lon="-3.8789">
        <ele>62.3</ele>
        <time>2020-08-16T15:10:05Z</time>
      </trkpt>
      <trkpt lat="48.58212" lon="-3.8792">
        <ele>65.2</ele>
        <time>2020-08-16T15:10:14Z</time>
      </trkpt>
      <trkpt lat="48.58221" lon="-3.87945">
        <ele>65.7</ele>
        <time>2020-08-16T15:10:22Z</time>
      </trkpt>
      <trkpt lat="48.58237" lon="-3.8797">
        <ele>66.7</ele>
        <time>2020-08-16T15:10:32Z</time>
      </trkpt>
      <trkpt lat="48.58256" lon="-3.87989">
        <ele>67.7</ele>
        <time>2020-08-16T15:10:42Z</time>
      </trkpt>
      <trkpt lat="48.58276" lon="-3.87998">
        <ele>67.2</ele>
        <time>2020-08-16T15:10:51Z</time>
      </trkpt>
      <trkpt lat="48.58291" lon="-3.88">
        <ele>67.2</ele>
        <time>2020-08-16T15:10:58Z</time>
      </trkpt>
      <trkpt lat="48.58314" lon="-3.88">
        <ele>67.9</ele>
        <time>2020-08-16T15:11:08Z</time>
      </trkpt>
      <trkpt lat="48.58336" lon="-3.87998">
        <ele>69.8</ele>
        <time>2020-08-16T15:11:18Z</time>
      </trkpt>
      <trkpt lat="48.58357" lon="-3.87997">
        <ele>69.5</ele>
        <time>2020-08-16T15:11:27Z</time>
      </trkpt>
      <trkpt lat="48.58386" lon="-3.87997">
        <ele>70.5</ele>
        <time>2020-08-16T15:11:40Z</time>
      </trkpt>
      <trkpt lat="48.58407" lon="-3.87996">
        <ele>72.2</ele>
        <time>2020-08-16T15:11:49Z</time>
      </trkpt>
      <trkpt lat="48.58429" lon="-3.87995">
        <ele>74.1</ele>
        <time>2020-08-16T15:11:59Z</time>
      </trkpt>
      <trkpt lat="48.58447" lon="-3.87994">
        <ele>74.6</ele>
        <time>2020-08-16T15:12:07Z</time>
      </trkpt>
      <trkpt lat="48.58467" lon="-3.87994">
        <ele>75.5</ele>
        <time>2020-08-16T15:12:16Z</time>
      </trkpt>
      <trkpt lat="48.58485" lon="-3.88">
        <ele>76.9</ele>
        <time>2020-08-16T15:12:25Z</time>
      </trkpt>
      <trkpt lat="48.58493" lon="-3.88008">
        <ele>78.8</ele>
        <time>2020-08-16T15:12:31Z</time>
      </trkpt>
      <trkpt lat="48.58497" lon="-3.8802">
        <ele>78.8</ele>
        <time>2020-08-16T15:12:39Z</time>
      </trkpt>
      <trkpt lat="48.58497" lon="-3.88041">
        <ele>79</ele>
        <time>2020-08-16T15:12:46Z</time>
      </trkpt>
      <trkpt lat="48.58496" lon="-3.88063">
        <ele>79.7</ele>
        <time>2020-08-16T15:12:53Z</time>
      </trkpt>
      <trkpt lat="48.58495" lon="-3.88093">
        <ele>81.4</ele>
        <time>2020-08-16T15:13:02Z</time>
      </trkpt>
      <trkpt lat="48.58492" lon="-3.8813">
        <ele>82.5</ele>
        <time>2020-08-16T15:13:13Z</time>
      </trkpt>
      <trkpt lat="48.58491" lon="-3.88163">
        <ele>83.5</ele>
        <time>2020-08-16T15:13:23Z</time>
      </trkpt>
      <trkpt lat="48.58493" lon="-3.88196">
        <ele>85</ele>
        <time>2020-08-16T15:13:32Z</time>
      </trkpt>
      <trkpt lat="48.58495" lon="-3.8822">
        <ele>85.7</ele>
        <time>2020-08-16T15:13:39Z</time>
      </trkpt>
      <trkpt lat="48.58503" lon="-3.88248">
        <ele>86.8</ele>
        <time>2020-08-16T15:13:47Z</time>
      </trkpt>
      <trkpt lat="48.58512" lon="-3.8828">
        <ele>87</ele>
        <time>2020-08-16T15:13:56Z</time>
      </trkpt>
      <trkpt lat="48.58524" lon="-3.88322">
        <ele>87</ele>
        <time>2020-08-16T15:14:06Z</time>
      </trkpt>
      <trkpt lat="48.58535" lon="-3.88359">
        <ele>86.8</ele>
        <time>2020-08-16T15:14:14Z</time>
      </trkpt>
      <trkpt lat="48.58542" lon="-3.88387">
        <ele>86.7</ele>
        <time>2020-08-16T15:14:20Z</time>
      </trkpt>
      <trkpt lat="48.58555" lon="-3.88432">
        <ele>86.4</ele>
        <time>2020-08-16T15:14:30Z</time>
      </trkpt>
      <trkpt lat="48.58559" lon="-3.88443">
        <ele>86.4</ele>
        <time>2020-08-16T15:14:34Z</time>
      </trkpt>
      <trkpt lat="48.58562" lon="-3.88455">
        <ele>86.4</ele>
        <time>2020-08-16T15:14:40Z</time>
      </trkpt>
      <trkpt lat="48.58564" lon="-3.8846">
        <ele>86.4</ele>
        <time>2020-08-16T15:14:44Z</time>
      </trkpt>
      <trkpt lat="48.58568" lon="-3.88471">
        <ele>86.3</ele>
        <time>2020-08-16T15:16:26Z</time>
      </trkpt>
      <trkpt lat="48.58581" lon="-3.8851">
        <ele>86.2</ele>
        <time>2020-08-16T15:16:36Z</time>
      </trkpt>
      <trkpt lat="48.58593" lon="-3.88541">
        <ele>85.7</ele>
        <time>2020-08-16T15:16:42Z</time>
      </trkpt>
      <trkpt lat="48.58608" lon="-3.88585">
        <ele>84.8</ele>
        <time>2020-08-16T15:16:48Z</time>
      </trkpt>
      <trkpt lat="48.58622" lon="-3.88643">
        <ele>83.8</ele>
        <time>2020-08-16T15:16:54Z</time>
      </trkpt>
      <trkpt lat="48.58637" lon="-3.88706">
        <ele>81.1</ele>
        <time>2020-08-16T15:16:59Z</time>
      </trkpt>
      <trkpt lat="48.58652" lon="-3.88777">
        <ele>78.2</ele>
        <time>2020-08-16T15:17:04Z</time>
      </trkpt>
      <trkpt lat="48.58677" lon="-3.88844">
        <ele>77</ele>
        <time>2020-08-16T15:17:09Z</time>
      </trkpt>
      <trkpt lat="48.58715" lon="-3.88904">
        <ele>78.9</ele>
        <time>2020-08-16T15:17:16Z</time>
      </trkpt>
      <trkpt lat="48.58737" lon="-3.88936">
        <ele>80.9</ele>
        <time>2020-08-16T15:17:21Z</time>
      </trkpt>
      <trkpt lat="48.58755" lon="-3.8896">
        <ele>81.9</ele>
        <time>2020-08-16T15:17:27Z</time>
      </trkpt>
      <trkpt lat="48.58772" lon="-3.88982">
        <ele>82.2</ele>
        <time>2020-08-16T15:17:34Z</time>
      </trkpt>
      <trkpt lat="48.58785" lon="-3.88997">
        <ele>82.2</ele>
        <time>2020-08-16T15:17:41Z</time>
      </trkpt>
      <trkpt lat="48.58801" lon="-3.89006">
        <ele>84.6</ele>
        <time>2020-08-16T15:17:48Z</time>
      </trkpt>
      <trkpt lat="48.58804" lon="-3.89005">
        <ele>84.5</ele>
        <time>2020-08-16T15:17:50Z</time>
      </trkpt>
      <trkpt lat="48.58805" lon="-3.89013">
        <ele>84.6</ele>
        <time>2020-08-16T15:17:55Z</time>
      </trkpt>
      <trkpt lat="48.58806" lon="-3.89019">
        <ele>84.8</ele>
        <time>2020-08-16T15:17:59Z</time>
      </trkpt>
      <trkpt lat="48.58806" lon="-3.89019">
        <ele>84.8</ele>
        <time>2020-08-16T15:18:01Z</time>
      </trkpt>
      <trkpt lat="48.58806" lon="-3.89027">
        <ele>85</ele>
        <time>2020-08-16T15:19:24Z</time>
      </trkpt>
      <trkpt lat="48.58814" lon="-3.89052">
        <ele>85.9</ele>
        <time>2020-08-16T15:19:32Z</time>
      </trkpt>
      <trkpt lat="48.58821" lon="-3.89074">
        <ele>86.9</ele>
        <time>2020-08-16T15:19:39Z</time>
      </trkpt>
      <trkpt lat="48.5883" lon="-3.89096">
        <ele>88.9</ele>
        <time>2020-08-16T15:19:47Z</time>
      </trkpt>
      <trkpt lat="48.58839" lon="-3.8912">
        <ele>88.9</ele>
        <time>2020-08-16T15:19:55Z</time>
      </trkpt>
      <trkpt lat="48.5885" lon="-3.89149">
        <ele>89.6</ele>
        <time>2020-08-16T15:20:04Z</time>
      </trkpt>
      <trkpt lat="48.58863" lon="-3.89169">
        <ele>91.9</ele>
        <time>2020-08-16T15:20:12Z</time>
      </trkpt>
      <trkpt lat="48.58876" lon="-3.89182">
        <ele>92.1</ele>
        <time>2020-08-16T15:20:19Z</time>
      </trkpt>
      <trkpt lat="48.58892" lon="-3.89198">
        <ele>92.5</ele>
        <time>2020-08-16T15:20:28Z</time>
      </trkpt>
      <trkpt lat="48.5891" lon="-3.89214">
        <ele>93.3</ele>
        <time>2020-08-16T15:20:37Z</time>
      </trkpt>
      <trkpt lat="48.58928" lon="-3.8923">
        <ele>94</ele>
        <time>2020-08-16T15:20:44Z</time>
      </trkpt>
      <trkpt lat="48.58952" lon="-3.89253">
        <ele>96</ele>
        <time>2020-08-16T15:20:52Z</time>
      </trkpt>
      <trkpt lat="48.58971" lon="-3.89272">
        <ele>95.6</ele>
        <time>2020-08-16T15:20:58Z</time>
      </trkpt>
      <trkpt lat="48.58993" lon="-3.89292">
        <ele>95.5</ele>
        <time>2020-08-16T15:21:05Z</time>
      </trkpt>
      <trkpt lat="48.59008" lon="-3.89307">
        <ele>94</ele>
        <time>2020-08-16T15:21:11Z</time>
      </trkpt>
      <trkpt lat="48.59031" lon="-3.8933">
        <ele>94.1</ele>
        <time>2020-08-16T15:21:20Z</time>
      </trkpt>
      <trkpt lat="48.59051" lon="-3.89349">
        <ele>95.4</ele>
        <time>2020-08-16T15:21:27Z</time>
      </trkpt>
      <trkpt lat="48.59076" lon="-3.89374">
        <ele>95.5</ele>
        <time>2020-08-16T15:21:35Z</time>
      </trkpt>
      <trkpt lat="48.59096" lon="-3.89393">
        <ele>95.1</ele>
        <time>2020-08-16T15:21:41Z</time>
      </trkpt>
      <trkpt lat="48.59128" lon="-3.89423">
        <ele>95.8</ele>
        <time>2020-08-16T15:21:50Z</time>
      </trkpt>
      <trkpt lat="48.59152" lon="-3.89445">
        <ele>95.7</ele>
        <time>2020-08-16T15:21:57Z</time>
      </trkpt>
      <trkpt lat="48.59181" lon="-3.89471">
        <ele>95.1</ele>
        <time>2020-08-16T15:22:05Z</time>
      </trkpt>
      <trkpt lat="48.59205" lon="-3.89492">
        <ele>95.2</ele>
        <time>2020-08-16T15:22:12Z</time>
      </trkpt>
      <trkpt lat="48.59234" lon="-3.89518">
        <ele>95.4</ele>
        <time>2020-08-16T15:22:20Z</time>
      </trkpt>
      <trkpt lat="48.59244" lon="-3.8953">
        <ele>95.2</ele>
        <time>2020-08-16T15:22:23Z</time>
      </trkpt>
      <trkpt lat="48.59262" lon="-3.89576">
        <ele>93.8</ele>
        <time>2020-08-16T15:22:31Z</time>
      </trkpt>
      <trkpt lat="48.59276" lon="-3.89628">
        <ele>91.6</ele>
        <time>2020-08-16T15:22:39Z</time>
      </trkpt>
      <trkpt lat="48.59292" lon="-3.89689">
        <ele>90.5</ele>
        <time>2020-08-16T15:22:48Z</time>
      </trkpt>
      <trkpt lat="48.59308" lon="-3.89756">
        <ele>90.1</ele>
        <time>2020-08-16T15:22:57Z</time>
      </trkpt>
      <trkpt lat="48.59324" lon="-3.89804">
        <ele>89.7</ele>
        <time>2020-08-16T15:23:04Z</time>
      </trkpt>
      <trkpt lat="48.59351" lon="-3.89861">
        <ele>88.8</ele>
        <time>2020-08-16T15:23:13Z</time>
      </trkpt>
      <trkpt lat="48.59381" lon="-3.89921">
        <ele>88.6</ele>
        <time>2020-08-16T15:23:22Z</time>
      </trkpt>
      <trkpt lat="48.59403" lon="-3.89978">
        <ele>88.8</ele>
        <time>2020-08-16T15:23:30Z</time>
      </trkpt>
      <trkpt lat="48.59426" lon="-3.90043">
        <ele>88.2</ele>
        <time>2020-08-16T15:23:39Z</time>
      </trkpt>
      <trkpt lat="48.59431" lon="-3.90058">
        <ele>88</ele>
        <time>2020-08-16T15:23:41Z</time>
      </trkpt>
      <trkpt lat="48.59445" lon="-3.90142">
        <ele>87.2</ele>
        <time>2020-08-16T15:23:52Z</time>
      </trkpt>
      <trkpt lat="48.59456" lon="-3.90204">
        <ele>87</ele>
        <time>2020-08-16T15:24:01Z</time>
      </trkpt>
      <trkpt lat="48.59464" lon="-3.90253">
        <ele>86.4</ele>
        <time>2020-08-16T15:24:09Z</time>
      </trkpt>
      <trkpt lat="48.59467" lon="-3.90275">
        <ele>86.2</ele>
        <time>2020-08-16T15:24:14Z</time>
      </trkpt>
      <trkpt lat="48.59467" lon="-3.90275">
        <ele>86.2</ele>
        <time>2020-08-16T15:24:15Z</time>
      </trkpt>
      <trkpt lat="48.59467" lon="-3.90283">
        <ele>86.1</ele>
        <time>2020-08-16T15:24:39Z</time>
      </trkpt>
      <trkpt lat="48.59461" lon="-3.90315">
        <ele>85.7</ele>
        <time>2020-08-16T15:24:46Z</time>
      </trkpt>
      <trkpt lat="48.59458" lon="-3.90339">
        <ele>84.7</ele>
        <time>2020-08-16T15:24:50Z</time>
      </trkpt>
      <trkpt lat="48.59453" lon="-3.90388">
        <ele>84.4</ele>
        <time>2020-08-16T15:24:57Z</time>
      </trkpt>
      <trkpt lat="48.59452" lon="-3.90439">
        <ele>83.2</ele>
        <time>2020-08-16T15:25:03Z</time>
      </trkpt>
      <trkpt lat="48.59457" lon="-3.90488">
        <ele>82.7</ele>
        <time>2020-08-16T15:25:09Z</time>
      </trkpt>
      <trkpt lat="48.59465" lon="-3.90572">
        <ele>80.5</ele>
        <time>2020-08-16T15:25:19Z</time>
      </trkpt>
      <trkpt lat="48.59462" lon="-3.90624">
        <ele>78.6</ele>
        <time>2020-08-16T15:25:25Z</time>
      </trkpt>
      <trkpt lat="48.59454" lon="-3.90686">
        <ele>76.9</ele>
        <time>2020-08-16T15:25:31Z</time>
      </trkpt>
      <trkpt lat="48.59449" lon="-3.90758">
        <ele>75.5</ele>
        <time>2020-08-16T15:25:37Z</time>
      </trkpt>
      <trkpt lat="48.5945" lon="-3.90821">
        <ele>75.1</ele>
        <time>2020-08-16T15:25:42Z</time>
      </trkpt>
      <trkpt lat="48.59463" lon="-3.90884">
        <ele>72.5</ele>
        <time>2020-08-16T15:25:47Z</time>
      </trkpt>
      <trkpt lat="48.59489" lon="-3.9098">
        <ele>69.9</ele>
        <time>2020-08-16T15:25:55Z</time>
      </trkpt>
      <trkpt lat="48.59511" lon="-3.91058">
        <ele>70.1</ele>
        <time>2020-08-16T15:26:02Z</time>
      </trkpt>
      <trkpt lat="48.59514" lon="-3.9107">
        <ele>69.9</ele>
        <time>2020-08-16T15:26:03Z</time>
      </trkpt>
      <trkpt lat="48.59515" lon="-3.91137">
        <ele>69.8</ele>
        <time>2020-08-16T15:26:09Z</time>
      </trkpt>
      <trkpt lat="48.59509" lon="-3.91208">
        <ele>69.5</ele>
        <time>2020-08-16T15:26:16Z</time>
      </trkpt>
      <trkpt lat="48.59513" lon="-3.91247">
        <ele>68.9</ele>
        <time>2020-08-16T15:26:21Z</time>
      </trkpt>
      <trkpt lat="48.59504" lon="-3.91282">
        <ele>69.5</ele>
        <time>2020-08-16T15:26:28Z</time>
      </trkpt>
      <trkpt lat="48.59503" lon="-3.9131">
        <ele>69.6</ele>
        <time>2020-08-16T15:26:34Z</time>
      </trkpt>
      <trkpt lat="48.59501" lon="-3.91344">
        <ele>69.7</ele>
        <time>2020-08-16T15:26:42Z</time>
      </trkpt>
      <trkpt lat="48.59501" lon="-3.91378">
        <ele>70.7</ele>
        <time>2020-08-16T15:26:51Z</time>
      </trkpt>
      <trkpt lat="48.59501" lon="-3.91413">
        <ele>71</ele>
        <time>2020-08-16T15:27:01Z</time>
      </trkpt>
      <trkpt lat="48.59502" lon="-3.91442">
        <ele>71.6</ele>
        <time>2020-08-16T15:27:09Z</time>
      </trkpt>
      <trkpt lat="48.59504" lon="-3.9148">
        <ele>72</ele>
        <time>2020-08-16T15:27:17Z</time>
      </trkpt>
      <trkpt lat="48.59506" lon="-3.91528">
        <ele>72.2</ele>
        <time>2020-08-16T15:27:26Z</time>
      </trkpt>
      <trkpt lat="48.59508" lon="-3.91559">
        <ele>72.1</ele>
        <time>2020-08-16T15:27:32Z</time>
      </trkpt>
      <trkpt lat="48.5951" lon="-3.9161">
        <ele>72.1</ele>
        <time>2020-08-16T15:27:41Z</time>
      </trkpt>
      <trkpt lat="48.59512" lon="-3.91651">
        <ele>72.2</ele>
        <time>2020-08-16T15:27:48Z</time>
      </trkpt>
      <trkpt lat="48.59514" lon="-3.91702">
        <ele>72.2</ele>
        <time>2020-08-16T15:27:56Z</time>
      </trkpt>
      <trkpt lat="48.59515" lon="-3.91721">
        <ele>72.2</ele>
        <time>2020-08-16T15:27:59Z</time>
      </trkpt>
      <trkpt lat="48.59519" lon="-3.91786">
        <ele>71.8</ele>
        <time>2020-08-16T15:28:08Z</time>
      </trkpt>
      <trkpt lat="48.59524" lon="-3.91866">
        <ele>71.2</ele>
        <time>2020-08-16T15:28:19Z</time>
      </trkpt>
      <trkpt lat="48.59532" lon="-3.91924">
        <ele>70.3</ele>
        <time>2020-08-16T15:28:27Z</time>
      </trkpt>
      <trkpt lat="48.59541" lon="-3.91987">
        <ele>69.8</ele>
        <time>2020-08-16T15:28:36Z</time>
      </trkpt>
      <trkpt lat="48.59549" lon="-3.9204">
        <ele>68.8</ele>
        <time>2020-08-16T15:28:43Z</time>
      </trkpt>
      <trkpt lat="48.59556" lon="-3.92106">
        <ele>67.1</ele>
        <time>2020-08-16T15:28:51Z</time>
      </trkpt>
      <trkpt lat="48.59565" lon="-3.92177">
        <ele>65.3</ele>
        <time>2020-08-16T15:28:59Z</time>
      </trkpt>
      <trkpt lat="48.59575" lon="-3.92258">
        <ele>64.1</ele>
        <time>2020-08-16T15:29:08Z</time>
      </trkpt>
      <trkpt lat="48.59583" lon="-3.92318">
        <ele>62.8</ele>
        <time>2020-08-16T15:29:15Z</time>
      </trkpt>
      <trkpt lat="48.59591" lon="-3.92371">
        <ele>62.7</ele>
        <time>2020-08-16T15:29:22Z</time>
      </trkpt>
      <trkpt lat="48.59597" lon="-3.92411">
        <ele>61.9</ele>
        <time>2020-08-16T15:29:28Z</time>
      </trkpt>
      <trkpt lat="48.59603" lon="-3.92452">
        <ele>60.4</ele>
        <time>2020-08-16T15:29:35Z</time>
      </trkpt>
      <trkpt lat="48.59605" lon="-3.92473">
        <ele>59.9</ele>
        <time>2020-08-16T15:29:40Z</time>
      </trkpt>
      <trkpt lat="48.59608" lon="-3.92504">
        <ele>58</ele>
        <time>2020-08-16T15:29:45Z</time>
      </trkpt>
      <trkpt lat="48.59606" lon="-3.92547">
        <ele>57.4</ele>
        <time>2020-08-16T15:29:50Z</time>
      </trkpt>
      <trkpt lat="48.596" lon="-3.92606">
        <ele>55.2</ele>
        <time>2020-08-16T15:29:55Z</time>
      </trkpt>
      <trkpt lat="48.59589" lon="-3.92678">
        <ele>52.4</ele>
        <time>2020-08-16T15:30:00Z</time>
      </trkpt>
      <trkpt lat="48.59582" lon="-3.92707">
        <ele>48.6</ele>
        <time>2020-08-16T15:30:02Z</time>
      </trkpt>
      <trkpt lat="48.59572" lon="-3.92738">
        <ele>47.9</ele>
        <time>2020-08-16T15:30:05Z</time>
      </trkpt>
      <trkpt lat="48.59597" lon="-3.92787">
        <ele>50.7</ele>
        <time>2020-08-16T15:30:08Z</time>
      </trkpt>
      <trkpt lat="48.59611" lon="-3.92804">
        <ele>51.2</ele>
        <time>2020-08-16T15:30:11Z</time>
      </trkpt>
      <trkpt lat="48.59616" lon="-3.92807">
        <ele>51.4</ele>
        <time>2020-08-16T15:30:12Z</time>
      </trkpt>
      <trkpt lat="48.59642" lon="-3.92823">
        <ele>52.4</ele>
        <time>2020-08-16T15:30:18Z</time>
      </trkpt>
      <trkpt lat="48.59663" lon="-3.92837">
        <ele>53.2</ele>
        <time>2020-08-16T15:30:24Z</time>
      </trkpt>
      <trkpt lat="48.59678" lon="-3.92847">
        <ele>53.9</ele>
        <time>2020-08-16T15:30:29Z</time>
      </trkpt>
      <trkpt lat="48.59678" lon="-3.92847">
        <ele>53.9</ele>
        <time>2020-08-16T15:30:31Z</time>
      </trkpt>
      <trkpt lat="48.59672" lon="-3.92844">
        <ele>53.9</ele>
        <time>2020-08-16T15:30:37Z</time>
      </trkpt>
      <trkpt lat="48.5966" lon="-3.92835">
        <ele>53</ele>
        <time>2020-08-16T15:30:42Z</time>
      </trkpt>
      <trkpt lat="48.59635" lon="-3.92819">
        <ele>52.1</ele>
        <time>2020-08-16T15:30:51Z</time>
      </trkpt>
      <trkpt lat="48.59618" lon="-3.92809">
        <ele>51.4</ele>
        <time>2020-08-16T15:30:56Z</time>
      </trkpt>
      <trkpt lat="48.59598" lon="-3.92827">
        <ele>50.3</ele>
        <time>2020-08-16T15:31:01Z</time>
      </trkpt>
      <trkpt lat="48.59595" lon="-3.92861">
        <ele>49.6</ele>
        <time>2020-08-16T15:31:05Z</time>
      </trkpt>
      <trkpt lat="48.596" lon="-3.92885">
        <ele>49.4</ele>
        <time>2020-08-16T15:31:08Z</time>
      </trkpt>
      <trkpt lat="48.59623" lon="-3.9295">
        <ele>46.5</ele>
        <time>2020-08-16T15:31:17Z</time>
      </trkpt>
      <trkpt lat="48.59633" lon="-3.92976">
        <ele>45.9</ele>
        <time>2020-08-16T15:31:21Z</time>
      </trkpt>
      <trkpt lat="48.59649" lon="-3.9302">
        <ele>41.7</ele>
        <time>2020-08-16T15:31:28Z</time>
      </trkpt>
      <trkpt lat="48.5966" lon="-3.93063">
        <ele>39.3</ele>
        <time>2020-08-16T15:31:35Z</time>
      </trkpt>
      <trkpt lat="48.59673" lon="-3.93132">
        <ele>34.1</ele>
        <time>2020-08-16T15:31:43Z</time>
      </trkpt>
      <trkpt lat="48.59689" lon="-3.93188">
        <ele>25.8</ele>
        <time>2020-08-16T15:31:49Z</time>
      </trkpt>
      <trkpt lat="48.59705" lon="-3.93227">
        <ele>23.1</ele>
        <time>2020-08-16T15:31:54Z</time>
      </trkpt>
      <trkpt lat="48.59716" lon="-3.93249">
        <ele>22.4</ele>
        <time>2020-08-16T15:31:57Z</time>
      </trkpt>
      <trkpt lat="48.59729" lon="-3.93276">
        <ele>15.5</ele>
        <time>2020-08-16T15:32:01Z</time>
      </trkpt>
      <trkpt lat="48.59734" lon="-3.93308">
        <ele>13.3</ele>
        <time>2020-08-16T15:32:06Z</time>
      </trkpt>
      <trkpt lat="48.59733" lon="-3.93333">
        <ele>11.9</ele>
        <time>2020-08-16T15:32:10Z</time>
      </trkpt>
      <trkpt lat="48.59733" lon="-3.93339">
        <ele>9.2</ele>
        <time>2020-08-16T15:32:12Z</time>
      </trkpt>
      <trkpt lat="48.59733" lon="-3.93339">
        <ele>9.2</ele>
        <time>2020-08-16T15:32:13Z</time>
      </trkpt>
      <trkpt lat="48.59732" lon="-3.93349">
        <ele>9</ele>
        <time>2020-08-16T15:32:22Z</time>
      </trkpt>
      <trkpt lat="48.59731" lon="-3.93353">
        <ele>8.8</ele>
        <time>2020-08-16T15:32:25Z</time>
      </trkpt>
      <trkpt lat="48.59731" lon="-3.93353">
        <ele>8.8</ele>
        <time>2020-08-16T15:32:31Z</time>
      </trkpt>
      <trkpt lat="48.59731" lon="-3.93353">
        <ele>8.8</ele>
        <time>2020-08-16T15:32:36Z</time>
      </trkpt>
      <trkpt lat="48.59731" lon="-3.93353">
        <ele>8.8</ele>
        <time>2020-08-16T15:32:40Z</time>
      </trkpt>
      <trkpt lat="48.59731" lon="-3.93353">
        <ele>8.8</ele>
        <time>2020-08-16T15:32:45Z</time>
      </trkpt>
      <trkpt lat="48.59731" lon="-3.93353">
        <ele>8.8</ele>
        <time>2020-08-16T15:32:46Z</time>
      </trkpt>
      <trkpt lat="48.59731" lon="-3.93353">
        <ele>8.8</ele>
        <time>2020-08-16T15:34:18Z</time>
      </trkpt>
      <trkpt lat="48.59732" lon="-3.93349">
        <ele>9</ele>
        <time>2020-08-16T15:40:12Z</time>
      </trkpt>
      <trkpt lat="48.59732" lon="-3.93346">
        <ele>9</ele>
        <time>2020-08-16T15:40:27Z</time>
      </trkpt>
      <trkpt lat="48.59732" lon="-3.93346">
        <ele>9</ele>
        <time>2020-08-16T15:40:28Z</time>
      </trkpt>
      <trkpt lat="48.59754" lon="-3.93332">
        <ele>11</ele>
        <time>2020-08-16T15:41:36Z</time>
      </trkpt>
      <trkpt lat="48.59754" lon="-3.93332">
        <ele>11</ele>
        <time>2020-08-16T15:41:41Z</time>
      </trkpt>
      <trkpt lat="48.59751" lon="-3.93331">
        <ele>10.7</ele>
        <time>2020-08-16T15:41:53Z</time>
      </trkpt>
      <trkpt lat="48.59758" lon="-3.93333">
        <ele>11.8</ele>
        <time>2020-08-16T15:41:59Z</time>
      </trkpt>
      <trkpt lat="48.59772" lon="-3.93339">
        <ele>9.6</ele>
        <time>2020-08-16T15:42:19Z</time>
      </trkpt>
      <trkpt lat="48.59772" lon="-3.93339">
        <ele>9.6</ele>
        <time>2020-08-16T15:42:21Z</time>
      </trkpt>
      <trkpt lat="48.59753" lon="-3.93332">
        <ele>10.8</ele>
        <time>2020-08-16T15:47:52Z</time>
      </trkpt>
      <trkpt lat="48.59734" lon="-3.93326">
        <ele>12.1</ele>
        <time>2020-08-16T15:48:06Z</time>
      </trkpt>
      <trkpt lat="48.59771" lon="-3.93339">
        <ele>9.6</ele>
        <time>2020-08-16T15:48:08Z</time>
      </trkpt>
      <trkpt lat="48.59734" lon="-3.93326">
        <ele>12.1</ele>
        <time>2020-08-16T15:48:38Z</time>
      </trkpt>
      <trkpt lat="48.59777" lon="-3.93339">
        <ele>9.6</ele>
        <time>2020-08-16T15:49:09Z</time>
      </trkpt>
      <trkpt lat="48.59762" lon="-3.93357">
        <ele>9.3</ele>
        <time>2020-08-16T15:50:08Z</time>
      </trkpt>
      <trkpt lat="48.59758" lon="-3.93389">
        <ele>8.4</ele>
        <time>2020-08-16T15:50:39Z</time>
      </trkpt>
      <trkpt lat="48.59748" lon="-3.93369">
        <ele>8.5</ele>
        <time>2020-08-16T15:51:07Z</time>
      </trkpt>
      <trkpt lat="48.59733" lon="-3.93331">
        <ele>12</ele>
        <time>2020-08-16T15:51:17Z</time>
      </trkpt>
      <trkpt lat="48.59733" lon="-3.93329">
        <ele>12</ele>
        <time>2020-08-16T15:51:18Z</time>
      </trkpt>
      <trkpt lat="48.59734" lon="-3.93324">
        <ele>12.2</ele>
        <time>2020-08-16T15:51:24Z</time>
      </trkpt>
      <trkpt lat="48.59739" lon="-3.93369">
        <ele>8.5</ele>
        <time>2020-08-16T15:51:31Z</time>
      </trkpt>
      <trkpt lat="48.59764" lon="-3.93335">
        <ele>9.7</ele>
        <time>2020-08-16T15:51:35Z</time>
      </trkpt>
      <trkpt lat="48.59764" lon="-3.93335">
        <ele>9.7</ele>
        <time>2020-08-16T15:51:37Z</time>
      </trkpt>
      <trkpt lat="48.59743" lon="-3.93329">
        <ele>11.2</ele>
        <time>2020-08-16T15:51:42Z</time>
      </trkpt>
      <trkpt lat="48.59743" lon="-3.93329">
        <ele>11.2</ele>
        <time>2020-08-16T15:51:50Z</time>
      </trkpt>
      <trkpt lat="48.59747" lon="-3.9333">
        <ele>10.7</ele>
        <time>2020-08-16T15:51:56Z</time>
      </trkpt>
      <trkpt lat="48.59747" lon="-3.9333">
        <ele>10.7</ele>
        <time>2020-08-16T15:51:57Z</time>
      </trkpt>
      <trkpt lat="48.59747" lon="-3.9333">
        <ele>10.7</ele>
        <time>2020-08-16T15:52:04Z</time>
      </trkpt>
      <trkpt lat="48.59742" lon="-3.93372">
        <ele>8.4</ele>
        <time>2020-08-16T15:52:11Z</time>
      </trkpt>
      <trkpt lat="48.59764" lon="-3.93339">
        <ele>9.6</ele>
        <time>2020-08-16T15:52:12Z</time>
      </trkpt>
      <trkpt lat="48.59763" lon="-3.93351">
        <ele>9.4</ele>
        <time>2020-08-16T15:52:18Z</time>
      </trkpt>
      <trkpt lat="48.59763" lon="-3.93351">
        <ele>9.4</ele>
        <time>2020-08-16T15:52:19Z</time>
      </trkpt>
      <trkpt lat="48.59763" lon="-3.93351">
        <ele>9.4</ele>
        <time>2020-08-16T15:52:25Z</time>
      </trkpt>
      <trkpt lat="48.59748" lon="-3.93375">
        <ele>8.3</ele>
        <time>2020-08-16T15:52:32Z</time>
      </trkpt>
      <trkpt lat="48.5974" lon="-3.9337">
        <ele>8.5</ele>
        <time>2020-08-16T15:52:40Z</time>
      </trkpt>
      <trkpt lat="48.59758" lon="-3.93375">
        <ele>8.8</ele>
        <time>2020-08-16T15:55:00Z</time>
      </trkpt>
      <trkpt lat="48.59763" lon="-3.93344">
        <ele>9.6</ele>
        <time>2020-08-16T15:55:09Z</time>
      </trkpt>
      <trkpt lat="48.59763" lon="-3.93345">
        <ele>9.5</ele>
        <time>2020-08-16T15:55:10Z</time>
      </trkpt>
      <trkpt lat="48.59764" lon="-3.93339">
        <ele>9.6</ele>
        <time>2020-08-16T15:55:16Z</time>
      </trkpt>
      <trkpt lat="48.59764" lon="-3.93339">
        <ele>9.6</ele>
        <time>2020-08-16T15:55:20Z</time>
      </trkpt>
      <trkpt lat="48.59764" lon="-3.93339">
        <ele>9.6</ele>
        <time>2020-08-16T15:55:55Z</time>
      </trkpt>
      <trkpt lat="48.59762" lon="-3.93358">
        <ele>9.3</ele>
        <time>2020-08-16T15:55:59Z</time>
      </trkpt>
      <trkpt lat="48.59762" lon="-3.93358">
        <ele>9.3</ele>
        <time>2020-08-16T15:56:08Z</time>
      </trkpt>
      <trkpt lat="48.59762" lon="-3.93358">
        <ele>9.3</ele>
        <time>2020-08-16T15:56:16Z</time>
      </trkpt>
      <trkpt lat="48.59762" lon="-3.93358">
        <ele>9.3</ele>
        <time>2020-08-16T15:56:23Z</time>
      </trkpt>
      <trkpt lat="48.59762" lon="-3.93358">
        <ele>9.3</ele>
        <time>2020-08-16T15:56:33Z</time>
      </trkpt>
      <trkpt lat="48.59767" lon="-3.93337">
        <ele>9.6</ele>
        <time>2020-08-16T15:56:37Z</time>
      </trkpt>
      <trkpt lat="48.59769" lon="-3.93338">
        <ele>9.6</ele>
        <time>2020-08-16T15:56:44Z</time>
      </trkpt>
      <trkpt lat="48.59769" lon="-3.93338">
        <ele>9.6</ele>
        <time>2020-08-16T15:56:49Z</time>
      </trkpt>
      <trkpt lat="48.59763" lon="-3.9335">
        <ele>9.4</ele>
        <time>2020-08-16T15:56:54Z</time>
      </trkpt>
      <trkpt lat="48.59753" lon="-3.93332">
        <ele>10.8</ele>
        <time>2020-08-16T15:56:58Z</time>
      </trkpt>
      <trkpt lat="48.59753" lon="-3.93332">
        <ele>10.8</ele>
        <time>2020-08-16T15:57:02Z</time>
      </trkpt>
      <trkpt lat="48.59733" lon="-3.93331">
        <ele>12</ele>
        <time>2020-08-16T15:57:08Z</time>
      </trkpt>
      <trkpt lat="48.59733" lon="-3.93331">
        <ele>12</ele>
        <time>2020-08-16T15:57:15Z</time>
      </trkpt>
      <trkpt lat="48.59745" lon="-3.93329">
        <ele>11</ele>
        <time>2020-08-16T15:57:21Z</time>
      </trkpt>
      <trkpt lat="48.59746" lon="-3.93345">
        <ele>9.3</ele>
        <time>2020-08-17T07:09:28Z</time>
      </trkpt>
      <trkpt lat="48.59746" lon="-3.93345">
        <ele>9.3</ele>
        <time>2020-08-17T07:09:29Z</time>
      </trkpt>
      <trkpt lat="48.59732" lon="-3.93351">
        <ele>8.9</ele>
        <time>2020-08-17T07:09:36Z</time>
      </trkpt>
      <trkpt lat="48.59743" lon="-3.93372">
        <ele>8.4</ele>
        <time>2020-08-17T07:09:40Z</time>
      </trkpt>
      <trkpt lat="48.59743" lon="-3.93372">
        <ele>8.4</ele>
        <time>2020-08-17T07:09:43Z</time>
      </trkpt>
      <trkpt lat="48.59747" lon="-3.93375">
        <ele>8.3</ele>
        <time>2020-08-17T07:09:51Z</time>
      </trkpt>
      <trkpt lat="48.59756" lon="-3.93384">
        <ele>8.6</ele>
        <time>2020-08-17T07:09:57Z</time>
      </trkpt>
      <trkpt lat="48.59766" lon="-3.93405">
        <ele>8</ele>
        <time>2020-08-17T07:10:04Z</time>
      </trkpt>
      <trkpt lat="48.59776" lon="-3.93427">
        <ele>6.6</ele>
        <time>2020-08-17T07:10:15Z</time>
      </trkpt>
      <trkpt lat="48.59783" lon="-3.93441">
        <ele>6.4</ele>
        <time>2020-08-17T07:10:22Z</time>
      </trkpt>
      <trkpt lat="48.59802" lon="-3.93483">
        <ele>5.8</ele>
        <time>2020-08-17T07:10:30Z</time>
      </trkpt>
      <trkpt lat="48.59815" lon="-3.93514">
        <ele>5.8</ele>
        <time>2020-08-17T07:10:38Z</time>
      </trkpt>
      <trkpt lat="48.59817" lon="-3.93518">
        <ele>5.9</ele>
        <time>2020-08-17T07:10:44Z</time>
      </trkpt>
      <trkpt lat="48.59851" lon="-3.93553">
        <ele>5.2</ele>
        <time>2020-08-17T07:10:49Z</time>
      </trkpt>
      <trkpt lat="48.59882" lon="-3.93569">
        <ele>5</ele>
        <time>2020-08-17T07:10:58Z</time>
      </trkpt>
      <trkpt lat="48.599" lon="-3.93589">
        <ele>7.3</ele>
        <time>2020-08-17T07:11:04Z</time>
      </trkpt>
      <trkpt lat="48.59932" lon="-3.9363">
        <ele>7.5</ele>
        <time>2020-08-17T07:11:15Z</time>
      </trkpt>
      <trkpt lat="48.59954" lon="-3.9366">
        <ele>7.9</ele>
        <time>2020-08-17T07:11:23Z</time>
      </trkpt>
      <trkpt lat="48.5997" lon="-3.93682">
        <ele>10.9</ele>
        <time>2020-08-17T07:11:29Z</time>
      </trkpt>
      <trkpt lat="48.59987" lon="-3.93718">
        <ele>11.3</ele>
        <time>2020-08-17T07:11:37Z</time>
      </trkpt>
      <trkpt lat="48.60004" lon="-3.93757">
        <ele>9.6</ele>
        <time>2020-08-17T07:11:45Z</time>
      </trkpt>
      <trkpt lat="48.60024" lon="-3.93803">
        <ele>9.6</ele>
        <time>2020-08-17T07:11:54Z</time>
      </trkpt>
      <trkpt lat="48.60038" lon="-3.93832">
        <ele>9.4</ele>
        <time>2020-08-17T07:12:00Z</time>
      </trkpt>
      <trkpt lat="48.60049" lon="-3.93852">
        <ele>11.8</ele>
        <time>2020-08-17T07:12:04Z</time>
      </trkpt>
      <trkpt lat="48.60065" lon="-3.93879">
        <ele>12</ele>
        <time>2020-08-17T07:12:10Z</time>
      </trkpt>
      <trkpt lat="48.60074" lon="-3.93893">
        <ele>11.9</ele>
        <time>2020-08-17T07:12:13Z</time>
      </trkpt>
      <trkpt lat="48.60104" lon="-3.93937">
        <ele>10.3</ele>
        <time>2020-08-17T07:12:23Z</time>
      </trkpt>
      <trkpt lat="48.60127" lon="-3.93973">
        <ele>10.3</ele>
        <time>2020-08-17T07:12:31Z</time>
      </trkpt>
      <trkpt lat="48.60157" lon="-3.94013">
        <ele>12.1</ele>
        <time>2020-08-17T07:12:40Z</time>
      </trkpt>
      <trkpt lat="48.60168" lon="-3.94024">
        <ele>11.1</ele>
        <time>2020-08-17T07:12:43Z</time>
      </trkpt>
      <trkpt lat="48.60179" lon="-3.94034">
        <ele>11.7</ele>
        <time>2020-08-17T07:12:46Z</time>
      </trkpt>
      <trkpt lat="48.60186" lon="-3.94041">
        <ele>12.1</ele>
        <time>2020-08-17T07:12:48Z</time>
      </trkpt>
      <trkpt lat="48.60201" lon="-3.94053">
        <ele>12.6</ele>
        <time>2020-08-17T07:12:52Z</time>
      </trkpt>
      <trkpt lat="48.60231" lon="-3.94077">
        <ele>13.4</ele>
        <time>2020-08-17T07:13:00Z</time>
      </trkpt>
      <trkpt lat="48.60255" lon="-3.94097">
        <ele>17.1</ele>
        <time>2020-08-17T07:13:07Z</time>
      </trkpt>
      <trkpt lat="48.60273" lon="-3.9411">
        <ele>18.6</ele>
        <time>2020-08-17T07:13:12Z</time>
      </trkpt>
      <trkpt lat="48.60301" lon="-3.9413">
        <ele>19.7</ele>
        <time>2020-08-17T07:13:20Z</time>
      </trkpt>
      <trkpt lat="48.60545" lon="-3.94161">
        <ele>12.7</ele>
        <time>2020-08-17T07:14:23Z</time>
      </trkpt>
      <trkpt lat="48.60559" lon="-3.94153">
        <ele>13</ele>
        <time>2020-08-17T07:14:33Z</time>
      </trkpt>
      <trkpt lat="48.6061" lon="-3.94141">
        <ele>14.6</ele>
        <time>2020-08-17T07:14:42Z</time>
      </trkpt>
      <trkpt lat="48.60626" lon="-3.94139">
        <ele>14.8</ele>
        <time>2020-08-17T07:14:44Z</time>
      </trkpt>
      <trkpt lat="48.60651" lon="-3.94136">
        <ele>15.5</ele>
        <time>2020-08-17T07:14:50Z</time>
      </trkpt>
      <trkpt lat="48.60655" lon="-3.94136">
        <ele>15.7</ele>
        <time>2020-08-17T07:14:51Z</time>
      </trkpt>
      <trkpt lat="48.60691" lon="-3.94132">
        <ele>15.2</ele>
        <time>2020-08-17T07:15:00Z</time>
      </trkpt>
      <trkpt lat="48.60702" lon="-3.94132">
        <ele>14.9</ele>
        <time>2020-08-17T07:15:03Z</time>
      </trkpt>
      <trkpt lat="48.60726" lon="-3.94133">
        <ele>14.7</ele>
        <time>2020-08-17T07:15:09Z</time>
      </trkpt>
      <trkpt lat="48.60755" lon="-3.94139">
        <ele>12.7</ele>
        <time>2020-08-17T07:15:16Z</time>
      </trkpt>
      <trkpt lat="48.60779" lon="-3.9415">
        <ele>12.1</ele>
        <time>2020-08-17T07:15:22Z</time>
      </trkpt>
      <trkpt lat="48.60795" lon="-3.94161">
        <ele>11.2</ele>
        <time>2020-08-17T07:15:26Z</time>
      </trkpt>
      <trkpt lat="48.60803" lon="-3.94167">
        <ele>15.6</ele>
        <time>2020-08-17T07:15:28Z</time>
      </trkpt>
      <trkpt lat="48.60844" lon="-3.94202">
        <ele>11.8</ele>
        <time>2020-08-17T07:15:38Z</time>
      </trkpt>
      <trkpt lat="48.60883" lon="-3.94235">
        <ele>12.3</ele>
        <time>2020-08-17T07:15:48Z</time>
      </trkpt>
      <trkpt lat="48.60918" lon="-3.94251">
        <ele>12.1</ele>
        <time>2020-08-17T07:15:56Z</time>
      </trkpt>
      <trkpt lat="48.60966" lon="-3.94266">
        <ele>12.6</ele>
        <time>2020-08-17T07:16:07Z</time>
      </trkpt>
      <trkpt lat="48.60992" lon="-3.94289">
        <ele>13.1</ele>
        <time>2020-08-17T07:16:14Z</time>
      </trkpt>
      <trkpt lat="48.61" lon="-3.94298">
        <ele>13.7</ele>
        <time>2020-08-17T07:16:16Z</time>
      </trkpt>
      <trkpt lat="48.61032" lon="-3.94331">
        <ele>11.7</ele>
        <time>2020-08-17T07:16:24Z</time>
      </trkpt>
      <trkpt lat="48.61052" lon="-3.94348">
        <ele>15.7</ele>
        <time>2020-08-17T07:16:29Z</time>
      </trkpt>
      <trkpt lat="48.61066" lon="-3.9436">
        <ele>15.6</ele>
        <time>2020-08-17T07:16:33Z</time>
      </trkpt>
      <trkpt lat="48.611" lon="-3.94388">
        <ele>13.7</ele>
        <time>2020-08-17T07:16:42Z</time>
      </trkpt>
      <trkpt lat="48.61119" lon="-3.94405">
        <ele>13.6</ele>
        <time>2020-08-17T07:16:48Z</time>
      </trkpt>
      <trkpt lat="48.61136" lon="-3.94419">
        <ele>18.1</ele>
        <time>2020-08-17T07:16:53Z</time>
      </trkpt>
      <trkpt lat="48.61156" lon="-3.94437">
        <ele>17.6</ele>
        <time>2020-08-17T07:16:59Z</time>
      </trkpt>
      <trkpt lat="48.6117" lon="-3.94451">
        <ele>14.3</ele>
        <time>2020-08-17T07:17:03Z</time>
      </trkpt>
      <trkpt lat="48.6119" lon="-3.94473">
        <ele>15.2</ele>
        <time>2020-08-17T07:17:09Z</time>
      </trkpt>
      <trkpt lat="48.61217" lon="-3.94508">
        <ele>19.4</ele>
        <time>2020-08-17T07:17:17Z</time>
      </trkpt>
      <trkpt lat="48.61241" lon="-3.94541">
        <ele>20.1</ele>
        <time>2020-08-17T07:17:24Z</time>
      </trkpt>
      <trkpt lat="48.61271" lon="-3.94569">
        <ele>16.2</ele>
        <time>2020-08-17T07:17:31Z</time>
      </trkpt>
      <trkpt lat="48.61319" lon="-3.94611">
        <ele>17.8</ele>
        <time>2020-08-17T07:17:41Z</time>
      </trkpt>
      <trkpt lat="48.61354" lon="-3.94638">
        <ele>14.2</ele>
        <time>2020-08-17T07:17:48Z</time>
      </trkpt>
      <trkpt lat="48.61392" lon="-3.94659">
        <ele>14.3</ele>
        <time>2020-08-17T07:17:55Z</time>
      </trkpt>
      <trkpt lat="48.61397" lon="-3.94661">
        <ele>14.4</ele>
        <time>2020-08-17T07:17:56Z</time>
      </trkpt>
      <trkpt lat="48.61408" lon="-3.94667">
        <ele>17.3</ele>
        <time>2020-08-17T07:17:58Z</time>
      </trkpt>
      <trkpt lat="48.61433" lon="-3.94682">
        <ele>16</ele>
        <time>2020-08-17T07:18:03Z</time>
      </trkpt>
      <trkpt lat="48.61469" lon="-3.94717">
        <ele>16.3</ele>
        <time>2020-08-17T07:18:11Z</time>
      </trkpt>
      <trkpt lat="48.61481" lon="-3.94734">
        <ele>16.9</ele>
        <time>2020-08-17T07:18:14Z</time>
      </trkpt>
      <trkpt lat="48.61508" lon="-3.94778">
        <ele>15.9</ele>
        <time>2020-08-17T07:18:21Z</time>
      </trkpt>
      <trkpt lat="48.61549" lon="-3.94848">
        <ele>18.2</ele>
        <time>2020-08-17T07:18:32Z</time>
      </trkpt>
      <trkpt lat="48.6158" lon="-3.94888">
        <ele>18.3</ele>
        <time>2020-08-17T07:18:39Z</time>
      </trkpt>
      <trkpt lat="48.61615" lon="-3.94915">
        <ele>12.5</ele>
        <time>2020-08-17T07:18:46Z</time>
      </trkpt>
      <trkpt lat="48.61653" lon="-3.9494">
        <ele>14.5</ele>
        <time>2020-08-17T07:18:53Z</time>
      </trkpt>
      <trkpt lat="48.61688" lon="-3.94965">
        <ele>13.5</ele>
        <time>2020-08-17T07:19:00Z</time>
      </trkpt>
      <trkpt lat="48.61697" lon="-3.94974">
        <ele>13.8</ele>
        <time>2020-08-17T07:19:02Z</time>
      </trkpt>
      <trkpt lat="48.61718" lon="-3.95">
        <ele>17.1</ele>
        <time>2020-08-17T07:19:07Z</time>
      </trkpt>
      <trkpt lat="48.61745" lon="-3.95058">
        <ele>17.4</ele>
        <time>2020-08-17T07:19:15Z</time>
      </trkpt>
      <trkpt lat="48.61763" lon="-3.95105">
        <ele>15</ele>
        <time>2020-08-17T07:19:21Z</time>
      </trkpt>
      <trkpt lat="48.61786" lon="-3.95167">
        <ele>11.3</ele>
        <time>2020-08-17T07:19:29Z</time>
      </trkpt>
      <trkpt lat="48.61812" lon="-3.95237">
        <ele>8.1</ele>
        <time>2020-08-17T07:19:38Z</time>
      </trkpt>
      <trkpt lat="48.61838" lon="-3.95304">
        <ele>6.3</ele>
        <time>2020-08-17T07:19:47Z</time>
      </trkpt>
      <trkpt lat="48.61863" lon="-3.95343">
        <ele>10</ele>
        <time>2020-08-17T07:19:53Z</time>
      </trkpt>
      <trkpt lat="48.61872" lon="-3.95353">
        <ele>10.6</ele>
        <time>2020-08-17T07:19:55Z</time>
      </trkpt>
      <trkpt lat="48.61898" lon="-3.95371">
        <ele>11.7</ele>
        <time>2020-08-17T07:20:00Z</time>
      </trkpt>
      <trkpt lat="48.61909" lon="-3.95374">
        <ele>11.9</ele>
        <time>2020-08-17T07:20:02Z</time>
      </trkpt>
      <trkpt lat="48.6194" lon="-3.95376">
        <ele>12.7</ele>
        <time>2020-08-17T07:20:08Z</time>
      </trkpt>
      <trkpt lat="48.61977" lon="-3.95367">
        <ele>12</ele>
        <time>2020-08-17T07:20:15Z</time>
      </trkpt>
      <trkpt lat="48.62015" lon="-3.95358">
        <ele>11.5</ele>
        <time>2020-08-17T07:20:22Z</time>
      </trkpt>
      <trkpt lat="48.6206" lon="-3.95348">
        <ele>11.9</ele>
        <time>2020-08-17T07:20:30Z</time>
      </trkpt>
      <trkpt lat="48.62106" lon="-3.95345">
        <ele>11.3</ele>
        <time>2020-08-17T07:20:38Z</time>
      </trkpt>
      <trkpt lat="48.62167" lon="-3.95353">
        <ele>8.7</ele>
        <time>2020-08-17T07:20:48Z</time>
      </trkpt>
      <trkpt lat="48.62221" lon="-3.95364">
        <ele>9.2</ele>
        <time>2020-08-17T07:20:57Z</time>
      </trkpt>
      <trkpt lat="48.62254" lon="-3.95386">
        <ele>8.7</ele>
        <time>2020-08-17T07:21:03Z</time>
      </trkpt>
      <trkpt lat="48.62299" lon="-3.95413">
        <ele>8</ele>
        <time>2020-08-17T07:21:11Z</time>
      </trkpt>
      <trkpt lat="48.62353" lon="-3.95421">
        <ele>8.3</ele>
        <time>2020-08-17T07:21:20Z</time>
      </trkpt>
      <trkpt lat="48.62413" lon="-3.95428">
        <ele>7.5</ele>
        <time>2020-08-17T07:21:30Z</time>
      </trkpt>
      <trkpt lat="48.6247" lon="-3.95435">
        <ele>8.3</ele>
        <time>2020-08-17T07:21:40Z</time>
      </trkpt>
      <trkpt lat="48.62539" lon="-3.95445">
        <ele>8.1</ele>
        <time>2020-08-17T07:21:52Z</time>
      </trkpt>
      <trkpt lat="48.62594" lon="-3.95456">
        <ele>7</ele>
        <time>2020-08-17T07:22:02Z</time>
      </trkpt>
      <trkpt lat="48.62615" lon="-3.95463">
        <ele>7.1</ele>
        <time>2020-08-17T07:22:06Z</time>
      </trkpt>
      <trkpt lat="48.6264" lon="-3.95487">
        <ele>7.2</ele>
        <time>2020-08-17T07:22:12Z</time>
      </trkpt>
      <trkpt lat="48.62648" lon="-3.95515">
        <ele>9.9</ele>
        <time>2020-08-17T07:22:16Z</time>
      </trkpt>
      <trkpt lat="48.62652" lon="-3.95536">
        <ele>10.6</ele>
        <time>2020-08-17T07:22:19Z</time>
      </trkpt>
      <trkpt lat="48.62647" lon="-3.95594">
        <ele>13.4</ele>
        <time>2020-08-17T07:22:26Z</time>
      </trkpt>
      <trkpt lat="48.62647" lon="-3.95628">
        <ele>14.5</ele>
        <time>2020-08-17T07:22:30Z</time>
      </trkpt>
      <trkpt lat="48.62652" lon="-3.95687">
        <ele>16.5</ele>
        <time>2020-08-17T07:22:37Z</time>
      </trkpt>
      <trkpt lat="48.62659" lon="-3.95734">
        <ele>17.2</ele>
        <time>2020-08-17T07:22:43Z</time>
      </trkpt>
      <trkpt lat="48.62658" lon="-3.95766">
        <ele>19.6</ele>
        <time>2020-08-17T07:22:47Z</time>
      </trkpt>
      <trkpt lat="48.62651" lon="-3.95841">
        <ele>23.2</ele>
        <time>2020-08-17T07:22:56Z</time>
      </trkpt>
      <trkpt lat="48.62658" lon="-3.95899">
        <ele>22.8</ele>
        <time>2020-08-17T07:23:03Z</time>
      </trkpt>
      <trkpt lat="48.62662" lon="-3.9593">
        <ele>22.6</ele>
        <time>2020-08-17T07:23:07Z</time>
      </trkpt>
      <trkpt lat="48.6267" lon="-3.95983">
        <ele>21.5</ele>
        <time>2020-08-17T07:23:14Z</time>
      </trkpt>
      <trkpt lat="48.62678" lon="-3.96037">
        <ele>20.7</ele>
        <time>2020-08-17T07:23:21Z</time>
      </trkpt>
      <trkpt lat="48.62687" lon="-3.96079">
        <ele>20.6</ele>
        <time>2020-08-17T07:23:26Z</time>
      </trkpt>
      <trkpt lat="48.62709" lon="-3.96124">
        <ele>17.7</ele>
        <time>2020-08-17T07:23:32Z</time>
      </trkpt>
      <trkpt lat="48.62719" lon="-3.96132">
        <ele>17.4</ele>
        <time>2020-08-17T07:23:34Z</time>
      </trkpt>
      <trkpt lat="48.6276" lon="-3.96162">
        <ele>17</ele>
        <time>2020-08-17T07:23:43Z</time>
      </trkpt>
      <trkpt lat="48.62782" lon="-3.96189">
        <ele>17.6</ele>
        <time>2020-08-17T07:23:50Z</time>
      </trkpt>
      <trkpt lat="48.62801" lon="-3.96217">
        <ele>17.7</ele>
        <time>2020-08-17T07:23:58Z</time>
      </trkpt>
      <trkpt lat="48.62815" lon="-3.96237">
        <ele>17.2</ele>
        <time>2020-08-17T07:24:04Z</time>
      </trkpt>
      <trkpt lat="48.62841" lon="-3.96263">
        <ele>17.2</ele>
        <time>2020-08-17T07:24:14Z</time>
      </trkpt>
      <trkpt lat="48.62863" lon="-3.96282">
        <ele>18.3</ele>
        <time>2020-08-17T07:24:23Z</time>
      </trkpt>
      <trkpt lat="48.62885" lon="-3.96301">
        <ele>18.6</ele>
        <time>2020-08-17T07:24:32Z</time>
      </trkpt>
      <trkpt lat="48.62916" lon="-3.96326">
        <ele>18.2</ele>
        <time>2020-08-17T07:24:44Z</time>
      </trkpt>
      <trkpt lat="48.62941" lon="-3.96347">
        <ele>21.6</ele>
        <time>2020-08-17T07:24:53Z</time>
      </trkpt>
      <trkpt lat="48.62958" lon="-3.9636">
        <ele>22.8</ele>
        <time>2020-08-17T07:24:59Z</time>
      </trkpt>
      <trkpt lat="48.62972" lon="-3.96371">
        <ele>23.3</ele>
        <time>2020-08-17T07:25:04Z</time>
      </trkpt>
      <trkpt lat="48.62993" lon="-3.96385">
        <ele>23.6</ele>
        <time>2020-08-17T07:25:11Z</time>
      </trkpt>
      <trkpt lat="48.63016" lon="-3.96397">
        <ele>26.6</ele>
        <time>2020-08-17T07:25:19Z</time>
      </trkpt>
      <trkpt lat="48.6304" lon="-3.96407">
        <ele>27.4</ele>
        <time>2020-08-17T07:25:28Z</time>
      </trkpt>
      <trkpt lat="48.63066" lon="-3.96421">
        <ele>28</ele>
        <time>2020-08-17T07:25:39Z</time>
      </trkpt>
      <trkpt lat="48.6308" lon="-3.96433">
        <ele>28.2</ele>
        <time>2020-08-17T07:25:46Z</time>
      </trkpt>
      <trkpt lat="48.63094" lon="-3.9645">
        <ele>30.9</ele>
        <time>2020-08-17T07:25:53Z</time>
      </trkpt>
      <trkpt lat="48.6311" lon="-3.96467">
        <ele>31.4</ele>
        <time>2020-08-17T07:26:00Z</time>
      </trkpt>
      <trkpt lat="48.63119" lon="-3.96478">
        <ele>31.5</ele>
        <time>2020-08-17T07:26:05Z</time>
      </trkpt>
      <trkpt lat="48.63135" lon="-3.96495">
        <ele>31.6</ele>
        <time>2020-08-17T07:26:12Z</time>
      </trkpt>
      <trkpt lat="48.63154" lon="-3.96516">
        <ele>31.1</ele>
        <time>2020-08-17T07:26:20Z</time>
      </trkpt>
      <trkpt lat="48.63174" lon="-3.96535">
        <ele>31.9</ele>
        <time>2020-08-17T07:26:28Z</time>
      </trkpt>
      <trkpt lat="48.63201" lon="-3.96558">
        <ele>32.2</ele>
        <time>2020-08-17T07:26:40Z</time>
      </trkpt>
      <trkpt lat="48.63219" lon="-3.96571">
        <ele>32.6</ele>
        <time>2020-08-17T07:26:48Z</time>
      </trkpt>
      <trkpt lat="48.63237" lon="-3.96582">
        <ele>32.9</ele>
        <time>2020-08-17T07:26:57Z</time>
      </trkpt>
      <trkpt lat="48.6326" lon="-3.96595">
        <ele>34.9</ele>
        <time>2020-08-17T07:27:08Z</time>
      </trkpt>
      <trkpt lat="48.63278" lon="-3.96606">
        <ele>36.3</ele>
        <time>2020-08-17T07:27:17Z</time>
      </trkpt>
      <trkpt lat="48.63292" lon="-3.96615">
        <ele>36.9</ele>
        <time>2020-08-17T07:27:24Z</time>
      </trkpt>
      <trkpt lat="48.63311" lon="-3.96628">
        <ele>37.5</ele>
        <time>2020-08-17T07:27:34Z</time>
      </trkpt>
      <trkpt lat="48.63328" lon="-3.9664">
        <ele>37.9</ele>
        <time>2020-08-17T07:27:43Z</time>
      </trkpt>
      <trkpt lat="48.63347" lon="-3.96653">
        <ele>40.1</ele>
        <time>2020-08-17T07:27:53Z</time>
      </trkpt>
      <trkpt lat="48.63366" lon="-3.96666">
        <ele>40.7</ele>
        <time>2020-08-17T07:28:03Z</time>
      </trkpt>
      <trkpt lat="48.63382" lon="-3.96676">
        <ele>42.3</ele>
        <time>2020-08-17T07:28:11Z</time>
      </trkpt>
      <trkpt lat="48.63407" lon="-3.96693">
        <ele>42.7</ele>
        <time>2020-08-17T07:28:22Z</time>
      </trkpt>
      <trkpt lat="48.63434" lon="-3.96712">
        <ele>45.4</ele>
        <time>2020-08-17T07:28:34Z</time>
      </trkpt>
      <trkpt lat="48.63458" lon="-3.96729">
        <ele>46.1</ele>
        <time>2020-08-17T07:28:45Z</time>
      </trkpt>
      <trkpt lat="48.63474" lon="-3.9674">
        <ele>46.7</ele>
        <time>2020-08-17T07:28:53Z</time>
      </trkpt>
      <trkpt lat="48.63491" lon="-3.96752">
        <ele>48</ele>
        <time>2020-08-17T07:29:01Z</time>
      </trkpt>
      <trkpt lat="48.63507" lon="-3.96763">
        <ele>48.4</ele>
        <time>2020-08-17T07:29:08Z</time>
      </trkpt>
      <trkpt lat="48.6353" lon="-3.96779">
        <ele>48.7</ele>
        <time>2020-08-17T07:29:18Z</time>
      </trkpt>
      <trkpt lat="48.63553" lon="-3.96794">
        <ele>48.8</ele>
        <time>2020-08-17T07:29:28Z</time>
      </trkpt>
      <trkpt lat="48.63581" lon="-3.96811">
        <ele>48.5</ele>
        <time>2020-08-17T07:29:40Z</time>
      </trkpt>
      <trkpt lat="48.63609" lon="-3.96827">
        <ele>48.9</ele>
        <time>2020-08-17T07:29:52Z</time>
      </trkpt>
      <trkpt lat="48.63632" lon="-3.96839">
        <ele>49.7</ele>
        <time>2020-08-17T07:30:02Z</time>
      </trkpt>
      <trkpt lat="48.63649" lon="-3.96849">
        <ele>49.8</ele>
        <time>2020-08-17T07:30:10Z</time>
      </trkpt>
      <trkpt lat="48.63673" lon="-3.96863">
        <ele>51.9</ele>
        <time>2020-08-17T07:30:21Z</time>
      </trkpt>
      <trkpt lat="48.63686" lon="-3.96871">
        <ele>52.5</ele>
        <time>2020-08-17T07:30:27Z</time>
      </trkpt>
      <trkpt lat="48.63701" lon="-3.9688">
        <ele>53</ele>
        <time>2020-08-17T07:30:34Z</time>
      </trkpt>
      <trkpt lat="48.63727" lon="-3.96896">
        <ele>53.9</ele>
        <time>2020-08-17T07:30:46Z</time>
      </trkpt>
      <trkpt lat="48.63748" lon="-3.96909">
        <ele>55.2</ele>
        <time>2020-08-17T07:30:56Z</time>
      </trkpt>
      <trkpt lat="48.63766" lon="-3.9692">
        <ele>56.8</ele>
        <time>2020-08-17T07:31:04Z</time>
      </trkpt>
      <trkpt lat="48.63791" lon="-3.96933">
        <ele>57.5</ele>
        <time>2020-08-17T07:31:15Z</time>
      </trkpt>
      <trkpt lat="48.6381" lon="-3.96943">
        <ele>57.9</ele>
        <time>2020-08-17T07:31:23Z</time>
      </trkpt>
      <trkpt lat="48.63827" lon="-3.96949">
        <ele>58.1</ele>
        <time>2020-08-17T07:31:30Z</time>
      </trkpt>
      <trkpt lat="48.63847" lon="-3.96946">
        <ele>59.5</ele>
        <time>2020-08-17T07:31:39Z</time>
      </trkpt>
      <trkpt lat="48.63864" lon="-3.96935">
        <ele>59.6</ele>
        <time>2020-08-17T07:31:47Z</time>
      </trkpt>
      <trkpt lat="48.63877" lon="-3.96921">
        <ele>59.9</ele>
        <time>2020-08-17T07:31:54Z</time>
      </trkpt>
      <trkpt lat="48.63891" lon="-3.96907">
        <ele>59.1</ele>
        <time>2020-08-17T07:32:01Z</time>
      </trkpt>
      <trkpt lat="48.63902" lon="-3.96891">
        <ele>59</ele>
        <time>2020-08-17T07:32:08Z</time>
      </trkpt>
      <trkpt lat="48.63906" lon="-3.96882">
        <ele>58.8</ele>
        <time>2020-08-17T07:32:12Z</time>
      </trkpt>
      <trkpt lat="48.6391" lon="-3.96875">
        <ele>58.7</ele>
        <time>2020-08-17T07:32:17Z</time>
      </trkpt>
      <trkpt lat="48.63916" lon="-3.96867">
        <ele>58.5</ele>
        <time>2020-08-17T07:32:21Z</time>
      </trkpt>
      <trkpt lat="48.63918" lon="-3.96864">
        <ele>59.6</ele>
        <time>2020-08-17T07:32:22Z</time>
      </trkpt>
      <trkpt lat="48.63925" lon="-3.96854">
        <ele>59.4</ele>
        <time>2020-08-17T07:32:28Z</time>
      </trkpt>
      <trkpt lat="48.63925" lon="-3.96854">
        <ele>59.4</ele>
        <time>2020-08-17T07:32:29Z</time>
      </trkpt>
      <trkpt lat="48.63929" lon="-3.96847">
        <ele>59.2</ele>
        <time>2020-08-17T07:32:36Z</time>
      </trkpt>
      <trkpt lat="48.63939" lon="-3.96834">
        <ele>59.3</ele>
        <time>2020-08-17T07:32:42Z</time>
      </trkpt>
      <trkpt lat="48.63953" lon="-3.96813">
        <ele>58.4</ele>
        <time>2020-08-17T07:32:50Z</time>
      </trkpt>
      <trkpt lat="48.63968" lon="-3.96791">
        <ele>58.3</ele>
        <time>2020-08-17T07:32:59Z</time>
      </trkpt>
      <trkpt lat="48.63981" lon="-3.96772">
        <ele>58.2</ele>
        <time>2020-08-17T07:33:07Z</time>
      </trkpt>
      <trkpt lat="48.63994" lon="-3.96754">
        <ele>58.1</ele>
        <time>2020-08-17T07:33:13Z</time>
      </trkpt>
      <trkpt lat="48.64021" lon="-3.96715">
        <ele>59</ele>
        <time>2020-08-17T07:33:24Z</time>
      </trkpt>
      <trkpt lat="48.64049" lon="-3.96675">
        <ele>59.3</ele>
        <time>2020-08-17T07:33:35Z</time>
      </trkpt>
      <trkpt lat="48.64072" lon="-3.96642">
        <ele>59.2</ele>
        <time>2020-08-17T07:33:44Z</time>
      </trkpt>
      <trkpt lat="48.64107" lon="-3.96591">
        <ele>59.4</ele>
        <time>2020-08-17T07:33:57Z</time>
      </trkpt>
      <trkpt lat="48.64139" lon="-3.96545">
        <ele>58.6</ele>
        <time>2020-08-17T07:34:09Z</time>
      </trkpt>
      <trkpt lat="48.64164" lon="-3.9651">
        <ele>58.8</ele>
        <time>2020-08-17T07:34:18Z</time>
      </trkpt>
      <trkpt lat="48.64192" lon="-3.9647">
        <ele>58</ele>
        <time>2020-08-17T07:34:28Z</time>
      </trkpt>
      <trkpt lat="48.64215" lon="-3.96439">
        <ele>57.4</ele>
        <time>2020-08-17T07:34:36Z</time>
      </trkpt>
      <trkpt lat="48.64235" lon="-3.96411">
        <ele>55.7</ele>
        <time>2020-08-17T07:34:43Z</time>
      </trkpt>
      <trkpt lat="48.64262" lon="-3.96374">
        <ele>53.8</ele>
        <time>2020-08-17T07:34:52Z</time>
      </trkpt>
      <trkpt lat="48.64276" lon="-3.96353">
        <ele>53.3</ele>
        <time>2020-08-17T07:34:57Z</time>
      </trkpt>
      <trkpt lat="48.64304" lon="-3.96313">
        <ele>51.3</ele>
        <time>2020-08-17T07:35:06Z</time>
      </trkpt>
      <trkpt lat="48.64341" lon="-3.9626">
        <ele>49.6</ele>
        <time>2020-08-17T07:35:17Z</time>
      </trkpt>
      <trkpt lat="48.64366" lon="-3.96223">
        <ele>47.2</ele>
        <time>2020-08-17T07:35:26Z</time>
      </trkpt>
      <trkpt lat="48.64368" lon="-3.96217">
        <ele>47.1</ele>
        <time>2020-08-17T07:35:30Z</time>
      </trkpt>
      <trkpt lat="48.64359" lon="-3.96197">
        <ele>47</ele>
        <time>2020-08-17T07:35:35Z</time>
      </trkpt>
      <trkpt lat="48.64352" lon="-3.96163">
        <ele>45.6</ele>
        <time>2020-08-17T07:35:42Z</time>
      </trkpt>
      <trkpt lat="48.6435" lon="-3.96141">
        <ele>44.8</ele>
        <time>2020-08-17T07:35:48Z</time>
      </trkpt>
      <trkpt lat="48.64347" lon="-3.9612">
        <ele>44.1</ele>
        <time>2020-08-17T07:35:55Z</time>
      </trkpt>
      <trkpt lat="48.64344" lon="-3.96094">
        <ele>43.8</ele>
        <time>2020-08-17T07:36:01Z</time>
      </trkpt>
      <trkpt lat="48.64341" lon="-3.9606">
        <ele>41.6</ele>
        <time>2020-08-17T07:36:07Z</time>
      </trkpt>
      <trkpt lat="48.6434" lon="-3.96038">
        <ele>40.8</ele>
        <time>2020-08-17T07:36:10Z</time>
      </trkpt>
      <trkpt lat="48.64346" lon="-3.96008">
        <ele>40.5</ele>
        <time>2020-08-17T07:36:14Z</time>
      </trkpt>
      <trkpt lat="48.64374" lon="-3.95939">
        <ele>37.3</ele>
        <time>2020-08-17T07:36:24Z</time>
      </trkpt>
      <trkpt lat="48.64391" lon="-3.95897">
        <ele>35.7</ele>
        <time>2020-08-17T07:36:30Z</time>
      </trkpt>
      <trkpt lat="48.64413" lon="-3.95848">
        <ele>34.4</ele>
        <time>2020-08-17T07:36:37Z</time>
      </trkpt>
      <trkpt lat="48.6442" lon="-3.95834">
        <ele>32.5</ele>
        <time>2020-08-17T07:36:39Z</time>
      </trkpt>
      <trkpt lat="48.64429" lon="-3.95823">
        <ele>30.2</ele>
        <time>2020-08-17T07:36:41Z</time>
      </trkpt>
      <trkpt lat="48.64449" lon="-3.95795">
        <ele>27.8</ele>
        <time>2020-08-17T07:36:46Z</time>
      </trkpt>
      <trkpt lat="48.64463" lon="-3.95776">
        <ele>26.9</ele>
        <time>2020-08-17T07:36:50Z</time>
      </trkpt>
      <trkpt lat="48.64472" lon="-3.95764">
        <ele>26.2</ele>
        <time>2020-08-17T07:36:52Z</time>
      </trkpt>
      <trkpt lat="48.64483" lon="-3.9575">
        <ele>25.1</ele>
        <time>2020-08-17T07:36:55Z</time>
      </trkpt>
      <trkpt lat="48.64511" lon="-3.95715">
        <ele>20.2</ele>
        <time>2020-08-17T07:37:02Z</time>
      </trkpt>
      <trkpt lat="48.64534" lon="-3.95686">
        <ele>19.3</ele>
        <time>2020-08-17T07:37:08Z</time>
      </trkpt>
      <trkpt lat="48.64537" lon="-3.95681">
        <ele>19.1</ele>
        <time>2020-08-17T07:37:09Z</time>
      </trkpt>
      <trkpt lat="48.6455" lon="-3.95665">
        <ele>16.8</ele>
        <time>2020-08-17T07:37:13Z</time>
      </trkpt>
      <trkpt lat="48.64566" lon="-3.9565">
        <ele>15.9</ele>
        <time>2020-08-17T07:37:18Z</time>
      </trkpt>
      <trkpt lat="48.64568" lon="-3.95641">
        <ele>15.8</ele>
        <time>2020-08-17T07:37:23Z</time>
      </trkpt>
      <trkpt lat="48.64568" lon="-3.95641">
        <ele>15.8</ele>
        <time>2020-08-17T07:37:24Z</time>
      </trkpt>
      <trkpt lat="48.64566" lon="-3.9564">
        <ele>15.9</ele>
        <time>2020-08-17T07:37:29Z</time>
      </trkpt>
      <trkpt lat="48.64553" lon="-3.95628">
        <ele>16.1</ele>
        <time>2020-08-17T07:37:36Z</time>
      </trkpt>
      <trkpt lat="48.6454" lon="-3.95613">
        <ele>16.3</ele>
        <time>2020-08-17T07:37:43Z</time>
      </trkpt>
      <trkpt lat="48.64527" lon="-3.95596">
        <ele>16.6</ele>
        <time>2020-08-17T07:37:51Z</time>
      </trkpt>
      <trkpt lat="48.64509" lon="-3.95566">
        <ele>15.8</ele>
        <time>2020-08-17T07:37:59Z</time>
      </trkpt>
      <trkpt lat="48.64494" lon="-3.95535">
        <ele>20.4</ele>
        <time>2020-08-17T07:38:07Z</time>
      </trkpt>
      <trkpt lat="48.64483" lon="-3.95506">
        <ele>19.9</ele>
        <time>2020-08-17T07:38:14Z</time>
      </trkpt>
      <trkpt lat="48.64515" lon="-3.9543">
        <ele>13.3</ele>
        <time>2020-08-17T07:38:21Z</time>
      </trkpt>
      <trkpt lat="48.64496" lon="-3.95397">
        <ele>15.5</ele>
        <time>2020-08-17T07:38:31Z</time>
      </trkpt>
      <trkpt lat="48.64488" lon="-3.9538">
        <ele>14.9</ele>
        <time>2020-08-17T07:38:37Z</time>
      </trkpt>
      <trkpt lat="48.64485" lon="-3.95375">
        <ele>14.8</ele>
        <time>2020-08-17T07:38:42Z</time>
      </trkpt>
      <trkpt lat="48.64485" lon="-3.95375">
        <ele>14.8</ele>
        <time>2020-08-17T07:38:47Z</time>
      </trkpt>
      <trkpt lat="48.64465" lon="-3.9532">
        <ele>11.8</ele>
        <time>2020-08-17T07:38:50Z</time>
      </trkpt>
      <trkpt lat="48.64489" lon="-3.95382">
        <ele>15</ele>
        <time>2020-08-17T07:38:59Z</time>
      </trkpt>
      <trkpt lat="48.64493" lon="-3.95391">
        <ele>15.3</ele>
        <time>2020-08-17T07:39:34Z</time>
      </trkpt>
      <trkpt lat="48.64505" lon="-3.95412">
        <ele>14.6</ele>
        <time>2020-08-17T07:39:39Z</time>
      </trkpt>
      <trkpt lat="48.64517" lon="-3.95434">
        <ele>13</ele>
        <time>2020-08-17T07:39:43Z</time>
      </trkpt>
      <trkpt lat="48.64535" lon="-3.95461">
        <ele>11.8</ele>
        <time>2020-08-17T07:39:48Z</time>
      </trkpt>
      <trkpt lat="48.64554" lon="-3.95487">
        <ele>10.8</ele>
        <time>2020-08-17T07:39:53Z</time>
      </trkpt>
      <trkpt lat="48.6458" lon="-3.95526">
        <ele>11.5</ele>
        <time>2020-08-17T07:40:00Z</time>
      </trkpt>
      <trkpt lat="48.64594" lon="-3.95547">
        <ele>8.5</ele>
        <time>2020-08-17T07:40:04Z</time>
      </trkpt>
      <trkpt lat="48.64618" lon="-3.95584">
        <ele>9.5</ele>
        <time>2020-08-17T07:40:10Z</time>
      </trkpt>
      <trkpt lat="48.64641" lon="-3.95614">
        <ele>9</ele>
        <time>2020-08-17T07:40:15Z</time>
      </trkpt>
      <trkpt lat="48.64669" lon="-3.95634">
        <ele>7.7</ele>
        <time>2020-08-17T07:40:21Z</time>
      </trkpt>
      <trkpt lat="48.64695" lon="-3.95638">
        <ele>7.7</ele>
        <time>2020-08-17T07:40:27Z</time>
      </trkpt>
      <trkpt lat="48.6472" lon="-3.95642">
        <ele>7.7</ele>
        <time>2020-08-17T07:40:34Z</time>
      </trkpt>
      <trkpt lat="48.64738" lon="-3.9565">
        <ele>7.8</ele>
        <time>2020-08-17T07:40:40Z</time>
      </trkpt>
      <trkpt lat="48.64756" lon="-3.95669">
        <ele>8.2</ele>
        <time>2020-08-17T07:40:46Z</time>
      </trkpt>
      <trkpt lat="48.64771" lon="-3.95698">
        <ele>8.8</ele>
        <time>2020-08-17T07:40:53Z</time>
      </trkpt>
      <trkpt lat="48.64778" lon="-3.9572">
        <ele>9.4</ele>
        <time>2020-08-17T07:40:58Z</time>
      </trkpt>
      <trkpt lat="48.64783" lon="-3.95742">
        <ele>9.9</ele>
        <time>2020-08-17T07:41:03Z</time>
      </trkpt>
      <trkpt lat="48.64786" lon="-3.95762">
        <ele>13.1</ele>
        <time>2020-08-17T07:41:09Z</time>
      </trkpt>
      <trkpt lat="48.648" lon="-3.95791">
        <ele>13.5</ele>
        <time>2020-08-17T07:41:16Z</time>
      </trkpt>
      <trkpt lat="48.64811" lon="-3.95799">
        <ele>13.5</ele>
        <time>2020-08-17T07:41:23Z</time>
      </trkpt>
      <trkpt lat="48.64813" lon="-3.958">
        <ele>13.5</ele>
        <time>2020-08-17T07:41:25Z</time>
      </trkpt>
      <trkpt lat="48.64819" lon="-3.95779">
        <ele>12.5</ele>
        <time>2020-08-17T07:41:29Z</time>
      </trkpt>
      <trkpt lat="48.64826" lon="-3.95759">
        <ele>10.7</ele>
        <time>2020-08-17T07:41:35Z</time>
      </trkpt>
      <trkpt lat="48.64827" lon="-3.95755">
        <ele>10.3</ele>
        <time>2020-08-17T07:41:36Z</time>
      </trkpt>
      <trkpt lat="48.64835" lon="-3.95735">
        <ele>8.3</ele>
        <time>2020-08-17T07:41:40Z</time>
      </trkpt>
      <trkpt lat="48.64838" lon="-3.95728">
        <ele>8</ele>
        <time>2020-08-17T07:41:41Z</time>
      </trkpt>
      <trkpt lat="48.64844" lon="-3.95712">
        <ele>7.5</ele>
        <time>2020-08-17T07:41:43Z</time>
      </trkpt>
      <trkpt lat="48.64853" lon="-3.95688">
        <ele>6.7</ele>
        <time>2020-08-17T07:41:46Z</time>
      </trkpt>
      <trkpt lat="48.64867" lon="-3.95647">
        <ele>4.7</ele>
        <time>2020-08-17T07:41:53Z</time>
      </trkpt>
      <trkpt lat="48.64877" lon="-3.95623">
        <ele>4.3</ele>
        <time>2020-08-17T07:41:58Z</time>
      </trkpt>
      <trkpt lat="48.64887" lon="-3.95627">
        <ele>4.3</ele>
        <time>2020-08-17T07:42:04Z</time>
      </trkpt>
      <trkpt lat="48.64898" lon="-3.95632">
        <ele>4.4</ele>
        <time>2020-08-17T07:42:10Z</time>
      </trkpt>
      <trkpt lat="48.64914" lon="-3.95643">
        <ele>4.9</ele>
        <time>2020-08-17T07:42:19Z</time>
      </trkpt>
      <trkpt lat="48.64916" lon="-3.95649">
        <ele>5.1</ele>
        <time>2020-08-17T07:42:22Z</time>
      </trkpt>
      <trkpt lat="48.6492" lon="-3.9566">
        <ele>5.6</ele>
        <time>2020-08-17T07:42:27Z</time>
      </trkpt>
      <trkpt lat="48.64919" lon="-3.95659">
        <ele>5.5</ele>
        <time>2020-08-17T07:42:31Z</time>
      </trkpt>
      <trkpt lat="48.64952" lon="-3.95737">
        <ele>8.5</ele>
        <time>2020-08-17T07:42:35Z</time>
      </trkpt>
      <trkpt lat="48.64921" lon="-3.95663">
        <ele>5.7</ele>
        <time>2020-08-17T07:42:40Z</time>
      </trkpt>
      <trkpt lat="48.64925" lon="-3.95677">
        <ele>6.9</ele>
        <time>2020-08-17T07:42:45Z</time>
      </trkpt>
      <trkpt lat="48.64936" lon="-3.95696">
        <ele>7.7</ele>
        <time>2020-08-17T07:42:53Z</time>
      </trkpt>
      <trkpt lat="48.64945" lon="-3.95715">
        <ele>8.2</ele>
        <time>2020-08-17T07:43:01Z</time>
      </trkpt>
      <trkpt lat="48.64951" lon="-3.95732">
        <ele>8.4</ele>
        <time>2020-08-17T07:43:08Z</time>
      </trkpt>
      <trkpt lat="48.64959" lon="-3.95747">
        <ele>8.5</ele>
        <time>2020-08-17T07:43:15Z</time>
      </trkpt>
      <trkpt lat="48.64969" lon="-3.95759">
        <ele>11.2</ele>
        <time>2020-08-17T07:43:23Z</time>
      </trkpt>
      <trkpt lat="48.64986" lon="-3.95776">
        <ele>11.3</ele>
        <time>2020-08-17T07:43:34Z</time>
      </trkpt>
      <trkpt lat="48.65006" lon="-3.95784">
        <ele>11.9</ele>
        <time>2020-08-17T07:43:43Z</time>
      </trkpt>
      <trkpt lat="48.65025" lon="-3.95788">
        <ele>12.4</ele>
        <time>2020-08-17T07:43:51Z</time>
      </trkpt>
      <trkpt lat="48.65043" lon="-3.95788">
        <ele>12.6</ele>
        <time>2020-08-17T07:43:58Z</time>
      </trkpt>
      <trkpt lat="48.65058" lon="-3.95778">
        <ele>12.5</ele>
        <time>2020-08-17T07:44:04Z</time>
      </trkpt>
      <trkpt lat="48.65066" lon="-3.95781">
        <ele>12.6</ele>
        <time>2020-08-17T07:44:08Z</time>
      </trkpt>
      <trkpt lat="48.65085" lon="-3.95787">
        <ele>13.9</ele>
        <time>2020-08-17T07:44:14Z</time>
      </trkpt>
      <trkpt lat="48.65094" lon="-3.95774">
        <ele>13.3</ele>
        <time>2020-08-17T07:44:18Z</time>
      </trkpt>
      <trkpt lat="48.65097" lon="-3.95759">
        <ele>12.6</ele>
        <time>2020-08-17T07:44:22Z</time>
      </trkpt>
      <trkpt lat="48.65103" lon="-3.95759">
        <ele>12.9</ele>
        <time>2020-08-17T07:44:24Z</time>
      </trkpt>
      <trkpt lat="48.65125" lon="-3.95759">
        <ele>13.5</ele>
        <time>2020-08-17T07:44:33Z</time>
      </trkpt>
      <trkpt lat="48.65136" lon="-3.95759">
        <ele>13.6</ele>
        <time>2020-08-17T07:44:40Z</time>
      </trkpt>
      <trkpt lat="48.65145" lon="-3.95761">
        <ele>13.6</ele>
        <time>2020-08-17T07:44:48Z</time>
      </trkpt>
      <trkpt lat="48.65146" lon="-3.95764">
        <ele>13.7</ele>
        <time>2020-08-17T07:44:52Z</time>
      </trkpt>
      <trkpt lat="48.65148" lon="-3.95773">
        <ele>13.8</ele>
        <time>2020-08-17T07:44:56Z</time>
      </trkpt>
      <trkpt lat="48.65152" lon="-3.95794">
        <ele>14.4</ele>
        <time>2020-08-17T07:45:06Z</time>
      </trkpt>
      <trkpt lat="48.65155" lon="-3.95812">
        <ele>14.9</ele>
        <time>2020-08-17T07:45:14Z</time>
      </trkpt>
      <trkpt lat="48.65159" lon="-3.95834">
        <ele>16.6</ele>
        <time>2020-08-17T07:45:24Z</time>
      </trkpt>
      <trkpt lat="48.65164" lon="-3.9586">
        <ele>17.7</ele>
        <time>2020-08-17T07:45:36Z</time>
      </trkpt>
      <trkpt lat="48.65165" lon="-3.95864">
        <ele>17.9</ele>
        <time>2020-08-17T07:45:38Z</time>
      </trkpt>
      <trkpt lat="48.65174" lon="-3.95869">
        <ele>19.6</ele>
        <time>2020-08-17T07:45:43Z</time>
      </trkpt>
      <trkpt lat="48.65189" lon="-3.9586">
        <ele>19.6</ele>
        <time>2020-08-17T07:45:52Z</time>
      </trkpt>
      <trkpt lat="48.65209" lon="-3.95844">
        <ele>20.1</ele>
        <time>2020-08-17T07:46:02Z</time>
      </trkpt>
      <trkpt lat="48.65233" lon="-3.95827">
        <ele>18.7</ele>
        <time>2020-08-17T07:46:12Z</time>
      </trkpt>
      <trkpt lat="48.65251" lon="-3.95813">
        <ele>20.6</ele>
        <time>2020-08-17T07:46:19Z</time>
      </trkpt>
      <trkpt lat="48.65278" lon="-3.95793">
        <ele>20.4</ele>
        <time>2020-08-17T07:46:29Z</time>
      </trkpt>
      <trkpt lat="48.65305" lon="-3.95772">
        <ele>20.6</ele>
        <time>2020-08-17T07:46:39Z</time>
      </trkpt>
      <trkpt lat="48.65328" lon="-3.95755">
        <ele>20.9</ele>
        <time>2020-08-17T07:46:47Z</time>
      </trkpt>
      <trkpt lat="48.65353" lon="-3.95736">
        <ele>21.3</ele>
        <time>2020-08-17T07:46:57Z</time>
      </trkpt>
      <trkpt lat="48.65382" lon="-3.95713">
        <ele>21.6</ele>
        <time>2020-08-17T07:47:09Z</time>
      </trkpt>
      <trkpt lat="48.65403" lon="-3.95697">
        <ele>21.5</ele>
        <time>2020-08-17T07:47:17Z</time>
      </trkpt>
      <trkpt lat="48.65421" lon="-3.95684">
        <ele>22.4</ele>
        <time>2020-08-17T07:47:24Z</time>
      </trkpt>
      <trkpt lat="48.65431" lon="-3.95677">
        <ele>22.3</ele>
        <time>2020-08-17T07:47:30Z</time>
      </trkpt>
      <trkpt lat="48.65433" lon="-3.95675">
        <ele>22.4</ele>
        <time>2020-08-17T07:47:31Z</time>
      </trkpt>
      <trkpt lat="48.65439" lon="-3.95671">
        <ele>22.5</ele>
        <time>2020-08-17T07:47:37Z</time>
      </trkpt>
      <trkpt lat="48.65445" lon="-3.95667">
        <ele>22.6</ele>
        <time>2020-08-17T07:48:42Z</time>
      </trkpt>
      <trkpt lat="48.65461" lon="-3.95655">
        <ele>18.6</ele>
        <time>2020-08-17T07:48:47Z</time>
      </trkpt>
      <trkpt lat="48.65487" lon="-3.95638">
        <ele>18.3</ele>
        <time>2020-08-17T07:48:52Z</time>
      </trkpt>
      <trkpt lat="48.65521" lon="-3.95614">
        <ele>18.1</ele>
        <time>2020-08-17T07:48:57Z</time>
      </trkpt>
      <trkpt lat="48.65529" lon="-3.9561">
        <ele>18</ele>
        <time>2020-08-17T07:48:58Z</time>
      </trkpt>
      <trkpt lat="48.65566" lon="-3.95602">
        <ele>17.8</ele>
        <time>2020-08-17T07:49:03Z</time>
      </trkpt>
      <trkpt lat="48.65602" lon="-3.95598">
        <ele>18.9</ele>
        <time>2020-08-17T07:49:09Z</time>
      </trkpt>
      <trkpt lat="48.65634" lon="-3.95589">
        <ele>19.5</ele>
        <time>2020-08-17T07:49:15Z</time>
      </trkpt>
      <trkpt lat="48.65677" lon="-3.95564">
        <ele>17.7</ele>
        <time>2020-08-17T07:49:24Z</time>
      </trkpt>
      <trkpt lat="48.65714" lon="-3.95544">
        <ele>18</ele>
        <time>2020-08-17T07:49:32Z</time>
      </trkpt>
      <trkpt lat="48.65747" lon="-3.95527">
        <ele>17.9</ele>
        <time>2020-08-17T07:49:40Z</time>
      </trkpt>
      <trkpt lat="48.65769" lon="-3.95513">
        <ele>19.8</ele>
        <time>2020-08-17T07:49:47Z</time>
      </trkpt>
      <trkpt lat="48.65783" lon="-3.95498">
        <ele>17.4</ele>
        <time>2020-08-17T07:49:53Z</time>
      </trkpt>
      <trkpt lat="48.65798" lon="-3.95478">
        <ele>17.6</ele>
        <time>2020-08-17T07:49:59Z</time>
      </trkpt>
      <trkpt lat="48.65818" lon="-3.95453">
        <ele>17.2</ele>
        <time>2020-08-17T07:50:05Z</time>
      </trkpt>
      <trkpt lat="48.65844" lon="-3.95434">
        <ele>17.9</ele>
        <time>2020-08-17T07:50:11Z</time>
      </trkpt>
      <trkpt lat="48.65883" lon="-3.95429">
        <ele>18.4</ele>
        <time>2020-08-17T07:50:18Z</time>
      </trkpt>
      <trkpt lat="48.65913" lon="-3.9543">
        <ele>18</ele>
        <time>2020-08-17T07:50:24Z</time>
      </trkpt>
      <trkpt lat="48.65929" lon="-3.95433">
        <ele>18</ele>
        <time>2020-08-17T07:50:28Z</time>
      </trkpt>
      <trkpt lat="48.65952" lon="-3.95449">
        <ele>18.5</ele>
        <time>2020-08-17T07:50:35Z</time>
      </trkpt>
      <trkpt lat="48.65971" lon="-3.95464">
        <ele>18.8</ele>
        <time>2020-08-17T07:50:41Z</time>
      </trkpt>
      <trkpt lat="48.65994" lon="-3.95477">
        <ele>19.1</ele>
        <time>2020-08-17T07:50:49Z</time>
      </trkpt>
      <trkpt lat="48.66031" lon="-3.95493">
        <ele>18.2</ele>
        <time>2020-08-17T07:51:00Z</time>
      </trkpt>
      <trkpt lat="48.66055" lon="-3.95507">
        <ele>20.3</ele>
        <time>2020-08-17T07:51:08Z</time>
      </trkpt>
      <trkpt lat="48.66073" lon="-3.95523">
        <ele>20.3</ele>
        <time>2020-08-17T07:51:14Z</time>
      </trkpt>
      <trkpt lat="48.66086" lon="-3.95544">
        <ele>19.3</ele>
        <time>2020-08-17T07:51:20Z</time>
      </trkpt>
      <trkpt lat="48.66088" lon="-3.95549">
        <ele>19.6</ele>
        <time>2020-08-17T07:51:21Z</time>
      </trkpt>
      <trkpt lat="48.66093" lon="-3.95585">
        <ele>22.9</ele>
        <time>2020-08-17T07:51:29Z</time>
      </trkpt>
      <trkpt lat="48.66098" lon="-3.95622">
        <ele>23.3</ele>
        <time>2020-08-17T07:51:38Z</time>
      </trkpt>
      <trkpt lat="48.6611" lon="-3.95647">
        <ele>23.8</ele>
        <time>2020-08-17T07:51:45Z</time>
      </trkpt>
      <trkpt lat="48.66121" lon="-3.95659">
        <ele>23.7</ele>
        <time>2020-08-17T07:51:51Z</time>
      </trkpt>
      <trkpt lat="48.66122" lon="-3.9566">
        <ele>23.6</ele>
        <time>2020-08-17T07:51:54Z</time>
      </trkpt>
      <trkpt lat="48.66124" lon="-3.95661">
        <ele>23.6</ele>
        <time>2020-08-17T07:51:58Z</time>
      </trkpt>
      <trkpt lat="48.66132" lon="-3.95668">
        <ele>25.5</ele>
        <time>2020-08-17T07:55:28Z</time>
      </trkpt>
      <trkpt lat="48.6614" lon="-3.95675">
        <ele>25.2</ele>
        <time>2020-08-17T07:55:31Z</time>
      </trkpt>
      <trkpt lat="48.66161" lon="-3.95692">
        <ele>25</ele>
        <time>2020-08-17T07:55:38Z</time>
      </trkpt>
      <trkpt lat="48.66177" lon="-3.95705">
        <ele>22.1</ele>
        <time>2020-08-17T07:55:45Z</time>
      </trkpt>
      <trkpt lat="48.66196" lon="-3.95721">
        <ele>21.9</ele>
        <time>2020-08-17T07:55:52Z</time>
      </trkpt>
      <trkpt lat="48.66217" lon="-3.9574">
        <ele>21.5</ele>
        <time>2020-08-17T07:55:59Z</time>
      </trkpt>
      <trkpt lat="48.66239" lon="-3.95758">
        <ele>22.5</ele>
        <time>2020-08-17T07:56:06Z</time>
      </trkpt>
      <trkpt lat="48.66258" lon="-3.9578">
        <ele>20.8</ele>
        <time>2020-08-17T07:56:13Z</time>
      </trkpt>
      <trkpt lat="48.66274" lon="-3.95814">
        <ele>21.2</ele>
        <time>2020-08-17T07:56:20Z</time>
      </trkpt>
      <trkpt lat="48.66291" lon="-3.95853">
        <ele>22</ele>
        <time>2020-08-17T07:56:27Z</time>
      </trkpt>
      <trkpt lat="48.66308" lon="-3.95892">
        <ele>22.1</ele>
        <time>2020-08-17T07:56:33Z</time>
      </trkpt>
      <trkpt lat="48.66322" lon="-3.95923">
        <ele>23.2</ele>
        <time>2020-08-17T07:56:39Z</time>
      </trkpt>
      <trkpt lat="48.66333" lon="-3.95949">
        <ele>24.1</ele>
        <time>2020-08-17T07:56:47Z</time>
      </trkpt>
      <trkpt lat="48.66342" lon="-3.95971">
        <ele>24.6</ele>
        <time>2020-08-17T07:56:55Z</time>
      </trkpt>
      <trkpt lat="48.66353" lon="-3.95997">
        <ele>25.2</ele>
        <time>2020-08-17T07:57:05Z</time>
      </trkpt>
      <trkpt lat="48.66362" lon="-3.96018">
        <ele>27.3</ele>
        <time>2020-08-17T07:57:14Z</time>
      </trkpt>
      <trkpt lat="48.66371" lon="-3.96039">
        <ele>27.7</ele>
        <time>2020-08-17T07:57:22Z</time>
      </trkpt>
      <trkpt lat="48.66382" lon="-3.96069">
        <ele>28.1</ele>
        <time>2020-08-17T07:57:33Z</time>
      </trkpt>
      <trkpt lat="48.6639" lon="-3.96095">
        <ele>29.5</ele>
        <time>2020-08-17T07:57:42Z</time>
      </trkpt>
      <trkpt lat="48.66399" lon="-3.96122">
        <ele>29.7</ele>
        <time>2020-08-17T07:57:50Z</time>
      </trkpt>
      <trkpt lat="48.6641" lon="-3.96149">
        <ele>29.9</ele>
        <time>2020-08-17T07:57:58Z</time>
      </trkpt>
      <trkpt lat="48.66426" lon="-3.96172">
        <ele>29.9</ele>
        <time>2020-08-17T07:58:07Z</time>
      </trkpt>
      <trkpt lat="48.66444" lon="-3.96195">
        <ele>29.8</ele>
        <time>2020-08-17T07:58:15Z</time>
      </trkpt>
      <trkpt lat="48.66481" lon="-3.9623">
        <ele>29.8</ele>
        <time>2020-08-17T07:58:27Z</time>
      </trkpt>
      <trkpt lat="48.66504" lon="-3.9625">
        <ele>29.8</ele>
        <time>2020-08-17T07:58:35Z</time>
      </trkpt>
      <trkpt lat="48.66524" lon="-3.96255">
        <ele>29.9</ele>
        <time>2020-08-17T07:58:41Z</time>
      </trkpt>
      <trkpt lat="48.66543" lon="-3.96262">
        <ele>29.8</ele>
        <time>2020-08-17T07:58:47Z</time>
      </trkpt>
      <trkpt lat="48.66555" lon="-3.96271">
        <ele>29.8</ele>
        <time>2020-08-17T07:58:51Z</time>
      </trkpt>
      <trkpt lat="48.66582" lon="-3.96303">
        <ele>29.9</ele>
        <time>2020-08-17T07:59:01Z</time>
      </trkpt>
      <trkpt lat="48.66598" lon="-3.96333">
        <ele>29.3</ele>
        <time>2020-08-17T07:59:09Z</time>
      </trkpt>
      <trkpt lat="48.66624" lon="-3.96354">
        <ele>29</ele>
        <time>2020-08-17T07:59:18Z</time>
      </trkpt>
      <trkpt lat="48.66642" lon="-3.96374">
        <ele>28.9</ele>
        <time>2020-08-17T07:59:26Z</time>
      </trkpt>
      <trkpt lat="48.66657" lon="-3.96398">
        <ele>28.9</ele>
        <time>2020-08-17T07:59:33Z</time>
      </trkpt>
      <trkpt lat="48.66662" lon="-3.96407">
        <ele>29</ele>
        <time>2020-08-17T07:59:35Z</time>
      </trkpt>
      <trkpt lat="48.6669" lon="-3.9646">
        <ele>26.8</ele>
        <time>2020-08-17T07:59:46Z</time>
      </trkpt>
      <trkpt lat="48.66695" lon="-3.9647">
        <ele>26.6</ele>
        <time>2020-08-17T07:59:48Z</time>
      </trkpt>
      <trkpt lat="48.66718" lon="-3.96498">
        <ele>26.1</ele>
        <time>2020-08-17T07:59:53Z</time>
      </trkpt>
      <trkpt lat="48.66731" lon="-3.96505">
        <ele>24.9</ele>
        <time>2020-08-17T07:59:55Z</time>
      </trkpt>
      <trkpt lat="48.66762" lon="-3.96512">
        <ele>22.8</ele>
        <time>2020-08-17T08:00:00Z</time>
      </trkpt>
      <trkpt lat="48.66763" lon="-3.96495">
        <ele>23.6</ele>
        <time>2020-08-17T08:00:03Z</time>
      </trkpt>
      <trkpt lat="48.667" lon="-3.96482">
        <ele>26.5</ele>
        <time>2020-08-17T08:00:05Z</time>
      </trkpt>
      <trkpt lat="48.66775" lon="-3.96519">
        <ele>21.8</ele>
        <time>2020-08-17T08:00:28Z</time>
      </trkpt>
      <trkpt lat="48.66792" lon="-3.9654">
        <ele>20.8</ele>
        <time>2020-08-17T08:00:33Z</time>
      </trkpt>
      <trkpt lat="48.66825" lon="-3.96588">
        <ele>18.4</ele>
        <time>2020-08-17T08:00:40Z</time>
      </trkpt>
      <trkpt lat="48.66843" lon="-3.96617">
        <ele>16.3</ele>
        <time>2020-08-17T08:00:44Z</time>
      </trkpt>
      <trkpt lat="48.66856" lon="-3.96657">
        <ele>16</ele>
        <time>2020-08-17T08:00:49Z</time>
      </trkpt>
      <trkpt lat="48.66858" lon="-3.96666">
        <ele>15.9</ele>
        <time>2020-08-17T08:00:50Z</time>
      </trkpt>
      <trkpt lat="48.66874" lon="-3.96709">
        <ele>15</ele>
        <time>2020-08-17T08:00:55Z</time>
      </trkpt>
      <trkpt lat="48.66879" lon="-3.96716">
        <ele>14.9</ele>
        <time>2020-08-17T08:00:56Z</time>
      </trkpt>
      <trkpt lat="48.66931" lon="-3.96773">
        <ele>13.9</ele>
        <time>2020-08-17T08:01:06Z</time>
      </trkpt>
      <trkpt lat="48.66936" lon="-3.96779">
        <ele>13.8</ele>
        <time>2020-08-17T08:01:07Z</time>
      </trkpt>
      <trkpt lat="48.66961" lon="-3.96792">
        <ele>13.7</ele>
        <time>2020-08-17T08:01:11Z</time>
      </trkpt>
      <trkpt lat="48.66991" lon="-3.96798">
        <ele>13.6</ele>
        <time>2020-08-17T08:01:16Z</time>
      </trkpt>
      <trkpt lat="48.67016" lon="-3.96815">
        <ele>13.6</ele>
        <time>2020-08-17T08:01:21Z</time>
      </trkpt>
      <trkpt lat="48.67026" lon="-3.9684">
        <ele>13.1</ele>
        <time>2020-08-17T08:01:25Z</time>
      </trkpt>
      <trkpt lat="48.67047" lon="-3.96895">
        <ele>12.9</ele>
        <time>2020-08-17T08:01:34Z</time>
      </trkpt>
      <trkpt lat="48.67062" lon="-3.96931">
        <ele>12.3</ele>
        <time>2020-08-17T08:01:41Z</time>
      </trkpt>
      <trkpt lat="48.67079" lon="-3.96971">
        <ele>11.8</ele>
        <time>2020-08-17T08:01:49Z</time>
      </trkpt>
      <trkpt lat="48.67094" lon="-3.97009">
        <ele>10.7</ele>
        <time>2020-08-17T08:01:56Z</time>
      </trkpt>
      <trkpt lat="48.67112" lon="-3.97061">
        <ele>10.4</ele>
        <time>2020-08-17T08:02:05Z</time>
      </trkpt>
      <trkpt lat="48.6713" lon="-3.97113">
        <ele>9.6</ele>
        <time>2020-08-17T08:02:13Z</time>
      </trkpt>
      <trkpt lat="48.6715" lon="-3.9717">
        <ele>7.9</ele>
        <time>2020-08-17T08:02:20Z</time>
      </trkpt>
      <trkpt lat="48.67174" lon="-3.97234">
        <ele>6.1</ele>
        <time>2020-08-17T08:02:27Z</time>
      </trkpt>
      <trkpt lat="48.67195" lon="-3.97292">
        <ele>6.2</ele>
        <time>2020-08-17T08:02:34Z</time>
      </trkpt>
      <trkpt lat="48.67215" lon="-3.97345">
        <ele>8.3</ele>
        <time>2020-08-17T08:02:41Z</time>
      </trkpt>
      <trkpt lat="48.67231" lon="-3.97376">
        <ele>9.1</ele>
        <time>2020-08-17T08:02:46Z</time>
      </trkpt>
      <trkpt lat="48.67241" lon="-3.97393">
        <ele>9.9</ele>
        <time>2020-08-17T08:02:50Z</time>
      </trkpt>
      <trkpt lat="48.67255" lon="-3.97411">
        <ele>11.5</ele>
        <time>2020-08-17T08:02:57Z</time>
      </trkpt>
      <trkpt lat="48.6727" lon="-3.97428">
        <ele>12</ele>
        <time>2020-08-17T08:03:04Z</time>
      </trkpt>
      <trkpt lat="48.6729" lon="-3.97448">
        <ele>11.9</ele>
        <time>2020-08-17T08:03:12Z</time>
      </trkpt>
      <trkpt lat="48.67316" lon="-3.97472">
        <ele>12</ele>
        <time>2020-08-17T08:03:21Z</time>
      </trkpt>
      <trkpt lat="48.67348" lon="-3.97498">
        <ele>11.9</ele>
        <time>2020-08-17T08:03:31Z</time>
      </trkpt>
      <trkpt lat="48.6737" lon="-3.97517">
        <ele>12.6</ele>
        <time>2020-08-17T08:03:38Z</time>
      </trkpt>
      <trkpt lat="48.67405" lon="-3.9755">
        <ele>12.8</ele>
        <time>2020-08-17T08:03:49Z</time>
      </trkpt>
      <trkpt lat="48.67433" lon="-3.97576">
        <ele>13.9</ele>
        <time>2020-08-17T08:03:57Z</time>
      </trkpt>
      <trkpt lat="48.67463" lon="-3.97604">
        <ele>13.6</ele>
        <time>2020-08-17T08:04:06Z</time>
      </trkpt>
      <trkpt lat="48.67482" lon="-3.97632">
        <ele>13.3</ele>
        <time>2020-08-17T08:04:13Z</time>
      </trkpt>
      <trkpt lat="48.67484" lon="-3.97635">
        <ele>13.2</ele>
        <time>2020-08-17T08:04:14Z</time>
      </trkpt>
      <trkpt lat="48.67509" lon="-3.97674">
        <ele>12.2</ele>
        <time>2020-08-17T08:04:22Z</time>
      </trkpt>
      <trkpt lat="48.67525" lon="-3.977">
        <ele>12.5</ele>
        <time>2020-08-17T08:04:28Z</time>
      </trkpt>
      <trkpt lat="48.67538" lon="-3.9772">
        <ele>12.7</ele>
        <time>2020-08-17T08:04:33Z</time>
      </trkpt>
      <trkpt lat="48.67553" lon="-3.97751">
        <ele>14</ele>
        <time>2020-08-17T08:04:40Z</time>
      </trkpt>
      <trkpt lat="48.67564" lon="-3.97778">
        <ele>14.4</ele>
        <time>2020-08-17T08:04:46Z</time>
      </trkpt>
      <trkpt lat="48.67578" lon="-3.97814">
        <ele>15.4</ele>
        <time>2020-08-17T08:04:53Z</time>
      </trkpt>
      <trkpt lat="48.67592" lon="-3.97849">
        <ele>17.5</ele>
        <time>2020-08-17T08:05:00Z</time>
      </trkpt>
      <trkpt lat="48.67607" lon="-3.97882">
        <ele>17.8</ele>
        <time>2020-08-17T08:05:07Z</time>
      </trkpt>
      <trkpt lat="48.67616" lon="-3.97906">
        <ele>17.8</ele>
        <time>2020-08-17T08:05:12Z</time>
      </trkpt>
      <trkpt lat="48.6762" lon="-3.9792">
        <ele>17.6</ele>
        <time>2020-08-17T08:05:15Z</time>
      </trkpt>
      <trkpt lat="48.6763" lon="-3.97947">
        <ele>17.6</ele>
        <time>2020-08-17T08:05:20Z</time>
      </trkpt>
      <trkpt lat="48.67637" lon="-3.97978">
        <ele>17.5</ele>
        <time>2020-08-17T08:05:25Z</time>
      </trkpt>
      <trkpt lat="48.6764" lon="-3.98014">
        <ele>17.1</ele>
        <time>2020-08-17T08:05:31Z</time>
      </trkpt>
      <trkpt lat="48.67641" lon="-3.98056">
        <ele>16.8</ele>
        <time>2020-08-17T08:05:38Z</time>
      </trkpt>
      <trkpt lat="48.67641" lon="-3.98061">
        <ele>16.8</ele>
        <time>2020-08-17T08:05:39Z</time>
      </trkpt>
      <trkpt lat="48.67656" lon="-3.98085">
        <ele>16.6</ele>
        <time>2020-08-17T08:05:45Z</time>
      </trkpt>
      <trkpt lat="48.67692" lon="-3.98095">
        <ele>17.5</ele>
        <time>2020-08-17T08:05:55Z</time>
      </trkpt>
      <trkpt lat="48.67717" lon="-3.98102">
        <ele>18.2</ele>
        <time>2020-08-17T08:06:02Z</time>
      </trkpt>
      <trkpt lat="48.67743" lon="-3.98107">
        <ele>18.8</ele>
        <time>2020-08-17T08:06:10Z</time>
      </trkpt>
      <trkpt lat="48.67773" lon="-3.98112">
        <ele>22.2</ele>
        <time>2020-08-17T08:06:19Z</time>
      </trkpt>
      <trkpt lat="48.67809" lon="-3.98118">
        <ele>23.5</ele>
        <time>2020-08-17T08:06:30Z</time>
      </trkpt>
      <trkpt lat="48.67838" lon="-3.98129">
        <ele>27.4</ele>
        <time>2020-08-17T08:06:40Z</time>
      </trkpt>
      <trkpt lat="48.67862" lon="-3.98141">
        <ele>27.6</ele>
        <time>2020-08-17T08:06:48Z</time>
      </trkpt>
      <trkpt lat="48.67885" lon="-3.98156">
        <ele>28.2</ele>
        <time>2020-08-17T08:06:56Z</time>
      </trkpt>
      <trkpt lat="48.6791" lon="-3.98172">
        <ele>28</ele>
        <time>2020-08-17T08:07:04Z</time>
      </trkpt>
      <trkpt lat="48.67931" lon="-3.98186">
        <ele>28.1</ele>
        <time>2020-08-17T08:07:10Z</time>
      </trkpt>
      <trkpt lat="48.67947" lon="-3.98197">
        <ele>27.8</ele>
        <time>2020-08-17T08:07:16Z</time>
      </trkpt>
      <trkpt lat="48.6796" lon="-3.98208">
        <ele>27.5</ele>
        <time>2020-08-17T08:07:21Z</time>
      </trkpt>
      <trkpt lat="48.67981" lon="-3.98226">
        <ele>26.9</ele>
        <time>2020-08-17T08:07:28Z</time>
      </trkpt>
      <trkpt lat="48.67999" lon="-3.98243">
        <ele>25.7</ele>
        <time>2020-08-17T08:07:35Z</time>
      </trkpt>
      <trkpt lat="48.68017" lon="-3.98262">
        <ele>24.6</ele>
        <time>2020-08-17T08:07:42Z</time>
      </trkpt>
      <trkpt lat="48.68042" lon="-3.98288">
        <ele>24.3</ele>
        <time>2020-08-17T08:07:51Z</time>
      </trkpt>
      <trkpt lat="48.68064" lon="-3.98311">
        <ele>24.2</ele>
        <time>2020-08-17T08:07:59Z</time>
      </trkpt>
      <trkpt lat="48.68092" lon="-3.9834">
        <ele>24.9</ele>
        <time>2020-08-17T08:08:09Z</time>
      </trkpt>
      <trkpt lat="48.68125" lon="-3.98369">
        <ele>26.4</ele>
        <time>2020-08-17T08:08:20Z</time>
      </trkpt>
      <trkpt lat="48.68145" lon="-3.98373">
        <ele>26.8</ele>
        <time>2020-08-17T08:08:26Z</time>
      </trkpt>
      <trkpt lat="48.68162" lon="-3.98371">
        <ele>27</ele>
        <time>2020-08-17T08:08:32Z</time>
      </trkpt>
      <trkpt lat="48.68176" lon="-3.98366">
        <ele>27.7</ele>
        <time>2020-08-17T08:08:40Z</time>
      </trkpt>
      <trkpt lat="48.68181" lon="-3.98361">
        <ele>27.6</ele>
        <time>2020-08-17T08:08:44Z</time>
      </trkpt>
      <trkpt lat="48.68186" lon="-3.98364">
        <ele>27.7</ele>
        <time>2020-08-17T08:08:49Z</time>
      </trkpt>
      <trkpt lat="48.68194" lon="-3.9839">
        <ele>28</ele>
        <time>2020-08-17T08:08:56Z</time>
      </trkpt>
      <trkpt lat="48.68203" lon="-3.98415">
        <ele>28.1</ele>
        <time>2020-08-17T08:09:02Z</time>
      </trkpt>
      <trkpt lat="48.68219" lon="-3.98459">
        <ele>29.2</ele>
        <time>2020-08-17T08:09:12Z</time>
      </trkpt>
      <trkpt lat="48.6823" lon="-3.98489">
        <ele>29.6</ele>
        <time>2020-08-17T08:09:19Z</time>
      </trkpt>
      <trkpt lat="48.68241" lon="-3.98521">
        <ele>30</ele>
        <time>2020-08-17T08:09:26Z</time>
      </trkpt>
      <trkpt lat="48.68252" lon="-3.98553">
        <ele>30.8</ele>
        <time>2020-08-17T08:09:33Z</time>
      </trkpt>
      <trkpt lat="48.68261" lon="-3.9858">
        <ele>30.5</ele>
        <time>2020-08-17T08:09:39Z</time>
      </trkpt>
      <trkpt lat="48.68276" lon="-3.98621">
        <ele>31.8</ele>
        <time>2020-08-17T08:09:49Z</time>
      </trkpt>
      <trkpt lat="48.68289" lon="-3.98658">
        <ele>32.2</ele>
        <time>2020-08-17T08:09:58Z</time>
      </trkpt>
      <trkpt lat="48.68298" lon="-3.98688">
        <ele>32.9</ele>
        <time>2020-08-17T08:10:06Z</time>
      </trkpt>
      <trkpt lat="48.68307" lon="-3.98699">
        <ele>33.2</ele>
        <time>2020-08-17T08:10:10Z</time>
      </trkpt>
      <trkpt lat="48.68322" lon="-3.98693">
        <ele>33.6</ele>
        <time>2020-08-17T08:10:17Z</time>
      </trkpt>
      <trkpt lat="48.68337" lon="-3.98688">
        <ele>36</ele>
        <time>2020-08-17T08:10:24Z</time>
      </trkpt>
      <trkpt lat="48.68357" lon="-3.98681">
        <ele>36.4</ele>
        <time>2020-08-17T08:10:33Z</time>
      </trkpt>
      <trkpt lat="48.68373" lon="-3.98675">
        <ele>36.9</ele>
        <time>2020-08-17T08:10:41Z</time>
      </trkpt>
      <trkpt lat="48.6839" lon="-3.98669">
        <ele>37.6</ele>
        <time>2020-08-17T08:10:48Z</time>
      </trkpt>
      <trkpt lat="48.6841" lon="-3.98663">
        <ele>38.4</ele>
        <time>2020-08-17T08:10:57Z</time>
      </trkpt>
      <trkpt lat="48.68422" lon="-3.9866">
        <ele>39.5</ele>
        <time>2020-08-17T08:11:03Z</time>
      </trkpt>
      <trkpt lat="48.68441" lon="-3.98656">
        <ele>40.2</ele>
        <time>2020-08-17T08:11:12Z</time>
      </trkpt>
      <trkpt lat="48.68457" lon="-3.9866">
        <ele>40.6</ele>
        <time>2020-08-17T08:11:20Z</time>
      </trkpt>
      <trkpt lat="48.68466" lon="-3.98667">
        <ele>40.6</ele>
        <time>2020-08-17T08:11:26Z</time>
      </trkpt>
      <trkpt lat="48.68477" lon="-3.98683">
        <ele>40.8</ele>
        <time>2020-08-17T08:11:33Z</time>
      </trkpt>
      <trkpt lat="48.68488" lon="-3.98706">
        <ele>40.7</ele>
        <time>2020-08-17T08:11:41Z</time>
      </trkpt>
      <trkpt lat="48.68501" lon="-3.98745">
        <ele>41.3</ele>
        <time>2020-08-17T08:11:48Z</time>
      </trkpt>
      <trkpt lat="48.68517" lon="-3.98749">
        <ele>41.7</ele>
        <time>2020-08-17T08:11:54Z</time>
      </trkpt>
      <trkpt lat="48.68539" lon="-3.98744">
        <ele>42.1</ele>
        <time>2020-08-17T08:12:01Z</time>
      </trkpt>
      <trkpt lat="48.68543" lon="-3.98731">
        <ele>42.3</ele>
        <time>2020-08-17T08:12:06Z</time>
      </trkpt>
      <trkpt lat="48.6855" lon="-3.98702">
        <ele>42.7</ele>
        <time>2020-08-17T08:12:15Z</time>
      </trkpt>
      <trkpt lat="48.6856" lon="-3.98668">
        <ele>43.5</ele>
        <time>2020-08-17T08:12:26Z</time>
      </trkpt>
      <trkpt lat="48.68568" lon="-3.98663">
        <ele>44.6</ele>
        <time>2020-08-17T08:12:32Z</time>
      </trkpt>
      <trkpt lat="48.68582" lon="-3.98573">
        <ele>46.3</ele>
        <time>2020-08-17T08:12:40Z</time>
      </trkpt>
      <trkpt lat="48.68599" lon="-3.9857">
        <ele>47.7</ele>
        <time>2020-08-17T08:12:48Z</time>
      </trkpt>
      <trkpt lat="48.68625" lon="-3.98573">
        <ele>48.3</ele>
        <time>2020-08-17T08:12:55Z</time>
      </trkpt>
      <trkpt lat="48.68649" lon="-3.98581">
        <ele>49.1</ele>
        <time>2020-08-17T08:13:05Z</time>
      </trkpt>
      <trkpt lat="48.6865" lon="-3.98582">
        <ele>49.1</ele>
        <time>2020-08-17T08:13:07Z</time>
      </trkpt>
      <trkpt lat="48.68671" lon="-3.98661">
        <ele>50.2</ele>
        <time>2020-08-17T08:13:11Z</time>
      </trkpt>
      <trkpt lat="48.68672" lon="-3.98643">
        <ele>50.4</ele>
        <time>2020-08-17T08:13:18Z</time>
      </trkpt>
      <trkpt lat="48.68672" lon="-3.98639">
        <ele>50.4</ele>
        <time>2020-08-17T08:13:22Z</time>
      </trkpt>
      <trkpt lat="48.68673" lon="-3.98629">
        <ele>50.5</ele>
        <time>2020-08-17T08:14:54Z</time>
      </trkpt>
      <trkpt lat="48.68674" lon="-3.98613">
        <ele>50.5</ele>
        <time>2020-08-17T08:15:00Z</time>
      </trkpt>
      <trkpt lat="48.68676" lon="-3.986">
        <ele>50.4</ele>
        <time>2020-08-17T08:15:07Z</time>
      </trkpt>
      <trkpt lat="48.68664" lon="-3.98584">
        <ele>49.8</ele>
        <time>2020-08-17T08:15:12Z</time>
      </trkpt>
      <trkpt lat="48.68676" lon="-3.98587">
        <ele>50.3</ele>
        <time>2020-08-17T08:15:18Z</time>
      </trkpt>
      <trkpt lat="48.68693" lon="-3.98591">
        <ele>50.6</ele>
        <time>2020-08-17T08:15:25Z</time>
      </trkpt>
      <trkpt lat="48.68713" lon="-3.98596">
        <ele>50.9</ele>
        <time>2020-08-17T08:15:34Z</time>
      </trkpt>
      <trkpt lat="48.6873" lon="-3.986">
        <ele>51.2</ele>
        <time>2020-08-17T08:15:41Z</time>
      </trkpt>
      <trkpt lat="48.68748" lon="-3.98593">
        <ele>51.6</ele>
        <time>2020-08-17T08:15:48Z</time>
      </trkpt>
      <trkpt lat="48.68764" lon="-3.98582">
        <ele>52.2</ele>
        <time>2020-08-17T08:15:55Z</time>
      </trkpt>
      <trkpt lat="48.68791" lon="-3.98564">
        <ele>52.6</ele>
        <time>2020-08-17T08:16:05Z</time>
      </trkpt>
      <trkpt lat="48.68812" lon="-3.98551">
        <ele>52.9</ele>
        <time>2020-08-17T08:16:13Z</time>
      </trkpt>
      <trkpt lat="48.68835" lon="-3.98535">
        <ele>53.7</ele>
        <time>2020-08-17T08:16:22Z</time>
      </trkpt>
      <trkpt lat="48.68854" lon="-3.98523">
        <ele>53.7</ele>
        <time>2020-08-17T08:16:30Z</time>
      </trkpt>
      <trkpt lat="48.68869" lon="-3.98516">
        <ele>53.7</ele>
        <time>2020-08-17T08:16:37Z</time>
      </trkpt>
      <trkpt lat="48.68885" lon="-3.98509">
        <ele>53.7</ele>
        <time>2020-08-17T08:16:43Z</time>
      </trkpt>
      <trkpt lat="48.68914" lon="-3.98495">
        <ele>53.9</ele>
        <time>2020-08-17T08:16:51Z</time>
      </trkpt>
      <trkpt lat="48.68947" lon="-3.9848">
        <ele>53</ele>
        <time>2020-08-17T08:16:59Z</time>
      </trkpt>
      <trkpt lat="48.68983" lon="-3.98465">
        <ele>52.5</ele>
        <time>2020-08-17T08:17:08Z</time>
      </trkpt>
      <trkpt lat="48.69013" lon="-3.98456">
        <ele>51.3</ele>
        <time>2020-08-17T08:17:15Z</time>
      </trkpt>
      <trkpt lat="48.69027" lon="-3.98452">
        <ele>51.2</ele>
        <time>2020-08-17T08:17:18Z</time>
      </trkpt>
      <trkpt lat="48.69061" lon="-3.98447">
        <ele>50.8</ele>
        <time>2020-08-17T08:17:25Z</time>
      </trkpt>
      <trkpt lat="48.69072" lon="-3.98449">
        <ele>50.7</ele>
        <time>2020-08-17T08:17:27Z</time>
      </trkpt>
      <trkpt lat="48.69132" lon="-3.98452">
        <ele>49.2</ele>
        <time>2020-08-17T08:17:37Z</time>
      </trkpt>
      <trkpt lat="48.69166" lon="-3.98438">
        <ele>48.7</ele>
        <time>2020-08-17T08:17:43Z</time>
      </trkpt>
      <trkpt lat="48.69209" lon="-3.98393">
        <ele>46.6</ele>
        <time>2020-08-17T08:17:51Z</time>
      </trkpt>
      <trkpt lat="48.69238" lon="-3.98367">
        <ele>46.1</ele>
        <time>2020-08-17T08:17:56Z</time>
      </trkpt>
      <trkpt lat="48.6928" lon="-3.98355">
        <ele>45.2</ele>
        <time>2020-08-17T08:18:03Z</time>
      </trkpt>
      <trkpt lat="48.69296" lon="-3.9835">
        <ele>45.2</ele>
        <time>2020-08-17T08:18:06Z</time>
      </trkpt>
      <trkpt lat="48.69314" lon="-3.98331">
        <ele>45</ele>
        <time>2020-08-17T08:18:10Z</time>
      </trkpt>
      <trkpt lat="48.6934" lon="-3.98303">
        <ele>43.9</ele>
        <time>2020-08-17T08:18:16Z</time>
      </trkpt>
      <trkpt lat="48.69379" lon="-3.98285">
        <ele>43.1</ele>
        <time>2020-08-17T08:18:24Z</time>
      </trkpt>
      <trkpt lat="48.69412" lon="-3.98276">
        <ele>42.4</ele>
        <time>2020-08-17T08:18:31Z</time>
      </trkpt>
      <trkpt lat="48.69447" lon="-3.98278">
        <ele>39</ele>
        <time>2020-08-17T08:18:38Z</time>
      </trkpt>
      <trkpt lat="48.69478" lon="-3.98271">
        <ele>37.5</ele>
        <time>2020-08-17T08:18:44Z</time>
      </trkpt>
      <trkpt lat="48.6951" lon="-3.9826">
        <ele>33.4</ele>
        <time>2020-08-17T08:18:49Z</time>
      </trkpt>
      <trkpt lat="48.69529" lon="-3.98255">
        <ele>32.4</ele>
        <time>2020-08-17T08:18:52Z</time>
      </trkpt>
      <trkpt lat="48.69556" lon="-3.98259">
        <ele>30.4</ele>
        <time>2020-08-17T08:18:56Z</time>
      </trkpt>
      <trkpt lat="48.69611" lon="-3.9828">
        <ele>26.8</ele>
        <time>2020-08-17T08:19:04Z</time>
      </trkpt>
      <trkpt lat="48.69635" lon="-3.98278">
        <ele>25.9</ele>
        <time>2020-08-17T08:19:08Z</time>
      </trkpt>
      <trkpt lat="48.69647" lon="-3.98275">
        <ele>25.2</ele>
        <time>2020-08-17T08:19:11Z</time>
      </trkpt>
      <trkpt lat="48.69666" lon="-3.98281">
        <ele>25.1</ele>
        <time>2020-08-17T08:19:15Z</time>
      </trkpt>
      <trkpt lat="48.69692" lon="-3.98276">
        <ele>19.8</ele>
        <time>2020-08-17T08:19:19Z</time>
      </trkpt>
      <trkpt lat="48.69717" lon="-3.9827">
        <ele>18.4</ele>
        <time>2020-08-17T08:19:24Z</time>
      </trkpt>
      <trkpt lat="48.69731" lon="-3.98261">
        <ele>17.1</ele>
        <time>2020-08-17T08:19:30Z</time>
      </trkpt>
      <trkpt lat="48.69738" lon="-3.98259">
        <ele>16.3</ele>
        <time>2020-08-17T08:19:32Z</time>
      </trkpt>
      <trkpt lat="48.69751" lon="-3.98253">
        <ele>14.1</ele>
        <time>2020-08-17T08:19:35Z</time>
      </trkpt>
      <trkpt lat="48.69792" lon="-3.98225">
        <ele>13.7</ele>
        <time>2020-08-17T08:19:43Z</time>
      </trkpt>
      <trkpt lat="48.69807" lon="-3.98213">
        <ele>13.7</ele>
        <time>2020-08-17T08:19:46Z</time>
      </trkpt>
      <trkpt lat="48.6982" lon="-3.98201">
        <ele>13.5</ele>
        <time>2020-08-17T08:19:49Z</time>
      </trkpt>
      <trkpt lat="48.6984" lon="-3.98189">
        <ele>15.3</ele>
        <time>2020-08-17T08:19:54Z</time>
      </trkpt>
      <trkpt lat="48.69852" lon="-3.9818">
        <ele>15.5</ele>
        <time>2020-08-17T08:19:59Z</time>
      </trkpt>
      <trkpt lat="48.69865" lon="-3.9817">
        <ele>16.2</ele>
        <time>2020-08-17T08:20:07Z</time>
      </trkpt>
      <trkpt lat="48.69884" lon="-3.98157">
        <ele>16.9</ele>
        <time>2020-08-17T08:20:18Z</time>
      </trkpt>
      <trkpt lat="48.69892" lon="-3.98161">
        <ele>17.5</ele>
        <time>2020-08-17T08:20:25Z</time>
      </trkpt>
      <trkpt lat="48.69903" lon="-3.9817">
        <ele>18.6</ele>
        <time>2020-08-17T08:20:33Z</time>
      </trkpt>
      <trkpt lat="48.69915" lon="-3.98179">
        <ele>18.9</ele>
        <time>2020-08-17T08:20:41Z</time>
      </trkpt>
      <trkpt lat="48.69927" lon="-3.98187">
        <ele>22.8</ele>
        <time>2020-08-17T08:20:50Z</time>
      </trkpt>
      <trkpt lat="48.69941" lon="-3.98191">
        <ele>23.8</ele>
        <time>2020-08-17T08:20:59Z</time>
      </trkpt>
      <trkpt lat="48.69957" lon="-3.98196">
        <ele>24.9</ele>
        <time>2020-08-17T08:21:10Z</time>
      </trkpt>
      <trkpt lat="48.69972" lon="-3.98198">
        <ele>25.8</ele>
        <time>2020-08-17T08:21:20Z</time>
      </trkpt>
      <trkpt lat="48.69985" lon="-3.982">
        <ele>26.5</ele>
        <time>2020-08-17T08:21:28Z</time>
      </trkpt>
      <trkpt lat="48.7" lon="-3.982">
        <ele>31.7</ele>
        <time>2020-08-17T08:21:38Z</time>
      </trkpt>
      <trkpt lat="48.70015" lon="-3.98199">
        <ele>31.9</ele>
        <time>2020-08-17T08:21:49Z</time>
      </trkpt>
      <trkpt lat="48.70029" lon="-3.98196">
        <ele>32.3</ele>
        <time>2020-08-17T08:22:00Z</time>
      </trkpt>
      <trkpt lat="48.70041" lon="-3.98193">
        <ele>32.8</ele>
        <time>2020-08-17T08:22:09Z</time>
      </trkpt>
      <trkpt lat="48.70051" lon="-3.9819">
        <ele>33.2</ele>
        <time>2020-08-17T08:22:16Z</time>
      </trkpt>
      <trkpt lat="48.70067" lon="-3.98193">
        <ele>33.7</ele>
        <time>2020-08-17T08:22:27Z</time>
      </trkpt>
      <trkpt lat="48.70076" lon="-3.98193">
        <ele>34</ele>
        <time>2020-08-17T08:22:33Z</time>
      </trkpt>
      <trkpt lat="48.70089" lon="-3.98193">
        <ele>35.9</ele>
        <time>2020-08-17T08:22:41Z</time>
      </trkpt>
      <trkpt lat="48.70104" lon="-3.98193">
        <ele>35.9</ele>
        <time>2020-08-17T08:22:50Z</time>
      </trkpt>
      <trkpt lat="48.70126" lon="-3.98199">
        <ele>36</ele>
        <time>2020-08-17T08:22:59Z</time>
      </trkpt>
      <trkpt lat="48.70151" lon="-3.98204">
        <ele>36.1</ele>
        <time>2020-08-17T08:23:09Z</time>
      </trkpt>
      <trkpt lat="48.70171" lon="-3.98198">
        <ele>36.7</ele>
        <time>2020-08-17T08:23:16Z</time>
      </trkpt>
      <trkpt lat="48.70201" lon="-3.98189">
        <ele>36.8</ele>
        <time>2020-08-17T08:23:25Z</time>
      </trkpt>
      <trkpt lat="48.70219" lon="-3.9819">
        <ele>37</ele>
        <time>2020-08-17T08:23:30Z</time>
      </trkpt>
      <trkpt lat="48.70242" lon="-3.982">
        <ele>37.1</ele>
        <time>2020-08-17T08:23:37Z</time>
      </trkpt>
      <trkpt lat="48.70264" lon="-3.9821">
        <ele>37.2</ele>
        <time>2020-08-17T08:23:44Z</time>
      </trkpt>
      <trkpt lat="48.70264" lon="-3.98212">
        <ele>37.2</ele>
        <time>2020-08-17T08:23:45Z</time>
      </trkpt>
      <trkpt lat="48.70264" lon="-3.98209">
        <ele>37.2</ele>
        <time>2020-08-17T08:23:50Z</time>
      </trkpt>
      <trkpt lat="48.70264" lon="-3.98204">
        <ele>37.1</ele>
        <time>2020-08-17T08:23:52Z</time>
      </trkpt>
      <trkpt lat="48.70268" lon="-3.98183">
        <ele>37</ele>
        <time>2020-08-17T08:23:59Z</time>
      </trkpt>
      <trkpt lat="48.70271" lon="-3.98168">
        <ele>37</ele>
        <time>2020-08-17T08:24:05Z</time>
      </trkpt>
      <trkpt lat="48.70273" lon="-3.98153">
        <ele>37</ele>
        <time>2020-08-17T08:24:12Z</time>
      </trkpt>
      <trkpt lat="48.70277" lon="-3.98134">
        <ele>37</ele>
        <time>2020-08-17T08:24:20Z</time>
      </trkpt>
      <trkpt lat="48.70279" lon="-3.98122">
        <ele>37</ele>
        <time>2020-08-17T08:24:25Z</time>
      </trkpt>
      <trkpt lat="48.70281" lon="-3.98086">
        <ele>37</ele>
        <time>2020-08-17T08:24:35Z</time>
      </trkpt>
      <trkpt lat="48.70286" lon="-3.98051">
        <ele>36.6</ele>
        <time>2020-08-17T08:24:45Z</time>
      </trkpt>
      <trkpt lat="48.70295" lon="-3.98027">
        <ele>36.4</ele>
        <time>2020-08-17T08:24:53Z</time>
      </trkpt>
      <trkpt lat="48.70302" lon="-3.98003">
        <ele>36.3</ele>
        <time>2020-08-17T08:24:59Z</time>
      </trkpt>
      <trkpt lat="48.70317" lon="-3.97981">
        <ele>35.7</ele>
        <time>2020-08-17T08:25:05Z</time>
      </trkpt>
      <trkpt lat="48.70335" lon="-3.97977">
        <ele>35.4</ele>
        <time>2020-08-17T08:25:10Z</time>
      </trkpt>
      <trkpt lat="48.70361" lon="-3.97972">
        <ele>35.1</ele>
        <time>2020-08-17T08:25:17Z</time>
      </trkpt>
      <trkpt lat="48.70377" lon="-3.97955">
        <ele>35</ele>
        <time>2020-08-17T08:25:22Z</time>
      </trkpt>
      <trkpt lat="48.70396" lon="-3.9792">
        <ele>35</ele>
        <time>2020-08-17T08:25:29Z</time>
      </trkpt>
      <trkpt lat="48.704" lon="-3.97912">
        <ele>35.1</ele>
        <time>2020-08-17T08:25:31Z</time>
      </trkpt>
      <trkpt lat="48.70403" lon="-3.97902">
        <ele>35.2</ele>
        <time>2020-08-17T08:25:36Z</time>
      </trkpt>
      <trkpt lat="48.70403" lon="-3.97902">
        <ele>35.2</ele>
        <time>2020-08-17T08:25:37Z</time>
      </trkpt>
      <trkpt lat="48.70427" lon="-3.97904">
        <ele>34.4</ele>
        <time>2020-08-17T08:26:30Z</time>
      </trkpt>
      <trkpt lat="48.70429" lon="-3.97916">
        <ele>34.5</ele>
        <time>2020-08-17T08:26:36Z</time>
      </trkpt>
      <trkpt lat="48.70434" lon="-3.97935">
        <ele>33.5</ele>
        <time>2020-08-17T08:26:41Z</time>
      </trkpt>
      <trkpt lat="48.70444" lon="-3.97964">
        <ele>33</ele>
        <time>2020-08-17T08:26:45Z</time>
      </trkpt>
      <trkpt lat="48.70449" lon="-3.97976">
        <ele>32.9</ele>
        <time>2020-08-17T08:26:48Z</time>
      </trkpt>
      <trkpt lat="48.70476" lon="-3.97999">
        <ele>32.1</ele>
        <time>2020-08-17T08:26:53Z</time>
      </trkpt>
      <trkpt lat="48.70521" lon="-3.98018">
        <ele>29.1</ele>
        <time>2020-08-17T08:27:01Z</time>
      </trkpt>
      <trkpt lat="48.70534" lon="-3.98023">
        <ele>28.5</ele>
        <time>2020-08-17T08:27:03Z</time>
      </trkpt>
      <trkpt lat="48.70556" lon="-3.98033">
        <ele>27.6</ele>
        <time>2020-08-17T08:27:06Z</time>
      </trkpt>
      <trkpt lat="48.70576" lon="-3.98035">
        <ele>27</ele>
        <time>2020-08-17T08:27:09Z</time>
      </trkpt>
      <trkpt lat="48.7059" lon="-3.98017">
        <ele>24.8</ele>
        <time>2020-08-17T08:27:12Z</time>
      </trkpt>
      <trkpt lat="48.70607" lon="-3.98008">
        <ele>24.9</ele>
        <time>2020-08-17T08:27:15Z</time>
      </trkpt>
      <trkpt lat="48.70617" lon="-3.98013">
        <ele>25.1</ele>
        <time>2020-08-17T08:27:17Z</time>
      </trkpt>
      <trkpt lat="48.70638" lon="-3.9802">
        <ele>25.3</ele>
        <time>2020-08-17T08:27:22Z</time>
      </trkpt>
      <trkpt lat="48.70643" lon="-3.98011">
        <ele>25.3</ele>
        <time>2020-08-17T08:27:26Z</time>
      </trkpt>
      <trkpt lat="48.7065" lon="-3.97992">
        <ele>24.4</ele>
        <time>2020-08-17T08:27:31Z</time>
      </trkpt>
      <trkpt lat="48.70654" lon="-3.97981">
        <ele>24.3</ele>
        <time>2020-08-17T08:27:33Z</time>
      </trkpt>
      <trkpt lat="48.70666" lon="-3.97981">
        <ele>24.4</ele>
        <time>2020-08-17T08:27:37Z</time>
      </trkpt>
      <trkpt lat="48.70708" lon="-3.97994">
        <ele>24.8</ele>
        <time>2020-08-17T08:27:48Z</time>
      </trkpt>
      <trkpt lat="48.70739" lon="-3.98">
        <ele>25.5</ele>
        <time>2020-08-17T08:27:57Z</time>
      </trkpt>
      <trkpt lat="48.70753" lon="-3.97994">
        <ele>25.9</ele>
        <time>2020-08-17T08:28:02Z</time>
      </trkpt>
      <trkpt lat="48.70768" lon="-3.97975">
        <ele>25.8</ele>
        <time>2020-08-17T08:28:08Z</time>
      </trkpt>
      <trkpt lat="48.70785" lon="-3.97954">
        <ele>25.6</ele>
        <time>2020-08-17T08:28:14Z</time>
      </trkpt>
      <trkpt lat="48.7082" lon="-3.97906">
        <ele>23.7</ele>
        <time>2020-08-17T08:28:24Z</time>
      </trkpt>
      <trkpt lat="48.70828" lon="-3.97893">
        <ele>23.4</ele>
        <time>2020-08-17T08:28:26Z</time>
      </trkpt>
      <trkpt lat="48.7084" lon="-3.97861">
        <ele>23.6</ele>
        <time>2020-08-17T08:28:30Z</time>
      </trkpt>
      <trkpt lat="48.7084" lon="-3.97849">
        <ele>22.9</ele>
        <time>2020-08-17T08:28:31Z</time>
      </trkpt>
      <trkpt lat="48.70835" lon="-3.97754">
        <ele>19.4</ele>
        <time>2020-08-17T08:28:39Z</time>
      </trkpt>
      <trkpt lat="48.70831" lon="-3.97685">
        <ele>17.3</ele>
        <time>2020-08-17T08:28:46Z</time>
      </trkpt>
      <trkpt lat="48.7083" lon="-3.97646">
        <ele>15.3</ele>
        <time>2020-08-17T08:28:50Z</time>
      </trkpt>
      <trkpt lat="48.70839" lon="-3.97632">
        <ele>15.4</ele>
        <time>2020-08-17T08:28:54Z</time>
      </trkpt>
      <trkpt lat="48.70842" lon="-3.97633">
        <ele>15.4</ele>
        <time>2020-08-17T08:28:55Z</time>
      </trkpt>
      <trkpt lat="48.70859" lon="-3.97639">
        <ele>15.6</ele>
        <time>2020-08-17T08:29:01Z</time>
      </trkpt>
      <trkpt lat="48.7089" lon="-3.97659">
        <ele>16.3</ele>
        <time>2020-08-17T08:29:11Z</time>
      </trkpt>
      <trkpt lat="48.70927" lon="-3.97672">
        <ele>19.7</ele>
        <time>2020-08-17T08:29:21Z</time>
      </trkpt>
      <trkpt lat="48.70951" lon="-3.97675">
        <ele>21.5</ele>
        <time>2020-08-17T08:29:28Z</time>
      </trkpt>
      <trkpt lat="48.70985" lon="-3.97678">
        <ele>22.7</ele>
        <time>2020-08-17T08:29:39Z</time>
      </trkpt>
      <trkpt lat="48.71001" lon="-3.97674">
        <ele>24.1</ele>
        <time>2020-08-17T08:29:46Z</time>
      </trkpt>
      <trkpt lat="48.71015" lon="-3.97656">
        <ele>23.5</ele>
        <time>2020-08-17T08:29:54Z</time>
      </trkpt>
      <trkpt lat="48.71031" lon="-3.97634">
        <ele>23.8</ele>
        <time>2020-08-17T08:30:02Z</time>
      </trkpt>
      <trkpt lat="48.71051" lon="-3.97609">
        <ele>24.1</ele>
        <time>2020-08-17T08:30:11Z</time>
      </trkpt>
      <trkpt lat="48.71069" lon="-3.97587">
        <ele>25</ele>
        <time>2020-08-17T08:30:19Z</time>
      </trkpt>
      <trkpt lat="48.71072" lon="-3.97584">
        <ele>25.2</ele>
        <time>2020-08-17T08:30:20Z</time>
      </trkpt>
      <trkpt lat="48.71085" lon="-3.97562">
        <ele>25.5</ele>
        <time>2020-08-17T08:30:25Z</time>
      </trkpt>
      <trkpt lat="48.71099" lon="-3.97522">
        <ele>24</ele>
        <time>2020-08-17T08:30:32Z</time>
      </trkpt>
      <trkpt lat="48.71107" lon="-3.97488">
        <ele>21</ele>
        <time>2020-08-17T08:30:36Z</time>
      </trkpt>
      <trkpt lat="48.71118" lon="-3.97429">
        <ele>19.5</ele>
        <time>2020-08-17T08:30:42Z</time>
      </trkpt>
      <trkpt lat="48.71122" lon="-3.9741">
        <ele>15.9</ele>
        <time>2020-08-17T08:30:44Z</time>
      </trkpt>
      <trkpt lat="48.71137" lon="-3.97383">
        <ele>15.8</ele>
        <time>2020-08-17T08:30:48Z</time>
      </trkpt>
      <trkpt lat="48.71151" lon="-3.97376">
        <ele>16</ele>
        <time>2020-08-17T08:30:51Z</time>
      </trkpt>
      <trkpt lat="48.71175" lon="-3.97377">
        <ele>21.1</ele>
        <time>2020-08-17T08:30:57Z</time>
      </trkpt>
      <trkpt lat="48.71191" lon="-3.97383">
        <ele>21.7</ele>
        <time>2020-08-17T08:31:04Z</time>
      </trkpt>
      <trkpt lat="48.712" lon="-3.97391">
        <ele>22.3</ele>
        <time>2020-08-17T08:31:11Z</time>
      </trkpt>
      <trkpt lat="48.71208" lon="-3.97402">
        <ele>22.9</ele>
        <time>2020-08-17T08:31:20Z</time>
      </trkpt>
      <trkpt lat="48.71214" lon="-3.9741">
        <ele>23.4</ele>
        <time>2020-08-17T08:31:26Z</time>
      </trkpt>
      <trkpt lat="48.71222" lon="-3.9741">
        <ele>24</ele>
        <time>2020-08-17T08:31:33Z</time>
      </trkpt>
      <trkpt lat="48.71232" lon="-3.97405">
        <ele>24.7</ele>
        <time>2020-08-17T08:31:41Z</time>
      </trkpt>
      <trkpt lat="48.71239" lon="-3.97471">
        <ele>27.9</ele>
        <time>2020-08-17T08:31:46Z</time>
      </trkpt>
      <trkpt lat="48.71237" lon="-3.97408">
        <ele>25.3</ele>
        <time>2020-08-17T08:31:52Z</time>
      </trkpt>
      <trkpt lat="48.7124" lon="-3.97414">
        <ele>26.1</ele>
        <time>2020-08-17T08:31:59Z</time>
      </trkpt>
      <trkpt lat="48.71242" lon="-3.97419">
        <ele>27.5</ele>
        <time>2020-08-17T08:32:02Z</time>
      </trkpt>
      <trkpt lat="48.71247" lon="-3.97434">
        <ele>27.4</ele>
        <time>2020-08-17T08:32:11Z</time>
      </trkpt>
      <trkpt lat="48.71248" lon="-3.97438">
        <ele>27.4</ele>
        <time>2020-08-17T08:32:14Z</time>
      </trkpt>
      <trkpt lat="48.7125" lon="-3.97448">
        <ele>27.4</ele>
        <time>2020-08-17T08:32:21Z</time>
      </trkpt>
      <trkpt lat="48.71261" lon="-3.97458">
        <ele>29.2</ele>
        <time>2020-08-17T08:32:28Z</time>
      </trkpt>
      <trkpt lat="48.71252" lon="-3.97462">
        <ele>29.3</ele>
        <time>2020-08-17T08:32:29Z</time>
      </trkpt>
      <trkpt lat="48.71257" lon="-3.97476">
        <ele>29.7</ele>
        <time>2020-08-17T08:32:33Z</time>
      </trkpt>
      <trkpt lat="48.71266" lon="-3.97479">
        <ele>29.7</ele>
        <time>2020-08-17T08:32:40Z</time>
      </trkpt>
      <trkpt lat="48.7128" lon="-3.97488">
        <ele>29.6</ele>
        <time>2020-08-17T08:32:49Z</time>
      </trkpt>
      <trkpt lat="48.7129" lon="-3.9749">
        <ele>29.5</ele>
        <time>2020-08-17T08:32:55Z</time>
      </trkpt>
      <trkpt lat="48.71291" lon="-3.9749">
        <ele>29.5</ele>
        <time>2020-08-17T08:32:58Z</time>
      </trkpt>
      <trkpt lat="48.71294" lon="-3.97491">
        <ele>29.5</ele>
        <time>2020-08-17T08:35:35Z</time>
      </trkpt>
      <trkpt lat="48.71309" lon="-3.97491">
        <ele>29.5</ele>
        <time>2020-08-17T08:35:41Z</time>
      </trkpt>
      <trkpt lat="48.71326" lon="-3.97498">
        <ele>29.7</ele>
        <time>2020-08-17T08:35:46Z</time>
      </trkpt>
      <trkpt lat="48.71342" lon="-3.97499">
        <ele>29</ele>
        <time>2020-08-17T08:35:50Z</time>
      </trkpt>
      <trkpt lat="48.71351" lon="-3.97498">
        <ele>28.3</ele>
        <time>2020-08-17T08:35:52Z</time>
      </trkpt>
      <trkpt lat="48.71375" lon="-3.97505">
        <ele>29.1</ele>
        <time>2020-08-17T08:35:57Z</time>
      </trkpt>
      <trkpt lat="48.7138" lon="-3.97508">
        <ele>29</ele>
        <time>2020-08-17T08:35:58Z</time>
      </trkpt>
      <trkpt lat="48.71389" lon="-3.97512">
        <ele>28.8</ele>
        <time>2020-08-17T08:36:00Z</time>
      </trkpt>
      <trkpt lat="48.71404" lon="-3.9751">
        <ele>28.2</ele>
        <time>2020-08-17T08:36:05Z</time>
      </trkpt>
      <trkpt lat="48.71405" lon="-3.97503">
        <ele>28</ele>
        <time>2020-08-17T08:36:07Z</time>
      </trkpt>
      <trkpt lat="48.71412" lon="-3.97466">
        <ele>26.1</ele>
        <time>2020-08-17T08:36:14Z</time>
      </trkpt>
      <trkpt lat="48.7142" lon="-3.97415">
        <ele>21.6</ele>
        <time>2020-08-17T08:36:22Z</time>
      </trkpt>
      <trkpt lat="48.71419" lon="-3.97367">
        <ele>19.2</ele>
        <time>2020-08-17T08:36:28Z</time>
      </trkpt>
      <trkpt lat="48.71421" lon="-3.97332">
        <ele>16.8</ele>
        <time>2020-08-17T08:36:32Z</time>
      </trkpt>
      <trkpt lat="48.71427" lon="-3.97327">
        <ele>16.6</ele>
        <time>2020-08-17T08:36:36Z</time>
      </trkpt>
      <trkpt lat="48.71427" lon="-3.97327">
        <ele>16.6</ele>
        <time>2020-08-17T08:36:37Z</time>
      </trkpt>
      <trkpt lat="48.71412" lon="-3.9732">
        <ele>16.8</ele>
        <time>2020-08-17T08:37:01Z</time>
      </trkpt>
      <trkpt lat="48.71406" lon="-3.97303">
        <ele>16.5</ele>
        <time>2020-08-17T08:37:07Z</time>
      </trkpt>
      <trkpt lat="48.71402" lon="-3.97287">
        <ele>15.9</ele>
        <time>2020-08-17T08:37:13Z</time>
      </trkpt>
      <trkpt lat="48.71402" lon="-3.97287">
        <ele>15.9</ele>
        <time>2020-08-17T08:37:30Z</time>
      </trkpt>
      <trkpt lat="48.71405" lon="-3.97301">
        <ele>16.4</ele>
        <time>2020-08-17T08:37:55Z</time>
      </trkpt>
      <trkpt lat="48.71407" lon="-3.97307">
        <ele>16.6</ele>
        <time>2020-08-17T08:37:58Z</time>
      </trkpt>
      <trkpt lat="48.71412" lon="-3.9732">
        <ele>16.8</ele>
        <time>2020-08-17T08:38:02Z</time>
      </trkpt>
      <trkpt lat="48.71416" lon="-3.97334">
        <ele>17.2</ele>
        <time>2020-08-17T08:38:09Z</time>
      </trkpt>
      <trkpt lat="48.71426" lon="-3.97328">
        <ele>16.6</ele>
        <time>2020-08-17T08:38:13Z</time>
      </trkpt>
      <trkpt lat="48.7144" lon="-3.97316">
        <ele>16.3</ele>
        <time>2020-08-17T08:38:22Z</time>
      </trkpt>
      <trkpt lat="48.71455" lon="-3.97302">
        <ele>16.2</ele>
        <time>2020-08-17T08:38:31Z</time>
      </trkpt>
      <trkpt lat="48.7147" lon="-3.97288">
        <ele>16.1</ele>
        <time>2020-08-17T08:38:39Z</time>
      </trkpt>
      <trkpt lat="48.71487" lon="-3.97272">
        <ele>16.1</ele>
        <time>2020-08-17T08:38:48Z</time>
      </trkpt>
      <trkpt lat="48.71503" lon="-3.97259">
        <ele>16.5</ele>
        <time>2020-08-17T08:38:54Z</time>
      </trkpt>
      <trkpt lat="48.71529" lon="-3.9724">
        <ele>15.7</ele>
        <time>2020-08-17T08:39:01Z</time>
      </trkpt>
      <trkpt lat="48.71566" lon="-3.97218">
        <ele>15.7</ele>
        <time>2020-08-17T08:39:08Z</time>
      </trkpt>
      <trkpt lat="48.71572" lon="-3.97215">
        <ele>15.7</ele>
        <time>2020-08-17T08:39:09Z</time>
      </trkpt>
      <trkpt lat="48.71596" lon="-3.97216">
        <ele>16.9</ele>
        <time>2020-08-17T08:39:15Z</time>
      </trkpt>
      <trkpt lat="48.71614" lon="-3.97224">
        <ele>17.1</ele>
        <time>2020-08-17T08:39:22Z</time>
      </trkpt>
      <trkpt lat="48.71629" lon="-3.97234">
        <ele>17.4</ele>
        <time>2020-08-17T08:39:28Z</time>
      </trkpt>
      <trkpt lat="48.71657" lon="-3.97251">
        <ele>18.9</ele>
        <time>2020-08-17T08:39:37Z</time>
      </trkpt>
      <trkpt lat="48.71682" lon="-3.97272">
        <ele>19.7</ele>
        <time>2020-08-17T08:39:46Z</time>
      </trkpt>
      <trkpt lat="48.71684" lon="-3.97278">
        <ele>19.8</ele>
        <time>2020-08-17T08:39:48Z</time>
      </trkpt>
      <trkpt lat="48.71702" lon="-3.97266">
        <ele>19.7</ele>
        <time>2020-08-17T08:39:53Z</time>
      </trkpt>
      <trkpt lat="48.71714" lon="-3.97241">
        <ele>18.5</ele>
        <time>2020-08-17T08:40:02Z</time>
      </trkpt>
      <trkpt lat="48.71725" lon="-3.97226">
        <ele>18.4</ele>
        <time>2020-08-17T08:40:09Z</time>
      </trkpt>
      <trkpt lat="48.71733" lon="-3.97229">
        <ele>18.5</ele>
        <time>2020-08-17T08:40:14Z</time>
      </trkpt>
      <trkpt lat="48.71746" lon="-3.97232">
        <ele>18.6</ele>
        <time>2020-08-17T08:40:21Z</time>
      </trkpt>
      <trkpt lat="48.71746" lon="-3.97232">
        <ele>18.6</ele>
        <time>2020-08-17T08:40:22Z</time>
      </trkpt>
      <trkpt lat="48.71751" lon="-3.97234">
        <ele>18.6</ele>
        <time>2020-08-17T08:40:36Z</time>
      </trkpt>
      <trkpt lat="48.71756" lon="-3.97235">
        <ele>18.6</ele>
        <time>2020-08-17T08:40:42Z</time>
      </trkpt>
      <trkpt lat="48.71768" lon="-3.97238">
        <ele>18.6</ele>
        <time>2020-08-17T08:40:53Z</time>
      </trkpt>
      <trkpt lat="48.71779" lon="-3.97241">
        <ele>18.5</ele>
        <time>2020-08-17T08:41:03Z</time>
      </trkpt>
      <trkpt lat="48.71792" lon="-3.97237">
        <ele>18.5</ele>
        <time>2020-08-17T08:41:13Z</time>
      </trkpt>
      <trkpt lat="48.71794" lon="-3.97236">
        <ele>18.5</ele>
        <time>2020-08-17T08:41:19Z</time>
      </trkpt>
      <trkpt lat="48.71795" lon="-3.97235">
        <ele>18.5</ele>
        <time>2020-08-17T09:00:27Z</time>
      </trkpt>
      <trkpt lat="48.71799" lon="-3.97231">
        <ele>18.5</ele>
        <time>2020-08-17T09:00:30Z</time>
      </trkpt>
      <trkpt lat="48.71812" lon="-3.97214">
        <ele>18.4</ele>
        <time>2020-08-17T09:00:37Z</time>
      </trkpt>
      <trkpt lat="48.71827" lon="-3.97221">
        <ele>18.5</ele>
        <time>2020-08-17T09:00:42Z</time>
      </trkpt>
      <trkpt lat="48.71845" lon="-3.97233">
        <ele>18.7</ele>
        <time>2020-08-17T09:00:47Z</time>
      </trkpt>
      <trkpt lat="48.71862" lon="-3.97246">
        <ele>18.7</ele>
        <time>2020-08-17T09:00:52Z</time>
      </trkpt>
      <trkpt lat="48.71875" lon="-3.97258">
        <ele>19.5</ele>
        <time>2020-08-17T09:00:56Z</time>
      </trkpt>
      <trkpt lat="48.71889" lon="-3.97258">
        <ele>19.5</ele>
        <time>2020-08-17T09:01:00Z</time>
      </trkpt>
      <trkpt lat="48.71897" lon="-3.97245">
        <ele>18.7</ele>
        <time>2020-08-17T09:01:08Z</time>
      </trkpt>
      <trkpt lat="48.71897" lon="-3.97245">
        <ele>18.7</ele>
        <time>2020-08-17T09:01:14Z</time>
      </trkpt>
      <trkpt lat="48.71902" lon="-3.97251">
        <ele>19.3</ele>
        <time>2020-08-17T09:01:21Z</time>
      </trkpt>
      <trkpt lat="48.71951" lon="-3.97183">
        <ele>20</ele>
        <time>2020-08-17T09:01:30Z</time>
      </trkpt>
      <trkpt lat="48.71979" lon="-3.97163">
        <ele>20.1</ele>
        <time>2020-08-17T09:01:40Z</time>
      </trkpt>
      <trkpt lat="48.72" lon="-3.97152">
        <ele>20.6</ele>
        <time>2020-08-17T09:01:48Z</time>
      </trkpt>
      <trkpt lat="48.72021" lon="-3.97144">
        <ele>21.2</ele>
        <time>2020-08-17T09:01:56Z</time>
      </trkpt>
      <trkpt lat="48.72042" lon="-3.97139">
        <ele>21.1</ele>
        <time>2020-08-17T09:02:04Z</time>
      </trkpt>
      <trkpt lat="48.72078" lon="-3.97132">
        <ele>21</ele>
        <time>2020-08-17T09:02:16Z</time>
      </trkpt>
      <trkpt lat="48.72106" lon="-3.97128">
        <ele>20.2</ele>
        <time>2020-08-17T09:02:25Z</time>
      </trkpt>
      <trkpt lat="48.72126" lon="-3.97125">
        <ele>20</ele>
        <time>2020-08-17T09:02:31Z</time>
      </trkpt>
      <trkpt lat="48.72136" lon="-3.97116">
        <ele>19.9</ele>
        <time>2020-08-17T09:02:36Z</time>
      </trkpt>
      <trkpt lat="48.72134" lon="-3.97124">
        <ele>19.9</ele>
        <time>2020-08-17T09:02:40Z</time>
      </trkpt>
      <trkpt lat="48.72149" lon="-3.97121">
        <ele>19.8</ele>
        <time>2020-08-17T09:02:46Z</time>
      </trkpt>
      <trkpt lat="48.72178" lon="-3.97117">
        <ele>18</ele>
        <time>2020-08-17T09:02:53Z</time>
      </trkpt>
      <trkpt lat="48.72194" lon="-3.97115">
        <ele>17.7</ele>
        <time>2020-08-17T09:02:57Z</time>
      </trkpt>
      <trkpt lat="48.72214" lon="-3.97111">
        <ele>17.2</ele>
        <time>2020-08-17T09:03:03Z</time>
      </trkpt>
      <trkpt lat="48.72235" lon="-3.97107">
        <ele>16.8</ele>
        <time>2020-08-17T09:03:08Z</time>
      </trkpt>
      <trkpt lat="48.72271" lon="-3.97113">
        <ele>15.4</ele>
        <time>2020-08-17T09:03:15Z</time>
      </trkpt>
      <trkpt lat="48.72308" lon="-3.97124">
        <ele>15.2</ele>
        <time>2020-08-17T09:03:22Z</time>
      </trkpt>
      <trkpt lat="48.72355" lon="-3.97137">
        <ele>14.8</ele>
        <time>2020-08-17T09:03:31Z</time>
      </trkpt>
      <trkpt lat="48.72391" lon="-3.97145">
        <ele>14.8</ele>
        <time>2020-08-17T09:03:39Z</time>
      </trkpt>
      <trkpt lat="48.72405" lon="-3.97147">
        <ele>14.8</ele>
        <time>2020-08-17T09:03:42Z</time>
      </trkpt>
      <trkpt lat="48.72442" lon="-3.97151">
        <ele>13.3</ele>
        <time>2020-08-17T09:03:50Z</time>
      </trkpt>
      <trkpt lat="48.72461" lon="-3.97153">
        <ele>12.7</ele>
        <time>2020-08-17T09:03:55Z</time>
      </trkpt>
      <trkpt lat="48.72467" lon="-3.97154">
        <ele>12.6</ele>
        <time>2020-08-17T09:03:59Z</time>
      </trkpt>
      <trkpt lat="48.72467" lon="-3.97154">
        <ele>12.6</ele>
        <time>2020-08-17T09:04:02Z</time>
      </trkpt>
      <trkpt lat="48.72467" lon="-3.97154">
        <ele>12.6</ele>
        <time>2020-08-17T09:04:09Z</time>
      </trkpt>
      <trkpt lat="48.72467" lon="-3.97154">
        <ele>12.6</ele>
        <time>2020-08-17T09:04:10Z</time>
      </trkpt>
      <trkpt lat="48.72467" lon="-3.97154">
        <ele>12.6</ele>
        <time>2020-08-17T09:04:16Z</time>
      </trkpt>
      <trkpt lat="48.72467" lon="-3.97154">
        <ele>12.6</ele>
        <time>2020-08-17T09:04:20Z</time>
      </trkpt>
      <trkpt lat="48.72467" lon="-3.97154">
        <ele>12.6</ele>
        <time>2020-08-17T09:04:28Z</time>
      </trkpt>
      <trkpt lat="48.72467" lon="-3.97154">
        <ele>12.6</ele>
        <time>2020-08-17T09:04:34Z</time>
      </trkpt>
      <trkpt lat="48.7253" lon="-3.97121">
        <ele>8.9</ele>
        <time>2020-08-17T09:04:41Z</time>
      </trkpt>
      <trkpt lat="48.72537" lon="-3.97112">
        <ele>8.7</ele>
        <time>2020-08-17T09:04:47Z</time>
      </trkpt>
      <trkpt lat="48.72537" lon="-3.97112">
        <ele>8.7</ele>
        <time>2020-08-17T09:05:02Z</time>
      </trkpt>
      <trkpt lat="48.72583" lon="-3.97101">
        <ele>7.6</ele>
        <time>2020-08-17T09:05:08Z</time>
      </trkpt>
      <trkpt lat="48.72536" lon="-3.97113">
        <ele>8.7</ele>
        <time>2020-08-17T09:05:15Z</time>
      </trkpt>
      <trkpt lat="48.72526" lon="-3.97133">
        <ele>8.9</ele>
        <time>2020-08-17T09:12:08Z</time>
      </trkpt>
      <trkpt lat="48.72513" lon="-3.97143">
        <ele>9.4</ele>
        <time>2020-08-17T09:12:14Z</time>
      </trkpt>
      <trkpt lat="48.72501" lon="-3.9715">
        <ele>9.9</ele>
        <time>2020-08-17T09:12:18Z</time>
      </trkpt>
      <trkpt lat="48.72478" lon="-3.97155">
        <ele>12.2</ele>
        <time>2020-08-17T09:12:25Z</time>
      </trkpt>
      <trkpt lat="48.72476" lon="-3.97155">
        <ele>12.3</ele>
        <time>2020-08-17T09:12:26Z</time>
      </trkpt>
      <trkpt lat="48.72466" lon="-3.97157">
        <ele>12.6</ele>
        <time>2020-08-17T09:12:31Z</time>
      </trkpt>
      <trkpt lat="48.72466" lon="-3.97159">
        <ele>12.6</ele>
        <time>2020-08-17T09:12:33Z</time>
      </trkpt>
      <trkpt lat="48.72466" lon="-3.97168">
        <ele>11.5</ele>
        <time>2020-08-17T09:12:44Z</time>
      </trkpt>
      <trkpt lat="48.72466" lon="-3.97189">
        <ele>11.2</ele>
        <time>2020-08-17T09:12:48Z</time>
      </trkpt>
      <trkpt lat="48.72465" lon="-3.97197">
        <ele>11</ele>
        <time>2020-08-17T09:12:49Z</time>
      </trkpt>
      <trkpt lat="48.72453" lon="-3.97276">
        <ele>8.8</ele>
        <time>2020-08-17T09:12:57Z</time>
      </trkpt>
      <trkpt lat="48.72449" lon="-3.97332">
        <ele>7.9</ele>
        <time>2020-08-17T09:13:03Z</time>
      </trkpt>
      <trkpt lat="48.72452" lon="-3.97384">
        <ele>4.3</ele>
        <time>2020-08-17T09:13:10Z</time>
      </trkpt>
      <trkpt lat="48.7245" lon="-3.97408">
        <ele>4</ele>
        <time>2020-08-17T09:13:15Z</time>
      </trkpt>
      <trkpt lat="48.72442" lon="-3.9742">
        <ele>3.4</ele>
        <time>2020-08-17T09:13:19Z</time>
      </trkpt>
      <trkpt lat="48.72429" lon="-3.97423">
        <ele>3.7</ele>
        <time>2020-08-17T09:13:24Z</time>
      </trkpt>
      <trkpt lat="48.72403" lon="-3.9741">
        <ele>5.5</ele>
        <time>2020-08-17T09:13:31Z</time>
      </trkpt>
      <trkpt lat="48.7239" lon="-3.97404">
        <ele>6.3</ele>
        <time>2020-08-17T09:13:34Z</time>
      </trkpt>
      <trkpt lat="48.72369" lon="-3.97406">
        <ele>7</ele>
        <time>2020-08-17T09:13:39Z</time>
      </trkpt>
      <trkpt lat="48.72366" lon="-3.97408">
        <ele>7.1</ele>
        <time>2020-08-17T09:13:40Z</time>
      </trkpt>
      <trkpt lat="48.72341" lon="-3.97432">
        <ele>7.1</ele>
        <time>2020-08-17T09:13:48Z</time>
      </trkpt>
      <trkpt lat="48.72334" lon="-3.9745">
        <ele>6.6</ele>
        <time>2020-08-17T09:13:53Z</time>
      </trkpt>
      <trkpt lat="48.72333" lon="-3.97455">
        <ele>8.6</ele>
        <time>2020-08-17T09:13:55Z</time>
      </trkpt>
      <trkpt lat="48.72332" lon="-3.97458">
        <ele>8.6</ele>
        <time>2020-08-17T09:13:58Z</time>
      </trkpt>
      <trkpt lat="48.72345" lon="-3.97426">
        <ele>7.1</ele>
        <time>2020-08-17T09:14:15Z</time>
      </trkpt>
      <trkpt lat="48.72332" lon="-3.97459">
        <ele>8.5</ele>
        <time>2020-08-17T09:14:16Z</time>
      </trkpt>
      <trkpt lat="48.72328" lon="-3.97483">
        <ele>7.8</ele>
        <time>2020-08-17T09:14:24Z</time>
      </trkpt>
      <trkpt lat="48.72323" lon="-3.97501">
        <ele>6.7</ele>
        <time>2020-08-17T09:14:30Z</time>
      </trkpt>
      <trkpt lat="48.72319" lon="-3.97514">
        <ele>7.1</ele>
        <time>2020-08-17T09:14:36Z</time>
      </trkpt>
      <trkpt lat="48.72317" lon="-3.97517">
        <ele>7.2</ele>
        <time>2020-08-17T09:14:37Z</time>
      </trkpt>
      <trkpt lat="48.72311" lon="-3.97536">
        <ele>7.3</ele>
        <time>2020-08-17T09:14:45Z</time>
      </trkpt>
      <trkpt lat="48.72301" lon="-3.97556">
        <ele>7.3</ele>
        <time>2020-08-17T09:14:53Z</time>
      </trkpt>
      <trkpt lat="48.72288" lon="-3.97578">
        <ele>7.7</ele>
        <time>2020-08-17T09:15:03Z</time>
      </trkpt>
      <trkpt lat="48.72273" lon="-3.97597">
        <ele>7.7</ele>
        <time>2020-08-17T09:15:11Z</time>
      </trkpt>
      <trkpt lat="48.72259" lon="-3.9761">
        <ele>7.9</ele>
        <time>2020-08-17T09:15:17Z</time>
      </trkpt>
      <trkpt lat="48.72239" lon="-3.9762">
        <ele>10</ele>
        <time>2020-08-17T09:15:25Z</time>
      </trkpt>
      <trkpt lat="48.72226" lon="-3.97632">
        <ele>10</ele>
        <time>2020-08-17T09:15:31Z</time>
      </trkpt>
      <trkpt lat="48.7222" lon="-3.97643">
        <ele>9.9</ele>
        <time>2020-08-17T09:15:35Z</time>
      </trkpt>
      <trkpt lat="48.72213" lon="-3.97657">
        <ele>10</ele>
        <time>2020-08-17T09:15:38Z</time>
      </trkpt>
      <trkpt lat="48.72206" lon="-3.97692">
        <ele>8.8</ele>
        <time>2020-08-17T09:15:44Z</time>
      </trkpt>
      <trkpt lat="48.72202" lon="-3.97719">
        <ele>8.6</ele>
        <time>2020-08-17T09:15:48Z</time>
      </trkpt>
      <trkpt lat="48.72199" lon="-3.97773">
        <ele>8.2</ele>
        <time>2020-08-17T09:15:58Z</time>
      </trkpt>
      <trkpt lat="48.722" lon="-3.97817">
        <ele>8.3</ele>
        <time>2020-08-17T09:16:06Z</time>
      </trkpt>
      <trkpt lat="48.72208" lon="-3.97842">
        <ele>9</ele>
        <time>2020-08-17T09:16:12Z</time>
      </trkpt>
      <trkpt lat="48.72216" lon="-3.97879">
        <ele>9</ele>
        <time>2020-08-17T09:16:20Z</time>
      </trkpt>
      <trkpt lat="48.72224" lon="-3.97918">
        <ele>8.4</ele>
        <time>2020-08-17T09:16:29Z</time>
      </trkpt>
      <trkpt lat="48.72235" lon="-3.97971">
        <ele>7.6</ele>
        <time>2020-08-17T09:16:40Z</time>
      </trkpt>
      <trkpt lat="48.72245" lon="-3.9801">
        <ele>6.8</ele>
        <time>2020-08-17T09:16:48Z</time>
      </trkpt>
      <trkpt lat="48.7226" lon="-3.98036">
        <ele>6.5</ele>
        <time>2020-08-17T09:16:55Z</time>
      </trkpt>
      <trkpt lat="48.72284" lon="-3.98077">
        <ele>6.6</ele>
        <time>2020-08-17T09:17:05Z</time>
      </trkpt>
      <trkpt lat="48.72306" lon="-3.98116">
        <ele>7.1</ele>
        <time>2020-08-17T09:17:14Z</time>
      </trkpt>
      <trkpt lat="48.72329" lon="-3.98152">
        <ele>7.2</ele>
        <time>2020-08-17T09:17:22Z</time>
      </trkpt>
      <trkpt lat="48.72348" lon="-3.98175">
        <ele>6.6</ele>
        <time>2020-08-17T09:17:29Z</time>
      </trkpt>
      <trkpt lat="48.72369" lon="-3.98195">
        <ele>6.2</ele>
        <time>2020-08-17T09:17:37Z</time>
      </trkpt>
      <trkpt lat="48.72376" lon="-3.98202">
        <ele>6.2</ele>
        <time>2020-08-17T09:17:40Z</time>
      </trkpt>
      <trkpt lat="48.72384" lon="-3.98209">
        <ele>6.1</ele>
        <time>2020-08-17T09:17:46Z</time>
      </trkpt>
      <trkpt lat="48.72384" lon="-3.98209">
        <ele>6.1</ele>
        <time>2020-08-17T09:17:51Z</time>
      </trkpt>
      <trkpt lat="48.72409" lon="-3.9821">
        <ele>5.8</ele>
        <time>2020-08-17T09:17:57Z</time>
      </trkpt>
      <trkpt lat="48.72451" lon="-3.98238">
        <ele>5.6</ele>
        <time>2020-08-17T09:18:07Z</time>
      </trkpt>
      <trkpt lat="48.72458" lon="-3.98243">
        <ele>5.6</ele>
        <time>2020-08-17T09:18:09Z</time>
      </trkpt>
      <trkpt lat="48.72487" lon="-3.98256">
        <ele>6.5</ele>
        <time>2020-08-17T09:18:16Z</time>
      </trkpt>
      <trkpt lat="48.72513" lon="-3.98261">
        <ele>6.4</ele>
        <time>2020-08-17T09:18:23Z</time>
      </trkpt>
      <trkpt lat="48.72531" lon="-3.98263">
        <ele>6.6</ele>
        <time>2020-08-17T09:18:27Z</time>
      </trkpt>
      <trkpt lat="48.72533" lon="-3.98269">
        <ele>6.6</ele>
        <time>2020-08-17T09:18:30Z</time>
      </trkpt>
      <trkpt lat="48.72537" lon="-3.9828">
        <ele>6.8</ele>
        <time>2020-08-17T09:18:34Z</time>
      </trkpt>
      <trkpt lat="48.72537" lon="-3.98282">
        <ele>6.8</ele>
        <time>2020-08-17T09:18:35Z</time>
      </trkpt>
      <trkpt lat="48.72538" lon="-3.98284">
        <ele>6.9</ele>
        <time>2020-08-17T09:18:38Z</time>
      </trkpt>
      <trkpt lat="48.72538" lon="-3.98284">
        <ele>6.9</ele>
        <time>2020-08-17T09:18:51Z</time>
      </trkpt>
      <trkpt lat="48.72538" lon="-3.98284">
        <ele>6.9</ele>
        <time>2020-08-17T09:30:35Z</time>
      </trkpt>
      <trkpt lat="48.72534" lon="-3.98272">
        <ele>6.7</ele>
        <time>2020-08-17T09:30:44Z</time>
      </trkpt>
      <trkpt lat="48.72533" lon="-3.9827">
        <ele>6.7</ele>
        <time>2020-08-17T09:30:45Z</time>
      </trkpt>
      <trkpt lat="48.72531" lon="-3.98264">
        <ele>6.6</ele>
        <time>2020-08-17T09:30:51Z</time>
      </trkpt>
      <trkpt lat="48.72532" lon="-3.98264">
        <ele>6.6</ele>
        <time>2020-08-17T09:30:56Z</time>
      </trkpt>
      <trkpt lat="48.72534" lon="-3.98255">
        <ele>6.5</ele>
        <time>2020-08-17T09:31:01Z</time>
      </trkpt>
      <trkpt lat="48.7255" lon="-3.98268">
        <ele>6.5</ele>
        <time>2020-08-17T09:31:08Z</time>
      </trkpt>
      <trkpt lat="48.72565" lon="-3.98276">
        <ele>6.6</ele>
        <time>2020-08-17T09:31:17Z</time>
      </trkpt>
      <trkpt lat="48.72583" lon="-3.98285">
        <ele>6.8</ele>
        <time>2020-08-17T09:31:26Z</time>
      </trkpt>
      <trkpt lat="48.726" lon="-3.9829">
        <ele>5.1</ele>
        <time>2020-08-17T09:31:33Z</time>
      </trkpt>
      <trkpt lat="48.72621" lon="-3.98296">
        <ele>4.7</ele>
        <time>2020-08-17T09:31:40Z</time>
      </trkpt>
      <trkpt lat="48.72623" lon="-3.98298">
        <ele>4.6</ele>
        <time>2020-08-17T09:31:41Z</time>
      </trkpt>
      <trkpt lat="48.72628" lon="-3.98301">
        <ele>4.5</ele>
        <time>2020-08-17T09:31:45Z</time>
      </trkpt>
      <trkpt lat="48.72642" lon="-3.98259">
        <ele>3.6</ele>
        <time>2020-08-17T09:31:57Z</time>
      </trkpt>
      <trkpt lat="48.72649" lon="-3.98241">
        <ele>2.7</ele>
        <time>2020-08-17T09:32:03Z</time>
      </trkpt>
      <trkpt lat="48.72656" lon="-3.98225">
        <ele>2.8</ele>
        <time>2020-08-17T09:32:10Z</time>
      </trkpt>
      <trkpt lat="48.72662" lon="-3.98207">
        <ele>2.8</ele>
        <time>2020-08-17T09:32:17Z</time>
      </trkpt>
      <trkpt lat="48.72671" lon="-3.9817">
        <ele>2</ele>
        <time>2020-08-17T09:32:27Z</time>
      </trkpt>
      <trkpt lat="48.72672" lon="-3.98138">
        <ele>2</ele>
        <time>2020-08-17T09:32:35Z</time>
      </trkpt>
      <trkpt lat="48.72672" lon="-3.98136">
        <ele>2</ele>
        <time>2020-08-17T09:32:36Z</time>
      </trkpt>
      <trkpt lat="48.72672" lon="-3.9814">
        <ele>2</ele>
        <time>2020-08-17T09:32:41Z</time>
      </trkpt>
      <trkpt lat="48.72673" lon="-3.9815">
        <ele>2</ele>
        <time>2020-08-17T09:32:46Z</time>
      </trkpt>
      <trkpt lat="48.72673" lon="-3.98151">
        <ele>2</ele>
        <time>2020-08-17T09:32:50Z</time>
      </trkpt>
      <trkpt lat="48.72661" lon="-3.9814">
        <ele>2.5</ele>
        <time>2020-08-17T09:32:59Z</time>
      </trkpt>
      <trkpt lat="48.72656" lon="-3.98152">
        <ele>2.4</ele>
        <time>2020-08-17T09:33:04Z</time>
      </trkpt>
      <trkpt lat="48.72649" lon="-3.9817">
        <ele>2.6</ele>
        <time>2020-08-17T09:33:10Z</time>
      </trkpt>
      <trkpt lat="48.72642" lon="-3.9819">
        <ele>2.9</ele>
        <time>2020-08-17T09:33:18Z</time>
      </trkpt>
      <trkpt lat="48.72655" lon="-3.98228">
        <ele>2.8</ele>
        <time>2020-08-17T09:33:27Z</time>
      </trkpt>
      <trkpt lat="48.72648" lon="-3.98243">
        <ele>2.7</ele>
        <time>2020-08-17T09:33:34Z</time>
      </trkpt>
      <trkpt lat="48.72641" lon="-3.98261">
        <ele>3.7</ele>
        <time>2020-08-17T09:33:42Z</time>
      </trkpt>
      <trkpt lat="48.72633" lon="-3.98283">
        <ele>4.2</ele>
        <time>2020-08-17T09:33:52Z</time>
      </trkpt>
      <trkpt lat="48.72629" lon="-3.98296">
        <ele>4.4</ele>
        <time>2020-08-17T09:33:59Z</time>
      </trkpt>
      <trkpt lat="48.72628" lon="-3.98301">
        <ele>4.5</ele>
        <time>2020-08-17T09:34:08Z</time>
      </trkpt>
      <trkpt lat="48.72628" lon="-3.98301">
        <ele>4.5</ele>
        <time>2020-08-17T09:34:14Z</time>
      </trkpt>
      <trkpt lat="48.72612" lon="-3.98349">
        <ele>6.9</ele>
        <time>2020-08-17T09:34:22Z</time>
      </trkpt>
      <trkpt lat="48.72608" lon="-3.98359">
        <ele>7</ele>
        <time>2020-08-17T09:34:26Z</time>
      </trkpt>
      <trkpt lat="48.72602" lon="-3.9837">
        <ele>7.2</ele>
        <time>2020-08-17T09:34:32Z</time>
      </trkpt>
      <trkpt lat="48.72603" lon="-3.98391">
        <ele>7.5</ele>
        <time>2020-08-17T09:34:39Z</time>
      </trkpt>
      <trkpt lat="48.72609" lon="-3.984">
        <ele>7.5</ele>
        <time>2020-08-17T09:34:44Z</time>
      </trkpt>
      <trkpt lat="48.72609" lon="-3.984">
        <ele>7.5</ele>
        <time>2020-08-17T09:34:54Z</time>
      </trkpt>
      <trkpt lat="48.72609" lon="-3.984">
        <ele>7.5</ele>
        <time>2020-08-17T09:34:56Z</time>
      </trkpt>
      <trkpt lat="48.72584" lon="-3.98421">
        <ele>9.6</ele>
        <time>2020-08-17T09:35:00Z</time>
      </trkpt>
      <trkpt lat="48.72584" lon="-3.98421">
        <ele>9.6</ele>
        <time>2020-08-17T09:35:04Z</time>
      </trkpt>
      <trkpt lat="48.72584" lon="-3.98423">
        <ele>9.5</ele>
        <time>2020-08-17T09:35:34Z</time>
      </trkpt>
      <trkpt lat="48.72584" lon="-3.98423">
        <ele>9.5</ele>
        <time>2020-08-17T09:35:35Z</time>
      </trkpt>
      <trkpt lat="48.72599" lon="-3.98377">
        <ele>7.4</ele>
        <time>2020-08-17T09:42:30Z</time>
      </trkpt>
      <trkpt lat="48.72599" lon="-3.98377">
        <ele>7.4</ele>
        <time>2020-08-17T09:42:38Z</time>
      </trkpt>
      <trkpt lat="48.72599" lon="-3.98377">
        <ele>7.4</ele>
        <time>2020-08-17T09:42:45Z</time>
      </trkpt>
      <trkpt lat="48.72599" lon="-3.98377">
        <ele>7.4</ele>
        <time>2020-08-17T09:42:54Z</time>
      </trkpt>
      <trkpt lat="48.72637" lon="-3.98488">
        <ele>8.2</ele>
        <time>2020-08-17T09:43:01Z</time>
      </trkpt>
      <trkpt lat="48.72643" lon="-3.98517">
        <ele>8.6</ele>
        <time>2020-08-17T09:43:09Z</time>
      </trkpt>
      <trkpt lat="48.72643" lon="-3.98517">
        <ele>8.6</ele>
        <time>2020-08-17T09:43:15Z</time>
      </trkpt>
      <trkpt lat="48.72668" lon="-3.98544">
        <ele>8.1</ele>
        <time>2020-08-17T09:43:22Z</time>
      </trkpt>
      <trkpt lat="48.72676" lon="-3.98567">
        <ele>8.2</ele>
        <time>2020-08-17T09:43:30Z</time>
      </trkpt>
      <trkpt lat="48.72678" lon="-3.98589">
        <ele>8</ele>
        <time>2020-08-17T09:43:39Z</time>
      </trkpt>
      <trkpt lat="48.72678" lon="-3.98589">
        <ele>8</ele>
        <time>2020-08-17T09:43:46Z</time>
      </trkpt>
      <trkpt lat="48.72678" lon="-3.98626">
        <ele>7.3</ele>
        <time>2020-08-17T09:43:52Z</time>
      </trkpt>
      <trkpt lat="48.72678" lon="-3.98626">
        <ele>7.3</ele>
        <time>2020-08-17T09:43:56Z</time>
      </trkpt>
      <trkpt lat="48.72668" lon="-3.98624">
        <ele>7.4</ele>
        <time>2020-08-17T09:44:11Z</time>
      </trkpt>
      <trkpt lat="48.72656" lon="-3.98619">
        <ele>8.8</ele>
        <time>2020-08-17T09:44:17Z</time>
      </trkpt>
      <trkpt lat="48.72638" lon="-3.98618">
        <ele>8.8</ele>
        <time>2020-08-17T09:44:24Z</time>
      </trkpt>
      <trkpt lat="48.72632" lon="-3.98617">
        <ele>8.8</ele>
        <time>2020-08-17T09:44:32Z</time>
      </trkpt>
      <trkpt lat="48.72603" lon="-3.98619">
        <ele>8.7</ele>
        <time>2020-08-17T09:44:39Z</time>
      </trkpt>
      <trkpt lat="48.72586" lon="-3.98625">
        <ele>8.7</ele>
        <time>2020-08-17T09:44:47Z</time>
      </trkpt>
      <trkpt lat="48.72574" lon="-3.9863">
        <ele>8.2</ele>
        <time>2020-08-17T09:44:55Z</time>
      </trkpt>
      <trkpt lat="48.72552" lon="-3.98639">
        <ele>8.2</ele>
        <time>2020-08-17T09:45:04Z</time>
      </trkpt>
      <trkpt lat="48.72532" lon="-3.98643">
        <ele>8</ele>
        <time>2020-08-17T09:45:14Z</time>
      </trkpt>
      <trkpt lat="48.72517" lon="-3.98646">
        <ele>8</ele>
        <time>2020-08-17T09:45:22Z</time>
      </trkpt>
      <trkpt lat="48.72501" lon="-3.9865">
        <ele>8</ele>
        <time>2020-08-17T09:45:30Z</time>
      </trkpt>
      <trkpt lat="48.72484" lon="-3.98655">
        <ele>7.8</ele>
        <time>2020-08-17T09:45:37Z</time>
      </trkpt>
      <trkpt lat="48.72452" lon="-3.98667">
        <ele>8</ele>
        <time>2020-08-17T09:45:47Z</time>
      </trkpt>
      <trkpt lat="48.72423" lon="-3.98677">
        <ele>8</ele>
        <time>2020-08-17T09:45:56Z</time>
      </trkpt>
      <trkpt lat="48.72404" lon="-3.98684">
        <ele>8.6</ele>
        <time>2020-08-17T09:46:03Z</time>
      </trkpt>
      <trkpt lat="48.72389" lon="-3.98687">
        <ele>8.8</ele>
        <time>2020-08-17T09:46:10Z</time>
      </trkpt>
      <trkpt lat="48.72366" lon="-3.98693">
        <ele>9.1</ele>
        <time>2020-08-17T09:46:19Z</time>
      </trkpt>
      <trkpt lat="48.72348" lon="-3.98696">
        <ele>9.3</ele>
        <time>2020-08-17T09:46:26Z</time>
      </trkpt>
      <trkpt lat="48.72322" lon="-3.98698">
        <ele>10.7</ele>
        <time>2020-08-17T09:46:36Z</time>
      </trkpt>
      <trkpt lat="48.72303" lon="-3.98699">
        <ele>10.9</ele>
        <time>2020-08-17T09:46:44Z</time>
      </trkpt>
      <trkpt lat="48.72294" lon="-3.98699">
        <ele>11</ele>
        <time>2020-08-17T09:46:48Z</time>
      </trkpt>
      <trkpt lat="48.72287" lon="-3.98706">
        <ele>11.1</ele>
        <time>2020-08-17T09:46:52Z</time>
      </trkpt>
      <trkpt lat="48.72288" lon="-3.98724">
        <ele>10.9</ele>
        <time>2020-08-17T09:46:59Z</time>
      </trkpt>
      <trkpt lat="48.72291" lon="-3.9875">
        <ele>10.8</ele>
        <time>2020-08-17T09:47:07Z</time>
      </trkpt>
      <trkpt lat="48.72299" lon="-3.98781">
        <ele>9.4</ele>
        <time>2020-08-17T09:47:16Z</time>
      </trkpt>
      <trkpt lat="48.72307" lon="-3.98802">
        <ele>9</ele>
        <time>2020-08-17T09:47:22Z</time>
      </trkpt>
      <trkpt lat="48.72316" lon="-3.98819">
        <ele>8.7</ele>
        <time>2020-08-17T09:47:29Z</time>
      </trkpt>
      <trkpt lat="48.7232" lon="-3.9884">
        <ele>7.9</ele>
        <time>2020-08-17T09:47:36Z</time>
      </trkpt>
      <trkpt lat="48.72324" lon="-3.98886">
        <ele>7.8</ele>
        <time>2020-08-17T09:47:42Z</time>
      </trkpt>
      <trkpt lat="48.72327" lon="-3.98924">
        <ele>7.8</ele>
        <time>2020-08-17T09:47:48Z</time>
      </trkpt>
      <trkpt lat="48.72328" lon="-3.98942">
        <ele>7.7</ele>
        <time>2020-08-17T09:47:51Z</time>
      </trkpt>
      <trkpt lat="48.72329" lon="-3.98961">
        <ele>7.7</ele>
        <time>2020-08-17T09:47:54Z</time>
      </trkpt>
      <trkpt lat="48.72331" lon="-3.99028">
        <ele>7.2</ele>
        <time>2020-08-17T09:48:05Z</time>
      </trkpt>
      <trkpt lat="48.72333" lon="-3.99079">
        <ele>6.2</ele>
        <time>2020-08-17T09:48:14Z</time>
      </trkpt>
      <trkpt lat="48.72334" lon="-3.99102">
        <ele>6.5</ele>
        <time>2020-08-17T09:48:20Z</time>
      </trkpt>
      <trkpt lat="48.72334" lon="-3.99114">
        <ele>6.6</ele>
        <time>2020-08-17T09:48:25Z</time>
      </trkpt>
      <trkpt lat="48.72314" lon="-3.99128">
        <ele>6.7</ele>
        <time>2020-08-17T09:48:33Z</time>
      </trkpt>
      <trkpt lat="48.7229" lon="-3.99141">
        <ele>6.8</ele>
        <time>2020-08-17T09:48:42Z</time>
      </trkpt>
      <trkpt lat="48.72266" lon="-3.99156">
        <ele>6.9</ele>
        <time>2020-08-17T09:48:51Z</time>
      </trkpt>
      <trkpt lat="48.72251" lon="-3.99155">
        <ele>6.9</ele>
        <time>2020-08-17T09:48:56Z</time>
      </trkpt>
      <trkpt lat="48.7225" lon="-3.99153">
        <ele>7.8</ele>
        <time>2020-08-17T09:49:01Z</time>
      </trkpt>
      <trkpt lat="48.72229" lon="-3.99112">
        <ele>8.4</ele>
        <time>2020-08-17T09:49:08Z</time>
      </trkpt>
      <trkpt lat="48.72217" lon="-3.99105">
        <ele>8.6</ele>
        <time>2020-08-17T09:49:13Z</time>
      </trkpt>
      <trkpt lat="48.72194" lon="-3.99096">
        <ele>8.9</ele>
        <time>2020-08-17T09:49:21Z</time>
      </trkpt>
      <trkpt lat="48.72164" lon="-3.99081">
        <ele>8.9</ele>
        <time>2020-08-17T09:49:31Z</time>
      </trkpt>
      <trkpt lat="48.72144" lon="-3.99066">
        <ele>8.5</ele>
        <time>2020-08-17T09:49:38Z</time>
      </trkpt>
      <trkpt lat="48.72111" lon="-3.99037">
        <ele>8.2</ele>
        <time>2020-08-17T09:49:49Z</time>
      </trkpt>
      <trkpt lat="48.72085" lon="-3.99015">
        <ele>8.1</ele>
        <time>2020-08-17T09:49:57Z</time>
      </trkpt>
      <trkpt lat="48.72069" lon="-3.99">
        <ele>7.4</ele>
        <time>2020-08-17T09:50:02Z</time>
      </trkpt>
      <trkpt lat="48.72052" lon="-3.98984">
        <ele>7.7</ele>
        <time>2020-08-17T09:50:07Z</time>
      </trkpt>
      <trkpt lat="48.72015" lon="-3.98966">
        <ele>7.4</ele>
        <time>2020-08-17T09:50:16Z</time>
      </trkpt>
      <trkpt lat="48.71978" lon="-3.98958">
        <ele>7.2</ele>
        <time>2020-08-17T09:50:25Z</time>
      </trkpt>
      <trkpt lat="48.71949" lon="-3.98959">
        <ele>7.3</ele>
        <time>2020-08-17T09:50:33Z</time>
      </trkpt>
      <trkpt lat="48.71921" lon="-3.98963">
        <ele>7.3</ele>
        <time>2020-08-17T09:50:41Z</time>
      </trkpt>
      <trkpt lat="48.71886" lon="-3.98972">
        <ele>6.8</ele>
        <time>2020-08-17T09:50:51Z</time>
      </trkpt>
      <trkpt lat="48.71863" lon="-3.98978">
        <ele>6.6</ele>
        <time>2020-08-17T09:50:58Z</time>
      </trkpt>
      <trkpt lat="48.71854" lon="-3.98981">
        <ele>6.5</ele>
        <time>2020-08-17T09:51:01Z</time>
      </trkpt>
      <trkpt lat="48.71839" lon="-3.99001">
        <ele>6</ele>
        <time>2020-08-17T09:51:08Z</time>
      </trkpt>
      <trkpt lat="48.71842" lon="-3.99029">
        <ele>5.8</ele>
        <time>2020-08-17T09:51:15Z</time>
      </trkpt>
      <trkpt lat="48.71841" lon="-3.9906">
        <ele>5.5</ele>
        <time>2020-08-17T09:51:21Z</time>
      </trkpt>
      <trkpt lat="48.71837" lon="-3.99074">
        <ele>5.2</ele>
        <time>2020-08-17T09:51:25Z</time>
      </trkpt>
      <trkpt lat="48.71819" lon="-3.99092">
        <ele>4.2</ele>
        <time>2020-08-17T09:51:31Z</time>
      </trkpt>
      <trkpt lat="48.7179" lon="-3.99103">
        <ele>3.7</ele>
        <time>2020-08-17T09:51:39Z</time>
      </trkpt>
      <trkpt lat="48.71751" lon="-3.99119">
        <ele>3.6</ele>
        <time>2020-08-17T09:51:49Z</time>
      </trkpt>
      <trkpt lat="48.7171" lon="-3.9914">
        <ele>2.8</ele>
        <time>2020-08-17T09:52:00Z</time>
      </trkpt>
      <trkpt lat="48.71668" lon="-3.9917">
        <ele>1</ele>
        <time>2020-08-17T09:52:12Z</time>
      </trkpt>
      <trkpt lat="48.71627" lon="-3.992">
        <ele>2.5</ele>
        <time>2020-08-17T09:52:24Z</time>
      </trkpt>
      <trkpt lat="48.71581" lon="-3.99234">
        <ele>3.9</ele>
        <time>2020-08-17T09:52:37Z</time>
      </trkpt>
      <trkpt lat="48.71553" lon="-3.99255">
        <ele>3</ele>
        <time>2020-08-17T09:52:45Z</time>
      </trkpt>
      <trkpt lat="48.71515" lon="-3.99287">
        <ele>3</ele>
        <time>2020-08-17T09:52:56Z</time>
      </trkpt>
      <trkpt lat="48.71489" lon="-3.99313">
        <ele>4.3</ele>
        <time>2020-08-17T09:53:04Z</time>
      </trkpt>
      <trkpt lat="48.71451" lon="-3.99353">
        <ele>5.6</ele>
        <time>2020-08-17T09:53:16Z</time>
      </trkpt>
      <trkpt lat="48.71427" lon="-3.99383">
        <ele>5.4</ele>
        <time>2020-08-17T09:53:24Z</time>
      </trkpt>
      <trkpt lat="48.71392" lon="-3.99427">
        <ele>4.7</ele>
        <time>2020-08-17T09:53:35Z</time>
      </trkpt>
      <trkpt lat="48.71361" lon="-3.99467">
        <ele>4.6</ele>
        <time>2020-08-17T09:53:45Z</time>
      </trkpt>
      <trkpt lat="48.71334" lon="-3.99511">
        <ele>4.6</ele>
        <time>2020-08-17T09:53:55Z</time>
      </trkpt>
      <trkpt lat="48.71315" lon="-3.99543">
        <ele>4</ele>
        <time>2020-08-17T09:54:02Z</time>
      </trkpt>
      <trkpt lat="48.71294" lon="-3.99584">
        <ele>2.6</ele>
        <time>2020-08-17T09:54:11Z</time>
      </trkpt>
      <trkpt lat="48.71272" lon="-3.99623">
        <ele>2.3</ele>
        <time>2020-08-17T09:54:20Z</time>
      </trkpt>
      <trkpt lat="48.71258" lon="-3.99659">
        <ele>1.4</ele>
        <time>2020-08-17T09:54:27Z</time>
      </trkpt>
      <trkpt lat="48.71247" lon="-3.99704">
        <ele>2.3</ele>
        <time>2020-08-17T09:54:35Z</time>
      </trkpt>
      <trkpt lat="48.71243" lon="-3.99758">
        <ele>1.8</ele>
        <time>2020-08-17T09:54:44Z</time>
      </trkpt>
      <trkpt lat="48.71241" lon="-3.99798">
        <ele>2.5</ele>
        <time>2020-08-17T09:54:51Z</time>
      </trkpt>
      <trkpt lat="48.71236" lon="-3.99855">
        <ele>3.3</ele>
        <time>2020-08-17T09:55:01Z</time>
      </trkpt>
      <trkpt lat="48.71227" lon="-3.99905">
        <ele>5.2</ele>
        <time>2020-08-17T09:55:10Z</time>
      </trkpt>
      <trkpt lat="48.71216" lon="-3.99942">
        <ele>8.4</ele>
        <time>2020-08-17T09:55:17Z</time>
      </trkpt>
      <trkpt lat="48.712" lon="-3.99984">
        <ele>8.7</ele>
        <time>2020-08-17T09:55:25Z</time>
      </trkpt>
      <trkpt lat="48.7118" lon="-4.00022">
        <ele>7.5</ele>
        <time>2020-08-17T09:55:34Z</time>
      </trkpt>
      <trkpt lat="48.71164" lon="-4.00048">
        <ele>6.2</ele>
        <time>2020-08-17T09:55:41Z</time>
      </trkpt>
      <trkpt lat="48.71146" lon="-4.00075">
        <ele>5.4</ele>
        <time>2020-08-17T09:55:48Z</time>
      </trkpt>
      <trkpt lat="48.71126" lon="-4.00109">
        <ele>3.7</ele>
        <time>2020-08-17T09:55:55Z</time>
      </trkpt>
      <trkpt lat="48.71093" lon="-4.00161">
        <ele>3.2</ele>
        <time>2020-08-17T09:56:05Z</time>
      </trkpt>
      <trkpt lat="48.71067" lon="-4.00205">
        <ele>3.5</ele>
        <time>2020-08-17T09:56:14Z</time>
      </trkpt>
      <trkpt lat="48.7105" lon="-4.00236">
        <ele>3.7</ele>
        <time>2020-08-17T09:56:21Z</time>
      </trkpt>
      <trkpt lat="48.71032" lon="-4.00273">
        <ele>4</ele>
        <time>2020-08-17T09:56:29Z</time>
      </trkpt>
      <trkpt lat="48.71014" lon="-4.00322">
        <ele>4.3</ele>
        <time>2020-08-17T09:56:39Z</time>
      </trkpt>
      <trkpt lat="48.71001" lon="-4.00364">
        <ele>3.9</ele>
        <time>2020-08-17T09:56:47Z</time>
      </trkpt>
      <trkpt lat="48.7099" lon="-4.00404">
        <ele>4.7</ele>
        <time>2020-08-17T09:56:54Z</time>
      </trkpt>
      <trkpt lat="48.70982" lon="-4.00448">
        <ele>4.7</ele>
        <time>2020-08-17T09:57:01Z</time>
      </trkpt>
      <trkpt lat="48.70982" lon="-4.00481">
        <ele>4.6</ele>
        <time>2020-08-17T09:57:06Z</time>
      </trkpt>
      <trkpt lat="48.70982" lon="-4.00485">
        <ele>4.6</ele>
        <time>2020-08-17T09:57:07Z</time>
      </trkpt>
      <trkpt lat="48.71027" lon="-4.00514">
        <ele>3.4</ele>
        <time>2020-08-17T09:57:15Z</time>
      </trkpt>
      <trkpt lat="48.71071" lon="-4.00542">
        <ele>2.9</ele>
        <time>2020-08-17T09:57:24Z</time>
      </trkpt>
      <trkpt lat="48.71116" lon="-4.0057">
        <ele>2.4</ele>
        <time>2020-08-17T09:57:33Z</time>
      </trkpt>
      <trkpt lat="48.71132" lon="-4.0058">
        <ele>2.6</ele>
        <time>2020-08-17T09:57:37Z</time>
      </trkpt>
      <trkpt lat="48.71141" lon="-4.00586">
        <ele>2.5</ele>
        <time>2020-08-17T09:57:41Z</time>
      </trkpt>
      <trkpt lat="48.71143" lon="-4.00587">
        <ele>2.5</ele>
        <time>2020-08-17T09:57:43Z</time>
      </trkpt>
      <trkpt lat="48.71144" lon="-4.00587">
        <ele>2.5</ele>
        <time>2020-08-17T09:58:57Z</time>
      </trkpt>
      <trkpt lat="48.7115" lon="-4.00591">
        <ele>2.6</ele>
        <time>2020-08-17T09:59:02Z</time>
      </trkpt>
      <trkpt lat="48.71158" lon="-4.00596">
        <ele>2.6</ele>
        <time>2020-08-17T09:59:09Z</time>
      </trkpt>
      <trkpt lat="48.71158" lon="-4.00596">
        <ele>2.6</ele>
        <time>2020-08-17T09:59:10Z</time>
      </trkpt>
      <trkpt lat="48.71163" lon="-4.00599">
        <ele>2.6</ele>
        <time>2020-08-17T10:04:19Z</time>
      </trkpt>
      <trkpt lat="48.71179" lon="-4.00609">
        <ele>2.5</ele>
        <time>2020-08-17T10:04:25Z</time>
      </trkpt>
      <trkpt lat="48.71199" lon="-4.00621">
        <ele>2.3</ele>
        <time>2020-08-17T10:04:32Z</time>
      </trkpt>
      <trkpt lat="48.71225" lon="-4.00636">
        <ele>2.2</ele>
        <time>2020-08-17T10:04:41Z</time>
      </trkpt>
      <trkpt lat="48.71246" lon="-4.0065">
        <ele>2.1</ele>
        <time>2020-08-17T10:04:48Z</time>
      </trkpt>
      <trkpt lat="48.71274" lon="-4.00667">
        <ele>2</ele>
        <time>2020-08-17T10:04:56Z</time>
      </trkpt>
      <trkpt lat="48.71317" lon="-4.00693">
        <ele>1.9</ele>
        <time>2020-08-17T10:05:08Z</time>
      </trkpt>
      <trkpt lat="48.71356" lon="-4.00717">
        <ele>2.2</ele>
        <time>2020-08-17T10:05:19Z</time>
      </trkpt>
      <trkpt lat="48.71389" lon="-4.00737">
        <ele>2.6</ele>
        <time>2020-08-17T10:05:29Z</time>
      </trkpt>
      <trkpt lat="48.71411" lon="-4.0075">
        <ele>2.9</ele>
        <time>2020-08-17T10:05:36Z</time>
      </trkpt>
      <trkpt lat="48.71428" lon="-4.00753">
        <ele>3.7</ele>
        <time>2020-08-17T10:05:42Z</time>
      </trkpt>
      <trkpt lat="48.71431" lon="-4.00758">
        <ele>3.9</ele>
        <time>2020-08-17T10:05:46Z</time>
      </trkpt>
      <trkpt lat="48.71429" lon="-4.0077">
        <ele>4.1</ele>
        <time>2020-08-17T10:05:49Z</time>
      </trkpt>
      <trkpt lat="48.71425" lon="-4.00782">
        <ele>4.2</ele>
        <time>2020-08-17T10:05:56Z</time>
      </trkpt>
      <trkpt lat="48.71404" lon="-4.00825">
        <ele>3.5</ele>
        <time>2020-08-17T10:06:06Z</time>
      </trkpt>
      <trkpt lat="48.71392" lon="-4.00853">
        <ele>4</ele>
        <time>2020-08-17T10:06:13Z</time>
      </trkpt>
      <trkpt lat="48.71377" lon="-4.00889">
        <ele>4.1</ele>
        <time>2020-08-17T10:06:21Z</time>
      </trkpt>
      <trkpt lat="48.71357" lon="-4.00937">
        <ele>4.4</ele>
        <time>2020-08-17T10:06:31Z</time>
      </trkpt>
      <trkpt lat="48.71336" lon="-4.00985">
        <ele>4.2</ele>
        <time>2020-08-17T10:06:41Z</time>
      </trkpt>
      <trkpt lat="48.71319" lon="-4.01025">
        <ele>3.5</ele>
        <time>2020-08-17T10:06:49Z</time>
      </trkpt>
      <trkpt lat="48.713" lon="-4.01072">
        <ele>3.4</ele>
        <time>2020-08-17T10:06:57Z</time>
      </trkpt>
      <trkpt lat="48.71275" lon="-4.01134">
        <ele>3.6</ele>
        <time>2020-08-17T10:07:08Z</time>
      </trkpt>
      <trkpt lat="48.71253" lon="-4.01186">
        <ele>4</ele>
        <time>2020-08-17T10:07:18Z</time>
      </trkpt>
      <trkpt lat="48.71236" lon="-4.01226">
        <ele>3.3</ele>
        <time>2020-08-17T10:07:26Z</time>
      </trkpt>
      <trkpt lat="48.71223" lon="-4.01254">
        <ele>3.7</ele>
        <time>2020-08-17T10:07:32Z</time>
      </trkpt>
      <trkpt lat="48.71209" lon="-4.01287">
        <ele>3.7</ele>
        <time>2020-08-17T10:07:39Z</time>
      </trkpt>
      <trkpt lat="48.71198" lon="-4.01312">
        <ele>3.7</ele>
        <time>2020-08-17T10:07:45Z</time>
      </trkpt>
      <trkpt lat="48.71182" lon="-4.01349">
        <ele>3.9</ele>
        <time>2020-08-17T10:07:53Z</time>
      </trkpt>
      <trkpt lat="48.71163" lon="-4.01397">
        <ele>3.1</ele>
        <time>2020-08-17T10:08:03Z</time>
      </trkpt>
      <trkpt lat="48.71152" lon="-4.01435">
        <ele>3.5</ele>
        <time>2020-08-17T10:08:11Z</time>
      </trkpt>
      <trkpt lat="48.71145" lon="-4.01475">
        <ele>4</ele>
        <time>2020-08-17T10:08:19Z</time>
      </trkpt>
      <trkpt lat="48.71136" lon="-4.01523">
        <ele>4.4</ele>
        <time>2020-08-17T10:08:28Z</time>
      </trkpt>
      <trkpt lat="48.71129" lon="-4.01568">
        <ele>4.4</ele>
        <time>2020-08-17T10:08:36Z</time>
      </trkpt>
      <trkpt lat="48.71124" lon="-4.0161">
        <ele>4.3</ele>
        <time>2020-08-17T10:08:43Z</time>
      </trkpt>
      <trkpt lat="48.71118" lon="-4.01662">
        <ele>4.1</ele>
        <time>2020-08-17T10:08:52Z</time>
      </trkpt>
      <trkpt lat="48.71116" lon="-4.01714">
        <ele>3.9</ele>
        <time>2020-08-17T10:09:01Z</time>
      </trkpt>
      <trkpt lat="48.71113" lon="-4.01778">
        <ele>4.3</ele>
        <time>2020-08-17T10:09:12Z</time>
      </trkpt>
      <trkpt lat="48.71109" lon="-4.01824">
        <ele>4.4</ele>
        <time>2020-08-17T10:09:20Z</time>
      </trkpt>
      <trkpt lat="48.71105" lon="-4.01858">
        <ele>4.5</ele>
        <time>2020-08-17T10:09:28Z</time>
      </trkpt>
      <trkpt lat="48.711" lon="-4.01914">
        <ele>4.7</ele>
        <time>2020-08-17T10:09:35Z</time>
      </trkpt>
      <trkpt lat="48.71096" lon="-4.01971">
        <ele>4.6</ele>
        <time>2020-08-17T10:09:45Z</time>
      </trkpt>
      <trkpt lat="48.71092" lon="-4.02032">
        <ele>5.4</ele>
        <time>2020-08-17T10:09:56Z</time>
      </trkpt>
      <trkpt lat="48.71086" lon="-4.02063">
        <ele>5.8</ele>
        <time>2020-08-17T10:10:03Z</time>
      </trkpt>
      <trkpt lat="48.71084" lon="-4.02112">
        <ele>5.5</ele>
        <time>2020-08-17T10:10:13Z</time>
      </trkpt>
      <trkpt lat="48.71078" lon="-4.02138">
        <ele>7.1</ele>
        <time>2020-08-17T10:10:20Z</time>
      </trkpt>
      <trkpt lat="48.71061" lon="-4.02156">
        <ele>7.2</ele>
        <time>2020-08-17T10:10:26Z</time>
      </trkpt>
      <trkpt lat="48.71032" lon="-4.02172">
        <ele>8.3</ele>
        <time>2020-08-17T10:10:35Z</time>
      </trkpt>
      <trkpt lat="48.70996" lon="-4.02191">
        <ele>9.9</ele>
        <time>2020-08-17T10:10:46Z</time>
      </trkpt>
      <trkpt lat="48.70976" lon="-4.02198">
        <ele>10.2</ele>
        <time>2020-08-17T10:10:52Z</time>
      </trkpt>
      <trkpt lat="48.7095" lon="-4.02198">
        <ele>10.5</ele>
        <time>2020-08-17T10:11:00Z</time>
      </trkpt>
      <trkpt lat="48.70922" lon="-4.02198">
        <ele>10.8</ele>
        <time>2020-08-17T10:11:09Z</time>
      </trkpt>
      <trkpt lat="48.70897" lon="-4.022">
        <ele>12.9</ele>
        <time>2020-08-17T10:11:18Z</time>
      </trkpt>
      <trkpt lat="48.70872" lon="-4.02208">
        <ele>13.6</ele>
        <time>2020-08-17T10:11:27Z</time>
      </trkpt>
      <trkpt lat="48.70848" lon="-4.02214">
        <ele>14.1</ele>
        <time>2020-08-17T10:11:36Z</time>
      </trkpt>
      <trkpt lat="48.70828" lon="-4.02209">
        <ele>16.3</ele>
        <time>2020-08-17T10:11:44Z</time>
      </trkpt>
      <trkpt lat="48.70804" lon="-4.02201">
        <ele>16.6</ele>
        <time>2020-08-17T10:11:54Z</time>
      </trkpt>
      <trkpt lat="48.70782" lon="-4.02195">
        <ele>17</ele>
        <time>2020-08-17T10:12:03Z</time>
      </trkpt>
      <trkpt lat="48.7076" lon="-4.02197">
        <ele>17.4</ele>
        <time>2020-08-17T10:12:12Z</time>
      </trkpt>
      <trkpt lat="48.70734" lon="-4.02207">
        <ele>18</ele>
        <time>2020-08-17T10:12:22Z</time>
      </trkpt>
      <trkpt lat="48.70714" lon="-4.02215">
        <ele>17.9</ele>
        <time>2020-08-17T10:12:29Z</time>
      </trkpt>
      <trkpt lat="48.70689" lon="-4.02228">
        <ele>17.7</ele>
        <time>2020-08-17T10:12:37Z</time>
      </trkpt>
      <trkpt lat="48.70662" lon="-4.02242">
        <ele>17</ele>
        <time>2020-08-17T10:12:44Z</time>
      </trkpt>
      <trkpt lat="48.70627" lon="-4.02255">
        <ele>15.9</ele>
        <time>2020-08-17T10:12:51Z</time>
      </trkpt>
      <trkpt lat="48.70611" lon="-4.02261">
        <ele>15.8</ele>
        <time>2020-08-17T10:12:54Z</time>
      </trkpt>
      <trkpt lat="48.70598" lon="-4.02269">
        <ele>15.7</ele>
        <time>2020-08-17T10:12:59Z</time>
      </trkpt>
      <trkpt lat="48.70587" lon="-4.02291">
        <ele>15.5</ele>
        <time>2020-08-17T10:13:00Z</time>
      </trkpt>
      <trkpt lat="48.70588" lon="-4.02316">
        <ele>15.2</ele>
        <time>2020-08-17T10:13:03Z</time>
      </trkpt>
      <trkpt lat="48.70595" lon="-4.02375">
        <ele>13.5</ele>
        <time>2020-08-17T10:13:11Z</time>
      </trkpt>
      <trkpt lat="48.70593" lon="-4.02402">
        <ele>13.1</ele>
        <time>2020-08-17T10:13:15Z</time>
      </trkpt>
      <trkpt lat="48.70579" lon="-4.02457">
        <ele>12.5</ele>
        <time>2020-08-17T10:13:23Z</time>
      </trkpt>
      <trkpt lat="48.70564" lon="-4.02532">
        <ele>11.7</ele>
        <time>2020-08-17T10:13:33Z</time>
      </trkpt>
      <trkpt lat="48.70556" lon="-4.02572">
        <ele>11.6</ele>
        <time>2020-08-17T10:13:38Z</time>
      </trkpt>
      <trkpt lat="48.70537" lon="-4.02613">
        <ele>11.1</ele>
        <time>2020-08-17T10:13:45Z</time>
      </trkpt>
      <trkpt lat="48.70509" lon="-4.02635">
        <ele>11.3</ele>
        <time>2020-08-17T10:13:52Z</time>
      </trkpt>
      <trkpt lat="48.70485" lon="-4.02637">
        <ele>12.5</ele>
        <time>2020-08-17T10:13:58Z</time>
      </trkpt>
      <trkpt lat="48.70461" lon="-4.02629">
        <ele>12.7</ele>
        <time>2020-08-17T10:14:05Z</time>
      </trkpt>
      <trkpt lat="48.70434" lon="-4.02617">
        <ele>12.9</ele>
        <time>2020-08-17T10:14:13Z</time>
      </trkpt>
      <trkpt lat="48.70402" lon="-4.02609">
        <ele>14</ele>
        <time>2020-08-17T10:14:21Z</time>
      </trkpt>
      <trkpt lat="48.70363" lon="-4.02608">
        <ele>14.6</ele>
        <time>2020-08-17T10:14:31Z</time>
      </trkpt>
      <trkpt lat="48.70332" lon="-4.02607">
        <ele>15.3</ele>
        <time>2020-08-17T10:14:39Z</time>
      </trkpt>
      <trkpt lat="48.70329" lon="-4.02607">
        <ele>15.3</ele>
        <time>2020-08-17T10:14:40Z</time>
      </trkpt>
      <trkpt lat="48.70323" lon="-4.02626">
        <ele>15.5</ele>
        <time>2020-08-17T10:14:44Z</time>
      </trkpt>
      <trkpt lat="48.70335" lon="-4.02682">
        <ele>15.8</ele>
        <time>2020-08-17T10:14:54Z</time>
      </trkpt>
      <trkpt lat="48.70349" lon="-4.02725">
        <ele>16</ele>
        <time>2020-08-17T10:15:03Z</time>
      </trkpt>
      <trkpt lat="48.70361" lon="-4.02758">
        <ele>16.4</ele>
        <time>2020-08-17T10:15:11Z</time>
      </trkpt>
      <trkpt lat="48.7037" lon="-4.02792">
        <ele>16.3</ele>
        <time>2020-08-17T10:15:19Z</time>
      </trkpt>
      <trkpt lat="48.70372" lon="-4.02822">
        <ele>16.4</ele>
        <time>2020-08-17T10:15:25Z</time>
      </trkpt>
      <trkpt lat="48.70365" lon="-4.02857">
        <ele>16.9</ele>
        <time>2020-08-17T10:15:31Z</time>
      </trkpt>
      <trkpt lat="48.70362" lon="-4.02894">
        <ele>17</ele>
        <time>2020-08-17T10:15:38Z</time>
      </trkpt>
      <trkpt lat="48.70362" lon="-4.02904">
        <ele>17.1</ele>
        <time>2020-08-17T10:15:40Z</time>
      </trkpt>
      <trkpt lat="48.70359" lon="-4.02914">
        <ele>17.2</ele>
        <time>2020-08-17T10:15:44Z</time>
      </trkpt>
      <trkpt lat="48.70329" lon="-4.02909">
        <ele>18</ele>
        <time>2020-08-17T10:15:54Z</time>
      </trkpt>
      <trkpt lat="48.70306" lon="-4.02906">
        <ele>18.1</ele>
        <time>2020-08-17T10:16:01Z</time>
      </trkpt>
      <trkpt lat="48.70295" lon="-4.02911">
        <ele>18.2</ele>
        <time>2020-08-17T10:16:05Z</time>
      </trkpt>
      <trkpt lat="48.70282" lon="-4.02943">
        <ele>18</ele>
        <time>2020-08-17T10:16:12Z</time>
      </trkpt>
      <trkpt lat="48.7027" lon="-4.0298">
        <ele>17.8</ele>
        <time>2020-08-17T10:16:20Z</time>
      </trkpt>
      <trkpt lat="48.70247" lon="-4.03014">
        <ele>17.8</ele>
        <time>2020-08-17T10:16:28Z</time>
      </trkpt>
      <trkpt lat="48.70226" lon="-4.03041">
        <ele>17.5</ele>
        <time>2020-08-17T10:16:35Z</time>
      </trkpt>
      <trkpt lat="48.70198" lon="-4.03062">
        <ele>17.4</ele>
        <time>2020-08-17T10:16:42Z</time>
      </trkpt>
      <trkpt lat="48.70186" lon="-4.03077">
        <ele>17.3</ele>
        <time>2020-08-17T10:16:45Z</time>
      </trkpt>
      <trkpt lat="48.70175" lon="-4.03107">
        <ele>16.2</ele>
        <time>2020-08-17T10:16:50Z</time>
      </trkpt>
      <trkpt lat="48.70173" lon="-4.03182">
        <ele>14.5</ele>
        <time>2020-08-17T10:17:00Z</time>
      </trkpt>
      <trkpt lat="48.70173" lon="-4.03196">
        <ele>14.3</ele>
        <time>2020-08-17T10:17:02Z</time>
      </trkpt>
      <trkpt lat="48.70173" lon="-4.0321">
        <ele>14.2</ele>
        <time>2020-08-17T10:17:04Z</time>
      </trkpt>
      <trkpt lat="48.70179" lon="-4.03269">
        <ele>13.7</ele>
        <time>2020-08-17T10:17:13Z</time>
      </trkpt>
      <trkpt lat="48.70181" lon="-4.03325">
        <ele>13.8</ele>
        <time>2020-08-17T10:17:21Z</time>
      </trkpt>
      <trkpt lat="48.70182" lon="-4.03379">
        <ele>14</ele>
        <time>2020-08-17T10:17:29Z</time>
      </trkpt>
      <trkpt lat="48.70185" lon="-4.03427">
        <ele>14.3</ele>
        <time>2020-08-17T10:17:36Z</time>
      </trkpt>
      <trkpt lat="48.70189" lon="-4.03454">
        <ele>13.9</ele>
        <time>2020-08-17T10:17:40Z</time>
      </trkpt>
      <trkpt lat="48.7021" lon="-4.03519">
        <ele>13.3</ele>
        <time>2020-08-17T10:17:50Z</time>
      </trkpt>
      <trkpt lat="48.70213" lon="-4.03553">
        <ele>13.2</ele>
        <time>2020-08-17T10:17:55Z</time>
      </trkpt>
      <trkpt lat="48.70209" lon="-4.03584">
        <ele>12.8</ele>
        <time>2020-08-17T10:18:00Z</time>
      </trkpt>
      <trkpt lat="48.70181" lon="-4.03641">
        <ele>12.8</ele>
        <time>2020-08-17T10:18:10Z</time>
      </trkpt>
      <trkpt lat="48.7016" lon="-4.03681">
        <ele>12.9</ele>
        <time>2020-08-17T10:18:17Z</time>
      </trkpt>
      <trkpt lat="48.70133" lon="-4.03731">
        <ele>12.6</ele>
        <time>2020-08-17T10:18:26Z</time>
      </trkpt>
      <trkpt lat="48.70114" lon="-4.0379">
        <ele>12.6</ele>
        <time>2020-08-17T10:18:35Z</time>
      </trkpt>
      <trkpt lat="48.70102" lon="-4.03849">
        <ele>12.6</ele>
        <time>2020-08-17T10:18:44Z</time>
      </trkpt>
      <trkpt lat="48.70099" lon="-4.03862">
        <ele>12.5</ele>
        <time>2020-08-17T10:18:46Z</time>
      </trkpt>
      <trkpt lat="48.70084" lon="-4.03932">
        <ele>12.3</ele>
        <time>2020-08-17T10:18:57Z</time>
      </trkpt>
      <trkpt lat="48.7007" lon="-4.03972">
        <ele>12.1</ele>
        <time>2020-08-17T10:19:04Z</time>
      </trkpt>
      <trkpt lat="48.70056" lon="-4.03996">
        <ele>12.1</ele>
        <time>2020-08-17T10:19:09Z</time>
      </trkpt>
      <trkpt lat="48.70032" lon="-4.04041">
        <ele>11.6</ele>
        <time>2020-08-17T10:19:18Z</time>
      </trkpt>
      <trkpt lat="48.70015" lon="-4.04075">
        <ele>11.7</ele>
        <time>2020-08-17T10:19:25Z</time>
      </trkpt>
      <trkpt lat="48.70005" lon="-4.041">
        <ele>11.3</ele>
        <time>2020-08-17T10:19:31Z</time>
      </trkpt>
      <trkpt lat="48.69997" lon="-4.04124">
        <ele>11.7</ele>
        <time>2020-08-17T10:19:37Z</time>
      </trkpt>
      <trkpt lat="48.69988" lon="-4.04155">
        <ele>11.4</ele>
        <time>2020-08-17T10:19:44Z</time>
      </trkpt>
      <trkpt lat="48.69979" lon="-4.04195">
        <ele>11.8</ele>
        <time>2020-08-17T10:19:53Z</time>
      </trkpt>
      <trkpt lat="48.69971" lon="-4.04229">
        <ele>12</ele>
        <time>2020-08-17T10:20:00Z</time>
      </trkpt>
      <trkpt lat="48.6996" lon="-4.04277">
        <ele>12.5</ele>
        <time>2020-08-17T10:20:10Z</time>
      </trkpt>
      <trkpt lat="48.69945" lon="-4.04328">
        <ele>12.4</ele>
        <time>2020-08-17T10:20:20Z</time>
      </trkpt>
      <trkpt lat="48.69939" lon="-4.04347">
        <ele>11.9</ele>
        <time>2020-08-17T10:20:29Z</time>
      </trkpt>
      <trkpt lat="48.69911" lon="-4.04418">
        <ele>11.1</ele>
        <time>2020-08-17T10:20:38Z</time>
      </trkpt>
      <trkpt lat="48.69886" lon="-4.04476">
        <ele>11.2</ele>
        <time>2020-08-17T10:20:49Z</time>
      </trkpt>
      <trkpt lat="48.6987" lon="-4.04512">
        <ele>10.8</ele>
        <time>2020-08-17T10:20:56Z</time>
      </trkpt>
      <trkpt lat="48.69863" lon="-4.04527">
        <ele>10.8</ele>
        <time>2020-08-17T10:20:59Z</time>
      </trkpt>
      <trkpt lat="48.6985" lon="-4.04558">
        <ele>10.6</ele>
        <time>2020-08-17T10:21:05Z</time>
      </trkpt>
      <trkpt lat="48.69824" lon="-4.04615">
        <ele>9.6</ele>
        <time>2020-08-17T10:21:16Z</time>
      </trkpt>
      <trkpt lat="48.69806" lon="-4.04655">
        <ele>9.3</ele>
        <time>2020-08-17T10:21:25Z</time>
      </trkpt>
      <trkpt lat="48.69787" lon="-4.04698">
        <ele>9.2</ele>
        <time>2020-08-17T10:21:35Z</time>
      </trkpt>
      <trkpt lat="48.69767" lon="-4.04743">
        <ele>9.6</ele>
        <time>2020-08-17T10:21:45Z</time>
      </trkpt>
      <trkpt lat="48.69753" lon="-4.04776">
        <ele>9.7</ele>
        <time>2020-08-17T10:21:53Z</time>
      </trkpt>
      <trkpt lat="48.69735" lon="-4.04817">
        <ele>10.3</ele>
        <time>2020-08-17T10:22:03Z</time>
      </trkpt>
      <trkpt lat="48.69719" lon="-4.04854">
        <ele>10.6</ele>
        <time>2020-08-17T10:22:12Z</time>
      </trkpt>
      <trkpt lat="48.69708" lon="-4.04878">
        <ele>10.7</ele>
        <time>2020-08-17T10:22:19Z</time>
      </trkpt>
      <trkpt lat="48.69706" lon="-4.04883">
        <ele>10.8</ele>
        <time>2020-08-17T10:22:23Z</time>
      </trkpt>
      <trkpt lat="48.69706" lon="-4.04898">
        <ele>10.7</ele>
        <time>2020-08-17T10:22:25Z</time>
      </trkpt>
      <trkpt lat="48.6968" lon="-4.04855">
        <ele>11.3</ele>
        <time>2020-08-17T10:22:35Z</time>
      </trkpt>
      <trkpt lat="48.69664" lon="-4.04824">
        <ele>11.4</ele>
        <time>2020-08-17T10:22:42Z</time>
      </trkpt>
      <trkpt lat="48.69645" lon="-4.04778">
        <ele>10.3</ele>
        <time>2020-08-17T10:22:51Z</time>
      </trkpt>
      <trkpt lat="48.69619" lon="-4.04715">
        <ele>9.5</ele>
        <time>2020-08-17T10:23:02Z</time>
      </trkpt>
      <trkpt lat="48.69595" lon="-4.04658">
        <ele>9.9</ele>
        <time>2020-08-17T10:23:12Z</time>
      </trkpt>
      <trkpt lat="48.69576" lon="-4.0461">
        <ele>9.9</ele>
        <time>2020-08-17T10:23:20Z</time>
      </trkpt>
      <trkpt lat="48.69568" lon="-4.04592">
        <ele>9.9</ele>
        <time>2020-08-17T10:23:23Z</time>
      </trkpt>
      <trkpt lat="48.69547" lon="-4.04542">
        <ele>11</ele>
        <time>2020-08-17T10:23:32Z</time>
      </trkpt>
      <trkpt lat="48.69522" lon="-4.04497">
        <ele>13.4</ele>
        <time>2020-08-17T10:23:42Z</time>
      </trkpt>
      <trkpt lat="48.69503" lon="-4.04471">
        <ele>14.1</ele>
        <time>2020-08-17T10:23:48Z</time>
      </trkpt>
      <trkpt lat="48.69472" lon="-4.04431">
        <ele>14.2</ele>
        <time>2020-08-17T10:23:56Z</time>
      </trkpt>
      <trkpt lat="48.69455" lon="-4.04409">
        <ele>15.7</ele>
        <time>2020-08-17T10:24:00Z</time>
      </trkpt>
      <trkpt lat="48.69421" lon="-4.04357">
        <ele>14.9</ele>
        <time>2020-08-17T10:24:09Z</time>
      </trkpt>
      <trkpt lat="48.69403" lon="-4.04317">
        <ele>13.2</ele>
        <time>2020-08-17T10:24:15Z</time>
      </trkpt>
      <trkpt lat="48.69387" lon="-4.04265">
        <ele>13.8</ele>
        <time>2020-08-17T10:24:22Z</time>
      </trkpt>
      <trkpt lat="48.69369" lon="-4.04203">
        <ele>14.5</ele>
        <time>2020-08-17T10:24:31Z</time>
      </trkpt>
      <trkpt lat="48.69355" lon="-4.04155">
        <ele>14</ele>
        <time>2020-08-17T10:24:38Z</time>
      </trkpt>
      <trkpt lat="48.69334" lon="-4.04081">
        <ele>11.5</ele>
        <time>2020-08-17T10:24:49Z</time>
      </trkpt>
      <trkpt lat="48.69316" lon="-4.04026">
        <ele>11.2</ele>
        <time>2020-08-17T10:24:58Z</time>
      </trkpt>
      <trkpt lat="48.69298" lon="-4.0397">
        <ele>11.6</ele>
        <time>2020-08-17T10:25:07Z</time>
      </trkpt>
      <trkpt lat="48.69282" lon="-4.03919">
        <ele>11.4</ele>
        <time>2020-08-17T10:25:15Z</time>
      </trkpt>
      <trkpt lat="48.69262" lon="-4.0387">
        <ele>11.2</ele>
        <time>2020-08-17T10:25:23Z</time>
      </trkpt>
      <trkpt lat="48.69247" lon="-4.03833">
        <ele>9.9</ele>
        <time>2020-08-17T10:25:31Z</time>
      </trkpt>
      <trkpt lat="48.69247" lon="-4.03833">
        <ele>9.9</ele>
        <time>2020-08-17T10:25:34Z</time>
      </trkpt>
      <trkpt lat="48.69223" lon="-4.03798">
        <ele>9.2</ele>
        <time>2020-08-17T10:25:36Z</time>
      </trkpt>
      <trkpt lat="48.6922" lon="-4.03795">
        <ele>9.2</ele>
        <time>2020-08-17T10:25:40Z</time>
      </trkpt>
      <trkpt lat="48.692" lon="-4.03746">
        <ele>9.6</ele>
        <time>2020-08-17T10:25:44Z</time>
      </trkpt>
      <trkpt lat="48.6919" lon="-4.03708">
        <ele>9.8</ele>
        <time>2020-08-17T10:25:51Z</time>
      </trkpt>
      <trkpt lat="48.69174" lon="-4.03665">
        <ele>10.3</ele>
        <time>2020-08-17T10:25:59Z</time>
      </trkpt>
      <trkpt lat="48.69153" lon="-4.03608">
        <ele>10.5</ele>
        <time>2020-08-17T10:26:09Z</time>
      </trkpt>
      <trkpt lat="48.6914" lon="-4.03572">
        <ele>10.7</ele>
        <time>2020-08-17T10:26:15Z</time>
      </trkpt>
      <trkpt lat="48.69118" lon="-4.03515">
        <ele>10.1</ele>
        <time>2020-08-17T10:26:25Z</time>
      </trkpt>
      <trkpt lat="48.6911" lon="-4.03497">
        <ele>10</ele>
        <time>2020-08-17T10:26:28Z</time>
      </trkpt>
      <trkpt lat="48.69099" lon="-4.03475">
        <ele>10</ele>
        <time>2020-08-17T10:26:32Z</time>
      </trkpt>
      <trkpt lat="48.69089" lon="-4.03473">
        <ele>10</ele>
        <time>2020-08-17T10:26:34Z</time>
      </trkpt>
      <trkpt lat="48.69032" lon="-4.03478">
        <ele>7.7</ele>
        <time>2020-08-17T10:26:43Z</time>
      </trkpt>
      <trkpt lat="48.68984" lon="-4.03486">
        <ele>5.5</ele>
        <time>2020-08-17T10:26:51Z</time>
      </trkpt>
      <trkpt lat="48.68931" lon="-4.03499">
        <ele>4.4</ele>
        <time>2020-08-17T10:27:00Z</time>
      </trkpt>
      <trkpt lat="48.68887" lon="-4.03518">
        <ele>4</ele>
        <time>2020-08-17T10:27:08Z</time>
      </trkpt>
      <trkpt lat="48.68847" lon="-4.03541">
        <ele>4</ele>
        <time>2020-08-17T10:27:16Z</time>
      </trkpt>
      <trkpt lat="48.68818" lon="-4.03556">
        <ele>5</ele>
        <time>2020-08-17T10:27:22Z</time>
      </trkpt>
      <trkpt lat="48.68799" lon="-4.0356">
        <ele>5.3</ele>
        <time>2020-08-17T10:27:26Z</time>
      </trkpt>
      <trkpt lat="48.6878" lon="-4.03557">
        <ele>5.6</ele>
        <time>2020-08-17T10:27:30Z</time>
      </trkpt>
      <trkpt lat="48.68755" lon="-4.03551">
        <ele>5.9</ele>
        <time>2020-08-17T10:27:35Z</time>
      </trkpt>
      <trkpt lat="48.68724" lon="-4.03539">
        <ele>8.3</ele>
        <time>2020-08-17T10:27:42Z</time>
      </trkpt>
      <trkpt lat="48.68707" lon="-4.03528">
        <ele>8.7</ele>
        <time>2020-08-17T10:27:48Z</time>
      </trkpt>
      <trkpt lat="48.68688" lon="-4.03514">
        <ele>9.4</ele>
        <time>2020-08-17T10:27:56Z</time>
      </trkpt>
      <trkpt lat="48.68672" lon="-4.035">
        <ele>10.5</ele>
        <time>2020-08-17T10:28:04Z</time>
      </trkpt>
      <trkpt lat="48.68648" lon="-4.03486">
        <ele>11.2</ele>
        <time>2020-08-17T10:28:15Z</time>
      </trkpt>
      <trkpt lat="48.68626" lon="-4.03472">
        <ele>11.3</ele>
        <time>2020-08-17T10:28:23Z</time>
      </trkpt>
      <trkpt lat="48.68599" lon="-4.03457">
        <ele>11.5</ele>
        <time>2020-08-17T10:28:32Z</time>
      </trkpt>
      <trkpt lat="48.68573" lon="-4.03443">
        <ele>12.2</ele>
        <time>2020-08-17T10:28:40Z</time>
      </trkpt>
      <trkpt lat="48.68539" lon="-4.03424">
        <ele>12.4</ele>
        <time>2020-08-17T10:28:49Z</time>
      </trkpt>
      <trkpt lat="48.68519" lon="-4.0342">
        <ele>12.5</ele>
        <time>2020-08-17T10:28:54Z</time>
      </trkpt>
      <trkpt lat="48.68507" lon="-4.0343">
        <ele>12.6</ele>
        <time>2020-08-17T10:28:57Z</time>
      </trkpt>
      <trkpt lat="48.68485" lon="-4.03485">
        <ele>12.5</ele>
        <time>2020-08-17T10:29:07Z</time>
      </trkpt>
      <trkpt lat="48.68465" lon="-4.03525">
        <ele>11.6</ele>
        <time>2020-08-17T10:29:15Z</time>
      </trkpt>
      <trkpt lat="48.68449" lon="-4.03561">
        <ele>11.4</ele>
        <time>2020-08-17T10:29:22Z</time>
      </trkpt>
      <trkpt lat="48.6844" lon="-4.03593">
        <ele>11</ele>
        <time>2020-08-17T10:29:28Z</time>
      </trkpt>
      <trkpt lat="48.68436" lon="-4.03612">
        <ele>10.9</ele>
        <time>2020-08-17T10:29:32Z</time>
      </trkpt>
      <trkpt lat="48.68457" lon="-4.03652">
        <ele>10.5</ele>
        <time>2020-08-17T10:29:39Z</time>
      </trkpt>
      <trkpt lat="48.68473" lon="-4.03683">
        <ele>10.3</ele>
        <time>2020-08-17T10:29:47Z</time>
      </trkpt>
      <trkpt lat="48.68472" lon="-4.03705">
        <ele>10.5</ele>
        <time>2020-08-17T10:29:52Z</time>
      </trkpt>
      <trkpt lat="48.68464" lon="-4.03736">
        <ele>10.7</ele>
        <time>2020-08-17T10:30:00Z</time>
      </trkpt>
      <trkpt lat="48.68452" lon="-4.03773">
        <ele>10.9</ele>
        <time>2020-08-17T10:30:09Z</time>
      </trkpt>
      <trkpt lat="48.6844" lon="-4.0381">
        <ele>10.8</ele>
        <time>2020-08-17T10:30:17Z</time>
      </trkpt>
      <trkpt lat="48.68432" lon="-4.03873">
        <ele>10.6</ele>
        <time>2020-08-17T10:30:27Z</time>
      </trkpt>
      <trkpt lat="48.68428" lon="-4.03898">
        <ele>10.7</ele>
        <time>2020-08-17T10:30:34Z</time>
      </trkpt>
      <trkpt lat="48.68429" lon="-4.03933">
        <ele>11.2</ele>
        <time>2020-08-17T10:30:41Z</time>
      </trkpt>
      <trkpt lat="48.6843" lon="-4.03969">
        <ele>11.7</ele>
        <time>2020-08-17T10:30:49Z</time>
      </trkpt>
      <trkpt lat="48.68426" lon="-4.04009">
        <ele>12.5</ele>
        <time>2020-08-17T10:30:57Z</time>
      </trkpt>
      <trkpt lat="48.68418" lon="-4.04047">
        <ele>12</ele>
        <time>2020-08-17T10:31:05Z</time>
      </trkpt>
      <trkpt lat="48.68415" lon="-4.04093">
        <ele>12.1</ele>
        <time>2020-08-17T10:31:14Z</time>
      </trkpt>
      <trkpt lat="48.68419" lon="-4.04137">
        <ele>11.7</ele>
        <time>2020-08-17T10:31:23Z</time>
      </trkpt>
      <trkpt lat="48.6843" lon="-4.04173">
        <ele>11.6</ele>
        <time>2020-08-17T10:31:31Z</time>
      </trkpt>
      <trkpt lat="48.68447" lon="-4.04223">
        <ele>11.2</ele>
        <time>2020-08-17T10:31:41Z</time>
      </trkpt>
      <trkpt lat="48.68457" lon="-4.04263">
        <ele>11</ele>
        <time>2020-08-17T10:31:49Z</time>
      </trkpt>
      <trkpt lat="48.68461" lon="-4.04306">
        <ele>11</ele>
        <time>2020-08-17T10:31:57Z</time>
      </trkpt>
      <trkpt lat="48.68471" lon="-4.04351">
        <ele>11</ele>
        <time>2020-08-17T10:32:05Z</time>
      </trkpt>
      <trkpt lat="48.68489" lon="-4.04395">
        <ele>11</ele>
        <time>2020-08-17T10:32:14Z</time>
      </trkpt>
      <trkpt lat="48.68501" lon="-4.04432">
        <ele>10.5</ele>
        <time>2020-08-17T10:32:21Z</time>
      </trkpt>
      <trkpt lat="48.68507" lon="-4.04464">
        <ele>10.1</ele>
        <time>2020-08-17T10:32:28Z</time>
      </trkpt>
      <trkpt lat="48.68511" lon="-4.04495">
        <ele>10</ele>
        <time>2020-08-17T10:32:35Z</time>
      </trkpt>
      <trkpt lat="48.68515" lon="-4.04528">
        <ele>10.1</ele>
        <time>2020-08-17T10:32:41Z</time>
      </trkpt>
      <trkpt lat="48.68522" lon="-4.04588">
        <ele>10.5</ele>
        <time>2020-08-17T10:32:52Z</time>
      </trkpt>
      <trkpt lat="48.68528" lon="-4.04652">
        <ele>10.5</ele>
        <time>2020-08-17T10:33:03Z</time>
      </trkpt>
      <trkpt lat="48.68533" lon="-4.04715">
        <ele>10.6</ele>
        <time>2020-08-17T10:33:13Z</time>
      </trkpt>
      <trkpt lat="48.68538" lon="-4.0477">
        <ele>10.2</ele>
        <time>2020-08-17T10:33:21Z</time>
      </trkpt>
      <trkpt lat="48.68538" lon="-4.04777">
        <ele>10.2</ele>
        <time>2020-08-17T10:33:22Z</time>
      </trkpt>
      <trkpt lat="48.68528" lon="-4.04836">
        <ele>9.7</ele>
        <time>2020-08-17T10:33:31Z</time>
      </trkpt>
      <trkpt lat="48.68518" lon="-4.04863">
        <ele>9.8</ele>
        <time>2020-08-17T10:33:37Z</time>
      </trkpt>
      <trkpt lat="48.68506" lon="-4.04903">
        <ele>10.2</ele>
        <time>2020-08-17T10:33:46Z</time>
      </trkpt>
      <trkpt lat="48.68497" lon="-4.04935">
        <ele>11.1</ele>
        <time>2020-08-17T10:33:53Z</time>
      </trkpt>
      <trkpt lat="48.6849" lon="-4.04979">
        <ele>10.8</ele>
        <time>2020-08-17T10:34:02Z</time>
      </trkpt>
      <trkpt lat="48.68486" lon="-4.05017">
        <ele>10.6</ele>
        <time>2020-08-17T10:34:10Z</time>
      </trkpt>
      <trkpt lat="48.68471" lon="-4.05053">
        <ele>10.8</ele>
        <time>2020-08-17T10:34:19Z</time>
      </trkpt>
      <trkpt lat="48.68461" lon="-4.05078">
        <ele>11</ele>
        <time>2020-08-17T10:34:27Z</time>
      </trkpt>
      <trkpt lat="48.68454" lon="-4.05101">
        <ele>11.1</ele>
        <time>2020-08-17T10:34:34Z</time>
      </trkpt>
      <trkpt lat="48.68448" lon="-4.05117">
        <ele>11.1</ele>
        <time>2020-08-17T10:34:39Z</time>
      </trkpt>
      <trkpt lat="48.68434" lon="-4.05156">
        <ele>11.4</ele>
        <time>2020-08-17T10:34:50Z</time>
      </trkpt>
      <trkpt lat="48.68421" lon="-4.05182">
        <ele>11.2</ele>
        <time>2020-08-17T10:34:56Z</time>
      </trkpt>
      <trkpt lat="48.68418" lon="-4.05187">
        <ele>11</ele>
        <time>2020-08-17T10:34:57Z</time>
      </trkpt>
      <trkpt lat="48.68409" lon="-4.05212">
        <ele>10.9</ele>
        <time>2020-08-17T10:35:01Z</time>
      </trkpt>
      <trkpt lat="48.68411" lon="-4.05235">
        <ele>10.5</ele>
        <time>2020-08-17T10:35:04Z</time>
      </trkpt>
      <trkpt lat="48.6843" lon="-4.05314">
        <ele>8.7</ele>
        <time>2020-08-17T10:35:15Z</time>
      </trkpt>
      <trkpt lat="48.68443" lon="-4.05372">
        <ele>7.5</ele>
        <time>2020-08-17T10:35:23Z</time>
      </trkpt>
      <trkpt lat="48.68444" lon="-4.05379">
        <ele>7.4</ele>
        <time>2020-08-17T10:35:24Z</time>
      </trkpt>
      <trkpt lat="48.68446" lon="-4.05392">
        <ele>7.4</ele>
        <time>2020-08-17T10:35:26Z</time>
      </trkpt>
      <trkpt lat="48.68454" lon="-4.05449">
        <ele>6.4</ele>
        <time>2020-08-17T10:35:35Z</time>
      </trkpt>
      <trkpt lat="48.68454" lon="-4.05465">
        <ele>6.2</ele>
        <time>2020-08-17T10:35:39Z</time>
      </trkpt>
      <trkpt lat="48.68454" lon="-4.05467">
        <ele>6.2</ele>
        <time>2020-08-17T10:35:41Z</time>
      </trkpt>
      <trkpt lat="48.68454" lon="-4.0547">
        <ele>6.2</ele>
        <time>2020-08-17T10:36:04Z</time>
      </trkpt>
      <trkpt lat="48.68454" lon="-4.05471">
        <ele>6.2</ele>
        <time>2020-08-17T10:36:09Z</time>
      </trkpt>
      <trkpt lat="48.68487" lon="-4.0551">
        <ele>5.5</ele>
        <time>2020-08-17T10:36:17Z</time>
      </trkpt>
      <trkpt lat="48.68495" lon="-4.05527">
        <ele>5.7</ele>
        <time>2020-08-17T10:36:23Z</time>
      </trkpt>
      <trkpt lat="48.68495" lon="-4.05527">
        <ele>5.7</ele>
        <time>2020-08-17T10:36:28Z</time>
      </trkpt>
      <trkpt lat="48.68494" lon="-4.0556">
        <ele>5.9</ele>
        <time>2020-08-17T10:36:33Z</time>
      </trkpt>
      <trkpt lat="48.68494" lon="-4.0556">
        <ele>5.9</ele>
        <time>2020-08-17T10:36:36Z</time>
      </trkpt>
      <trkpt lat="48.685" lon="-4.05566">
        <ele>4.7</ele>
        <time>2020-08-17T10:37:15Z</time>
      </trkpt>
      <trkpt lat="48.68487" lon="-4.05575">
        <ele>6</ele>
        <time>2020-08-17T10:37:19Z</time>
      </trkpt>
      <trkpt lat="48.68478" lon="-4.05595">
        <ele>7.5</ele>
        <time>2020-08-17T10:37:26Z</time>
      </trkpt>
      <trkpt lat="48.68467" lon="-4.05619">
        <ele>8.3</ele>
        <time>2020-08-17T10:37:34Z</time>
      </trkpt>
      <trkpt lat="48.68458" lon="-4.05641">
        <ele>8.9</ele>
        <time>2020-08-17T10:37:41Z</time>
      </trkpt>
      <trkpt lat="48.68448" lon="-4.05666">
        <ele>9.4</ele>
        <time>2020-08-17T10:37:48Z</time>
      </trkpt>
      <trkpt lat="48.6844" lon="-4.05688">
        <ele>10.7</ele>
        <time>2020-08-17T10:37:55Z</time>
      </trkpt>
      <trkpt lat="48.68431" lon="-4.05719">
        <ele>10.9</ele>
        <time>2020-08-17T10:38:04Z</time>
      </trkpt>
      <trkpt lat="48.68422" lon="-4.05752">
        <ele>11.6</ele>
        <time>2020-08-17T10:38:13Z</time>
      </trkpt>
      <trkpt lat="48.68413" lon="-4.05778">
        <ele>11.8</ele>
        <time>2020-08-17T10:38:20Z</time>
      </trkpt>
      <trkpt lat="48.68399" lon="-4.05809">
        <ele>11.6</ele>
        <time>2020-08-17T10:38:28Z</time>
      </trkpt>
      <trkpt lat="48.68375" lon="-4.05859">
        <ele>11.5</ele>
        <time>2020-08-17T10:38:40Z</time>
      </trkpt>
      <trkpt lat="48.68359" lon="-4.0589">
        <ele>11.6</ele>
        <time>2020-08-17T10:38:48Z</time>
      </trkpt>
      <trkpt lat="48.6834" lon="-4.05915">
        <ele>11.9</ele>
        <time>2020-08-17T10:38:56Z</time>
      </trkpt>
      <trkpt lat="48.68322" lon="-4.05935">
        <ele>12</ele>
        <time>2020-08-17T10:39:04Z</time>
      </trkpt>
      <trkpt lat="48.68319" lon="-4.05939">
        <ele>12</ele>
        <time>2020-08-17T10:39:08Z</time>
      </trkpt>
      <trkpt lat="48.6831" lon="-4.05925">
        <ele>12</ele>
        <time>2020-08-17T10:41:12Z</time>
      </trkpt>
      <trkpt lat="48.68304" lon="-4.05918">
        <ele>12</ele>
        <time>2020-08-17T10:41:18Z</time>
      </trkpt>
      <trkpt lat="48.68299" lon="-4.05912">
        <ele>12</ele>
        <time>2020-08-17T10:41:24Z</time>
      </trkpt>
      <trkpt lat="48.68284" lon="-4.05896">
        <ele>12</ele>
        <time>2020-08-17T10:41:30Z</time>
      </trkpt>
      <trkpt lat="48.68259" lon="-4.0587">
        <ele>12</ele>
        <time>2020-08-17T10:41:38Z</time>
      </trkpt>
      <trkpt lat="48.6823" lon="-4.05841">
        <ele>11.9</ele>
        <time>2020-08-17T10:41:46Z</time>
      </trkpt>
      <trkpt lat="48.6823" lon="-4.05841">
        <ele>11.9</ele>
        <time>2020-08-17T10:41:48Z</time>
      </trkpt>
      <trkpt lat="48.68186" lon="-4.058">
        <ele>11.6</ele>
        <time>2020-08-17T10:41:57Z</time>
      </trkpt>
      <trkpt lat="48.68149" lon="-4.05765">
        <ele>11.5</ele>
        <time>2020-08-17T10:42:06Z</time>
      </trkpt>
      <trkpt lat="48.68107" lon="-4.05732">
        <ele>11.3</ele>
        <time>2020-08-17T10:42:15Z</time>
      </trkpt>
      <trkpt lat="48.68054" lon="-4.05704">
        <ele>11</ele>
        <time>2020-08-17T10:42:25Z</time>
      </trkpt>
      <trkpt lat="48.68007" lon="-4.05684">
        <ele>11</ele>
        <time>2020-08-17T10:42:34Z</time>
      </trkpt>
      <trkpt lat="48.6796" lon="-4.05662">
        <ele>10.8</ele>
        <time>2020-08-17T10:42:44Z</time>
      </trkpt>
      <trkpt lat="48.67923" lon="-4.05633">
        <ele>10.8</ele>
        <time>2020-08-17T10:42:53Z</time>
      </trkpt>
      <trkpt lat="48.67877" lon="-4.05595">
        <ele>11.8</ele>
        <time>2020-08-17T10:43:04Z</time>
      </trkpt>
      <trkpt lat="48.67849" lon="-4.05572">
        <ele>11.7</ele>
        <time>2020-08-17T10:43:11Z</time>
      </trkpt>
      <trkpt lat="48.67817" lon="-4.05546">
        <ele>12.4</ele>
        <time>2020-08-17T10:43:19Z</time>
      </trkpt>
      <trkpt lat="48.67788" lon="-4.05523">
        <ele>12.5</ele>
        <time>2020-08-17T10:43:26Z</time>
      </trkpt>
      <trkpt lat="48.67769" lon="-4.05509">
        <ele>12.7</ele>
        <time>2020-08-17T10:43:32Z</time>
      </trkpt>
      <trkpt lat="48.67759" lon="-4.05511">
        <ele>12.8</ele>
        <time>2020-08-17T10:43:37Z</time>
      </trkpt>
      <trkpt lat="48.67757" lon="-4.05541">
        <ele>12.7</ele>
        <time>2020-08-17T10:43:44Z</time>
      </trkpt>
      <trkpt lat="48.67756" lon="-4.05552">
        <ele>12.7</ele>
        <time>2020-08-17T10:43:50Z</time>
      </trkpt>
      <trkpt lat="48.67756" lon="-4.05552">
        <ele>12.7</ele>
        <time>2020-08-17T10:43:57Z</time>
      </trkpt>
      <trkpt lat="48.67756" lon="-4.05552">
        <ele>12.7</ele>
        <time>2020-08-17T10:44:06Z</time>
      </trkpt>
      <trkpt lat="48.67757" lon="-4.05541">
        <ele>12.7</ele>
        <time>2020-08-17T10:44:11Z</time>
      </trkpt>
      <trkpt lat="48.67758" lon="-4.05524">
        <ele>12.7</ele>
        <time>2020-08-17T10:44:15Z</time>
      </trkpt>
      <trkpt lat="48.6775" lon="-4.05509">
        <ele>12.9</ele>
        <time>2020-08-17T10:44:20Z</time>
      </trkpt>
      <trkpt lat="48.67723" lon="-4.05486">
        <ele>13.5</ele>
        <time>2020-08-17T10:44:29Z</time>
      </trkpt>
      <trkpt lat="48.677" lon="-4.05468">
        <ele>13.8</ele>
        <time>2020-08-17T10:44:36Z</time>
      </trkpt>
      <trkpt lat="48.67669" lon="-4.05443">
        <ele>14.2</ele>
        <time>2020-08-17T10:44:45Z</time>
      </trkpt>
      <trkpt lat="48.6764" lon="-4.05424">
        <ele>15.3</ele>
        <time>2020-08-17T10:44:53Z</time>
      </trkpt>
      <trkpt lat="48.67611" lon="-4.05418">
        <ele>15.8</ele>
        <time>2020-08-17T10:45:01Z</time>
      </trkpt>
      <trkpt lat="48.67586" lon="-4.05412">
        <ele>16.9</ele>
        <time>2020-08-17T10:45:08Z</time>
      </trkpt>
      <trkpt lat="48.67558" lon="-4.05394">
        <ele>19.5</ele>
        <time>2020-08-17T10:45:17Z</time>
      </trkpt>
      <trkpt lat="48.67537" lon="-4.05385">
        <ele>20.4</ele>
        <time>2020-08-17T10:45:25Z</time>
      </trkpt>
      <trkpt lat="48.67511" lon="-4.05377">
        <ele>21.1</ele>
        <time>2020-08-17T10:45:36Z</time>
      </trkpt>
      <trkpt lat="48.67493" lon="-4.05371">
        <ele>25.1</ele>
        <time>2020-08-17T10:45:44Z</time>
      </trkpt>
      <trkpt lat="48.67487" lon="-4.05369">
        <ele>25.2</ele>
        <time>2020-08-17T10:45:47Z</time>
      </trkpt>
      <trkpt lat="48.67479" lon="-4.05372">
        <ele>25.5</ele>
        <time>2020-08-17T10:45:51Z</time>
      </trkpt>
      <trkpt lat="48.6747" lon="-4.05407">
        <ele>25.5</ele>
        <time>2020-08-17T10:46:03Z</time>
      </trkpt>
      <trkpt lat="48.67463" lon="-4.05428">
        <ele>24.1</ele>
        <time>2020-08-17T10:46:10Z</time>
      </trkpt>
      <trkpt lat="48.6745" lon="-4.05451">
        <ele>24</ele>
        <time>2020-08-17T10:46:18Z</time>
      </trkpt>
      <trkpt lat="48.67432" lon="-4.05463">
        <ele>23.8</ele>
        <time>2020-08-17T10:46:24Z</time>
      </trkpt>
      <trkpt lat="48.67406" lon="-4.05473">
        <ele>24.4</ele>
        <time>2020-08-17T10:46:31Z</time>
      </trkpt>
      <trkpt lat="48.6737" lon="-4.05496">
        <ele>23.8</ele>
        <time>2020-08-17T10:46:39Z</time>
      </trkpt>
      <trkpt lat="48.67358" lon="-4.05503">
        <ele>19.3</ele>
        <time>2020-08-17T10:46:41Z</time>
      </trkpt>
      <trkpt lat="48.67345" lon="-4.0551">
        <ele>19.5</ele>
        <time>2020-08-17T10:46:43Z</time>
      </trkpt>
      <trkpt lat="48.67319" lon="-4.0551">
        <ele>18</ele>
        <time>2020-08-17T10:46:47Z</time>
      </trkpt>
      <trkpt lat="48.67288" lon="-4.05535">
        <ele>15.2</ele>
        <time>2020-08-17T10:46:52Z</time>
      </trkpt>
      <trkpt lat="48.67263" lon="-4.05546">
        <ele>13.9</ele>
        <time>2020-08-17T10:46:57Z</time>
      </trkpt>
      <trkpt lat="48.67263" lon="-4.05546">
        <ele>13.9</ele>
        <time>2020-08-17T10:46:58Z</time>
      </trkpt>
      <trkpt lat="48.67215" lon="-4.05534">
        <ele>11.8</ele>
        <time>2020-08-17T10:47:05Z</time>
      </trkpt>
      <trkpt lat="48.67208" lon="-4.05532">
        <ele>11.7</ele>
        <time>2020-08-17T10:47:06Z</time>
      </trkpt>
      <trkpt lat="48.67181" lon="-4.05533">
        <ele>11.4</ele>
        <time>2020-08-17T10:47:10Z</time>
      </trkpt>
      <trkpt lat="48.67169" lon="-4.05542">
        <ele>10.8</ele>
        <time>2020-08-17T10:47:12Z</time>
      </trkpt>
      <trkpt lat="48.67116" lon="-4.0554">
        <ele>8.4</ele>
        <time>2020-08-17T10:47:20Z</time>
      </trkpt>
      <trkpt lat="48.67109" lon="-4.0554">
        <ele>8.3</ele>
        <time>2020-08-17T10:47:21Z</time>
      </trkpt>
      <trkpt lat="48.67063" lon="-4.05538">
        <ele>6.9</ele>
        <time>2020-08-17T10:47:28Z</time>
      </trkpt>
      <trkpt lat="48.67024" lon="-4.05527">
        <ele>6.9</ele>
        <time>2020-08-17T10:47:35Z</time>
      </trkpt>
      <trkpt lat="48.66977" lon="-4.05513">
        <ele>7.3</ele>
        <time>2020-08-17T10:47:44Z</time>
      </trkpt>
      <trkpt lat="48.66953" lon="-4.05503">
        <ele>7.6</ele>
        <time>2020-08-17T10:47:49Z</time>
      </trkpt>
      <trkpt lat="48.66923" lon="-4.05482">
        <ele>8.2</ele>
        <time>2020-08-17T10:47:56Z</time>
      </trkpt>
      <trkpt lat="48.6692" lon="-4.05477">
        <ele>8.2</ele>
        <time>2020-08-17T10:47:57Z</time>
      </trkpt>
      <trkpt lat="48.66909" lon="-4.05473">
        <ele>8.3</ele>
        <time>2020-08-17T10:48:01Z</time>
      </trkpt>
      <trkpt lat="48.66909" lon="-4.05473">
        <ele>8.3</ele>
        <time>2020-08-17T10:48:02Z</time>
      </trkpt>
      <trkpt lat="48.66909" lon="-4.05473">
        <ele>8.3</ele>
        <time>2020-08-17T10:48:09Z</time>
      </trkpt>
      <trkpt lat="48.66909" lon="-4.05473">
        <ele>8.3</ele>
        <time>2020-08-17T10:48:13Z</time>
      </trkpt>
      <trkpt lat="48.66897" lon="-4.05527">
        <ele>8.8</ele>
        <time>2020-08-17T10:49:12Z</time>
      </trkpt>
      <trkpt lat="48.6689" lon="-4.05558">
        <ele>9</ele>
        <time>2020-08-17T10:49:20Z</time>
      </trkpt>
      <trkpt lat="48.66882" lon="-4.05595">
        <ele>10.3</ele>
        <time>2020-08-17T10:49:27Z</time>
      </trkpt>
      <trkpt lat="48.66875" lon="-4.05627">
        <ele>10.8</ele>
        <time>2020-08-17T10:49:34Z</time>
      </trkpt>
      <trkpt lat="48.66868" lon="-4.05656">
        <ele>11.4</ele>
        <time>2020-08-17T10:49:42Z</time>
      </trkpt>
      <trkpt lat="48.66865" lon="-4.05685">
        <ele>13.7</ele>
        <time>2020-08-17T10:49:50Z</time>
      </trkpt>
      <trkpt lat="48.66865" lon="-4.05685">
        <ele>13.7</ele>
        <time>2020-08-17T10:49:58Z</time>
      </trkpt>
      <trkpt lat="48.66876" lon="-4.05744">
        <ele>14.7</ele>
        <time>2020-08-17T10:50:06Z</time>
      </trkpt>
      <trkpt lat="48.66899" lon="-4.05771">
        <ele>18.7</ele>
        <time>2020-08-17T10:50:16Z</time>
      </trkpt>
      <trkpt lat="48.6692" lon="-4.05784">
        <ele>19</ele>
        <time>2020-08-17T10:50:24Z</time>
      </trkpt>
      <trkpt lat="48.66939" lon="-4.05795">
        <ele>19.5</ele>
        <time>2020-08-17T10:50:32Z</time>
      </trkpt>
      <trkpt lat="48.66952" lon="-4.0581">
        <ele>20.1</ele>
        <time>2020-08-17T10:50:39Z</time>
      </trkpt>
      <trkpt lat="48.66962" lon="-4.05827">
        <ele>20.5</ele>
        <time>2020-08-17T10:50:46Z</time>
      </trkpt>
      <trkpt lat="48.66967" lon="-4.05842">
        <ele>23.4</ele>
        <time>2020-08-17T10:50:53Z</time>
      </trkpt>
      <trkpt lat="48.66994" lon="-4.05851">
        <ele>22.7</ele>
        <time>2020-08-17T10:51:01Z</time>
      </trkpt>
      <trkpt lat="48.67013" lon="-4.05853">
        <ele>20.1</ele>
        <time>2020-08-17T10:51:08Z</time>
      </trkpt>
      <trkpt lat="48.67033" lon="-4.05856">
        <ele>19.3</ele>
        <time>2020-08-17T10:51:14Z</time>
      </trkpt>
      <trkpt lat="48.67061" lon="-4.05854">
        <ele>18.5</ele>
        <time>2020-08-17T10:51:21Z</time>
      </trkpt>
      <trkpt lat="48.67067" lon="-4.05852">
        <ele>18.4</ele>
        <time>2020-08-17T10:51:25Z</time>
      </trkpt>
      <trkpt lat="48.67067" lon="-4.05852">
        <ele>18.4</ele>
        <time>2020-08-17T10:51:26Z</time>
      </trkpt>
      <trkpt lat="48.67082" lon="-4.05845">
        <ele>18.2</ele>
        <time>2020-08-17T10:52:05Z</time>
      </trkpt>
      <trkpt lat="48.67099" lon="-4.05835">
        <ele>16.7</ele>
        <time>2020-08-17T10:52:09Z</time>
      </trkpt>
      <trkpt lat="48.67134" lon="-4.05812">
        <ele>13.1</ele>
        <time>2020-08-17T10:52:17Z</time>
      </trkpt>
      <trkpt lat="48.67163" lon="-4.05801">
        <ele>12.4</ele>
        <time>2020-08-17T10:52:22Z</time>
      </trkpt>
      <trkpt lat="48.67181" lon="-4.05798">
        <ele>11.1</ele>
        <time>2020-08-17T10:52:25Z</time>
      </trkpt>
      <trkpt lat="48.67206" lon="-4.05804">
        <ele>11.1</ele>
        <time>2020-08-17T10:52:29Z</time>
      </trkpt>
      <trkpt lat="48.6722" lon="-4.05816">
        <ele>11.3</ele>
        <time>2020-08-17T10:52:32Z</time>
      </trkpt>
      <trkpt lat="48.6722" lon="-4.05816">
        <ele>11.3</ele>
        <time>2020-08-17T10:52:33Z</time>
      </trkpt>
      <trkpt lat="48.67235" lon="-4.0583">
        <ele>11.6</ele>
        <time>2020-08-17T10:55:02Z</time>
      </trkpt>
      <trkpt lat="48.67251" lon="-4.05851">
        <ele>12.1</ele>
        <time>2020-08-17T10:55:09Z</time>
      </trkpt>
      <trkpt lat="48.67265" lon="-4.0587">
        <ele>12.1</ele>
        <time>2020-08-17T10:55:16Z</time>
      </trkpt>
      <trkpt lat="48.67282" lon="-4.05887">
        <ele>12.1</ele>
        <time>2020-08-17T10:55:23Z</time>
      </trkpt>
      <trkpt lat="48.67287" lon="-4.05892">
        <ele>12</ele>
        <time>2020-08-17T10:55:29Z</time>
      </trkpt>
      <trkpt lat="48.67316" lon="-4.05946">
        <ele>11.5</ele>
        <time>2020-08-17T10:55:39Z</time>
      </trkpt>
      <trkpt lat="48.67331" lon="-4.05976">
        <ele>11.4</ele>
        <time>2020-08-17T10:55:47Z</time>
      </trkpt>
      <trkpt lat="48.67349" lon="-4.06019">
        <ele>11.8</ele>
        <time>2020-08-17T10:55:57Z</time>
      </trkpt>
      <trkpt lat="48.67366" lon="-4.06068">
        <ele>12.5</ele>
        <time>2020-08-17T10:56:08Z</time>
      </trkpt>
      <trkpt lat="48.6737" lon="-4.0611">
        <ele>14</ele>
        <time>2020-08-17T10:56:17Z</time>
      </trkpt>
      <trkpt lat="48.67368" lon="-4.06146">
        <ele>14.5</ele>
        <time>2020-08-17T10:56:25Z</time>
      </trkpt>
      <trkpt lat="48.67366" lon="-4.06192">
        <ele>17.8</ele>
        <time>2020-08-17T10:56:36Z</time>
      </trkpt>
      <trkpt lat="48.67364" lon="-4.06231">
        <ele>19.1</ele>
        <time>2020-08-17T10:56:46Z</time>
      </trkpt>
      <trkpt lat="48.67362" lon="-4.06261">
        <ele>23.7</ele>
        <time>2020-08-17T10:56:55Z</time>
      </trkpt>
      <trkpt lat="48.67361" lon="-4.06286">
        <ele>24.9</ele>
        <time>2020-08-17T10:57:04Z</time>
      </trkpt>
      <trkpt lat="48.67362" lon="-4.06301">
        <ele>25.7</ele>
        <time>2020-08-17T10:57:11Z</time>
      </trkpt>
      <trkpt lat="48.67366" lon="-4.06319">
        <ele>26.5</ele>
        <time>2020-08-17T10:57:19Z</time>
      </trkpt>
      <trkpt lat="48.67372" lon="-4.0633">
        <ele>26.9</ele>
        <time>2020-08-17T10:57:25Z</time>
      </trkpt>
      <trkpt lat="48.67378" lon="-4.0634">
        <ele>32.5</ele>
        <time>2020-08-17T10:57:31Z</time>
      </trkpt>
      <trkpt lat="48.67397" lon="-4.06348">
        <ele>32.9</ele>
        <time>2020-08-17T10:57:42Z</time>
      </trkpt>
      <trkpt lat="48.6741" lon="-4.06351">
        <ele>32.9</ele>
        <time>2020-08-17T10:57:50Z</time>
      </trkpt>
      <trkpt lat="48.67428" lon="-4.06358">
        <ele>33.5</ele>
        <time>2020-08-17T10:58:00Z</time>
      </trkpt>
      <trkpt lat="48.67444" lon="-4.06363">
        <ele>33.8</ele>
        <time>2020-08-17T10:58:09Z</time>
      </trkpt>
      <trkpt lat="48.6746" lon="-4.06372">
        <ele>34</ele>
        <time>2020-08-17T10:58:18Z</time>
      </trkpt>
      <trkpt lat="48.67473" lon="-4.06382">
        <ele>34.3</ele>
        <time>2020-08-17T10:58:26Z</time>
      </trkpt>
      <trkpt lat="48.67486" lon="-4.06393">
        <ele>34.9</ele>
        <time>2020-08-17T10:58:34Z</time>
      </trkpt>
      <trkpt lat="48.67498" lon="-4.06404">
        <ele>35.8</ele>
        <time>2020-08-17T10:58:43Z</time>
      </trkpt>
      <trkpt lat="48.67509" lon="-4.06418">
        <ele>36.9</ele>
        <time>2020-08-17T10:58:51Z</time>
      </trkpt>
      <trkpt lat="48.67522" lon="-4.06436">
        <ele>36.9</ele>
        <time>2020-08-17T10:59:00Z</time>
      </trkpt>
      <trkpt lat="48.6753" lon="-4.06455">
        <ele>37.4</ele>
        <time>2020-08-17T10:59:08Z</time>
      </trkpt>
      <trkpt lat="48.67535" lon="-4.0648">
        <ele>38.4</ele>
        <time>2020-08-17T10:59:18Z</time>
      </trkpt>
      <trkpt lat="48.67538" lon="-4.06506">
        <ele>41.4</ele>
        <time>2020-08-17T10:59:28Z</time>
      </trkpt>
      <trkpt lat="48.6754" lon="-4.06537">
        <ele>41.3</ele>
        <time>2020-08-17T10:59:39Z</time>
      </trkpt>
      <trkpt lat="48.67541" lon="-4.06574">
        <ele>41.4</ele>
        <time>2020-08-17T10:59:49Z</time>
      </trkpt>
      <trkpt lat="48.67542" lon="-4.06597">
        <ele>40.6</ele>
        <time>2020-08-17T10:59:57Z</time>
      </trkpt>
      <trkpt lat="48.67542" lon="-4.06597">
        <ele>40.6</ele>
        <time>2020-08-17T11:00:03Z</time>
      </trkpt>
      <trkpt lat="48.67542" lon="-4.06597">
        <ele>40.6</ele>
        <time>2020-08-17T11:00:05Z</time>
      </trkpt>
      <trkpt lat="48.67545" lon="-4.06642">
        <ele>39.9</ele>
        <time>2020-08-17T11:00:12Z</time>
      </trkpt>
      <trkpt lat="48.67549" lon="-4.06669">
        <ele>37.7</ele>
        <time>2020-08-17T11:00:20Z</time>
      </trkpt>
      <trkpt lat="48.67555" lon="-4.06691">
        <ele>37.3</ele>
        <time>2020-08-17T11:00:26Z</time>
      </trkpt>
      <trkpt lat="48.67567" lon="-4.06729">
        <ele>36.1</ele>
        <time>2020-08-17T11:00:35Z</time>
      </trkpt>
      <trkpt lat="48.67578" lon="-4.06758">
        <ele>34.4</ele>
        <time>2020-08-17T11:00:42Z</time>
      </trkpt>
      <trkpt lat="48.6759" lon="-4.06779">
        <ele>33.2</ele>
        <time>2020-08-17T11:00:47Z</time>
      </trkpt>
      <trkpt lat="48.67614" lon="-4.06819">
        <ele>32.8</ele>
        <time>2020-08-17T11:00:54Z</time>
      </trkpt>
      <trkpt lat="48.67648" lon="-4.0687">
        <ele>31.9</ele>
        <time>2020-08-17T11:01:02Z</time>
      </trkpt>
      <trkpt lat="48.67658" lon="-4.06884">
        <ele>31.7</ele>
        <time>2020-08-17T11:01:05Z</time>
      </trkpt>
      <trkpt lat="48.67702" lon="-4.06935">
        <ele>28.8</ele>
        <time>2020-08-17T11:01:16Z</time>
      </trkpt>
      <trkpt lat="48.67728" lon="-4.06959">
        <ele>28.4</ele>
        <time>2020-08-17T11:01:22Z</time>
      </trkpt>
      <trkpt lat="48.6777" lon="-4.06978">
        <ele>26.9</ele>
        <time>2020-08-17T11:01:31Z</time>
      </trkpt>
      <trkpt lat="48.67801" lon="-4.06998">
        <ele>26.5</ele>
        <time>2020-08-17T11:01:39Z</time>
      </trkpt>
      <trkpt lat="48.67822" lon="-4.07026">
        <ele>25.9</ele>
        <time>2020-08-17T11:01:47Z</time>
      </trkpt>
      <trkpt lat="48.67848" lon="-4.07066">
        <ele>24</ele>
        <time>2020-08-17T11:01:57Z</time>
      </trkpt>
      <trkpt lat="48.67869" lon="-4.07098">
        <ele>23.3</ele>
        <time>2020-08-17T11:02:04Z</time>
      </trkpt>
      <trkpt lat="48.67897" lon="-4.07139">
        <ele>22.9</ele>
        <time>2020-08-17T11:02:13Z</time>
      </trkpt>
      <trkpt lat="48.67929" lon="-4.07186">
        <ele>22</ele>
        <time>2020-08-17T11:02:23Z</time>
      </trkpt>
      <trkpt lat="48.67956" lon="-4.07225">
        <ele>21.5</ele>
        <time>2020-08-17T11:02:31Z</time>
      </trkpt>
      <trkpt lat="48.67973" lon="-4.07252">
        <ele>20.8</ele>
        <time>2020-08-17T11:02:38Z</time>
      </trkpt>
      <trkpt lat="48.67988" lon="-4.07273">
        <ele>20.7</ele>
        <time>2020-08-17T11:02:43Z</time>
      </trkpt>
      <trkpt lat="48.68007" lon="-4.07292">
        <ele>20.2</ele>
        <time>2020-08-17T11:02:47Z</time>
      </trkpt>
      <trkpt lat="48.68045" lon="-4.07313">
        <ele>19.7</ele>
        <time>2020-08-17T11:02:54Z</time>
      </trkpt>
      <trkpt lat="48.68066" lon="-4.07321">
        <ele>19.4</ele>
        <time>2020-08-17T11:02:58Z</time>
      </trkpt>
      <trkpt lat="48.68099" lon="-4.07332">
        <ele>18.4</ele>
        <time>2020-08-17T11:03:06Z</time>
      </trkpt>
      <trkpt lat="48.68123" lon="-4.0734">
        <ele>18</ele>
        <time>2020-08-17T11:03:13Z</time>
      </trkpt>
      <trkpt lat="48.68149" lon="-4.07345">
        <ele>17.9</ele>
        <time>2020-08-17T11:03:20Z</time>
      </trkpt>
      <trkpt lat="48.68179" lon="-4.07351">
        <ele>17.1</ele>
        <time>2020-08-17T11:03:26Z</time>
      </trkpt>
      <trkpt lat="48.68212" lon="-4.07358">
        <ele>16.4</ele>
        <time>2020-08-17T11:03:31Z</time>
      </trkpt>
      <trkpt lat="48.68248" lon="-4.07373">
        <ele>16.1</ele>
        <time>2020-08-17T11:03:37Z</time>
      </trkpt>
      <trkpt lat="48.68297" lon="-4.07398">
        <ele>14.9</ele>
        <time>2020-08-17T11:03:46Z</time>
      </trkpt>
      <trkpt lat="48.68349" lon="-4.07427">
        <ele>14.2</ele>
        <time>2020-08-17T11:03:56Z</time>
      </trkpt>
      <trkpt lat="48.6839" lon="-4.07457">
        <ele>13.3</ele>
        <time>2020-08-17T11:04:04Z</time>
      </trkpt>
      <trkpt lat="48.68422" lon="-4.07484">
        <ele>12.6</ele>
        <time>2020-08-17T11:04:11Z</time>
      </trkpt>
      <trkpt lat="48.68438" lon="-4.07499">
        <ele>12.7</ele>
        <time>2020-08-17T11:04:15Z</time>
      </trkpt>
      <trkpt lat="48.68475" lon="-4.0753">
        <ele>11.7</ele>
        <time>2020-08-17T11:04:24Z</time>
      </trkpt>
      <trkpt lat="48.68518" lon="-4.07563">
        <ele>10.9</ele>
        <time>2020-08-17T11:04:34Z</time>
      </trkpt>
      <trkpt lat="48.68541" lon="-4.0758">
        <ele>10.8</ele>
        <time>2020-08-17T11:04:42Z</time>
      </trkpt>
      <trkpt lat="48.6858" lon="-4.0763">
        <ele>9.3</ele>
        <time>2020-08-17T11:04:50Z</time>
      </trkpt>
      <trkpt lat="48.68599" lon="-4.07679">
        <ele>9.5</ele>
        <time>2020-08-17T11:04:58Z</time>
      </trkpt>
      <trkpt lat="48.68608" lon="-4.07709">
        <ele>9.8</ele>
        <time>2020-08-17T11:05:04Z</time>
      </trkpt>
      <trkpt lat="48.68615" lon="-4.0773">
        <ele>9.9</ele>
        <time>2020-08-17T11:05:10Z</time>
      </trkpt>
      <trkpt lat="48.6862" lon="-4.07745">
        <ele>9.9</ele>
        <time>2020-08-17T11:05:17Z</time>
      </trkpt>
      <trkpt lat="48.68621" lon="-4.0775">
        <ele>9.9</ele>
        <time>2020-08-17T11:05:20Z</time>
      </trkpt>
      <trkpt lat="48.68625" lon="-4.07763">
        <ele>10</ele>
        <time>2020-08-17T11:05:28Z</time>
      </trkpt>
      <trkpt lat="48.68625" lon="-4.07764">
        <ele>10</ele>
        <time>2020-08-17T11:05:31Z</time>
      </trkpt>
      <trkpt lat="48.68624" lon="-4.07759">
        <ele>10</ele>
        <time>2020-08-17T11:05:42Z</time>
      </trkpt>
      <trkpt lat="48.68634" lon="-4.07735">
        <ele>9.7</ele>
        <time>2020-08-17T11:05:45Z</time>
      </trkpt>
      <trkpt lat="48.68644" lon="-4.07738">
        <ele>9.6</ele>
        <time>2020-08-17T11:05:48Z</time>
      </trkpt>
      <trkpt lat="48.68671" lon="-4.07758">
        <ele>8.3</ele>
        <time>2020-08-17T11:05:55Z</time>
      </trkpt>
      <trkpt lat="48.68697" lon="-4.07755">
        <ele>7.2</ele>
        <time>2020-08-17T11:06:03Z</time>
      </trkpt>
      <trkpt lat="48.68706" lon="-4.07792">
        <ele>6.6</ele>
        <time>2020-08-17T11:06:07Z</time>
      </trkpt>
      <trkpt lat="48.68717" lon="-4.078">
        <ele>6.2</ele>
        <time>2020-08-17T11:06:12Z</time>
      </trkpt>
      <trkpt lat="48.68729" lon="-4.07807">
        <ele>5.7</ele>
        <time>2020-08-17T11:06:17Z</time>
      </trkpt>
      <trkpt lat="48.68737" lon="-4.0781">
        <ele>5.3</ele>
        <time>2020-08-17T11:06:20Z</time>
      </trkpt>
      <trkpt lat="48.68748" lon="-4.07783">
        <ele>5.9</ele>
        <time>2020-08-17T11:06:24Z</time>
      </trkpt>
      <trkpt lat="48.68707" lon="-4.07794">
        <ele>6.5</ele>
        <time>2020-08-17T11:06:32Z</time>
      </trkpt>
      <trkpt lat="48.68685" lon="-4.07773">
        <ele>7.3</ele>
        <time>2020-08-17T11:06:39Z</time>
      </trkpt>
      <trkpt lat="48.68674" lon="-4.07761">
        <ele>8</ele>
        <time>2020-08-17T11:06:47Z</time>
      </trkpt>
      <trkpt lat="48.68644" lon="-4.07738">
        <ele>9.6</ele>
        <time>2020-08-17T11:06:54Z</time>
      </trkpt>
      <trkpt lat="48.68636" lon="-4.07735">
        <ele>9.7</ele>
        <time>2020-08-17T11:06:58Z</time>
      </trkpt>
      <trkpt lat="48.68627" lon="-4.07768">
        <ele>10</ele>
        <time>2020-08-17T11:07:04Z</time>
      </trkpt>
      <trkpt lat="48.68635" lon="-4.07795">
        <ele>9.8</ele>
        <time>2020-08-17T11:07:14Z</time>
      </trkpt>
      <trkpt lat="48.68642" lon="-4.0783">
        <ele>9.4</ele>
        <time>2020-08-17T11:07:25Z</time>
      </trkpt>
      <trkpt lat="48.68648" lon="-4.07865">
        <ele>10.2</ele>
        <time>2020-08-17T11:07:36Z</time>
      </trkpt>
      <trkpt lat="48.68652" lon="-4.07891">
        <ele>10.7</ele>
        <time>2020-08-17T11:07:44Z</time>
      </trkpt>
      <trkpt lat="48.68656" lon="-4.07914">
        <ele>10.9</ele>
        <time>2020-08-17T11:07:51Z</time>
      </trkpt>
      <trkpt lat="48.68659" lon="-4.07948">
        <ele>11.8</ele>
        <time>2020-08-17T11:08:01Z</time>
      </trkpt>
      <trkpt lat="48.6866" lon="-4.07978">
        <ele>12.3</ele>
        <time>2020-08-17T11:08:10Z</time>
      </trkpt>
      <trkpt lat="48.6866" lon="-4.08011">
        <ele>12.9</ele>
        <time>2020-08-17T11:08:19Z</time>
      </trkpt>
      <trkpt lat="48.68662" lon="-4.0805">
        <ele>13.1</ele>
        <time>2020-08-17T11:08:28Z</time>
      </trkpt>
      <trkpt lat="48.68667" lon="-4.08093">
        <ele>14.5</ele>
        <time>2020-08-17T11:08:37Z</time>
      </trkpt>
      <trkpt lat="48.68671" lon="-4.08129">
        <ele>15.4</ele>
        <time>2020-08-17T11:08:45Z</time>
      </trkpt>
      <trkpt lat="48.68669" lon="-4.08144">
        <ele>15.6</ele>
        <time>2020-08-17T11:08:50Z</time>
      </trkpt>
      <trkpt lat="48.68673" lon="-4.08169">
        <ele>16.3</ele>
        <time>2020-08-17T11:09:01Z</time>
      </trkpt>
      <trkpt lat="48.68685" lon="-4.08206">
        <ele>17</ele>
        <time>2020-08-17T11:09:07Z</time>
      </trkpt>
      <trkpt lat="48.68685" lon="-4.08206">
        <ele>17</ele>
        <time>2020-08-17T11:09:11Z</time>
      </trkpt>
      <trkpt lat="48.68688" lon="-4.08231">
        <ele>17.2</ele>
        <time>2020-08-17T11:09:19Z</time>
      </trkpt>
      <trkpt lat="48.68688" lon="-4.08247">
        <ele>17.2</ele>
        <time>2020-08-17T11:09:26Z</time>
      </trkpt>
      <trkpt lat="48.68688" lon="-4.08247">
        <ele>17.2</ele>
        <time>2020-08-17T11:09:28Z</time>
      </trkpt>
      <trkpt lat="48.68688" lon="-4.08258">
        <ele>17.2</ele>
        <time>2020-08-17T11:09:40Z</time>
      </trkpt>
      <trkpt lat="48.68689" lon="-4.08281">
        <ele>17.1</ele>
        <time>2020-08-17T11:09:45Z</time>
      </trkpt>
      <trkpt lat="48.6869" lon="-4.08301">
        <ele>17</ele>
        <time>2020-08-17T11:09:48Z</time>
      </trkpt>
      <trkpt lat="48.68691" lon="-4.08356">
        <ele>16.9</ele>
        <time>2020-08-17T11:09:57Z</time>
      </trkpt>
      <trkpt lat="48.68691" lon="-4.0842">
        <ele>17</ele>
        <time>2020-08-17T11:10:08Z</time>
      </trkpt>
      <trkpt lat="48.68691" lon="-4.08477">
        <ele>17.1</ele>
        <time>2020-08-17T11:10:18Z</time>
      </trkpt>
      <trkpt lat="48.68691" lon="-4.0852">
        <ele>16.5</ele>
        <time>2020-08-17T11:10:27Z</time>
      </trkpt>
      <trkpt lat="48.6869" lon="-4.08565">
        <ele>16</ele>
        <time>2020-08-17T11:10:34Z</time>
      </trkpt>
      <trkpt lat="48.68687" lon="-4.08632">
        <ele>14.3</ele>
        <time>2020-08-17T11:10:43Z</time>
      </trkpt>
      <trkpt lat="48.68681" lon="-4.08695">
        <ele>12.8</ele>
        <time>2020-08-17T11:10:52Z</time>
      </trkpt>
      <trkpt lat="48.68673" lon="-4.0876">
        <ele>11.9</ele>
        <time>2020-08-17T11:11:02Z</time>
      </trkpt>
      <trkpt lat="48.68661" lon="-4.08828">
        <ele>11</ele>
        <time>2020-08-17T11:11:13Z</time>
      </trkpt>
      <trkpt lat="48.68649" lon="-4.08876">
        <ele>10.4</ele>
        <time>2020-08-17T11:11:21Z</time>
      </trkpt>
      <trkpt lat="48.68633" lon="-4.08929">
        <ele>10.3</ele>
        <time>2020-08-17T11:11:30Z</time>
      </trkpt>
      <trkpt lat="48.68613" lon="-4.08996">
        <ele>10</ele>
        <time>2020-08-17T11:11:40Z</time>
      </trkpt>
      <trkpt lat="48.68601" lon="-4.09064">
        <ele>9.5</ele>
        <time>2020-08-17T11:11:49Z</time>
      </trkpt>
      <trkpt lat="48.68595" lon="-4.0911">
        <ele>8.9</ele>
        <time>2020-08-17T11:11:56Z</time>
      </trkpt>
      <trkpt lat="48.68589" lon="-4.0913">
        <ele>8.7</ele>
        <time>2020-08-17T11:12:01Z</time>
      </trkpt>
      <trkpt lat="48.68588" lon="-4.09131">
        <ele>8.7</ele>
        <time>2020-08-17T11:12:04Z</time>
      </trkpt>
      <trkpt lat="48.68581" lon="-4.09135">
        <ele>6.7</ele>
        <time>2020-08-17T11:13:01Z</time>
      </trkpt>
      <trkpt lat="48.68575" lon="-4.09137">
        <ele>6.6</ele>
        <time>2020-08-17T11:13:06Z</time>
      </trkpt>
      <trkpt lat="48.68573" lon="-4.09137">
        <ele>6.6</ele>
        <time>2020-08-17T11:13:58Z</time>
      </trkpt>
      <trkpt lat="48.6856" lon="-4.09137">
        <ele>6.5</ele>
        <time>2020-08-17T11:14:04Z</time>
      </trkpt>
      <trkpt lat="48.68539" lon="-4.09136">
        <ele>6.2</ele>
        <time>2020-08-17T11:14:10Z</time>
      </trkpt>
      <trkpt lat="48.68507" lon="-4.09139">
        <ele>5.7</ele>
        <time>2020-08-17T11:14:17Z</time>
      </trkpt>
      <trkpt lat="48.68489" lon="-4.09148">
        <ele>4.3</ele>
        <time>2020-08-17T11:14:21Z</time>
      </trkpt>
      <trkpt lat="48.6849" lon="-4.09174">
        <ele>4.1</ele>
        <time>2020-08-17T11:14:24Z</time>
      </trkpt>
      <trkpt lat="48.68493" lon="-4.09181">
        <ele>3.9</ele>
        <time>2020-08-17T11:14:25Z</time>
      </trkpt>
      <trkpt lat="48.68513" lon="-4.09229">
        <ele>4.4</ele>
        <time>2020-08-17T11:14:33Z</time>
      </trkpt>
      <trkpt lat="48.68518" lon="-4.09247">
        <ele>4.2</ele>
        <time>2020-08-17T11:14:36Z</time>
      </trkpt>
      <trkpt lat="48.68523" lon="-4.09297">
        <ele>4.2</ele>
        <time>2020-08-17T11:14:44Z</time>
      </trkpt>
      <trkpt lat="48.68519" lon="-4.09355">
        <ele>4.2</ele>
        <time>2020-08-17T11:14:54Z</time>
      </trkpt>
      <trkpt lat="48.68516" lon="-4.09395">
        <ele>4.4</ele>
        <time>2020-08-17T11:15:01Z</time>
      </trkpt>
      <trkpt lat="48.68514" lon="-4.09425">
        <ele>4.5</ele>
        <time>2020-08-17T11:15:06Z</time>
      </trkpt>
      <trkpt lat="48.68502" lon="-4.09462">
        <ele>4.8</ele>
        <time>2020-08-17T11:15:13Z</time>
      </trkpt>
      <trkpt lat="48.68494" lon="-4.09485">
        <ele>4.2</ele>
        <time>2020-08-17T11:15:17Z</time>
      </trkpt>
      <trkpt lat="48.68475" lon="-4.09533">
        <ele>3.7</ele>
        <time>2020-08-17T11:15:26Z</time>
      </trkpt>
      <trkpt lat="48.68461" lon="-4.09569">
        <ele>3.5</ele>
        <time>2020-08-17T11:15:35Z</time>
      </trkpt>
      <trkpt lat="48.68442" lon="-4.09619">
        <ele>4.2</ele>
        <time>2020-08-17T11:15:43Z</time>
      </trkpt>
      <trkpt lat="48.68443" lon="-4.09649">
        <ele>4.7</ele>
        <time>2020-08-17T11:15:48Z</time>
      </trkpt>
      <trkpt lat="48.68447" lon="-4.0966">
        <ele>4.7</ele>
        <time>2020-08-17T11:15:54Z</time>
      </trkpt>
      <trkpt lat="48.68489" lon="-4.09718">
        <ele>4.8</ele>
        <time>2020-08-17T11:16:04Z</time>
      </trkpt>
      <trkpt lat="48.68523" lon="-4.09762">
        <ele>5.7</ele>
        <time>2020-08-17T11:16:14Z</time>
      </trkpt>
      <trkpt lat="48.68542" lon="-4.09807">
        <ele>6.6</ele>
        <time>2020-08-17T11:16:23Z</time>
      </trkpt>
      <trkpt lat="48.68542" lon="-4.09807">
        <ele>6.6</ele>
        <time>2020-08-17T11:16:30Z</time>
      </trkpt>
      <trkpt lat="48.68583" lon="-4.09886">
        <ele>6.7</ele>
        <time>2020-08-17T11:16:40Z</time>
      </trkpt>
      <trkpt lat="48.68606" lon="-4.09915">
        <ele>7.2</ele>
        <time>2020-08-17T11:16:49Z</time>
      </trkpt>
      <trkpt lat="48.6863" lon="-4.09945">
        <ele>7.4</ele>
        <time>2020-08-17T11:16:58Z</time>
      </trkpt>
      <trkpt lat="48.68648" lon="-4.09966">
        <ele>7.5</ele>
        <time>2020-08-17T11:17:05Z</time>
      </trkpt>
      <trkpt lat="48.68681" lon="-4.10001">
        <ele>7.9</ele>
        <time>2020-08-17T11:17:17Z</time>
      </trkpt>
      <trkpt lat="48.68712" lon="-4.10032">
        <ele>7.9</ele>
        <time>2020-08-17T11:17:28Z</time>
      </trkpt>
      <trkpt lat="48.6873" lon="-4.1006">
        <ele>7.8</ele>
        <time>2020-08-17T11:17:36Z</time>
      </trkpt>
      <trkpt lat="48.68743" lon="-4.10096">
        <ele>7.6</ele>
        <time>2020-08-17T11:17:44Z</time>
      </trkpt>
      <trkpt lat="48.68756" lon="-4.10144">
        <ele>8.7</ele>
        <time>2020-08-17T11:17:54Z</time>
      </trkpt>
      <trkpt lat="48.68758" lon="-4.10151">
        <ele>8.6</ele>
        <time>2020-08-17T11:18:02Z</time>
      </trkpt>
      <trkpt lat="48.6878" lon="-4.1023">
        <ele>8.6</ele>
        <time>2020-08-17T11:18:12Z</time>
      </trkpt>
      <trkpt lat="48.68787" lon="-4.10262">
        <ele>8.5</ele>
        <time>2020-08-17T11:18:19Z</time>
      </trkpt>
      <trkpt lat="48.68795" lon="-4.10297">
        <ele>8.5</ele>
        <time>2020-08-17T11:18:26Z</time>
      </trkpt>
      <trkpt lat="48.68801" lon="-4.10333">
        <ele>8.6</ele>
        <time>2020-08-17T11:18:33Z</time>
      </trkpt>
      <trkpt lat="48.68813" lon="-4.10378">
        <ele>8.8</ele>
        <time>2020-08-17T11:18:42Z</time>
      </trkpt>
      <trkpt lat="48.68831" lon="-4.10416">
        <ele>9</ele>
        <time>2020-08-17T11:18:51Z</time>
      </trkpt>
      <trkpt lat="48.68849" lon="-4.10451">
        <ele>9.6</ele>
        <time>2020-08-17T11:19:00Z</time>
      </trkpt>
      <trkpt lat="48.68866" lon="-4.10499">
        <ele>9.8</ele>
        <time>2020-08-17T11:19:11Z</time>
      </trkpt>
      <trkpt lat="48.68883" lon="-4.10547">
        <ele>10.1</ele>
        <time>2020-08-17T11:19:22Z</time>
      </trkpt>
      <trkpt lat="48.68895" lon="-4.10577">
        <ele>10.3</ele>
        <time>2020-08-17T11:19:29Z</time>
      </trkpt>
      <trkpt lat="48.68911" lon="-4.10618">
        <ele>10.5</ele>
        <time>2020-08-17T11:19:39Z</time>
      </trkpt>
      <trkpt lat="48.68923" lon="-4.10667">
        <ele>10.9</ele>
        <time>2020-08-17T11:19:49Z</time>
      </trkpt>
      <trkpt lat="48.68931" lon="-4.10702">
        <ele>10.7</ele>
        <time>2020-08-17T11:19:56Z</time>
      </trkpt>
      <trkpt lat="48.68937" lon="-4.1073">
        <ele>10.7</ele>
        <time>2020-08-17T11:20:02Z</time>
      </trkpt>
      <trkpt lat="48.68945" lon="-4.10763">
        <ele>10.6</ele>
        <time>2020-08-17T11:20:09Z</time>
      </trkpt>
      <trkpt lat="48.68953" lon="-4.10795">
        <ele>10.5</ele>
        <time>2020-08-17T11:20:16Z</time>
      </trkpt>
      <trkpt lat="48.68961" lon="-4.10838">
        <ele>10.2</ele>
        <time>2020-08-17T11:20:25Z</time>
      </trkpt>
      <trkpt lat="48.68966" lon="-4.10882">
        <ele>10</ele>
        <time>2020-08-17T11:20:34Z</time>
      </trkpt>
      <trkpt lat="48.68963" lon="-4.10925">
        <ele>9.9</ele>
        <time>2020-08-17T11:20:42Z</time>
      </trkpt>
      <trkpt lat="48.68961" lon="-4.10976">
        <ele>10.1</ele>
        <time>2020-08-17T11:20:51Z</time>
      </trkpt>
      <trkpt lat="48.68959" lon="-4.11024">
        <ele>11.1</ele>
        <time>2020-08-17T11:21:00Z</time>
      </trkpt>
      <trkpt lat="48.68956" lon="-4.11064">
        <ele>11.4</ele>
        <time>2020-08-17T11:21:08Z</time>
      </trkpt>
      <trkpt lat="48.68964" lon="-4.11092">
        <ele>12.3</ele>
        <time>2020-08-17T11:21:15Z</time>
      </trkpt>
      <trkpt lat="48.68976" lon="-4.11107">
        <ele>12.4</ele>
        <time>2020-08-17T11:21:21Z</time>
      </trkpt>
      <trkpt lat="48.68995" lon="-4.11118">
        <ele>12.6</ele>
        <time>2020-08-17T11:21:28Z</time>
      </trkpt>
      <trkpt lat="48.69006" lon="-4.1113">
        <ele>13.2</ele>
        <time>2020-08-17T11:21:33Z</time>
      </trkpt>
      <trkpt lat="48.69011" lon="-4.11147">
        <ele>13.5</ele>
        <time>2020-08-17T11:21:39Z</time>
      </trkpt>
      <trkpt lat="48.69012" lon="-4.11179">
        <ele>13.9</ele>
        <time>2020-08-17T11:21:47Z</time>
      </trkpt>
      <trkpt lat="48.69013" lon="-4.11192">
        <ele>13.9</ele>
        <time>2020-08-17T11:21:52Z</time>
      </trkpt>
      <trkpt lat="48.69013" lon="-4.11199">
        <ele>13.8</ele>
        <time>2020-08-17T11:23:06Z</time>
      </trkpt>
      <trkpt lat="48.69016" lon="-4.11223">
        <ele>13.8</ele>
        <time>2020-08-17T11:23:14Z</time>
      </trkpt>
      <trkpt lat="48.6902" lon="-4.11266">
        <ele>12.8</ele>
        <time>2020-08-17T11:23:23Z</time>
      </trkpt>
      <trkpt lat="48.69022" lon="-4.11282">
        <ele>12.4</ele>
        <time>2020-08-17T11:23:31Z</time>
      </trkpt>
      <trkpt lat="48.69028" lon="-4.11363">
        <ele>9.6</ele>
        <time>2020-08-17T11:23:37Z</time>
      </trkpt>
      <trkpt lat="48.69036" lon="-4.11446">
        <ele>7.5</ele>
        <time>2020-08-17T11:23:46Z</time>
      </trkpt>
      <trkpt lat="48.6904" lon="-4.11526">
        <ele>6.6</ele>
        <time>2020-08-17T11:23:54Z</time>
      </trkpt>
      <trkpt lat="48.69042" lon="-4.11609">
        <ele>4.8</ele>
        <time>2020-08-17T11:24:03Z</time>
      </trkpt>
      <trkpt lat="48.69046" lon="-4.11645">
        <ele>4.2</ele>
        <time>2020-08-17T11:24:08Z</time>
      </trkpt>
      <trkpt lat="48.69055" lon="-4.11705">
        <ele>3.3</ele>
        <time>2020-08-17T11:24:17Z</time>
      </trkpt>
      <trkpt lat="48.69064" lon="-4.1175">
        <ele>3.6</ele>
        <time>2020-08-17T11:24:24Z</time>
      </trkpt>
      <trkpt lat="48.69066" lon="-4.1176">
        <ele>3.6</ele>
        <time>2020-08-17T11:24:30Z</time>
      </trkpt>
      <trkpt lat="48.69065" lon="-4.11823">
        <ele>3.2</ele>
        <time>2020-08-17T11:24:38Z</time>
      </trkpt>
      <trkpt lat="48.69062" lon="-4.11882">
        <ele>2.6</ele>
        <time>2020-08-17T11:24:48Z</time>
      </trkpt>
      <trkpt lat="48.69061" lon="-4.11896">
        <ele>2.6</ele>
        <time>2020-08-17T11:24:51Z</time>
      </trkpt>
      <trkpt lat="48.69071" lon="-4.11903">
        <ele>2.4</ele>
        <time>2020-08-17T11:24:55Z</time>
      </trkpt>
      <trkpt lat="48.69091" lon="-4.11907">
        <ele>2.4</ele>
        <time>2020-08-17T11:25:01Z</time>
      </trkpt>
      <trkpt lat="48.69121" lon="-4.11918">
        <ele>2.9</ele>
        <time>2020-08-17T11:25:09Z</time>
      </trkpt>
      <trkpt lat="48.69154" lon="-4.11933">
        <ele>3.1</ele>
        <time>2020-08-17T11:25:17Z</time>
      </trkpt>
      <trkpt lat="48.69186" lon="-4.11949">
        <ele>3.1</ele>
        <time>2020-08-17T11:25:25Z</time>
      </trkpt>
      <trkpt lat="48.69209" lon="-4.11956">
        <ele>3</ele>
        <time>2020-08-17T11:25:31Z</time>
      </trkpt>
      <trkpt lat="48.69229" lon="-4.11953">
        <ele>2.8</ele>
        <time>2020-08-17T11:25:37Z</time>
      </trkpt>
      <trkpt lat="48.69236" lon="-4.11949">
        <ele>2.8</ele>
        <time>2020-08-17T11:25:42Z</time>
      </trkpt>
      <trkpt lat="48.69243" lon="-4.11943">
        <ele>2.7</ele>
        <time>2020-08-17T11:25:50Z</time>
      </trkpt>
      <trkpt lat="48.6925" lon="-4.11932">
        <ele>2.3</ele>
        <time>2020-08-17T11:25:59Z</time>
      </trkpt>
      <trkpt lat="48.69256" lon="-4.11922">
        <ele>2.1</ele>
        <time>2020-08-17T11:26:07Z</time>
      </trkpt>
      <trkpt lat="48.69258" lon="-4.11919">
        <ele>2.2</ele>
        <time>2020-08-17T11:26:10Z</time>
      </trkpt>
      <trkpt lat="48.69261" lon="-4.11913">
        <ele>2</ele>
        <time>2020-08-17T11:26:20Z</time>
      </trkpt>
      <trkpt lat="48.69263" lon="-4.1191">
        <ele>2</ele>
        <time>2020-08-17T11:26:25Z</time>
      </trkpt>
      <trkpt lat="48.69264" lon="-4.11908">
        <ele>2</ele>
        <time>2020-08-17T11:26:32Z</time>
      </trkpt>
      <trkpt lat="48.69264" lon="-4.11908">
        <ele>2</ele>
        <time>2020-08-17T11:27:09Z</time>
      </trkpt>
      <trkpt lat="48.69264" lon="-4.11908">
        <ele>2</ele>
        <time>2020-08-17T11:33:07Z</time>
      </trkpt>
      <trkpt lat="48.6926" lon="-4.11915">
        <ele>2</ele>
        <time>2020-08-17T11:33:11Z</time>
      </trkpt>
      <trkpt lat="48.69304" lon="-4.11974">
        <ele>2.8</ele>
        <time>2020-08-17T11:33:21Z</time>
      </trkpt>
      <trkpt lat="48.69304" lon="-4.11996">
        <ele>2.8</ele>
        <time>2020-08-17T11:33:31Z</time>
      </trkpt>
      <trkpt lat="48.69304" lon="-4.12002">
        <ele>3.1</ele>
        <time>2020-08-17T11:33:42Z</time>
      </trkpt>
      <trkpt lat="48.69304" lon="-4.12002">
        <ele>3.1</ele>
        <time>2020-08-17T11:33:45Z</time>
      </trkpt>
      <trkpt lat="48.69304" lon="-4.12027">
        <ele>3.2</ele>
        <time>2020-08-17T11:33:54Z</time>
      </trkpt>
      <trkpt lat="48.69306" lon="-4.12053">
        <ele>3.2</ele>
        <time>2020-08-17T11:34:00Z</time>
      </trkpt>
      <trkpt lat="48.69307" lon="-4.12079">
        <ele>3.2</ele>
        <time>2020-08-17T11:34:06Z</time>
      </trkpt>
      <trkpt lat="48.69308" lon="-4.12105">
        <ele>3.6</ele>
        <time>2020-08-17T11:34:12Z</time>
      </trkpt>
      <trkpt lat="48.69308" lon="-4.12124">
        <ele>3.7</ele>
        <time>2020-08-17T11:34:17Z</time>
      </trkpt>
      <trkpt lat="48.69308" lon="-4.12146">
        <ele>3.8</ele>
        <time>2020-08-17T11:34:24Z</time>
      </trkpt>
      <trkpt lat="48.69309" lon="-4.12179">
        <ele>4.8</ele>
        <time>2020-08-17T11:34:32Z</time>
      </trkpt>
      <trkpt lat="48.69309" lon="-4.12201">
        <ele>5.1</ele>
        <time>2020-08-17T11:34:38Z</time>
      </trkpt>
      <trkpt lat="48.69308" lon="-4.12214">
        <ele>5.3</ele>
        <time>2020-08-17T11:34:43Z</time>
      </trkpt>
      <trkpt lat="48.69306" lon="-4.12233">
        <ele>5.5</ele>
        <time>2020-08-17T11:34:50Z</time>
      </trkpt>
      <trkpt lat="48.69327" lon="-4.12242">
        <ele>5.8</ele>
        <time>2020-08-17T11:34:55Z</time>
      </trkpt>
      <trkpt lat="48.69339" lon="-4.12242">
        <ele>5.4</ele>
        <time>2020-08-17T11:35:02Z</time>
      </trkpt>
      <trkpt lat="48.69346" lon="-4.12246">
        <ele>5.2</ele>
        <time>2020-08-17T11:35:08Z</time>
      </trkpt>
      <trkpt lat="48.69348" lon="-4.12247">
        <ele>5.1</ele>
        <time>2020-08-17T11:35:12Z</time>
      </trkpt>
      <trkpt lat="48.69304" lon="-4.12251">
        <ele>6.4</ele>
        <time>2020-08-17T11:36:20Z</time>
      </trkpt>
      <trkpt lat="48.69341" lon="-4.12243">
        <ele>5.4</ele>
        <time>2020-08-17T11:36:32Z</time>
      </trkpt>
      <trkpt lat="48.69308" lon="-4.1222">
        <ele>5.4</ele>
        <time>2020-08-17T11:36:35Z</time>
      </trkpt>
      <trkpt lat="48.69304" lon="-4.12251">
        <ele>6.4</ele>
        <time>2020-08-17T11:36:41Z</time>
      </trkpt>
      <trkpt lat="48.69304" lon="-4.12251">
        <ele>6.4</ele>
        <time>2020-08-17T11:36:45Z</time>
      </trkpt>
      <trkpt lat="48.69305" lon="-4.12238">
        <ele>5.6</ele>
        <time>2020-08-17T11:36:53Z</time>
      </trkpt>
      <trkpt lat="48.69348" lon="-4.12247">
        <ele>5.1</ele>
        <time>2020-08-17T11:39:04Z</time>
      </trkpt>
      <trkpt lat="48.69348" lon="-4.12247">
        <ele>5.1</ele>
        <time>2020-08-17T11:39:16Z</time>
      </trkpt>
      <trkpt lat="48.69348" lon="-4.12247">
        <ele>5.1</ele>
        <time>2020-08-17T11:39:18Z</time>
      </trkpt>
      <trkpt lat="48.69348" lon="-4.12247">
        <ele>5.1</ele>
        <time>2020-08-17T11:39:26Z</time>
      </trkpt>
      <trkpt lat="48.69348" lon="-4.12247">
        <ele>5.1</ele>
        <time>2020-08-17T11:39:28Z</time>
      </trkpt>
      <trkpt lat="48.69348" lon="-4.12247">
        <ele>5.1</ele>
        <time>2020-08-17T12:08:27Z</time>
      </trkpt>
      <trkpt lat="48.69348" lon="-4.12247">
        <ele>5.1</ele>
        <time>2020-08-17T12:08:33Z</time>
      </trkpt>
      <trkpt lat="48.69348" lon="-4.12247">
        <ele>5.1</ele>
        <time>2020-08-17T12:08:41Z</time>
      </trkpt>
      <trkpt lat="48.6934" lon="-4.12243">
        <ele>5.4</ele>
        <time>2020-08-17T12:08:49Z</time>
      </trkpt>
      <trkpt lat="48.69327" lon="-4.12242">
        <ele>5.8</ele>
        <time>2020-08-17T12:08:57Z</time>
      </trkpt>
      <trkpt lat="48.69325" lon="-4.12242">
        <ele>5.7</ele>
        <time>2020-08-17T12:08:58Z</time>
      </trkpt>
      <trkpt lat="48.69319" lon="-4.12243">
        <ele>5.7</ele>
        <time>2020-08-17T12:09:03Z</time>
      </trkpt>
      <trkpt lat="48.69314" lon="-4.12244">
        <ele>5.7</ele>
        <time>2020-08-17T12:09:07Z</time>
      </trkpt>
      <trkpt lat="48.69304" lon="-4.12251">
        <ele>6.4</ele>
        <time>2020-08-17T12:09:14Z</time>
      </trkpt>
      <trkpt lat="48.69304" lon="-4.12251">
        <ele>6.4</ele>
        <time>2020-08-17T12:09:16Z</time>
      </trkpt>
      <trkpt lat="48.69304" lon="-4.12251">
        <ele>6.4</ele>
        <time>2020-08-17T12:09:54Z</time>
      </trkpt>
      <trkpt lat="48.69299" lon="-4.12256">
        <ele>6.4</ele>
        <time>2020-08-17T12:10:00Z</time>
      </trkpt>
      <trkpt lat="48.69282" lon="-4.12273">
        <ele>6.6</ele>
        <time>2020-08-17T12:10:11Z</time>
      </trkpt>
      <trkpt lat="48.69269" lon="-4.12285">
        <ele>6.7</ele>
        <time>2020-08-17T12:10:18Z</time>
      </trkpt>
      <trkpt lat="48.69254" lon="-4.12295">
        <ele>6.9</ele>
        <time>2020-08-17T12:10:25Z</time>
      </trkpt>
      <trkpt lat="48.69237" lon="-4.12299">
        <ele>7.7</ele>
        <time>2020-08-17T12:10:32Z</time>
      </trkpt>
      <trkpt lat="48.69218" lon="-4.12294">
        <ele>7.7</ele>
        <time>2020-08-17T12:10:39Z</time>
      </trkpt>
      <trkpt lat="48.69195" lon="-4.12285">
        <ele>7.8</ele>
        <time>2020-08-17T12:10:47Z</time>
      </trkpt>
      <trkpt lat="48.69169" lon="-4.12272">
        <ele>7.9</ele>
        <time>2020-08-17T12:10:56Z</time>
      </trkpt>
      <trkpt lat="48.6915" lon="-4.12268">
        <ele>7.4</ele>
        <time>2020-08-17T12:11:03Z</time>
      </trkpt>
      <trkpt lat="48.69134" lon="-4.12274">
        <ele>7.1</ele>
        <time>2020-08-17T12:11:08Z</time>
      </trkpt>
      <trkpt lat="48.69103" lon="-4.12302">
        <ele>6.7</ele>
        <time>2020-08-17T12:11:16Z</time>
      </trkpt>
      <trkpt lat="48.69077" lon="-4.12335">
        <ele>5.8</ele>
        <time>2020-08-17T12:11:23Z</time>
      </trkpt>
      <trkpt lat="48.69063" lon="-4.12352">
        <ele>5.5</ele>
        <time>2020-08-17T12:11:27Z</time>
      </trkpt>
      <trkpt lat="48.69037" lon="-4.12387">
        <ele>5.3</ele>
        <time>2020-08-17T12:11:36Z</time>
      </trkpt>
      <trkpt lat="48.69034" lon="-4.1239">
        <ele>5.3</ele>
        <time>2020-08-17T12:11:37Z</time>
      </trkpt>
      <trkpt lat="48.6903" lon="-4.1243">
        <ele>6.5</ele>
        <time>2020-08-17T12:11:45Z</time>
      </trkpt>
      <trkpt lat="48.69032" lon="-4.12463">
        <ele>6.9</ele>
        <time>2020-08-17T12:11:54Z</time>
      </trkpt>
      <trkpt lat="48.69036" lon="-4.12499">
        <ele>7.3</ele>
        <time>2020-08-17T12:12:04Z</time>
      </trkpt>
      <trkpt lat="48.69039" lon="-4.12526">
        <ele>8.2</ele>
        <time>2020-08-17T12:12:12Z</time>
      </trkpt>
      <trkpt lat="48.6904" lon="-4.1255">
        <ele>8.3</ele>
        <time>2020-08-17T12:12:19Z</time>
      </trkpt>
      <trkpt lat="48.69039" lon="-4.12585">
        <ele>8.2</ele>
        <time>2020-08-17T12:12:28Z</time>
      </trkpt>
      <trkpt lat="48.69037" lon="-4.12603">
        <ele>8.1</ele>
        <time>2020-08-17T12:12:36Z</time>
      </trkpt>
      <trkpt lat="48.69037" lon="-4.12603">
        <ele>8.1</ele>
        <time>2020-08-17T12:12:41Z</time>
      </trkpt>
      <trkpt lat="48.69037" lon="-4.12676">
        <ele>7.1</ele>
        <time>2020-08-17T12:12:50Z</time>
      </trkpt>
      <trkpt lat="48.6904" lon="-4.12728">
        <ele>6.9</ele>
        <time>2020-08-17T12:13:00Z</time>
      </trkpt>
      <trkpt lat="48.69048" lon="-4.1277">
        <ele>6.3</ele>
        <time>2020-08-17T12:13:08Z</time>
      </trkpt>
      <trkpt lat="48.69056" lon="-4.1281">
        <ele>6</ele>
        <time>2020-08-17T12:13:16Z</time>
      </trkpt>
      <trkpt lat="48.69064" lon="-4.12847">
        <ele>5.6</ele>
        <time>2020-08-17T12:13:23Z</time>
      </trkpt>
      <trkpt lat="48.69068" lon="-4.12867">
        <ele>5.7</ele>
        <time>2020-08-17T12:13:29Z</time>
      </trkpt>
      <trkpt lat="48.69073" lon="-4.12932">
        <ele>5.4</ele>
        <time>2020-08-17T12:13:39Z</time>
      </trkpt>
      <trkpt lat="48.69072" lon="-4.12984">
        <ele>5.4</ele>
        <time>2020-08-17T12:13:49Z</time>
      </trkpt>
      <trkpt lat="48.69071" lon="-4.1303">
        <ele>5.9</ele>
        <time>2020-08-17T12:13:58Z</time>
      </trkpt>
      <trkpt lat="48.6907" lon="-4.13074">
        <ele>6.2</ele>
        <time>2020-08-17T12:14:07Z</time>
      </trkpt>
      <trkpt lat="48.69068" lon="-4.13122">
        <ele>6.2</ele>
        <time>2020-08-17T12:14:16Z</time>
      </trkpt>
      <trkpt lat="48.69067" lon="-4.13164">
        <ele>5.7</ele>
        <time>2020-08-17T12:14:24Z</time>
      </trkpt>
      <trkpt lat="48.69067" lon="-4.13192">
        <ele>6</ele>
        <time>2020-08-17T12:14:30Z</time>
      </trkpt>
      <trkpt lat="48.69066" lon="-4.13223">
        <ele>6.3</ele>
        <time>2020-08-17T12:14:37Z</time>
      </trkpt>
      <trkpt lat="48.69064" lon="-4.13263">
        <ele>6.8</ele>
        <time>2020-08-17T12:14:46Z</time>
      </trkpt>
      <trkpt lat="48.69062" lon="-4.13295">
        <ele>7.1</ele>
        <time>2020-08-17T12:14:53Z</time>
      </trkpt>
      <trkpt lat="48.6906" lon="-4.13323">
        <ele>7.2</ele>
        <time>2020-08-17T12:14:59Z</time>
      </trkpt>
      <trkpt lat="48.69056" lon="-4.13375">
        <ele>7.9</ele>
        <time>2020-08-17T12:15:09Z</time>
      </trkpt>
      <trkpt lat="48.69052" lon="-4.13425">
        <ele>8.4</ele>
        <time>2020-08-17T12:15:18Z</time>
      </trkpt>
      <trkpt lat="48.69047" lon="-4.13482">
        <ele>8.5</ele>
        <time>2020-08-17T12:15:29Z</time>
      </trkpt>
      <trkpt lat="48.69043" lon="-4.13532">
        <ele>8.3</ele>
        <time>2020-08-17T12:15:39Z</time>
      </trkpt>
      <trkpt lat="48.69036" lon="-4.13579">
        <ele>8.2</ele>
        <time>2020-08-17T12:15:49Z</time>
      </trkpt>
      <trkpt lat="48.69027" lon="-4.13623">
        <ele>7.5</ele>
        <time>2020-08-17T12:15:58Z</time>
      </trkpt>
      <trkpt lat="48.69019" lon="-4.13672">
        <ele>6.9</ele>
        <time>2020-08-17T12:16:07Z</time>
      </trkpt>
      <trkpt lat="48.69011" lon="-4.13724">
        <ele>6.5</ele>
        <time>2020-08-17T12:16:16Z</time>
      </trkpt>
      <trkpt lat="48.69" lon="-4.13779">
        <ele>5.8</ele>
        <time>2020-08-17T12:16:25Z</time>
      </trkpt>
      <trkpt lat="48.68994" lon="-4.13803">
        <ele>5.6</ele>
        <time>2020-08-17T12:16:29Z</time>
      </trkpt>
      <trkpt lat="48.68987" lon="-4.13827">
        <ele>5.3</ele>
        <time>2020-08-17T12:16:33Z</time>
      </trkpt>
      <trkpt lat="48.68983" lon="-4.13839">
        <ele>5.3</ele>
        <time>2020-08-17T12:16:35Z</time>
      </trkpt>
      <trkpt lat="48.68978" lon="-4.13851">
        <ele>5.3</ele>
        <time>2020-08-17T12:16:37Z</time>
      </trkpt>
      <trkpt lat="48.68956" lon="-4.13894">
        <ele>5.5</ele>
        <time>2020-08-17T12:16:45Z</time>
      </trkpt>
      <trkpt lat="48.68934" lon="-4.13936">
        <ele>5.3</ele>
        <time>2020-08-17T12:16:53Z</time>
      </trkpt>
      <trkpt lat="48.68914" lon="-4.13979">
        <ele>4.6</ele>
        <time>2020-08-17T12:17:01Z</time>
      </trkpt>
      <trkpt lat="48.68899" lon="-4.14028">
        <ele>4.4</ele>
        <time>2020-08-17T12:17:09Z</time>
      </trkpt>
      <trkpt lat="48.68892" lon="-4.1407">
        <ele>4.4</ele>
        <time>2020-08-17T12:17:15Z</time>
      </trkpt>
      <trkpt lat="48.68895" lon="-4.14126">
        <ele>4.2</ele>
        <time>2020-08-17T12:17:23Z</time>
      </trkpt>
      <trkpt lat="48.68908" lon="-4.14198">
        <ele>3.6</ele>
        <time>2020-08-17T12:17:33Z</time>
      </trkpt>
      <trkpt lat="48.68918" lon="-4.14255">
        <ele>3.1</ele>
        <time>2020-08-17T12:17:41Z</time>
      </trkpt>
      <trkpt lat="48.68935" lon="-4.14353">
        <ele>3.8</ele>
        <time>2020-08-17T12:17:54Z</time>
      </trkpt>
      <trkpt lat="48.6895" lon="-4.14443">
        <ele>3.2</ele>
        <time>2020-08-17T12:18:07Z</time>
      </trkpt>
      <trkpt lat="48.68958" lon="-4.14491">
        <ele>3.2</ele>
        <time>2020-08-17T12:18:15Z</time>
      </trkpt>
      <trkpt lat="48.68968" lon="-4.14554">
        <ele>3.7</ele>
        <time>2020-08-17T12:18:26Z</time>
      </trkpt>
      <trkpt lat="48.68975" lon="-4.14588">
        <ele>4.7</ele>
        <time>2020-08-17T12:18:33Z</time>
      </trkpt>
      <trkpt lat="48.68982" lon="-4.14615">
        <ele>4.9</ele>
        <time>2020-08-17T12:18:40Z</time>
      </trkpt>
      <trkpt lat="48.68986" lon="-4.14636">
        <ele>5.1</ele>
        <time>2020-08-17T12:18:46Z</time>
      </trkpt>
      <trkpt lat="48.6899" lon="-4.14662">
        <ele>5.6</ele>
        <time>2020-08-17T12:18:53Z</time>
      </trkpt>
      <trkpt lat="48.68994" lon="-4.14705">
        <ele>6.3</ele>
        <time>2020-08-17T12:19:05Z</time>
      </trkpt>
      <trkpt lat="48.68994" lon="-4.14731">
        <ele>6.6</ele>
        <time>2020-08-17T12:19:12Z</time>
      </trkpt>
      <trkpt lat="48.68992" lon="-4.14763">
        <ele>6.9</ele>
        <time>2020-08-17T12:19:21Z</time>
      </trkpt>
      <trkpt lat="48.6899" lon="-4.14791">
        <ele>6.7</ele>
        <time>2020-08-17T12:19:28Z</time>
      </trkpt>
      <trkpt lat="48.68986" lon="-4.14825">
        <ele>6.4</ele>
        <time>2020-08-17T12:19:36Z</time>
      </trkpt>
      <trkpt lat="48.68979" lon="-4.1487">
        <ele>6.7</ele>
        <time>2020-08-17T12:19:45Z</time>
      </trkpt>
      <trkpt lat="48.68976" lon="-4.14925">
        <ele>7</ele>
        <time>2020-08-17T12:19:55Z</time>
      </trkpt>
      <trkpt lat="48.68976" lon="-4.14931">
        <ele>7</ele>
        <time>2020-08-17T12:19:56Z</time>
      </trkpt>
      <trkpt lat="48.68976" lon="-4.14978">
        <ele>6.8</ele>
        <time>2020-08-17T12:20:04Z</time>
      </trkpt>
      <trkpt lat="48.68978" lon="-4.15022">
        <ele>7.3</ele>
        <time>2020-08-17T12:20:13Z</time>
      </trkpt>
      <trkpt lat="48.68979" lon="-4.15064">
        <ele>7.8</ele>
        <time>2020-08-17T12:20:23Z</time>
      </trkpt>
      <trkpt lat="48.6898" lon="-4.15099">
        <ele>8.5</ele>
        <time>2020-08-17T12:20:32Z</time>
      </trkpt>
      <trkpt lat="48.68981" lon="-4.1513">
        <ele>8.7</ele>
        <time>2020-08-17T12:20:39Z</time>
      </trkpt>
      <trkpt lat="48.68981" lon="-4.15169">
        <ele>9</ele>
        <time>2020-08-17T12:20:47Z</time>
      </trkpt>
      <trkpt lat="48.68981" lon="-4.1521">
        <ele>9.1</ele>
        <time>2020-08-17T12:20:55Z</time>
      </trkpt>
      <trkpt lat="48.68981" lon="-4.1525">
        <ele>9.4</ele>
        <time>2020-08-17T12:21:03Z</time>
      </trkpt>
      <trkpt lat="48.68979" lon="-4.15304">
        <ele>8.9</ele>
        <time>2020-08-17T12:21:14Z</time>
      </trkpt>
      <trkpt lat="48.68977" lon="-4.15349">
        <ele>8.8</ele>
        <time>2020-08-17T12:21:22Z</time>
      </trkpt>
      <trkpt lat="48.68974" lon="-4.15418">
        <ele>9.8</ele>
        <time>2020-08-17T12:21:34Z</time>
      </trkpt>
      <trkpt lat="48.68971" lon="-4.15464">
        <ele>10.2</ele>
        <time>2020-08-17T12:21:43Z</time>
      </trkpt>
      <trkpt lat="48.68968" lon="-4.15502">
        <ele>11.5</ele>
        <time>2020-08-17T12:21:50Z</time>
      </trkpt>
      <trkpt lat="48.68966" lon="-4.15539">
        <ele>11.5</ele>
        <time>2020-08-17T12:21:57Z</time>
      </trkpt>
      <trkpt lat="48.68956" lon="-4.15585">
        <ele>11.2</ele>
        <time>2020-08-17T12:22:06Z</time>
      </trkpt>
      <trkpt lat="48.68942" lon="-4.15636">
        <ele>10.6</ele>
        <time>2020-08-17T12:22:15Z</time>
      </trkpt>
      <trkpt lat="48.68929" lon="-4.15684">
        <ele>8.9</ele>
        <time>2020-08-17T12:22:24Z</time>
      </trkpt>
      <trkpt lat="48.68913" lon="-4.15742">
        <ele>8.8</ele>
        <time>2020-08-17T12:22:34Z</time>
      </trkpt>
      <trkpt lat="48.68899" lon="-4.15794">
        <ele>9</ele>
        <time>2020-08-17T12:22:42Z</time>
      </trkpt>
      <trkpt lat="48.68889" lon="-4.15862">
        <ele>8.5</ele>
        <time>2020-08-17T12:22:52Z</time>
      </trkpt>
      <trkpt lat="48.68884" lon="-4.1591">
        <ele>8.1</ele>
        <time>2020-08-17T12:22:59Z</time>
      </trkpt>
      <trkpt lat="48.68881" lon="-4.15947">
        <ele>8</ele>
        <time>2020-08-17T12:23:05Z</time>
      </trkpt>
      <trkpt lat="48.68878" lon="-4.15974">
        <ele>8.1</ele>
        <time>2020-08-17T12:23:11Z</time>
      </trkpt>
      <trkpt lat="48.68874" lon="-4.15998">
        <ele>8.2</ele>
        <time>2020-08-17T12:23:18Z</time>
      </trkpt>
      <trkpt lat="48.68867" lon="-4.16042">
        <ele>9.2</ele>
        <time>2020-08-17T12:23:28Z</time>
      </trkpt>
      <trkpt lat="48.68861" lon="-4.1608">
        <ele>9.3</ele>
        <time>2020-08-17T12:23:36Z</time>
      </trkpt>
      <trkpt lat="48.68855" lon="-4.16116">
        <ele>9.6</ele>
        <time>2020-08-17T12:23:43Z</time>
      </trkpt>
      <trkpt lat="48.68849" lon="-4.16157">
        <ele>9.4</ele>
        <time>2020-08-17T12:23:50Z</time>
      </trkpt>
      <trkpt lat="48.68847" lon="-4.16174">
        <ele>9.2</ele>
        <time>2020-08-17T12:23:53Z</time>
      </trkpt>
      <trkpt lat="48.68835" lon="-4.16244">
        <ele>8.3</ele>
        <time>2020-08-17T12:24:05Z</time>
      </trkpt>
      <trkpt lat="48.68823" lon="-4.16307">
        <ele>7.1</ele>
        <time>2020-08-17T12:24:15Z</time>
      </trkpt>
      <trkpt lat="48.6881" lon="-4.16381">
        <ele>6.7</ele>
        <time>2020-08-17T12:24:26Z</time>
      </trkpt>
      <trkpt lat="48.68799" lon="-4.16446">
        <ele>6.8</ele>
        <time>2020-08-17T12:24:36Z</time>
      </trkpt>
      <trkpt lat="48.68792" lon="-4.16486">
        <ele>6.8</ele>
        <time>2020-08-17T12:24:43Z</time>
      </trkpt>
      <trkpt lat="48.68785" lon="-4.16529">
        <ele>6.3</ele>
        <time>2020-08-17T12:24:51Z</time>
      </trkpt>
      <trkpt lat="48.68777" lon="-4.16581">
        <ele>6.3</ele>
        <time>2020-08-17T12:25:00Z</time>
      </trkpt>
      <trkpt lat="48.68769" lon="-4.16629">
        <ele>5.7</ele>
        <time>2020-08-17T12:25:08Z</time>
      </trkpt>
      <trkpt lat="48.68765" lon="-4.1668">
        <ele>6.1</ele>
        <time>2020-08-17T12:25:16Z</time>
      </trkpt>
      <trkpt lat="48.68761" lon="-4.16723">
        <ele>6.1</ele>
        <time>2020-08-17T12:25:23Z</time>
      </trkpt>
      <trkpt lat="48.68746" lon="-4.16781">
        <ele>6.7</ele>
        <time>2020-08-17T12:25:33Z</time>
      </trkpt>
      <trkpt lat="48.68725" lon="-4.16844">
        <ele>5.8</ele>
        <time>2020-08-17T12:25:44Z</time>
      </trkpt>
      <trkpt lat="48.68703" lon="-4.16891">
        <ele>5.1</ele>
        <time>2020-08-17T12:25:53Z</time>
      </trkpt>
      <trkpt lat="48.68678" lon="-4.16928">
        <ele>4.2</ele>
        <time>2020-08-17T12:26:02Z</time>
      </trkpt>
      <trkpt lat="48.68668" lon="-4.16933">
        <ele>4.2</ele>
        <time>2020-08-17T12:26:07Z</time>
      </trkpt>
      <trkpt lat="48.6866" lon="-4.16969">
        <ele>4.2</ele>
        <time>2020-08-17T12:26:13Z</time>
      </trkpt>
      <trkpt lat="48.68649" lon="-4.17004">
        <ele>2.7</ele>
        <time>2020-08-17T12:26:22Z</time>
      </trkpt>
      <trkpt lat="48.68639" lon="-4.17026">
        <ele>3.1</ele>
        <time>2020-08-17T12:26:29Z</time>
      </trkpt>
      <trkpt lat="48.68631" lon="-4.17044">
        <ele>3.1</ele>
        <time>2020-08-17T12:26:35Z</time>
      </trkpt>
      <trkpt lat="48.68627" lon="-4.17051">
        <ele>3.1</ele>
        <time>2020-08-17T12:26:40Z</time>
      </trkpt>
      <trkpt lat="48.68626" lon="-4.17053">
        <ele>3.1</ele>
        <time>2020-08-17T12:27:45Z</time>
      </trkpt>
      <trkpt lat="48.6862" lon="-4.17064">
        <ele>3.2</ele>
        <time>2020-08-17T12:27:52Z</time>
      </trkpt>
      <trkpt lat="48.68611" lon="-4.1708">
        <ele>3.3</ele>
        <time>2020-08-17T12:27:58Z</time>
      </trkpt>
      <trkpt lat="48.68596" lon="-4.17103">
        <ele>2.9</ele>
        <time>2020-08-17T12:28:05Z</time>
      </trkpt>
      <trkpt lat="48.68589" lon="-4.17128">
        <ele>2.7</ele>
        <time>2020-08-17T12:28:10Z</time>
      </trkpt>
      <trkpt lat="48.68577" lon="-4.17177">
        <ele>3.4</ele>
        <time>2020-08-17T12:28:18Z</time>
      </trkpt>
      <trkpt lat="48.6857" lon="-4.17215">
        <ele>3.7</ele>
        <time>2020-08-17T12:28:24Z</time>
      </trkpt>
      <trkpt lat="48.68569" lon="-4.17221">
        <ele>3.7</ele>
        <time>2020-08-17T12:28:25Z</time>
      </trkpt>
      <trkpt lat="48.68563" lon="-4.17264">
        <ele>4</ele>
        <time>2020-08-17T12:28:33Z</time>
      </trkpt>
      <trkpt lat="48.6855" lon="-4.17295">
        <ele>4.4</ele>
        <time>2020-08-17T12:28:39Z</time>
      </trkpt>
      <trkpt lat="48.68537" lon="-4.17302">
        <ele>4.6</ele>
        <time>2020-08-17T12:28:43Z</time>
      </trkpt>
      <trkpt lat="48.6851" lon="-4.17294">
        <ele>4.8</ele>
        <time>2020-08-17T12:28:50Z</time>
      </trkpt>
      <trkpt lat="48.6849" lon="-4.17287">
        <ele>6</ele>
        <time>2020-08-17T12:28:55Z</time>
      </trkpt>
      <trkpt lat="48.68459" lon="-4.17274">
        <ele>6.2</ele>
        <time>2020-08-17T12:29:03Z</time>
      </trkpt>
      <trkpt lat="48.68416" lon="-4.17259">
        <ele>7.1</ele>
        <time>2020-08-17T12:29:14Z</time>
      </trkpt>
      <trkpt lat="48.68383" lon="-4.17247">
        <ele>6.8</ele>
        <time>2020-08-17T12:29:22Z</time>
      </trkpt>
      <trkpt lat="48.68355" lon="-4.17246">
        <ele>6.9</ele>
        <time>2020-08-17T12:29:29Z</time>
      </trkpt>
      <trkpt lat="48.68327" lon="-4.1725">
        <ele>7.2</ele>
        <time>2020-08-17T12:29:35Z</time>
      </trkpt>
      <trkpt lat="48.68319" lon="-4.17283">
        <ele>7.8</ele>
        <time>2020-08-17T12:29:42Z</time>
      </trkpt>
      <trkpt lat="48.68306" lon="-4.17324">
        <ele>8.1</ele>
        <time>2020-08-17T12:29:51Z</time>
      </trkpt>
      <trkpt lat="48.68293" lon="-4.17356">
        <ele>9.9</ele>
        <time>2020-08-17T12:29:59Z</time>
      </trkpt>
      <trkpt lat="48.68279" lon="-4.17388">
        <ele>10.6</ele>
        <time>2020-08-17T12:30:08Z</time>
      </trkpt>
      <trkpt lat="48.68259" lon="-4.17421">
        <ele>12.2</ele>
        <time>2020-08-17T12:30:18Z</time>
      </trkpt>
      <trkpt lat="48.68245" lon="-4.17459">
        <ele>12.5</ele>
        <time>2020-08-17T12:30:28Z</time>
      </trkpt>
      <trkpt lat="48.68235" lon="-4.17495">
        <ele>12.8</ele>
        <time>2020-08-17T12:30:37Z</time>
      </trkpt>
      <trkpt lat="48.68228" lon="-4.17531">
        <ele>13</ele>
        <time>2020-08-17T12:30:45Z</time>
      </trkpt>
      <trkpt lat="48.6822" lon="-4.17563">
        <ele>13</ele>
        <time>2020-08-17T12:30:52Z</time>
      </trkpt>
      <trkpt lat="48.68212" lon="-4.1758">
        <ele>13</ele>
        <time>2020-08-17T12:31:03Z</time>
      </trkpt>
      <trkpt lat="48.68162" lon="-4.1765">
        <ele>14.1</ele>
        <time>2020-08-17T12:31:15Z</time>
      </trkpt>
      <trkpt lat="48.68144" lon="-4.17667">
        <ele>14.6</ele>
        <time>2020-08-17T12:31:21Z</time>
      </trkpt>
      <trkpt lat="48.68124" lon="-4.17679">
        <ele>14.9</ele>
        <time>2020-08-17T12:31:27Z</time>
      </trkpt>
      <trkpt lat="48.68114" lon="-4.17685">
        <ele>14.9</ele>
        <time>2020-08-17T12:31:31Z</time>
      </trkpt>
      <trkpt lat="48.68108" lon="-4.17689">
        <ele>15</ele>
        <time>2020-08-17T12:31:37Z</time>
      </trkpt>
      <trkpt lat="48.68111" lon="-4.17705">
        <ele>15.1</ele>
        <time>2020-08-17T12:32:08Z</time>
      </trkpt>
      <trkpt lat="48.68126" lon="-4.17714">
        <ele>15</ele>
        <time>2020-08-17T12:32:15Z</time>
      </trkpt>
      <trkpt lat="48.68146" lon="-4.17729">
        <ele>15</ele>
        <time>2020-08-17T12:32:23Z</time>
      </trkpt>
      <trkpt lat="48.68165" lon="-4.17749">
        <ele>15</ele>
        <time>2020-08-17T12:32:31Z</time>
      </trkpt>
      <trkpt lat="48.68176" lon="-4.17768">
        <ele>14.9</ele>
        <time>2020-08-17T12:32:37Z</time>
      </trkpt>
      <trkpt lat="48.68184" lon="-4.17795">
        <ele>15.1</ele>
        <time>2020-08-17T12:32:44Z</time>
      </trkpt>
      <trkpt lat="48.68192" lon="-4.17829">
        <ele>15.5</ele>
        <time>2020-08-17T12:32:53Z</time>
      </trkpt>
      <trkpt lat="48.68198" lon="-4.17868">
        <ele>16.6</ele>
        <time>2020-08-17T12:33:03Z</time>
      </trkpt>
      <trkpt lat="48.68206" lon="-4.17898">
        <ele>16.8</ele>
        <time>2020-08-17T12:33:11Z</time>
      </trkpt>
      <trkpt lat="48.68217" lon="-4.1793">
        <ele>17.5</ele>
        <time>2020-08-17T12:33:20Z</time>
      </trkpt>
      <trkpt lat="48.68226" lon="-4.17973">
        <ele>17.5</ele>
        <time>2020-08-17T12:33:30Z</time>
      </trkpt>
      <trkpt lat="48.68231" lon="-4.18011">
        <ele>17.3</ele>
        <time>2020-08-17T12:33:38Z</time>
      </trkpt>
      <trkpt lat="48.68237" lon="-4.18057">
        <ele>17</ele>
        <time>2020-08-17T12:33:48Z</time>
      </trkpt>
      <trkpt lat="48.68245" lon="-4.18096">
        <ele>16.2</ele>
        <time>2020-08-17T12:33:56Z</time>
      </trkpt>
      <trkpt lat="48.68261" lon="-4.18111">
        <ele>14.7</ele>
        <time>2020-08-17T12:34:00Z</time>
      </trkpt>
      <trkpt lat="48.68266" lon="-4.18111">
        <ele>14.6</ele>
        <time>2020-08-17T12:34:01Z</time>
      </trkpt>
      <trkpt lat="48.68281" lon="-4.1812">
        <ele>14.2</ele>
        <time>2020-08-17T12:34:05Z</time>
      </trkpt>
      <trkpt lat="48.68284" lon="-4.18147">
        <ele>14</ele>
        <time>2020-08-17T12:34:09Z</time>
      </trkpt>
      <trkpt lat="48.6828" lon="-4.18219">
        <ele>12.8</ele>
        <time>2020-08-17T12:34:19Z</time>
      </trkpt>
      <trkpt lat="48.68275" lon="-4.18282">
        <ele>11.4</ele>
        <time>2020-08-17T12:34:29Z</time>
      </trkpt>
      <trkpt lat="48.6827" lon="-4.18339">
        <ele>10.4</ele>
        <time>2020-08-17T12:34:38Z</time>
      </trkpt>
      <trkpt lat="48.68264" lon="-4.18393">
        <ele>9.3</ele>
        <time>2020-08-17T12:34:45Z</time>
      </trkpt>
      <trkpt lat="48.68256" lon="-4.18448">
        <ele>9.2</ele>
        <time>2020-08-17T12:34:52Z</time>
      </trkpt>
      <trkpt lat="48.68248" lon="-4.18505">
        <ele>10.2</ele>
        <time>2020-08-17T12:35:00Z</time>
      </trkpt>
      <trkpt lat="48.68237" lon="-4.18551">
        <ele>11</ele>
        <time>2020-08-17T12:35:08Z</time>
      </trkpt>
      <trkpt lat="48.68222" lon="-4.1858">
        <ele>11.2</ele>
        <time>2020-08-17T12:35:16Z</time>
      </trkpt>
      <trkpt lat="48.68204" lon="-4.18623">
        <ele>11</ele>
        <time>2020-08-17T12:35:26Z</time>
      </trkpt>
      <trkpt lat="48.6818" lon="-4.18664">
        <ele>11</ele>
        <time>2020-08-17T12:35:36Z</time>
      </trkpt>
      <trkpt lat="48.68166" lon="-4.18714">
        <ele>10.3</ele>
        <time>2020-08-17T12:35:45Z</time>
      </trkpt>
      <trkpt lat="48.68158" lon="-4.18745">
        <ele>10.1</ele>
        <time>2020-08-17T12:35:50Z</time>
      </trkpt>
      <trkpt lat="48.68142" lon="-4.1877">
        <ele>9.6</ele>
        <time>2020-08-17T12:35:55Z</time>
      </trkpt>
      <trkpt lat="48.68134" lon="-4.18776">
        <ele>9.6</ele>
        <time>2020-08-17T12:35:57Z</time>
      </trkpt>
      <trkpt lat="48.6812" lon="-4.18779">
        <ele>9.6</ele>
        <time>2020-08-17T12:36:00Z</time>
      </trkpt>
      <trkpt lat="48.68094" lon="-4.18792">
        <ele>9.7</ele>
        <time>2020-08-17T12:36:05Z</time>
      </trkpt>
      <trkpt lat="48.68082" lon="-4.18816">
        <ele>10.2</ele>
        <time>2020-08-17T12:36:08Z</time>
      </trkpt>
      <trkpt lat="48.68084" lon="-4.18799">
        <ele>9.7</ele>
        <time>2020-08-17T12:36:11Z</time>
      </trkpt>
      <trkpt lat="48.68085" lon="-4.18799">
        <ele>9.7</ele>
        <time>2020-08-17T12:36:12Z</time>
      </trkpt>
      <trkpt lat="48.68139" lon="-4.18861">
        <ele>8.8</ele>
        <time>2020-08-17T12:36:22Z</time>
      </trkpt>
      <trkpt lat="48.68172" lon="-4.18886">
        <ele>7.7</ele>
        <time>2020-08-17T12:36:29Z</time>
      </trkpt>
      <trkpt lat="48.68203" lon="-4.18915">
        <ele>7.5</ele>
        <time>2020-08-17T12:36:36Z</time>
      </trkpt>
      <trkpt lat="48.68238" lon="-4.1895">
        <ele>6.5</ele>
        <time>2020-08-17T12:36:46Z</time>
      </trkpt>
      <trkpt lat="48.68255" lon="-4.18963">
        <ele>4.7</ele>
        <time>2020-08-17T12:36:52Z</time>
      </trkpt>
      <trkpt lat="48.68259" lon="-4.18964">
        <ele>4.7</ele>
        <time>2020-08-17T12:36:54Z</time>
      </trkpt>
      <trkpt lat="48.68265" lon="-4.18963">
        <ele>4.7</ele>
        <time>2020-08-17T12:36:58Z</time>
      </trkpt>
      <trkpt lat="48.68261" lon="-4.18964">
        <ele>4.7</ele>
        <time>2020-08-17T12:37:02Z</time>
      </trkpt>
      <trkpt lat="48.68248" lon="-4.18959">
        <ele>6.3</ele>
        <time>2020-08-17T12:37:08Z</time>
      </trkpt>
      <trkpt lat="48.68233" lon="-4.18945">
        <ele>6.6</ele>
        <time>2020-08-17T12:37:14Z</time>
      </trkpt>
      <trkpt lat="48.68214" lon="-4.18926">
        <ele>6.9</ele>
        <time>2020-08-17T12:37:21Z</time>
      </trkpt>
      <trkpt lat="48.68197" lon="-4.18909">
        <ele>7.6</ele>
        <time>2020-08-17T12:37:27Z</time>
      </trkpt>
      <trkpt lat="48.68172" lon="-4.18886">
        <ele>7.7</ele>
        <time>2020-08-17T12:37:35Z</time>
      </trkpt>
      <trkpt lat="48.68137" lon="-4.18859">
        <ele>8.8</ele>
        <time>2020-08-17T12:37:46Z</time>
      </trkpt>
      <trkpt lat="48.68107" lon="-4.18841">
        <ele>9.3</ele>
        <time>2020-08-17T12:37:55Z</time>
      </trkpt>
      <trkpt lat="48.68087" lon="-4.18826">
        <ele>9.8</ele>
        <time>2020-08-17T12:38:01Z</time>
      </trkpt>
      <trkpt lat="48.68078" lon="-4.18823">
        <ele>10.2</ele>
        <time>2020-08-17T12:38:05Z</time>
      </trkpt>
      <trkpt lat="48.68086" lon="-4.18824">
        <ele>9.8</ele>
        <time>2020-08-17T12:38:08Z</time>
      </trkpt>
      <trkpt lat="48.68098" lon="-4.18835">
        <ele>9.5</ele>
        <time>2020-08-17T12:38:16Z</time>
      </trkpt>
      <trkpt lat="48.68117" lon="-4.18847">
        <ele>9.1</ele>
        <time>2020-08-17T12:38:23Z</time>
      </trkpt>
      <trkpt lat="48.68139" lon="-4.18861">
        <ele>8.8</ele>
        <time>2020-08-17T12:38:29Z</time>
      </trkpt>
      <trkpt lat="48.68159" lon="-4.18876">
        <ele>8.7</ele>
        <time>2020-08-17T12:38:34Z</time>
      </trkpt>
      <trkpt lat="48.68138" lon="-4.18961">
        <ele>8.8</ele>
        <time>2020-08-17T12:38:38Z</time>
      </trkpt>
      <trkpt lat="48.68132" lon="-4.18986">
        <ele>8.9</ele>
        <time>2020-08-17T12:38:44Z</time>
      </trkpt>
      <trkpt lat="48.68117" lon="-4.19011">
        <ele>8.8</ele>
        <time>2020-08-17T12:38:52Z</time>
      </trkpt>
      <trkpt lat="48.68102" lon="-4.19033">
        <ele>8.8</ele>
        <time>2020-08-17T12:38:59Z</time>
      </trkpt>
      <trkpt lat="48.6808" lon="-4.1907">
        <ele>9.4</ele>
        <time>2020-08-17T12:39:08Z</time>
      </trkpt>
      <trkpt lat="48.68064" lon="-4.19118">
        <ele>9.6</ele>
        <time>2020-08-17T12:39:17Z</time>
      </trkpt>
      <trkpt lat="48.68056" lon="-4.19152">
        <ele>9.8</ele>
        <time>2020-08-17T12:39:23Z</time>
      </trkpt>
      <trkpt lat="48.68058" lon="-4.19177">
        <ele>10.1</ele>
        <time>2020-08-17T12:39:27Z</time>
      </trkpt>
      <trkpt lat="48.68064" lon="-4.19197">
        <ele>10.2</ele>
        <time>2020-08-17T12:39:31Z</time>
      </trkpt>
      <trkpt lat="48.68069" lon="-4.19214">
        <ele>10.2</ele>
        <time>2020-08-17T12:39:35Z</time>
      </trkpt>
      <trkpt lat="48.68064" lon="-4.19214">
        <ele>10.2</ele>
        <time>2020-08-17T12:39:37Z</time>
      </trkpt>
      <trkpt lat="48.68039" lon="-4.19213">
        <ele>10.3</ele>
        <time>2020-08-17T12:39:45Z</time>
      </trkpt>
      <trkpt lat="48.68013" lon="-4.19212">
        <ele>10.4</ele>
        <time>2020-08-17T12:39:52Z</time>
      </trkpt>
      <trkpt lat="48.67988" lon="-4.19232">
        <ele>11.1</ele>
        <time>2020-08-17T12:40:00Z</time>
      </trkpt>
      <trkpt lat="48.67952" lon="-4.1927">
        <ele>11</ele>
        <time>2020-08-17T12:40:11Z</time>
      </trkpt>
      <trkpt lat="48.6794" lon="-4.19279">
        <ele>11</ele>
        <time>2020-08-17T12:40:15Z</time>
      </trkpt>
      <trkpt lat="48.67925" lon="-4.19317">
        <ele>10.9</ele>
        <time>2020-08-17T12:40:22Z</time>
      </trkpt>
      <trkpt lat="48.67893" lon="-4.19366">
        <ele>11.1</ele>
        <time>2020-08-17T12:40:34Z</time>
      </trkpt>
      <trkpt lat="48.67868" lon="-4.19399">
        <ele>11.3</ele>
        <time>2020-08-17T12:40:44Z</time>
      </trkpt>
      <trkpt lat="48.67848" lon="-4.19428">
        <ele>11.1</ele>
        <time>2020-08-17T12:40:53Z</time>
      </trkpt>
      <trkpt lat="48.67825" lon="-4.19461">
        <ele>11.8</ele>
        <time>2020-08-17T12:41:02Z</time>
      </trkpt>
      <trkpt lat="48.67808" lon="-4.19487">
        <ele>11.8</ele>
        <time>2020-08-17T12:41:08Z</time>
      </trkpt>
      <trkpt lat="48.67801" lon="-4.19498">
        <ele>11.7</ele>
        <time>2020-08-17T12:41:10Z</time>
      </trkpt>
      <trkpt lat="48.67769" lon="-4.19545">
        <ele>10.5</ele>
        <time>2020-08-17T12:41:19Z</time>
      </trkpt>
      <trkpt lat="48.6774" lon="-4.19585">
        <ele>9.2</ele>
        <time>2020-08-17T12:41:26Z</time>
      </trkpt>
      <trkpt lat="48.67703" lon="-4.19633">
        <ele>7.6</ele>
        <time>2020-08-17T12:41:34Z</time>
      </trkpt>
      <trkpt lat="48.67676" lon="-4.19674">
        <ele>5.9</ele>
        <time>2020-08-17T12:41:40Z</time>
      </trkpt>
      <trkpt lat="48.67661" lon="-4.19708">
        <ele>6.3</ele>
        <time>2020-08-17T12:41:45Z</time>
      </trkpt>
      <trkpt lat="48.67652" lon="-4.1974">
        <ele>6.6</ele>
        <time>2020-08-17T12:41:50Z</time>
      </trkpt>
      <trkpt lat="48.6764" lon="-4.19778">
        <ele>6.8</ele>
        <time>2020-08-17T12:41:57Z</time>
      </trkpt>
      <trkpt lat="48.67628" lon="-4.19824">
        <ele>6.8</ele>
        <time>2020-08-17T12:42:06Z</time>
      </trkpt>
      <trkpt lat="48.67624" lon="-4.1984">
        <ele>6.2</ele>
        <time>2020-08-17T12:42:10Z</time>
      </trkpt>
      <trkpt lat="48.67619" lon="-4.19856">
        <ele>6.1</ele>
        <time>2020-08-17T12:42:16Z</time>
      </trkpt>
      <trkpt lat="48.67616" lon="-4.19868">
        <ele>6</ele>
        <time>2020-08-17T12:42:24Z</time>
      </trkpt>
      <trkpt lat="48.67607" lon="-4.19915">
        <ele>6</ele>
        <time>2020-08-17T12:42:33Z</time>
      </trkpt>
      <trkpt lat="48.67602" lon="-4.19938">
        <ele>5</ele>
        <time>2020-08-17T12:42:41Z</time>
      </trkpt>
      <trkpt lat="48.67601" lon="-4.19943">
        <ele>4.9</ele>
        <time>2020-08-17T12:42:43Z</time>
      </trkpt>
      <trkpt lat="48.67599" lon="-4.19954">
        <ele>4.7</ele>
        <time>2020-08-17T12:42:49Z</time>
      </trkpt>
      <trkpt lat="48.67599" lon="-4.19957">
        <ele>4.7</ele>
        <time>2020-08-17T12:43:34Z</time>
      </trkpt>
      <trkpt lat="48.67596" lon="-4.19975">
        <ele>4.8</ele>
        <time>2020-08-17T12:43:40Z</time>
      </trkpt>
      <trkpt lat="48.67595" lon="-4.20003">
        <ele>5.4</ele>
        <time>2020-08-17T12:43:47Z</time>
      </trkpt>
      <trkpt lat="48.67593" lon="-4.20031">
        <ele>5</ele>
        <time>2020-08-17T12:43:54Z</time>
      </trkpt>
      <trkpt lat="48.67592" lon="-4.20051">
        <ele>5.1</ele>
        <time>2020-08-17T12:44:00Z</time>
      </trkpt>
      <trkpt lat="48.67588" lon="-4.20072">
        <ele>5.6</ele>
        <time>2020-08-17T12:44:07Z</time>
      </trkpt>
      <trkpt lat="48.67581" lon="-4.20092">
        <ele>6</ele>
        <time>2020-08-17T12:44:13Z</time>
      </trkpt>
      <trkpt lat="48.6757" lon="-4.20117">
        <ele>5.7</ele>
        <time>2020-08-17T12:44:20Z</time>
      </trkpt>
      <trkpt lat="48.67549" lon="-4.20146">
        <ele>5.6</ele>
        <time>2020-08-17T12:44:29Z</time>
      </trkpt>
      <trkpt lat="48.67532" lon="-4.2017">
        <ele>5.6</ele>
        <time>2020-08-17T12:44:37Z</time>
      </trkpt>
      <trkpt lat="48.67525" lon="-4.20184">
        <ele>5.8</ele>
        <time>2020-08-17T12:44:43Z</time>
      </trkpt>
      <trkpt lat="48.67525" lon="-4.20184">
        <ele>5.8</ele>
        <time>2020-08-17T12:44:48Z</time>
      </trkpt>
      <trkpt lat="48.67525" lon="-4.20184">
        <ele>5.8</ele>
        <time>2020-08-17T12:44:51Z</time>
      </trkpt>
      <trkpt lat="48.67511" lon="-4.20231">
        <ele>4.6</ele>
        <time>2020-08-17T12:45:56Z</time>
      </trkpt>
      <trkpt lat="48.67503" lon="-4.20253">
        <ele>3.8</ele>
        <time>2020-08-17T12:46:03Z</time>
      </trkpt>
      <trkpt lat="48.67494" lon="-4.20278">
        <ele>4.1</ele>
        <time>2020-08-17T12:46:10Z</time>
      </trkpt>
      <trkpt lat="48.6748" lon="-4.20301">
        <ele>3.8</ele>
        <time>2020-08-17T12:46:18Z</time>
      </trkpt>
      <trkpt lat="48.67463" lon="-4.20316">
        <ele>3.9</ele>
        <time>2020-08-17T12:46:25Z</time>
      </trkpt>
      <trkpt lat="48.67446" lon="-4.20328">
        <ele>4.4</ele>
        <time>2020-08-17T12:46:32Z</time>
      </trkpt>
      <trkpt lat="48.67433" lon="-4.20337">
        <ele>4.2</ele>
        <time>2020-08-17T12:46:38Z</time>
      </trkpt>
      <trkpt lat="48.67422" lon="-4.20345">
        <ele>4.4</ele>
        <time>2020-08-17T12:46:44Z</time>
      </trkpt>
      <trkpt lat="48.67418" lon="-4.20348">
        <ele>4.4</ele>
        <time>2020-08-17T12:46:49Z</time>
      </trkpt>
      <trkpt lat="48.67408" lon="-4.20356">
        <ele>5.2</ele>
        <time>2020-08-17T12:47:10Z</time>
      </trkpt>
      <trkpt lat="48.67393" lon="-4.20367">
        <ele>5.3</ele>
        <time>2020-08-17T12:47:18Z</time>
      </trkpt>
      <trkpt lat="48.67382" lon="-4.20376">
        <ele>5.3</ele>
        <time>2020-08-17T12:47:25Z</time>
      </trkpt>
      <trkpt lat="48.67362" lon="-4.20384">
        <ele>5.3</ele>
        <time>2020-08-17T12:47:33Z</time>
      </trkpt>
      <trkpt lat="48.67335" lon="-4.2038">
        <ele>5.4</ele>
        <time>2020-08-17T12:47:41Z</time>
      </trkpt>
      <trkpt lat="48.67316" lon="-4.20372">
        <ele>5.9</ele>
        <time>2020-08-17T12:47:46Z</time>
      </trkpt>
      <trkpt lat="48.67302" lon="-4.20347">
        <ele>6.1</ele>
        <time>2020-08-17T12:47:52Z</time>
      </trkpt>
      <trkpt lat="48.6729" lon="-4.20315">
        <ele>6.9</ele>
        <time>2020-08-17T12:47:59Z</time>
      </trkpt>
      <trkpt lat="48.67273" lon="-4.20275">
        <ele>7.2</ele>
        <time>2020-08-17T12:48:08Z</time>
      </trkpt>
      <trkpt lat="48.67007" lon="-4.2026">
        <ele>6.7</ele>
        <time>2020-08-17T12:49:42Z</time>
      </trkpt>
      <trkpt lat="48.66991" lon="-4.2024">
        <ele>7.5</ele>
        <time>2020-08-17T12:49:48Z</time>
      </trkpt>
      <trkpt lat="48.66986" lon="-4.20235">
        <ele>7.7</ele>
        <time>2020-08-17T12:49:50Z</time>
      </trkpt>
      <trkpt lat="48.6697" lon="-4.20237">
        <ele>8</ele>
        <time>2020-08-17T12:49:55Z</time>
      </trkpt>
      <trkpt lat="48.66936" lon="-4.20268">
        <ele>7.8</ele>
        <time>2020-08-17T12:50:06Z</time>
      </trkpt>
      <trkpt lat="48.66909" lon="-4.20292">
        <ele>8.5</ele>
        <time>2020-08-17T12:50:15Z</time>
      </trkpt>
      <trkpt lat="48.66877" lon="-4.20319">
        <ele>8.6</ele>
        <time>2020-08-17T12:50:25Z</time>
      </trkpt>
      <trkpt lat="48.66843" lon="-4.20347">
        <ele>9.2</ele>
        <time>2020-08-17T12:50:35Z</time>
      </trkpt>
      <trkpt lat="48.66817" lon="-4.20369">
        <ele>10.3</ele>
        <time>2020-08-17T12:50:43Z</time>
      </trkpt>
      <trkpt lat="48.6679" lon="-4.20392">
        <ele>10.4</ele>
        <time>2020-08-17T12:50:52Z</time>
      </trkpt>
      <trkpt lat="48.66776" lon="-4.20403">
        <ele>10.6</ele>
        <time>2020-08-17T12:50:57Z</time>
      </trkpt>
      <trkpt lat="48.66762" lon="-4.20414">
        <ele>10.8</ele>
        <time>2020-08-17T12:51:03Z</time>
      </trkpt>
      <trkpt lat="48.6675" lon="-4.20422">
        <ele>10.8</ele>
        <time>2020-08-17T12:51:08Z</time>
      </trkpt>
      <trkpt lat="48.66738" lon="-4.20432">
        <ele>10.3</ele>
        <time>2020-08-17T12:51:12Z</time>
      </trkpt>
      <trkpt lat="48.66724" lon="-4.20458">
        <ele>9.8</ele>
        <time>2020-08-17T12:51:17Z</time>
      </trkpt>
      <trkpt lat="48.66725" lon="-4.20465">
        <ele>9.7</ele>
        <time>2020-08-17T12:51:18Z</time>
      </trkpt>
      <trkpt lat="48.66737" lon="-4.20525">
        <ele>8.6</ele>
        <time>2020-08-17T12:51:26Z</time>
      </trkpt>
      <trkpt lat="48.66739" lon="-4.20532">
        <ele>8.6</ele>
        <time>2020-08-17T12:51:27Z</time>
      </trkpt>
      <trkpt lat="48.6676" lon="-4.20593">
        <ele>7.7</ele>
        <time>2020-08-17T12:51:36Z</time>
      </trkpt>
      <trkpt lat="48.66783" lon="-4.20635">
        <ele>7.2</ele>
        <time>2020-08-17T12:51:43Z</time>
      </trkpt>
      <trkpt lat="48.66814" lon="-4.20683">
        <ele>7</ele>
        <time>2020-08-17T12:51:52Z</time>
      </trkpt>
      <trkpt lat="48.66831" lon="-4.20717">
        <ele>7</ele>
        <time>2020-08-17T12:51:58Z</time>
      </trkpt>
      <trkpt lat="48.66845" lon="-4.20745">
        <ele>7</ele>
        <time>2020-08-17T12:52:03Z</time>
      </trkpt>
      <trkpt lat="48.66867" lon="-4.20797">
        <ele>6.5</ele>
        <time>2020-08-17T12:52:12Z</time>
      </trkpt>
      <trkpt lat="48.66888" lon="-4.20862">
        <ele>6.2</ele>
        <time>2020-08-17T12:52:23Z</time>
      </trkpt>
      <trkpt lat="48.6689" lon="-4.20869">
        <ele>6.2</ele>
        <time>2020-08-17T12:52:24Z</time>
      </trkpt>
      <trkpt lat="48.66897" lon="-4.20892">
        <ele>6.2</ele>
        <time>2020-08-17T12:52:34Z</time>
      </trkpt>
      <trkpt lat="48.66926" lon="-4.20976">
        <ele>3.1</ele>
        <time>2020-08-17T12:52:43Z</time>
      </trkpt>
      <trkpt lat="48.66926" lon="-4.20977">
        <ele>3</ele>
        <time>2020-08-17T12:52:48Z</time>
      </trkpt>
      <trkpt lat="48.66922" lon="-4.21019">
        <ele>1.8</ele>
        <time>2020-08-17T12:52:53Z</time>
      </trkpt>
      <trkpt lat="48.66918" lon="-4.21025">
        <ele>1.8</ele>
        <time>2020-08-17T12:52:59Z</time>
      </trkpt>
      <trkpt lat="48.66879" lon="-4.21053">
        <ele>4.4</ele>
        <time>2020-08-17T12:53:07Z</time>
      </trkpt>
      <trkpt lat="48.66852" lon="-4.21065">
        <ele>5.4</ele>
        <time>2020-08-17T12:53:15Z</time>
      </trkpt>
      <trkpt lat="48.66817" lon="-4.21082">
        <ele>7.2</ele>
        <time>2020-08-17T12:53:25Z</time>
      </trkpt>
      <trkpt lat="48.66785" lon="-4.21097">
        <ele>9</ele>
        <time>2020-08-17T12:53:34Z</time>
      </trkpt>
      <trkpt lat="48.66753" lon="-4.21104">
        <ele>9.1</ele>
        <time>2020-08-17T12:53:42Z</time>
      </trkpt>
      <trkpt lat="48.66301" lon="-4.21214">
        <ele>9.7</ele>
        <time>2020-08-17T12:55:43Z</time>
      </trkpt>
      <trkpt lat="48.6627" lon="-4.2119">
        <ele>9.8</ele>
        <time>2020-08-17T12:55:51Z</time>
      </trkpt>
      <trkpt lat="48.66234" lon="-4.21164">
        <ele>9.2</ele>
        <time>2020-08-17T12:55:59Z</time>
      </trkpt>
      <trkpt lat="48.66193" lon="-4.21134">
        <ele>8.2</ele>
        <time>2020-08-17T12:56:08Z</time>
      </trkpt>
      <trkpt lat="48.66153" lon="-4.21103">
        <ele>7.6</ele>
        <time>2020-08-17T12:56:17Z</time>
      </trkpt>
      <trkpt lat="48.66126" lon="-4.21084">
        <ele>7.8</ele>
        <time>2020-08-17T12:56:23Z</time>
      </trkpt>
      <trkpt lat="48.66095" lon="-4.21061">
        <ele>7.5</ele>
        <time>2020-08-17T12:56:30Z</time>
      </trkpt>
      <trkpt lat="48.66059" lon="-4.2103">
        <ele>8.2</ele>
        <time>2020-08-17T12:56:38Z</time>
      </trkpt>
      <trkpt lat="48.66015" lon="-4.20981">
        <ele>8.5</ele>
        <time>2020-08-17T12:56:49Z</time>
      </trkpt>
      <trkpt lat="48.65989" lon="-4.20952">
        <ele>8.7</ele>
        <time>2020-08-17T12:56:57Z</time>
      </trkpt>
      <trkpt lat="48.65958" lon="-4.20923">
        <ele>8.5</ele>
        <time>2020-08-17T12:57:06Z</time>
      </trkpt>
      <trkpt lat="48.65942" lon="-4.20891">
        <ele>8.4</ele>
        <time>2020-08-17T12:57:12Z</time>
      </trkpt>
      <trkpt lat="48.65925" lon="-4.20843">
        <ele>8.2</ele>
        <time>2020-08-17T12:57:20Z</time>
      </trkpt>
      <trkpt lat="48.65913" lon="-4.20798">
        <ele>8.2</ele>
        <time>2020-08-17T12:57:27Z</time>
      </trkpt>
      <trkpt lat="48.6591" lon="-4.20781">
        <ele>8.1</ele>
        <time>2020-08-17T12:57:29Z</time>
      </trkpt>
      <trkpt lat="48.65908" lon="-4.2074">
        <ele>8.2</ele>
        <time>2020-08-17T12:57:35Z</time>
      </trkpt>
      <trkpt lat="48.65905" lon="-4.20681">
        <ele>9.2</ele>
        <time>2020-08-17T12:57:44Z</time>
      </trkpt>
      <trkpt lat="48.65901" lon="-4.20607">
        <ele>10</ele>
        <time>2020-08-17T12:57:55Z</time>
      </trkpt>
      <trkpt lat="48.65898" lon="-4.20562">
        <ele>10.3</ele>
        <time>2020-08-17T12:58:02Z</time>
      </trkpt>
      <trkpt lat="48.65896" lon="-4.20517">
        <ele>10.3</ele>
        <time>2020-08-17T12:58:10Z</time>
      </trkpt>
      <trkpt lat="48.65894" lon="-4.20488">
        <ele>10.2</ele>
        <time>2020-08-17T12:58:18Z</time>
      </trkpt>
      <trkpt lat="48.65893" lon="-4.20458">
        <ele>10</ele>
        <time>2020-08-17T12:58:24Z</time>
      </trkpt>
      <trkpt lat="48.65893" lon="-4.20401">
        <ele>9.9</ele>
        <time>2020-08-17T12:58:32Z</time>
      </trkpt>
      <trkpt lat="48.65898" lon="-4.20351">
        <ele>10</ele>
        <time>2020-08-17T12:58:39Z</time>
      </trkpt>
      <trkpt lat="48.65906" lon="-4.20294">
        <ele>10.3</ele>
        <time>2020-08-17T12:58:47Z</time>
      </trkpt>
      <trkpt lat="48.65915" lon="-4.20228">
        <ele>11.3</ele>
        <time>2020-08-17T12:58:57Z</time>
      </trkpt>
      <trkpt lat="48.65925" lon="-4.20166">
        <ele>13.2</ele>
        <time>2020-08-17T12:59:07Z</time>
      </trkpt>
      <trkpt lat="48.6593" lon="-4.20115">
        <ele>14</ele>
        <time>2020-08-17T12:59:15Z</time>
      </trkpt>
      <trkpt lat="48.65931" lon="-4.20098">
        <ele>14.3</ele>
        <time>2020-08-17T12:59:18Z</time>
      </trkpt>
      <trkpt lat="48.6593" lon="-4.20074">
        <ele>14.8</ele>
        <time>2020-08-17T12:59:22Z</time>
      </trkpt>
      <trkpt lat="48.65925" lon="-4.20038">
        <ele>14.7</ele>
        <time>2020-08-17T12:59:29Z</time>
      </trkpt>
      <trkpt lat="48.65926" lon="-4.20022">
        <ele>14.7</ele>
        <time>2020-08-17T12:59:33Z</time>
      </trkpt>
      <trkpt lat="48.65926" lon="-4.2002">
        <ele>14.7</ele>
        <time>2020-08-17T12:59:36Z</time>
      </trkpt>
      <trkpt lat="48.65924" lon="-4.20034">
        <ele>14.7</ele>
        <time>2020-08-17T12:59:57Z</time>
      </trkpt>
      <trkpt lat="48.65905" lon="-4.20031">
        <ele>13.2</ele>
        <time>2020-08-17T13:00:02Z</time>
      </trkpt>
      <trkpt lat="48.6592" lon="-4.19997">
        <ele>14.7</ele>
        <time>2020-08-17T13:00:08Z</time>
      </trkpt>
      <trkpt lat="48.6588" lon="-4.20021">
        <ele>12.5</ele>
        <time>2020-08-17T13:00:09Z</time>
      </trkpt>
      <trkpt lat="48.65864" lon="-4.20012">
        <ele>11.9</ele>
        <time>2020-08-17T13:00:13Z</time>
      </trkpt>
      <trkpt lat="48.65858" lon="-4.20005">
        <ele>11.6</ele>
        <time>2020-08-17T13:00:15Z</time>
      </trkpt>
      <trkpt lat="48.65877" lon="-4.19944">
        <ele>11.7</ele>
        <time>2020-08-17T13:00:23Z</time>
      </trkpt>
      <trkpt lat="48.65889" lon="-4.19912">
        <ele>10.2</ele>
        <time>2020-08-17T13:00:28Z</time>
      </trkpt>
      <trkpt lat="48.65897" lon="-4.19878">
        <ele>9.6</ele>
        <time>2020-08-17T13:00:32Z</time>
      </trkpt>
      <trkpt lat="48.65895" lon="-4.19869">
        <ele>9.4</ele>
        <time>2020-08-17T13:00:33Z</time>
      </trkpt>
      <trkpt lat="48.65892" lon="-4.19798">
        <ele>7.7</ele>
        <time>2020-08-17T13:00:40Z</time>
      </trkpt>
      <trkpt lat="48.65884" lon="-4.19729">
        <ele>7.8</ele>
        <time>2020-08-17T13:00:45Z</time>
      </trkpt>
      <trkpt lat="48.65883" lon="-4.19674">
        <ele>8</ele>
        <time>2020-08-17T13:00:50Z</time>
      </trkpt>
      <trkpt lat="48.65876" lon="-4.19617">
        <ele>8.3</ele>
        <time>2020-08-17T13:00:55Z</time>
      </trkpt>
      <trkpt lat="48.65869" lon="-4.19577">
        <ele>8.7</ele>
        <time>2020-08-17T13:00:59Z</time>
      </trkpt>
      <trkpt lat="48.6586" lon="-4.19525">
        <ele>8.8</ele>
        <time>2020-08-17T13:01:05Z</time>
      </trkpt>
      <trkpt lat="48.65856" lon="-4.19484">
        <ele>9.2</ele>
        <time>2020-08-17T13:01:10Z</time>
      </trkpt>
      <trkpt lat="48.65853" lon="-4.19432">
        <ele>9.5</ele>
        <time>2020-08-17T13:01:17Z</time>
      </trkpt>
      <trkpt lat="48.65849" lon="-4.19375">
        <ele>10.1</ele>
        <time>2020-08-17T13:01:25Z</time>
      </trkpt>
      <trkpt lat="48.65843" lon="-4.19295">
        <ele>10.8</ele>
        <time>2020-08-17T13:01:36Z</time>
      </trkpt>
      <trkpt lat="48.65833" lon="-4.19242">
        <ele>11.2</ele>
        <time>2020-08-17T13:01:44Z</time>
      </trkpt>
      <trkpt lat="48.65816" lon="-4.19202">
        <ele>11.4</ele>
        <time>2020-08-17T13:01:51Z</time>
      </trkpt>
      <trkpt lat="48.6579" lon="-4.19171">
        <ele>11.7</ele>
        <time>2020-08-17T13:01:59Z</time>
      </trkpt>
      <trkpt lat="48.65786" lon="-4.19168">
        <ele>11.8</ele>
        <time>2020-08-17T13:02:00Z</time>
      </trkpt>
      <trkpt lat="48.65776" lon="-4.19159">
        <ele>11.4</ele>
        <time>2020-08-17T13:02:03Z</time>
      </trkpt>
      <trkpt lat="48.65742" lon="-4.19151">
        <ele>12</ele>
        <time>2020-08-17T13:02:11Z</time>
      </trkpt>
      <trkpt lat="48.65725" lon="-4.19146">
        <ele>11.5</ele>
        <time>2020-08-17T13:02:15Z</time>
      </trkpt>
      <trkpt lat="48.65715" lon="-4.19142">
        <ele>11.3</ele>
        <time>2020-08-17T13:02:18Z</time>
      </trkpt>
      <trkpt lat="48.65715" lon="-4.19142">
        <ele>11.3</ele>
        <time>2020-08-17T13:02:22Z</time>
      </trkpt>
      <trkpt lat="48.65686" lon="-4.19138">
        <ele>11.2</ele>
        <time>2020-08-17T13:02:24Z</time>
      </trkpt>
      <trkpt lat="48.65664" lon="-4.1917">
        <ele>12</ele>
        <time>2020-08-17T13:02:30Z</time>
      </trkpt>
      <trkpt lat="48.6565" lon="-4.19187">
        <ele>11.9</ele>
        <time>2020-08-17T13:02:34Z</time>
      </trkpt>
      <trkpt lat="48.65619" lon="-4.19213">
        <ele>11.7</ele>
        <time>2020-08-17T13:02:42Z</time>
      </trkpt>
      <trkpt lat="48.65604" lon="-4.19227">
        <ele>11.8</ele>
        <time>2020-08-17T13:02:46Z</time>
      </trkpt>
      <trkpt lat="48.65587" lon="-4.19259">
        <ele>12.2</ele>
        <time>2020-08-17T13:02:52Z</time>
      </trkpt>
      <trkpt lat="48.65572" lon="-4.19311">
        <ele>8.9</ele>
        <time>2020-08-17T13:03:00Z</time>
      </trkpt>
      <trkpt lat="48.65556" lon="-4.19369">
        <ele>7.6</ele>
        <time>2020-08-17T13:03:08Z</time>
      </trkpt>
      <trkpt lat="48.6555" lon="-4.19392">
        <ele>7.5</ele>
        <time>2020-08-17T13:03:11Z</time>
      </trkpt>
      <trkpt lat="48.65543" lon="-4.19415">
        <ele>7.4</ele>
        <time>2020-08-17T13:03:14Z</time>
      </trkpt>
      <trkpt lat="48.65537" lon="-4.1943">
        <ele>7</ele>
        <time>2020-08-17T13:03:16Z</time>
      </trkpt>
      <trkpt lat="48.65521" lon="-4.19453">
        <ele>6.7</ele>
        <time>2020-08-17T13:03:20Z</time>
      </trkpt>
      <trkpt lat="48.65499" lon="-4.19475">
        <ele>5.2</ele>
        <time>2020-08-17T13:03:25Z</time>
      </trkpt>
      <trkpt lat="48.65474" lon="-4.19489">
        <ele>5.1</ele>
        <time>2020-08-17T13:03:30Z</time>
      </trkpt>
      <trkpt lat="48.65469" lon="-4.19488">
        <ele>5.1</ele>
        <time>2020-08-17T13:03:31Z</time>
      </trkpt>
      <trkpt lat="48.65433" lon="-4.1948">
        <ele>4.8</ele>
        <time>2020-08-17T13:03:39Z</time>
      </trkpt>
      <trkpt lat="48.6541" lon="-4.19474">
        <ele>4</ele>
        <time>2020-08-17T13:03:46Z</time>
      </trkpt>
      <trkpt lat="48.6539" lon="-4.19471">
        <ele>3.8</ele>
        <time>2020-08-17T13:03:52Z</time>
      </trkpt>
      <trkpt lat="48.65361" lon="-4.1948">
        <ele>3.3</ele>
        <time>2020-08-17T13:04:00Z</time>
      </trkpt>
      <trkpt lat="48.65343" lon="-4.19486">
        <ele>2.8</ele>
        <time>2020-08-17T13:04:06Z</time>
      </trkpt>
      <trkpt lat="48.65326" lon="-4.19489">
        <ele>2.3</ele>
        <time>2020-08-17T13:04:12Z</time>
      </trkpt>
      <trkpt lat="48.65304" lon="-4.19493">
        <ele>2.5</ele>
        <time>2020-08-17T13:04:20Z</time>
      </trkpt>
      <trkpt lat="48.65284" lon="-4.19492">
        <ele>2.5</ele>
        <time>2020-08-17T13:04:27Z</time>
      </trkpt>
      <trkpt lat="48.65262" lon="-4.19487">
        <ele>2.4</ele>
        <time>2020-08-17T13:04:35Z</time>
      </trkpt>
      <trkpt lat="48.65242" lon="-4.19471">
        <ele>2.5</ele>
        <time>2020-08-17T13:04:42Z</time>
      </trkpt>
      <trkpt lat="48.65228" lon="-4.19448">
        <ele>2.7</ele>
        <time>2020-08-17T13:04:49Z</time>
      </trkpt>
      <trkpt lat="48.6522" lon="-4.19424">
        <ele>2.9</ele>
        <time>2020-08-17T13:04:56Z</time>
      </trkpt>
      <trkpt lat="48.65219" lon="-4.19415">
        <ele>3.3</ele>
        <time>2020-08-17T13:05:02Z</time>
      </trkpt>
      <trkpt lat="48.65219" lon="-4.19415">
        <ele>3.3</ele>
        <time>2020-08-17T13:05:08Z</time>
      </trkpt>
      <trkpt lat="48.65219" lon="-4.19415">
        <ele>3.3</ele>
        <time>2020-08-17T13:05:15Z</time>
      </trkpt>
      <trkpt lat="48.65219" lon="-4.19415">
        <ele>3.3</ele>
        <time>2020-08-17T13:05:19Z</time>
      </trkpt>
      <trkpt lat="48.65233" lon="-4.19403">
        <ele>3.5</ele>
        <time>2020-08-17T13:05:25Z</time>
      </trkpt>
      <trkpt lat="48.65233" lon="-4.19403">
        <ele>3.5</ele>
        <time>2020-08-17T13:05:27Z</time>
      </trkpt>
      <trkpt lat="48.65233" lon="-4.19403">
        <ele>3.5</ele>
        <time>2020-08-17T13:15:07Z</time>
      </trkpt>
      <trkpt lat="48.65256" lon="-4.19296">
        <ele>3.9</ele>
        <time>2020-08-17T13:16:42Z</time>
      </trkpt>
      <trkpt lat="48.65264" lon="-4.19283">
        <ele>3.8</ele>
        <time>2020-08-17T13:16:48Z</time>
      </trkpt>
      <trkpt lat="48.65272" lon="-4.19272">
        <ele>3.8</ele>
        <time>2020-08-17T13:16:53Z</time>
      </trkpt>
      <trkpt lat="48.6528" lon="-4.19252">
        <ele>3.8</ele>
        <time>2020-08-17T13:16:58Z</time>
      </trkpt>
      <trkpt lat="48.6528" lon="-4.1925">
        <ele>3.6</ele>
        <time>2020-08-17T13:17:02Z</time>
      </trkpt>
      <trkpt lat="48.65263" lon="-4.19232">
        <ele>3.5</ele>
        <time>2020-08-17T13:17:07Z</time>
      </trkpt>
      <trkpt lat="48.6525" lon="-4.19247">
        <ele>3.1</ele>
        <time>2020-08-17T13:17:12Z</time>
      </trkpt>
      <trkpt lat="48.65233" lon="-4.19274">
        <ele>3.2</ele>
        <time>2020-08-17T13:17:19Z</time>
      </trkpt>
      <trkpt lat="48.65217" lon="-4.19315">
        <ele>3.4</ele>
        <time>2020-08-17T13:17:27Z</time>
      </trkpt>
      <trkpt lat="48.65199" lon="-4.19362">
        <ele>3.2</ele>
        <time>2020-08-17T13:17:36Z</time>
      </trkpt>
      <trkpt lat="48.65183" lon="-4.19416">
        <ele>2.6</ele>
        <time>2020-08-17T13:17:45Z</time>
      </trkpt>
      <trkpt lat="48.65173" lon="-4.19465">
        <ele>2.3</ele>
        <time>2020-08-17T13:17:53Z</time>
      </trkpt>
      <trkpt lat="48.65172" lon="-4.19483">
        <ele>2.2</ele>
        <time>2020-08-17T13:17:56Z</time>
      </trkpt>
      <trkpt lat="48.65175" lon="-4.19543">
        <ele>1.8</ele>
        <time>2020-08-17T13:18:05Z</time>
      </trkpt>
      <trkpt lat="48.65179" lon="-4.19575">
        <ele>1.9</ele>
        <time>2020-08-17T13:18:10Z</time>
      </trkpt>
      <trkpt lat="48.6519" lon="-4.19638">
        <ele>2</ele>
        <time>2020-08-17T13:18:20Z</time>
      </trkpt>
      <trkpt lat="48.65201" lon="-4.19704">
        <ele>1.6</ele>
        <time>2020-08-17T13:18:30Z</time>
      </trkpt>
      <trkpt lat="48.65217" lon="-4.19787">
        <ele>1</ele>
        <time>2020-08-17T13:18:43Z</time>
      </trkpt>
      <trkpt lat="48.65226" lon="-4.19838">
        <ele>1.5</ele>
        <time>2020-08-17T13:18:51Z</time>
      </trkpt>
      <trkpt lat="48.65228" lon="-4.19882">
        <ele>1.4</ele>
        <time>2020-08-17T13:18:58Z</time>
      </trkpt>
      <trkpt lat="48.65225" lon="-4.1991">
        <ele>1.3</ele>
        <time>2020-08-17T13:19:03Z</time>
      </trkpt>
      <trkpt lat="48.65216" lon="-4.19954">
        <ele>1.7</ele>
        <time>2020-08-17T13:19:10Z</time>
      </trkpt>
      <trkpt lat="48.65201" lon="-4.20009">
        <ele>1.9</ele>
        <time>2020-08-17T13:19:19Z</time>
      </trkpt>
      <trkpt lat="48.65183" lon="-4.20075">
        <ele>1.3</ele>
        <time>2020-08-17T13:19:30Z</time>
      </trkpt>
      <trkpt lat="48.65165" lon="-4.2014">
        <ele>1</ele>
        <time>2020-08-17T13:19:41Z</time>
      </trkpt>
      <trkpt lat="48.65144" lon="-4.20218">
        <ele>1</ele>
        <time>2020-08-17T13:19:54Z</time>
      </trkpt>
      <trkpt lat="48.65123" lon="-4.20289">
        <ele>1.3</ele>
        <time>2020-08-17T13:20:06Z</time>
      </trkpt>
      <trkpt lat="48.65109" lon="-4.2033">
        <ele>1.6</ele>
        <time>2020-08-17T13:20:13Z</time>
      </trkpt>
      <trkpt lat="48.65087" lon="-4.20396">
        <ele>2</ele>
        <time>2020-08-17T13:20:24Z</time>
      </trkpt>
      <trkpt lat="48.65064" lon="-4.20468">
        <ele>2</ele>
        <time>2020-08-17T13:20:35Z</time>
      </trkpt>
      <trkpt lat="48.65045" lon="-4.20535">
        <ele>2</ele>
        <time>2020-08-17T13:20:45Z</time>
      </trkpt>
      <trkpt lat="48.65044" lon="-4.20606">
        <ele>1.6</ele>
        <time>2020-08-17T13:20:56Z</time>
      </trkpt>
      <trkpt lat="48.65034" lon="-4.20688">
        <ele>1</ele>
        <time>2020-08-17T13:21:08Z</time>
      </trkpt>
      <trkpt lat="48.65016" lon="-4.20752">
        <ele>4.6</ele>
        <time>2020-08-17T13:21:19Z</time>
      </trkpt>
      <trkpt lat="48.65009" lon="-4.20818">
        <ele>4</ele>
        <time>2020-08-17T13:21:30Z</time>
      </trkpt>
      <trkpt lat="48.65" lon="-4.20881">
        <ele>1.2</ele>
        <time>2020-08-17T13:21:41Z</time>
      </trkpt>
      <trkpt lat="48.64993" lon="-4.2092">
        <ele>1.1</ele>
        <time>2020-08-17T13:21:48Z</time>
      </trkpt>
      <trkpt lat="48.64985" lon="-4.20963">
        <ele>1.3</ele>
        <time>2020-08-17T13:21:56Z</time>
      </trkpt>
      <trkpt lat="48.64982" lon="-4.20975">
        <ele>1.3</ele>
        <time>2020-08-17T13:21:59Z</time>
      </trkpt>
      <trkpt lat="48.64981" lon="-4.20982">
        <ele>1.4</ele>
        <time>2020-08-17T13:22:03Z</time>
      </trkpt>
      <trkpt lat="48.64981" lon="-4.20984">
        <ele>1.4</ele>
        <time>2020-08-17T13:24:57Z</time>
      </trkpt>
      <trkpt lat="48.64978" lon="-4.20998">
        <ele>1.4</ele>
        <time>2020-08-17T13:25:02Z</time>
      </trkpt>
      <trkpt lat="48.64973" lon="-4.21018">
        <ele>1.6</ele>
        <time>2020-08-17T13:25:08Z</time>
      </trkpt>
      <trkpt lat="48.64967" lon="-4.21046">
        <ele>1.5</ele>
        <time>2020-08-17T13:25:15Z</time>
      </trkpt>
      <trkpt lat="48.6496" lon="-4.21077">
        <ele>1.3</ele>
        <time>2020-08-17T13:25:23Z</time>
      </trkpt>
      <trkpt lat="48.64953" lon="-4.21107">
        <ele>1.4</ele>
        <time>2020-08-17T13:25:31Z</time>
      </trkpt>
      <trkpt lat="48.64946" lon="-4.21134">
        <ele>1.6</ele>
        <time>2020-08-17T13:25:39Z</time>
      </trkpt>
      <trkpt lat="48.64942" lon="-4.21149">
        <ele>1.7</ele>
        <time>2020-08-17T13:25:44Z</time>
      </trkpt>
      <trkpt lat="48.64941" lon="-4.21156">
        <ele>1.7</ele>
        <time>2020-08-17T13:25:49Z</time>
      </trkpt>
      <trkpt lat="48.64936" lon="-4.21172">
        <ele>2.2</ele>
        <time>2020-08-17T13:25:55Z</time>
      </trkpt>
      <trkpt lat="48.64926" lon="-4.21207">
        <ele>2.5</ele>
        <time>2020-08-17T13:26:04Z</time>
      </trkpt>
      <trkpt lat="48.64917" lon="-4.21236">
        <ele>2.8</ele>
        <time>2020-08-17T13:26:11Z</time>
      </trkpt>
      <trkpt lat="48.649" lon="-4.21288">
        <ele>4</ele>
        <time>2020-08-17T13:26:23Z</time>
      </trkpt>
      <trkpt lat="48.64894" lon="-4.21302">
        <ele>4.2</ele>
        <time>2020-08-17T13:26:34Z</time>
      </trkpt>
      <trkpt lat="48.64894" lon="-4.21302">
        <ele>4.2</ele>
        <time>2020-08-17T13:26:45Z</time>
      </trkpt>
      <trkpt lat="48.64848" lon="-4.21405">
        <ele>5.9</ele>
        <time>2020-08-17T13:26:55Z</time>
      </trkpt>
      <trkpt lat="48.64827" lon="-4.21445">
        <ele>7.5</ele>
        <time>2020-08-17T13:27:06Z</time>
      </trkpt>
      <trkpt lat="48.64806" lon="-4.21482">
        <ele>7.9</ele>
        <time>2020-08-17T13:27:17Z</time>
      </trkpt>
      <trkpt lat="48.64783" lon="-4.21523">
        <ele>9.4</ele>
        <time>2020-08-17T13:27:29Z</time>
      </trkpt>
      <trkpt lat="48.64775" lon="-4.21555">
        <ele>10.1</ele>
        <time>2020-08-17T13:27:37Z</time>
      </trkpt>
      <trkpt lat="48.64756" lon="-4.21607">
        <ele>11.7</ele>
        <time>2020-08-17T13:27:49Z</time>
      </trkpt>
      <trkpt lat="48.64741" lon="-4.21635">
        <ele>12.2</ele>
        <time>2020-08-17T13:27:57Z</time>
      </trkpt>
      <trkpt lat="48.64738" lon="-4.21666">
        <ele>12.5</ele>
        <time>2020-08-17T13:28:05Z</time>
      </trkpt>
      <trkpt lat="48.64718" lon="-4.21709">
        <ele>12</ele>
        <time>2020-08-17T13:28:13Z</time>
      </trkpt>
      <trkpt lat="48.64719" lon="-4.21774">
        <ele>11.5</ele>
        <time>2020-08-17T13:28:24Z</time>
      </trkpt>
      <trkpt lat="48.6473" lon="-4.21828">
        <ele>11.3</ele>
        <time>2020-08-17T13:28:33Z</time>
      </trkpt>
      <trkpt lat="48.64756" lon="-4.21899">
        <ele>9.7</ele>
        <time>2020-08-17T13:28:45Z</time>
      </trkpt>
      <trkpt lat="48.64775" lon="-4.21947">
        <ele>8.3</ele>
        <time>2020-08-17T13:28:54Z</time>
      </trkpt>
      <trkpt lat="48.64789" lon="-4.22005">
        <ele>6.5</ele>
        <time>2020-08-17T13:29:04Z</time>
      </trkpt>
      <trkpt lat="48.64799" lon="-4.2207">
        <ele>6</ele>
        <time>2020-08-17T13:29:14Z</time>
      </trkpt>
      <trkpt lat="48.64804" lon="-4.22133">
        <ele>5</ele>
        <time>2020-08-17T13:29:22Z</time>
      </trkpt>
      <trkpt lat="48.64822" lon="-4.2218">
        <ele>3.9</ele>
        <time>2020-08-17T13:29:31Z</time>
      </trkpt>
      <trkpt lat="48.64827" lon="-4.22261">
        <ele>3.7</ele>
        <time>2020-08-17T13:29:41Z</time>
      </trkpt>
      <trkpt lat="48.64827" lon="-4.22268">
        <ele>3.9</ele>
        <time>2020-08-17T13:29:42Z</time>
      </trkpt>
      <trkpt lat="48.64832" lon="-4.22301">
        <ele>4.4</ele>
        <time>2020-08-17T13:29:51Z</time>
      </trkpt>
      <trkpt lat="48.64804" lon="-4.22378">
        <ele>4.1</ele>
        <time>2020-08-17T13:30:03Z</time>
      </trkpt>
      <trkpt lat="48.648" lon="-4.22453">
        <ele>3.6</ele>
        <time>2020-08-17T13:30:13Z</time>
      </trkpt>
      <trkpt lat="48.64797" lon="-4.22514">
        <ele>3.5</ele>
        <time>2020-08-17T13:30:23Z</time>
      </trkpt>
      <trkpt lat="48.64793" lon="-4.22589">
        <ele>3.2</ele>
        <time>2020-08-17T13:30:35Z</time>
      </trkpt>
      <trkpt lat="48.64789" lon="-4.2265">
        <ele>2.9</ele>
        <time>2020-08-17T13:30:45Z</time>
      </trkpt>
      <trkpt lat="48.64785" lon="-4.22724">
        <ele>2.5</ele>
        <time>2020-08-17T13:30:57Z</time>
      </trkpt>
      <trkpt lat="48.64782" lon="-4.22782">
        <ele>2.8</ele>
        <time>2020-08-17T13:31:06Z</time>
      </trkpt>
      <trkpt lat="48.64776" lon="-4.22839">
        <ele>3</ele>
        <time>2020-08-17T13:31:15Z</time>
      </trkpt>
      <trkpt lat="48.64766" lon="-4.22913">
        <ele>3</ele>
        <time>2020-08-17T13:31:27Z</time>
      </trkpt>
      <trkpt lat="48.64756" lon="-4.22983">
        <ele>3</ele>
        <time>2020-08-17T13:31:39Z</time>
      </trkpt>
      <trkpt lat="48.64745" lon="-4.23046">
        <ele>3.5</ele>
        <time>2020-08-17T13:31:50Z</time>
      </trkpt>
      <trkpt lat="48.64739" lon="-4.23087">
        <ele>4</ele>
        <time>2020-08-17T13:31:57Z</time>
      </trkpt>
      <trkpt lat="48.64732" lon="-4.23124">
        <ele>4</ele>
        <time>2020-08-17T13:32:04Z</time>
      </trkpt>
      <trkpt lat="48.64729" lon="-4.23146">
        <ele>4</ele>
        <time>2020-08-17T13:32:11Z</time>
      </trkpt>
      <trkpt lat="48.64725" lon="-4.23167">
        <ele>3.9</ele>
        <time>2020-08-17T13:32:20Z</time>
      </trkpt>
      <trkpt lat="48.64724" lon="-4.23171">
        <ele>3.9</ele>
        <time>2020-08-17T13:32:24Z</time>
      </trkpt>
      <trkpt lat="48.64721" lon="-4.2318">
        <ele>3.8</ele>
        <time>2020-08-17T13:32:57Z</time>
      </trkpt>
      <trkpt lat="48.64716" lon="-4.23203">
        <ele>3.8</ele>
        <time>2020-08-17T13:33:05Z</time>
      </trkpt>
      <trkpt lat="48.64711" lon="-4.23226">
        <ele>3.7</ele>
        <time>2020-08-17T13:33:11Z</time>
      </trkpt>
      <trkpt lat="48.64699" lon="-4.23276">
        <ele>3.7</ele>
        <time>2020-08-17T13:33:21Z</time>
      </trkpt>
      <trkpt lat="48.64691" lon="-4.23308">
        <ele>3.8</ele>
        <time>2020-08-17T13:33:27Z</time>
      </trkpt>
      <trkpt lat="48.6468" lon="-4.23351">
        <ele>3.8</ele>
        <time>2020-08-17T13:33:35Z</time>
      </trkpt>
      <trkpt lat="48.64671" lon="-4.23391">
        <ele>3.2</ele>
        <time>2020-08-17T13:33:45Z</time>
      </trkpt>
      <trkpt lat="48.64671" lon="-4.23391">
        <ele>3.2</ele>
        <time>2020-08-17T13:33:56Z</time>
      </trkpt>
      <trkpt lat="48.64638" lon="-4.2352">
        <ele>2.6</ele>
        <time>2020-08-17T13:34:05Z</time>
      </trkpt>
      <trkpt lat="48.64623" lon="-4.23578">
        <ele>2.9</ele>
        <time>2020-08-17T13:34:14Z</time>
      </trkpt>
      <trkpt lat="48.64607" lon="-4.23642">
        <ele>4.5</ele>
        <time>2020-08-17T13:34:24Z</time>
      </trkpt>
      <trkpt lat="48.64584" lon="-4.23731">
        <ele>5.5</ele>
        <time>2020-08-17T13:34:38Z</time>
      </trkpt>
      <trkpt lat="48.64565" lon="-4.23807">
        <ele>5.3</ele>
        <time>2020-08-17T13:34:50Z</time>
      </trkpt>
      <trkpt lat="48.6455" lon="-4.23867">
        <ele>6.8</ele>
        <time>2020-08-17T13:35:00Z</time>
      </trkpt>
      <trkpt lat="48.6455" lon="-4.23867">
        <ele>6.8</ele>
        <time>2020-08-17T13:35:09Z</time>
      </trkpt>
      <trkpt lat="48.64517" lon="-4.23994">
        <ele>7.2</ele>
        <time>2020-08-17T13:35:19Z</time>
      </trkpt>
      <trkpt lat="48.64498" lon="-4.24069">
        <ele>7.3</ele>
        <time>2020-08-17T13:35:31Z</time>
      </trkpt>
      <trkpt lat="48.64482" lon="-4.24129">
        <ele>7.6</ele>
        <time>2020-08-17T13:35:40Z</time>
      </trkpt>
      <trkpt lat="48.64471" lon="-4.24178">
        <ele>8</ele>
        <time>2020-08-17T13:35:47Z</time>
      </trkpt>
      <trkpt lat="48.64461" lon="-4.24218">
        <ele>7.7</ele>
        <time>2020-08-17T13:35:56Z</time>
      </trkpt>
      <trkpt lat="48.64461" lon="-4.24218">
        <ele>7.7</ele>
        <time>2020-08-17T13:36:06Z</time>
      </trkpt>
      <trkpt lat="48.64428" lon="-4.2436">
        <ele>7.1</ele>
        <time>2020-08-17T13:36:16Z</time>
      </trkpt>
      <trkpt lat="48.64414" lon="-4.24424">
        <ele>7.2</ele>
        <time>2020-08-17T13:36:25Z</time>
      </trkpt>
      <trkpt lat="48.644" lon="-4.24488">
        <ele>9.2</ele>
        <time>2020-08-17T13:36:33Z</time>
      </trkpt>
      <trkpt lat="48.64383" lon="-4.24567">
        <ele>10.6</ele>
        <time>2020-08-17T13:36:43Z</time>
      </trkpt>
      <trkpt lat="48.64365" lon="-4.24645">
        <ele>10.2</ele>
        <time>2020-08-17T13:36:53Z</time>
      </trkpt>
      <trkpt lat="48.64348" lon="-4.24723">
        <ele>8.9</ele>
        <time>2020-08-17T13:37:03Z</time>
      </trkpt>
      <trkpt lat="48.64335" lon="-4.24787">
        <ele>8.2</ele>
        <time>2020-08-17T13:37:11Z</time>
      </trkpt>
      <trkpt lat="48.64322" lon="-4.24847">
        <ele>7.8</ele>
        <time>2020-08-17T13:37:18Z</time>
      </trkpt>
      <trkpt lat="48.64313" lon="-4.24904">
        <ele>7.5</ele>
        <time>2020-08-17T13:37:25Z</time>
      </trkpt>
      <trkpt lat="48.64303" lon="-4.24978">
        <ele>7.9</ele>
        <time>2020-08-17T13:37:34Z</time>
      </trkpt>
      <trkpt lat="48.64295" lon="-4.25039">
        <ele>9.2</ele>
        <time>2020-08-17T13:37:42Z</time>
      </trkpt>
      <trkpt lat="48.64287" lon="-4.25101">
        <ele>9.5</ele>
        <time>2020-08-17T13:37:50Z</time>
      </trkpt>
      <trkpt lat="48.6428" lon="-4.25149">
        <ele>9.1</ele>
        <time>2020-08-17T13:37:56Z</time>
      </trkpt>
      <trkpt lat="48.64273" lon="-4.25203">
        <ele>8.3</ele>
        <time>2020-08-17T13:38:03Z</time>
      </trkpt>
      <trkpt lat="48.64266" lon="-4.25259">
        <ele>7.9</ele>
        <time>2020-08-17T13:38:11Z</time>
      </trkpt>
      <trkpt lat="48.64258" lon="-4.25324">
        <ele>7.9</ele>
        <time>2020-08-17T13:38:20Z</time>
      </trkpt>
      <trkpt lat="48.64249" lon="-4.25397">
        <ele>10</ele>
        <time>2020-08-17T13:38:30Z</time>
      </trkpt>
      <trkpt lat="48.6424" lon="-4.25457">
        <ele>9.8</ele>
        <time>2020-08-17T13:38:38Z</time>
      </trkpt>
      <trkpt lat="48.64233" lon="-4.25509">
        <ele>9.5</ele>
        <time>2020-08-17T13:38:46Z</time>
      </trkpt>
      <trkpt lat="48.64227" lon="-4.25547">
        <ele>9.2</ele>
        <time>2020-08-17T13:38:53Z</time>
      </trkpt>
      <trkpt lat="48.64221" lon="-4.25586">
        <ele>8.5</ele>
        <time>2020-08-17T13:39:01Z</time>
      </trkpt>
      <trkpt lat="48.64215" lon="-4.25627">
        <ele>8.1</ele>
        <time>2020-08-17T13:39:09Z</time>
      </trkpt>
      <trkpt lat="48.6421" lon="-4.25665">
        <ele>7.8</ele>
        <time>2020-08-17T13:39:16Z</time>
      </trkpt>
      <trkpt lat="48.64203" lon="-4.25711">
        <ele>7.2</ele>
        <time>2020-08-17T13:39:24Z</time>
      </trkpt>
      <trkpt lat="48.64193" lon="-4.25781">
        <ele>6.5</ele>
        <time>2020-08-17T13:39:35Z</time>
      </trkpt>
      <trkpt lat="48.64186" lon="-4.25833">
        <ele>5.8</ele>
        <time>2020-08-17T13:39:44Z</time>
      </trkpt>
      <trkpt lat="48.6418" lon="-4.25873">
        <ele>6</ele>
        <time>2020-08-17T13:39:51Z</time>
      </trkpt>
      <trkpt lat="48.64171" lon="-4.25935">
        <ele>6.1</ele>
        <time>2020-08-17T13:40:01Z</time>
      </trkpt>
      <trkpt lat="48.64164" lon="-4.25985">
        <ele>4.9</ele>
        <time>2020-08-17T13:40:09Z</time>
      </trkpt>
      <trkpt lat="48.64157" lon="-4.26036">
        <ele>3.9</ele>
        <time>2020-08-17T13:40:17Z</time>
      </trkpt>
      <trkpt lat="48.64148" lon="-4.26095">
        <ele>3.3</ele>
        <time>2020-08-17T13:40:26Z</time>
      </trkpt>
      <trkpt lat="48.64139" lon="-4.26155">
        <ele>3.7</ele>
        <time>2020-08-17T13:40:35Z</time>
      </trkpt>
      <trkpt lat="48.64128" lon="-4.26226">
        <ele>4.9</ele>
        <time>2020-08-17T13:40:45Z</time>
      </trkpt>
      <trkpt lat="48.64124" lon="-4.26253">
        <ele>5.5</ele>
        <time>2020-08-17T13:40:49Z</time>
      </trkpt>
      <trkpt lat="48.64113" lon="-4.26319">
        <ele>5.6</ele>
        <time>2020-08-17T13:40:59Z</time>
      </trkpt>
      <trkpt lat="48.64101" lon="-4.26397">
        <ele>5.5</ele>
        <time>2020-08-17T13:41:11Z</time>
      </trkpt>
      <trkpt lat="48.64093" lon="-4.26451">
        <ele>6.2</ele>
        <time>2020-08-17T13:41:20Z</time>
      </trkpt>
      <trkpt lat="48.64088" lon="-4.26484">
        <ele>7</ele>
        <time>2020-08-17T13:41:26Z</time>
      </trkpt>
      <trkpt lat="48.64083" lon="-4.26516">
        <ele>8.1</ele>
        <time>2020-08-17T13:41:31Z</time>
      </trkpt>
      <trkpt lat="48.64072" lon="-4.2659">
        <ele>7.3</ele>
        <time>2020-08-17T13:41:42Z</time>
      </trkpt>
      <trkpt lat="48.6406" lon="-4.26667">
        <ele>7.7</ele>
        <time>2020-08-17T13:41:53Z</time>
      </trkpt>
      <trkpt lat="48.64052" lon="-4.26714">
        <ele>7.8</ele>
        <time>2020-08-17T13:42:00Z</time>
      </trkpt>
      <trkpt lat="48.64041" lon="-4.2679">
        <ele>7.7</ele>
        <time>2020-08-17T13:42:12Z</time>
      </trkpt>
      <trkpt lat="48.64032" lon="-4.26848">
        <ele>6.9</ele>
        <time>2020-08-17T13:42:21Z</time>
      </trkpt>
      <trkpt lat="48.64026" lon="-4.26893">
        <ele>6.7</ele>
        <time>2020-08-17T13:42:29Z</time>
      </trkpt>
      <trkpt lat="48.64018" lon="-4.26947">
        <ele>6.5</ele>
        <time>2020-08-17T13:42:39Z</time>
      </trkpt>
      <trkpt lat="48.64013" lon="-4.2698">
        <ele>6.5</ele>
        <time>2020-08-17T13:42:46Z</time>
      </trkpt>
      <trkpt lat="48.64006" lon="-4.27027">
        <ele>6.6</ele>
        <time>2020-08-17T13:42:57Z</time>
      </trkpt>
      <trkpt lat="48.64003" lon="-4.27054">
        <ele>6.6</ele>
        <time>2020-08-17T13:43:04Z</time>
      </trkpt>
      <trkpt lat="48.63999" lon="-4.27078">
        <ele>5.8</ele>
        <time>2020-08-17T13:43:10Z</time>
      </trkpt>
      <trkpt lat="48.63995" lon="-4.27113">
        <ele>5.3</ele>
        <time>2020-08-17T13:43:17Z</time>
      </trkpt>
      <trkpt lat="48.63987" lon="-4.27169">
        <ele>6</ele>
        <time>2020-08-17T13:43:27Z</time>
      </trkpt>
      <trkpt lat="48.63982" lon="-4.27213">
        <ele>5.2</ele>
        <time>2020-08-17T13:43:36Z</time>
      </trkpt>
      <trkpt lat="48.63972" lon="-4.27273">
        <ele>5</ele>
        <time>2020-08-17T13:43:48Z</time>
      </trkpt>
      <trkpt lat="48.63966" lon="-4.27318">
        <ele>5</ele>
        <time>2020-08-17T13:43:58Z</time>
      </trkpt>
      <trkpt lat="48.63959" lon="-4.27363">
        <ele>5.4</ele>
        <time>2020-08-17T13:44:07Z</time>
      </trkpt>
      <trkpt lat="48.6395" lon="-4.2742">
        <ele>5.8</ele>
        <time>2020-08-17T13:44:18Z</time>
      </trkpt>
      <trkpt lat="48.63941" lon="-4.27468">
        <ele>5.8</ele>
        <time>2020-08-17T13:44:26Z</time>
      </trkpt>
      <trkpt lat="48.63928" lon="-4.27547">
        <ele>5</ele>
        <time>2020-08-17T13:44:39Z</time>
      </trkpt>
      <trkpt lat="48.63916" lon="-4.27611">
        <ele>3.2</ele>
        <time>2020-08-17T13:44:50Z</time>
      </trkpt>
      <trkpt lat="48.63901" lon="-4.27681">
        <ele>2.7</ele>
        <time>2020-08-17T13:45:02Z</time>
      </trkpt>
      <trkpt lat="48.63889" lon="-4.27734">
        <ele>2.6</ele>
        <time>2020-08-17T13:45:11Z</time>
      </trkpt>
      <trkpt lat="48.63876" lon="-4.27784">
        <ele>2.5</ele>
        <time>2020-08-17T13:45:20Z</time>
      </trkpt>
      <trkpt lat="48.63862" lon="-4.27835">
        <ele>1.9</ele>
        <time>2020-08-17T13:45:30Z</time>
      </trkpt>
      <trkpt lat="48.63845" lon="-4.27881">
        <ele>1.9</ele>
        <time>2020-08-17T13:45:39Z</time>
      </trkpt>
      <trkpt lat="48.63829" lon="-4.27933">
        <ele>1.9</ele>
        <time>2020-08-17T13:45:48Z</time>
      </trkpt>
      <trkpt lat="48.63821" lon="-4.27955">
        <ele>1.8</ele>
        <time>2020-08-17T13:45:52Z</time>
      </trkpt>
      <trkpt lat="48.63802" lon="-4.28011">
        <ele>1.6</ele>
        <time>2020-08-17T13:46:02Z</time>
      </trkpt>
      <trkpt lat="48.63789" lon="-4.28051">
        <ele>1.3</ele>
        <time>2020-08-17T13:46:10Z</time>
      </trkpt>
      <trkpt lat="48.63773" lon="-4.28101">
        <ele>1.4</ele>
        <time>2020-08-17T13:46:19Z</time>
      </trkpt>
      <trkpt lat="48.63747" lon="-4.28182">
        <ele>2.5</ele>
        <time>2020-08-17T13:46:33Z</time>
      </trkpt>
      <trkpt lat="48.63726" lon="-4.28247">
        <ele>1.3</ele>
        <time>2020-08-17T13:46:44Z</time>
      </trkpt>
      <trkpt lat="48.63711" lon="-4.2829">
        <ele>1.3</ele>
        <time>2020-08-17T13:46:52Z</time>
      </trkpt>
      <trkpt lat="48.63701" lon="-4.28321">
        <ele>1.3</ele>
        <time>2020-08-17T13:46:58Z</time>
      </trkpt>
      <trkpt lat="48.63704" lon="-4.28343">
        <ele>1.8</ele>
        <time>2020-08-17T13:47:02Z</time>
      </trkpt>
      <trkpt lat="48.63704" lon="-4.28343">
        <ele>1.8</ele>
        <time>2020-08-17T13:47:03Z</time>
      </trkpt>
      <trkpt lat="48.63704" lon="-4.28343">
        <ele>1.8</ele>
        <time>2020-08-17T13:47:20Z</time>
      </trkpt>
      <trkpt lat="48.63703" lon="-4.28341">
        <ele>1.8</ele>
        <time>2020-08-17T13:47:45Z</time>
      </trkpt>
      <trkpt lat="48.63696" lon="-4.28334">
        <ele>1.7</ele>
        <time>2020-08-17T13:47:55Z</time>
      </trkpt>
      <trkpt lat="48.63677" lon="-4.28391">
        <ele>1.9</ele>
        <time>2020-08-17T13:48:04Z</time>
      </trkpt>
      <trkpt lat="48.63661" lon="-4.28438">
        <ele>1.7</ele>
        <time>2020-08-17T13:48:13Z</time>
      </trkpt>
      <trkpt lat="48.63646" lon="-4.28485">
        <ele>1.7</ele>
        <time>2020-08-17T13:48:22Z</time>
      </trkpt>
      <trkpt lat="48.63631" lon="-4.2853">
        <ele>1.5</ele>
        <time>2020-08-17T13:48:31Z</time>
      </trkpt>
      <trkpt lat="48.63612" lon="-4.28588">
        <ele>1.4</ele>
        <time>2020-08-17T13:48:41Z</time>
      </trkpt>
      <trkpt lat="48.63588" lon="-4.28656">
        <ele>1.2</ele>
        <time>2020-08-17T13:48:52Z</time>
      </trkpt>
      <trkpt lat="48.63564" lon="-4.28728">
        <ele>1.6</ele>
        <time>2020-08-17T13:49:03Z</time>
      </trkpt>
      <trkpt lat="48.63537" lon="-4.28813">
        <ele>1.7</ele>
        <time>2020-08-17T13:49:16Z</time>
      </trkpt>
      <trkpt lat="48.63521" lon="-4.28865">
        <ele>1.4</ele>
        <time>2020-08-17T13:49:25Z</time>
      </trkpt>
      <trkpt lat="48.63504" lon="-4.28917">
        <ele>1</ele>
        <time>2020-08-17T13:49:34Z</time>
      </trkpt>
      <trkpt lat="48.63485" lon="-4.28974">
        <ele>1.5</ele>
        <time>2020-08-17T13:49:44Z</time>
      </trkpt>
      <trkpt lat="48.63467" lon="-4.29028">
        <ele>2</ele>
        <time>2020-08-17T13:49:53Z</time>
      </trkpt>
      <trkpt lat="48.63447" lon="-4.29087">
        <ele>2.1</ele>
        <time>2020-08-17T13:50:03Z</time>
      </trkpt>
      <trkpt lat="48.63426" lon="-4.29152">
        <ele>1.9</ele>
        <time>2020-08-17T13:50:14Z</time>
      </trkpt>
      <trkpt lat="48.63406" lon="-4.29198">
        <ele>1.5</ele>
        <time>2020-08-17T13:50:23Z</time>
      </trkpt>
      <trkpt lat="48.63382" lon="-4.29245">
        <ele>1.7</ele>
        <time>2020-08-17T13:50:32Z</time>
      </trkpt>
      <trkpt lat="48.63343" lon="-4.29312">
        <ele>1.8</ele>
        <time>2020-08-17T13:50:45Z</time>
      </trkpt>
      <trkpt lat="48.63311" lon="-4.29367">
        <ele>1.9</ele>
        <time>2020-08-17T13:50:56Z</time>
      </trkpt>
      <trkpt lat="48.63274" lon="-4.29423">
        <ele>1.9</ele>
        <time>2020-08-17T13:51:08Z</time>
      </trkpt>
      <trkpt lat="48.63249" lon="-4.2946">
        <ele>3.1</ele>
        <time>2020-08-17T13:51:16Z</time>
      </trkpt>
      <trkpt lat="48.63214" lon="-4.29507">
        <ele>4.4</ele>
        <time>2020-08-17T13:51:27Z</time>
      </trkpt>
      <trkpt lat="48.63176" lon="-4.29549">
        <ele>5.1</ele>
        <time>2020-08-17T13:51:38Z</time>
      </trkpt>
      <trkpt lat="48.63134" lon="-4.29596">
        <ele>5.5</ele>
        <time>2020-08-17T13:51:50Z</time>
      </trkpt>
      <trkpt lat="48.63095" lon="-4.2964">
        <ele>5.2</ele>
        <time>2020-08-17T13:52:02Z</time>
      </trkpt>
      <trkpt lat="48.63066" lon="-4.29679">
        <ele>5.9</ele>
        <time>2020-08-17T13:52:12Z</time>
      </trkpt>
      <trkpt lat="48.63043" lon="-4.29727">
        <ele>6.5</ele>
        <time>2020-08-17T13:52:22Z</time>
      </trkpt>
      <trkpt lat="48.63025" lon="-4.29784">
        <ele>6.9</ele>
        <time>2020-08-17T13:52:33Z</time>
      </trkpt>
      <trkpt lat="48.63009" lon="-4.29839">
        <ele>8.2</ele>
        <time>2020-08-17T13:52:44Z</time>
      </trkpt>
      <trkpt lat="48.62997" lon="-4.29879">
        <ele>8.9</ele>
        <time>2020-08-17T13:52:53Z</time>
      </trkpt>
      <trkpt lat="48.6299" lon="-4.29908">
        <ele>8.5</ele>
        <time>2020-08-17T13:52:59Z</time>
      </trkpt>
      <trkpt lat="48.62998" lon="-4.29918">
        <ele>8.1</ele>
        <time>2020-08-17T13:53:03Z</time>
      </trkpt>
      <trkpt lat="48.6301" lon="-4.29929">
        <ele>7.9</ele>
        <time>2020-08-17T13:53:08Z</time>
      </trkpt>
      <trkpt lat="48.63041" lon="-4.29939">
        <ele>7.6</ele>
        <time>2020-08-17T13:53:16Z</time>
      </trkpt>
      <trkpt lat="48.63075" lon="-4.29945">
        <ele>7.2</ele>
        <time>2020-08-17T13:53:24Z</time>
      </trkpt>
      <trkpt lat="48.6311" lon="-4.29954">
        <ele>6.1</ele>
        <time>2020-08-17T13:53:34Z</time>
      </trkpt>
      <trkpt lat="48.63145" lon="-4.29975">
        <ele>5.6</ele>
        <time>2020-08-17T13:53:44Z</time>
      </trkpt>
      <trkpt lat="48.63174" lon="-4.30006">
        <ele>4.2</ele>
        <time>2020-08-17T13:53:53Z</time>
      </trkpt>
      <trkpt lat="48.63198" lon="-4.30046">
        <ele>4.7</ele>
        <time>2020-08-17T13:54:01Z</time>
      </trkpt>
      <trkpt lat="48.63223" lon="-4.30087">
        <ele>5.6</ele>
        <time>2020-08-17T13:54:10Z</time>
      </trkpt>
      <trkpt lat="48.63244" lon="-4.30145">
        <ele>5.4</ele>
        <time>2020-08-17T13:54:19Z</time>
      </trkpt>
      <trkpt lat="48.63258" lon="-4.30197">
        <ele>3.6</ele>
        <time>2020-08-17T13:54:28Z</time>
      </trkpt>
      <trkpt lat="48.63266" lon="-4.30223">
        <ele>3.1</ele>
        <time>2020-08-17T13:54:33Z</time>
      </trkpt>
      <trkpt lat="48.63232" lon="-4.30267">
        <ele>3.2</ele>
        <time>2020-08-17T13:54:37Z</time>
      </trkpt>
      <trkpt lat="48.6324" lon="-4.30267">
        <ele>3.1</ele>
        <time>2020-08-17T13:54:39Z</time>
      </trkpt>
      <trkpt lat="48.63255" lon="-4.30265">
        <ele>2.7</ele>
        <time>2020-08-17T13:54:43Z</time>
      </trkpt>
      <trkpt lat="48.63276" lon="-4.30257">
        <ele>2.5</ele>
        <time>2020-08-17T13:54:49Z</time>
      </trkpt>
      <trkpt lat="48.63281" lon="-4.30254">
        <ele>2.4</ele>
        <time>2020-08-17T13:54:53Z</time>
      </trkpt>
      <trkpt lat="48.63281" lon="-4.30254">
        <ele>2.4</ele>
        <time>2020-08-17T13:54:54Z</time>
      </trkpt>
      <trkpt lat="48.63276" lon="-4.30256">
        <ele>2.5</ele>
        <time>2020-08-17T13:56:35Z</time>
      </trkpt>
      <trkpt lat="48.63276" lon="-4.30256">
        <ele>2.5</ele>
        <time>2020-08-17T13:56:54Z</time>
      </trkpt>
      <trkpt lat="48.63276" lon="-4.30256">
        <ele>2.5</ele>
        <time>2020-08-17T13:56:57Z</time>
      </trkpt>
      <trkpt lat="48.63283" lon="-4.30298">
        <ele>2.4</ele>
        <time>2020-08-17T13:57:28Z</time>
      </trkpt>
      <trkpt lat="48.63297" lon="-4.30343">
        <ele>3</ele>
        <time>2020-08-17T13:57:38Z</time>
      </trkpt>
      <trkpt lat="48.63309" lon="-4.30391">
        <ele>2.8</ele>
        <time>2020-08-17T13:57:48Z</time>
      </trkpt>
      <trkpt lat="48.6332" lon="-4.30434">
        <ele>2.6</ele>
        <time>2020-08-17T13:57:57Z</time>
      </trkpt>
      <trkpt lat="48.63329" lon="-4.30467">
        <ele>2.9</ele>
        <time>2020-08-17T13:58:04Z</time>
      </trkpt>
      <trkpt lat="48.63337" lon="-4.30501">
        <ele>2.8</ele>
        <time>2020-08-17T13:58:12Z</time>
      </trkpt>
      <trkpt lat="48.63344" lon="-4.30526">
        <ele>1.9</ele>
        <time>2020-08-17T13:58:19Z</time>
      </trkpt>
      <trkpt lat="48.63344" lon="-4.30526">
        <ele>1.9</ele>
        <time>2020-08-17T13:58:20Z</time>
      </trkpt>
      <trkpt lat="48.63346" lon="-4.30534">
        <ele>1.8</ele>
        <time>2020-08-17T13:59:11Z</time>
      </trkpt>
      <trkpt lat="48.63347" lon="-4.30539">
        <ele>1.7</ele>
        <time>2020-08-17T13:59:15Z</time>
      </trkpt>
      <trkpt lat="48.63349" lon="-4.30546">
        <ele>1.6</ele>
        <time>2020-08-17T13:59:43Z</time>
      </trkpt>
      <trkpt lat="48.63353" lon="-4.30564">
        <ele>1.4</ele>
        <time>2020-08-17T13:59:50Z</time>
      </trkpt>
      <trkpt lat="48.63359" lon="-4.30584">
        <ele>1.1</ele>
        <time>2020-08-17T13:59:58Z</time>
      </trkpt>
      <trkpt lat="48.63364" lon="-4.30607">
        <ele>1.2</ele>
        <time>2020-08-17T14:00:08Z</time>
      </trkpt>
      <trkpt lat="48.63369" lon="-4.30628">
        <ele>1.3</ele>
        <time>2020-08-17T14:00:17Z</time>
      </trkpt>
      <trkpt lat="48.63374" lon="-4.30646">
        <ele>1.3</ele>
        <time>2020-08-17T14:00:27Z</time>
      </trkpt>
      <trkpt lat="48.63378" lon="-4.30663">
        <ele>1.3</ele>
        <time>2020-08-17T14:00:35Z</time>
      </trkpt>
      <trkpt lat="48.63383" lon="-4.3068">
        <ele>2.1</ele>
        <time>2020-08-17T14:00:43Z</time>
      </trkpt>
      <trkpt lat="48.63384" lon="-4.30684">
        <ele>2.1</ele>
        <time>2020-08-17T14:00:47Z</time>
      </trkpt>
      <trkpt lat="48.63385" lon="-4.30689">
        <ele>2.2</ele>
        <time>2020-08-17T14:01:46Z</time>
      </trkpt>
      <trkpt lat="48.63389" lon="-4.30705">
        <ele>2.4</ele>
        <time>2020-08-17T14:01:53Z</time>
      </trkpt>
      <trkpt lat="48.63394" lon="-4.30724">
        <ele>2.6</ele>
        <time>2020-08-17T14:01:59Z</time>
      </trkpt>
      <trkpt lat="48.634" lon="-4.30747">
        <ele>2.8</ele>
        <time>2020-08-17T14:02:05Z</time>
      </trkpt>
      <trkpt lat="48.63409" lon="-4.30783">
        <ele>3.5</ele>
        <time>2020-08-17T14:02:13Z</time>
      </trkpt>
      <trkpt lat="48.63417" lon="-4.30817">
        <ele>2.8</ele>
        <time>2020-08-17T14:02:21Z</time>
      </trkpt>
      <trkpt lat="48.63428" lon="-4.30861">
        <ele>2.7</ele>
        <time>2020-08-17T14:02:30Z</time>
      </trkpt>
      <trkpt lat="48.63437" lon="-4.30894">
        <ele>2.3</ele>
        <time>2020-08-17T14:02:37Z</time>
      </trkpt>
      <trkpt lat="48.63447" lon="-4.30938">
        <ele>2</ele>
        <time>2020-08-17T14:02:47Z</time>
      </trkpt>
      <trkpt lat="48.63455" lon="-4.30967">
        <ele>2</ele>
        <time>2020-08-17T14:02:54Z</time>
      </trkpt>
      <trkpt lat="48.63463" lon="-4.30999">
        <ele>1.9</ele>
        <time>2020-08-17T14:03:02Z</time>
      </trkpt>
      <trkpt lat="48.63471" lon="-4.31031">
        <ele>2.1</ele>
        <time>2020-08-17T14:03:11Z</time>
      </trkpt>
      <trkpt lat="48.63479" lon="-4.31062">
        <ele>2.1</ele>
        <time>2020-08-17T14:03:19Z</time>
      </trkpt>
      <trkpt lat="48.63487" lon="-4.31087">
        <ele>2.3</ele>
        <time>2020-08-17T14:03:27Z</time>
      </trkpt>
      <trkpt lat="48.63493" lon="-4.31106">
        <ele>2.5</ele>
        <time>2020-08-17T14:03:33Z</time>
      </trkpt>
      <trkpt lat="48.63508" lon="-4.31148">
        <ele>2.3</ele>
        <time>2020-08-17T14:03:44Z</time>
      </trkpt>
      <trkpt lat="48.63523" lon="-4.31192">
        <ele>2.2</ele>
        <time>2020-08-17T14:03:56Z</time>
      </trkpt>
      <trkpt lat="48.63539" lon="-4.31233">
        <ele>2</ele>
        <time>2020-08-17T14:04:06Z</time>
      </trkpt>
      <trkpt lat="48.63557" lon="-4.31277">
        <ele>2.2</ele>
        <time>2020-08-17T14:04:16Z</time>
      </trkpt>
      <trkpt lat="48.63578" lon="-4.31322">
        <ele>2.2</ele>
        <time>2020-08-17T14:04:27Z</time>
      </trkpt>
      <trkpt lat="48.63606" lon="-4.31372">
        <ele>2.4</ele>
        <time>2020-08-17T14:04:39Z</time>
      </trkpt>
      <trkpt lat="48.63632" lon="-4.31416">
        <ele>2.4</ele>
        <time>2020-08-17T14:04:50Z</time>
      </trkpt>
      <trkpt lat="48.63663" lon="-4.31467">
        <ele>3.2</ele>
        <time>2020-08-17T14:05:03Z</time>
      </trkpt>
      <trkpt lat="48.63695" lon="-4.31517">
        <ele>3</ele>
        <time>2020-08-17T14:05:16Z</time>
      </trkpt>
      <trkpt lat="48.63729" lon="-4.31565">
        <ele>3</ele>
        <time>2020-08-17T14:05:30Z</time>
      </trkpt>
      <trkpt lat="48.63744" lon="-4.31589">
        <ele>3</ele>
        <time>2020-08-17T14:05:38Z</time>
      </trkpt>
      <trkpt lat="48.63747" lon="-4.31608">
        <ele>3</ele>
        <time>2020-08-17T14:05:39Z</time>
      </trkpt>
      <trkpt lat="48.63765" lon="-4.31614">
        <ele>2.6</ele>
        <time>2020-08-17T14:05:46Z</time>
      </trkpt>
      <trkpt lat="48.6379" lon="-4.31621">
        <ele>2.5</ele>
        <time>2020-08-17T14:05:54Z</time>
      </trkpt>
      <trkpt lat="48.63812" lon="-4.31627">
        <ele>2.4</ele>
        <time>2020-08-17T14:06:01Z</time>
      </trkpt>
      <trkpt lat="48.63829" lon="-4.31632">
        <ele>2.4</ele>
        <time>2020-08-17T14:06:06Z</time>
      </trkpt>
      <trkpt lat="48.63817" lon="-4.31635">
        <ele>2.5</ele>
        <time>2020-08-17T14:06:10Z</time>
      </trkpt>
      <trkpt lat="48.63827" lon="-4.31631">
        <ele>2.4</ele>
        <time>2020-08-17T14:06:13Z</time>
      </trkpt>
      <trkpt lat="48.63815" lon="-4.31652">
        <ele>2.7</ele>
        <time>2020-08-17T14:06:16Z</time>
      </trkpt>
      <trkpt lat="48.63828" lon="-4.31632">
        <ele>2.4</ele>
        <time>2020-08-17T14:06:19Z</time>
      </trkpt>
      <trkpt lat="48.63852" lon="-4.31638">
        <ele>2.2</ele>
        <time>2020-08-17T14:06:27Z</time>
      </trkpt>
      <trkpt lat="48.63882" lon="-4.31647">
        <ele>2.1</ele>
        <time>2020-08-17T14:06:37Z</time>
      </trkpt>
      <trkpt lat="48.63909" lon="-4.31655">
        <ele>2</ele>
        <time>2020-08-17T14:06:46Z</time>
      </trkpt>
      <trkpt lat="48.63923" lon="-4.31659">
        <ele>2</ele>
        <time>2020-08-17T14:06:51Z</time>
      </trkpt>
      <trkpt lat="48.63931" lon="-4.31804">
        <ele>3</ele>
        <time>2020-08-17T14:07:00Z</time>
      </trkpt>
      <trkpt lat="48.6396" lon="-4.31837">
        <ele>3.7</ele>
        <time>2020-08-17T14:07:11Z</time>
      </trkpt>
      <trkpt lat="48.63975" lon="-4.31854">
        <ele>3.8</ele>
        <time>2020-08-17T14:07:17Z</time>
      </trkpt>
      <trkpt lat="48.64002" lon="-4.31882">
        <ele>4.1</ele>
        <time>2020-08-17T14:07:27Z</time>
      </trkpt>
      <trkpt lat="48.64037" lon="-4.31919">
        <ele>4.3</ele>
        <time>2020-08-17T14:07:40Z</time>
      </trkpt>
      <trkpt lat="48.64068" lon="-4.31951">
        <ele>4.5</ele>
        <time>2020-08-17T14:07:52Z</time>
      </trkpt>
      <trkpt lat="48.64097" lon="-4.31982">
        <ele>6.3</ele>
        <time>2020-08-17T14:08:04Z</time>
      </trkpt>
      <trkpt lat="48.64126" lon="-4.32016">
        <ele>8.2</ele>
        <time>2020-08-17T14:08:16Z</time>
      </trkpt>
      <trkpt lat="48.64151" lon="-4.32044">
        <ele>9</ele>
        <time>2020-08-17T14:08:26Z</time>
      </trkpt>
      <trkpt lat="48.6417" lon="-4.3206">
        <ele>10</ele>
        <time>2020-08-17T14:08:34Z</time>
      </trkpt>
      <trkpt lat="48.64172" lon="-4.32062">
        <ele>10.1</ele>
        <time>2020-08-17T14:08:40Z</time>
      </trkpt>
      <trkpt lat="48.64172" lon="-4.32062">
        <ele>10.1</ele>
        <time>2020-08-17T14:08:43Z</time>
      </trkpt>
      <trkpt lat="48.64172" lon="-4.32062">
        <ele>10.1</ele>
        <time>2020-08-17T14:09:48Z</time>
      </trkpt>
      <trkpt lat="48.64172" lon="-4.32062">
        <ele>10.1</ele>
        <time>2020-08-17T14:09:58Z</time>
      </trkpt>
      <trkpt lat="48.64172" lon="-4.32062">
        <ele>10.1</ele>
        <time>2020-08-17T14:10:07Z</time>
      </trkpt>
      <trkpt lat="48.64235" lon="-4.32166">
        <ele>9.6</ele>
        <time>2020-08-17T14:10:15Z</time>
      </trkpt>
      <trkpt lat="48.64254" lon="-4.32196">
        <ele>8.7</ele>
        <time>2020-08-17T14:10:24Z</time>
      </trkpt>
      <trkpt lat="48.64273" lon="-4.3223">
        <ele>8.6</ele>
        <time>2020-08-17T14:10:32Z</time>
      </trkpt>
      <trkpt lat="48.6429" lon="-4.3226">
        <ele>8</ele>
        <time>2020-08-17T14:10:39Z</time>
      </trkpt>
      <trkpt lat="48.64313" lon="-4.323">
        <ele>7.7</ele>
        <time>2020-08-17T14:10:48Z</time>
      </trkpt>
      <trkpt lat="48.64335" lon="-4.32338">
        <ele>6.9</ele>
        <time>2020-08-17T14:10:57Z</time>
      </trkpt>
      <trkpt lat="48.64361" lon="-4.32381">
        <ele>6.4</ele>
        <time>2020-08-17T14:11:06Z</time>
      </trkpt>
      <trkpt lat="48.64394" lon="-4.3244">
        <ele>6.9</ele>
        <time>2020-08-17T14:11:18Z</time>
      </trkpt>
      <trkpt lat="48.64421" lon="-4.32487">
        <ele>6.8</ele>
        <time>2020-08-17T14:11:28Z</time>
      </trkpt>
      <trkpt lat="48.64447" lon="-4.32532">
        <ele>7.2</ele>
        <time>2020-08-17T14:11:38Z</time>
      </trkpt>
      <trkpt lat="48.64467" lon="-4.32567">
        <ele>7.5</ele>
        <time>2020-08-17T14:11:46Z</time>
      </trkpt>
      <trkpt lat="48.64484" lon="-4.32597">
        <ele>8.1</ele>
        <time>2020-08-17T14:11:53Z</time>
      </trkpt>
      <trkpt lat="48.64503" lon="-4.32631">
        <ele>8</ele>
        <time>2020-08-17T14:12:02Z</time>
      </trkpt>
      <trkpt lat="48.64514" lon="-4.32656">
        <ele>8</ele>
        <time>2020-08-17T14:12:10Z</time>
      </trkpt>
      <trkpt lat="48.64521" lon="-4.32674">
        <ele>8.6</ele>
        <time>2020-08-17T14:12:16Z</time>
      </trkpt>
      <trkpt lat="48.64527" lon="-4.32704">
        <ele>8.8</ele>
        <time>2020-08-17T14:12:24Z</time>
      </trkpt>
      <trkpt lat="48.64533" lon="-4.32743">
        <ele>9</ele>
        <time>2020-08-17T14:12:33Z</time>
      </trkpt>
      <trkpt lat="48.6454" lon="-4.32781">
        <ele>9.9</ele>
        <time>2020-08-17T14:12:41Z</time>
      </trkpt>
      <trkpt lat="48.64551" lon="-4.32816">
        <ele>10.2</ele>
        <time>2020-08-17T14:12:49Z</time>
      </trkpt>
      <trkpt lat="48.64557" lon="-4.32838">
        <ele>10.6</ele>
        <time>2020-08-17T14:12:56Z</time>
      </trkpt>
      <trkpt lat="48.64558" lon="-4.3284">
        <ele>10.6</ele>
        <time>2020-08-17T14:12:57Z</time>
      </trkpt>
      <trkpt lat="48.64577" lon="-4.32854">
        <ele>10.7</ele>
        <time>2020-08-17T14:13:02Z</time>
      </trkpt>
      <trkpt lat="48.64597" lon="-4.3285">
        <ele>11</ele>
        <time>2020-08-17T14:13:10Z</time>
      </trkpt>
      <trkpt lat="48.64616" lon="-4.32844">
        <ele>11</ele>
        <time>2020-08-17T14:13:16Z</time>
      </trkpt>
      <trkpt lat="48.64624" lon="-4.32824">
        <ele>10.7</ele>
        <time>2020-08-17T14:13:22Z</time>
      </trkpt>
      <trkpt lat="48.64643" lon="-4.32783">
        <ele>10.3</ele>
        <time>2020-08-17T14:13:31Z</time>
      </trkpt>
      <trkpt lat="48.64664" lon="-4.32734">
        <ele>9.2</ele>
        <time>2020-08-17T14:13:41Z</time>
      </trkpt>
      <trkpt lat="48.64687" lon="-4.32683">
        <ele>9.3</ele>
        <time>2020-08-17T14:13:51Z</time>
      </trkpt>
      <trkpt lat="48.64707" lon="-4.32636">
        <ele>9.3</ele>
        <time>2020-08-17T14:14:00Z</time>
      </trkpt>
      <trkpt lat="48.64711" lon="-4.32625">
        <ele>9.3</ele>
        <time>2020-08-17T14:14:02Z</time>
      </trkpt>
      <trkpt lat="48.64728" lon="-4.32563">
        <ele>9.3</ele>
        <time>2020-08-17T14:14:13Z</time>
      </trkpt>
      <trkpt lat="48.64734" lon="-4.32522">
        <ele>9.4</ele>
        <time>2020-08-17T14:14:20Z</time>
      </trkpt>
      <trkpt lat="48.64755" lon="-4.32516">
        <ele>10.5</ele>
        <time>2020-08-17T14:14:25Z</time>
      </trkpt>
      <trkpt lat="48.64779" lon="-4.3251">
        <ele>10.8</ele>
        <time>2020-08-17T14:14:31Z</time>
      </trkpt>
      <trkpt lat="48.648" lon="-4.32503">
        <ele>11.2</ele>
        <time>2020-08-17T14:14:37Z</time>
      </trkpt>
      <trkpt lat="48.64829" lon="-4.32493">
        <ele>11.7</ele>
        <time>2020-08-17T14:14:45Z</time>
      </trkpt>
      <trkpt lat="48.64853" lon="-4.32483">
        <ele>13</ele>
        <time>2020-08-17T14:14:52Z</time>
      </trkpt>
      <trkpt lat="48.6488" lon="-4.32472">
        <ele>13.6</ele>
        <time>2020-08-17T14:15:00Z</time>
      </trkpt>
      <trkpt lat="48.6491" lon="-4.32459">
        <ele>14</ele>
        <time>2020-08-17T14:15:09Z</time>
      </trkpt>
      <trkpt lat="48.64938" lon="-4.32447">
        <ele>16.5</ele>
        <time>2020-08-17T14:15:18Z</time>
      </trkpt>
      <trkpt lat="48.6496" lon="-4.32434">
        <ele>17.1</ele>
        <time>2020-08-17T14:15:26Z</time>
      </trkpt>
      <trkpt lat="48.64966" lon="-4.32431">
        <ele>17.2</ele>
        <time>2020-08-17T14:15:31Z</time>
      </trkpt>
      <trkpt lat="48.64966" lon="-4.32431">
        <ele>17.2</ele>
        <time>2020-08-17T14:16:13Z</time>
      </trkpt>
      <trkpt lat="48.64962" lon="-4.32433">
        <ele>17.1</ele>
        <time>2020-08-17T14:16:19Z</time>
      </trkpt>
      <trkpt lat="48.64947" lon="-4.32409">
        <ele>16.5</ele>
        <time>2020-08-17T14:16:24Z</time>
      </trkpt>
      <trkpt lat="48.64949" lon="-4.32376">
        <ele>16.6</ele>
        <time>2020-08-17T14:16:31Z</time>
      </trkpt>
      <trkpt lat="48.64949" lon="-4.32375">
        <ele>16.6</ele>
        <time>2020-08-17T14:16:36Z</time>
      </trkpt>
      <trkpt lat="48.64949" lon="-4.32375">
        <ele>16.6</ele>
        <time>2020-08-17T14:16:41Z</time>
      </trkpt>
      <trkpt lat="48.64949" lon="-4.32375">
        <ele>16.6</ele>
        <time>2020-08-17T14:16:47Z</time>
      </trkpt>
      <trkpt lat="48.64949" lon="-4.32375">
        <ele>16.6</ele>
        <time>2020-08-17T14:16:52Z</time>
      </trkpt>
      <trkpt lat="48.64969" lon="-4.32242">
        <ele>16.1</ele>
        <time>2020-08-17T14:17:00Z</time>
      </trkpt>
      <trkpt lat="48.64974" lon="-4.32211">
        <ele>15.9</ele>
        <time>2020-08-17T14:17:06Z</time>
      </trkpt>
      <trkpt lat="48.64979" lon="-4.32184">
        <ele>16</ele>
        <time>2020-08-17T14:17:11Z</time>
      </trkpt>
      <trkpt lat="48.64991" lon="-4.32137">
        <ele>15.5</ele>
        <time>2020-08-17T14:17:18Z</time>
      </trkpt>
      <trkpt lat="48.65003" lon="-4.32125">
        <ele>17.3</ele>
        <time>2020-08-17T14:17:24Z</time>
      </trkpt>
      <trkpt lat="48.65018" lon="-4.321">
        <ele>17.1</ele>
        <time>2020-08-17T14:17:31Z</time>
      </trkpt>
      <trkpt lat="48.65025" lon="-4.32074">
        <ele>16.5</ele>
        <time>2020-08-17T14:17:36Z</time>
      </trkpt>
      <trkpt lat="48.65032" lon="-4.32011">
        <ele>16.4</ele>
        <time>2020-08-17T14:17:47Z</time>
      </trkpt>
      <trkpt lat="48.65037" lon="-4.31954">
        <ele>17.2</ele>
        <time>2020-08-17T14:17:57Z</time>
      </trkpt>
      <trkpt lat="48.65041" lon="-4.3192">
        <ele>17.5</ele>
        <time>2020-08-17T14:18:04Z</time>
      </trkpt>
      <trkpt lat="48.65045" lon="-4.31893">
        <ele>18.7</ele>
        <time>2020-08-17T14:18:11Z</time>
      </trkpt>
      <trkpt lat="48.6505" lon="-4.31889">
        <ele>18.9</ele>
        <time>2020-08-17T14:18:14Z</time>
      </trkpt>
      <trkpt lat="48.65066" lon="-4.31886">
        <ele>19.2</ele>
        <time>2020-08-17T14:18:22Z</time>
      </trkpt>
      <trkpt lat="48.6508" lon="-4.31884">
        <ele>19.5</ele>
        <time>2020-08-17T14:18:28Z</time>
      </trkpt>
      <trkpt lat="48.6509" lon="-4.31882">
        <ele>20.7</ele>
        <time>2020-08-17T14:18:34Z</time>
      </trkpt>
      <trkpt lat="48.65101" lon="-4.31879">
        <ele>20.8</ele>
        <time>2020-08-17T14:18:40Z</time>
      </trkpt>
      <trkpt lat="48.65103" lon="-4.31878">
        <ele>20.8</ele>
        <time>2020-08-17T14:18:44Z</time>
      </trkpt>
      <trkpt lat="48.65101" lon="-4.31861">
        <ele>21.1</ele>
        <time>2020-08-17T14:19:13Z</time>
      </trkpt>
      <trkpt lat="48.65094" lon="-4.31837">
        <ele>21.6</ele>
        <time>2020-08-17T14:19:21Z</time>
      </trkpt>
      <trkpt lat="48.65087" lon="-4.31815">
        <ele>22.3</ele>
        <time>2020-08-17T14:19:28Z</time>
      </trkpt>
      <trkpt lat="48.65081" lon="-4.31791">
        <ele>21.1</ele>
        <time>2020-08-17T14:19:36Z</time>
      </trkpt>
      <trkpt lat="48.65081" lon="-4.31791">
        <ele>21.1</ele>
        <time>2020-08-17T14:19:43Z</time>
      </trkpt>
      <trkpt lat="48.65081" lon="-4.31791">
        <ele>21.1</ele>
        <time>2020-08-17T14:19:52Z</time>
      </trkpt>
      <trkpt lat="48.65072" lon="-4.31735">
        <ele>22.2</ele>
        <time>2020-08-17T14:19:56Z</time>
      </trkpt>
      <trkpt lat="48.65072" lon="-4.31735">
        <ele>22.2</ele>
        <time>2020-08-17T14:20:00Z</time>
      </trkpt>
      <trkpt lat="48.65097" lon="-4.31718">
        <ele>23.1</ele>
        <time>2020-08-17T14:20:08Z</time>
      </trkpt>
      <trkpt lat="48.65101" lon="-4.31715">
        <ele>23.1</ele>
        <time>2020-08-17T14:20:10Z</time>
      </trkpt>
      <trkpt lat="48.65106" lon="-4.31713">
        <ele>23.1</ele>
        <time>2020-08-17T14:20:14Z</time>
      </trkpt>
      <trkpt lat="48.65106" lon="-4.31713">
        <ele>23.1</ele>
        <time>2020-08-17T14:20:30Z</time>
      </trkpt>
      <trkpt lat="48.65106" lon="-4.31713">
        <ele>23.1</ele>
        <time>2020-08-17T14:20:33Z</time>
      </trkpt>
      <trkpt lat="48.6507" lon="-4.31729">
        <ele>22.1</ele>
        <time>2020-08-17T14:23:23Z</time>
      </trkpt>
      <trkpt lat="48.6507" lon="-4.31729">
        <ele>22.1</ele>
        <time>2020-08-17T14:23:33Z</time>
      </trkpt>
      <trkpt lat="48.65067" lon="-4.31714">
        <ele>22</ele>
        <time>2020-08-17T14:23:40Z</time>
      </trkpt>
      <trkpt lat="48.65067" lon="-4.31714">
        <ele>22</ele>
        <time>2020-08-17T14:32:02Z</time>
      </trkpt>
      <trkpt lat="48.65067" lon="-4.31714">
        <ele>22</ele>
        <time>2020-08-17T14:32:05Z</time>
      </trkpt>
      <trkpt lat="48.65067" lon="-4.31714">
        <ele>22</ele>
        <time>2020-08-17T14:32:13Z</time>
      </trkpt>
      <trkpt lat="48.65067" lon="-4.31714">
        <ele>22</ele>
        <time>2020-08-17T14:32:16Z</time>
      </trkpt>
      <trkpt lat="48.65067" lon="-4.31714">
        <ele>22</ele>
        <time>2020-08-17T14:32:18Z</time>
      </trkpt>
      <trkpt lat="48.65067" lon="-4.31714">
        <ele>22</ele>
        <time>2020-08-17T14:32:24Z</time>
      </trkpt>
      <trkpt lat="48.65067" lon="-4.31714">
        <ele>22</ele>
        <time>2020-08-17T14:32:28Z</time>
      </trkpt>
      <trkpt lat="48.65399" lon="-4.31022">
        <ele>21.3</ele>
        <time>2020-08-18T08:08:48Z</time>
      </trkpt>
      <trkpt lat="48.654" lon="-4.31017">
        <ele>21.4</ele>
        <time>2020-08-18T08:08:50Z</time>
      </trkpt>
      <trkpt lat="48.654" lon="-4.30992">
        <ele>21.8</ele>
        <time>2020-08-18T08:08:56Z</time>
      </trkpt>
      <trkpt lat="48.654" lon="-4.30986">
        <ele>21.7</ele>
        <time>2020-08-18T08:08:57Z</time>
      </trkpt>
      <trkpt lat="48.65391" lon="-4.30942">
        <ele>21.4</ele>
        <time>2020-08-18T08:09:04Z</time>
      </trkpt>
      <trkpt lat="48.6538" lon="-4.30888">
        <ele>21</ele>
        <time>2020-08-18T08:09:13Z</time>
      </trkpt>
      <trkpt lat="48.6537" lon="-4.30842">
        <ele>21.1</ele>
        <time>2020-08-18T08:09:21Z</time>
      </trkpt>
      <trkpt lat="48.65364" lon="-4.30794">
        <ele>21.6</ele>
        <time>2020-08-18T08:09:29Z</time>
      </trkpt>
      <trkpt lat="48.65368" lon="-4.30758">
        <ele>21.8</ele>
        <time>2020-08-18T08:09:36Z</time>
      </trkpt>
      <trkpt lat="48.65373" lon="-4.30738">
        <ele>21.9</ele>
        <time>2020-08-18T08:09:42Z</time>
      </trkpt>
      <trkpt lat="48.65383" lon="-4.30715">
        <ele>21.7</ele>
        <time>2020-08-18T08:09:48Z</time>
      </trkpt>
      <trkpt lat="48.65399" lon="-4.30682">
        <ele>21.4</ele>
        <time>2020-08-18T08:09:54Z</time>
      </trkpt>
      <trkpt lat="48.65421" lon="-4.30639">
        <ele>19.2</ele>
        <time>2020-08-18T08:10:00Z</time>
      </trkpt>
      <trkpt lat="48.65431" lon="-4.30625">
        <ele>18.7</ele>
        <time>2020-08-18T08:10:02Z</time>
      </trkpt>
      <trkpt lat="48.65456" lon="-4.30604">
        <ele>18</ele>
        <time>2020-08-18T08:10:06Z</time>
      </trkpt>
      <trkpt lat="48.6549" lon="-4.30594">
        <ele>16.3</ele>
        <time>2020-08-18T08:10:11Z</time>
      </trkpt>
      <trkpt lat="48.65513" lon="-4.30574">
        <ele>13.5</ele>
        <time>2020-08-18T08:10:16Z</time>
      </trkpt>
      <trkpt lat="48.6552" lon="-4.30561">
        <ele>12.8</ele>
        <time>2020-08-18T08:10:18Z</time>
      </trkpt>
      <trkpt lat="48.65529" lon="-4.30537">
        <ele>12.2</ele>
        <time>2020-08-18T08:10:21Z</time>
      </trkpt>
      <trkpt lat="48.65535" lon="-4.30492">
        <ele>11.2</ele>
        <time>2020-08-18T08:10:26Z</time>
      </trkpt>
      <trkpt lat="48.65536" lon="-4.30482">
        <ele>11.1</ele>
        <time>2020-08-18T08:10:27Z</time>
      </trkpt>
      <trkpt lat="48.65543" lon="-4.30419">
        <ele>10.1</ele>
        <time>2020-08-18T08:10:33Z</time>
      </trkpt>
      <trkpt lat="48.65553" lon="-4.30382">
        <ele>8.6</ele>
        <time>2020-08-18T08:10:38Z</time>
      </trkpt>
      <trkpt lat="48.65574" lon="-4.3035">
        <ele>7.8</ele>
        <time>2020-08-18T08:10:41Z</time>
      </trkpt>
      <trkpt lat="48.65595" lon="-4.30323">
        <ele>7</ele>
        <time>2020-08-18T08:10:47Z</time>
      </trkpt>
      <trkpt lat="48.65595" lon="-4.30323">
        <ele>7</ele>
        <time>2020-08-18T08:10:49Z</time>
      </trkpt>
      <trkpt lat="48.65595" lon="-4.30323">
        <ele>7</ele>
        <time>2020-08-18T08:10:51Z</time>
      </trkpt>
      <trkpt lat="48.65631" lon="-4.30266">
        <ele>7</ele>
        <time>2020-08-18T08:10:56Z</time>
      </trkpt>
      <trkpt lat="48.65632" lon="-4.30264">
        <ele>7</ele>
        <time>2020-08-18T08:10:59Z</time>
      </trkpt>
      <trkpt lat="48.65629" lon="-4.30271">
        <ele>7</ele>
        <time>2020-08-18T08:11:07Z</time>
      </trkpt>
      <trkpt lat="48.65641" lon="-4.30297">
        <ele>7</ele>
        <time>2020-08-18T08:11:12Z</time>
      </trkpt>
      <trkpt lat="48.6565" lon="-4.30293">
        <ele>7</ele>
        <time>2020-08-18T08:11:15Z</time>
      </trkpt>
      <trkpt lat="48.65685" lon="-4.30277">
        <ele>7.7</ele>
        <time>2020-08-18T08:11:24Z</time>
      </trkpt>
      <trkpt lat="48.6572" lon="-4.30257">
        <ele>8.2</ele>
        <time>2020-08-18T08:11:32Z</time>
      </trkpt>
      <trkpt lat="48.65759" lon="-4.30223">
        <ele>8.6</ele>
        <time>2020-08-18T08:11:42Z</time>
      </trkpt>
      <trkpt lat="48.65798" lon="-4.30191">
        <ele>8.2</ele>
        <time>2020-08-18T08:11:52Z</time>
      </trkpt>
      <trkpt lat="48.65833" lon="-4.30161">
        <ele>6.9</ele>
        <time>2020-08-18T08:12:02Z</time>
      </trkpt>
      <trkpt lat="48.6586" lon="-4.30127">
        <ele>7.3</ele>
        <time>2020-08-18T08:12:10Z</time>
      </trkpt>
      <trkpt lat="48.6589" lon="-4.30088">
        <ele>7.2</ele>
        <time>2020-08-18T08:12:18Z</time>
      </trkpt>
      <trkpt lat="48.65916" lon="-4.30046">
        <ele>5.5</ele>
        <time>2020-08-18T08:12:28Z</time>
      </trkpt>
      <trkpt lat="48.65954" lon="-4.29976">
        <ele>5</ele>
        <time>2020-08-18T08:12:38Z</time>
      </trkpt>
      <trkpt lat="48.65969" lon="-4.29948">
        <ele>5.2</ele>
        <time>2020-08-18T08:12:44Z</time>
      </trkpt>
      <trkpt lat="48.65975" lon="-4.29936">
        <ele>5.4</ele>
        <time>2020-08-18T08:12:48Z</time>
      </trkpt>
      <trkpt lat="48.65975" lon="-4.29936">
        <ele>5.4</ele>
        <time>2020-08-18T08:13:00Z</time>
      </trkpt>
      <trkpt lat="48.65983" lon="-4.29924">
        <ele>5.9</ele>
        <time>2020-08-18T08:15:15Z</time>
      </trkpt>
      <trkpt lat="48.65986" lon="-4.2992">
        <ele>6</ele>
        <time>2020-08-18T08:15:18Z</time>
      </trkpt>
      <trkpt lat="48.65987" lon="-4.29919">
        <ele>6.1</ele>
        <time>2020-08-18T08:17:10Z</time>
      </trkpt>
      <trkpt lat="48.65993" lon="-4.2991">
        <ele>5.9</ele>
        <time>2020-08-18T08:17:15Z</time>
      </trkpt>
      <trkpt lat="48.66008" lon="-4.2989">
        <ele>6.4</ele>
        <time>2020-08-18T08:17:22Z</time>
      </trkpt>
      <trkpt lat="48.66033" lon="-4.29855">
        <ele>6</ele>
        <time>2020-08-18T08:17:30Z</time>
      </trkpt>
      <trkpt lat="48.66067" lon="-4.29802">
        <ele>5.6</ele>
        <time>2020-08-18T08:17:40Z</time>
      </trkpt>
      <trkpt lat="48.661" lon="-4.29747">
        <ele>7.1</ele>
        <time>2020-08-18T08:17:50Z</time>
      </trkpt>
      <trkpt lat="48.66142" lon="-4.29678">
        <ele>7.4</ele>
        <time>2020-08-18T08:18:03Z</time>
      </trkpt>
      <trkpt lat="48.66165" lon="-4.29641">
        <ele>7.7</ele>
        <time>2020-08-18T08:18:11Z</time>
      </trkpt>
      <trkpt lat="48.66185" lon="-4.29612">
        <ele>8.2</ele>
        <time>2020-08-18T08:18:19Z</time>
      </trkpt>
      <trkpt lat="48.662" lon="-4.29604">
        <ele>8.2</ele>
        <time>2020-08-18T08:18:25Z</time>
      </trkpt>
      <trkpt lat="48.66206" lon="-4.29605">
        <ele>8.1</ele>
        <time>2020-08-18T08:18:27Z</time>
      </trkpt>
      <trkpt lat="48.66213" lon="-4.29608">
        <ele>8.1</ele>
        <time>2020-08-18T08:18:34Z</time>
      </trkpt>
      <trkpt lat="48.66213" lon="-4.29608">
        <ele>8.1</ele>
        <time>2020-08-18T08:18:41Z</time>
      </trkpt>
      <trkpt lat="48.66294" lon="-4.29667">
        <ele>8.2</ele>
        <time>2020-08-18T08:18:54Z</time>
      </trkpt>
      <trkpt lat="48.66318" lon="-4.29691">
        <ele>8.5</ele>
        <time>2020-08-18T08:19:02Z</time>
      </trkpt>
      <trkpt lat="48.66349" lon="-4.29728">
        <ele>8.4</ele>
        <time>2020-08-18T08:19:13Z</time>
      </trkpt>
      <trkpt lat="48.6638" lon="-4.29765">
        <ele>9</ele>
        <time>2020-08-18T08:19:23Z</time>
      </trkpt>
      <trkpt lat="48.66401" lon="-4.29792">
        <ele>9</ele>
        <time>2020-08-18T08:19:30Z</time>
      </trkpt>
      <trkpt lat="48.66411" lon="-4.29811">
        <ele>9</ele>
        <time>2020-08-18T08:19:34Z</time>
      </trkpt>
      <trkpt lat="48.66419" lon="-4.29833">
        <ele>8.8</ele>
        <time>2020-08-18T08:19:38Z</time>
      </trkpt>
      <trkpt lat="48.66428" lon="-4.29886">
        <ele>7.1</ele>
        <time>2020-08-18T08:19:47Z</time>
      </trkpt>
      <trkpt lat="48.66436" lon="-4.29958">
        <ele>7.4</ele>
        <time>2020-08-18T08:19:59Z</time>
      </trkpt>
      <trkpt lat="48.66443" lon="-4.30018">
        <ele>7.6</ele>
        <time>2020-08-18T08:20:09Z</time>
      </trkpt>
      <trkpt lat="48.66449" lon="-4.30074">
        <ele>7.4</ele>
        <time>2020-08-18T08:20:18Z</time>
      </trkpt>
      <trkpt lat="48.66458" lon="-4.3015">
        <ele>6.9</ele>
        <time>2020-08-18T08:20:29Z</time>
      </trkpt>
      <trkpt lat="48.66465" lon="-4.30224">
        <ele>6.6</ele>
        <time>2020-08-18T08:20:40Z</time>
      </trkpt>
      <trkpt lat="48.66475" lon="-4.30305">
        <ele>6.9</ele>
        <time>2020-08-18T08:20:51Z</time>
      </trkpt>
      <trkpt lat="48.66486" lon="-4.30381">
        <ele>6.9</ele>
        <time>2020-08-18T08:21:00Z</time>
      </trkpt>
      <trkpt lat="48.66505" lon="-4.30458">
        <ele>5.7</ele>
        <time>2020-08-18T08:21:09Z</time>
      </trkpt>
      <trkpt lat="48.6652" lon="-4.30509">
        <ele>6.6</ele>
        <time>2020-08-18T08:21:16Z</time>
      </trkpt>
      <trkpt lat="48.66538" lon="-4.30579">
        <ele>6</ele>
        <time>2020-08-18T08:21:26Z</time>
      </trkpt>
      <trkpt lat="48.66558" lon="-4.30643">
        <ele>5.8</ele>
        <time>2020-08-18T08:21:36Z</time>
      </trkpt>
      <trkpt lat="48.66578" lon="-4.30695">
        <ele>5.6</ele>
        <time>2020-08-18T08:21:45Z</time>
      </trkpt>
      <trkpt lat="48.66601" lon="-4.30749">
        <ele>4.3</ele>
        <time>2020-08-18T08:21:54Z</time>
      </trkpt>
      <trkpt lat="48.66625" lon="-4.30808">
        <ele>4.2</ele>
        <time>2020-08-18T08:22:04Z</time>
      </trkpt>
      <trkpt lat="48.66649" lon="-4.30865">
        <ele>4.4</ele>
        <time>2020-08-18T08:22:14Z</time>
      </trkpt>
      <trkpt lat="48.66678" lon="-4.30937">
        <ele>4.4</ele>
        <time>2020-08-18T08:22:26Z</time>
      </trkpt>
      <trkpt lat="48.66705" lon="-4.31002">
        <ele>5.1</ele>
        <time>2020-08-18T08:22:37Z</time>
      </trkpt>
      <trkpt lat="48.6672" lon="-4.31039">
        <ele>5.1</ele>
        <time>2020-08-18T08:22:44Z</time>
      </trkpt>
      <trkpt lat="48.66738" lon="-4.3108">
        <ele>5.7</ele>
        <time>2020-08-18T08:22:53Z</time>
      </trkpt>
      <trkpt lat="48.6674" lon="-4.31084">
        <ele>5.9</ele>
        <time>2020-08-18T08:22:55Z</time>
      </trkpt>
      <trkpt lat="48.66754" lon="-4.31074">
        <ele>5.6</ele>
        <time>2020-08-18T08:23:01Z</time>
      </trkpt>
      <trkpt lat="48.66763" lon="-4.3107">
        <ele>5.4</ele>
        <time>2020-08-18T08:23:07Z</time>
      </trkpt>
      <trkpt lat="48.66763" lon="-4.3107">
        <ele>5.4</ele>
        <time>2020-08-18T08:23:08Z</time>
      </trkpt>
      <trkpt lat="48.66763" lon="-4.3107">
        <ele>5.4</ele>
        <time>2020-08-18T08:26:00Z</time>
      </trkpt>
      <trkpt lat="48.66753" lon="-4.31074">
        <ele>5.6</ele>
        <time>2020-08-18T08:26:13Z</time>
      </trkpt>
      <trkpt lat="48.6675" lon="-4.31075">
        <ele>5.7</ele>
        <time>2020-08-18T08:26:19Z</time>
      </trkpt>
      <trkpt lat="48.6675" lon="-4.31075">
        <ele>5.7</ele>
        <time>2020-08-18T08:26:20Z</time>
      </trkpt>
      <trkpt lat="48.66746" lon="-4.31099">
        <ele>5.9</ele>
        <time>2020-08-18T08:26:38Z</time>
      </trkpt>
      <trkpt lat="48.66758" lon="-4.31129">
        <ele>6</ele>
        <time>2020-08-18T08:26:47Z</time>
      </trkpt>
      <trkpt lat="48.66774" lon="-4.31168">
        <ele>5.7</ele>
        <time>2020-08-18T08:26:57Z</time>
      </trkpt>
      <trkpt lat="48.66785" lon="-4.31211">
        <ele>5.3</ele>
        <time>2020-08-18T08:27:07Z</time>
      </trkpt>
      <trkpt lat="48.6679" lon="-4.31248">
        <ele>5.2</ele>
        <time>2020-08-18T08:27:15Z</time>
      </trkpt>
      <trkpt lat="48.66788" lon="-4.31277">
        <ele>5</ele>
        <time>2020-08-18T08:27:20Z</time>
      </trkpt>
      <trkpt lat="48.66781" lon="-4.31299">
        <ele>5</ele>
        <time>2020-08-18T08:27:24Z</time>
      </trkpt>
      <trkpt lat="48.66759" lon="-4.31336">
        <ele>5</ele>
        <time>2020-08-18T08:27:31Z</time>
      </trkpt>
      <trkpt lat="48.66728" lon="-4.31372">
        <ele>5.7</ele>
        <time>2020-08-18T08:27:40Z</time>
      </trkpt>
      <trkpt lat="48.66703" lon="-4.31401">
        <ele>6.2</ele>
        <time>2020-08-18T08:27:48Z</time>
      </trkpt>
      <trkpt lat="48.66682" lon="-4.31425">
        <ele>6.9</ele>
        <time>2020-08-18T08:27:55Z</time>
      </trkpt>
      <trkpt lat="48.66648" lon="-4.31462">
        <ele>8</ele>
        <time>2020-08-18T08:28:07Z</time>
      </trkpt>
      <trkpt lat="48.66623" lon="-4.31492">
        <ele>8.2</ele>
        <time>2020-08-18T08:28:16Z</time>
      </trkpt>
      <trkpt lat="48.666" lon="-4.31533">
        <ele>8</ele>
        <time>2020-08-18T08:28:25Z</time>
      </trkpt>
      <trkpt lat="48.66591" lon="-4.31575">
        <ele>7.9</ele>
        <time>2020-08-18T08:28:32Z</time>
      </trkpt>
      <trkpt lat="48.66589" lon="-4.31638">
        <ele>7.7</ele>
        <time>2020-08-18T08:28:42Z</time>
      </trkpt>
      <trkpt lat="48.66591" lon="-4.3172">
        <ele>7.9</ele>
        <time>2020-08-18T08:28:54Z</time>
      </trkpt>
      <trkpt lat="48.66605" lon="-4.31779">
        <ele>7.8</ele>
        <time>2020-08-18T08:29:03Z</time>
      </trkpt>
      <trkpt lat="48.66624" lon="-4.31818">
        <ele>7.7</ele>
        <time>2020-08-18T08:29:11Z</time>
      </trkpt>
      <trkpt lat="48.66643" lon="-4.31838">
        <ele>7</ele>
        <time>2020-08-18T08:29:17Z</time>
      </trkpt>
      <trkpt lat="48.66668" lon="-4.31861">
        <ele>6.8</ele>
        <time>2020-08-18T08:29:23Z</time>
      </trkpt>
      <trkpt lat="48.66685" lon="-4.31895">
        <ele>6.2</ele>
        <time>2020-08-18T08:29:29Z</time>
      </trkpt>
      <trkpt lat="48.66704" lon="-4.31907">
        <ele>6</ele>
        <time>2020-08-18T08:29:31Z</time>
      </trkpt>
      <trkpt lat="48.66712" lon="-4.31923">
        <ele>5.3</ele>
        <time>2020-08-18T08:29:35Z</time>
      </trkpt>
      <trkpt lat="48.66711" lon="-4.31937">
        <ele>5.3</ele>
        <time>2020-08-18T08:29:38Z</time>
      </trkpt>
      <trkpt lat="48.66711" lon="-4.31937">
        <ele>5.3</ele>
        <time>2020-08-18T08:29:39Z</time>
      </trkpt>
      <trkpt lat="48.66683" lon="-4.31978">
        <ele>5.2</ele>
        <time>2020-08-18T08:29:46Z</time>
      </trkpt>
      <trkpt lat="48.66671" lon="-4.31999">
        <ele>5</ele>
        <time>2020-08-18T08:29:53Z</time>
      </trkpt>
      <trkpt lat="48.66651" lon="-4.32056">
        <ele>3.6</ele>
        <time>2020-08-18T08:30:02Z</time>
      </trkpt>
      <trkpt lat="48.66631" lon="-4.32098">
        <ele>3.1</ele>
        <time>2020-08-18T08:30:11Z</time>
      </trkpt>
      <trkpt lat="48.66613" lon="-4.32138">
        <ele>3.1</ele>
        <time>2020-08-18T08:30:19Z</time>
      </trkpt>
      <trkpt lat="48.66596" lon="-4.32186">
        <ele>3.2</ele>
        <time>2020-08-18T08:30:28Z</time>
      </trkpt>
      <trkpt lat="48.66585" lon="-4.32223">
        <ele>3</ele>
        <time>2020-08-18T08:30:35Z</time>
      </trkpt>
      <trkpt lat="48.66575" lon="-4.32263">
        <ele>3.9</ele>
        <time>2020-08-18T08:30:43Z</time>
      </trkpt>
      <trkpt lat="48.6656" lon="-4.32298">
        <ele>4.7</ele>
        <time>2020-08-18T08:30:51Z</time>
      </trkpt>
      <trkpt lat="48.66537" lon="-4.32337">
        <ele>6.4</ele>
        <time>2020-08-18T08:31:00Z</time>
      </trkpt>
      <trkpt lat="48.66519" lon="-4.32369">
        <ele>7.1</ele>
        <time>2020-08-18T08:31:08Z</time>
      </trkpt>
      <trkpt lat="48.66506" lon="-4.32391">
        <ele>7.9</ele>
        <time>2020-08-18T08:31:14Z</time>
      </trkpt>
      <trkpt lat="48.6649" lon="-4.32419">
        <ele>10.5</ele>
        <time>2020-08-18T08:31:22Z</time>
      </trkpt>
      <trkpt lat="48.66475" lon="-4.32447">
        <ele>11.4</ele>
        <time>2020-08-18T08:31:31Z</time>
      </trkpt>
      <trkpt lat="48.66465" lon="-4.3247">
        <ele>11.9</ele>
        <time>2020-08-18T08:31:39Z</time>
      </trkpt>
      <trkpt lat="48.66457" lon="-4.3249">
        <ele>12.4</ele>
        <time>2020-08-18T08:31:46Z</time>
      </trkpt>
      <trkpt lat="48.66449" lon="-4.32516">
        <ele>14.6</ele>
        <time>2020-08-18T08:31:55Z</time>
      </trkpt>
      <trkpt lat="48.66444" lon="-4.32535">
        <ele>14.9</ele>
        <time>2020-08-18T08:32:02Z</time>
      </trkpt>
      <trkpt lat="48.66439" lon="-4.32561">
        <ele>15.4</ele>
        <time>2020-08-18T08:32:11Z</time>
      </trkpt>
      <trkpt lat="48.66434" lon="-4.3259">
        <ele>16.2</ele>
        <time>2020-08-18T08:32:21Z</time>
      </trkpt>
      <trkpt lat="48.66431" lon="-4.32616">
        <ele>15.9</ele>
        <time>2020-08-18T08:32:30Z</time>
      </trkpt>
      <trkpt lat="48.66428" lon="-4.32637">
        <ele>15.7</ele>
        <time>2020-08-18T08:32:38Z</time>
      </trkpt>
      <trkpt lat="48.66434" lon="-4.32662">
        <ele>15.7</ele>
        <time>2020-08-18T08:32:43Z</time>
      </trkpt>
      <trkpt lat="48.66438" lon="-4.32663">
        <ele>15.6</ele>
        <time>2020-08-18T08:32:48Z</time>
      </trkpt>
      <trkpt lat="48.66439" lon="-4.32663">
        <ele>15.6</ele>
        <time>2020-08-18T08:33:36Z</time>
      </trkpt>
      <trkpt lat="48.66439" lon="-4.32663">
        <ele>15.6</ele>
        <time>2020-08-18T08:33:40Z</time>
      </trkpt>
      <trkpt lat="48.66439" lon="-4.32663">
        <ele>15.6</ele>
        <time>2020-08-18T08:33:46Z</time>
      </trkpt>
      <trkpt lat="48.66439" lon="-4.32663">
        <ele>15.6</ele>
        <time>2020-08-18T08:33:54Z</time>
      </trkpt>
      <trkpt lat="48.66488" lon="-4.32665">
        <ele>14.6</ele>
        <time>2020-08-18T08:34:00Z</time>
      </trkpt>
      <trkpt lat="48.66504" lon="-4.32674">
        <ele>13.4</ele>
        <time>2020-08-18T08:34:06Z</time>
      </trkpt>
      <trkpt lat="48.66516" lon="-4.32688">
        <ele>12.6</ele>
        <time>2020-08-18T08:34:11Z</time>
      </trkpt>
      <trkpt lat="48.6652" lon="-4.32692">
        <ele>12.5</ele>
        <time>2020-08-18T08:34:15Z</time>
      </trkpt>
      <trkpt lat="48.6652" lon="-4.32692">
        <ele>12.5</ele>
        <time>2020-08-18T08:34:21Z</time>
      </trkpt>
      <trkpt lat="48.6652" lon="-4.32692">
        <ele>12.5</ele>
        <time>2020-08-18T08:34:22Z</time>
      </trkpt>
      <trkpt lat="48.66524" lon="-4.32695">
        <ele>12.4</ele>
        <time>2020-08-18T08:46:30Z</time>
      </trkpt>
      <trkpt lat="48.6654" lon="-4.32706">
        <ele>12</ele>
        <time>2020-08-18T08:46:36Z</time>
      </trkpt>
      <trkpt lat="48.66569" lon="-4.3272">
        <ele>11.7</ele>
        <time>2020-08-18T08:46:43Z</time>
      </trkpt>
      <trkpt lat="48.66606" lon="-4.32733">
        <ele>8.4</ele>
        <time>2020-08-18T08:46:50Z</time>
      </trkpt>
      <trkpt lat="48.6659" lon="-4.32728">
        <ele>9</ele>
        <time>2020-08-18T08:46:53Z</time>
      </trkpt>
      <trkpt lat="48.6659" lon="-4.32728">
        <ele>9</ele>
        <time>2020-08-18T08:46:55Z</time>
      </trkpt>
      <trkpt lat="48.66644" lon="-4.32758">
        <ele>6.8</ele>
        <time>2020-08-18T08:46:59Z</time>
      </trkpt>
      <trkpt lat="48.66671" lon="-4.32816">
        <ele>5.4</ele>
        <time>2020-08-18T08:47:08Z</time>
      </trkpt>
      <trkpt lat="48.66689" lon="-4.3286">
        <ele>5</ele>
        <time>2020-08-18T08:47:16Z</time>
      </trkpt>
      <trkpt lat="48.66707" lon="-4.32902">
        <ele>4.8</ele>
        <time>2020-08-18T08:47:24Z</time>
      </trkpt>
      <trkpt lat="48.66711" lon="-4.32914">
        <ele>4.8</ele>
        <time>2020-08-18T08:47:26Z</time>
      </trkpt>
      <trkpt lat="48.66729" lon="-4.32956">
        <ele>4.7</ele>
        <time>2020-08-18T08:47:33Z</time>
      </trkpt>
      <trkpt lat="48.66741" lon="-4.3298">
        <ele>4.5</ele>
        <time>2020-08-18T08:47:37Z</time>
      </trkpt>
      <trkpt lat="48.66757" lon="-4.33004">
        <ele>4.1</ele>
        <time>2020-08-18T08:47:42Z</time>
      </trkpt>
      <trkpt lat="48.6676" lon="-4.33008">
        <ele>4.1</ele>
        <time>2020-08-18T08:47:44Z</time>
      </trkpt>
      <trkpt lat="48.6682" lon="-4.32995">
        <ele>3.4</ele>
        <time>2020-08-18T08:47:55Z</time>
      </trkpt>
      <trkpt lat="48.66848" lon="-4.32994">
        <ele>3.8</ele>
        <time>2020-08-18T08:48:02Z</time>
      </trkpt>
      <trkpt lat="48.66888" lon="-4.33007">
        <ele>5.3</ele>
        <time>2020-08-18T08:48:13Z</time>
      </trkpt>
      <trkpt lat="48.6689" lon="-4.33008">
        <ele>5.3</ele>
        <time>2020-08-18T08:48:17Z</time>
      </trkpt>
      <trkpt lat="48.66898" lon="-4.33041">
        <ele>5.6</ele>
        <time>2020-08-18T08:48:22Z</time>
      </trkpt>
      <trkpt lat="48.66898" lon="-4.33073">
        <ele>6</ele>
        <time>2020-08-18T08:48:28Z</time>
      </trkpt>
      <trkpt lat="48.66894" lon="-4.33108">
        <ele>6.3</ele>
        <time>2020-08-18T08:48:35Z</time>
      </trkpt>
      <trkpt lat="48.66885" lon="-4.33151">
        <ele>6.2</ele>
        <time>2020-08-18T08:48:43Z</time>
      </trkpt>
      <trkpt lat="48.66887" lon="-4.33185">
        <ele>6.3</ele>
        <time>2020-08-18T08:48:48Z</time>
      </trkpt>
      <trkpt lat="48.66902" lon="-4.33218">
        <ele>6.5</ele>
        <time>2020-08-18T08:48:55Z</time>
      </trkpt>
      <trkpt lat="48.66918" lon="-4.33254">
        <ele>7.2</ele>
        <time>2020-08-18T08:49:04Z</time>
      </trkpt>
      <trkpt lat="48.66927" lon="-4.33273">
        <ele>7.8</ele>
        <time>2020-08-18T08:49:10Z</time>
      </trkpt>
      <trkpt lat="48.66946" lon="-4.33303">
        <ele>8.2</ele>
        <time>2020-08-18T08:49:19Z</time>
      </trkpt>
      <trkpt lat="48.6697" lon="-4.33336">
        <ele>9.9</ele>
        <time>2020-08-18T08:49:30Z</time>
      </trkpt>
      <trkpt lat="48.66994" lon="-4.33375">
        <ele>10.5</ele>
        <time>2020-08-18T08:49:42Z</time>
      </trkpt>
      <trkpt lat="48.66999" lon="-4.33392">
        <ele>10.9</ele>
        <time>2020-08-18T08:49:48Z</time>
      </trkpt>
      <trkpt lat="48.67008" lon="-4.33427">
        <ele>11.4</ele>
        <time>2020-08-18T08:49:57Z</time>
      </trkpt>
      <trkpt lat="48.67014" lon="-4.33457">
        <ele>10.8</ele>
        <time>2020-08-18T08:50:06Z</time>
      </trkpt>
      <trkpt lat="48.6702" lon="-4.33477">
        <ele>10.7</ele>
        <time>2020-08-18T08:50:12Z</time>
      </trkpt>
      <trkpt lat="48.67034" lon="-4.33499">
        <ele>10.4</ele>
        <time>2020-08-18T08:50:19Z</time>
      </trkpt>
      <trkpt lat="48.67047" lon="-4.33507">
        <ele>10.2</ele>
        <time>2020-08-18T08:50:24Z</time>
      </trkpt>
      <trkpt lat="48.67048" lon="-4.33521">
        <ele>10.3</ele>
        <time>2020-08-18T08:50:30Z</time>
      </trkpt>
      <trkpt lat="48.67047" lon="-4.33524">
        <ele>10.3</ele>
        <time>2020-08-18T08:50:34Z</time>
      </trkpt>
      <trkpt lat="48.67047" lon="-4.33523">
        <ele>10.3</ele>
        <time>2020-08-18T08:51:00Z</time>
      </trkpt>
      <trkpt lat="48.67047" lon="-4.33523">
        <ele>10.3</ele>
        <time>2020-08-18T08:51:02Z</time>
      </trkpt>
      <trkpt lat="48.67049" lon="-4.33513">
        <ele>10.2</ele>
        <time>2020-08-18T08:51:08Z</time>
      </trkpt>
      <trkpt lat="48.67051" lon="-4.33508">
        <ele>10.2</ele>
        <time>2020-08-18T08:51:13Z</time>
      </trkpt>
      <trkpt lat="48.67034" lon="-4.33499">
        <ele>10.4</ele>
        <time>2020-08-18T08:51:19Z</time>
      </trkpt>
      <trkpt lat="48.67034" lon="-4.33499">
        <ele>10.4</ele>
        <time>2020-08-18T08:51:21Z</time>
      </trkpt>
      <trkpt lat="48.67051" lon="-4.33508">
        <ele>10.2</ele>
        <time>2020-08-18T08:52:24Z</time>
      </trkpt>
      <trkpt lat="48.67057" lon="-4.33511">
        <ele>10.1</ele>
        <time>2020-08-18T08:52:29Z</time>
      </trkpt>
      <trkpt lat="48.6707" lon="-4.33512">
        <ele>9.8</ele>
        <time>2020-08-18T08:52:35Z</time>
      </trkpt>
      <trkpt lat="48.67081" lon="-4.33512">
        <ele>9.6</ele>
        <time>2020-08-18T08:52:38Z</time>
      </trkpt>
      <trkpt lat="48.67103" lon="-4.33509">
        <ele>9.2</ele>
        <time>2020-08-18T08:52:43Z</time>
      </trkpt>
      <trkpt lat="48.67141" lon="-4.33486">
        <ele>8.7</ele>
        <time>2020-08-18T08:52:51Z</time>
      </trkpt>
      <trkpt lat="48.67192" lon="-4.33451">
        <ele>7.7</ele>
        <time>2020-08-18T08:53:01Z</time>
      </trkpt>
      <trkpt lat="48.67244" lon="-4.33415">
        <ele>7.2</ele>
        <time>2020-08-18T08:53:11Z</time>
      </trkpt>
      <trkpt lat="48.6728" lon="-4.33393">
        <ele>6.8</ele>
        <time>2020-08-18T08:53:18Z</time>
      </trkpt>
      <trkpt lat="48.67315" lon="-4.33385">
        <ele>6.6</ele>
        <time>2020-08-18T08:53:25Z</time>
      </trkpt>
      <trkpt lat="48.67327" lon="-4.33385">
        <ele>6.6</ele>
        <time>2020-08-18T08:53:29Z</time>
      </trkpt>
      <trkpt lat="48.67333" lon="-4.33384">
        <ele>6.6</ele>
        <time>2020-08-18T08:53:34Z</time>
      </trkpt>
      <trkpt lat="48.6734" lon="-4.33383">
        <ele>6.4</ele>
        <time>2020-08-18T08:53:39Z</time>
      </trkpt>
      <trkpt lat="48.67352" lon="-4.33384">
        <ele>6.4</ele>
        <time>2020-08-18T08:53:47Z</time>
      </trkpt>
      <trkpt lat="48.67364" lon="-4.33389">
        <ele>6.4</ele>
        <time>2020-08-18T08:53:53Z</time>
      </trkpt>
      <trkpt lat="48.67374" lon="-4.33401">
        <ele>6.4</ele>
        <time>2020-08-18T08:53:58Z</time>
      </trkpt>
      <trkpt lat="48.6738" lon="-4.33418">
        <ele>5.7</ele>
        <time>2020-08-18T08:54:02Z</time>
      </trkpt>
      <trkpt lat="48.67386" lon="-4.33437">
        <ele>5.6</ele>
        <time>2020-08-18T08:54:05Z</time>
      </trkpt>
      <trkpt lat="48.67411" lon="-4.33474">
        <ele>5.4</ele>
        <time>2020-08-18T08:54:12Z</time>
      </trkpt>
      <trkpt lat="48.6742" lon="-4.33481">
        <ele>5.4</ele>
        <time>2020-08-18T08:54:14Z</time>
      </trkpt>
      <trkpt lat="48.67437" lon="-4.33485">
        <ele>5.5</ele>
        <time>2020-08-18T08:54:18Z</time>
      </trkpt>
      <trkpt lat="48.67446" lon="-4.33483">
        <ele>5.6</ele>
        <time>2020-08-18T08:54:20Z</time>
      </trkpt>
      <trkpt lat="48.67468" lon="-4.33487">
        <ele>5.7</ele>
        <time>2020-08-18T08:54:26Z</time>
      </trkpt>
      <trkpt lat="48.67485" lon="-4.33499">
        <ele>5.9</ele>
        <time>2020-08-18T08:54:34Z</time>
      </trkpt>
      <trkpt lat="48.67501" lon="-4.33514">
        <ele>5.5</ele>
        <time>2020-08-18T08:54:41Z</time>
      </trkpt>
      <trkpt lat="48.67515" lon="-4.33526">
        <ele>5.2</ele>
        <time>2020-08-18T08:54:47Z</time>
      </trkpt>
      <trkpt lat="48.67523" lon="-4.33537">
        <ele>5</ele>
        <time>2020-08-18T08:54:53Z</time>
      </trkpt>
      <trkpt lat="48.67519" lon="-4.33512">
        <ele>5.2</ele>
        <time>2020-08-18T08:54:59Z</time>
      </trkpt>
      <trkpt lat="48.67522" lon="-4.33534">
        <ele>5</ele>
        <time>2020-08-18T08:55:05Z</time>
      </trkpt>
      <trkpt lat="48.67517" lon="-4.33527">
        <ele>5.1</ele>
        <time>2020-08-18T08:55:10Z</time>
      </trkpt>
      <trkpt lat="48.67529" lon="-4.33484">
        <ele>5</ele>
        <time>2020-08-18T08:55:18Z</time>
      </trkpt>
      <trkpt lat="48.67553" lon="-4.33448">
        <ele>4.6</ele>
        <time>2020-08-18T08:55:25Z</time>
      </trkpt>
      <trkpt lat="48.67562" lon="-4.33435">
        <ele>4.5</ele>
        <time>2020-08-18T08:55:34Z</time>
      </trkpt>
      <trkpt lat="48.67571" lon="-4.33407">
        <ele>5</ele>
        <time>2020-08-18T08:55:40Z</time>
      </trkpt>
      <trkpt lat="48.67576" lon="-4.3339">
        <ele>5.4</ele>
        <time>2020-08-18T08:55:49Z</time>
      </trkpt>
      <trkpt lat="48.67587" lon="-4.33362">
        <ele>5.2</ele>
        <time>2020-08-18T08:55:56Z</time>
      </trkpt>
      <trkpt lat="48.67591" lon="-4.3335">
        <ele>5.7</ele>
        <time>2020-08-18T08:56:02Z</time>
      </trkpt>
      <trkpt lat="48.67594" lon="-4.33344">
        <ele>5.8</ele>
        <time>2020-08-18T08:56:10Z</time>
      </trkpt>
      <trkpt lat="48.67603" lon="-4.33317">
        <ele>5.7</ele>
        <time>2020-08-18T08:56:18Z</time>
      </trkpt>
      <trkpt lat="48.67613" lon="-4.33287">
        <ele>5.4</ele>
        <time>2020-08-18T08:56:26Z</time>
      </trkpt>
      <trkpt lat="48.67619" lon="-4.33268">
        <ele>5.4</ele>
        <time>2020-08-18T08:56:33Z</time>
      </trkpt>
      <trkpt lat="48.67616" lon="-4.33257">
        <ele>5.6</ele>
        <time>2020-08-18T08:56:37Z</time>
      </trkpt>
      <trkpt lat="48.67609" lon="-4.33238">
        <ele>6.4</ele>
        <time>2020-08-18T08:56:41Z</time>
      </trkpt>
      <trkpt lat="48.67621" lon="-4.33195">
        <ele>6.1</ele>
        <time>2020-08-18T08:56:48Z</time>
      </trkpt>
      <trkpt lat="48.67629" lon="-4.33181">
        <ele>6.1</ele>
        <time>2020-08-18T08:56:53Z</time>
      </trkpt>
      <trkpt lat="48.67635" lon="-4.33168">
        <ele>6.1</ele>
        <time>2020-08-18T08:57:00Z</time>
      </trkpt>
      <trkpt lat="48.67635" lon="-4.33168">
        <ele>6.1</ele>
        <time>2020-08-18T08:57:06Z</time>
      </trkpt>
      <trkpt lat="48.67635" lon="-4.33168">
        <ele>6.1</ele>
        <time>2020-08-18T08:57:34Z</time>
      </trkpt>
      <trkpt lat="48.67635" lon="-4.33168">
        <ele>6.1</ele>
        <time>2020-08-18T08:57:36Z</time>
      </trkpt>
      <trkpt lat="48.67635" lon="-4.33168">
        <ele>6.1</ele>
        <time>2020-08-18T08:57:53Z</time>
      </trkpt>
      <trkpt lat="48.67635" lon="-4.33168">
        <ele>6.1</ele>
        <time>2020-08-18T08:57:55Z</time>
      </trkpt>
      <trkpt lat="48.67635" lon="-4.33168">
        <ele>6.1</ele>
        <time>2020-08-18T08:58:00Z</time>
      </trkpt>
      <trkpt lat="48.67622" lon="-4.33194">
        <ele>6.1</ele>
        <time>2020-08-18T08:58:07Z</time>
      </trkpt>
      <trkpt lat="48.67608" lon="-4.3322">
        <ele>6.3</ele>
        <time>2020-08-18T08:58:14Z</time>
      </trkpt>
      <trkpt lat="48.6759" lon="-4.33249">
        <ele>7.5</ele>
        <time>2020-08-18T08:58:22Z</time>
      </trkpt>
      <trkpt lat="48.67582" lon="-4.33257">
        <ele>7.8</ele>
        <time>2020-08-18T08:58:29Z</time>
      </trkpt>
      <trkpt lat="48.67559" lon="-4.33309">
        <ele>7.2</ele>
        <time>2020-08-18T08:58:36Z</time>
      </trkpt>
      <trkpt lat="48.67552" lon="-4.33335">
        <ele>6.4</ele>
        <time>2020-08-18T08:58:40Z</time>
      </trkpt>
      <trkpt lat="48.67544" lon="-4.33395">
        <ele>5.7</ele>
        <time>2020-08-18T08:58:49Z</time>
      </trkpt>
      <trkpt lat="48.67538" lon="-4.33444">
        <ele>4.8</ele>
        <time>2020-08-18T08:58:57Z</time>
      </trkpt>
      <trkpt lat="48.67531" lon="-4.33476">
        <ele>4.9</ele>
        <time>2020-08-18T08:59:03Z</time>
      </trkpt>
      <trkpt lat="48.67529" lon="-4.33484">
        <ele>5</ele>
        <time>2020-08-18T08:59:11Z</time>
      </trkpt>
      <trkpt lat="48.67529" lon="-4.33484">
        <ele>5</ele>
        <time>2020-08-18T08:59:17Z</time>
      </trkpt>
      <trkpt lat="48.67495" lon="-4.33508">
        <ele>5.9</ele>
        <time>2020-08-18T08:59:23Z</time>
      </trkpt>
      <trkpt lat="48.67483" lon="-4.33497">
        <ele>5.8</ele>
        <time>2020-08-18T08:59:28Z</time>
      </trkpt>
      <trkpt lat="48.67493" lon="-4.3353">
        <ele>5.8</ele>
        <time>2020-08-18T08:59:32Z</time>
      </trkpt>
      <trkpt lat="48.67491" lon="-4.33533">
        <ele>5.8</ele>
        <time>2020-08-18T08:59:33Z</time>
      </trkpt>
      <trkpt lat="48.67459" lon="-4.33544">
        <ele>5.8</ele>
        <time>2020-08-18T08:59:43Z</time>
      </trkpt>
      <trkpt lat="48.67454" lon="-4.33576">
        <ele>5.8</ele>
        <time>2020-08-18T08:59:51Z</time>
      </trkpt>
      <trkpt lat="48.67446" lon="-4.33614">
        <ele>6</ele>
        <time>2020-08-18T09:00:00Z</time>
      </trkpt>
      <trkpt lat="48.67442" lon="-4.33661">
        <ele>6.3</ele>
        <time>2020-08-18T09:00:10Z</time>
      </trkpt>
      <trkpt lat="48.67439" lon="-4.33707">
        <ele>6.2</ele>
        <time>2020-08-18T09:00:19Z</time>
      </trkpt>
      <trkpt lat="48.67432" lon="-4.33746">
        <ele>6.5</ele>
        <time>2020-08-18T09:00:26Z</time>
      </trkpt>
      <trkpt lat="48.67428" lon="-4.33783">
        <ele>6.1</ele>
        <time>2020-08-18T09:00:32Z</time>
      </trkpt>
      <trkpt lat="48.67424" lon="-4.3381">
        <ele>5.9</ele>
        <time>2020-08-18T09:00:37Z</time>
      </trkpt>
      <trkpt lat="48.67404" lon="-4.33833">
        <ele>6.5</ele>
        <time>2020-08-18T09:00:44Z</time>
      </trkpt>
      <trkpt lat="48.67396" lon="-4.33855">
        <ele>6.7</ele>
        <time>2020-08-18T09:00:48Z</time>
      </trkpt>
      <trkpt lat="48.67403" lon="-4.33888">
        <ele>6.7</ele>
        <time>2020-08-18T09:00:54Z</time>
      </trkpt>
      <trkpt lat="48.67394" lon="-4.33926">
        <ele>6.9</ele>
        <time>2020-08-18T09:01:01Z</time>
      </trkpt>
      <trkpt lat="48.67384" lon="-4.33964">
        <ele>7.3</ele>
        <time>2020-08-18T09:01:09Z</time>
      </trkpt>
      <trkpt lat="48.67376" lon="-4.33994">
        <ele>7.3</ele>
        <time>2020-08-18T09:01:16Z</time>
      </trkpt>
      <trkpt lat="48.67374" lon="-4.34033">
        <ele>7.7</ele>
        <time>2020-08-18T09:01:24Z</time>
      </trkpt>
      <trkpt lat="48.67376" lon="-4.34045">
        <ele>7.8</ele>
        <time>2020-08-18T09:01:32Z</time>
      </trkpt>
      <trkpt lat="48.67376" lon="-4.34045">
        <ele>7.8</ele>
        <time>2020-08-18T09:01:39Z</time>
      </trkpt>
      <trkpt lat="48.67376" lon="-4.34045">
        <ele>7.8</ele>
        <time>2020-08-18T09:01:47Z</time>
      </trkpt>
      <trkpt lat="48.67376" lon="-4.34045">
        <ele>7.8</ele>
        <time>2020-08-18T09:01:53Z</time>
      </trkpt>
      <trkpt lat="48.67405" lon="-4.34171">
        <ele>9.7</ele>
        <time>2020-08-18T09:01:59Z</time>
      </trkpt>
      <trkpt lat="48.67423" lon="-4.34196">
        <ele>9.9</ele>
        <time>2020-08-18T09:02:07Z</time>
      </trkpt>
      <trkpt lat="48.67437" lon="-4.34209">
        <ele>9.9</ele>
        <time>2020-08-18T09:02:12Z</time>
      </trkpt>
      <trkpt lat="48.67452" lon="-4.3421">
        <ele>10</ele>
        <time>2020-08-18T09:02:18Z</time>
      </trkpt>
      <trkpt lat="48.67452" lon="-4.3421">
        <ele>10</ele>
        <time>2020-08-18T09:02:21Z</time>
      </trkpt>
      <trkpt lat="48.67452" lon="-4.3421">
        <ele>10</ele>
        <time>2020-08-18T09:02:46Z</time>
      </trkpt>
      <trkpt lat="48.67452" lon="-4.3421">
        <ele>10</ele>
        <time>2020-08-18T09:02:50Z</time>
      </trkpt>
      <trkpt lat="48.67452" lon="-4.3421">
        <ele>10</ele>
        <time>2020-08-18T09:02:55Z</time>
      </trkpt>
      <trkpt lat="48.67452" lon="-4.3421">
        <ele>10</ele>
        <time>2020-08-18T09:03:00Z</time>
      </trkpt>
      <trkpt lat="48.67454" lon="-4.34217">
        <ele>9.9</ele>
        <time>2020-08-18T09:03:05Z</time>
      </trkpt>
      <trkpt lat="48.67454" lon="-4.34217">
        <ele>9.9</ele>
        <time>2020-08-18T09:03:07Z</time>
      </trkpt>
      <trkpt lat="48.67455" lon="-4.34221">
        <ele>9.9</ele>
        <time>2020-08-18T09:03:09Z</time>
      </trkpt>
      <trkpt lat="48.67455" lon="-4.34221">
        <ele>9.9</ele>
        <time>2020-08-18T09:03:13Z</time>
      </trkpt>
      <trkpt lat="48.67455" lon="-4.34221">
        <ele>9.9</ele>
        <time>2020-08-18T09:08:38Z</time>
      </trkpt>
      <trkpt lat="48.67463" lon="-4.34206">
        <ele>10</ele>
        <time>2020-08-18T09:08:43Z</time>
      </trkpt>
      <trkpt lat="48.67454" lon="-4.34218">
        <ele>9.9</ele>
        <time>2020-08-18T09:08:47Z</time>
      </trkpt>
      <trkpt lat="48.67456" lon="-4.34225">
        <ele>9.9</ele>
        <time>2020-08-18T09:08:52Z</time>
      </trkpt>
      <trkpt lat="48.6746" lon="-4.34238">
        <ele>9.9</ele>
        <time>2020-08-18T09:08:57Z</time>
      </trkpt>
      <trkpt lat="48.6746" lon="-4.3424">
        <ele>9.9</ele>
        <time>2020-08-18T09:08:58Z</time>
      </trkpt>
      <trkpt lat="48.67457" lon="-4.34265">
        <ele>9</ele>
        <time>2020-08-18T09:09:02Z</time>
      </trkpt>
      <trkpt lat="48.6743" lon="-4.34323">
        <ele>7.9</ele>
        <time>2020-08-18T09:09:11Z</time>
      </trkpt>
      <trkpt lat="48.67418" lon="-4.34357">
        <ele>6.9</ele>
        <time>2020-08-18T09:09:16Z</time>
      </trkpt>
      <trkpt lat="48.67421" lon="-4.34382">
        <ele>6.5</ele>
        <time>2020-08-18T09:09:20Z</time>
      </trkpt>
      <trkpt lat="48.67447" lon="-4.34431">
        <ele>5.1</ele>
        <time>2020-08-18T09:09:29Z</time>
      </trkpt>
      <trkpt lat="48.67473" lon="-4.34461">
        <ele>5.1</ele>
        <time>2020-08-18T09:09:35Z</time>
      </trkpt>
      <trkpt lat="48.67502" lon="-4.34487">
        <ele>5.9</ele>
        <time>2020-08-18T09:09:41Z</time>
      </trkpt>
      <trkpt lat="48.67538" lon="-4.3452">
        <ele>5.7</ele>
        <time>2020-08-18T09:09:49Z</time>
      </trkpt>
      <trkpt lat="48.67567" lon="-4.34558">
        <ele>5.5</ele>
        <time>2020-08-18T09:09:57Z</time>
      </trkpt>
      <trkpt lat="48.67584" lon="-4.34585">
        <ele>5</ele>
        <time>2020-08-18T09:10:04Z</time>
      </trkpt>
      <trkpt lat="48.676" lon="-4.34612">
        <ele>5</ele>
        <time>2020-08-18T09:10:11Z</time>
      </trkpt>
      <trkpt lat="48.6762" lon="-4.34643">
        <ele>4.8</ele>
        <time>2020-08-18T09:10:17Z</time>
      </trkpt>
      <trkpt lat="48.67639" lon="-4.34665">
        <ele>4.6</ele>
        <time>2020-08-18T09:10:23Z</time>
      </trkpt>
      <trkpt lat="48.67648" lon="-4.34653">
        <ele>4.6</ele>
        <time>2020-08-18T09:10:27Z</time>
      </trkpt>
      <trkpt lat="48.67645" lon="-4.34673">
        <ele>3.6</ele>
        <time>2020-08-18T09:10:32Z</time>
      </trkpt>
      <trkpt lat="48.67671" lon="-4.34636">
        <ele>5.1</ele>
        <time>2020-08-18T09:10:38Z</time>
      </trkpt>
      <trkpt lat="48.67676" lon="-4.34632">
        <ele>5.3</ele>
        <time>2020-08-18T09:10:43Z</time>
      </trkpt>
      <trkpt lat="48.67676" lon="-4.34632">
        <ele>5.3</ele>
        <time>2020-08-18T09:10:58Z</time>
      </trkpt>
      <trkpt lat="48.67645" lon="-4.34673">
        <ele>3.6</ele>
        <time>2020-08-18T09:12:36Z</time>
      </trkpt>
      <trkpt lat="48.67672" lon="-4.34635">
        <ele>5.1</ele>
        <time>2020-08-18T09:12:37Z</time>
      </trkpt>
      <trkpt lat="48.67658" lon="-4.34647">
        <ele>4.7</ele>
        <time>2020-08-18T09:12:44Z</time>
      </trkpt>
      <trkpt lat="48.67648" lon="-4.34653">
        <ele>4.6</ele>
        <time>2020-08-18T09:12:49Z</time>
      </trkpt>
      <trkpt lat="48.67645" lon="-4.34656">
        <ele>4.6</ele>
        <time>2020-08-18T09:12:53Z</time>
      </trkpt>
      <trkpt lat="48.67645" lon="-4.34656">
        <ele>4.6</ele>
        <time>2020-08-18T09:13:01Z</time>
      </trkpt>
      <trkpt lat="48.67645" lon="-4.34673">
        <ele>3.6</ele>
        <time>2020-08-18T09:13:04Z</time>
      </trkpt>
      <trkpt lat="48.67644" lon="-4.34683">
        <ele>3.5</ele>
        <time>2020-08-18T09:13:09Z</time>
      </trkpt>
      <trkpt lat="48.67637" lon="-4.3471">
        <ele>3.2</ele>
        <time>2020-08-18T09:13:16Z</time>
      </trkpt>
      <trkpt lat="48.67633" lon="-4.34731">
        <ele>3</ele>
        <time>2020-08-18T09:13:23Z</time>
      </trkpt>
      <trkpt lat="48.67636" lon="-4.3475">
        <ele>2.7</ele>
        <time>2020-08-18T09:13:28Z</time>
      </trkpt>
      <trkpt lat="48.67636" lon="-4.34752">
        <ele>2.7</ele>
        <time>2020-08-18T09:13:31Z</time>
      </trkpt>
      <trkpt lat="48.67638" lon="-4.3476">
        <ele>2.7</ele>
        <time>2020-08-18T09:13:35Z</time>
      </trkpt>
      <trkpt lat="48.6764" lon="-4.34771">
        <ele>2.8</ele>
        <time>2020-08-18T09:13:44Z</time>
      </trkpt>
      <trkpt lat="48.67641" lon="-4.3478">
        <ele>2.8</ele>
        <time>2020-08-18T09:13:52Z</time>
      </trkpt>
      <trkpt lat="48.67641" lon="-4.3478">
        <ele>2.8</ele>
        <time>2020-08-18T09:13:53Z</time>
      </trkpt>
      <trkpt lat="48.67641" lon="-4.34789">
        <ele>2.9</ele>
        <time>2020-08-18T09:14:01Z</time>
      </trkpt>
      <trkpt lat="48.67637" lon="-4.34811">
        <ele>3</ele>
        <time>2020-08-18T09:14:08Z</time>
      </trkpt>
      <trkpt lat="48.67634" lon="-4.34833">
        <ele>3.1</ele>
        <time>2020-08-18T09:14:13Z</time>
      </trkpt>
      <trkpt lat="48.67634" lon="-4.34856">
        <ele>3.3</ele>
        <time>2020-08-18T09:14:19Z</time>
      </trkpt>
      <trkpt lat="48.67635" lon="-4.34879">
        <ele>3.3</ele>
        <time>2020-08-18T09:14:27Z</time>
      </trkpt>
      <trkpt lat="48.67636" lon="-4.34901">
        <ele>3.3</ele>
        <time>2020-08-18T09:14:34Z</time>
      </trkpt>
      <trkpt lat="48.67637" lon="-4.34925">
        <ele>3</ele>
        <time>2020-08-18T09:14:41Z</time>
      </trkpt>
      <trkpt lat="48.67635" lon="-4.34939">
        <ele>3</ele>
        <time>2020-08-18T09:14:46Z</time>
      </trkpt>
      <trkpt lat="48.67625" lon="-4.34952">
        <ele>3</ele>
        <time>2020-08-18T09:14:51Z</time>
      </trkpt>
      <trkpt lat="48.67607" lon="-4.34966">
        <ele>3</ele>
        <time>2020-08-18T09:14:56Z</time>
      </trkpt>
      <trkpt lat="48.67593" lon="-4.34999">
        <ele>3</ele>
        <time>2020-08-18T09:15:02Z</time>
      </trkpt>
      <trkpt lat="48.6758" lon="-4.35032">
        <ele>3</ele>
        <time>2020-08-18T09:15:09Z</time>
      </trkpt>
      <trkpt lat="48.67568" lon="-4.35044">
        <ele>3</ele>
        <time>2020-08-18T09:15:14Z</time>
      </trkpt>
      <trkpt lat="48.67548" lon="-4.35062">
        <ele>3</ele>
        <time>2020-08-18T09:15:22Z</time>
      </trkpt>
      <trkpt lat="48.67529" lon="-4.35086">
        <ele>3.5</ele>
        <time>2020-08-18T09:15:31Z</time>
      </trkpt>
      <trkpt lat="48.67512" lon="-4.3511">
        <ele>3.8</ele>
        <time>2020-08-18T09:15:39Z</time>
      </trkpt>
      <trkpt lat="48.67486" lon="-4.35142">
        <ele>5.5</ele>
        <time>2020-08-18T09:15:50Z</time>
      </trkpt>
      <trkpt lat="48.67469" lon="-4.35165">
        <ele>5.8</ele>
        <time>2020-08-18T09:15:58Z</time>
      </trkpt>
      <trkpt lat="48.67442" lon="-4.35185">
        <ele>6.3</ele>
        <time>2020-08-18T09:16:08Z</time>
      </trkpt>
      <trkpt lat="48.67423" lon="-4.35203">
        <ele>6.2</ele>
        <time>2020-08-18T09:16:16Z</time>
      </trkpt>
      <trkpt lat="48.67409" lon="-4.35224">
        <ele>6.8</ele>
        <time>2020-08-18T09:16:22Z</time>
      </trkpt>
      <trkpt lat="48.67397" lon="-4.35263">
        <ele>6.7</ele>
        <time>2020-08-18T09:16:30Z</time>
      </trkpt>
      <trkpt lat="48.6738" lon="-4.35295">
        <ele>7</ele>
        <time>2020-08-18T09:16:38Z</time>
      </trkpt>
      <trkpt lat="48.67357" lon="-4.35336">
        <ele>7.1</ele>
        <time>2020-08-18T09:16:48Z</time>
      </trkpt>
      <trkpt lat="48.67341" lon="-4.35364">
        <ele>7.3</ele>
        <time>2020-08-18T09:16:55Z</time>
      </trkpt>
      <trkpt lat="48.67336" lon="-4.35373">
        <ele>7.3</ele>
        <time>2020-08-18T09:17:02Z</time>
      </trkpt>
      <trkpt lat="48.67336" lon="-4.35445">
        <ele>7</ele>
        <time>2020-08-18T09:17:10Z</time>
      </trkpt>
      <trkpt lat="48.67339" lon="-4.3549">
        <ele>7.3</ele>
        <time>2020-08-18T09:17:18Z</time>
      </trkpt>
      <trkpt lat="48.67337" lon="-4.35512">
        <ele>7</ele>
        <time>2020-08-18T09:17:24Z</time>
      </trkpt>
      <trkpt lat="48.67328" lon="-4.35539">
        <ele>8.7</ele>
        <time>2020-08-18T09:17:30Z</time>
      </trkpt>
      <trkpt lat="48.67312" lon="-4.3556">
        <ele>8.5</ele>
        <time>2020-08-18T09:17:38Z</time>
      </trkpt>
      <trkpt lat="48.67302" lon="-4.35586">
        <ele>7.4</ele>
        <time>2020-08-18T09:17:45Z</time>
      </trkpt>
      <trkpt lat="48.67295" lon="-4.35606">
        <ele>7.7</ele>
        <time>2020-08-18T09:17:50Z</time>
      </trkpt>
      <trkpt lat="48.67277" lon="-4.35639">
        <ele>7.7</ele>
        <time>2020-08-18T09:17:58Z</time>
      </trkpt>
      <trkpt lat="48.67252" lon="-4.35683">
        <ele>6.4</ele>
        <time>2020-08-18T09:18:08Z</time>
      </trkpt>
      <trkpt lat="48.67228" lon="-4.35719">
        <ele>5.7</ele>
        <time>2020-08-18T09:18:16Z</time>
      </trkpt>
      <trkpt lat="48.67194" lon="-4.35752">
        <ele>5.3</ele>
        <time>2020-08-18T09:18:26Z</time>
      </trkpt>
      <trkpt lat="48.67168" lon="-4.3578">
        <ele>5.3</ele>
        <time>2020-08-18T09:18:35Z</time>
      </trkpt>
      <trkpt lat="48.67152" lon="-4.35801">
        <ele>5.4</ele>
        <time>2020-08-18T09:18:40Z</time>
      </trkpt>
      <trkpt lat="48.67135" lon="-4.35854">
        <ele>4.2</ele>
        <time>2020-08-18T09:18:48Z</time>
      </trkpt>
      <trkpt lat="48.67123" lon="-4.35905">
        <ele>3.7</ele>
        <time>2020-08-18T09:18:56Z</time>
      </trkpt>
      <trkpt lat="48.67104" lon="-4.35942">
        <ele>3.3</ele>
        <time>2020-08-18T09:19:04Z</time>
      </trkpt>
      <trkpt lat="48.6708" lon="-4.35974">
        <ele>3.5</ele>
        <time>2020-08-18T09:19:12Z</time>
      </trkpt>
      <trkpt lat="48.67071" lon="-4.35986">
        <ele>3.4</ele>
        <time>2020-08-18T09:19:15Z</time>
      </trkpt>
      <trkpt lat="48.67064" lon="-4.35993">
        <ele>3.4</ele>
        <time>2020-08-18T09:19:17Z</time>
      </trkpt>
      <trkpt lat="48.67036" lon="-4.36027">
        <ele>4.3</ele>
        <time>2020-08-18T09:19:26Z</time>
      </trkpt>
      <trkpt lat="48.67012" lon="-4.36055">
        <ele>4.6</ele>
        <time>2020-08-18T09:19:34Z</time>
      </trkpt>
      <trkpt lat="48.66986" lon="-4.36085">
        <ele>4.8</ele>
        <time>2020-08-18T09:19:43Z</time>
      </trkpt>
      <trkpt lat="48.6696" lon="-4.36113">
        <ele>4.5</ele>
        <time>2020-08-18T09:19:52Z</time>
      </trkpt>
      <trkpt lat="48.66946" lon="-4.36129">
        <ele>4.4</ele>
        <time>2020-08-18T09:19:58Z</time>
      </trkpt>
      <trkpt lat="48.66932" lon="-4.36144">
        <ele>4.3</ele>
        <time>2020-08-18T09:20:05Z</time>
      </trkpt>
      <trkpt lat="48.66914" lon="-4.36164">
        <ele>4.1</ele>
        <time>2020-08-18T09:20:13Z</time>
      </trkpt>
      <trkpt lat="48.66901" lon="-4.36179">
        <ele>4</ele>
        <time>2020-08-18T09:20:19Z</time>
      </trkpt>
      <trkpt lat="48.66885" lon="-4.36197">
        <ele>4</ele>
        <time>2020-08-18T09:20:26Z</time>
      </trkpt>
      <trkpt lat="48.66872" lon="-4.36212">
        <ele>4</ele>
        <time>2020-08-18T09:20:32Z</time>
      </trkpt>
      <trkpt lat="48.66849" lon="-4.36233">
        <ele>4</ele>
        <time>2020-08-18T09:20:41Z</time>
      </trkpt>
      <trkpt lat="48.6684" lon="-4.3626">
        <ele>4.1</ele>
        <time>2020-08-18T09:20:46Z</time>
      </trkpt>
      <trkpt lat="48.6684" lon="-4.36294">
        <ele>4.2</ele>
        <time>2020-08-18T09:20:53Z</time>
      </trkpt>
      <trkpt lat="48.66829" lon="-4.36335">
        <ele>3.9</ele>
        <time>2020-08-18T09:21:02Z</time>
      </trkpt>
      <trkpt lat="48.66801" lon="-4.3637">
        <ele>3.8</ele>
        <time>2020-08-18T09:21:12Z</time>
      </trkpt>
      <trkpt lat="48.66775" lon="-4.36399">
        <ele>3.8</ele>
        <time>2020-08-18T09:21:21Z</time>
      </trkpt>
      <trkpt lat="48.66744" lon="-4.36435">
        <ele>4.1</ele>
        <time>2020-08-18T09:21:32Z</time>
      </trkpt>
      <trkpt lat="48.66715" lon="-4.3647">
        <ele>4.3</ele>
        <time>2020-08-18T09:21:42Z</time>
      </trkpt>
      <trkpt lat="48.66684" lon="-4.36509">
        <ele>4.7</ele>
        <time>2020-08-18T09:21:53Z</time>
      </trkpt>
      <trkpt lat="48.66656" lon="-4.36545">
        <ele>5</ele>
        <time>2020-08-18T09:22:03Z</time>
      </trkpt>
      <trkpt lat="48.66628" lon="-4.3658">
        <ele>5.2</ele>
        <time>2020-08-18T09:22:13Z</time>
      </trkpt>
      <trkpt lat="48.66594" lon="-4.36628">
        <ele>5.8</ele>
        <time>2020-08-18T09:22:26Z</time>
      </trkpt>
      <trkpt lat="48.66565" lon="-4.3667">
        <ele>5.3</ele>
        <time>2020-08-18T09:22:37Z</time>
      </trkpt>
      <trkpt lat="48.66536" lon="-4.36714">
        <ele>4.7</ele>
        <time>2020-08-18T09:22:48Z</time>
      </trkpt>
      <trkpt lat="48.66506" lon="-4.3676">
        <ele>4.2</ele>
        <time>2020-08-18T09:23:00Z</time>
      </trkpt>
      <trkpt lat="48.6649" lon="-4.36786">
        <ele>4.3</ele>
        <time>2020-08-18T09:23:07Z</time>
      </trkpt>
      <trkpt lat="48.6649" lon="-4.36813">
        <ele>4.5</ele>
        <time>2020-08-18T09:23:12Z</time>
      </trkpt>
      <trkpt lat="48.665" lon="-4.36823">
        <ele>4.7</ele>
        <time>2020-08-18T09:23:16Z</time>
      </trkpt>
      <trkpt lat="48.66533" lon="-4.36851">
        <ele>5.1</ele>
        <time>2020-08-18T09:23:26Z</time>
      </trkpt>
      <trkpt lat="48.66571" lon="-4.36884">
        <ele>5.1</ele>
        <time>2020-08-18T09:23:37Z</time>
      </trkpt>
      <trkpt lat="48.66603" lon="-4.36913">
        <ele>4.9</ele>
        <time>2020-08-18T09:23:46Z</time>
      </trkpt>
      <trkpt lat="48.6664" lon="-4.36944">
        <ele>5</ele>
        <time>2020-08-18T09:23:55Z</time>
      </trkpt>
      <trkpt lat="48.66668" lon="-4.36966">
        <ele>5</ele>
        <time>2020-08-18T09:24:02Z</time>
      </trkpt>
      <trkpt lat="48.667" lon="-4.36991">
        <ele>5</ele>
        <time>2020-08-18T09:24:11Z</time>
      </trkpt>
      <trkpt lat="48.66729" lon="-4.37011">
        <ele>5.3</ele>
        <time>2020-08-18T09:24:20Z</time>
      </trkpt>
      <trkpt lat="48.66756" lon="-4.3703">
        <ele>5.5</ele>
        <time>2020-08-18T09:24:29Z</time>
      </trkpt>
      <trkpt lat="48.66771" lon="-4.3704">
        <ele>5.6</ele>
        <time>2020-08-18T09:24:36Z</time>
      </trkpt>
      <trkpt lat="48.66775" lon="-4.37043">
        <ele>5.6</ele>
        <time>2020-08-18T09:24:42Z</time>
      </trkpt>
      <trkpt lat="48.66777" lon="-4.37044">
        <ele>5.6</ele>
        <time>2020-08-18T09:25:49Z</time>
      </trkpt>
      <trkpt lat="48.66778" lon="-4.37045">
        <ele>5.6</ele>
        <time>2020-08-18T09:25:52Z</time>
      </trkpt>
      <trkpt lat="48.66773" lon="-4.3706">
        <ele>5.9</ele>
        <time>2020-08-18T09:26:01Z</time>
      </trkpt>
      <trkpt lat="48.66773" lon="-4.3706">
        <ele>5.9</ele>
        <time>2020-08-18T09:26:19Z</time>
      </trkpt>
      <trkpt lat="48.66777" lon="-4.37079">
        <ele>6.1</ele>
        <time>2020-08-18T09:26:30Z</time>
      </trkpt>
      <trkpt lat="48.66781" lon="-4.37048">
        <ele>5.6</ele>
        <time>2020-08-18T09:26:40Z</time>
      </trkpt>
      <trkpt lat="48.66781" lon="-4.37048">
        <ele>5.6</ele>
        <time>2020-08-18T09:26:42Z</time>
      </trkpt>
      <trkpt lat="48.66781" lon="-4.37048">
        <ele>5.6</ele>
        <time>2020-08-18T09:26:49Z</time>
      </trkpt>
      <trkpt lat="48.66781" lon="-4.37048">
        <ele>5.6</ele>
        <time>2020-08-18T09:26:50Z</time>
      </trkpt>
      <trkpt lat="48.66781" lon="-4.37048">
        <ele>5.6</ele>
        <time>2020-08-18T09:32:11Z</time>
      </trkpt>
      <trkpt lat="48.66779" lon="-4.37088">
        <ele>7.2</ele>
        <time>2020-08-18T09:32:14Z</time>
      </trkpt>
      <trkpt lat="48.6678" lon="-4.37093">
        <ele>7.2</ele>
        <time>2020-08-18T09:32:18Z</time>
      </trkpt>
      <trkpt lat="48.66742" lon="-4.3702">
        <ele>5.4</ele>
        <time>2020-08-18T09:32:25Z</time>
      </trkpt>
      <trkpt lat="48.66742" lon="-4.3702">
        <ele>5.4</ele>
        <time>2020-08-18T09:32:34Z</time>
      </trkpt>
      <trkpt lat="48.66742" lon="-4.3702">
        <ele>5.4</ele>
        <time>2020-08-18T09:32:41Z</time>
      </trkpt>
      <trkpt lat="48.66742" lon="-4.3702">
        <ele>5.4</ele>
        <time>2020-08-18T09:32:42Z</time>
      </trkpt>
      <trkpt lat="48.66749" lon="-4.37171">
        <ele>8.6</ele>
        <time>2020-08-18T09:32:46Z</time>
      </trkpt>
      <trkpt lat="48.66689" lon="-4.3713">
        <ele>6.5</ele>
        <time>2020-08-18T09:32:56Z</time>
      </trkpt>
      <trkpt lat="48.66689" lon="-4.3713">
        <ele>6.5</ele>
        <time>2020-08-18T09:33:04Z</time>
      </trkpt>
      <trkpt lat="48.66689" lon="-4.3713">
        <ele>6.5</ele>
        <time>2020-08-18T09:33:11Z</time>
      </trkpt>
      <trkpt lat="48.66689" lon="-4.3713">
        <ele>6.5</ele>
        <time>2020-08-18T09:33:14Z</time>
      </trkpt>
      <trkpt lat="48.66689" lon="-4.3713">
        <ele>6.5</ele>
        <time>2020-08-18T09:33:25Z</time>
      </trkpt>
      <trkpt lat="48.66685" lon="-4.37159">
        <ele>6.5</ele>
        <time>2020-08-18T09:33:26Z</time>
      </trkpt>
      <trkpt lat="48.66685" lon="-4.37159">
        <ele>6.5</ele>
        <time>2020-08-18T09:33:31Z</time>
      </trkpt>
      <trkpt lat="48.66685" lon="-4.37159">
        <ele>6.5</ele>
        <time>2020-08-18T09:33:43Z</time>
      </trkpt>
      <trkpt lat="48.66685" lon="-4.37159">
        <ele>6.5</ele>
        <time>2020-08-18T09:33:50Z</time>
      </trkpt>
      <trkpt lat="48.66685" lon="-4.37159">
        <ele>6.5</ele>
        <time>2020-08-18T09:33:52Z</time>
      </trkpt>
      <trkpt lat="48.66685" lon="-4.37159">
        <ele>6.5</ele>
        <time>2020-08-18T09:33:54Z</time>
      </trkpt>
      <trkpt lat="48.66732" lon="-4.37173">
        <ele>7.8</ele>
        <time>2020-08-18T09:33:59Z</time>
      </trkpt>
      <trkpt lat="48.66729" lon="-4.37174">
        <ele>7.7</ele>
        <time>2020-08-18T09:34:03Z</time>
      </trkpt>
      <trkpt lat="48.66729" lon="-4.37174">
        <ele>7.7</ele>
        <time>2020-08-18T09:34:33Z</time>
      </trkpt>
      <trkpt lat="48.66729" lon="-4.37174">
        <ele>7.7</ele>
        <time>2020-08-18T09:34:34Z</time>
      </trkpt>
      <trkpt lat="48.66737" lon="-4.37171">
        <ele>8.1</ele>
        <time>2020-08-18T09:34:49Z</time>
      </trkpt>
      <trkpt lat="48.66737" lon="-4.37171">
        <ele>8.1</ele>
        <time>2020-08-18T09:34:55Z</time>
      </trkpt>
      <trkpt lat="48.66737" lon="-4.37171">
        <ele>8.1</ele>
        <time>2020-08-18T09:35:18Z</time>
      </trkpt>
      <trkpt lat="48.66737" lon="-4.37171">
        <ele>8.1</ele>
        <time>2020-08-18T09:35:25Z</time>
      </trkpt>
      <trkpt lat="48.66737" lon="-4.37171">
        <ele>8.1</ele>
        <time>2020-08-18T09:35:33Z</time>
      </trkpt>
      <trkpt lat="48.66737" lon="-4.37171">
        <ele>8.1</ele>
        <time>2020-08-18T09:36:12Z</time>
      </trkpt>
      <trkpt lat="48.66737" lon="-4.37171">
        <ele>8.1</ele>
        <time>2020-08-18T09:36:25Z</time>
      </trkpt>
      <trkpt lat="48.66737" lon="-4.37171">
        <ele>8.1</ele>
        <time>2020-08-18T09:37:37Z</time>
      </trkpt>
      <trkpt lat="48.66745" lon="-4.37171">
        <ele>8.5</ele>
        <time>2020-08-18T09:38:19Z</time>
      </trkpt>
      <trkpt lat="48.66745" lon="-4.37171">
        <ele>8.5</ele>
        <time>2020-08-18T09:38:21Z</time>
      </trkpt>
      <trkpt lat="48.66746" lon="-4.37171">
        <ele>8.5</ele>
        <time>2020-08-18T09:38:28Z</time>
      </trkpt>
      <trkpt lat="48.66746" lon="-4.37171">
        <ele>8.5</ele>
        <time>2020-08-18T09:38:30Z</time>
      </trkpt>
      <trkpt lat="48.6675" lon="-4.37171">
        <ele>8.7</ele>
        <time>2020-08-18T09:38:40Z</time>
      </trkpt>
      <trkpt lat="48.6675" lon="-4.37171">
        <ele>8.7</ele>
        <time>2020-08-18T09:38:43Z</time>
      </trkpt>
      <trkpt lat="48.66724" lon="-4.37286">
        <ele>5.8</ele>
        <time>2020-08-18T09:38:53Z</time>
      </trkpt>
      <trkpt lat="48.66728" lon="-4.3729">
        <ele>5.7</ele>
        <time>2020-08-18T09:39:01Z</time>
      </trkpt>
      <trkpt lat="48.6673" lon="-4.37293">
        <ele>5.7</ele>
        <time>2020-08-18T09:39:09Z</time>
      </trkpt>
      <trkpt lat="48.66772" lon="-4.37312">
        <ele>5.7</ele>
        <time>2020-08-18T09:39:17Z</time>
      </trkpt>
      <trkpt lat="48.66772" lon="-4.37312">
        <ele>5.7</ele>
        <time>2020-08-18T09:39:21Z</time>
      </trkpt>
      <trkpt lat="48.66772" lon="-4.37312">
        <ele>5.7</ele>
        <time>2020-08-18T09:39:26Z</time>
      </trkpt>
      <trkpt lat="48.66772" lon="-4.37312">
        <ele>5.7</ele>
        <time>2020-08-18T09:39:30Z</time>
      </trkpt>
      <trkpt lat="48.66772" lon="-4.37312">
        <ele>5.7</ele>
        <time>2020-08-18T09:39:47Z</time>
      </trkpt>
      <trkpt lat="48.66772" lon="-4.37312">
        <ele>5.7</ele>
        <time>2020-08-18T09:39:52Z</time>
      </trkpt>
      <trkpt lat="48.66772" lon="-4.37312">
        <ele>5.7</ele>
        <time>2020-08-18T09:39:54Z</time>
      </trkpt>
      <trkpt lat="48.66796" lon="-4.37239">
        <ele>8.2</ele>
        <time>2020-08-18T09:40:04Z</time>
      </trkpt>
      <trkpt lat="48.66796" lon="-4.37239">
        <ele>8.2</ele>
        <time>2020-08-18T09:40:07Z</time>
      </trkpt>
      <trkpt lat="48.66798" lon="-4.37185">
        <ele>8.3</ele>
        <time>2020-08-18T09:40:12Z</time>
      </trkpt>
      <trkpt lat="48.66798" lon="-4.37185">
        <ele>8.3</ele>
        <time>2020-08-18T09:40:13Z</time>
      </trkpt>
      <trkpt lat="48.66801" lon="-4.37187">
        <ele>8.3</ele>
        <time>2020-08-18T09:40:22Z</time>
      </trkpt>
      <trkpt lat="48.66801" lon="-4.37187">
        <ele>8.3</ele>
        <time>2020-08-18T09:40:38Z</time>
      </trkpt>
      <trkpt lat="48.66801" lon="-4.37187">
        <ele>8.3</ele>
        <time>2020-08-18T09:40:42Z</time>
      </trkpt>
      <trkpt lat="48.66797" lon="-4.37236">
        <ele>8.2</ele>
        <time>2020-08-18T09:40:47Z</time>
      </trkpt>
      <trkpt lat="48.66797" lon="-4.37236">
        <ele>8.2</ele>
        <time>2020-08-18T09:40:48Z</time>
      </trkpt>
      <trkpt lat="48.66797" lon="-4.37236">
        <ele>8.2</ele>
        <time>2020-08-18T09:41:24Z</time>
      </trkpt>
      <trkpt lat="48.66818" lon="-4.37193">
        <ele>8.2</ele>
        <time>2020-08-18T09:41:36Z</time>
      </trkpt>
      <trkpt lat="48.66818" lon="-4.37193">
        <ele>8.2</ele>
        <time>2020-08-18T09:41:37Z</time>
      </trkpt>
      <trkpt lat="48.66797" lon="-4.37234">
        <ele>8.2</ele>
        <time>2020-08-18T09:41:40Z</time>
      </trkpt>
      <trkpt lat="48.66797" lon="-4.37234">
        <ele>8.2</ele>
        <time>2020-08-18T09:41:46Z</time>
      </trkpt>
      <trkpt lat="48.66797" lon="-4.37234">
        <ele>8.2</ele>
        <time>2020-08-18T09:41:53Z</time>
      </trkpt>
      <trkpt lat="48.66797" lon="-4.37234">
        <ele>8.2</ele>
        <time>2020-08-18T09:41:54Z</time>
      </trkpt>
      <trkpt lat="48.66797" lon="-4.37234">
        <ele>8.2</ele>
        <time>2020-08-18T09:42:08Z</time>
      </trkpt>
      <trkpt lat="48.66797" lon="-4.37234">
        <ele>8.2</ele>
        <time>2020-08-18T09:44:19Z</time>
      </trkpt>
      <trkpt lat="48.66797" lon="-4.37234">
        <ele>8.2</ele>
        <time>2020-08-18T09:44:24Z</time>
      </trkpt>
      <trkpt lat="48.66797" lon="-4.37234">
        <ele>8.2</ele>
        <time>2020-08-18T09:45:03Z</time>
      </trkpt>
      <trkpt lat="48.66797" lon="-4.37234">
        <ele>8.2</ele>
        <time>2020-08-18T09:45:07Z</time>
      </trkpt>
      <trkpt lat="48.66797" lon="-4.37234">
        <ele>8.2</ele>
        <time>2020-08-18T09:45:18Z</time>
      </trkpt>
      <trkpt lat="48.66797" lon="-4.37234">
        <ele>8.2</ele>
        <time>2020-08-18T09:46:24Z</time>
      </trkpt>
      <trkpt lat="48.66797" lon="-4.37237">
        <ele>8.2</ele>
        <time>2020-08-18T09:46:31Z</time>
      </trkpt>
      <trkpt lat="48.66789" lon="-4.37179">
        <ele>8.3</ele>
        <time>2020-08-18T09:46:37Z</time>
      </trkpt>
      <trkpt lat="48.66789" lon="-4.37179">
        <ele>8.3</ele>
        <time>2020-08-18T09:46:39Z</time>
      </trkpt>
      <trkpt lat="48.66789" lon="-4.37179">
        <ele>8.3</ele>
        <time>2020-08-18T09:46:52Z</time>
      </trkpt>
      <trkpt lat="48.66796" lon="-4.3724">
        <ele>8.2</ele>
        <time>2020-08-18T09:46:58Z</time>
      </trkpt>
      <trkpt lat="48.66796" lon="-4.3724">
        <ele>8.2</ele>
        <time>2020-08-18T09:47:00Z</time>
      </trkpt>
      <trkpt lat="48.66776" lon="-4.37172">
        <ele>8.5</ele>
        <time>2020-08-18T09:47:05Z</time>
      </trkpt>
      <trkpt lat="48.66776" lon="-4.37172">
        <ele>8.5</ele>
        <time>2020-08-18T09:47:11Z</time>
      </trkpt>
      <trkpt lat="48.66776" lon="-4.37172">
        <ele>8.5</ele>
        <time>2020-08-18T09:47:15Z</time>
      </trkpt>
      <trkpt lat="48.66767" lon="-4.37171">
        <ele>8.6</ele>
        <time>2020-08-18T09:47:21Z</time>
      </trkpt>
      <trkpt lat="48.66764" lon="-4.37171">
        <ele>8.7</ele>
        <time>2020-08-18T09:47:27Z</time>
      </trkpt>
      <trkpt lat="48.66767" lon="-4.37171">
        <ele>8.6</ele>
        <time>2020-08-18T09:47:35Z</time>
      </trkpt>
      <trkpt lat="48.6683" lon="-4.37206">
        <ele>8.2</ele>
        <time>2020-08-18T09:47:39Z</time>
      </trkpt>
      <trkpt lat="48.6677" lon="-4.37171">
        <ele>8.6</ele>
        <time>2020-08-18T09:47:41Z</time>
      </trkpt>
      <trkpt lat="48.66766" lon="-4.37171">
        <ele>8.6</ele>
        <time>2020-08-18T09:47:45Z</time>
      </trkpt>
      <trkpt lat="48.66753" lon="-4.37171">
        <ele>8.8</ele>
        <time>2020-08-18T09:47:55Z</time>
      </trkpt>
      <trkpt lat="48.66743" lon="-4.37171">
        <ele>8.4</ele>
        <time>2020-08-18T09:48:06Z</time>
      </trkpt>
      <trkpt lat="48.66734" lon="-4.37172">
        <ele>7.9</ele>
        <time>2020-08-18T09:48:15Z</time>
      </trkpt>
      <trkpt lat="48.66726" lon="-4.37175">
        <ele>7.5</ele>
        <time>2020-08-18T09:48:23Z</time>
      </trkpt>
      <trkpt lat="48.6672" lon="-4.37176">
        <ele>7.3</ele>
        <time>2020-08-18T09:48:32Z</time>
      </trkpt>
      <trkpt lat="48.66683" lon="-4.37167">
        <ele>6.4</ele>
        <time>2020-08-18T09:48:40Z</time>
      </trkpt>
      <trkpt lat="48.66682" lon="-4.37168">
        <ele>6.4</ele>
        <time>2020-08-18T09:48:46Z</time>
      </trkpt>
      <trkpt lat="48.66682" lon="-4.37168">
        <ele>6.4</ele>
        <time>2020-08-18T09:48:55Z</time>
      </trkpt>
      <trkpt lat="48.66682" lon="-4.37168">
        <ele>6.4</ele>
        <time>2020-08-18T09:48:56Z</time>
      </trkpt>
      <trkpt lat="48.66682" lon="-4.37168">
        <ele>6.4</ele>
        <time>2020-08-18T09:49:08Z</time>
      </trkpt>
      <trkpt lat="48.6668" lon="-4.37175">
        <ele>6.4</ele>
        <time>2020-08-18T09:49:14Z</time>
      </trkpt>
      <trkpt lat="48.6668" lon="-4.37175">
        <ele>6.4</ele>
        <time>2020-08-18T09:49:20Z</time>
      </trkpt>
      <trkpt lat="48.6668" lon="-4.37175">
        <ele>6.4</ele>
        <time>2020-08-18T09:49:22Z</time>
      </trkpt>
      <trkpt lat="48.6668" lon="-4.37175">
        <ele>6.4</ele>
        <time>2020-08-18T09:49:33Z</time>
      </trkpt>
      <trkpt lat="48.66673" lon="-4.37193">
        <ele>6.3</ele>
        <time>2020-08-18T09:49:43Z</time>
      </trkpt>
      <trkpt lat="48.66671" lon="-4.37199">
        <ele>6.2</ele>
        <time>2020-08-18T09:49:48Z</time>
      </trkpt>
      <trkpt lat="48.6667" lon="-4.37201">
        <ele>6.2</ele>
        <time>2020-08-18T09:49:53Z</time>
      </trkpt>
      <trkpt lat="48.66685" lon="-4.37239">
        <ele>5.6</ele>
        <time>2020-08-18T09:49:57Z</time>
      </trkpt>
      <trkpt lat="48.66675" lon="-4.37187">
        <ele>6.3</ele>
        <time>2020-08-18T09:50:09Z</time>
      </trkpt>
      <trkpt lat="48.66678" lon="-4.37179">
        <ele>6.3</ele>
        <time>2020-08-18T09:50:19Z</time>
      </trkpt>
      <trkpt lat="48.66682" lon="-4.3717">
        <ele>6.4</ele>
        <time>2020-08-18T09:50:28Z</time>
      </trkpt>
      <trkpt lat="48.66683" lon="-4.37165">
        <ele>6.4</ele>
        <time>2020-08-18T09:50:36Z</time>
      </trkpt>
      <trkpt lat="48.66683" lon="-4.37165">
        <ele>6.4</ele>
        <time>2020-08-18T09:50:37Z</time>
      </trkpt>
      <trkpt lat="48.66685" lon="-4.37161">
        <ele>6.5</ele>
        <time>2020-08-18T09:50:48Z</time>
      </trkpt>
      <trkpt lat="48.66685" lon="-4.37161">
        <ele>6.5</ele>
        <time>2020-08-18T09:50:58Z</time>
      </trkpt>
      <trkpt lat="48.66685" lon="-4.37161">
        <ele>6.5</ele>
        <time>2020-08-18T09:51:04Z</time>
      </trkpt>
      <trkpt lat="48.66685" lon="-4.37161">
        <ele>6.5</ele>
        <time>2020-08-18T09:51:28Z</time>
      </trkpt>
      <trkpt lat="48.66685" lon="-4.37157">
        <ele>6.5</ele>
        <time>2020-08-18T09:51:36Z</time>
      </trkpt>
      <trkpt lat="48.66685" lon="-4.37157">
        <ele>6.5</ele>
        <time>2020-08-18T09:51:42Z</time>
      </trkpt>
      <trkpt lat="48.66685" lon="-4.37157">
        <ele>6.5</ele>
        <time>2020-08-18T09:51:44Z</time>
      </trkpt>
      <trkpt lat="48.66689" lon="-4.3716">
        <ele>6.6</ele>
        <time>2020-08-18T09:51:48Z</time>
      </trkpt>
      <trkpt lat="48.66665" lon="-4.37215">
        <ele>5.2</ele>
        <time>2020-08-18T09:51:57Z</time>
      </trkpt>
      <trkpt lat="48.66665" lon="-4.37215">
        <ele>5.2</ele>
        <time>2020-08-18T09:52:06Z</time>
      </trkpt>
      <trkpt lat="48.66689" lon="-4.37129">
        <ele>6.5</ele>
        <time>2020-08-18T09:52:15Z</time>
      </trkpt>
      <trkpt lat="48.66689" lon="-4.37125">
        <ele>6.5</ele>
        <time>2020-08-18T09:52:23Z</time>
      </trkpt>
      <trkpt lat="48.66689" lon="-4.37125">
        <ele>6.5</ele>
        <time>2020-08-18T09:52:29Z</time>
      </trkpt>
      <trkpt lat="48.66689" lon="-4.37125">
        <ele>6.5</ele>
        <time>2020-08-18T09:52:34Z</time>
      </trkpt>
      <trkpt lat="48.66689" lon="-4.37125">
        <ele>6.5</ele>
        <time>2020-08-18T09:52:58Z</time>
      </trkpt>
      <trkpt lat="48.66689" lon="-4.37125">
        <ele>6.5</ele>
        <time>2020-08-18T09:53:01Z</time>
      </trkpt>
      <trkpt lat="48.6669" lon="-4.37105">
        <ele>6.3</ele>
        <time>2020-08-18T09:53:04Z</time>
      </trkpt>
      <trkpt lat="48.6669" lon="-4.37105">
        <ele>6.3</ele>
        <time>2020-08-18T09:53:24Z</time>
      </trkpt>
      <trkpt lat="48.6669" lon="-4.37109">
        <ele>6.3</ele>
        <time>2020-08-18T09:53:31Z</time>
      </trkpt>
      <trkpt lat="48.6669" lon="-4.37109">
        <ele>6.3</ele>
        <time>2020-08-18T09:53:32Z</time>
      </trkpt>
      <trkpt lat="48.66689" lon="-4.37128">
        <ele>6.5</ele>
        <time>2020-08-18T09:54:14Z</time>
      </trkpt>
      <trkpt lat="48.66689" lon="-4.3713">
        <ele>6.5</ele>
        <time>2020-08-18T09:54:15Z</time>
      </trkpt>
      <trkpt lat="48.66689" lon="-4.3713">
        <ele>6.5</ele>
        <time>2020-08-18T09:54:18Z</time>
      </trkpt>
      <trkpt lat="48.66689" lon="-4.37125">
        <ele>6.5</ele>
        <time>2020-08-18T09:54:25Z</time>
      </trkpt>
      <trkpt lat="48.66689" lon="-4.37125">
        <ele>6.5</ele>
        <time>2020-08-18T09:54:31Z</time>
      </trkpt>
      <trkpt lat="48.66689" lon="-4.37125">
        <ele>6.5</ele>
        <time>2020-08-18T09:54:37Z</time>
      </trkpt>
      <trkpt lat="48.66689" lon="-4.3713">
        <ele>6.5</ele>
        <time>2020-08-18T09:54:40Z</time>
      </trkpt>
      <trkpt lat="48.66689" lon="-4.37133">
        <ele>6.5</ele>
        <time>2020-08-18T09:54:45Z</time>
      </trkpt>
      <trkpt lat="48.66689" lon="-4.37133">
        <ele>6.5</ele>
        <time>2020-08-18T09:54:53Z</time>
      </trkpt>
      <trkpt lat="48.66689" lon="-4.37133">
        <ele>6.5</ele>
        <time>2020-08-18T09:54:59Z</time>
      </trkpt>
      <trkpt lat="48.66689" lon="-4.37128">
        <ele>6.5</ele>
        <time>2020-08-18T09:55:03Z</time>
      </trkpt>
      <trkpt lat="48.66688" lon="-4.37134">
        <ele>6.5</ele>
        <time>2020-08-18T09:55:13Z</time>
      </trkpt>
      <trkpt lat="48.66688" lon="-4.37134">
        <ele>6.5</ele>
        <time>2020-08-18T09:55:16Z</time>
      </trkpt>
      <trkpt lat="48.66689" lon="-4.37127">
        <ele>6.5</ele>
        <time>2020-08-18T09:55:22Z</time>
      </trkpt>
      <trkpt lat="48.6669" lon="-4.3716">
        <ele>6.6</ele>
        <time>2020-08-18T09:55:27Z</time>
      </trkpt>
      <trkpt lat="48.6669" lon="-4.3716">
        <ele>6.6</ele>
        <time>2020-08-18T09:55:34Z</time>
      </trkpt>
      <trkpt lat="48.66689" lon="-4.37112">
        <ele>6.3</ele>
        <time>2020-08-18T09:55:42Z</time>
      </trkpt>
      <trkpt lat="48.66689" lon="-4.37112">
        <ele>6.3</ele>
        <time>2020-08-18T09:57:06Z</time>
      </trkpt>
      <trkpt lat="48.66689" lon="-4.37112">
        <ele>6.3</ele>
        <time>2020-08-18T09:58:14Z</time>
      </trkpt>
      <trkpt lat="48.66689" lon="-4.37112">
        <ele>6.3</ele>
        <time>2020-08-18T09:58:18Z</time>
      </trkpt>
      <trkpt lat="48.66689" lon="-4.3713">
        <ele>6.5</ele>
        <time>2020-08-18T09:58:24Z</time>
      </trkpt>
      <trkpt lat="48.66688" lon="-4.37135">
        <ele>6.5</ele>
        <time>2020-08-18T09:58:36Z</time>
      </trkpt>
      <trkpt lat="48.66688" lon="-4.37135">
        <ele>6.5</ele>
        <time>2020-08-18T09:58:42Z</time>
      </trkpt>
      <trkpt lat="48.66688" lon="-4.37135">
        <ele>6.5</ele>
        <time>2020-08-18T09:58:45Z</time>
      </trkpt>
      <trkpt lat="48.66685" lon="-4.37157">
        <ele>6.5</ele>
        <time>2020-08-18T09:58:50Z</time>
      </trkpt>
      <trkpt lat="48.66698" lon="-4.37164">
        <ele>6.8</ele>
        <time>2020-08-18T09:58:56Z</time>
      </trkpt>
      <trkpt lat="48.66708" lon="-4.3717">
        <ele>7</ele>
        <time>2020-08-18T09:59:06Z</time>
      </trkpt>
      <trkpt lat="48.66715" lon="-4.37174">
        <ele>7.2</ele>
        <time>2020-08-18T09:59:12Z</time>
      </trkpt>
      <trkpt lat="48.66725" lon="-4.37176">
        <ele>7.5</ele>
        <time>2020-08-18T09:59:20Z</time>
      </trkpt>
      <trkpt lat="48.66734" lon="-4.37172">
        <ele>7.9</ele>
        <time>2020-08-18T09:59:29Z</time>
      </trkpt>
      <trkpt lat="48.66738" lon="-4.37171">
        <ele>8.1</ele>
        <time>2020-08-18T09:59:34Z</time>
      </trkpt>
      <trkpt lat="48.66741" lon="-4.37171">
        <ele>8.3</ele>
        <time>2020-08-18T09:59:37Z</time>
      </trkpt>
      <trkpt lat="48.66689" lon="-4.3713">
        <ele>6.5</ele>
        <time>2020-08-18T09:59:44Z</time>
      </trkpt>
      <trkpt lat="48.66689" lon="-4.3713">
        <ele>6.5</ele>
        <time>2020-08-18T09:59:45Z</time>
      </trkpt>
      <trkpt lat="48.66689" lon="-4.3713">
        <ele>6.5</ele>
        <time>2020-08-18T09:59:56Z</time>
      </trkpt>
      <trkpt lat="48.66689" lon="-4.37123">
        <ele>6.5</ele>
        <time>2020-08-18T10:00:06Z</time>
      </trkpt>
      <trkpt lat="48.6669" lon="-4.37103">
        <ele>6.2</ele>
        <time>2020-08-18T10:00:14Z</time>
      </trkpt>
      <trkpt lat="48.66693" lon="-4.37072">
        <ele>5.5</ele>
        <time>2020-08-18T10:00:25Z</time>
      </trkpt>
      <trkpt lat="48.66694" lon="-4.37064">
        <ele>5.5</ele>
        <time>2020-08-18T10:00:31Z</time>
      </trkpt>
      <trkpt lat="48.66694" lon="-4.37064">
        <ele>5.5</ele>
        <time>2020-08-18T10:03:04Z</time>
      </trkpt>
      <trkpt lat="48.66778" lon="-4.37083">
        <ele>6.1</ele>
        <time>2020-08-18T10:03:48Z</time>
      </trkpt>
      <trkpt lat="48.66781" lon="-4.37048">
        <ele>5.6</ele>
        <time>2020-08-18T10:03:52Z</time>
      </trkpt>
      <trkpt lat="48.66777" lon="-4.37079">
        <ele>6.1</ele>
        <time>2020-08-18T10:03:59Z</time>
      </trkpt>
      <trkpt lat="48.66774" lon="-4.37065">
        <ele>5.9</ele>
        <time>2020-08-18T10:04:06Z</time>
      </trkpt>
      <trkpt lat="48.66773" lon="-4.37051">
        <ele>5.7</ele>
        <time>2020-08-18T10:04:10Z</time>
      </trkpt>
      <trkpt lat="48.66784" lon="-4.37048">
        <ele>5.6</ele>
        <time>2020-08-18T10:04:15Z</time>
      </trkpt>
      <trkpt lat="48.668" lon="-4.37046">
        <ele>5.5</ele>
        <time>2020-08-18T10:04:24Z</time>
      </trkpt>
      <trkpt lat="48.66806" lon="-4.37043">
        <ele>5.4</ele>
        <time>2020-08-18T10:04:29Z</time>
      </trkpt>
      <trkpt lat="48.66825" lon="-4.37085">
        <ele>6.4</ele>
        <time>2020-08-18T10:04:37Z</time>
      </trkpt>
      <trkpt lat="48.66829" lon="-4.3709">
        <ele>6.4</ele>
        <time>2020-08-18T10:04:43Z</time>
      </trkpt>
      <trkpt lat="48.66835" lon="-4.37127">
        <ele>5.3</ele>
        <time>2020-08-18T10:04:51Z</time>
      </trkpt>
      <trkpt lat="48.66836" lon="-4.3715">
        <ele>6.2</ele>
        <time>2020-08-18T10:04:58Z</time>
      </trkpt>
      <trkpt lat="48.66836" lon="-4.37166">
        <ele>7.6</ele>
        <time>2020-08-18T10:05:04Z</time>
      </trkpt>
      <trkpt lat="48.66832" lon="-4.37195">
        <ele>8.2</ele>
        <time>2020-08-18T10:05:12Z</time>
      </trkpt>
      <trkpt lat="48.66821" lon="-4.37214">
        <ele>8.2</ele>
        <time>2020-08-18T10:05:21Z</time>
      </trkpt>
      <trkpt lat="48.66815" lon="-4.37221">
        <ele>8.2</ele>
        <time>2020-08-18T10:05:27Z</time>
      </trkpt>
      <trkpt lat="48.6679" lon="-4.37258">
        <ele>6.7</ele>
        <time>2020-08-18T10:05:34Z</time>
      </trkpt>
      <trkpt lat="48.66783" lon="-4.37294">
        <ele>6</ele>
        <time>2020-08-18T10:05:41Z</time>
      </trkpt>
      <trkpt lat="48.66778" lon="-4.37316">
        <ele>5.6</ele>
        <time>2020-08-18T10:05:47Z</time>
      </trkpt>
      <trkpt lat="48.66766" lon="-4.37336">
        <ele>4.4</ele>
        <time>2020-08-18T10:05:53Z</time>
      </trkpt>
      <trkpt lat="48.66757" lon="-4.37356">
        <ele>4.2</ele>
        <time>2020-08-18T10:05:59Z</time>
      </trkpt>
      <trkpt lat="48.66739" lon="-4.37374">
        <ele>4.7</ele>
        <time>2020-08-18T10:06:05Z</time>
      </trkpt>
      <trkpt lat="48.66729" lon="-4.37387">
        <ele>4.6</ele>
        <time>2020-08-18T10:06:10Z</time>
      </trkpt>
      <trkpt lat="48.66698" lon="-4.37357">
        <ele>4.8</ele>
        <time>2020-08-18T10:06:16Z</time>
      </trkpt>
      <trkpt lat="48.66674" lon="-4.37354">
        <ele>4.9</ele>
        <time>2020-08-18T10:06:21Z</time>
      </trkpt>
      <trkpt lat="48.66658" lon="-4.37364">
        <ele>5.3</ele>
        <time>2020-08-18T10:06:24Z</time>
      </trkpt>
      <trkpt lat="48.66632" lon="-4.37398">
        <ele>5.4</ele>
        <time>2020-08-18T10:06:30Z</time>
      </trkpt>
      <trkpt lat="48.66618" lon="-4.37445">
        <ele>5.1</ele>
        <time>2020-08-18T10:06:37Z</time>
      </trkpt>
      <trkpt lat="48.66617" lon="-4.37452">
        <ele>5.1</ele>
        <time>2020-08-18T10:06:38Z</time>
      </trkpt>
      <trkpt lat="48.66613" lon="-4.37483">
        <ele>4.9</ele>
        <time>2020-08-18T10:06:44Z</time>
      </trkpt>
      <trkpt lat="48.6661" lon="-4.37507">
        <ele>3.7</ele>
        <time>2020-08-18T10:06:51Z</time>
      </trkpt>
      <trkpt lat="48.66609" lon="-4.3751">
        <ele>3.7</ele>
        <time>2020-08-18T10:06:52Z</time>
      </trkpt>
      <trkpt lat="48.66604" lon="-4.37521">
        <ele>3.6</ele>
        <time>2020-08-18T10:06:57Z</time>
      </trkpt>
      <trkpt lat="48.66579" lon="-4.37515">
        <ele>4.3</ele>
        <time>2020-08-18T10:07:06Z</time>
      </trkpt>
      <trkpt lat="48.66551" lon="-4.37518">
        <ele>4</ele>
        <time>2020-08-18T10:07:15Z</time>
      </trkpt>
      <trkpt lat="48.66532" lon="-4.37521">
        <ele>4</ele>
        <time>2020-08-18T10:07:21Z</time>
      </trkpt>
      <trkpt lat="48.665" lon="-4.37527">
        <ele>5.3</ele>
        <time>2020-08-18T10:07:30Z</time>
      </trkpt>
      <trkpt lat="48.66467" lon="-4.37482">
        <ele>7.7</ele>
        <time>2020-08-18T10:07:41Z</time>
      </trkpt>
      <trkpt lat="48.66427" lon="-4.37468">
        <ele>8.3</ele>
        <time>2020-08-18T10:07:51Z</time>
      </trkpt>
      <trkpt lat="48.66402" lon="-4.37454">
        <ele>8.5</ele>
        <time>2020-08-18T10:08:00Z</time>
      </trkpt>
      <trkpt lat="48.6637" lon="-4.37441">
        <ele>8.1</ele>
        <time>2020-08-18T10:08:12Z</time>
      </trkpt>
      <trkpt lat="48.66346" lon="-4.37432">
        <ele>7.7</ele>
        <time>2020-08-18T10:08:19Z</time>
      </trkpt>
      <trkpt lat="48.66312" lon="-4.3742">
        <ele>6.7</ele>
        <time>2020-08-18T10:08:27Z</time>
      </trkpt>
      <trkpt lat="48.66275" lon="-4.37408">
        <ele>6.1</ele>
        <time>2020-08-18T10:08:34Z</time>
      </trkpt>
      <trkpt lat="48.66264" lon="-4.37403">
        <ele>6</ele>
        <time>2020-08-18T10:08:36Z</time>
      </trkpt>
      <trkpt lat="48.66235" lon="-4.37401">
        <ele>5</ele>
        <time>2020-08-18T10:08:40Z</time>
      </trkpt>
      <trkpt lat="48.66229" lon="-4.37417">
        <ele>5</ele>
        <time>2020-08-18T10:08:42Z</time>
      </trkpt>
      <trkpt lat="48.66199" lon="-4.37503">
        <ele>3.4</ele>
        <time>2020-08-18T10:08:53Z</time>
      </trkpt>
      <trkpt lat="48.66172" lon="-4.37576">
        <ele>1.7</ele>
        <time>2020-08-18T10:09:03Z</time>
      </trkpt>
      <trkpt lat="48.66157" lon="-4.37625">
        <ele>1.5</ele>
        <time>2020-08-18T10:09:10Z</time>
      </trkpt>
      <trkpt lat="48.66153" lon="-4.37662">
        <ele>1.7</ele>
        <time>2020-08-18T10:09:15Z</time>
      </trkpt>
      <trkpt lat="48.66157" lon="-4.37679">
        <ele>1.8</ele>
        <time>2020-08-18T10:09:17Z</time>
      </trkpt>
      <trkpt lat="48.66171" lon="-4.37724">
        <ele>3.3</ele>
        <time>2020-08-18T10:09:24Z</time>
      </trkpt>
      <trkpt lat="48.66177" lon="-4.37779">
        <ele>3.4</ele>
        <time>2020-08-18T10:09:32Z</time>
      </trkpt>
      <trkpt lat="48.66178" lon="-4.37829">
        <ele>3.4</ele>
        <time>2020-08-18T10:09:39Z</time>
      </trkpt>
      <trkpt lat="48.6618" lon="-4.37848">
        <ele>3.5</ele>
        <time>2020-08-18T10:09:42Z</time>
      </trkpt>
      <trkpt lat="48.6618" lon="-4.37868">
        <ele>3.6</ele>
        <time>2020-08-18T10:09:46Z</time>
      </trkpt>
      <trkpt lat="48.66174" lon="-4.37867">
        <ele>3.5</ele>
        <time>2020-08-18T10:09:48Z</time>
      </trkpt>
      <trkpt lat="48.66144" lon="-4.37866">
        <ele>2.6</ele>
        <time>2020-08-18T10:09:57Z</time>
      </trkpt>
      <trkpt lat="48.66108" lon="-4.37864">
        <ele>2.6</ele>
        <time>2020-08-18T10:10:07Z</time>
      </trkpt>
      <trkpt lat="48.6606" lon="-4.37859">
        <ele>2.6</ele>
        <time>2020-08-18T10:10:19Z</time>
      </trkpt>
      <trkpt lat="48.66045" lon="-4.37855">
        <ele>2.6</ele>
        <time>2020-08-18T10:10:23Z</time>
      </trkpt>
      <trkpt lat="48.66017" lon="-4.37862">
        <ele>2.6</ele>
        <time>2020-08-18T10:10:30Z</time>
      </trkpt>
      <trkpt lat="48.65986" lon="-4.37884">
        <ele>2.1</ele>
        <time>2020-08-18T10:10:38Z</time>
      </trkpt>
      <trkpt lat="48.65953" lon="-4.37919">
        <ele>2.3</ele>
        <time>2020-08-18T10:10:48Z</time>
      </trkpt>
      <trkpt lat="48.65939" lon="-4.37935">
        <ele>2.3</ele>
        <time>2020-08-18T10:10:52Z</time>
      </trkpt>
      <trkpt lat="48.65922" lon="-4.37965">
        <ele>2.6</ele>
        <time>2020-08-18T10:10:57Z</time>
      </trkpt>
      <trkpt lat="48.6592" lon="-4.37986">
        <ele>2.8</ele>
        <time>2020-08-18T10:11:00Z</time>
      </trkpt>
      <trkpt lat="48.65887" lon="-4.38036">
        <ele>2.6</ele>
        <time>2020-08-18T10:11:09Z</time>
      </trkpt>
      <trkpt lat="48.65858" lon="-4.38091">
        <ele>2.5</ele>
        <time>2020-08-18T10:11:19Z</time>
      </trkpt>
      <trkpt lat="48.65849" lon="-4.38109">
        <ele>2.6</ele>
        <time>2020-08-18T10:11:23Z</time>
      </trkpt>
      <trkpt lat="48.65856" lon="-4.38123">
        <ele>2.7</ele>
        <time>2020-08-18T10:11:24Z</time>
      </trkpt>
      <trkpt lat="48.65887" lon="-4.38157">
        <ele>2.9</ele>
        <time>2020-08-18T10:11:33Z</time>
      </trkpt>
      <trkpt lat="48.6593" lon="-4.38204">
        <ele>4.1</ele>
        <time>2020-08-18T10:11:45Z</time>
      </trkpt>
      <trkpt lat="48.65963" lon="-4.38247">
        <ele>4.3</ele>
        <time>2020-08-18T10:11:55Z</time>
      </trkpt>
      <trkpt lat="48.65984" lon="-4.38282">
        <ele>4.5</ele>
        <time>2020-08-18T10:12:02Z</time>
      </trkpt>
      <trkpt lat="48.65997" lon="-4.38322">
        <ele>4.3</ele>
        <time>2020-08-18T10:12:09Z</time>
      </trkpt>
      <trkpt lat="48.66001" lon="-4.38365">
        <ele>4.1</ele>
        <time>2020-08-18T10:12:16Z</time>
      </trkpt>
      <trkpt lat="48.65998" lon="-4.3841">
        <ele>5.1</ele>
        <time>2020-08-18T10:12:24Z</time>
      </trkpt>
      <trkpt lat="48.65996" lon="-4.38437">
        <ele>5.4</ele>
        <time>2020-08-18T10:12:31Z</time>
      </trkpt>
      <trkpt lat="48.65994" lon="-4.38452">
        <ele>5.5</ele>
        <time>2020-08-18T10:12:36Z</time>
      </trkpt>
      <trkpt lat="48.65992" lon="-4.3847">
        <ele>5.4</ele>
        <time>2020-08-18T10:12:43Z</time>
      </trkpt>
      <trkpt lat="48.65991" lon="-4.38486">
        <ele>5</ele>
        <time>2020-08-18T10:12:48Z</time>
      </trkpt>
      <trkpt lat="48.65991" lon="-4.38511">
        <ele>4.5</ele>
        <time>2020-08-18T10:12:55Z</time>
      </trkpt>
      <trkpt lat="48.65991" lon="-4.38533">
        <ele>4.6</ele>
        <time>2020-08-18T10:13:02Z</time>
      </trkpt>
      <trkpt lat="48.65992" lon="-4.38561">
        <ele>3.9</ele>
        <time>2020-08-18T10:13:08Z</time>
      </trkpt>
      <trkpt lat="48.65993" lon="-4.38596">
        <ele>3.2</ele>
        <time>2020-08-18T10:13:15Z</time>
      </trkpt>
      <trkpt lat="48.65996" lon="-4.38637">
        <ele>4.1</ele>
        <time>2020-08-18T10:13:23Z</time>
      </trkpt>
      <trkpt lat="48.65998" lon="-4.38667">
        <ele>4.1</ele>
        <time>2020-08-18T10:13:29Z</time>
      </trkpt>
      <trkpt lat="48.65998" lon="-4.38693">
        <ele>4.5</ele>
        <time>2020-08-18T10:13:36Z</time>
      </trkpt>
      <trkpt lat="48.65996" lon="-4.38719">
        <ele>4.7</ele>
        <time>2020-08-18T10:13:43Z</time>
      </trkpt>
      <trkpt lat="48.6599" lon="-4.38749">
        <ele>4.9</ele>
        <time>2020-08-18T10:13:51Z</time>
      </trkpt>
      <trkpt lat="48.65998" lon="-4.38753">
        <ele>5</ele>
        <time>2020-08-18T10:13:55Z</time>
      </trkpt>
      <trkpt lat="48.66016" lon="-4.38752">
        <ele>5</ele>
        <time>2020-08-18T10:14:02Z</time>
      </trkpt>
      <trkpt lat="48.6602" lon="-4.38752">
        <ele>5</ele>
        <time>2020-08-18T10:14:04Z</time>
      </trkpt>
      <trkpt lat="48.66022" lon="-4.38752">
        <ele>5</ele>
        <time>2020-08-18T10:14:11Z</time>
      </trkpt>
      <trkpt lat="48.66022" lon="-4.38752">
        <ele>5</ele>
        <time>2020-08-18T10:14:13Z</time>
      </trkpt>
      <trkpt lat="48.66018" lon="-4.38763">
        <ele>5</ele>
        <time>2020-08-18T10:14:20Z</time>
      </trkpt>
      <trkpt lat="48.66018" lon="-4.38774">
        <ele>5</ele>
        <time>2020-08-18T10:14:25Z</time>
      </trkpt>
      <trkpt lat="48.66043" lon="-4.38771">
        <ele>5</ele>
        <time>2020-08-18T10:14:31Z</time>
      </trkpt>
      <trkpt lat="48.66043" lon="-4.38771">
        <ele>5</ele>
        <time>2020-08-18T10:14:41Z</time>
      </trkpt>
      <trkpt lat="48.66043" lon="-4.38771">
        <ele>5</ele>
        <time>2020-08-18T10:16:17Z</time>
      </trkpt>
      <trkpt lat="48.66042" lon="-4.38797">
        <ele>5</ele>
        <time>2020-08-18T10:16:20Z</time>
      </trkpt>
      <trkpt lat="48.66039" lon="-4.38801">
        <ele>5</ele>
        <time>2020-08-18T10:16:22Z</time>
      </trkpt>
      <trkpt lat="48.66035" lon="-4.3881">
        <ele>5</ele>
        <time>2020-08-18T10:16:26Z</time>
      </trkpt>
      <trkpt lat="48.66018" lon="-4.3882">
        <ele>5</ele>
        <time>2020-08-18T10:16:34Z</time>
      </trkpt>
      <trkpt lat="48.66004" lon="-4.38829">
        <ele>5</ele>
        <time>2020-08-18T10:16:40Z</time>
      </trkpt>
      <trkpt lat="48.65986" lon="-4.38841">
        <ele>5.4</ele>
        <time>2020-08-18T10:16:49Z</time>
      </trkpt>
      <trkpt lat="48.65972" lon="-4.38862">
        <ele>5.4</ele>
        <time>2020-08-18T10:16:57Z</time>
      </trkpt>
      <trkpt lat="48.65961" lon="-4.38877">
        <ele>5.5</ele>
        <time>2020-08-18T10:17:04Z</time>
      </trkpt>
      <trkpt lat="48.65947" lon="-4.38894">
        <ele>5.6</ele>
        <time>2020-08-18T10:17:12Z</time>
      </trkpt>
      <trkpt lat="48.65932" lon="-4.38909">
        <ele>5.8</ele>
        <time>2020-08-18T10:17:19Z</time>
      </trkpt>
      <trkpt lat="48.65932" lon="-4.38908">
        <ele>5.8</ele>
        <time>2020-08-18T10:17:23Z</time>
      </trkpt>
      <trkpt lat="48.65912" lon="-4.3894">
        <ele>4.9</ele>
        <time>2020-08-18T10:17:32Z</time>
      </trkpt>
      <trkpt lat="48.65897" lon="-4.38969">
        <ele>4.1</ele>
        <time>2020-08-18T10:17:41Z</time>
      </trkpt>
      <trkpt lat="48.65883" lon="-4.3899">
        <ele>4.1</ele>
        <time>2020-08-18T10:17:48Z</time>
      </trkpt>
      <trkpt lat="48.65864" lon="-4.39021">
        <ele>4.3</ele>
        <time>2020-08-18T10:17:57Z</time>
      </trkpt>
      <trkpt lat="48.65846" lon="-4.39052">
        <ele>4.2</ele>
        <time>2020-08-18T10:18:07Z</time>
      </trkpt>
      <trkpt lat="48.65828" lon="-4.39082">
        <ele>4.3</ele>
        <time>2020-08-18T10:18:16Z</time>
      </trkpt>
      <trkpt lat="48.65808" lon="-4.39114">
        <ele>3.9</ele>
        <time>2020-08-18T10:18:24Z</time>
      </trkpt>
      <trkpt lat="48.65805" lon="-4.39118">
        <ele>3.9</ele>
        <time>2020-08-18T10:18:25Z</time>
      </trkpt>
      <trkpt lat="48.65791" lon="-4.39141">
        <ele>3.8</ele>
        <time>2020-08-18T10:18:30Z</time>
      </trkpt>
      <trkpt lat="48.65759" lon="-4.39189">
        <ele>3.4</ele>
        <time>2020-08-18T10:18:41Z</time>
      </trkpt>
      <trkpt lat="48.65737" lon="-4.39222">
        <ele>3.7</ele>
        <time>2020-08-18T10:18:49Z</time>
      </trkpt>
      <trkpt lat="48.65711" lon="-4.3926">
        <ele>3.6</ele>
        <time>2020-08-18T10:18:58Z</time>
      </trkpt>
      <trkpt lat="48.65685" lon="-4.39305">
        <ele>3.7</ele>
        <time>2020-08-18T10:19:07Z</time>
      </trkpt>
      <trkpt lat="48.6567" lon="-4.39344">
        <ele>3.5</ele>
        <time>2020-08-18T10:19:14Z</time>
      </trkpt>
      <trkpt lat="48.6564" lon="-4.39394">
        <ele>2.8</ele>
        <time>2020-08-18T10:19:24Z</time>
      </trkpt>
      <trkpt lat="48.65628" lon="-4.39446">
        <ele>2.7</ele>
        <time>2020-08-18T10:19:32Z</time>
      </trkpt>
      <trkpt lat="48.65624" lon="-4.39456">
        <ele>2.7</ele>
        <time>2020-08-18T10:19:34Z</time>
      </trkpt>
      <trkpt lat="48.65601" lon="-4.39512">
        <ele>3.5</ele>
        <time>2020-08-18T10:19:45Z</time>
      </trkpt>
      <trkpt lat="48.65591" lon="-4.39538">
        <ele>4.1</ele>
        <time>2020-08-18T10:19:51Z</time>
      </trkpt>
      <trkpt lat="48.65581" lon="-4.39566">
        <ele>4.6</ele>
        <time>2020-08-18T10:19:58Z</time>
      </trkpt>
      <trkpt lat="48.65569" lon="-4.39598">
        <ele>5</ele>
        <time>2020-08-18T10:20:05Z</time>
      </trkpt>
      <trkpt lat="48.65545" lon="-4.39633">
        <ele>4</ele>
        <time>2020-08-18T10:20:14Z</time>
      </trkpt>
      <trkpt lat="48.65525" lon="-4.39654">
        <ele>3.5</ele>
        <time>2020-08-18T10:20:23Z</time>
      </trkpt>
      <trkpt lat="48.65501" lon="-4.39674">
        <ele>3.2</ele>
        <time>2020-08-18T10:20:34Z</time>
      </trkpt>
      <trkpt lat="48.6548" lon="-4.39689">
        <ele>3.6</ele>
        <time>2020-08-18T10:20:42Z</time>
      </trkpt>
      <trkpt lat="48.65491" lon="-4.39839">
        <ele>4.1</ele>
        <time>2020-08-18T10:20:52Z</time>
      </trkpt>
      <trkpt lat="48.65478" lon="-4.39889">
        <ele>4.2</ele>
        <time>2020-08-18T10:21:01Z</time>
      </trkpt>
      <trkpt lat="48.65472" lon="-4.39944">
        <ele>4.2</ele>
        <time>2020-08-18T10:21:11Z</time>
      </trkpt>
      <trkpt lat="48.65461" lon="-4.39994">
        <ele>4.2</ele>
        <time>2020-08-18T10:21:20Z</time>
      </trkpt>
      <trkpt lat="48.65443" lon="-4.40059">
        <ele>4</ele>
        <time>2020-08-18T10:21:32Z</time>
      </trkpt>
      <trkpt lat="48.65429" lon="-4.40109">
        <ele>3.6</ele>
        <time>2020-08-18T10:21:41Z</time>
      </trkpt>
      <trkpt lat="48.65423" lon="-4.40144">
        <ele>3.3</ele>
        <time>2020-08-18T10:21:48Z</time>
      </trkpt>
      <trkpt lat="48.65412" lon="-4.40191">
        <ele>3.8</ele>
        <time>2020-08-18T10:21:58Z</time>
      </trkpt>
      <trkpt lat="48.65396" lon="-4.40242">
        <ele>4.7</ele>
        <time>2020-08-18T10:22:09Z</time>
      </trkpt>
      <trkpt lat="48.65381" lon="-4.40291">
        <ele>4</ele>
        <time>2020-08-18T10:22:18Z</time>
      </trkpt>
      <trkpt lat="48.65368" lon="-4.40348">
        <ele>3.7</ele>
        <time>2020-08-18T10:22:26Z</time>
      </trkpt>
      <trkpt lat="48.6536" lon="-4.40401">
        <ele>4.1</ele>
        <time>2020-08-18T10:22:35Z</time>
      </trkpt>
      <trkpt lat="48.65356" lon="-4.40444">
        <ele>4.4</ele>
        <time>2020-08-18T10:22:42Z</time>
      </trkpt>
      <trkpt lat="48.65356" lon="-4.40463">
        <ele>4.4</ele>
        <time>2020-08-18T10:22:45Z</time>
      </trkpt>
      <trkpt lat="48.65356" lon="-4.40481">
        <ele>4.5</ele>
        <time>2020-08-18T10:22:48Z</time>
      </trkpt>
      <trkpt lat="48.65362" lon="-4.40528">
        <ele>4.5</ele>
        <time>2020-08-18T10:22:57Z</time>
      </trkpt>
      <trkpt lat="48.65362" lon="-4.40528">
        <ele>4.5</ele>
        <time>2020-08-18T10:23:08Z</time>
      </trkpt>
      <trkpt lat="48.65369" lon="-4.40648">
        <ele>3.6</ele>
        <time>2020-08-18T10:23:16Z</time>
      </trkpt>
      <trkpt lat="48.65369" lon="-4.40721">
        <ele>2.5</ele>
        <time>2020-08-18T10:23:27Z</time>
      </trkpt>
      <trkpt lat="48.65369" lon="-4.40784">
        <ele>2.6</ele>
        <time>2020-08-18T10:23:36Z</time>
      </trkpt>
      <trkpt lat="48.65368" lon="-4.40851">
        <ele>3.8</ele>
        <time>2020-08-18T10:23:46Z</time>
      </trkpt>
      <trkpt lat="48.65363" lon="-4.40895">
        <ele>4.2</ele>
        <time>2020-08-18T10:23:53Z</time>
      </trkpt>
      <trkpt lat="48.65362" lon="-4.4093">
        <ele>4.8</ele>
        <time>2020-08-18T10:23:58Z</time>
      </trkpt>
      <trkpt lat="48.65363" lon="-4.40932">
        <ele>4.8</ele>
        <time>2020-08-18T10:24:02Z</time>
      </trkpt>
      <trkpt lat="48.65365" lon="-4.40935">
        <ele>4.7</ele>
        <time>2020-08-18T10:24:39Z</time>
      </trkpt>
      <trkpt lat="48.6537" lon="-4.40948">
        <ele>4.6</ele>
        <time>2020-08-18T10:24:44Z</time>
      </trkpt>
      <trkpt lat="48.65373" lon="-4.40967">
        <ele>4.5</ele>
        <time>2020-08-18T10:24:50Z</time>
      </trkpt>
      <trkpt lat="48.6538" lon="-4.41006">
        <ele>4.9</ele>
        <time>2020-08-18T10:25:00Z</time>
      </trkpt>
      <trkpt lat="48.65388" lon="-4.41038">
        <ele>5.1</ele>
        <time>2020-08-18T10:25:08Z</time>
      </trkpt>
      <trkpt lat="48.654" lon="-4.4108">
        <ele>5.6</ele>
        <time>2020-08-18T10:25:18Z</time>
      </trkpt>
      <trkpt lat="48.6541" lon="-4.41112">
        <ele>6.5</ele>
        <time>2020-08-18T10:25:25Z</time>
      </trkpt>
      <trkpt lat="48.65419" lon="-4.41142">
        <ele>5.8</ele>
        <time>2020-08-18T10:25:31Z</time>
      </trkpt>
      <trkpt lat="48.65427" lon="-4.41184">
        <ele>6.7</ele>
        <time>2020-08-18T10:25:39Z</time>
      </trkpt>
      <trkpt lat="48.65427" lon="-4.41224">
        <ele>6.8</ele>
        <time>2020-08-18T10:25:47Z</time>
      </trkpt>
      <trkpt lat="48.6542" lon="-4.41259">
        <ele>8</ele>
        <time>2020-08-18T10:25:54Z</time>
      </trkpt>
      <trkpt lat="48.65414" lon="-4.41303">
        <ele>8.3</ele>
        <time>2020-08-18T10:26:02Z</time>
      </trkpt>
      <trkpt lat="48.65412" lon="-4.41322">
        <ele>8.5</ele>
        <time>2020-08-18T10:26:05Z</time>
      </trkpt>
      <trkpt lat="48.65406" lon="-4.41377">
        <ele>7.8</ele>
        <time>2020-08-18T10:26:14Z</time>
      </trkpt>
      <trkpt lat="48.65396" lon="-4.41429">
        <ele>7.7</ele>
        <time>2020-08-18T10:26:23Z</time>
      </trkpt>
      <trkpt lat="48.65374" lon="-4.415">
        <ele>7.7</ele>
        <time>2020-08-18T10:26:35Z</time>
      </trkpt>
      <trkpt lat="48.65372" lon="-4.41506">
        <ele>7.6</ele>
        <time>2020-08-18T10:26:36Z</time>
      </trkpt>
      <trkpt lat="48.65359" lon="-4.41546">
        <ele>7.4</ele>
        <time>2020-08-18T10:26:45Z</time>
      </trkpt>
      <trkpt lat="48.65343" lon="-4.41612">
        <ele>7.1</ele>
        <time>2020-08-18T10:26:52Z</time>
      </trkpt>
      <trkpt lat="48.65338" lon="-4.4167">
        <ele>7</ele>
        <time>2020-08-18T10:27:01Z</time>
      </trkpt>
      <trkpt lat="48.65328" lon="-4.41719">
        <ele>6.3</ele>
        <time>2020-08-18T10:27:09Z</time>
      </trkpt>
      <trkpt lat="48.65312" lon="-4.4176">
        <ele>6.2</ele>
        <time>2020-08-18T10:27:16Z</time>
      </trkpt>
      <trkpt lat="48.653" lon="-4.41802">
        <ele>6.3</ele>
        <time>2020-08-18T10:27:22Z</time>
      </trkpt>
      <trkpt lat="48.65293" lon="-4.41857">
        <ele>6.5</ele>
        <time>2020-08-18T10:27:30Z</time>
      </trkpt>
      <trkpt lat="48.65284" lon="-4.4192">
        <ele>6.3</ele>
        <time>2020-08-18T10:27:40Z</time>
      </trkpt>
      <trkpt lat="48.65271" lon="-4.41988">
        <ele>5.8</ele>
        <time>2020-08-18T10:27:51Z</time>
      </trkpt>
      <trkpt lat="48.65258" lon="-4.42059">
        <ele>5.4</ele>
        <time>2020-08-18T10:28:02Z</time>
      </trkpt>
      <trkpt lat="48.65246" lon="-4.42123">
        <ele>5.5</ele>
        <time>2020-08-18T10:28:11Z</time>
      </trkpt>
      <trkpt lat="48.65231" lon="-4.42195">
        <ele>6.2</ele>
        <time>2020-08-18T10:28:21Z</time>
      </trkpt>
      <trkpt lat="48.65226" lon="-4.42221">
        <ele>6.2</ele>
        <time>2020-08-18T10:28:25Z</time>
      </trkpt>
      <trkpt lat="48.65214" lon="-4.42275">
        <ele>6.1</ele>
        <time>2020-08-18T10:28:34Z</time>
      </trkpt>
      <trkpt lat="48.65199" lon="-4.42309">
        <ele>6</ele>
        <time>2020-08-18T10:28:41Z</time>
      </trkpt>
      <trkpt lat="48.65182" lon="-4.42338">
        <ele>5.8</ele>
        <time>2020-08-18T10:28:49Z</time>
      </trkpt>
      <trkpt lat="48.65167" lon="-4.42386">
        <ele>5.7</ele>
        <time>2020-08-18T10:28:57Z</time>
      </trkpt>
      <trkpt lat="48.65153" lon="-4.42432">
        <ele>5.8</ele>
        <time>2020-08-18T10:29:05Z</time>
      </trkpt>
      <trkpt lat="48.65135" lon="-4.42474">
        <ele>5.5</ele>
        <time>2020-08-18T10:29:13Z</time>
      </trkpt>
      <trkpt lat="48.65115" lon="-4.42503">
        <ele>5.2</ele>
        <time>2020-08-18T10:29:21Z</time>
      </trkpt>
      <trkpt lat="48.65119" lon="-4.42552">
        <ele>5.1</ele>
        <time>2020-08-18T10:29:26Z</time>
      </trkpt>
      <trkpt lat="48.65128" lon="-4.42612">
        <ele>5.4</ele>
        <time>2020-08-18T10:29:36Z</time>
      </trkpt>
      <trkpt lat="48.65146" lon="-4.42683">
        <ele>6.1</ele>
        <time>2020-08-18T10:29:48Z</time>
      </trkpt>
      <trkpt lat="48.65165" lon="-4.42754">
        <ele>6</ele>
        <time>2020-08-18T10:29:59Z</time>
      </trkpt>
      <trkpt lat="48.65179" lon="-4.42819">
        <ele>5.1</ele>
        <time>2020-08-18T10:30:09Z</time>
      </trkpt>
      <trkpt lat="48.65183" lon="-4.42872">
        <ele>4.6</ele>
        <time>2020-08-18T10:30:17Z</time>
      </trkpt>
      <trkpt lat="48.65178" lon="-4.42912">
        <ele>5.2</ele>
        <time>2020-08-18T10:30:24Z</time>
      </trkpt>
      <trkpt lat="48.65166" lon="-4.42968">
        <ele>6.9</ele>
        <time>2020-08-18T10:30:34Z</time>
      </trkpt>
      <trkpt lat="48.65158" lon="-4.4301">
        <ele>7.4</ele>
        <time>2020-08-18T10:30:42Z</time>
      </trkpt>
      <trkpt lat="48.65152" lon="-4.43033">
        <ele>7.8</ele>
        <time>2020-08-18T10:30:48Z</time>
      </trkpt>
      <trkpt lat="48.65145" lon="-4.43076">
        <ele>8</ele>
        <time>2020-08-18T10:30:58Z</time>
      </trkpt>
      <trkpt lat="48.65137" lon="-4.43109">
        <ele>8.4</ele>
        <time>2020-08-18T10:31:06Z</time>
      </trkpt>
      <trkpt lat="48.6513" lon="-4.43128">
        <ele>8.5</ele>
        <time>2020-08-18T10:31:12Z</time>
      </trkpt>
      <trkpt lat="48.65123" lon="-4.43147">
        <ele>8.5</ele>
        <time>2020-08-18T10:31:18Z</time>
      </trkpt>
      <trkpt lat="48.65113" lon="-4.4317">
        <ele>8.5</ele>
        <time>2020-08-18T10:31:25Z</time>
      </trkpt>
      <trkpt lat="48.65102" lon="-4.43196">
        <ele>8.4</ele>
        <time>2020-08-18T10:31:32Z</time>
      </trkpt>
      <trkpt lat="48.65086" lon="-4.43231">
        <ele>8.2</ele>
        <time>2020-08-18T10:31:42Z</time>
      </trkpt>
      <trkpt lat="48.65081" lon="-4.43246">
        <ele>8</ele>
        <time>2020-08-18T10:31:49Z</time>
      </trkpt>
      <trkpt lat="48.65081" lon="-4.43246">
        <ele>8</ele>
        <time>2020-08-18T10:31:50Z</time>
      </trkpt>
      <trkpt lat="48.65081" lon="-4.43246">
        <ele>8</ele>
        <time>2020-08-18T10:31:54Z</time>
      </trkpt>
      <trkpt lat="48.65081" lon="-4.43246">
        <ele>8</ele>
        <time>2020-08-18T10:32:01Z</time>
      </trkpt>
      <trkpt lat="48.65081" lon="-4.43246">
        <ele>8</ele>
        <time>2020-08-18T10:32:05Z</time>
      </trkpt>
      <trkpt lat="48.65085" lon="-4.43271">
        <ele>7.2</ele>
        <time>2020-08-18T10:33:51Z</time>
      </trkpt>
      <trkpt lat="48.65085" lon="-4.43269">
        <ele>7.3</ele>
        <time>2020-08-18T10:33:52Z</time>
      </trkpt>
      <trkpt lat="48.65083" lon="-4.43258">
        <ele>7.4</ele>
        <time>2020-08-18T10:34:00Z</time>
      </trkpt>
      <trkpt lat="48.65082" lon="-4.43255">
        <ele>7.6</ele>
        <time>2020-08-18T10:34:01Z</time>
      </trkpt>
      <trkpt lat="48.65078" lon="-4.43248">
        <ele>8</ele>
        <time>2020-08-18T10:34:06Z</time>
      </trkpt>
      <trkpt lat="48.65083" lon="-4.4326">
        <ele>7.3</ele>
        <time>2020-08-18T10:34:10Z</time>
      </trkpt>
      <trkpt lat="48.65098" lon="-4.43289">
        <ele>6.7</ele>
        <time>2020-08-18T10:34:17Z</time>
      </trkpt>
      <trkpt lat="48.65116" lon="-4.43296">
        <ele>6.7</ele>
        <time>2020-08-18T10:34:23Z</time>
      </trkpt>
      <trkpt lat="48.65144" lon="-4.43303">
        <ele>6.6</ele>
        <time>2020-08-18T10:34:31Z</time>
      </trkpt>
      <trkpt lat="48.65175" lon="-4.4332">
        <ele>6.8</ele>
        <time>2020-08-18T10:34:40Z</time>
      </trkpt>
      <trkpt lat="48.65201" lon="-4.43353">
        <ele>6.7</ele>
        <time>2020-08-18T10:34:48Z</time>
      </trkpt>
      <trkpt lat="48.65224" lon="-4.43383">
        <ele>6.7</ele>
        <time>2020-08-18T10:34:55Z</time>
      </trkpt>
      <trkpt lat="48.65248" lon="-4.43416">
        <ele>6</ele>
        <time>2020-08-18T10:35:04Z</time>
      </trkpt>
      <trkpt lat="48.65263" lon="-4.43439">
        <ele>6.5</ele>
        <time>2020-08-18T10:35:10Z</time>
      </trkpt>
      <trkpt lat="48.65279" lon="-4.43429">
        <ele>6.9</ele>
        <time>2020-08-18T10:35:14Z</time>
      </trkpt>
      <trkpt lat="48.65285" lon="-4.43422">
        <ele>7.1</ele>
        <time>2020-08-18T10:35:18Z</time>
      </trkpt>
      <trkpt lat="48.6529" lon="-4.43416">
        <ele>8.3</ele>
        <time>2020-08-18T10:35:22Z</time>
      </trkpt>
      <trkpt lat="48.65304" lon="-4.43401">
        <ele>8.7</ele>
        <time>2020-08-18T10:35:31Z</time>
      </trkpt>
      <trkpt lat="48.65314" lon="-4.4339">
        <ele>8.9</ele>
        <time>2020-08-18T10:35:37Z</time>
      </trkpt>
      <trkpt lat="48.65327" lon="-4.43377">
        <ele>9</ele>
        <time>2020-08-18T10:35:43Z</time>
      </trkpt>
      <trkpt lat="48.65349" lon="-4.43358">
        <ele>10.1</ele>
        <time>2020-08-18T10:35:52Z</time>
      </trkpt>
      <trkpt lat="48.65362" lon="-4.43351">
        <ele>10.2</ele>
        <time>2020-08-18T10:35:57Z</time>
      </trkpt>
      <trkpt lat="48.65374" lon="-4.43348">
        <ele>10.2</ele>
        <time>2020-08-18T10:36:02Z</time>
      </trkpt>
      <trkpt lat="48.65388" lon="-4.43352">
        <ele>10.2</ele>
        <time>2020-08-18T10:36:07Z</time>
      </trkpt>
      <trkpt lat="48.65415" lon="-4.43361">
        <ele>10.2</ele>
        <time>2020-08-18T10:36:15Z</time>
      </trkpt>
      <trkpt lat="48.65431" lon="-4.43367">
        <ele>9.4</ele>
        <time>2020-08-18T10:36:19Z</time>
      </trkpt>
      <trkpt lat="48.65452" lon="-4.43364">
        <ele>9.1</ele>
        <time>2020-08-18T10:36:24Z</time>
      </trkpt>
      <trkpt lat="48.65459" lon="-4.43357">
        <ele>8.9</ele>
        <time>2020-08-18T10:36:26Z</time>
      </trkpt>
      <trkpt lat="48.65486" lon="-4.43328">
        <ele>7.5</ele>
        <time>2020-08-18T10:36:34Z</time>
      </trkpt>
      <trkpt lat="48.65487" lon="-4.43326">
        <ele>7.5</ele>
        <time>2020-08-18T10:36:38Z</time>
      </trkpt>
      <trkpt lat="48.65495" lon="-4.43339">
        <ele>7.5</ele>
        <time>2020-08-18T10:36:48Z</time>
      </trkpt>
      <trkpt lat="48.65503" lon="-4.43362">
        <ele>6.2</ele>
        <time>2020-08-18T10:36:55Z</time>
      </trkpt>
      <trkpt lat="48.65511" lon="-4.43385">
        <ele>6.2</ele>
        <time>2020-08-18T10:37:04Z</time>
      </trkpt>
      <trkpt lat="48.65519" lon="-4.43435">
        <ele>6</ele>
        <time>2020-08-18T10:37:10Z</time>
      </trkpt>
      <trkpt lat="48.65525" lon="-4.43459">
        <ele>5.4</ele>
        <time>2020-08-18T10:37:18Z</time>
      </trkpt>
      <trkpt lat="48.65529" lon="-4.43476">
        <ele>5.2</ele>
        <time>2020-08-18T10:37:24Z</time>
      </trkpt>
      <trkpt lat="48.6553" lon="-4.4348">
        <ele>5.2</ele>
        <time>2020-08-18T10:37:27Z</time>
      </trkpt>
      <trkpt lat="48.65526" lon="-4.43464">
        <ele>5.3</ele>
        <time>2020-08-18T10:38:30Z</time>
      </trkpt>
      <trkpt lat="48.65521" lon="-4.43444">
        <ele>5.7</ele>
        <time>2020-08-18T10:38:37Z</time>
      </trkpt>
      <trkpt lat="48.65517" lon="-4.43419">
        <ele>6.4</ele>
        <time>2020-08-18T10:38:44Z</time>
      </trkpt>
      <trkpt lat="48.65515" lon="-4.43407">
        <ele>6.7</ele>
        <time>2020-08-18T10:38:51Z</time>
      </trkpt>
      <trkpt lat="48.65498" lon="-4.43346">
        <ele>7.8</ele>
        <time>2020-08-18T10:39:00Z</time>
      </trkpt>
      <trkpt lat="48.65495" lon="-4.4334">
        <ele>7.6</ele>
        <time>2020-08-18T10:39:02Z</time>
      </trkpt>
      <trkpt lat="48.65485" lon="-4.43329">
        <ele>7.5</ele>
        <time>2020-08-18T10:39:07Z</time>
      </trkpt>
      <trkpt lat="48.6548" lon="-4.43335">
        <ele>8.1</ele>
        <time>2020-08-18T10:39:10Z</time>
      </trkpt>
      <trkpt lat="48.6546" lon="-4.43356">
        <ele>8.9</ele>
        <time>2020-08-18T10:39:20Z</time>
      </trkpt>
      <trkpt lat="48.65442" lon="-4.43369">
        <ele>9.2</ele>
        <time>2020-08-18T10:39:29Z</time>
      </trkpt>
      <trkpt lat="48.65421" lon="-4.43363">
        <ele>9.5</ele>
        <time>2020-08-18T10:39:37Z</time>
      </trkpt>
      <trkpt lat="48.65393" lon="-4.43353">
        <ele>10.2</ele>
        <time>2020-08-18T10:39:48Z</time>
      </trkpt>
      <trkpt lat="48.65376" lon="-4.43348">
        <ele>10.2</ele>
        <time>2020-08-18T10:39:55Z</time>
      </trkpt>
      <trkpt lat="48.6536" lon="-4.43351">
        <ele>10.2</ele>
        <time>2020-08-18T10:40:01Z</time>
      </trkpt>
      <trkpt lat="48.65337" lon="-4.43368">
        <ele>10.2</ele>
        <time>2020-08-18T10:40:10Z</time>
      </trkpt>
      <trkpt lat="48.65319" lon="-4.43384">
        <ele>8.9</ele>
        <time>2020-08-18T10:40:18Z</time>
      </trkpt>
      <trkpt lat="48.65302" lon="-4.43402">
        <ele>8.7</ele>
        <time>2020-08-18T10:40:26Z</time>
      </trkpt>
      <trkpt lat="48.65284" lon="-4.43423">
        <ele>7.1</ele>
        <time>2020-08-18T10:40:33Z</time>
      </trkpt>
      <trkpt lat="48.65272" lon="-4.43437">
        <ele>6.7</ele>
        <time>2020-08-18T10:40:38Z</time>
      </trkpt>
      <trkpt lat="48.65256" lon="-4.43428">
        <ele>6.3</ele>
        <time>2020-08-18T10:40:43Z</time>
      </trkpt>
      <trkpt lat="48.65241" lon="-4.43406">
        <ele>6.3</ele>
        <time>2020-08-18T10:40:52Z</time>
      </trkpt>
      <trkpt lat="48.65226" lon="-4.43386">
        <ele>6.6</ele>
        <time>2020-08-18T10:40:59Z</time>
      </trkpt>
      <trkpt lat="48.65221" lon="-4.43379">
        <ele>6.7</ele>
        <time>2020-08-18T10:41:05Z</time>
      </trkpt>
      <trkpt lat="48.65212" lon="-4.43368">
        <ele>6.7</ele>
        <time>2020-08-18T10:41:20Z</time>
      </trkpt>
      <trkpt lat="48.65201" lon="-4.43352">
        <ele>6.7</ele>
        <time>2020-08-18T10:41:26Z</time>
      </trkpt>
      <trkpt lat="48.65187" lon="-4.43332">
        <ele>7</ele>
        <time>2020-08-18T10:41:33Z</time>
      </trkpt>
      <trkpt lat="48.65169" lon="-4.43314">
        <ele>7</ele>
        <time>2020-08-18T10:41:41Z</time>
      </trkpt>
      <trkpt lat="48.65146" lon="-4.43304">
        <ele>6.6</ele>
        <time>2020-08-18T10:41:50Z</time>
      </trkpt>
      <trkpt lat="48.65116" lon="-4.43295">
        <ele>6.7</ele>
        <time>2020-08-18T10:42:01Z</time>
      </trkpt>
      <trkpt lat="48.65094" lon="-4.43285">
        <ele>6.8</ele>
        <time>2020-08-18T10:42:09Z</time>
      </trkpt>
      <trkpt lat="48.65083" lon="-4.43258">
        <ele>7.4</ele>
        <time>2020-08-18T10:42:17Z</time>
      </trkpt>
      <trkpt lat="48.65082" lon="-4.43255">
        <ele>7.6</ele>
        <time>2020-08-18T10:42:18Z</time>
      </trkpt>
      <trkpt lat="48.6507" lon="-4.43254">
        <ele>7.1</ele>
        <time>2020-08-18T10:42:23Z</time>
      </trkpt>
      <trkpt lat="48.65086" lon="-4.43274">
        <ele>7.1</ele>
        <time>2020-08-18T10:42:31Z</time>
      </trkpt>
      <trkpt lat="48.65086" lon="-4.43275">
        <ele>7.1</ele>
        <time>2020-08-18T10:42:36Z</time>
      </trkpt>
      <trkpt lat="48.65063" lon="-4.43256">
        <ele>6.8</ele>
        <time>2020-08-18T11:21:01Z</time>
      </trkpt>
      <trkpt lat="48.65063" lon="-4.43256">
        <ele>6.8</ele>
        <time>2020-08-18T11:21:02Z</time>
      </trkpt>
      <trkpt lat="48.65055" lon="-4.43258">
        <ele>6.6</ele>
        <time>2020-08-18T11:21:15Z</time>
      </trkpt>
      <trkpt lat="48.65041" lon="-4.43263">
        <ele>6.3</ele>
        <time>2020-08-18T11:21:22Z</time>
      </trkpt>
      <trkpt lat="48.65032" lon="-4.43266">
        <ele>6.2</ele>
        <time>2020-08-18T11:21:29Z</time>
      </trkpt>
      <trkpt lat="48.65026" lon="-4.43267">
        <ele>6.2</ele>
        <time>2020-08-18T11:21:33Z</time>
      </trkpt>
      <trkpt lat="48.6501" lon="-4.43264">
        <ele>6.3</ele>
        <time>2020-08-18T11:21:40Z</time>
      </trkpt>
      <trkpt lat="48.64994" lon="-4.43246">
        <ele>7.4</ele>
        <time>2020-08-18T11:21:45Z</time>
      </trkpt>
      <trkpt lat="48.64983" lon="-4.43218">
        <ele>8.2</ele>
        <time>2020-08-18T11:21:51Z</time>
      </trkpt>
      <trkpt lat="48.64969" lon="-4.4317">
        <ele>8.8</ele>
        <time>2020-08-18T11:22:02Z</time>
      </trkpt>
      <trkpt lat="48.6496" lon="-4.43137">
        <ele>9.5</ele>
        <time>2020-08-18T11:22:09Z</time>
      </trkpt>
      <trkpt lat="48.64954" lon="-4.43112">
        <ele>9.5</ele>
        <time>2020-08-18T11:22:16Z</time>
      </trkpt>
      <trkpt lat="48.64951" lon="-4.43091">
        <ele>9.6</ele>
        <time>2020-08-18T11:22:22Z</time>
      </trkpt>
      <trkpt lat="48.64946" lon="-4.43068">
        <ele>9.1</ele>
        <time>2020-08-18T11:22:29Z</time>
      </trkpt>
      <trkpt lat="48.6493" lon="-4.43052">
        <ele>9.1</ele>
        <time>2020-08-18T11:22:36Z</time>
      </trkpt>
      <trkpt lat="48.64907" lon="-4.43046">
        <ele>10</ele>
        <time>2020-08-18T11:22:44Z</time>
      </trkpt>
      <trkpt lat="48.64893" lon="-4.43041">
        <ele>10.1</ele>
        <time>2020-08-18T11:22:50Z</time>
      </trkpt>
      <trkpt lat="48.64882" lon="-4.43033">
        <ele>10.2</ele>
        <time>2020-08-18T11:22:57Z</time>
      </trkpt>
      <trkpt lat="48.64871" lon="-4.43021">
        <ele>10.2</ele>
        <time>2020-08-18T11:23:03Z</time>
      </trkpt>
      <trkpt lat="48.64866" lon="-4.43008">
        <ele>10.3</ele>
        <time>2020-08-18T11:23:07Z</time>
      </trkpt>
      <trkpt lat="48.64862" lon="-4.42994">
        <ele>10.5</ele>
        <time>2020-08-18T11:23:13Z</time>
      </trkpt>
      <trkpt lat="48.64852" lon="-4.42964">
        <ele>10.7</ele>
        <time>2020-08-18T11:23:21Z</time>
      </trkpt>
      <trkpt lat="48.64841" lon="-4.42948">
        <ele>11</ele>
        <time>2020-08-18T11:23:28Z</time>
      </trkpt>
      <trkpt lat="48.6483" lon="-4.42949">
        <ele>10.5</ele>
        <time>2020-08-18T11:23:35Z</time>
      </trkpt>
      <trkpt lat="48.64815" lon="-4.42952">
        <ele>10.3</ele>
        <time>2020-08-18T11:23:43Z</time>
      </trkpt>
      <trkpt lat="48.64808" lon="-4.42952">
        <ele>10.1</ele>
        <time>2020-08-18T11:23:45Z</time>
      </trkpt>
      <trkpt lat="48.64792" lon="-4.42916">
        <ele>10.7</ele>
        <time>2020-08-18T11:23:51Z</time>
      </trkpt>
      <trkpt lat="48.64781" lon="-4.42882">
        <ele>10.6</ele>
        <time>2020-08-18T11:23:55Z</time>
      </trkpt>
      <trkpt lat="48.64768" lon="-4.42847">
        <ele>10.4</ele>
        <time>2020-08-18T11:23:59Z</time>
      </trkpt>
      <trkpt lat="48.6475" lon="-4.42793">
        <ele>10.8</ele>
        <time>2020-08-18T11:24:06Z</time>
      </trkpt>
      <trkpt lat="48.6474" lon="-4.42751">
        <ele>10</ele>
        <time>2020-08-18T11:24:13Z</time>
      </trkpt>
      <trkpt lat="48.64731" lon="-4.42712">
        <ele>9.9</ele>
        <time>2020-08-18T11:24:21Z</time>
      </trkpt>
      <trkpt lat="48.64719" lon="-4.42662">
        <ele>9.6</ele>
        <time>2020-08-18T11:24:31Z</time>
      </trkpt>
      <trkpt lat="48.64712" lon="-4.42623">
        <ele>9</ele>
        <time>2020-08-18T11:24:37Z</time>
      </trkpt>
      <trkpt lat="48.64703" lon="-4.42583">
        <ele>7.7</ele>
        <time>2020-08-18T11:24:42Z</time>
      </trkpt>
      <trkpt lat="48.647" lon="-4.42576">
        <ele>7.7</ele>
        <time>2020-08-18T11:24:43Z</time>
      </trkpt>
      <trkpt lat="48.64694" lon="-4.42541">
        <ele>7.5</ele>
        <time>2020-08-18T11:24:47Z</time>
      </trkpt>
      <trkpt lat="48.64687" lon="-4.4246">
        <ele>7.7</ele>
        <time>2020-08-18T11:24:56Z</time>
      </trkpt>
      <trkpt lat="48.6467" lon="-4.42412">
        <ele>8.2</ele>
        <time>2020-08-18T11:25:04Z</time>
      </trkpt>
      <trkpt lat="48.64668" lon="-4.42407">
        <ele>8.3</ele>
        <time>2020-08-18T11:25:05Z</time>
      </trkpt>
      <trkpt lat="48.64651" lon="-4.42375">
        <ele>7.5</ele>
        <time>2020-08-18T11:25:12Z</time>
      </trkpt>
      <trkpt lat="48.64644" lon="-4.42367">
        <ele>7.4</ele>
        <time>2020-08-18T11:25:21Z</time>
      </trkpt>
      <trkpt lat="48.64611" lon="-4.42311">
        <ele>7</ele>
        <time>2020-08-18T11:25:28Z</time>
      </trkpt>
      <trkpt lat="48.64605" lon="-4.42281">
        <ele>7.4</ele>
        <time>2020-08-18T11:25:35Z</time>
      </trkpt>
      <trkpt lat="48.64598" lon="-4.42249">
        <ele>7.9</ele>
        <time>2020-08-18T11:25:42Z</time>
      </trkpt>
      <trkpt lat="48.64589" lon="-4.42202">
        <ele>8.3</ele>
        <time>2020-08-18T11:25:48Z</time>
      </trkpt>
      <trkpt lat="48.64581" lon="-4.42155">
        <ele>6.8</ele>
        <time>2020-08-18T11:25:55Z</time>
      </trkpt>
      <trkpt lat="48.64573" lon="-4.42111">
        <ele>6.7</ele>
        <time>2020-08-18T11:26:03Z</time>
      </trkpt>
      <trkpt lat="48.64556" lon="-4.42067">
        <ele>6.2</ele>
        <time>2020-08-18T11:26:12Z</time>
      </trkpt>
      <trkpt lat="48.64531" lon="-4.42017">
        <ele>5.8</ele>
        <time>2020-08-18T11:26:20Z</time>
      </trkpt>
      <trkpt lat="48.64525" lon="-4.42005">
        <ele>5.8</ele>
        <time>2020-08-18T11:26:22Z</time>
      </trkpt>
      <trkpt lat="48.6451" lon="-4.41987">
        <ele>6.1</ele>
        <time>2020-08-18T11:26:29Z</time>
      </trkpt>
      <trkpt lat="48.64479" lon="-4.41956">
        <ele>6.3</ele>
        <time>2020-08-18T11:26:36Z</time>
      </trkpt>
      <trkpt lat="48.64458" lon="-4.41926">
        <ele>6.8</ele>
        <time>2020-08-18T11:26:45Z</time>
      </trkpt>
      <trkpt lat="48.64437" lon="-4.41892">
        <ele>7.8</ele>
        <time>2020-08-18T11:26:55Z</time>
      </trkpt>
      <trkpt lat="48.64418" lon="-4.41863">
        <ele>7.5</ele>
        <time>2020-08-18T11:27:04Z</time>
      </trkpt>
      <trkpt lat="48.64399" lon="-4.41829">
        <ele>8</ele>
        <time>2020-08-18T11:27:14Z</time>
      </trkpt>
      <trkpt lat="48.6438" lon="-4.41797">
        <ele>8.9</ele>
        <time>2020-08-18T11:27:24Z</time>
      </trkpt>
      <trkpt lat="48.64365" lon="-4.4177">
        <ele>9.4</ele>
        <time>2020-08-18T11:27:33Z</time>
      </trkpt>
      <trkpt lat="48.64354" lon="-4.41746">
        <ele>10.8</ele>
        <time>2020-08-18T11:27:40Z</time>
      </trkpt>
      <trkpt lat="48.64342" lon="-4.41717">
        <ele>10.9</ele>
        <time>2020-08-18T11:27:48Z</time>
      </trkpt>
      <trkpt lat="48.6433" lon="-4.41677">
        <ele>11.3</ele>
        <time>2020-08-18T11:27:59Z</time>
      </trkpt>
      <trkpt lat="48.64322" lon="-4.41644">
        <ele>11.4</ele>
        <time>2020-08-18T11:28:07Z</time>
      </trkpt>
      <trkpt lat="48.6431" lon="-4.41598">
        <ele>11.4</ele>
        <time>2020-08-18T11:28:17Z</time>
      </trkpt>
      <trkpt lat="48.64301" lon="-4.41559">
        <ele>12</ele>
        <time>2020-08-18T11:28:29Z</time>
      </trkpt>
      <trkpt lat="48.64282" lon="-4.41476">
        <ele>12.3</ele>
        <time>2020-08-18T11:28:40Z</time>
      </trkpt>
      <trkpt lat="48.64269" lon="-4.41422">
        <ele>11.9</ele>
        <time>2020-08-18T11:28:49Z</time>
      </trkpt>
      <trkpt lat="48.64257" lon="-4.41374">
        <ele>11.5</ele>
        <time>2020-08-18T11:28:56Z</time>
      </trkpt>
      <trkpt lat="48.64239" lon="-4.413">
        <ele>8.7</ele>
        <time>2020-08-18T11:29:07Z</time>
      </trkpt>
      <trkpt lat="48.64217" lon="-4.41213">
        <ele>7.2</ele>
        <time>2020-08-18T11:29:18Z</time>
      </trkpt>
      <trkpt lat="48.64213" lon="-4.41198">
        <ele>7</ele>
        <time>2020-08-18T11:29:20Z</time>
      </trkpt>
      <trkpt lat="48.64195" lon="-4.41128">
        <ele>6.1</ele>
        <time>2020-08-18T11:29:30Z</time>
      </trkpt>
      <trkpt lat="48.6418" lon="-4.41063">
        <ele>5.3</ele>
        <time>2020-08-18T11:29:39Z</time>
      </trkpt>
      <trkpt lat="48.64165" lon="-4.41">
        <ele>3</ele>
        <time>2020-08-18T11:29:47Z</time>
      </trkpt>
      <trkpt lat="48.64163" lon="-4.40968">
        <ele>3.4</ele>
        <time>2020-08-18T11:29:51Z</time>
      </trkpt>
      <trkpt lat="48.64172" lon="-4.40918">
        <ele>4.3</ele>
        <time>2020-08-18T11:29:58Z</time>
      </trkpt>
      <trkpt lat="48.64187" lon="-4.40863">
        <ele>5.1</ele>
        <time>2020-08-18T11:30:08Z</time>
      </trkpt>
      <trkpt lat="48.64211" lon="-4.40779">
        <ele>5.3</ele>
        <time>2020-08-18T11:30:21Z</time>
      </trkpt>
      <trkpt lat="48.64232" lon="-4.40707">
        <ele>5.1</ele>
        <time>2020-08-18T11:30:33Z</time>
      </trkpt>
      <trkpt lat="48.64255" lon="-4.40629">
        <ele>6</ele>
        <time>2020-08-18T11:30:46Z</time>
      </trkpt>
      <trkpt lat="48.64272" lon="-4.40569">
        <ele>5.6</ele>
        <time>2020-08-18T11:30:56Z</time>
      </trkpt>
      <trkpt lat="48.64285" lon="-4.40525">
        <ele>5.3</ele>
        <time>2020-08-18T11:31:08Z</time>
      </trkpt>
      <trkpt lat="48.64307" lon="-4.40448">
        <ele>5.4</ele>
        <time>2020-08-18T11:31:19Z</time>
      </trkpt>
      <trkpt lat="48.64318" lon="-4.40411">
        <ele>5.4</ele>
        <time>2020-08-18T11:31:27Z</time>
      </trkpt>
      <trkpt lat="48.64327" lon="-4.40378">
        <ele>5</ele>
        <time>2020-08-18T11:31:34Z</time>
      </trkpt>
      <trkpt lat="48.64341" lon="-4.40329">
        <ele>4.8</ele>
        <time>2020-08-18T11:31:43Z</time>
      </trkpt>
      <trkpt lat="48.6435" lon="-4.40295">
        <ele>4.5</ele>
        <time>2020-08-18T11:31:51Z</time>
      </trkpt>
      <trkpt lat="48.6435" lon="-4.40295">
        <ele>4.5</ele>
        <time>2020-08-18T11:31:58Z</time>
      </trkpt>
      <trkpt lat="48.6435" lon="-4.40295">
        <ele>4.5</ele>
        <time>2020-08-18T11:32:05Z</time>
      </trkpt>
      <trkpt lat="48.64391" lon="-4.40193">
        <ele>4.6</ele>
        <time>2020-08-18T11:32:12Z</time>
      </trkpt>
      <trkpt lat="48.64404" lon="-4.40166">
        <ele>4.8</ele>
        <time>2020-08-18T11:32:21Z</time>
      </trkpt>
      <trkpt lat="48.64419" lon="-4.4014">
        <ele>5.4</ele>
        <time>2020-08-18T11:32:28Z</time>
      </trkpt>
      <trkpt lat="48.64435" lon="-4.40118">
        <ele>5.5</ele>
        <time>2020-08-18T11:32:34Z</time>
      </trkpt>
      <trkpt lat="48.64461" lon="-4.40086">
        <ele>5.7</ele>
        <time>2020-08-18T11:32:42Z</time>
      </trkpt>
      <trkpt lat="48.64466" lon="-4.40081">
        <ele>5.1</ele>
        <time>2020-08-18T11:32:44Z</time>
      </trkpt>
      <trkpt lat="48.64466" lon="-4.40081">
        <ele>5.1</ele>
        <time>2020-08-18T11:32:54Z</time>
      </trkpt>
      <trkpt lat="48.64534" lon="-4.40021">
        <ele>5.1</ele>
        <time>2020-08-18T11:33:02Z</time>
      </trkpt>
      <trkpt lat="48.64561" lon="-4.40001">
        <ele>5.5</ele>
        <time>2020-08-18T11:33:10Z</time>
      </trkpt>
      <trkpt lat="48.64585" lon="-4.39983">
        <ele>6.4</ele>
        <time>2020-08-18T11:33:18Z</time>
      </trkpt>
      <trkpt lat="48.64614" lon="-4.39962">
        <ele>6.7</ele>
        <time>2020-08-18T11:33:26Z</time>
      </trkpt>
      <trkpt lat="48.64621" lon="-4.39929">
        <ele>6.8</ele>
        <time>2020-08-18T11:33:33Z</time>
      </trkpt>
      <trkpt lat="48.64631" lon="-4.39896">
        <ele>7</ele>
        <time>2020-08-18T11:33:39Z</time>
      </trkpt>
      <trkpt lat="48.64622" lon="-4.39875">
        <ele>7</ele>
        <time>2020-08-18T11:33:44Z</time>
      </trkpt>
      <trkpt lat="48.64606" lon="-4.39842">
        <ele>7</ele>
        <time>2020-08-18T11:33:51Z</time>
      </trkpt>
      <trkpt lat="48.64582" lon="-4.39805">
        <ele>6.8</ele>
        <time>2020-08-18T11:34:00Z</time>
      </trkpt>
      <trkpt lat="48.64557" lon="-4.39762">
        <ele>6.9</ele>
        <time>2020-08-18T11:34:09Z</time>
      </trkpt>
      <trkpt lat="48.64539" lon="-4.39729">
        <ele>7.2</ele>
        <time>2020-08-18T11:34:16Z</time>
      </trkpt>
      <trkpt lat="48.6452" lon="-4.39693">
        <ele>7.1</ele>
        <time>2020-08-18T11:34:24Z</time>
      </trkpt>
      <trkpt lat="48.645" lon="-4.39655">
        <ele>7.3</ele>
        <time>2020-08-18T11:34:34Z</time>
      </trkpt>
      <trkpt lat="48.6448" lon="-4.39619">
        <ele>7</ele>
        <time>2020-08-18T11:34:43Z</time>
      </trkpt>
      <trkpt lat="48.64463" lon="-4.39589">
        <ele>7.1</ele>
        <time>2020-08-18T11:34:51Z</time>
      </trkpt>
      <trkpt lat="48.6445" lon="-4.39589">
        <ele>6.9</ele>
        <time>2020-08-18T11:34:55Z</time>
      </trkpt>
      <trkpt lat="48.6444" lon="-4.39594">
        <ele>6.9</ele>
        <time>2020-08-18T11:34:58Z</time>
      </trkpt>
      <trkpt lat="48.64428" lon="-4.39596">
        <ele>6.9</ele>
        <time>2020-08-18T11:35:01Z</time>
      </trkpt>
      <trkpt lat="48.64411" lon="-4.39593">
        <ele>6.5</ele>
        <time>2020-08-18T11:35:05Z</time>
      </trkpt>
      <trkpt lat="48.64404" lon="-4.39588">
        <ele>6.4</ele>
        <time>2020-08-18T11:35:07Z</time>
      </trkpt>
      <trkpt lat="48.64368" lon="-4.39543">
        <ele>6.7</ele>
        <time>2020-08-18T11:35:18Z</time>
      </trkpt>
      <trkpt lat="48.64338" lon="-4.39498">
        <ele>6.1</ele>
        <time>2020-08-18T11:35:28Z</time>
      </trkpt>
      <trkpt lat="48.64335" lon="-4.39494">
        <ele>6.1</ele>
        <time>2020-08-18T11:35:29Z</time>
      </trkpt>
      <trkpt lat="48.64324" lon="-4.39484">
        <ele>6.4</ele>
        <time>2020-08-18T11:35:32Z</time>
      </trkpt>
      <trkpt lat="48.64296" lon="-4.39471">
        <ele>6.7</ele>
        <time>2020-08-18T11:35:39Z</time>
      </trkpt>
      <trkpt lat="48.6427" lon="-4.39475">
        <ele>6.9</ele>
        <time>2020-08-18T11:35:46Z</time>
      </trkpt>
      <trkpt lat="48.64247" lon="-4.39484">
        <ele>7.4</ele>
        <time>2020-08-18T11:35:53Z</time>
      </trkpt>
      <trkpt lat="48.64217" lon="-4.39495">
        <ele>7.6</ele>
        <time>2020-08-18T11:36:02Z</time>
      </trkpt>
      <trkpt lat="48.64184" lon="-4.39508">
        <ele>7.5</ele>
        <time>2020-08-18T11:36:12Z</time>
      </trkpt>
      <trkpt lat="48.64158" lon="-4.39518">
        <ele>8</ele>
        <time>2020-08-18T11:36:20Z</time>
      </trkpt>
      <trkpt lat="48.6413" lon="-4.3953">
        <ele>8</ele>
        <time>2020-08-18T11:36:29Z</time>
      </trkpt>
      <trkpt lat="48.64099" lon="-4.39542">
        <ele>8</ele>
        <time>2020-08-18T11:36:38Z</time>
      </trkpt>
      <trkpt lat="48.64067" lon="-4.39554">
        <ele>7.8</ele>
        <time>2020-08-18T11:36:47Z</time>
      </trkpt>
      <trkpt lat="48.64035" lon="-4.39566">
        <ele>7.6</ele>
        <time>2020-08-18T11:36:56Z</time>
      </trkpt>
      <trkpt lat="48.63999" lon="-4.3958">
        <ele>7.1</ele>
        <time>2020-08-18T11:37:06Z</time>
      </trkpt>
      <trkpt lat="48.63963" lon="-4.39594">
        <ele>7</ele>
        <time>2020-08-18T11:37:16Z</time>
      </trkpt>
      <trkpt lat="48.63919" lon="-4.39612">
        <ele>7</ele>
        <time>2020-08-18T11:37:27Z</time>
      </trkpt>
      <trkpt lat="48.63911" lon="-4.39615">
        <ele>6.7</ele>
        <time>2020-08-18T11:37:29Z</time>
      </trkpt>
      <trkpt lat="48.63881" lon="-4.39627">
        <ele>6.5</ele>
        <time>2020-08-18T11:37:37Z</time>
      </trkpt>
      <trkpt lat="48.63847" lon="-4.3964">
        <ele>6.3</ele>
        <time>2020-08-18T11:37:47Z</time>
      </trkpt>
      <trkpt lat="48.63806" lon="-4.39655">
        <ele>5.8</ele>
        <time>2020-08-18T11:37:58Z</time>
      </trkpt>
      <trkpt lat="48.63772" lon="-4.39665">
        <ele>5.5</ele>
        <time>2020-08-18T11:38:07Z</time>
      </trkpt>
      <trkpt lat="48.63747" lon="-4.39674">
        <ele>4.7</ele>
        <time>2020-08-18T11:38:13Z</time>
      </trkpt>
      <trkpt lat="48.63709" lon="-4.39697">
        <ele>4.1</ele>
        <time>2020-08-18T11:38:22Z</time>
      </trkpt>
      <trkpt lat="48.63672" lon="-4.3971">
        <ele>4</ele>
        <time>2020-08-18T11:38:30Z</time>
      </trkpt>
      <trkpt lat="48.63637" lon="-4.39725">
        <ele>4.9</ele>
        <time>2020-08-18T11:38:38Z</time>
      </trkpt>
      <trkpt lat="48.63634" lon="-4.39727">
        <ele>4.9</ele>
        <time>2020-08-18T11:38:45Z</time>
      </trkpt>
      <trkpt lat="48.63634" lon="-4.39727">
        <ele>4.9</ele>
        <time>2020-08-18T11:38:53Z</time>
      </trkpt>
      <trkpt lat="48.63619" lon="-4.39847">
        <ele>4.7</ele>
        <time>2020-08-18T11:39:02Z</time>
      </trkpt>
      <trkpt lat="48.63619" lon="-4.39847">
        <ele>4.7</ele>
        <time>2020-08-18T11:39:10Z</time>
      </trkpt>
      <trkpt lat="48.63526" lon="-4.39839">
        <ele>8.9</ele>
        <time>2020-08-18T11:39:22Z</time>
      </trkpt>
      <trkpt lat="48.63517" lon="-4.3986">
        <ele>9</ele>
        <time>2020-08-18T11:39:29Z</time>
      </trkpt>
      <trkpt lat="48.63509" lon="-4.39892">
        <ele>9.5</ele>
        <time>2020-08-18T11:39:38Z</time>
      </trkpt>
      <trkpt lat="48.63506" lon="-4.39921">
        <ele>10.5</ele>
        <time>2020-08-18T11:39:45Z</time>
      </trkpt>
      <trkpt lat="48.63508" lon="-4.39969">
        <ele>9.9</ele>
        <time>2020-08-18T11:39:53Z</time>
      </trkpt>
      <trkpt lat="48.63511" lon="-4.40001">
        <ele>10.5</ele>
        <time>2020-08-18T11:40:02Z</time>
      </trkpt>
      <trkpt lat="48.63515" lon="-4.40033">
        <ele>10</ele>
        <time>2020-08-18T11:40:09Z</time>
      </trkpt>
      <trkpt lat="48.6352" lon="-4.40078">
        <ele>10.1</ele>
        <time>2020-08-18T11:40:18Z</time>
      </trkpt>
      <trkpt lat="48.63524" lon="-4.40122">
        <ele>10.1</ele>
        <time>2020-08-18T11:40:26Z</time>
      </trkpt>
      <trkpt lat="48.63527" lon="-4.40173">
        <ele>11</ele>
        <time>2020-08-18T11:40:36Z</time>
      </trkpt>
      <trkpt lat="48.63528" lon="-4.40223">
        <ele>11.3</ele>
        <time>2020-08-18T11:40:46Z</time>
      </trkpt>
      <trkpt lat="48.63525" lon="-4.40272">
        <ele>11.9</ele>
        <time>2020-08-18T11:40:55Z</time>
      </trkpt>
      <trkpt lat="48.63518" lon="-4.40313">
        <ele>12.2</ele>
        <time>2020-08-18T11:41:03Z</time>
      </trkpt>
      <trkpt lat="48.63514" lon="-4.40332">
        <ele>12.8</ele>
        <time>2020-08-18T11:41:08Z</time>
      </trkpt>
      <trkpt lat="48.63507" lon="-4.40361">
        <ele>11.8</ele>
        <time>2020-08-18T11:41:16Z</time>
      </trkpt>
      <trkpt lat="48.63501" lon="-4.40385">
        <ele>11.6</ele>
        <time>2020-08-18T11:41:23Z</time>
      </trkpt>
      <trkpt lat="48.63494" lon="-4.40418">
        <ele>12.8</ele>
        <time>2020-08-18T11:41:32Z</time>
      </trkpt>
      <trkpt lat="48.6349" lon="-4.40448">
        <ele>12.3</ele>
        <time>2020-08-18T11:41:38Z</time>
      </trkpt>
      <trkpt lat="48.63485" lon="-4.4048">
        <ele>11.8</ele>
        <time>2020-08-18T11:41:45Z</time>
      </trkpt>
      <trkpt lat="48.63481" lon="-4.40513">
        <ele>11</ele>
        <time>2020-08-18T11:41:52Z</time>
      </trkpt>
      <trkpt lat="48.63474" lon="-4.40544">
        <ele>10.9</ele>
        <time>2020-08-18T11:41:58Z</time>
      </trkpt>
      <trkpt lat="48.6347" lon="-4.40566">
        <ele>10.8</ele>
        <time>2020-08-18T11:42:02Z</time>
      </trkpt>
      <trkpt lat="48.63465" lon="-4.40598">
        <ele>10.8</ele>
        <time>2020-08-18T11:42:09Z</time>
      </trkpt>
      <trkpt lat="48.63463" lon="-4.40626">
        <ele>11</ele>
        <time>2020-08-18T11:42:16Z</time>
      </trkpt>
      <trkpt lat="48.6346" lon="-4.40652">
        <ele>11.1</ele>
        <time>2020-08-18T11:42:23Z</time>
      </trkpt>
      <trkpt lat="48.63458" lon="-4.40693">
        <ele>12.5</ele>
        <time>2020-08-18T11:42:34Z</time>
      </trkpt>
      <trkpt lat="48.63456" lon="-4.40695">
        <ele>12.6</ele>
        <time>2020-08-18T11:42:42Z</time>
      </trkpt>
      <trkpt lat="48.63456" lon="-4.40695">
        <ele>12.6</ele>
        <time>2020-08-18T11:42:53Z</time>
      </trkpt>
      <trkpt lat="48.63456" lon="-4.40695">
        <ele>12.6</ele>
        <time>2020-08-18T11:43:03Z</time>
      </trkpt>
      <trkpt lat="48.63434" lon="-4.40817">
        <ele>16.6</ele>
        <time>2020-08-18T11:43:11Z</time>
      </trkpt>
      <trkpt lat="48.63433" lon="-4.4082">
        <ele>16.7</ele>
        <time>2020-08-18T11:43:12Z</time>
      </trkpt>
      <trkpt lat="48.63427" lon="-4.40848">
        <ele>17.9</ele>
        <time>2020-08-18T11:43:21Z</time>
      </trkpt>
      <trkpt lat="48.63423" lon="-4.40865">
        <ele>18</ele>
        <time>2020-08-18T11:43:27Z</time>
      </trkpt>
      <trkpt lat="48.6342" lon="-4.4088">
        <ele>18.1</ele>
        <time>2020-08-18T11:43:33Z</time>
      </trkpt>
      <trkpt lat="48.63418" lon="-4.40892">
        <ele>18.2</ele>
        <time>2020-08-18T11:43:39Z</time>
      </trkpt>
      <trkpt lat="48.63413" lon="-4.40912">
        <ele>18.6</ele>
        <time>2020-08-18T11:43:48Z</time>
      </trkpt>
      <trkpt lat="48.63412" lon="-4.40917">
        <ele>18.6</ele>
        <time>2020-08-18T11:43:53Z</time>
      </trkpt>
      <trkpt lat="48.63412" lon="-4.40917">
        <ele>18.6</ele>
        <time>2020-08-18T11:44:25Z</time>
      </trkpt>
      <trkpt lat="48.63412" lon="-4.40917">
        <ele>18.6</ele>
        <time>2020-08-18T11:44:26Z</time>
      </trkpt>
      <trkpt lat="48.63412" lon="-4.40905">
        <ele>18.3</ele>
        <time>2020-08-18T11:44:35Z</time>
      </trkpt>
      <trkpt lat="48.63416" lon="-4.40905">
        <ele>18.4</ele>
        <time>2020-08-18T11:44:40Z</time>
      </trkpt>
      <trkpt lat="48.63413" lon="-4.40913">
        <ele>18.7</ele>
        <time>2020-08-18T11:44:47Z</time>
      </trkpt>
      <trkpt lat="48.63413" lon="-4.40913">
        <ele>18.7</ele>
        <time>2020-08-18T11:56:54Z</time>
      </trkpt>
      <trkpt lat="48.63413" lon="-4.40913">
        <ele>18.7</ele>
        <time>2020-08-18T11:56:58Z</time>
      </trkpt>
      <trkpt lat="48.63416" lon="-4.409">
        <ele>18.2</ele>
        <time>2020-08-18T11:57:08Z</time>
      </trkpt>
      <trkpt lat="48.63417" lon="-4.40893">
        <ele>18.3</ele>
        <time>2020-08-18T11:57:15Z</time>
      </trkpt>
      <trkpt lat="48.63403" lon="-4.40908">
        <ele>18.1</ele>
        <time>2020-08-18T11:57:19Z</time>
      </trkpt>
      <trkpt lat="48.63404" lon="-4.40892">
        <ele>17.8</ele>
        <time>2020-08-18T11:57:31Z</time>
      </trkpt>
      <trkpt lat="48.63404" lon="-4.40895">
        <ele>17.9</ele>
        <time>2020-08-18T11:57:32Z</time>
      </trkpt>
      <trkpt lat="48.63403" lon="-4.40901">
        <ele>18</ele>
        <time>2020-08-18T11:57:36Z</time>
      </trkpt>
      <trkpt lat="48.63403" lon="-4.40909">
        <ele>18.2</ele>
        <time>2020-08-18T11:57:44Z</time>
      </trkpt>
      <trkpt lat="48.63403" lon="-4.40926">
        <ele>18</ele>
        <time>2020-08-18T11:57:52Z</time>
      </trkpt>
      <trkpt lat="48.63402" lon="-4.40936">
        <ele>17.7</ele>
        <time>2020-08-18T11:57:55Z</time>
      </trkpt>
      <trkpt lat="48.63402" lon="-4.40954">
        <ele>17.4</ele>
        <time>2020-08-18T11:58:02Z</time>
      </trkpt>
      <trkpt lat="48.63402" lon="-4.40978">
        <ele>17.1</ele>
        <time>2020-08-18T11:58:09Z</time>
      </trkpt>
      <trkpt lat="48.63402" lon="-4.41006">
        <ele>16.5</ele>
        <time>2020-08-18T11:58:15Z</time>
      </trkpt>
      <trkpt lat="48.63402" lon="-4.41029">
        <ele>16.3</ele>
        <time>2020-08-18T11:58:20Z</time>
      </trkpt>
      <trkpt lat="48.63402" lon="-4.41059">
        <ele>16</ele>
        <time>2020-08-18T11:58:27Z</time>
      </trkpt>
      <trkpt lat="48.63402" lon="-4.41076">
        <ele>16</ele>
        <time>2020-08-18T11:58:32Z</time>
      </trkpt>
      <trkpt lat="48.63402" lon="-4.41076">
        <ele>16</ele>
        <time>2020-08-18T11:58:33Z</time>
      </trkpt>
      <trkpt lat="48.63403" lon="-4.41085">
        <ele>15.6</ele>
        <time>2020-08-18T11:58:57Z</time>
      </trkpt>
      <trkpt lat="48.63402" lon="-4.41085">
        <ele>15.6</ele>
        <time>2020-08-18T11:59:03Z</time>
      </trkpt>
      <trkpt lat="48.63402" lon="-4.41085">
        <ele>15.6</ele>
        <time>2020-08-18T11:59:11Z</time>
      </trkpt>
      <trkpt lat="48.63402" lon="-4.41085">
        <ele>15.6</ele>
        <time>2020-08-18T11:59:18Z</time>
      </trkpt>
      <trkpt lat="48.63317" lon="-4.41115">
        <ele>13.7</ele>
        <time>2020-08-18T11:59:25Z</time>
      </trkpt>
      <trkpt lat="48.63288" lon="-4.41131">
        <ele>13.1</ele>
        <time>2020-08-18T11:59:33Z</time>
      </trkpt>
      <trkpt lat="48.63269" lon="-4.4114">
        <ele>12.7</ele>
        <time>2020-08-18T11:59:39Z</time>
      </trkpt>
      <trkpt lat="48.6325" lon="-4.41149">
        <ele>12.1</ele>
        <time>2020-08-18T11:59:46Z</time>
      </trkpt>
      <trkpt lat="48.63215" lon="-4.41163">
        <ele>11.3</ele>
        <time>2020-08-18T11:59:56Z</time>
      </trkpt>
      <trkpt lat="48.63178" lon="-4.41178">
        <ele>11</ele>
        <time>2020-08-18T12:00:06Z</time>
      </trkpt>
      <trkpt lat="48.63145" lon="-4.4119">
        <ele>10.8</ele>
        <time>2020-08-18T12:00:15Z</time>
      </trkpt>
      <trkpt lat="48.63107" lon="-4.41207">
        <ele>10.7</ele>
        <time>2020-08-18T12:00:25Z</time>
      </trkpt>
      <trkpt lat="48.63071" lon="-4.41239">
        <ele>9.8</ele>
        <time>2020-08-18T12:00:35Z</time>
      </trkpt>
      <trkpt lat="48.63037" lon="-4.41276">
        <ele>8.7</ele>
        <time>2020-08-18T12:00:45Z</time>
      </trkpt>
      <trkpt lat="48.63012" lon="-4.41306">
        <ele>8.5</ele>
        <time>2020-08-18T12:00:53Z</time>
      </trkpt>
      <trkpt lat="48.62979" lon="-4.41326">
        <ele>8</ele>
        <time>2020-08-18T12:01:01Z</time>
      </trkpt>
      <trkpt lat="48.62951" lon="-4.41345">
        <ele>7.3</ele>
        <time>2020-08-18T12:01:09Z</time>
      </trkpt>
      <trkpt lat="48.62921" lon="-4.41387">
        <ele>7.1</ele>
        <time>2020-08-18T12:01:16Z</time>
      </trkpt>
      <trkpt lat="48.62908" lon="-4.41418">
        <ele>7.3</ele>
        <time>2020-08-18T12:01:22Z</time>
      </trkpt>
      <trkpt lat="48.62892" lon="-4.41466">
        <ele>7.8</ele>
        <time>2020-08-18T12:01:32Z</time>
      </trkpt>
      <trkpt lat="48.62877" lon="-4.41517">
        <ele>8.3</ele>
        <time>2020-08-18T12:01:43Z</time>
      </trkpt>
      <trkpt lat="48.62863" lon="-4.41564">
        <ele>8.8</ele>
        <time>2020-08-18T12:01:53Z</time>
      </trkpt>
      <trkpt lat="48.62843" lon="-4.41616">
        <ele>9.7</ele>
        <time>2020-08-18T12:02:04Z</time>
      </trkpt>
      <trkpt lat="48.62826" lon="-4.41651">
        <ele>10.2</ele>
        <time>2020-08-18T12:02:12Z</time>
      </trkpt>
      <trkpt lat="48.62801" lon="-4.4169">
        <ele>10.6</ele>
        <time>2020-08-18T12:02:22Z</time>
      </trkpt>
      <trkpt lat="48.62778" lon="-4.41716">
        <ele>10.8</ele>
        <time>2020-08-18T12:02:30Z</time>
      </trkpt>
      <trkpt lat="48.62749" lon="-4.41741">
        <ele>10.9</ele>
        <time>2020-08-18T12:02:39Z</time>
      </trkpt>
      <trkpt lat="48.62739" lon="-4.41764">
        <ele>10.6</ele>
        <time>2020-08-18T12:02:44Z</time>
      </trkpt>
      <trkpt lat="48.62738" lon="-4.41789">
        <ele>10.3</ele>
        <time>2020-08-18T12:02:50Z</time>
      </trkpt>
      <trkpt lat="48.62738" lon="-4.41796">
        <ele>10.3</ele>
        <time>2020-08-18T12:02:53Z</time>
      </trkpt>
      <trkpt lat="48.62738" lon="-4.418">
        <ele>10.3</ele>
        <time>2020-08-18T12:03:05Z</time>
      </trkpt>
      <trkpt lat="48.62737" lon="-4.41816">
        <ele>10.2</ele>
        <time>2020-08-18T12:03:09Z</time>
      </trkpt>
      <trkpt lat="48.62736" lon="-4.4186">
        <ele>9.8</ele>
        <time>2020-08-18T12:03:17Z</time>
      </trkpt>
      <trkpt lat="48.62733" lon="-4.41914">
        <ele>9.4</ele>
        <time>2020-08-18T12:03:26Z</time>
      </trkpt>
      <trkpt lat="48.62725" lon="-4.41963">
        <ele>9.9</ele>
        <time>2020-08-18T12:03:34Z</time>
      </trkpt>
      <trkpt lat="48.62723" lon="-4.41976">
        <ele>10</ele>
        <time>2020-08-18T12:03:36Z</time>
      </trkpt>
      <trkpt lat="48.6272" lon="-4.42002">
        <ele>10.4</ele>
        <time>2020-08-18T12:03:40Z</time>
      </trkpt>
      <trkpt lat="48.62712" lon="-4.42057">
        <ele>10.5</ele>
        <time>2020-08-18T12:03:49Z</time>
      </trkpt>
      <trkpt lat="48.62703" lon="-4.42102">
        <ele>10.3</ele>
        <time>2020-08-18T12:03:57Z</time>
      </trkpt>
      <trkpt lat="48.62687" lon="-4.42158">
        <ele>10.2</ele>
        <time>2020-08-18T12:04:08Z</time>
      </trkpt>
      <trkpt lat="48.62669" lon="-4.42204">
        <ele>9.8</ele>
        <time>2020-08-18T12:04:18Z</time>
      </trkpt>
      <trkpt lat="48.62647" lon="-4.42243">
        <ele>10</ele>
        <time>2020-08-18T12:04:27Z</time>
      </trkpt>
      <trkpt lat="48.62633" lon="-4.42279">
        <ele>9.8</ele>
        <time>2020-08-18T12:04:34Z</time>
      </trkpt>
      <trkpt lat="48.6262" lon="-4.42344">
        <ele>9.4</ele>
        <time>2020-08-18T12:04:45Z</time>
      </trkpt>
      <trkpt lat="48.62608" lon="-4.42411">
        <ele>9.2</ele>
        <time>2020-08-18T12:04:56Z</time>
      </trkpt>
      <trkpt lat="48.62598" lon="-4.42464">
        <ele>8.6</ele>
        <time>2020-08-18T12:05:05Z</time>
      </trkpt>
      <trkpt lat="48.62589" lon="-4.42501">
        <ele>8.7</ele>
        <time>2020-08-18T12:05:12Z</time>
      </trkpt>
      <trkpt lat="48.62567" lon="-4.42569">
        <ele>9.3</ele>
        <time>2020-08-18T12:05:24Z</time>
      </trkpt>
      <trkpt lat="48.62542" lon="-4.42644">
        <ele>9.5</ele>
        <time>2020-08-18T12:05:37Z</time>
      </trkpt>
      <trkpt lat="48.62522" lon="-4.42704">
        <ele>9.1</ele>
        <time>2020-08-18T12:05:48Z</time>
      </trkpt>
      <trkpt lat="48.62503" lon="-4.42761">
        <ele>8.6</ele>
        <time>2020-08-18T12:05:59Z</time>
      </trkpt>
      <trkpt lat="48.62487" lon="-4.42811">
        <ele>10.1</ele>
        <time>2020-08-18T12:06:08Z</time>
      </trkpt>
      <trkpt lat="48.62479" lon="-4.42862">
        <ele>10.5</ele>
        <time>2020-08-18T12:06:17Z</time>
      </trkpt>
      <trkpt lat="48.62472" lon="-4.42908">
        <ele>10.5</ele>
        <time>2020-08-18T12:06:26Z</time>
      </trkpt>
      <trkpt lat="48.62464" lon="-4.42936">
        <ele>11.8</ele>
        <time>2020-08-18T12:06:33Z</time>
      </trkpt>
      <trkpt lat="48.6246" lon="-4.42947">
        <ele>12</ele>
        <time>2020-08-18T12:06:39Z</time>
      </trkpt>
      <trkpt lat="48.62457" lon="-4.42953">
        <ele>12.2</ele>
        <time>2020-08-18T12:06:41Z</time>
      </trkpt>
      <trkpt lat="48.62448" lon="-4.42981">
        <ele>13</ele>
        <time>2020-08-18T12:06:49Z</time>
      </trkpt>
      <trkpt lat="48.6244" lon="-4.43006">
        <ele>15.3</ele>
        <time>2020-08-18T12:06:58Z</time>
      </trkpt>
      <trkpt lat="48.62436" lon="-4.4302">
        <ele>15.5</ele>
        <time>2020-08-18T12:07:04Z</time>
      </trkpt>
      <trkpt lat="48.62432" lon="-4.43042">
        <ele>16</ele>
        <time>2020-08-18T12:07:12Z</time>
      </trkpt>
      <trkpt lat="48.62431" lon="-4.43061">
        <ele>16.9</ele>
        <time>2020-08-18T12:07:20Z</time>
      </trkpt>
      <trkpt lat="48.6243" lon="-4.43082">
        <ele>18</ele>
        <time>2020-08-18T12:07:29Z</time>
      </trkpt>
      <trkpt lat="48.62431" lon="-4.43101">
        <ele>20.1</ele>
        <time>2020-08-18T12:07:38Z</time>
      </trkpt>
      <trkpt lat="48.62434" lon="-4.43121">
        <ele>20.7</ele>
        <time>2020-08-18T12:07:47Z</time>
      </trkpt>
      <trkpt lat="48.62438" lon="-4.43136">
        <ele>21.4</ele>
        <time>2020-08-18T12:07:54Z</time>
      </trkpt>
      <trkpt lat="48.62453" lon="-4.43151">
        <ele>21.2</ele>
        <time>2020-08-18T12:08:03Z</time>
      </trkpt>
      <trkpt lat="48.62469" lon="-4.43159">
        <ele>20.4</ele>
        <time>2020-08-18T12:08:10Z</time>
      </trkpt>
      <trkpt lat="48.62484" lon="-4.43168">
        <ele>22.3</ele>
        <time>2020-08-18T12:08:15Z</time>
      </trkpt>
      <trkpt lat="48.62509" lon="-4.43189">
        <ele>17.6</ele>
        <time>2020-08-18T12:08:22Z</time>
      </trkpt>
      <trkpt lat="48.62529" lon="-4.43211">
        <ele>16.9</ele>
        <time>2020-08-18T12:08:28Z</time>
      </trkpt>
      <trkpt lat="48.62541" lon="-4.43237">
        <ele>16.4</ele>
        <time>2020-08-18T12:08:33Z</time>
      </trkpt>
      <trkpt lat="48.62542" lon="-4.43244">
        <ele>16.3</ele>
        <time>2020-08-18T12:08:34Z</time>
      </trkpt>
      <trkpt lat="48.62542" lon="-4.43272">
        <ele>15.8</ele>
        <time>2020-08-18T12:08:37Z</time>
      </trkpt>
      <trkpt lat="48.62529" lon="-4.43322">
        <ele>16.5</ele>
        <time>2020-08-18T12:08:43Z</time>
      </trkpt>
      <trkpt lat="48.62525" lon="-4.43335">
        <ele>15.3</ele>
        <time>2020-08-18T12:08:45Z</time>
      </trkpt>
      <trkpt lat="48.6252" lon="-4.43347">
        <ele>15.5</ele>
        <time>2020-08-18T12:08:47Z</time>
      </trkpt>
      <trkpt lat="48.62501" lon="-4.43392">
        <ele>14.1</ele>
        <time>2020-08-18T12:08:55Z</time>
      </trkpt>
      <trkpt lat="48.62478" lon="-4.43439">
        <ele>19.8</ele>
        <time>2020-08-18T12:09:05Z</time>
      </trkpt>
      <trkpt lat="48.62459" lon="-4.43476">
        <ele>21</ele>
        <time>2020-08-18T12:09:14Z</time>
      </trkpt>
      <trkpt lat="48.62445" lon="-4.43508">
        <ele>20.3</ele>
        <time>2020-08-18T12:09:22Z</time>
      </trkpt>
      <trkpt lat="48.62435" lon="-4.43542">
        <ele>19.7</ele>
        <time>2020-08-18T12:09:30Z</time>
      </trkpt>
      <trkpt lat="48.62431" lon="-4.43562">
        <ele>19.7</ele>
        <time>2020-08-18T12:09:36Z</time>
      </trkpt>
      <trkpt lat="48.62429" lon="-4.43574">
        <ele>20.2</ele>
        <time>2020-08-18T12:09:42Z</time>
      </trkpt>
      <trkpt lat="48.62429" lon="-4.43574">
        <ele>20.2</ele>
        <time>2020-08-18T12:09:44Z</time>
      </trkpt>
      <trkpt lat="48.62425" lon="-4.43585">
        <ele>19.8</ele>
        <time>2020-08-18T12:10:42Z</time>
      </trkpt>
      <trkpt lat="48.62417" lon="-4.43612">
        <ele>17.2</ele>
        <time>2020-08-18T12:10:52Z</time>
      </trkpt>
      <trkpt lat="48.62411" lon="-4.43626">
        <ele>23.3</ele>
        <time>2020-08-18T12:10:57Z</time>
      </trkpt>
      <trkpt lat="48.62401" lon="-4.43651">
        <ele>21.7</ele>
        <time>2020-08-18T12:11:04Z</time>
      </trkpt>
      <trkpt lat="48.62394" lon="-4.4366">
        <ele>22</ele>
        <time>2020-08-18T12:11:10Z</time>
      </trkpt>
      <trkpt lat="48.62378" lon="-4.43682">
        <ele>19.5</ele>
        <time>2020-08-18T12:11:17Z</time>
      </trkpt>
      <trkpt lat="48.62409" lon="-4.43761">
        <ele>12.4</ele>
        <time>2020-08-18T12:11:23Z</time>
      </trkpt>
      <trkpt lat="48.62421" lon="-4.43793">
        <ele>9.2</ele>
        <time>2020-08-18T12:11:29Z</time>
      </trkpt>
      <trkpt lat="48.6244" lon="-4.43844">
        <ele>7.6</ele>
        <time>2020-08-18T12:11:37Z</time>
      </trkpt>
      <trkpt lat="48.62451" lon="-4.43889">
        <ele>7</ele>
        <time>2020-08-18T12:11:43Z</time>
      </trkpt>
      <trkpt lat="48.62458" lon="-4.43928">
        <ele>6.2</ele>
        <time>2020-08-18T12:11:48Z</time>
      </trkpt>
      <trkpt lat="48.62473" lon="-4.43964">
        <ele>5.9</ele>
        <time>2020-08-18T12:11:53Z</time>
      </trkpt>
      <trkpt lat="48.6249" lon="-4.43974">
        <ele>5.7</ele>
        <time>2020-08-18T12:11:56Z</time>
      </trkpt>
      <trkpt lat="48.62535" lon="-4.43984">
        <ele>4.5</ele>
        <time>2020-08-18T12:12:03Z</time>
      </trkpt>
      <trkpt lat="48.6258" lon="-4.43997">
        <ele>3.2</ele>
        <time>2020-08-18T12:12:10Z</time>
      </trkpt>
      <trkpt lat="48.62603" lon="-4.44011">
        <ele>2.9</ele>
        <time>2020-08-18T12:12:14Z</time>
      </trkpt>
      <trkpt lat="48.6264" lon="-4.44048">
        <ele>2.6</ele>
        <time>2020-08-18T12:12:22Z</time>
      </trkpt>
      <trkpt lat="48.62669" lon="-4.44078">
        <ele>2</ele>
        <time>2020-08-18T12:12:29Z</time>
      </trkpt>
      <trkpt lat="48.62699" lon="-4.44106">
        <ele>1.6</ele>
        <time>2020-08-18T12:12:36Z</time>
      </trkpt>
      <trkpt lat="48.62751" lon="-4.44156">
        <ele>1.1</ele>
        <time>2020-08-18T12:12:48Z</time>
      </trkpt>
      <trkpt lat="48.62799" lon="-4.44203">
        <ele>1.5</ele>
        <time>2020-08-18T12:12:59Z</time>
      </trkpt>
      <trkpt lat="48.62846" lon="-4.44251">
        <ele>2.2</ele>
        <time>2020-08-18T12:13:10Z</time>
      </trkpt>
      <trkpt lat="48.62887" lon="-4.44307">
        <ele>2.6</ele>
        <time>2020-08-18T12:13:21Z</time>
      </trkpt>
      <trkpt lat="48.6292" lon="-4.44354">
        <ele>3.3</ele>
        <time>2020-08-18T12:13:31Z</time>
      </trkpt>
      <trkpt lat="48.62946" lon="-4.44389">
        <ele>3.4</ele>
        <time>2020-08-18T12:13:39Z</time>
      </trkpt>
      <trkpt lat="48.62952" lon="-4.44403">
        <ele>3.4</ele>
        <time>2020-08-18T12:13:43Z</time>
      </trkpt>
      <trkpt lat="48.62949" lon="-4.44438">
        <ele>3.2</ele>
        <time>2020-08-18T12:13:49Z</time>
      </trkpt>
      <trkpt lat="48.62952" lon="-4.44473">
        <ele>3.1</ele>
        <time>2020-08-18T12:13:54Z</time>
      </trkpt>
      <trkpt lat="48.62952" lon="-4.44479">
        <ele>3.1</ele>
        <time>2020-08-18T12:13:57Z</time>
      </trkpt>
      <trkpt lat="48.62992" lon="-4.4451">
        <ele>3.6</ele>
        <time>2020-08-18T12:14:05Z</time>
      </trkpt>
      <trkpt lat="48.63002" lon="-4.44523">
        <ele>3.6</ele>
        <time>2020-08-18T12:14:08Z</time>
      </trkpt>
      <trkpt lat="48.63022" lon="-4.44559">
        <ele>3.4</ele>
        <time>2020-08-18T12:14:16Z</time>
      </trkpt>
      <trkpt lat="48.63035" lon="-4.44597">
        <ele>3.1</ele>
        <time>2020-08-18T12:14:23Z</time>
      </trkpt>
      <trkpt lat="48.63046" lon="-4.4463">
        <ele>2.9</ele>
        <time>2020-08-18T12:14:30Z</time>
      </trkpt>
      <trkpt lat="48.63057" lon="-4.44661">
        <ele>2.7</ele>
        <time>2020-08-18T12:14:36Z</time>
      </trkpt>
      <trkpt lat="48.63066" lon="-4.4469">
        <ele>2.8</ele>
        <time>2020-08-18T12:14:42Z</time>
      </trkpt>
      <trkpt lat="48.63081" lon="-4.44736">
        <ele>2.5</ele>
        <time>2020-08-18T12:14:50Z</time>
      </trkpt>
      <trkpt lat="48.63106" lon="-4.44804">
        <ele>3</ele>
        <time>2020-08-18T12:15:01Z</time>
      </trkpt>
      <trkpt lat="48.63125" lon="-4.4485">
        <ele>4.4</ele>
        <time>2020-08-18T12:15:09Z</time>
      </trkpt>
      <trkpt lat="48.63145" lon="-4.449">
        <ele>4.9</ele>
        <time>2020-08-18T12:15:18Z</time>
      </trkpt>
      <trkpt lat="48.63162" lon="-4.44935">
        <ele>5.5</ele>
        <time>2020-08-18T12:15:25Z</time>
      </trkpt>
      <trkpt lat="48.63186" lon="-4.44984">
        <ele>4.7</ele>
        <time>2020-08-18T12:15:35Z</time>
      </trkpt>
      <trkpt lat="48.63209" lon="-4.45028">
        <ele>6.1</ele>
        <time>2020-08-18T12:15:45Z</time>
      </trkpt>
      <trkpt lat="48.63234" lon="-4.45084">
        <ele>7.6</ele>
        <time>2020-08-18T12:15:57Z</time>
      </trkpt>
      <trkpt lat="48.63261" lon="-4.45138">
        <ele>7.2</ele>
        <time>2020-08-18T12:16:09Z</time>
      </trkpt>
      <trkpt lat="48.63276" lon="-4.45162">
        <ele>7.2</ele>
        <time>2020-08-18T12:16:16Z</time>
      </trkpt>
      <trkpt lat="48.63287" lon="-4.4515">
        <ele>7.2</ele>
        <time>2020-08-18T12:16:21Z</time>
      </trkpt>
      <trkpt lat="48.63292" lon="-4.45142">
        <ele>7.2</ele>
        <time>2020-08-18T12:16:25Z</time>
      </trkpt>
      <trkpt lat="48.63292" lon="-4.45142">
        <ele>7.2</ele>
        <time>2020-08-18T12:16:27Z</time>
      </trkpt>
      <trkpt lat="48.63292" lon="-4.45142">
        <ele>7.2</ele>
        <time>2020-08-18T12:17:42Z</time>
      </trkpt>
      <trkpt lat="48.63285" lon="-4.45152">
        <ele>7.2</ele>
        <time>2020-08-18T12:17:49Z</time>
      </trkpt>
      <trkpt lat="48.63272" lon="-4.45171">
        <ele>7.1</ele>
        <time>2020-08-18T12:17:56Z</time>
      </trkpt>
      <trkpt lat="48.63248" lon="-4.45208">
        <ele>6.8</ele>
        <time>2020-08-18T12:18:07Z</time>
      </trkpt>
      <trkpt lat="48.63226" lon="-4.4524">
        <ele>6.8</ele>
        <time>2020-08-18T12:18:16Z</time>
      </trkpt>
      <trkpt lat="48.63202" lon="-4.45275">
        <ele>6.7</ele>
        <time>2020-08-18T12:18:25Z</time>
      </trkpt>
      <trkpt lat="48.63178" lon="-4.45311">
        <ele>6.8</ele>
        <time>2020-08-18T12:18:34Z</time>
      </trkpt>
      <trkpt lat="48.63151" lon="-4.45351">
        <ele>6.2</ele>
        <time>2020-08-18T12:18:44Z</time>
      </trkpt>
      <trkpt lat="48.63126" lon="-4.45387">
        <ele>5.8</ele>
        <time>2020-08-18T12:18:53Z</time>
      </trkpt>
      <trkpt lat="48.63097" lon="-4.4543">
        <ele>5.7</ele>
        <time>2020-08-18T12:19:03Z</time>
      </trkpt>
      <trkpt lat="48.63069" lon="-4.45472">
        <ele>5.9</ele>
        <time>2020-08-18T12:19:13Z</time>
      </trkpt>
      <trkpt lat="48.63039" lon="-4.45518">
        <ele>5.8</ele>
        <time>2020-08-18T12:19:24Z</time>
      </trkpt>
      <trkpt lat="48.63008" lon="-4.45565">
        <ele>5</ele>
        <time>2020-08-18T12:19:35Z</time>
      </trkpt>
      <trkpt lat="48.62978" lon="-4.45616">
        <ele>4.6</ele>
        <time>2020-08-18T12:19:46Z</time>
      </trkpt>
      <trkpt lat="48.62954" lon="-4.45664">
        <ele>4.8</ele>
        <time>2020-08-18T12:19:56Z</time>
      </trkpt>
      <trkpt lat="48.62936" lon="-4.45702">
        <ele>5.9</ele>
        <time>2020-08-18T12:20:05Z</time>
      </trkpt>
      <trkpt lat="48.62917" lon="-4.4574">
        <ele>6.7</ele>
        <time>2020-08-18T12:20:14Z</time>
      </trkpt>
      <trkpt lat="48.62905" lon="-4.45764">
        <ele>6.8</ele>
        <time>2020-08-18T12:20:20Z</time>
      </trkpt>
      <trkpt lat="48.62895" lon="-4.45784">
        <ele>6.7</ele>
        <time>2020-08-18T12:20:25Z</time>
      </trkpt>
      <trkpt lat="48.62882" lon="-4.45811">
        <ele>6.7</ele>
        <time>2020-08-18T12:20:32Z</time>
      </trkpt>
      <trkpt lat="48.62862" lon="-4.45851">
        <ele>6.9</ele>
        <time>2020-08-18T12:20:42Z</time>
      </trkpt>
      <trkpt lat="48.62844" lon="-4.45889">
        <ele>7.2</ele>
        <time>2020-08-18T12:20:52Z</time>
      </trkpt>
      <trkpt lat="48.62823" lon="-4.45931">
        <ele>7.9</ele>
        <time>2020-08-18T12:21:02Z</time>
      </trkpt>
      <trkpt lat="48.62806" lon="-4.45967">
        <ele>7.8</ele>
        <time>2020-08-18T12:21:11Z</time>
      </trkpt>
      <trkpt lat="48.62787" lon="-4.46007">
        <ele>7.2</ele>
        <time>2020-08-18T12:21:21Z</time>
      </trkpt>
      <trkpt lat="48.6277" lon="-4.4604">
        <ele>7.1</ele>
        <time>2020-08-18T12:21:30Z</time>
      </trkpt>
      <trkpt lat="48.62759" lon="-4.46063">
        <ele>7.3</ele>
        <time>2020-08-18T12:21:37Z</time>
      </trkpt>
      <trkpt lat="48.62747" lon="-4.46087">
        <ele>8.6</ele>
        <time>2020-08-18T12:21:45Z</time>
      </trkpt>
      <trkpt lat="48.62732" lon="-4.46113">
        <ele>10.4</ele>
        <time>2020-08-18T12:21:55Z</time>
      </trkpt>
      <trkpt lat="48.62716" lon="-4.46139">
        <ele>10.9</ele>
        <time>2020-08-18T12:22:05Z</time>
      </trkpt>
      <trkpt lat="48.62706" lon="-4.46156">
        <ele>11.5</ele>
        <time>2020-08-18T12:22:13Z</time>
      </trkpt>
      <trkpt lat="48.62701" lon="-4.46161">
        <ele>12</ele>
        <time>2020-08-18T12:22:18Z</time>
      </trkpt>
      <trkpt lat="48.62701" lon="-4.46161">
        <ele>12</ele>
        <time>2020-08-18T12:22:19Z</time>
      </trkpt>
      <trkpt lat="48.62701" lon="-4.46161">
        <ele>12</ele>
        <time>2020-08-18T12:22:42Z</time>
      </trkpt>
      <trkpt lat="48.62703" lon="-4.46158">
        <ele>11.8</ele>
        <time>2020-08-18T12:22:46Z</time>
      </trkpt>
      <trkpt lat="48.62756" lon="-4.46098">
        <ele>6.7</ele>
        <time>2020-08-18T12:22:58Z</time>
      </trkpt>
      <trkpt lat="48.62758" lon="-4.461">
        <ele>6.5</ele>
        <time>2020-08-18T12:23:08Z</time>
      </trkpt>
      <trkpt lat="48.62761" lon="-4.46102">
        <ele>6.3</ele>
        <time>2020-08-18T12:23:17Z</time>
      </trkpt>
      <trkpt lat="48.62761" lon="-4.46102">
        <ele>6.3</ele>
        <time>2020-08-18T12:23:24Z</time>
      </trkpt>
      <trkpt lat="48.62761" lon="-4.46102">
        <ele>6.3</ele>
        <time>2020-08-18T12:25:01Z</time>
      </trkpt>
      <trkpt lat="48.62761" lon="-4.46102">
        <ele>6.3</ele>
        <time>2020-08-18T12:25:11Z</time>
      </trkpt>
      <trkpt lat="48.62761" lon="-4.46102">
        <ele>6.3</ele>
        <time>2020-08-18T12:25:12Z</time>
      </trkpt>
      <trkpt lat="48.62759" lon="-4.46101">
        <ele>6.4</ele>
        <time>2020-08-18T12:25:56Z</time>
      </trkpt>
      <trkpt lat="48.62759" lon="-4.46101">
        <ele>6.4</ele>
        <time>2020-08-18T12:25:59Z</time>
      </trkpt>
      <trkpt lat="48.62758" lon="-4.461">
        <ele>6.5</ele>
        <time>2020-08-18T12:27:44Z</time>
      </trkpt>
      <trkpt lat="48.62714" lon="-4.46164">
        <ele>10.8</ele>
        <time>2020-08-18T12:27:56Z</time>
      </trkpt>
      <trkpt lat="48.62711" lon="-4.46168">
        <ele>10.1</ele>
        <time>2020-08-18T12:28:04Z</time>
      </trkpt>
      <trkpt lat="48.62708" lon="-4.46171">
        <ele>10.4</ele>
        <time>2020-08-18T12:28:11Z</time>
      </trkpt>
      <trkpt lat="48.62703" lon="-4.46178">
        <ele>10.8</ele>
        <time>2020-08-18T12:28:20Z</time>
      </trkpt>
      <trkpt lat="48.62697" lon="-4.4619">
        <ele>11</ele>
        <time>2020-08-18T12:28:31Z</time>
      </trkpt>
      <trkpt lat="48.62695" lon="-4.46194">
        <ele>11.1</ele>
        <time>2020-08-18T12:28:37Z</time>
      </trkpt>
      <trkpt lat="48.62679" lon="-4.46184">
        <ele>12.6</ele>
        <time>2020-08-18T12:28:45Z</time>
      </trkpt>
      <trkpt lat="48.62679" lon="-4.46185">
        <ele>12.5</ele>
        <time>2020-08-18T12:28:46Z</time>
      </trkpt>
      <trkpt lat="48.62663" lon="-4.46157">
        <ele>19.8</ele>
        <time>2020-08-18T12:28:56Z</time>
      </trkpt>
      <trkpt lat="48.62654" lon="-4.46128">
        <ele>23.9</ele>
        <time>2020-08-18T12:29:05Z</time>
      </trkpt>
      <trkpt lat="48.62648" lon="-4.46101">
        <ele>23.5</ele>
        <time>2020-08-18T12:29:13Z</time>
      </trkpt>
      <trkpt lat="48.62643" lon="-4.4608">
        <ele>23.3</ele>
        <time>2020-08-18T12:29:20Z</time>
      </trkpt>
      <trkpt lat="48.62643" lon="-4.4608">
        <ele>23.3</ele>
        <time>2020-08-18T12:29:26Z</time>
      </trkpt>
      <trkpt lat="48.62643" lon="-4.4608">
        <ele>23.3</ele>
        <time>2020-08-18T12:29:50Z</time>
      </trkpt>
      <trkpt lat="48.6264" lon="-4.46065">
        <ele>24.4</ele>
        <time>2020-08-18T12:29:56Z</time>
      </trkpt>
      <trkpt lat="48.62637" lon="-4.46047">
        <ele>25.2</ele>
        <time>2020-08-18T12:30:07Z</time>
      </trkpt>
      <trkpt lat="48.62625" lon="-4.46035">
        <ele>26.7</ele>
        <time>2020-08-18T12:30:17Z</time>
      </trkpt>
      <trkpt lat="48.62621" lon="-4.46016">
        <ele>27.1</ele>
        <time>2020-08-18T12:30:28Z</time>
      </trkpt>
      <trkpt lat="48.62615" lon="-4.45997">
        <ele>25.7</ele>
        <time>2020-08-18T12:30:40Z</time>
      </trkpt>
      <trkpt lat="48.62611" lon="-4.45982">
        <ele>25.7</ele>
        <time>2020-08-18T12:30:51Z</time>
      </trkpt>
      <trkpt lat="48.62606" lon="-4.45969">
        <ele>25.4</ele>
        <time>2020-08-18T12:31:01Z</time>
      </trkpt>
      <trkpt lat="48.62599" lon="-4.45957">
        <ele>25.3</ele>
        <time>2020-08-18T12:31:11Z</time>
      </trkpt>
      <trkpt lat="48.62592" lon="-4.45947">
        <ele>25.4</ele>
        <time>2020-08-18T12:31:22Z</time>
      </trkpt>
      <trkpt lat="48.62584" lon="-4.45941">
        <ele>25.8</ele>
        <time>2020-08-18T12:31:32Z</time>
      </trkpt>
      <trkpt lat="48.6258" lon="-4.4594">
        <ele>34.5</ele>
        <time>2020-08-18T12:31:40Z</time>
      </trkpt>
      <trkpt lat="48.6257" lon="-4.45934">
        <ele>34.4</ele>
        <time>2020-08-18T12:31:47Z</time>
      </trkpt>
      <trkpt lat="48.62561" lon="-4.45929">
        <ele>35.2</ele>
        <time>2020-08-18T12:31:55Z</time>
      </trkpt>
      <trkpt lat="48.6255" lon="-4.45922">
        <ele>36.6</ele>
        <time>2020-08-18T12:32:04Z</time>
      </trkpt>
      <trkpt lat="48.62538" lon="-4.45911">
        <ele>34.4</ele>
        <time>2020-08-18T12:32:14Z</time>
      </trkpt>
      <trkpt lat="48.62529" lon="-4.45902">
        <ele>35.4</ele>
        <time>2020-08-18T12:32:21Z</time>
      </trkpt>
      <trkpt lat="48.62518" lon="-4.45891">
        <ele>36</ele>
        <time>2020-08-18T12:32:30Z</time>
      </trkpt>
      <trkpt lat="48.62508" lon="-4.45878">
        <ele>35.8</ele>
        <time>2020-08-18T12:32:39Z</time>
      </trkpt>
      <trkpt lat="48.62499" lon="-4.45868">
        <ele>43.5</ele>
        <time>2020-08-18T12:32:47Z</time>
      </trkpt>
      <trkpt lat="48.62489" lon="-4.45859">
        <ele>43.3</ele>
        <time>2020-08-18T12:32:56Z</time>
      </trkpt>
      <trkpt lat="48.62479" lon="-4.45852">
        <ele>43.5</ele>
        <time>2020-08-18T12:33:05Z</time>
      </trkpt>
      <trkpt lat="48.62468" lon="-4.45845">
        <ele>44.1</ele>
        <time>2020-08-18T12:33:14Z</time>
      </trkpt>
      <trkpt lat="48.62464" lon="-4.45842">
        <ele>44.4</ele>
        <time>2020-08-18T12:33:18Z</time>
      </trkpt>
      <trkpt lat="48.62457" lon="-4.45839">
        <ele>44.9</ele>
        <time>2020-08-18T12:33:24Z</time>
      </trkpt>
      <trkpt lat="48.62449" lon="-4.45837">
        <ele>45.5</ele>
        <time>2020-08-18T12:33:30Z</time>
      </trkpt>
      <trkpt lat="48.62433" lon="-4.45838">
        <ele>46.6</ele>
        <time>2020-08-18T12:33:42Z</time>
      </trkpt>
      <trkpt lat="48.62421" lon="-4.45841">
        <ele>47.3</ele>
        <time>2020-08-18T12:33:51Z</time>
      </trkpt>
      <trkpt lat="48.62409" lon="-4.45847">
        <ele>49.9</ele>
        <time>2020-08-18T12:34:00Z</time>
      </trkpt>
      <trkpt lat="48.62408" lon="-4.45848">
        <ele>50</ele>
        <time>2020-08-18T12:34:02Z</time>
      </trkpt>
      <trkpt lat="48.62405" lon="-4.45851">
        <ele>50.3</ele>
        <time>2020-08-18T12:35:41Z</time>
      </trkpt>
      <trkpt lat="48.62394" lon="-4.45861">
        <ele>51.1</ele>
        <time>2020-08-18T12:35:47Z</time>
      </trkpt>
      <trkpt lat="48.62384" lon="-4.45882">
        <ele>52</ele>
        <time>2020-08-18T12:35:54Z</time>
      </trkpt>
      <trkpt lat="48.62374" lon="-4.45908">
        <ele>52.7</ele>
        <time>2020-08-18T12:36:03Z</time>
      </trkpt>
      <trkpt lat="48.62362" lon="-4.45937">
        <ele>54.2</ele>
        <time>2020-08-18T12:36:12Z</time>
      </trkpt>
      <trkpt lat="48.62355" lon="-4.45964">
        <ele>54.1</ele>
        <time>2020-08-18T12:36:20Z</time>
      </trkpt>
      <trkpt lat="48.62342" lon="-4.45992">
        <ele>54.5</ele>
        <time>2020-08-18T12:36:29Z</time>
      </trkpt>
      <trkpt lat="48.62332" lon="-4.4601">
        <ele>54.9</ele>
        <time>2020-08-18T12:36:36Z</time>
      </trkpt>
      <trkpt lat="48.62319" lon="-4.4603">
        <ele>54.7</ele>
        <time>2020-08-18T12:36:43Z</time>
      </trkpt>
      <trkpt lat="48.62307" lon="-4.46055">
        <ele>54.7</ele>
        <time>2020-08-18T12:36:50Z</time>
      </trkpt>
      <trkpt lat="48.62305" lon="-4.46079">
        <ele>54.6</ele>
        <time>2020-08-18T12:36:56Z</time>
      </trkpt>
      <trkpt lat="48.62303" lon="-4.46117">
        <ele>55.8</ele>
        <time>2020-08-18T12:37:05Z</time>
      </trkpt>
      <trkpt lat="48.62304" lon="-4.46165">
        <ele>56.2</ele>
        <time>2020-08-18T12:37:16Z</time>
      </trkpt>
      <trkpt lat="48.62303" lon="-4.46204">
        <ele>56.1</ele>
        <time>2020-08-18T12:37:24Z</time>
      </trkpt>
      <trkpt lat="48.62299" lon="-4.46239">
        <ele>55.8</ele>
        <time>2020-08-18T12:37:31Z</time>
      </trkpt>
      <trkpt lat="48.62287" lon="-4.46252">
        <ele>55.6</ele>
        <time>2020-08-18T12:37:36Z</time>
      </trkpt>
      <trkpt lat="48.62268" lon="-4.46261">
        <ele>56.1</ele>
        <time>2020-08-18T12:37:43Z</time>
      </trkpt>
      <trkpt lat="48.62233" lon="-4.46282">
        <ele>56.7</ele>
        <time>2020-08-18T12:37:53Z</time>
      </trkpt>
      <trkpt lat="48.62201" lon="-4.46299">
        <ele>56.8</ele>
        <time>2020-08-18T12:38:03Z</time>
      </trkpt>
      <trkpt lat="48.62161" lon="-4.46319">
        <ele>57.3</ele>
        <time>2020-08-18T12:38:15Z</time>
      </trkpt>
      <trkpt lat="48.62126" lon="-4.46333">
        <ele>57.6</ele>
        <time>2020-08-18T12:38:26Z</time>
      </trkpt>
      <trkpt lat="48.62091" lon="-4.46347">
        <ele>57.9</ele>
        <time>2020-08-18T12:38:37Z</time>
      </trkpt>
      <trkpt lat="48.62052" lon="-4.46362">
        <ele>59.1</ele>
        <time>2020-08-18T12:38:49Z</time>
      </trkpt>
      <trkpt lat="48.62027" lon="-4.46372">
        <ele>59.5</ele>
        <time>2020-08-18T12:38:57Z</time>
      </trkpt>
      <trkpt lat="48.62008" lon="-4.46374">
        <ele>59.7</ele>
        <time>2020-08-18T12:39:01Z</time>
      </trkpt>
      <trkpt lat="48.62007" lon="-4.46387">
        <ele>59.6</ele>
        <time>2020-08-18T12:39:07Z</time>
      </trkpt>
      <trkpt lat="48.62007" lon="-4.4639">
        <ele>59.6</ele>
        <time>2020-08-18T12:39:08Z</time>
      </trkpt>
      <trkpt lat="48.62005" lon="-4.46439">
        <ele>59.1</ele>
        <time>2020-08-18T12:39:18Z</time>
      </trkpt>
      <trkpt lat="48.62002" lon="-4.46493">
        <ele>58.2</ele>
        <time>2020-08-18T12:39:29Z</time>
      </trkpt>
      <trkpt lat="48.61988" lon="-4.46548">
        <ele>59.4</ele>
        <time>2020-08-18T12:39:41Z</time>
      </trkpt>
      <trkpt lat="48.61973" lon="-4.4659">
        <ele>59.6</ele>
        <time>2020-08-18T12:39:50Z</time>
      </trkpt>
      <trkpt lat="48.61955" lon="-4.46632">
        <ele>59.8</ele>
        <time>2020-08-18T12:40:00Z</time>
      </trkpt>
      <trkpt lat="48.61934" lon="-4.46665">
        <ele>60.3</ele>
        <time>2020-08-18T12:40:10Z</time>
      </trkpt>
      <trkpt lat="48.61919" lon="-4.46691">
        <ele>60</ele>
        <time>2020-08-18T12:40:18Z</time>
      </trkpt>
      <trkpt lat="48.61906" lon="-4.46733">
        <ele>61.2</ele>
        <time>2020-08-18T12:40:29Z</time>
      </trkpt>
      <trkpt lat="48.61898" lon="-4.46775">
        <ele>60.4</ele>
        <time>2020-08-18T12:40:39Z</time>
      </trkpt>
      <trkpt lat="48.61891" lon="-4.46816">
        <ele>60</ele>
        <time>2020-08-18T12:40:47Z</time>
      </trkpt>
      <trkpt lat="48.6188" lon="-4.46877">
        <ele>58.2</ele>
        <time>2020-08-18T12:40:58Z</time>
      </trkpt>
      <trkpt lat="48.61869" lon="-4.46935">
        <ele>56.9</ele>
        <time>2020-08-18T12:41:08Z</time>
      </trkpt>
      <trkpt lat="48.61865" lon="-4.4696">
        <ele>56.8</ele>
        <time>2020-08-18T12:41:12Z</time>
      </trkpt>
      <trkpt lat="48.61864" lon="-4.46992">
        <ele>56.8</ele>
        <time>2020-08-18T12:41:17Z</time>
      </trkpt>
      <trkpt lat="48.6187" lon="-4.47036">
        <ele>56.8</ele>
        <time>2020-08-18T12:41:24Z</time>
      </trkpt>
      <trkpt lat="48.61877" lon="-4.4709">
        <ele>57.3</ele>
        <time>2020-08-18T12:41:32Z</time>
      </trkpt>
      <trkpt lat="48.61886" lon="-4.47149">
        <ele>57.5</ele>
        <time>2020-08-18T12:41:41Z</time>
      </trkpt>
      <trkpt lat="48.61892" lon="-4.47185">
        <ele>58.5</ele>
        <time>2020-08-18T12:41:48Z</time>
      </trkpt>
      <trkpt lat="48.61898" lon="-4.47221">
        <ele>59.1</ele>
        <time>2020-08-18T12:41:56Z</time>
      </trkpt>
      <trkpt lat="48.61902" lon="-4.4725">
        <ele>60.3</ele>
        <time>2020-08-18T12:42:04Z</time>
      </trkpt>
      <trkpt lat="48.61906" lon="-4.47282">
        <ele>60.7</ele>
        <time>2020-08-18T12:42:13Z</time>
      </trkpt>
      <trkpt lat="48.61915" lon="-4.47318">
        <ele>61.4</ele>
        <time>2020-08-18T12:42:23Z</time>
      </trkpt>
      <trkpt lat="48.61924" lon="-4.47352">
        <ele>61.3</ele>
        <time>2020-08-18T12:42:32Z</time>
      </trkpt>
      <trkpt lat="48.61932" lon="-4.47384">
        <ele>61.2</ele>
        <time>2020-08-18T12:42:40Z</time>
      </trkpt>
      <trkpt lat="48.61942" lon="-4.47425">
        <ele>61.1</ele>
        <time>2020-08-18T12:42:49Z</time>
      </trkpt>
      <trkpt lat="48.61949" lon="-4.47464">
        <ele>60.4</ele>
        <time>2020-08-18T12:42:57Z</time>
      </trkpt>
      <trkpt lat="48.61951" lon="-4.47504">
        <ele>59.1</ele>
        <time>2020-08-18T12:43:05Z</time>
      </trkpt>
      <trkpt lat="48.61951" lon="-4.47549">
        <ele>58.5</ele>
        <time>2020-08-18T12:43:13Z</time>
      </trkpt>
      <trkpt lat="48.61946" lon="-4.47594">
        <ele>56.9</ele>
        <time>2020-08-18T12:43:19Z</time>
      </trkpt>
      <trkpt lat="48.61942" lon="-4.47622">
        <ele>56.3</ele>
        <time>2020-08-18T12:43:22Z</time>
      </trkpt>
      <trkpt lat="48.61935" lon="-4.47675">
        <ele>54.9</ele>
        <time>2020-08-18T12:43:27Z</time>
      </trkpt>
      <trkpt lat="48.61934" lon="-4.47741">
        <ele>54.4</ele>
        <time>2020-08-18T12:43:33Z</time>
      </trkpt>
      <trkpt lat="48.61935" lon="-4.47752">
        <ele>54.5</ele>
        <time>2020-08-18T12:43:34Z</time>
      </trkpt>
      <trkpt lat="48.61935" lon="-4.47762">
        <ele>54.5</ele>
        <time>2020-08-18T12:43:37Z</time>
      </trkpt>
      <trkpt lat="48.61935" lon="-4.47762">
        <ele>54.5</ele>
        <time>2020-08-18T12:43:43Z</time>
      </trkpt>
      <trkpt lat="48.61935" lon="-4.47762">
        <ele>54.5</ele>
        <time>2020-08-18T12:43:51Z</time>
      </trkpt>
      <trkpt lat="48.61935" lon="-4.47883">
        <ele>55.4</ele>
        <time>2020-08-18T12:44:02Z</time>
      </trkpt>
      <trkpt lat="48.61944" lon="-4.47908">
        <ele>55.3</ele>
        <time>2020-08-18T12:44:08Z</time>
      </trkpt>
      <trkpt lat="48.61957" lon="-4.47941">
        <ele>54</ele>
        <time>2020-08-18T12:44:15Z</time>
      </trkpt>
      <trkpt lat="48.61961" lon="-4.47953">
        <ele>53.8</ele>
        <time>2020-08-18T12:44:19Z</time>
      </trkpt>
      <trkpt lat="48.61961" lon="-4.47953">
        <ele>53.8</ele>
        <time>2020-08-18T12:44:20Z</time>
      </trkpt>
      <trkpt lat="48.61966" lon="-4.47967">
        <ele>53.5</ele>
        <time>2020-08-18T12:45:06Z</time>
      </trkpt>
      <trkpt lat="48.61975" lon="-4.48001">
        <ele>51.9</ele>
        <time>2020-08-18T12:45:13Z</time>
      </trkpt>
      <trkpt lat="48.61984" lon="-4.48044">
        <ele>51.7</ele>
        <time>2020-08-18T12:45:20Z</time>
      </trkpt>
      <trkpt lat="48.61989" lon="-4.48086">
        <ele>51</ele>
        <time>2020-08-18T12:45:27Z</time>
      </trkpt>
      <trkpt lat="48.61992" lon="-4.4812">
        <ele>52.1</ele>
        <time>2020-08-18T12:45:34Z</time>
      </trkpt>
      <trkpt lat="48.61995" lon="-4.48162">
        <ele>52.2</ele>
        <time>2020-08-18T12:45:42Z</time>
      </trkpt>
      <trkpt lat="48.62" lon="-4.48213">
        <ele>52.7</ele>
        <time>2020-08-18T12:45:52Z</time>
      </trkpt>
      <trkpt lat="48.62013" lon="-4.48228">
        <ele>50.3</ele>
        <time>2020-08-18T12:45:57Z</time>
      </trkpt>
      <trkpt lat="48.62016" lon="-4.4826">
        <ele>50.3</ele>
        <time>2020-08-18T12:46:03Z</time>
      </trkpt>
      <trkpt lat="48.62019" lon="-4.48297">
        <ele>50.2</ele>
        <time>2020-08-18T12:46:10Z</time>
      </trkpt>
      <trkpt lat="48.62021" lon="-4.4835">
        <ele>50.1</ele>
        <time>2020-08-18T12:46:18Z</time>
      </trkpt>
      <trkpt lat="48.62023" lon="-4.484">
        <ele>49.5</ele>
        <time>2020-08-18T12:46:25Z</time>
      </trkpt>
      <trkpt lat="48.62024" lon="-4.48442">
        <ele>47.9</ele>
        <time>2020-08-18T12:46:32Z</time>
      </trkpt>
      <trkpt lat="48.62026" lon="-4.48498">
        <ele>47.3</ele>
        <time>2020-08-18T12:46:41Z</time>
      </trkpt>
      <trkpt lat="48.62027" lon="-4.48552">
        <ele>45.6</ele>
        <time>2020-08-18T12:46:49Z</time>
      </trkpt>
      <trkpt lat="48.62022" lon="-4.48602">
        <ele>44.7</ele>
        <time>2020-08-18T12:46:57Z</time>
      </trkpt>
      <trkpt lat="48.6202" lon="-4.48623">
        <ele>44.3</ele>
        <time>2020-08-18T12:47:00Z</time>
      </trkpt>
      <trkpt lat="48.62026" lon="-4.48659">
        <ele>44</ele>
        <time>2020-08-18T12:47:05Z</time>
      </trkpt>
      <trkpt lat="48.62041" lon="-4.48688">
        <ele>42.8</ele>
        <time>2020-08-18T12:47:10Z</time>
      </trkpt>
      <trkpt lat="48.62049" lon="-4.48714">
        <ele>42.6</ele>
        <time>2020-08-18T12:47:14Z</time>
      </trkpt>
      <trkpt lat="48.6206" lon="-4.48791">
        <ele>41.5</ele>
        <time>2020-08-18T12:47:24Z</time>
      </trkpt>
      <trkpt lat="48.62061" lon="-4.48799">
        <ele>41.4</ele>
        <time>2020-08-18T12:47:25Z</time>
      </trkpt>
      <trkpt lat="48.62063" lon="-4.48823">
        <ele>41</ele>
        <time>2020-08-18T12:47:28Z</time>
      </trkpt>
      <trkpt lat="48.62059" lon="-4.48858">
        <ele>40.6</ele>
        <time>2020-08-18T12:47:33Z</time>
      </trkpt>
      <trkpt lat="48.62043" lon="-4.48912">
        <ele>40.6</ele>
        <time>2020-08-18T12:47:42Z</time>
      </trkpt>
      <trkpt lat="48.62033" lon="-4.48943">
        <ele>40.1</ele>
        <time>2020-08-18T12:47:47Z</time>
      </trkpt>
      <trkpt lat="48.62031" lon="-4.48988">
        <ele>39.8</ele>
        <time>2020-08-18T12:47:54Z</time>
      </trkpt>
      <trkpt lat="48.62033" lon="-4.48995">
        <ele>39.7</ele>
        <time>2020-08-18T12:47:55Z</time>
      </trkpt>
      <trkpt lat="48.62056" lon="-4.49065">
        <ele>39</ele>
        <time>2020-08-18T12:48:06Z</time>
      </trkpt>
      <trkpt lat="48.62066" lon="-4.49091">
        <ele>38.7</ele>
        <time>2020-08-18T12:48:10Z</time>
      </trkpt>
      <trkpt lat="48.62074" lon="-4.49131">
        <ele>38.5</ele>
        <time>2020-08-18T12:48:16Z</time>
      </trkpt>
      <trkpt lat="48.6207" lon="-4.49185">
        <ele>38</ele>
        <time>2020-08-18T12:48:24Z</time>
      </trkpt>
      <trkpt lat="48.62062" lon="-4.49265">
        <ele>37.2</ele>
        <time>2020-08-18T12:48:35Z</time>
      </trkpt>
      <trkpt lat="48.6206" lon="-4.49289">
        <ele>37.1</ele>
        <time>2020-08-18T12:48:44Z</time>
      </trkpt>
      <trkpt lat="48.62048" lon="-4.49412">
        <ele>35.5</ele>
        <time>2020-08-18T12:48:54Z</time>
      </trkpt>
      <trkpt lat="48.62046" lon="-4.49456">
        <ele>32.3</ele>
        <time>2020-08-18T12:48:59Z</time>
      </trkpt>
      <trkpt lat="48.62045" lon="-4.49477">
        <ele>31.6</ele>
        <time>2020-08-18T12:49:01Z</time>
      </trkpt>
      <trkpt lat="48.6204" lon="-4.49563">
        <ele>26.7</ele>
        <time>2020-08-18T12:49:08Z</time>
      </trkpt>
      <trkpt lat="48.62034" lon="-4.49642">
        <ele>23.5</ele>
        <time>2020-08-18T12:49:14Z</time>
      </trkpt>
      <trkpt lat="48.6203" lon="-4.49669">
        <ele>22.1</ele>
        <time>2020-08-18T12:49:16Z</time>
      </trkpt>
      <trkpt lat="48.62027" lon="-4.49682">
        <ele>22</ele>
        <time>2020-08-18T12:49:17Z</time>
      </trkpt>
      <trkpt lat="48.62024" lon="-4.4974">
        <ele>21.6</ele>
        <time>2020-08-18T12:49:21Z</time>
      </trkpt>
      <trkpt lat="48.62021" lon="-4.49794">
        <ele>18.7</ele>
        <time>2020-08-18T12:49:25Z</time>
      </trkpt>
      <trkpt lat="48.62008" lon="-4.49829">
        <ele>17.5</ele>
        <time>2020-08-18T12:49:28Z</time>
      </trkpt>
      <trkpt lat="48.62008" lon="-4.49844">
        <ele>15.8</ele>
        <time>2020-08-18T12:49:29Z</time>
      </trkpt>
      <trkpt lat="48.62021" lon="-4.49913">
        <ele>14.3</ele>
        <time>2020-08-18T12:49:34Z</time>
      </trkpt>
      <trkpt lat="48.62026" lon="-4.49941">
        <ele>11.4</ele>
        <time>2020-08-18T12:49:36Z</time>
      </trkpt>
      <trkpt lat="48.6205" lon="-4.50004">
        <ele>6.8</ele>
        <time>2020-08-18T12:49:41Z</time>
      </trkpt>
      <trkpt lat="48.62068" lon="-4.50049">
        <ele>5.6</ele>
        <time>2020-08-18T12:49:46Z</time>
      </trkpt>
      <trkpt lat="48.62068" lon="-4.50049">
        <ele>5.6</ele>
        <time>2020-08-18T12:49:52Z</time>
      </trkpt>
      <trkpt lat="48.6209" lon="-4.50182">
        <ele>3.3</ele>
        <time>2020-08-18T12:49:58Z</time>
      </trkpt>
      <trkpt lat="48.62105" lon="-4.50247">
        <ele>4.4</ele>
        <time>2020-08-18T12:50:05Z</time>
      </trkpt>
      <trkpt lat="48.62108" lon="-4.50255">
        <ele>5.2</ele>
        <time>2020-08-18T12:50:06Z</time>
      </trkpt>
      <trkpt lat="48.62133" lon="-4.50311">
        <ele>5</ele>
        <time>2020-08-18T12:50:14Z</time>
      </trkpt>
      <trkpt lat="48.62155" lon="-4.50364">
        <ele>5.4</ele>
        <time>2020-08-18T12:50:22Z</time>
      </trkpt>
      <trkpt lat="48.62173" lon="-4.50414">
        <ele>3.7</ele>
        <time>2020-08-18T12:50:31Z</time>
      </trkpt>
      <trkpt lat="48.62177" lon="-4.50425">
        <ele>3.9</ele>
        <time>2020-08-18T12:50:33Z</time>
      </trkpt>
      <trkpt lat="48.62197" lon="-4.50484">
        <ele>4.4</ele>
        <time>2020-08-18T12:50:42Z</time>
      </trkpt>
      <trkpt lat="48.62211" lon="-4.50537">
        <ele>6</ele>
        <time>2020-08-18T12:50:50Z</time>
      </trkpt>
      <trkpt lat="48.62213" lon="-4.50556">
        <ele>6</ele>
        <time>2020-08-18T12:50:53Z</time>
      </trkpt>
      <trkpt lat="48.62214" lon="-4.50581">
        <ele>6.1</ele>
        <time>2020-08-18T12:50:57Z</time>
      </trkpt>
      <trkpt lat="48.62205" lon="-4.50616">
        <ele>6.4</ele>
        <time>2020-08-18T12:51:05Z</time>
      </trkpt>
      <trkpt lat="48.62196" lon="-4.50647">
        <ele>6.7</ele>
        <time>2020-08-18T12:51:13Z</time>
      </trkpt>
      <trkpt lat="48.6219" lon="-4.50673">
        <ele>7.9</ele>
        <time>2020-08-18T12:51:22Z</time>
      </trkpt>
      <trkpt lat="48.62187" lon="-4.50698">
        <ele>8.1</ele>
        <time>2020-08-18T12:51:31Z</time>
      </trkpt>
      <trkpt lat="48.62192" lon="-4.50724">
        <ele>8.6</ele>
        <time>2020-08-18T12:51:37Z</time>
      </trkpt>
      <trkpt lat="48.62193" lon="-4.50724">
        <ele>8.6</ele>
        <time>2020-08-18T12:51:43Z</time>
      </trkpt>
      <trkpt lat="48.62193" lon="-4.50724">
        <ele>8.6</ele>
        <time>2020-08-18T12:51:47Z</time>
      </trkpt>
      <trkpt lat="48.6224" lon="-4.50759">
        <ele>7</ele>
        <time>2020-08-18T12:51:53Z</time>
      </trkpt>
      <trkpt lat="48.62245" lon="-4.50786">
        <ele>8.3</ele>
        <time>2020-08-18T12:51:58Z</time>
      </trkpt>
      <trkpt lat="48.62244" lon="-4.50822">
        <ele>7.6</ele>
        <time>2020-08-18T12:52:05Z</time>
      </trkpt>
      <trkpt lat="48.62236" lon="-4.50861">
        <ele>8.9</ele>
        <time>2020-08-18T12:52:12Z</time>
      </trkpt>
      <trkpt lat="48.62228" lon="-4.50893">
        <ele>9</ele>
        <time>2020-08-18T12:52:18Z</time>
      </trkpt>
      <trkpt lat="48.6222" lon="-4.50924">
        <ele>8.3</ele>
        <time>2020-08-18T12:52:26Z</time>
      </trkpt>
      <trkpt lat="48.6221" lon="-4.50962">
        <ele>8.7</ele>
        <time>2020-08-18T12:52:37Z</time>
      </trkpt>
      <trkpt lat="48.62202" lon="-4.5099">
        <ele>8.8</ele>
        <time>2020-08-18T12:52:45Z</time>
      </trkpt>
      <trkpt lat="48.62192" lon="-4.51024">
        <ele>7.9</ele>
        <time>2020-08-18T12:52:55Z</time>
      </trkpt>
      <trkpt lat="48.62188" lon="-4.51038">
        <ele>7.6</ele>
        <time>2020-08-18T12:52:59Z</time>
      </trkpt>
      <trkpt lat="48.62195" lon="-4.51053">
        <ele>7.2</ele>
        <time>2020-08-18T12:53:03Z</time>
      </trkpt>
      <trkpt lat="48.62195" lon="-4.51053">
        <ele>7.2</ele>
        <time>2020-08-18T12:53:05Z</time>
      </trkpt>
      <trkpt lat="48.62209" lon="-4.51055">
        <ele>6.8</ele>
        <time>2020-08-18T12:53:41Z</time>
      </trkpt>
      <trkpt lat="48.62231" lon="-4.51058">
        <ele>6.1</ele>
        <time>2020-08-18T12:53:45Z</time>
      </trkpt>
      <trkpt lat="48.62244" lon="-4.51036">
        <ele>6.2</ele>
        <time>2020-08-18T12:53:48Z</time>
      </trkpt>
      <trkpt lat="48.62263" lon="-4.51005">
        <ele>4.5</ele>
        <time>2020-08-18T12:53:52Z</time>
      </trkpt>
      <trkpt lat="48.62269" lon="-4.51006">
        <ele>4.4</ele>
        <time>2020-08-18T12:53:53Z</time>
      </trkpt>
      <trkpt lat="48.62313" lon="-4.51015">
        <ele>3.7</ele>
        <time>2020-08-18T12:54:00Z</time>
      </trkpt>
      <trkpt lat="48.62326" lon="-4.51018">
        <ele>3.6</ele>
        <time>2020-08-18T12:54:02Z</time>
      </trkpt>
      <trkpt lat="48.6235" lon="-4.51051">
        <ele>3.8</ele>
        <time>2020-08-18T12:54:06Z</time>
      </trkpt>
      <trkpt lat="48.62341" lon="-4.51025">
        <ele>3.5</ele>
        <time>2020-08-18T12:54:09Z</time>
      </trkpt>
      <trkpt lat="48.62341" lon="-4.51025">
        <ele>3.5</ele>
        <time>2020-08-18T12:54:14Z</time>
      </trkpt>
      <trkpt lat="48.62374" lon="-4.51051">
        <ele>3.8</ele>
        <time>2020-08-18T12:54:17Z</time>
      </trkpt>
      <trkpt lat="48.6235" lon="-4.51051">
        <ele>3.8</ele>
        <time>2020-08-18T12:54:20Z</time>
      </trkpt>
      <trkpt lat="48.6235" lon="-4.51051">
        <ele>3.8</ele>
        <time>2020-08-18T12:54:22Z</time>
      </trkpt>
      <trkpt lat="48.62349" lon="-4.5104">
        <ele>3.7</ele>
        <time>2020-08-18T12:54:30Z</time>
      </trkpt>
      <trkpt lat="48.6235" lon="-4.51046">
        <ele>3.7</ele>
        <time>2020-08-18T12:54:32Z</time>
      </trkpt>
      <trkpt lat="48.62358" lon="-4.51053">
        <ele>3.8</ele>
        <time>2020-08-18T12:54:36Z</time>
      </trkpt>
      <trkpt lat="48.6238" lon="-4.5105">
        <ele>3.8</ele>
        <time>2020-08-18T12:54:45Z</time>
      </trkpt>
      <trkpt lat="48.62402" lon="-4.51045">
        <ele>3.9</ele>
        <time>2020-08-18T12:54:54Z</time>
      </trkpt>
      <trkpt lat="48.62424" lon="-4.5105">
        <ele>3.8</ele>
        <time>2020-08-18T12:55:02Z</time>
      </trkpt>
      <trkpt lat="48.62444" lon="-4.51057">
        <ele>3.6</ele>
        <time>2020-08-18T12:55:08Z</time>
      </trkpt>
      <trkpt lat="48.62457" lon="-4.51066">
        <ele>3.4</ele>
        <time>2020-08-18T12:55:13Z</time>
      </trkpt>
      <trkpt lat="48.6246" lon="-4.51069">
        <ele>3.4</ele>
        <time>2020-08-18T12:55:15Z</time>
      </trkpt>
      <trkpt lat="48.62468" lon="-4.51054">
        <ele>3.2</ele>
        <time>2020-08-18T12:55:21Z</time>
      </trkpt>
      <trkpt lat="48.62466" lon="-4.51077">
        <ele>3.2</ele>
        <time>2020-08-18T12:55:24Z</time>
      </trkpt>
      <trkpt lat="48.62466" lon="-4.51077">
        <ele>3.2</ele>
        <time>2020-08-18T12:55:56Z</time>
      </trkpt>
      <trkpt lat="48.62466" lon="-4.51077">
        <ele>3.2</ele>
        <time>2020-08-18T13:01:17Z</time>
      </trkpt>
      <trkpt lat="48.62466" lon="-4.51077">
        <ele>3.2</ele>
        <time>2020-08-18T13:01:22Z</time>
      </trkpt>
      <trkpt lat="48.62466" lon="-4.51077">
        <ele>3.2</ele>
        <time>2020-08-18T13:01:23Z</time>
      </trkpt>
      <trkpt lat="48.62466" lon="-4.51077">
        <ele>3.2</ele>
        <time>2020-08-18T13:01:45Z</time>
      </trkpt>
      <trkpt lat="48.62466" lon="-4.51077">
        <ele>3.2</ele>
        <time>2020-08-18T13:01:52Z</time>
      </trkpt>
      <trkpt lat="48.62466" lon="-4.51077">
        <ele>3.2</ele>
        <time>2020-08-18T13:01:58Z</time>
      </trkpt>
      <trkpt lat="48.62466" lon="-4.51077">
        <ele>3.2</ele>
        <time>2020-08-18T13:02:04Z</time>
      </trkpt>
      <trkpt lat="48.62466" lon="-4.51077">
        <ele>3.2</ele>
        <time>2020-08-18T13:02:13Z</time>
      </trkpt>
      <trkpt lat="48.62466" lon="-4.51077">
        <ele>3.2</ele>
        <time>2020-08-18T13:02:15Z</time>
      </trkpt>
      <trkpt lat="48.62466" lon="-4.51077">
        <ele>3.2</ele>
        <time>2020-08-18T13:02:20Z</time>
      </trkpt>
      <trkpt lat="48.62466" lon="-4.51077">
        <ele>3.2</ele>
        <time>2020-08-18T13:34:19Z</time>
      </trkpt>
      <trkpt lat="48.62466" lon="-4.51077">
        <ele>3.2</ele>
        <time>2020-08-18T13:34:22Z</time>
      </trkpt>
      <trkpt lat="48.62466" lon="-4.51077">
        <ele>3.2</ele>
        <time>2020-08-18T14:07:42Z</time>
      </trkpt>
      <trkpt lat="48.62466" lon="-4.51077">
        <ele>3.2</ele>
        <time>2020-08-18T14:07:45Z</time>
      </trkpt>
      <trkpt lat="48.62466" lon="-4.51077">
        <ele>3.2</ele>
        <time>2020-08-18T14:07:51Z</time>
      </trkpt>
      <trkpt lat="48.62466" lon="-4.51077">
        <ele>3.2</ele>
        <time>2020-08-18T14:07:55Z</time>
      </trkpt>
      <trkpt lat="48.62466" lon="-4.51077">
        <ele>3.2</ele>
        <time>2020-08-18T14:07:56Z</time>
      </trkpt>
      <trkpt lat="48.62467" lon="-4.51053">
        <ele>3.2</ele>
        <time>2020-08-18T14:08:00Z</time>
      </trkpt>
      <trkpt lat="48.62466" lon="-4.51077">
        <ele>3.2</ele>
        <time>2020-08-18T14:14:44Z</time>
      </trkpt>
      <trkpt lat="48.62466" lon="-4.51077">
        <ele>3.2</ele>
        <time>2020-08-18T14:15:00Z</time>
      </trkpt>
      <trkpt lat="48.62466" lon="-4.51077">
        <ele>3.2</ele>
        <time>2020-08-18T14:15:03Z</time>
      </trkpt>
      <trkpt lat="48.62458" lon="-4.51067">
        <ele>3.4</ele>
        <time>2020-08-18T14:15:24Z</time>
      </trkpt>
      <trkpt lat="48.62441" lon="-4.51056">
        <ele>3.7</ele>
        <time>2020-08-18T14:15:34Z</time>
      </trkpt>
      <trkpt lat="48.62423" lon="-4.5105">
        <ele>3.8</ele>
        <time>2020-08-18T14:15:42Z</time>
      </trkpt>
      <trkpt lat="48.62405" lon="-4.51045">
        <ele>3.9</ele>
        <time>2020-08-18T14:15:50Z</time>
      </trkpt>
      <trkpt lat="48.62386" lon="-4.51047">
        <ele>3.8</ele>
        <time>2020-08-18T14:15:57Z</time>
      </trkpt>
      <trkpt lat="48.62362" lon="-4.51053">
        <ele>3.8</ele>
        <time>2020-08-18T14:16:04Z</time>
      </trkpt>
      <trkpt lat="48.62347" lon="-4.51037">
        <ele>3.6</ele>
        <time>2020-08-18T14:16:10Z</time>
      </trkpt>
      <trkpt lat="48.62338" lon="-4.51023">
        <ele>3.5</ele>
        <time>2020-08-18T14:16:15Z</time>
      </trkpt>
      <trkpt lat="48.62314" lon="-4.51015">
        <ele>3.7</ele>
        <time>2020-08-18T14:16:24Z</time>
      </trkpt>
      <trkpt lat="48.62294" lon="-4.51011">
        <ele>4</ele>
        <time>2020-08-18T14:16:32Z</time>
      </trkpt>
      <trkpt lat="48.62278" lon="-4.51008">
        <ele>4.2</ele>
        <time>2020-08-18T14:16:39Z</time>
      </trkpt>
      <trkpt lat="48.62265" lon="-4.51005">
        <ele>4.5</ele>
        <time>2020-08-18T14:16:44Z</time>
      </trkpt>
      <trkpt lat="48.62249" lon="-4.51025">
        <ele>6</ele>
        <time>2020-08-18T14:16:50Z</time>
      </trkpt>
      <trkpt lat="48.62239" lon="-4.51046">
        <ele>6.1</ele>
        <time>2020-08-18T14:16:57Z</time>
      </trkpt>
      <trkpt lat="48.62229" lon="-4.51059">
        <ele>6.1</ele>
        <time>2020-08-18T14:17:05Z</time>
      </trkpt>
      <trkpt lat="48.62213" lon="-4.51056">
        <ele>6.7</ele>
        <time>2020-08-18T14:17:14Z</time>
      </trkpt>
      <trkpt lat="48.62203" lon="-4.51054">
        <ele>7</ele>
        <time>2020-08-18T14:17:20Z</time>
      </trkpt>
      <trkpt lat="48.62196" lon="-4.51053">
        <ele>7.2</ele>
        <time>2020-08-18T14:17:25Z</time>
      </trkpt>
      <trkpt lat="48.62189" lon="-4.51037">
        <ele>7.6</ele>
        <time>2020-08-18T14:17:31Z</time>
      </trkpt>
      <trkpt lat="48.62191" lon="-4.5103">
        <ele>7.7</ele>
        <time>2020-08-18T14:17:35Z</time>
      </trkpt>
      <trkpt lat="48.622" lon="-4.50996">
        <ele>8.9</ele>
        <time>2020-08-18T14:17:45Z</time>
      </trkpt>
      <trkpt lat="48.6221" lon="-4.50959">
        <ele>8.7</ele>
        <time>2020-08-18T14:17:53Z</time>
      </trkpt>
      <trkpt lat="48.62217" lon="-4.50935">
        <ele>8.5</ele>
        <time>2020-08-18T14:17:58Z</time>
      </trkpt>
      <trkpt lat="48.62229" lon="-4.50892">
        <ele>9</ele>
        <time>2020-08-18T14:18:06Z</time>
      </trkpt>
      <trkpt lat="48.62237" lon="-4.50854">
        <ele>8.6</ele>
        <time>2020-08-18T14:18:13Z</time>
      </trkpt>
      <trkpt lat="48.62243" lon="-4.50828">
        <ele>7.2</ele>
        <time>2020-08-18T14:18:19Z</time>
      </trkpt>
      <trkpt lat="48.62245" lon="-4.50807">
        <ele>8.3</ele>
        <time>2020-08-18T14:18:24Z</time>
      </trkpt>
      <trkpt lat="48.62243" lon="-4.50772">
        <ele>7.8</ele>
        <time>2020-08-18T14:18:32Z</time>
      </trkpt>
      <trkpt lat="48.62242" lon="-4.50766">
        <ele>7.4</ele>
        <time>2020-08-18T14:18:33Z</time>
      </trkpt>
      <trkpt lat="48.6223" lon="-4.50747">
        <ele>6.6</ele>
        <time>2020-08-18T14:18:38Z</time>
      </trkpt>
      <trkpt lat="48.62206" lon="-4.50735">
        <ele>8.1</ele>
        <time>2020-08-18T14:18:46Z</time>
      </trkpt>
      <trkpt lat="48.62192" lon="-4.50723">
        <ele>8.6</ele>
        <time>2020-08-18T14:18:53Z</time>
      </trkpt>
      <trkpt lat="48.62182" lon="-4.50725">
        <ele>9.2</ele>
        <time>2020-08-18T14:18:59Z</time>
      </trkpt>
      <trkpt lat="48.62164" lon="-4.50726">
        <ele>12.5</ele>
        <time>2020-08-18T14:19:07Z</time>
      </trkpt>
      <trkpt lat="48.62144" lon="-4.50722">
        <ele>12.5</ele>
        <time>2020-08-18T14:19:14Z</time>
      </trkpt>
      <trkpt lat="48.6211" lon="-4.5071">
        <ele>12.8</ele>
        <time>2020-08-18T14:19:25Z</time>
      </trkpt>
      <trkpt lat="48.62085" lon="-4.50696">
        <ele>12.7</ele>
        <time>2020-08-18T14:19:34Z</time>
      </trkpt>
      <trkpt lat="48.62057" lon="-4.50676">
        <ele>15.4</ele>
        <time>2020-08-18T14:19:45Z</time>
      </trkpt>
      <trkpt lat="48.6204" lon="-4.50662">
        <ele>15.1</ele>
        <time>2020-08-18T14:19:52Z</time>
      </trkpt>
      <trkpt lat="48.62019" lon="-4.50644">
        <ele>16.1</ele>
        <time>2020-08-18T14:20:01Z</time>
      </trkpt>
      <trkpt lat="48.62" lon="-4.50625">
        <ele>21.2</ele>
        <time>2020-08-18T14:20:10Z</time>
      </trkpt>
      <trkpt lat="48.61985" lon="-4.50608">
        <ele>21.3</ele>
        <time>2020-08-18T14:20:18Z</time>
      </trkpt>
      <trkpt lat="48.61975" lon="-4.50597">
        <ele>21.6</ele>
        <time>2020-08-18T14:20:24Z</time>
      </trkpt>
      <trkpt lat="48.61962" lon="-4.50583">
        <ele>22.3</ele>
        <time>2020-08-18T14:20:32Z</time>
      </trkpt>
      <trkpt lat="48.61946" lon="-4.50565">
        <ele>23.1</ele>
        <time>2020-08-18T14:20:43Z</time>
      </trkpt>
      <trkpt lat="48.61932" lon="-4.5055">
        <ele>23.3</ele>
        <time>2020-08-18T14:20:52Z</time>
      </trkpt>
      <trkpt lat="48.61918" lon="-4.50535">
        <ele>23.1</ele>
        <time>2020-08-18T14:21:01Z</time>
      </trkpt>
      <trkpt lat="48.61901" lon="-4.50524">
        <ele>25.4</ele>
        <time>2020-08-18T14:21:10Z</time>
      </trkpt>
      <trkpt lat="48.61884" lon="-4.50517">
        <ele>25.6</ele>
        <time>2020-08-18T14:21:19Z</time>
      </trkpt>
      <trkpt lat="48.61864" lon="-4.50514">
        <ele>25.9</ele>
        <time>2020-08-18T14:21:28Z</time>
      </trkpt>
      <trkpt lat="48.61849" lon="-4.50527">
        <ele>26.3</ele>
        <time>2020-08-18T14:21:38Z</time>
      </trkpt>
      <trkpt lat="48.61833" lon="-4.50536">
        <ele>28.8</ele>
        <time>2020-08-18T14:21:48Z</time>
      </trkpt>
      <trkpt lat="48.61816" lon="-4.50543">
        <ele>29.3</ele>
        <time>2020-08-18T14:21:58Z</time>
      </trkpt>
      <trkpt lat="48.61803" lon="-4.50548">
        <ele>29.7</ele>
        <time>2020-08-18T14:22:06Z</time>
      </trkpt>
      <trkpt lat="48.6179" lon="-4.50552">
        <ele>30.1</ele>
        <time>2020-08-18T14:22:14Z</time>
      </trkpt>
      <trkpt lat="48.61775" lon="-4.50549">
        <ele>30.4</ele>
        <time>2020-08-18T14:22:22Z</time>
      </trkpt>
      <trkpt lat="48.61756" lon="-4.50543">
        <ele>30.4</ele>
        <time>2020-08-18T14:22:31Z</time>
      </trkpt>
      <trkpt lat="48.61737" lon="-4.50539">
        <ele>31.6</ele>
        <time>2020-08-18T14:22:40Z</time>
      </trkpt>
      <trkpt lat="48.61719" lon="-4.50539">
        <ele>31.6</ele>
        <time>2020-08-18T14:22:49Z</time>
      </trkpt>
      <trkpt lat="48.61704" lon="-4.50546">
        <ele>31.8</ele>
        <time>2020-08-18T14:22:57Z</time>
      </trkpt>
      <trkpt lat="48.61696" lon="-4.5055">
        <ele>31.9</ele>
        <time>2020-08-18T14:23:01Z</time>
      </trkpt>
      <trkpt lat="48.61684" lon="-4.50558">
        <ele>32.1</ele>
        <time>2020-08-18T14:23:08Z</time>
      </trkpt>
      <trkpt lat="48.61669" lon="-4.50577">
        <ele>32.7</ele>
        <time>2020-08-18T14:23:17Z</time>
      </trkpt>
      <trkpt lat="48.61661" lon="-4.50586">
        <ele>32.7</ele>
        <time>2020-08-18T14:23:24Z</time>
      </trkpt>
      <trkpt lat="48.61656" lon="-4.50591">
        <ele>32.4</ele>
        <time>2020-08-18T14:23:30Z</time>
      </trkpt>
      <trkpt lat="48.61652" lon="-4.50595">
        <ele>32.3</ele>
        <time>2020-08-18T14:23:35Z</time>
      </trkpt>
      <trkpt lat="48.61651" lon="-4.50596">
        <ele>32.2</ele>
        <time>2020-08-18T14:23:45Z</time>
      </trkpt>
      <trkpt lat="48.61641" lon="-4.50603">
        <ele>31.9</ele>
        <time>2020-08-18T14:23:51Z</time>
      </trkpt>
      <trkpt lat="48.61622" lon="-4.50615">
        <ele>31.6</ele>
        <time>2020-08-18T14:23:58Z</time>
      </trkpt>
      <trkpt lat="48.61599" lon="-4.5063">
        <ele>31.1</ele>
        <time>2020-08-18T14:24:05Z</time>
      </trkpt>
      <trkpt lat="48.61586" lon="-4.5064">
        <ele>30.7</ele>
        <time>2020-08-18T14:24:08Z</time>
      </trkpt>
      <trkpt lat="48.61549" lon="-4.50676">
        <ele>28.9</ele>
        <time>2020-08-18T14:24:15Z</time>
      </trkpt>
      <trkpt lat="48.61529" lon="-4.50696">
        <ele>29</ele>
        <time>2020-08-18T14:24:20Z</time>
      </trkpt>
      <trkpt lat="48.61515" lon="-4.50711">
        <ele>28.9</ele>
        <time>2020-08-18T14:24:26Z</time>
      </trkpt>
      <trkpt lat="48.61498" lon="-4.50726">
        <ele>30.3</ele>
        <time>2020-08-18T14:24:34Z</time>
      </trkpt>
      <trkpt lat="48.61473" lon="-4.50748">
        <ele>30.6</ele>
        <time>2020-08-18T14:24:45Z</time>
      </trkpt>
      <trkpt lat="48.61451" lon="-4.50768">
        <ele>30.7</ele>
        <time>2020-08-18T14:24:55Z</time>
      </trkpt>
      <trkpt lat="48.61431" lon="-4.50781">
        <ele>31.1</ele>
        <time>2020-08-18T14:25:04Z</time>
      </trkpt>
      <trkpt lat="48.61416" lon="-4.50776">
        <ele>33.2</ele>
        <time>2020-08-18T14:25:11Z</time>
      </trkpt>
      <trkpt lat="48.61406" lon="-4.50763">
        <ele>33.2</ele>
        <time>2020-08-18T14:25:18Z</time>
      </trkpt>
      <trkpt lat="48.61398" lon="-4.50746">
        <ele>33.6</ele>
        <time>2020-08-18T14:25:25Z</time>
      </trkpt>
      <trkpt lat="48.6139" lon="-4.50723">
        <ele>33.8</ele>
        <time>2020-08-18T14:25:33Z</time>
      </trkpt>
      <trkpt lat="48.6138" lon="-4.50694">
        <ele>33.9</ele>
        <time>2020-08-18T14:25:41Z</time>
      </trkpt>
      <trkpt lat="48.6137" lon="-4.50657">
        <ele>33.9</ele>
        <time>2020-08-18T14:25:49Z</time>
      </trkpt>
      <trkpt lat="48.61357" lon="-4.50615">
        <ele>34</ele>
        <time>2020-08-18T14:25:59Z</time>
      </trkpt>
      <trkpt lat="48.61349" lon="-4.50592">
        <ele>34.3</ele>
        <time>2020-08-18T14:26:04Z</time>
      </trkpt>
      <trkpt lat="48.61326" lon="-4.50539">
        <ele>35.3</ele>
        <time>2020-08-18T14:26:15Z</time>
      </trkpt>
      <trkpt lat="48.61309" lon="-4.50519">
        <ele>35.3</ele>
        <time>2020-08-18T14:26:21Z</time>
      </trkpt>
      <trkpt lat="48.61288" lon="-4.50508">
        <ele>35.8</ele>
        <time>2020-08-18T14:26:29Z</time>
      </trkpt>
      <trkpt lat="48.61271" lon="-4.50507">
        <ele>36.2</ele>
        <time>2020-08-18T14:26:37Z</time>
      </trkpt>
      <trkpt lat="48.61254" lon="-4.50506">
        <ele>36.7</ele>
        <time>2020-08-18T14:26:45Z</time>
      </trkpt>
      <trkpt lat="48.61233" lon="-4.50502">
        <ele>37.6</ele>
        <time>2020-08-18T14:26:54Z</time>
      </trkpt>
      <trkpt lat="48.6122" lon="-4.50507">
        <ele>37.9</ele>
        <time>2020-08-18T14:26:59Z</time>
      </trkpt>
      <trkpt lat="48.61213" lon="-4.50545">
        <ele>38.2</ele>
        <time>2020-08-18T14:27:06Z</time>
      </trkpt>
      <trkpt lat="48.61214" lon="-4.5057">
        <ele>38.2</ele>
        <time>2020-08-18T14:27:12Z</time>
      </trkpt>
      <trkpt lat="48.61207" lon="-4.50586">
        <ele>38.2</ele>
        <time>2020-08-18T14:27:17Z</time>
      </trkpt>
      <trkpt lat="48.61193" lon="-4.50594">
        <ele>38.6</ele>
        <time>2020-08-18T14:27:23Z</time>
      </trkpt>
      <trkpt lat="48.61161" lon="-4.50592">
        <ele>40.5</ele>
        <time>2020-08-18T14:27:35Z</time>
      </trkpt>
      <trkpt lat="48.61139" lon="-4.5059">
        <ele>41.2</ele>
        <time>2020-08-18T14:27:43Z</time>
      </trkpt>
      <trkpt lat="48.61113" lon="-4.50588">
        <ele>42.1</ele>
        <time>2020-08-18T14:27:53Z</time>
      </trkpt>
      <trkpt lat="48.611" lon="-4.50588">
        <ele>42.7</ele>
        <time>2020-08-18T14:27:58Z</time>
      </trkpt>
      <trkpt lat="48.61074" lon="-4.50592">
        <ele>44.4</ele>
        <time>2020-08-18T14:28:08Z</time>
      </trkpt>
      <trkpt lat="48.61052" lon="-4.50598">
        <ele>44.9</ele>
        <time>2020-08-18T14:28:17Z</time>
      </trkpt>
      <trkpt lat="48.61031" lon="-4.50605">
        <ele>45.4</ele>
        <time>2020-08-18T14:28:26Z</time>
      </trkpt>
      <trkpt lat="48.61014" lon="-4.50611">
        <ele>45.6</ele>
        <time>2020-08-18T14:28:34Z</time>
      </trkpt>
      <trkpt lat="48.61002" lon="-4.50616">
        <ele>45.7</ele>
        <time>2020-08-18T14:28:40Z</time>
      </trkpt>
      <trkpt lat="48.60981" lon="-4.50626">
        <ele>48.2</ele>
        <time>2020-08-18T14:28:49Z</time>
      </trkpt>
      <trkpt lat="48.60967" lon="-4.50633">
        <ele>48.5</ele>
        <time>2020-08-18T14:28:55Z</time>
      </trkpt>
      <trkpt lat="48.60949" lon="-4.50646">
        <ele>49</ele>
        <time>2020-08-18T14:29:03Z</time>
      </trkpt>
      <trkpt lat="48.60932" lon="-4.5066">
        <ele>49.8</ele>
        <time>2020-08-18T14:29:11Z</time>
      </trkpt>
      <trkpt lat="48.60914" lon="-4.50678">
        <ele>51.8</ele>
        <time>2020-08-18T14:29:20Z</time>
      </trkpt>
      <trkpt lat="48.60899" lon="-4.50694">
        <ele>52.5</ele>
        <time>2020-08-18T14:29:28Z</time>
      </trkpt>
      <trkpt lat="48.60885" lon="-4.50709">
        <ele>52.8</ele>
        <time>2020-08-18T14:29:35Z</time>
      </trkpt>
      <trkpt lat="48.60868" lon="-4.50726">
        <ele>52.9</ele>
        <time>2020-08-18T14:29:43Z</time>
      </trkpt>
      <trkpt lat="48.60846" lon="-4.50749">
        <ele>53</ele>
        <time>2020-08-18T14:29:54Z</time>
      </trkpt>
      <trkpt lat="48.60835" lon="-4.50762">
        <ele>52.5</ele>
        <time>2020-08-18T14:30:00Z</time>
      </trkpt>
      <trkpt lat="48.60818" lon="-4.5078">
        <ele>54.7</ele>
        <time>2020-08-18T14:30:09Z</time>
      </trkpt>
      <trkpt lat="48.60813" lon="-4.50785">
        <ele>54.9</ele>
        <time>2020-08-18T14:30:13Z</time>
      </trkpt>
      <trkpt lat="48.60812" lon="-4.50787">
        <ele>54.9</ele>
        <time>2020-08-18T14:31:17Z</time>
      </trkpt>
      <trkpt lat="48.60812" lon="-4.50787">
        <ele>54.9</ele>
        <time>2020-08-18T14:31:18Z</time>
      </trkpt>
      <trkpt lat="48.60804" lon="-4.50792">
        <ele>55.1</ele>
        <time>2020-08-18T14:31:29Z</time>
      </trkpt>
      <trkpt lat="48.60793" lon="-4.50777">
        <ele>55.5</ele>
        <time>2020-08-18T14:31:36Z</time>
      </trkpt>
      <trkpt lat="48.6078" lon="-4.50762">
        <ele>56.2</ele>
        <time>2020-08-18T14:31:44Z</time>
      </trkpt>
      <trkpt lat="48.60763" lon="-4.50748">
        <ele>58.3</ele>
        <time>2020-08-18T14:31:55Z</time>
      </trkpt>
      <trkpt lat="48.6075" lon="-4.50739">
        <ele>58.5</ele>
        <time>2020-08-18T14:32:02Z</time>
      </trkpt>
      <trkpt lat="48.6074" lon="-4.50731">
        <ele>60</ele>
        <time>2020-08-18T14:32:09Z</time>
      </trkpt>
      <trkpt lat="48.60733" lon="-4.50729">
        <ele>60.1</ele>
        <time>2020-08-18T14:32:13Z</time>
      </trkpt>
      <trkpt lat="48.60731" lon="-4.50736">
        <ele>60</ele>
        <time>2020-08-18T14:32:15Z</time>
      </trkpt>
      <trkpt lat="48.60724" lon="-4.50763">
        <ele>59</ele>
        <time>2020-08-18T14:32:22Z</time>
      </trkpt>
      <trkpt lat="48.60716" lon="-4.50774">
        <ele>59</ele>
        <time>2020-08-18T14:32:28Z</time>
      </trkpt>
      <trkpt lat="48.60697" lon="-4.50779">
        <ele>59.2</ele>
        <time>2020-08-18T14:32:36Z</time>
      </trkpt>
      <trkpt lat="48.60689" lon="-4.50782">
        <ele>59.3</ele>
        <time>2020-08-18T14:32:40Z</time>
      </trkpt>
      <trkpt lat="48.60676" lon="-4.50761">
        <ele>59.6</ele>
        <time>2020-08-18T14:32:47Z</time>
      </trkpt>
      <trkpt lat="48.60663" lon="-4.50737">
        <ele>60.8</ele>
        <time>2020-08-18T14:32:56Z</time>
      </trkpt>
      <trkpt lat="48.60653" lon="-4.50721">
        <ele>61.4</ele>
        <time>2020-08-18T14:33:03Z</time>
      </trkpt>
      <trkpt lat="48.60637" lon="-4.50708">
        <ele>61.7</ele>
        <time>2020-08-18T14:33:10Z</time>
      </trkpt>
      <trkpt lat="48.60624" lon="-4.507">
        <ele>61.9</ele>
        <time>2020-08-18T14:33:16Z</time>
      </trkpt>
      <trkpt lat="48.60608" lon="-4.50693">
        <ele>62</ele>
        <time>2020-08-18T14:33:22Z</time>
      </trkpt>
      <trkpt lat="48.60624" lon="-4.507">
        <ele>61.9</ele>
        <time>2020-08-18T14:33:29Z</time>
      </trkpt>
      <trkpt lat="48.60624" lon="-4.507">
        <ele>61.9</ele>
        <time>2020-08-18T14:33:36Z</time>
      </trkpt>
      <trkpt lat="48.60569" lon="-4.50683">
        <ele>61.5</ele>
        <time>2020-08-18T14:33:40Z</time>
      </trkpt>
      <trkpt lat="48.60569" lon="-4.50683">
        <ele>61.5</ele>
        <time>2020-08-18T14:33:46Z</time>
      </trkpt>
      <trkpt lat="48.60569" lon="-4.50683">
        <ele>61.5</ele>
        <time>2020-08-18T14:33:52Z</time>
      </trkpt>
      <trkpt lat="48.60569" lon="-4.50683">
        <ele>61.5</ele>
        <time>2020-08-18T14:33:53Z</time>
      </trkpt>
      <trkpt lat="48.60575" lon="-4.50684">
        <ele>61.6</ele>
        <time>2020-08-18T14:44:48Z</time>
      </trkpt>
      <trkpt lat="48.60575" lon="-4.50684">
        <ele>61.6</ele>
        <time>2020-08-18T14:44:52Z</time>
      </trkpt>
      <trkpt lat="48.60555" lon="-4.50678">
        <ele>61.1</ele>
        <time>2020-08-18T14:45:12Z</time>
      </trkpt>
      <trkpt lat="48.60536" lon="-4.50671">
        <ele>60.5</ele>
        <time>2020-08-18T14:45:20Z</time>
      </trkpt>
      <trkpt lat="48.60504" lon="-4.50618">
        <ele>60.9</ele>
        <time>2020-08-18T14:45:27Z</time>
      </trkpt>
      <trkpt lat="48.60512" lon="-4.50646">
        <ele>60.4</ele>
        <time>2020-08-18T14:45:33Z</time>
      </trkpt>
      <trkpt lat="48.60512" lon="-4.50642">
        <ele>60.5</ele>
        <time>2020-08-18T14:45:34Z</time>
      </trkpt>
      <trkpt lat="48.60495" lon="-4.50605">
        <ele>59.3</ele>
        <time>2020-08-18T14:45:44Z</time>
      </trkpt>
      <trkpt lat="48.60484" lon="-4.50577">
        <ele>59.4</ele>
        <time>2020-08-18T14:45:50Z</time>
      </trkpt>
      <trkpt lat="48.60472" lon="-4.50531">
        <ele>58.1</ele>
        <time>2020-08-18T14:45:57Z</time>
      </trkpt>
      <trkpt lat="48.60436" lon="-4.50462">
        <ele>56.1</ele>
        <time>2020-08-18T14:46:06Z</time>
      </trkpt>
      <trkpt lat="48.60398" lon="-4.50371">
        <ele>50.7</ele>
        <time>2020-08-18T14:46:17Z</time>
      </trkpt>
      <trkpt lat="48.60385" lon="-4.5034">
        <ele>50.3</ele>
        <time>2020-08-18T14:46:24Z</time>
      </trkpt>
      <trkpt lat="48.60385" lon="-4.5034">
        <ele>50.3</ele>
        <time>2020-08-18T14:46:27Z</time>
      </trkpt>
      <trkpt lat="48.60344" lon="-4.5027">
        <ele>49.5</ele>
        <time>2020-08-18T14:46:32Z</time>
      </trkpt>
      <trkpt lat="48.60336" lon="-4.50261">
        <ele>48.9</ele>
        <time>2020-08-18T14:46:36Z</time>
      </trkpt>
      <trkpt lat="48.60306" lon="-4.50236">
        <ele>46.6</ele>
        <time>2020-08-18T14:46:40Z</time>
      </trkpt>
      <trkpt lat="48.60304" lon="-4.50212">
        <ele>46.6</ele>
        <time>2020-08-18T14:46:43Z</time>
      </trkpt>
      <trkpt lat="48.6031" lon="-4.50187">
        <ele>47.2</ele>
        <time>2020-08-18T14:46:49Z</time>
      </trkpt>
      <trkpt lat="48.60287" lon="-4.50152">
        <ele>47</ele>
        <time>2020-08-18T14:46:55Z</time>
      </trkpt>
      <trkpt lat="48.60266" lon="-4.50119">
        <ele>46.5</ele>
        <time>2020-08-18T14:47:00Z</time>
      </trkpt>
      <trkpt lat="48.60265" lon="-4.50116">
        <ele>46.5</ele>
        <time>2020-08-18T14:47:08Z</time>
      </trkpt>
      <trkpt lat="48.60265" lon="-4.50116">
        <ele>46.5</ele>
        <time>2020-08-18T14:47:10Z</time>
      </trkpt>
      <trkpt lat="48.60202" lon="-4.50033">
        <ele>45.6</ele>
        <time>2020-08-18T14:47:14Z</time>
      </trkpt>
      <trkpt lat="48.60189" lon="-4.50036">
        <ele>45.5</ele>
        <time>2020-08-18T14:47:18Z</time>
      </trkpt>
      <trkpt lat="48.60187" lon="-4.50038">
        <ele>45.5</ele>
        <time>2020-08-18T14:47:21Z</time>
      </trkpt>
      <trkpt lat="48.60187" lon="-4.50038">
        <ele>45.5</ele>
        <time>2020-08-18T14:47:28Z</time>
      </trkpt>
      <trkpt lat="48.60187" lon="-4.50038">
        <ele>45.5</ele>
        <time>2020-08-18T14:47:32Z</time>
      </trkpt>
      <trkpt lat="48.60186" lon="-4.50038">
        <ele>45.5</ele>
        <time>2020-08-18T14:47:36Z</time>
      </trkpt>
      <trkpt lat="48.60176" lon="-4.5005">
        <ele>45.4</ele>
        <time>2020-08-18T14:47:44Z</time>
      </trkpt>
      <trkpt lat="48.60165" lon="-4.5006">
        <ele>46.5</ele>
        <time>2020-08-18T14:47:50Z</time>
      </trkpt>
      <trkpt lat="48.60151" lon="-4.5007">
        <ele>46.5</ele>
        <time>2020-08-18T14:47:57Z</time>
      </trkpt>
      <trkpt lat="48.60128" lon="-4.5008">
        <ele>47.4</ele>
        <time>2020-08-18T14:48:07Z</time>
      </trkpt>
      <trkpt lat="48.60111" lon="-4.50083">
        <ele>48</ele>
        <time>2020-08-18T14:48:14Z</time>
      </trkpt>
      <trkpt lat="48.6009" lon="-4.50087">
        <ele>48.3</ele>
        <time>2020-08-18T14:48:22Z</time>
      </trkpt>
      <trkpt lat="48.60069" lon="-4.50097">
        <ele>49.6</ele>
        <time>2020-08-18T14:48:30Z</time>
      </trkpt>
      <trkpt lat="48.60045" lon="-4.50114">
        <ele>50</ele>
        <time>2020-08-18T14:48:41Z</time>
      </trkpt>
      <trkpt lat="48.60027" lon="-4.50131">
        <ele>50.2</ele>
        <time>2020-08-18T14:48:50Z</time>
      </trkpt>
      <trkpt lat="48.60009" lon="-4.50148">
        <ele>50.5</ele>
        <time>2020-08-18T14:48:58Z</time>
      </trkpt>
      <trkpt lat="48.5999" lon="-4.5017">
        <ele>50.8</ele>
        <time>2020-08-18T14:49:07Z</time>
      </trkpt>
      <trkpt lat="48.59975" lon="-4.50187">
        <ele>50.6</ele>
        <time>2020-08-18T14:49:14Z</time>
      </trkpt>
      <trkpt lat="48.59954" lon="-4.50211">
        <ele>50.5</ele>
        <time>2020-08-18T14:49:23Z</time>
      </trkpt>
      <trkpt lat="48.5993" lon="-4.50232">
        <ele>50.7</ele>
        <time>2020-08-18T14:49:31Z</time>
      </trkpt>
      <trkpt lat="48.59907" lon="-4.50248">
        <ele>51.3</ele>
        <time>2020-08-18T14:49:39Z</time>
      </trkpt>
      <trkpt lat="48.59907" lon="-4.50248">
        <ele>51.3</ele>
        <time>2020-08-18T14:49:47Z</time>
      </trkpt>
      <trkpt lat="48.59851" lon="-4.5028">
        <ele>51.2</ele>
        <time>2020-08-18T14:49:58Z</time>
      </trkpt>
      <trkpt lat="48.59828" lon="-4.50292">
        <ele>52.9</ele>
        <time>2020-08-18T14:50:07Z</time>
      </trkpt>
      <trkpt lat="48.59809" lon="-4.50301">
        <ele>53.2</ele>
        <time>2020-08-18T14:50:15Z</time>
      </trkpt>
      <trkpt lat="48.59793" lon="-4.50309">
        <ele>53.6</ele>
        <time>2020-08-18T14:50:22Z</time>
      </trkpt>
      <trkpt lat="48.59775" lon="-4.50318">
        <ele>54</ele>
        <time>2020-08-18T14:50:30Z</time>
      </trkpt>
      <trkpt lat="48.59749" lon="-4.50331">
        <ele>55.3</ele>
        <time>2020-08-18T14:50:42Z</time>
      </trkpt>
      <trkpt lat="48.59743" lon="-4.50334">
        <ele>55.6</ele>
        <time>2020-08-18T14:50:45Z</time>
      </trkpt>
      <trkpt lat="48.59722" lon="-4.50343">
        <ele>56.8</ele>
        <time>2020-08-18T14:50:54Z</time>
      </trkpt>
      <trkpt lat="48.59693" lon="-4.50357">
        <ele>57.8</ele>
        <time>2020-08-18T14:51:06Z</time>
      </trkpt>
      <trkpt lat="48.59671" lon="-4.50365">
        <ele>58.2</ele>
        <time>2020-08-18T14:51:15Z</time>
      </trkpt>
      <trkpt lat="48.5965" lon="-4.50372">
        <ele>60.4</ele>
        <time>2020-08-18T14:51:24Z</time>
      </trkpt>
      <trkpt lat="48.59621" lon="-4.50382">
        <ele>60.8</ele>
        <time>2020-08-18T14:51:35Z</time>
      </trkpt>
      <trkpt lat="48.59594" lon="-4.5039">
        <ele>61.2</ele>
        <time>2020-08-18T14:51:45Z</time>
      </trkpt>
      <trkpt lat="48.59563" lon="-4.50401">
        <ele>61.6</ele>
        <time>2020-08-18T14:51:56Z</time>
      </trkpt>
      <trkpt lat="48.59536" lon="-4.50411">
        <ele>61.2</ele>
        <time>2020-08-18T14:52:05Z</time>
      </trkpt>
      <trkpt lat="48.5951" lon="-4.50419">
        <ele>60.1</ele>
        <time>2020-08-18T14:52:14Z</time>
      </trkpt>
      <trkpt lat="48.59485" lon="-4.50426">
        <ele>58.9</ele>
        <time>2020-08-18T14:52:22Z</time>
      </trkpt>
      <trkpt lat="48.59456" lon="-4.50433">
        <ele>57.9</ele>
        <time>2020-08-18T14:52:31Z</time>
      </trkpt>
      <trkpt lat="48.59439" lon="-4.50436">
        <ele>57.5</ele>
        <time>2020-08-18T14:52:36Z</time>
      </trkpt>
      <trkpt lat="48.5943" lon="-4.50437">
        <ele>57.4</ele>
        <time>2020-08-18T14:52:41Z</time>
      </trkpt>
      <trkpt lat="48.5943" lon="-4.50437">
        <ele>57.4</ele>
        <time>2020-08-18T14:52:43Z</time>
      </trkpt>
      <trkpt lat="48.59425" lon="-4.50457">
        <ele>57.2</ele>
        <time>2020-08-18T14:53:42Z</time>
      </trkpt>
      <trkpt lat="48.59423" lon="-4.5048">
        <ele>56.5</ele>
        <time>2020-08-18T14:53:47Z</time>
      </trkpt>
      <trkpt lat="48.59417" lon="-4.5052">
        <ele>55.5</ele>
        <time>2020-08-18T14:53:54Z</time>
      </trkpt>
      <trkpt lat="48.59412" lon="-4.50556">
        <ele>52.6</ele>
        <time>2020-08-18T14:54:01Z</time>
      </trkpt>
      <trkpt lat="48.59406" lon="-4.50596">
        <ele>52.6</ele>
        <time>2020-08-18T14:54:08Z</time>
      </trkpt>
      <trkpt lat="48.59402" lon="-4.50623">
        <ele>51.9</ele>
        <time>2020-08-18T14:54:12Z</time>
      </trkpt>
      <trkpt lat="48.59397" lon="-4.50695">
        <ele>52</ele>
        <time>2020-08-18T14:54:23Z</time>
      </trkpt>
      <trkpt lat="48.59401" lon="-4.50724">
        <ele>52.2</ele>
        <time>2020-08-18T14:54:28Z</time>
      </trkpt>
      <trkpt lat="48.59403" lon="-4.50736">
        <ele>52.5</ele>
        <time>2020-08-18T14:54:34Z</time>
      </trkpt>
      <trkpt lat="48.59379" lon="-4.50782">
        <ele>52.5</ele>
        <time>2020-08-18T14:54:41Z</time>
      </trkpt>
      <trkpt lat="48.59371" lon="-4.50818">
        <ele>52.7</ele>
        <time>2020-08-18T14:54:50Z</time>
      </trkpt>
      <trkpt lat="48.59363" lon="-4.50849">
        <ele>53.9</ele>
        <time>2020-08-18T14:54:59Z</time>
      </trkpt>
      <trkpt lat="48.59353" lon="-4.50887">
        <ele>54.3</ele>
        <time>2020-08-18T14:55:10Z</time>
      </trkpt>
      <trkpt lat="48.59341" lon="-4.5092">
        <ele>54.3</ele>
        <time>2020-08-18T14:55:20Z</time>
      </trkpt>
      <trkpt lat="48.59327" lon="-4.50947">
        <ele>54</ele>
        <time>2020-08-18T14:55:28Z</time>
      </trkpt>
      <trkpt lat="48.59309" lon="-4.50979">
        <ele>54</ele>
        <time>2020-08-18T14:55:37Z</time>
      </trkpt>
      <trkpt lat="48.59299" lon="-4.51">
        <ele>54</ele>
        <time>2020-08-18T14:55:43Z</time>
      </trkpt>
      <trkpt lat="48.59286" lon="-4.51026">
        <ele>54.2</ele>
        <time>2020-08-18T14:55:51Z</time>
      </trkpt>
      <trkpt lat="48.59277" lon="-4.51047">
        <ele>54.3</ele>
        <time>2020-08-18T14:55:57Z</time>
      </trkpt>
      <trkpt lat="48.59266" lon="-4.51073">
        <ele>54.6</ele>
        <time>2020-08-18T14:56:05Z</time>
      </trkpt>
      <trkpt lat="48.59253" lon="-4.51108">
        <ele>54.3</ele>
        <time>2020-08-18T14:56:15Z</time>
      </trkpt>
      <trkpt lat="48.59241" lon="-4.51147">
        <ele>53.5</ele>
        <time>2020-08-18T14:56:25Z</time>
      </trkpt>
      <trkpt lat="48.5923" lon="-4.51192">
        <ele>52.5</ele>
        <time>2020-08-18T14:56:36Z</time>
      </trkpt>
      <trkpt lat="48.59219" lon="-4.51229">
        <ele>52.1</ele>
        <time>2020-08-18T14:56:44Z</time>
      </trkpt>
      <trkpt lat="48.59205" lon="-4.51259">
        <ele>51.3</ele>
        <time>2020-08-18T14:56:52Z</time>
      </trkpt>
      <trkpt lat="48.59187" lon="-4.51297">
        <ele>50.9</ele>
        <time>2020-08-18T14:57:02Z</time>
      </trkpt>
      <trkpt lat="48.5917" lon="-4.51331">
        <ele>50.2</ele>
        <time>2020-08-18T14:57:11Z</time>
      </trkpt>
      <trkpt lat="48.59155" lon="-4.51361">
        <ele>46.8</ele>
        <time>2020-08-18T14:57:18Z</time>
      </trkpt>
      <trkpt lat="48.59141" lon="-4.51391">
        <ele>46</ele>
        <time>2020-08-18T14:57:25Z</time>
      </trkpt>
      <trkpt lat="48.59135" lon="-4.51412">
        <ele>45.8</ele>
        <time>2020-08-18T14:57:31Z</time>
      </trkpt>
      <trkpt lat="48.59132" lon="-4.51434">
        <ele>44.7</ele>
        <time>2020-08-18T14:57:38Z</time>
      </trkpt>
      <trkpt lat="48.59129" lon="-4.51466">
        <ele>44.2</ele>
        <time>2020-08-18T14:57:45Z</time>
      </trkpt>
      <trkpt lat="48.59129" lon="-4.51506">
        <ele>43.7</ele>
        <time>2020-08-18T14:57:53Z</time>
      </trkpt>
      <trkpt lat="48.59127" lon="-4.51531">
        <ele>43.4</ele>
        <time>2020-08-18T14:57:59Z</time>
      </trkpt>
      <trkpt lat="48.59127" lon="-4.51537">
        <ele>43.4</ele>
        <time>2020-08-18T14:58:04Z</time>
      </trkpt>
      <trkpt lat="48.59115" lon="-4.51525">
        <ele>42.5</ele>
        <time>2020-08-18T14:58:29Z</time>
      </trkpt>
      <trkpt lat="48.59097" lon="-4.51527">
        <ele>41.4</ele>
        <time>2020-08-18T14:58:35Z</time>
      </trkpt>
      <trkpt lat="48.59073" lon="-4.51532">
        <ele>34.8</ele>
        <time>2020-08-18T14:58:42Z</time>
      </trkpt>
      <trkpt lat="48.59046" lon="-4.51536">
        <ele>33.5</ele>
        <time>2020-08-18T14:58:50Z</time>
      </trkpt>
      <trkpt lat="48.59019" lon="-4.51541">
        <ele>32.2</ele>
        <time>2020-08-18T14:58:58Z</time>
      </trkpt>
      <trkpt lat="48.59006" lon="-4.51543">
        <ele>31.8</ele>
        <time>2020-08-18T14:59:03Z</time>
      </trkpt>
      <trkpt lat="48.58991" lon="-4.51542">
        <ele>25.8</ele>
        <time>2020-08-18T14:59:09Z</time>
      </trkpt>
      <trkpt lat="48.58967" lon="-4.51537">
        <ele>24.8</ele>
        <time>2020-08-18T14:59:16Z</time>
      </trkpt>
      <trkpt lat="48.58949" lon="-4.51534">
        <ele>23.7</ele>
        <time>2020-08-18T14:59:22Z</time>
      </trkpt>
      <trkpt lat="48.58935" lon="-4.51555">
        <ele>22.8</ele>
        <time>2020-08-18T14:59:29Z</time>
      </trkpt>
      <trkpt lat="48.58934" lon="-4.51563">
        <ele>22.5</ele>
        <time>2020-08-18T14:59:33Z</time>
      </trkpt>
      <trkpt lat="48.58934" lon="-4.5156">
        <ele>22.6</ele>
        <time>2020-08-18T14:59:41Z</time>
      </trkpt>
      <trkpt lat="48.58935" lon="-4.51554">
        <ele>22.8</ele>
        <time>2020-08-18T14:59:59Z</time>
      </trkpt>
      <trkpt lat="48.58936" lon="-4.51538">
        <ele>23.1</ele>
        <time>2020-08-18T15:00:05Z</time>
      </trkpt>
      <trkpt lat="48.58936" lon="-4.51532">
        <ele>23.1</ele>
        <time>2020-08-18T15:00:09Z</time>
      </trkpt>
      <trkpt lat="48.58936" lon="-4.51532">
        <ele>23.1</ele>
        <time>2020-08-18T15:06:10Z</time>
      </trkpt>
      <trkpt lat="48.58936" lon="-4.51532">
        <ele>23.1</ele>
        <time>2020-08-18T15:06:39Z</time>
      </trkpt>
      <trkpt lat="48.58935" lon="-4.51553">
        <ele>22.8</ele>
        <time>2020-08-19T07:05:23Z</time>
      </trkpt>
      <trkpt lat="48.58945" lon="-4.51533">
        <ele>23.5</ele>
        <time>2020-08-19T07:05:25Z</time>
      </trkpt>
      <trkpt lat="48.58947" lon="-4.51534">
        <ele>23.6</ele>
        <time>2020-08-19T07:05:27Z</time>
      </trkpt>
      <trkpt lat="48.58935" lon="-4.51553">
        <ele>22.8</ele>
        <time>2020-08-19T07:05:32Z</time>
      </trkpt>
      <trkpt lat="48.58935" lon="-4.51553">
        <ele>22.8</ele>
        <time>2020-08-19T07:05:43Z</time>
      </trkpt>
      <trkpt lat="48.58935" lon="-4.51553">
        <ele>22.8</ele>
        <time>2020-08-19T07:05:50Z</time>
      </trkpt>
      <trkpt lat="48.58935" lon="-4.51553">
        <ele>22.8</ele>
        <time>2020-08-19T07:06:00Z</time>
      </trkpt>
      <trkpt lat="48.58936" lon="-4.51533">
        <ele>23.1</ele>
        <time>2020-08-19T07:06:04Z</time>
      </trkpt>
      <trkpt lat="48.58936" lon="-4.51533">
        <ele>23.1</ele>
        <time>2020-08-19T07:06:09Z</time>
      </trkpt>
      <trkpt lat="48.58936" lon="-4.51533">
        <ele>23.1</ele>
        <time>2020-08-19T07:06:13Z</time>
      </trkpt>
      <trkpt lat="48.58936" lon="-4.51533">
        <ele>23.1</ele>
        <time>2020-08-19T07:06:16Z</time>
      </trkpt>
      <trkpt lat="48.58936" lon="-4.51533">
        <ele>23.1</ele>
        <time>2020-08-19T07:06:22Z</time>
      </trkpt>
      <trkpt lat="48.58947" lon="-4.51534">
        <ele>23.6</ele>
        <time>2020-08-19T07:06:29Z</time>
      </trkpt>
      <trkpt lat="48.58947" lon="-4.51534">
        <ele>23.6</ele>
        <time>2020-08-19T07:06:41Z</time>
      </trkpt>
      <trkpt lat="48.58947" lon="-4.51534">
        <ele>23.6</ele>
        <time>2020-08-19T07:06:48Z</time>
      </trkpt>
      <trkpt lat="48.58941" lon="-4.51533">
        <ele>23.3</ele>
        <time>2020-08-19T07:07:05Z</time>
      </trkpt>
      <trkpt lat="48.58936" lon="-4.51534">
        <ele>23.1</ele>
        <time>2020-08-19T07:07:15Z</time>
      </trkpt>
      <trkpt lat="48.58936" lon="-4.51534">
        <ele>23.1</ele>
        <time>2020-08-19T07:07:16Z</time>
      </trkpt>
      <trkpt lat="48.58936" lon="-4.51541">
        <ele>23.1</ele>
        <time>2020-08-19T07:07:26Z</time>
      </trkpt>
      <trkpt lat="48.58936" lon="-4.51541">
        <ele>23.1</ele>
        <time>2020-08-19T07:07:31Z</time>
      </trkpt>
      <trkpt lat="48.58951" lon="-4.51534">
        <ele>23.9</ele>
        <time>2020-08-19T07:07:41Z</time>
      </trkpt>
      <trkpt lat="48.58951" lon="-4.51534">
        <ele>23.9</ele>
        <time>2020-08-19T07:07:42Z</time>
      </trkpt>
      <trkpt lat="48.58948" lon="-4.51534">
        <ele>23.7</ele>
        <time>2020-08-19T07:07:52Z</time>
      </trkpt>
      <trkpt lat="48.59014" lon="-4.51799">
        <ele>25</ele>
        <time>2020-08-19T07:10:30Z</time>
      </trkpt>
      <trkpt lat="48.59018" lon="-4.51814">
        <ele>24.6</ele>
        <time>2020-08-19T07:10:35Z</time>
      </trkpt>
      <trkpt lat="48.59026" lon="-4.51846">
        <ele>21.4</ele>
        <time>2020-08-19T07:10:42Z</time>
      </trkpt>
      <trkpt lat="48.59031" lon="-4.51877">
        <ele>20.4</ele>
        <time>2020-08-19T07:10:47Z</time>
      </trkpt>
      <trkpt lat="48.59032" lon="-4.51905">
        <ele>19.4</ele>
        <time>2020-08-19T07:10:52Z</time>
      </trkpt>
      <trkpt lat="48.59016" lon="-4.51915">
        <ele>18.1</ele>
        <time>2020-08-19T07:10:59Z</time>
      </trkpt>
      <trkpt lat="48.58984" lon="-4.5192">
        <ele>13.5</ele>
        <time>2020-08-19T07:11:07Z</time>
      </trkpt>
      <trkpt lat="48.58972" lon="-4.51921">
        <ele>12.5</ele>
        <time>2020-08-19T07:11:10Z</time>
      </trkpt>
      <trkpt lat="48.58963" lon="-4.51921">
        <ele>12.1</ele>
        <time>2020-08-19T07:11:12Z</time>
      </trkpt>
      <trkpt lat="48.58941" lon="-4.51916">
        <ele>14.2</ele>
        <time>2020-08-19T07:11:17Z</time>
      </trkpt>
      <trkpt lat="48.58929" lon="-4.51903">
        <ele>13.8</ele>
        <time>2020-08-19T07:11:21Z</time>
      </trkpt>
      <trkpt lat="48.58913" lon="-4.51863">
        <ele>10.5</ele>
        <time>2020-08-19T07:11:25Z</time>
      </trkpt>
      <trkpt lat="48.58909" lon="-4.51803">
        <ele>10.4</ele>
        <time>2020-08-19T07:11:32Z</time>
      </trkpt>
      <trkpt lat="48.58907" lon="-4.51753">
        <ele>11.3</ele>
        <time>2020-08-19T07:11:38Z</time>
      </trkpt>
      <trkpt lat="48.58897" lon="-4.51711">
        <ele>11.6</ele>
        <time>2020-08-19T07:11:44Z</time>
      </trkpt>
      <trkpt lat="48.58876" lon="-4.51661">
        <ele>10.4</ele>
        <time>2020-08-19T07:11:52Z</time>
      </trkpt>
      <trkpt lat="48.58863" lon="-4.51603">
        <ele>9.3</ele>
        <time>2020-08-19T07:12:00Z</time>
      </trkpt>
      <trkpt lat="48.58862" lon="-4.51596">
        <ele>9</ele>
        <time>2020-08-19T07:12:01Z</time>
      </trkpt>
      <trkpt lat="48.58853" lon="-4.51557">
        <ele>9.3</ele>
        <time>2020-08-19T07:12:06Z</time>
      </trkpt>
      <trkpt lat="48.58838" lon="-4.51534">
        <ele>9</ele>
        <time>2020-08-19T07:12:10Z</time>
      </trkpt>
      <trkpt lat="48.58833" lon="-4.51531">
        <ele>4.3</ele>
        <time>2020-08-19T07:12:11Z</time>
      </trkpt>
      <trkpt lat="48.58798" lon="-4.51522">
        <ele>4.3</ele>
        <time>2020-08-19T07:12:19Z</time>
      </trkpt>
      <trkpt lat="48.58795" lon="-4.51522">
        <ele>4.2</ele>
        <time>2020-08-19T07:12:26Z</time>
      </trkpt>
      <trkpt lat="48.58749" lon="-4.51518">
        <ele>3</ele>
        <time>2020-08-19T07:12:33Z</time>
      </trkpt>
      <trkpt lat="48.58729" lon="-4.51516">
        <ele>3</ele>
        <time>2020-08-19T07:12:39Z</time>
      </trkpt>
      <trkpt lat="48.58696" lon="-4.51513">
        <ele>3</ele>
        <time>2020-08-19T07:12:47Z</time>
      </trkpt>
      <trkpt lat="48.58692" lon="-4.51513">
        <ele>3</ele>
        <time>2020-08-19T07:12:48Z</time>
      </trkpt>
      <trkpt lat="48.58667" lon="-4.51511">
        <ele>3</ele>
        <time>2020-08-19T07:12:53Z</time>
      </trkpt>
      <trkpt lat="48.58656" lon="-4.51515">
        <ele>6</ele>
        <time>2020-08-19T07:12:55Z</time>
      </trkpt>
      <trkpt lat="48.58636" lon="-4.51537">
        <ele>8.7</ele>
        <time>2020-08-19T07:13:00Z</time>
      </trkpt>
      <trkpt lat="48.58616" lon="-4.51588">
        <ele>9.2</ele>
        <time>2020-08-19T07:13:09Z</time>
      </trkpt>
      <trkpt lat="48.5861" lon="-4.51634">
        <ele>8.3</ele>
        <time>2020-08-19T07:13:16Z</time>
      </trkpt>
      <trkpt lat="48.58604" lon="-4.5171">
        <ele>5.8</ele>
        <time>2020-08-19T07:13:26Z</time>
      </trkpt>
      <trkpt lat="48.58602" lon="-4.51751">
        <ele>5.9</ele>
        <time>2020-08-19T07:13:33Z</time>
      </trkpt>
      <trkpt lat="48.58598" lon="-4.51803">
        <ele>5.5</ele>
        <time>2020-08-19T07:13:41Z</time>
      </trkpt>
      <trkpt lat="48.58587" lon="-4.51839">
        <ele>5.7</ele>
        <time>2020-08-19T07:13:47Z</time>
      </trkpt>
      <trkpt lat="48.58578" lon="-4.51861">
        <ele>7.2</ele>
        <time>2020-08-19T07:13:51Z</time>
      </trkpt>
      <trkpt lat="48.58553" lon="-4.51911">
        <ele>6.7</ele>
        <time>2020-08-19T07:14:01Z</time>
      </trkpt>
      <trkpt lat="48.58529" lon="-4.51955">
        <ele>7.5</ele>
        <time>2020-08-19T07:14:10Z</time>
      </trkpt>
      <trkpt lat="48.58504" lon="-4.52021">
        <ele>7.6</ele>
        <time>2020-08-19T07:14:22Z</time>
      </trkpt>
      <trkpt lat="48.58502" lon="-4.52027">
        <ele>7.3</ele>
        <time>2020-08-19T07:14:23Z</time>
      </trkpt>
      <trkpt lat="48.58477" lon="-4.52078">
        <ele>10</ele>
        <time>2020-08-19T07:14:34Z</time>
      </trkpt>
      <trkpt lat="48.58456" lon="-4.52104">
        <ele>9.4</ele>
        <time>2020-08-19T07:14:42Z</time>
      </trkpt>
      <trkpt lat="48.58426" lon="-4.52137">
        <ele>9.8</ele>
        <time>2020-08-19T07:14:50Z</time>
      </trkpt>
      <trkpt lat="48.58393" lon="-4.52172">
        <ele>13.7</ele>
        <time>2020-08-19T07:14:59Z</time>
      </trkpt>
      <trkpt lat="48.58371" lon="-4.52186">
        <ele>15.4</ele>
        <time>2020-08-19T07:15:06Z</time>
      </trkpt>
      <trkpt lat="48.58351" lon="-4.52198">
        <ele>16.2</ele>
        <time>2020-08-19T07:15:15Z</time>
      </trkpt>
      <trkpt lat="48.58334" lon="-4.52206">
        <ele>16.7</ele>
        <time>2020-08-19T07:15:23Z</time>
      </trkpt>
      <trkpt lat="48.5832" lon="-4.52209">
        <ele>17.3</ele>
        <time>2020-08-19T07:15:32Z</time>
      </trkpt>
      <trkpt lat="48.58303" lon="-4.52205">
        <ele>17.1</ele>
        <time>2020-08-19T07:15:41Z</time>
      </trkpt>
      <trkpt lat="48.58285" lon="-4.52197">
        <ele>16.9</ele>
        <time>2020-08-19T07:15:51Z</time>
      </trkpt>
      <trkpt lat="48.58276" lon="-4.52192">
        <ele>16.9</ele>
        <time>2020-08-19T07:15:56Z</time>
      </trkpt>
      <trkpt lat="48.58253" lon="-4.52179">
        <ele>16.9</ele>
        <time>2020-08-19T07:16:07Z</time>
      </trkpt>
      <trkpt lat="48.58233" lon="-4.52167">
        <ele>18.1</ele>
        <time>2020-08-19T07:16:16Z</time>
      </trkpt>
      <trkpt lat="48.58218" lon="-4.52154">
        <ele>20</ele>
        <time>2020-08-19T07:16:25Z</time>
      </trkpt>
      <trkpt lat="48.582" lon="-4.52141">
        <ele>20.7</ele>
        <time>2020-08-19T07:16:35Z</time>
      </trkpt>
      <trkpt lat="48.58181" lon="-4.52135">
        <ele>21.1</ele>
        <time>2020-08-19T07:16:45Z</time>
      </trkpt>
      <trkpt lat="48.58163" lon="-4.5214">
        <ele>24.9</ele>
        <time>2020-08-19T07:16:54Z</time>
      </trkpt>
      <trkpt lat="48.58147" lon="-4.52145">
        <ele>25.5</ele>
        <time>2020-08-19T07:17:03Z</time>
      </trkpt>
      <trkpt lat="48.58132" lon="-4.52156">
        <ele>26.4</ele>
        <time>2020-08-19T07:17:12Z</time>
      </trkpt>
      <trkpt lat="48.58132" lon="-4.52156">
        <ele>26.4</ele>
        <time>2020-08-19T07:17:20Z</time>
      </trkpt>
      <trkpt lat="48.58115" lon="-4.52187">
        <ele>27.3</ele>
        <time>2020-08-19T07:17:26Z</time>
      </trkpt>
      <trkpt lat="48.58108" lon="-4.52216">
        <ele>27.2</ele>
        <time>2020-08-19T07:17:36Z</time>
      </trkpt>
      <trkpt lat="48.58101" lon="-4.52241">
        <ele>27.6</ele>
        <time>2020-08-19T07:17:46Z</time>
      </trkpt>
      <trkpt lat="48.58094" lon="-4.52263">
        <ele>28.5</ele>
        <time>2020-08-19T07:17:56Z</time>
      </trkpt>
      <trkpt lat="48.58083" lon="-4.52276">
        <ele>32.1</ele>
        <time>2020-08-19T07:18:05Z</time>
      </trkpt>
      <trkpt lat="48.58073" lon="-4.52282">
        <ele>32.7</ele>
        <time>2020-08-19T07:18:13Z</time>
      </trkpt>
      <trkpt lat="48.58061" lon="-4.52285">
        <ele>33.3</ele>
        <time>2020-08-19T07:18:22Z</time>
      </trkpt>
      <trkpt lat="48.58051" lon="-4.52282">
        <ele>33.7</ele>
        <time>2020-08-19T07:18:30Z</time>
      </trkpt>
      <trkpt lat="48.58042" lon="-4.52278">
        <ele>34</ele>
        <time>2020-08-19T07:18:37Z</time>
      </trkpt>
      <trkpt lat="48.58027" lon="-4.52262">
        <ele>34.8</ele>
        <time>2020-08-19T07:18:47Z</time>
      </trkpt>
      <trkpt lat="48.58014" lon="-4.52247">
        <ele>35.5</ele>
        <time>2020-08-19T07:18:57Z</time>
      </trkpt>
      <trkpt lat="48.58003" lon="-4.52233">
        <ele>35.5</ele>
        <time>2020-08-19T07:19:06Z</time>
      </trkpt>
      <trkpt lat="48.57993" lon="-4.5222">
        <ele>38.4</ele>
        <time>2020-08-19T07:19:14Z</time>
      </trkpt>
      <trkpt lat="48.57981" lon="-4.52211">
        <ele>38.7</ele>
        <time>2020-08-19T07:19:22Z</time>
      </trkpt>
      <trkpt lat="48.57966" lon="-4.52209">
        <ele>39</ele>
        <time>2020-08-19T07:19:31Z</time>
      </trkpt>
      <trkpt lat="48.57952" lon="-4.52212">
        <ele>39.4</ele>
        <time>2020-08-19T07:19:40Z</time>
      </trkpt>
      <trkpt lat="48.57944" lon="-4.52215">
        <ele>39.6</ele>
        <time>2020-08-19T07:19:45Z</time>
      </trkpt>
      <trkpt lat="48.57934" lon="-4.52219">
        <ele>39.8</ele>
        <time>2020-08-19T07:19:54Z</time>
      </trkpt>
      <trkpt lat="48.57933" lon="-4.52219">
        <ele>39.8</ele>
        <time>2020-08-19T07:19:55Z</time>
      </trkpt>
      <trkpt lat="48.57924" lon="-4.52223">
        <ele>40</ele>
        <time>2020-08-19T07:20:01Z</time>
      </trkpt>
      <trkpt lat="48.57924" lon="-4.52223">
        <ele>40</ele>
        <time>2020-08-19T07:20:09Z</time>
      </trkpt>
      <trkpt lat="48.57924" lon="-4.52223">
        <ele>40</ele>
        <time>2020-08-19T07:20:17Z</time>
      </trkpt>
      <trkpt lat="48.57924" lon="-4.52223">
        <ele>40</ele>
        <time>2020-08-19T07:20:26Z</time>
      </trkpt>
      <trkpt lat="48.57924" lon="-4.52223">
        <ele>40</ele>
        <time>2020-08-19T07:20:37Z</time>
      </trkpt>
      <trkpt lat="48.57825" lon="-4.52245">
        <ele>44.3</ele>
        <time>2020-08-19T07:20:49Z</time>
      </trkpt>
      <trkpt lat="48.57796" lon="-4.5225">
        <ele>44.9</ele>
        <time>2020-08-19T07:21:02Z</time>
      </trkpt>
      <trkpt lat="48.57781" lon="-4.52251">
        <ele>44.9</ele>
        <time>2020-08-19T07:21:09Z</time>
      </trkpt>
      <trkpt lat="48.57767" lon="-4.52252">
        <ele>45.3</ele>
        <time>2020-08-19T07:21:15Z</time>
      </trkpt>
      <trkpt lat="48.57742" lon="-4.52243">
        <ele>45.8</ele>
        <time>2020-08-19T07:21:26Z</time>
      </trkpt>
      <trkpt lat="48.5772" lon="-4.52234">
        <ele>45.5</ele>
        <time>2020-08-19T07:21:36Z</time>
      </trkpt>
      <trkpt lat="48.577" lon="-4.52226">
        <ele>45.4</ele>
        <time>2020-08-19T07:21:45Z</time>
      </trkpt>
      <trkpt lat="48.57682" lon="-4.5222">
        <ele>45.3</ele>
        <time>2020-08-19T07:21:53Z</time>
      </trkpt>
      <trkpt lat="48.57662" lon="-4.52219">
        <ele>45.2</ele>
        <time>2020-08-19T07:22:01Z</time>
      </trkpt>
      <trkpt lat="48.57641" lon="-4.52221">
        <ele>45.2</ele>
        <time>2020-08-19T07:22:10Z</time>
      </trkpt>
      <trkpt lat="48.57619" lon="-4.52226">
        <ele>45.2</ele>
        <time>2020-08-19T07:22:19Z</time>
      </trkpt>
      <trkpt lat="48.57609" lon="-4.52228">
        <ele>45.3</ele>
        <time>2020-08-19T07:22:24Z</time>
      </trkpt>
      <trkpt lat="48.57598" lon="-4.5223">
        <ele>45.4</ele>
        <time>2020-08-19T07:22:29Z</time>
      </trkpt>
      <trkpt lat="48.57573" lon="-4.52236">
        <ele>45.1</ele>
        <time>2020-08-19T07:22:39Z</time>
      </trkpt>
      <trkpt lat="48.57559" lon="-4.52239">
        <ele>44.8</ele>
        <time>2020-08-19T07:22:44Z</time>
      </trkpt>
      <trkpt lat="48.57559" lon="-4.52239">
        <ele>44.8</ele>
        <time>2020-08-19T07:22:45Z</time>
      </trkpt>
      <trkpt lat="48.57559" lon="-4.52239">
        <ele>44.8</ele>
        <time>2020-08-19T07:23:24Z</time>
      </trkpt>
      <trkpt lat="48.57553" lon="-4.5224">
        <ele>44.7</ele>
        <time>2020-08-19T07:23:31Z</time>
      </trkpt>
      <trkpt lat="48.57546" lon="-4.52241">
        <ele>44.6</ele>
        <time>2020-08-19T07:23:52Z</time>
      </trkpt>
      <trkpt lat="48.57526" lon="-4.52244">
        <ele>44.3</ele>
        <time>2020-08-19T07:23:59Z</time>
      </trkpt>
      <trkpt lat="48.57492" lon="-4.52248">
        <ele>43.8</ele>
        <time>2020-08-19T07:24:10Z</time>
      </trkpt>
      <trkpt lat="48.5747" lon="-4.52249">
        <ele>43.3</ele>
        <time>2020-08-19T07:24:17Z</time>
      </trkpt>
      <trkpt lat="48.57461" lon="-4.52253">
        <ele>43.1</ele>
        <time>2020-08-19T07:24:25Z</time>
      </trkpt>
      <trkpt lat="48.57461" lon="-4.52249">
        <ele>43.2</ele>
        <time>2020-08-19T07:24:29Z</time>
      </trkpt>
      <trkpt lat="48.57444" lon="-4.52264">
        <ele>42.7</ele>
        <time>2020-08-19T07:24:33Z</time>
      </trkpt>
      <trkpt lat="48.57436" lon="-4.52269">
        <ele>42.6</ele>
        <time>2020-08-19T07:24:37Z</time>
      </trkpt>
      <trkpt lat="48.57423" lon="-4.52283">
        <ele>42.5</ele>
        <time>2020-08-19T07:24:44Z</time>
      </trkpt>
      <trkpt lat="48.57413" lon="-4.52286">
        <ele>42.2</ele>
        <time>2020-08-19T07:24:49Z</time>
      </trkpt>
      <trkpt lat="48.57401" lon="-4.52263">
        <ele>42.3</ele>
        <time>2020-08-19T07:24:54Z</time>
      </trkpt>
      <trkpt lat="48.57392" lon="-4.52227">
        <ele>43</ele>
        <time>2020-08-19T07:25:02Z</time>
      </trkpt>
      <trkpt lat="48.57384" lon="-4.52197">
        <ele>43.3</ele>
        <time>2020-08-19T07:25:11Z</time>
      </trkpt>
      <trkpt lat="48.57372" lon="-4.52143">
        <ele>44.1</ele>
        <time>2020-08-19T07:25:19Z</time>
      </trkpt>
      <trkpt lat="48.57364" lon="-4.52103">
        <ele>44.4</ele>
        <time>2020-08-19T07:25:27Z</time>
      </trkpt>
      <trkpt lat="48.57356" lon="-4.5206">
        <ele>45.7</ele>
        <time>2020-08-19T07:25:36Z</time>
      </trkpt>
      <trkpt lat="48.57346" lon="-4.52011">
        <ele>46.5</ele>
        <time>2020-08-19T07:25:47Z</time>
      </trkpt>
      <trkpt lat="48.57339" lon="-4.51984">
        <ele>47.4</ele>
        <time>2020-08-19T07:25:54Z</time>
      </trkpt>
      <trkpt lat="48.57336" lon="-4.51967">
        <ele>47.6</ele>
        <time>2020-08-19T07:26:02Z</time>
      </trkpt>
      <trkpt lat="48.57321" lon="-4.51925">
        <ele>47.6</ele>
        <time>2020-08-19T07:26:09Z</time>
      </trkpt>
      <trkpt lat="48.57315" lon="-4.51911">
        <ele>47.8</ele>
        <time>2020-08-19T07:26:15Z</time>
      </trkpt>
      <trkpt lat="48.57309" lon="-4.51879">
        <ele>47.8</ele>
        <time>2020-08-19T07:26:20Z</time>
      </trkpt>
      <trkpt lat="48.57309" lon="-4.51853">
        <ele>47.8</ele>
        <time>2020-08-19T07:26:26Z</time>
      </trkpt>
      <trkpt lat="48.57309" lon="-4.5184">
        <ele>47.9</ele>
        <time>2020-08-19T07:26:34Z</time>
      </trkpt>
      <trkpt lat="48.57281" lon="-4.51764">
        <ele>48.3</ele>
        <time>2020-08-19T07:26:48Z</time>
      </trkpt>
      <trkpt lat="48.57261" lon="-4.51719">
        <ele>48.6</ele>
        <time>2020-08-19T07:26:58Z</time>
      </trkpt>
      <trkpt lat="48.57246" lon="-4.51688">
        <ele>48.5</ele>
        <time>2020-08-19T07:27:05Z</time>
      </trkpt>
      <trkpt lat="48.57228" lon="-4.5166">
        <ele>48.7</ele>
        <time>2020-08-19T07:27:12Z</time>
      </trkpt>
      <trkpt lat="48.57205" lon="-4.51623">
        <ele>48.5</ele>
        <time>2020-08-19T07:27:20Z</time>
      </trkpt>
      <trkpt lat="48.57178" lon="-4.51579">
        <ele>48.2</ele>
        <time>2020-08-19T07:27:29Z</time>
      </trkpt>
      <trkpt lat="48.57155" lon="-4.51541">
        <ele>47.7</ele>
        <time>2020-08-19T07:27:37Z</time>
      </trkpt>
      <trkpt lat="48.57123" lon="-4.51488">
        <ele>47.1</ele>
        <time>2020-08-19T07:27:49Z</time>
      </trkpt>
      <trkpt lat="48.57094" lon="-4.51439">
        <ele>46.6</ele>
        <time>2020-08-19T07:27:59Z</time>
      </trkpt>
      <trkpt lat="48.5707" lon="-4.51401">
        <ele>45.4</ele>
        <time>2020-08-19T07:28:07Z</time>
      </trkpt>
      <trkpt lat="48.57053" lon="-4.51361">
        <ele>45</ele>
        <time>2020-08-19T07:28:15Z</time>
      </trkpt>
      <trkpt lat="48.57041" lon="-4.51333">
        <ele>44.2</ele>
        <time>2020-08-19T07:28:22Z</time>
      </trkpt>
      <trkpt lat="48.57021" lon="-4.51332">
        <ele>44</ele>
        <time>2020-08-19T07:28:29Z</time>
      </trkpt>
      <trkpt lat="48.57017" lon="-4.51333">
        <ele>44</ele>
        <time>2020-08-19T07:28:33Z</time>
      </trkpt>
      <trkpt lat="48.57003" lon="-4.51322">
        <ele>44</ele>
        <time>2020-08-19T07:28:34Z</time>
      </trkpt>
      <trkpt lat="48.57017" lon="-4.51333">
        <ele>44</ele>
        <time>2020-08-19T07:28:44Z</time>
      </trkpt>
      <trkpt lat="48.56972" lon="-4.51223">
        <ele>42.8</ele>
        <time>2020-08-19T07:28:54Z</time>
      </trkpt>
      <trkpt lat="48.5697" lon="-4.51191">
        <ele>42.9</ele>
        <time>2020-08-19T07:28:59Z</time>
      </trkpt>
      <trkpt lat="48.56976" lon="-4.51181">
        <ele>43.1</ele>
        <time>2020-08-19T07:29:01Z</time>
      </trkpt>
      <trkpt lat="48.56979" lon="-4.51153">
        <ele>43.3</ele>
        <time>2020-08-19T07:29:06Z</time>
      </trkpt>
      <trkpt lat="48.56975" lon="-4.51135">
        <ele>43.2</ele>
        <time>2020-08-19T07:29:09Z</time>
      </trkpt>
      <trkpt lat="48.56949" lon="-4.51065">
        <ele>42.7</ele>
        <time>2020-08-19T07:29:20Z</time>
      </trkpt>
      <trkpt lat="48.56924" lon="-4.51015">
        <ele>42.3</ele>
        <time>2020-08-19T07:29:29Z</time>
      </trkpt>
      <trkpt lat="48.56894" lon="-4.5097">
        <ele>41.7</ele>
        <time>2020-08-19T07:29:38Z</time>
      </trkpt>
      <trkpt lat="48.56866" lon="-4.50921">
        <ele>41.3</ele>
        <time>2020-08-19T07:29:46Z</time>
      </trkpt>
      <trkpt lat="48.56856" lon="-4.50904">
        <ele>41.2</ele>
        <time>2020-08-19T07:29:49Z</time>
      </trkpt>
      <trkpt lat="48.56845" lon="-4.50887">
        <ele>41.3</ele>
        <time>2020-08-19T07:29:55Z</time>
      </trkpt>
      <trkpt lat="48.56819" lon="-4.50859">
        <ele>41.1</ele>
        <time>2020-08-19T07:30:00Z</time>
      </trkpt>
      <trkpt lat="48.56819" lon="-4.50825">
        <ele>42</ele>
        <time>2020-08-19T07:30:05Z</time>
      </trkpt>
      <trkpt lat="48.56829" lon="-4.50805">
        <ele>42</ele>
        <time>2020-08-19T07:30:09Z</time>
      </trkpt>
      <trkpt lat="48.56841" lon="-4.50797">
        <ele>41.7</ele>
        <time>2020-08-19T07:30:13Z</time>
      </trkpt>
      <trkpt lat="48.56846" lon="-4.50757">
        <ele>41.7</ele>
        <time>2020-08-19T07:30:19Z</time>
      </trkpt>
      <trkpt lat="48.56854" lon="-4.50764">
        <ele>41.6</ele>
        <time>2020-08-19T07:30:23Z</time>
      </trkpt>
      <trkpt lat="48.56856" lon="-4.5078">
        <ele>41.6</ele>
        <time>2020-08-19T07:30:26Z</time>
      </trkpt>
      <trkpt lat="48.56859" lon="-4.50797">
        <ele>41.6</ele>
        <time>2020-08-19T07:30:32Z</time>
      </trkpt>
      <trkpt lat="48.56859" lon="-4.50797">
        <ele>41.6</ele>
        <time>2020-08-19T07:30:37Z</time>
      </trkpt>
      <trkpt lat="48.56879" lon="-4.50838">
        <ele>41.9</ele>
        <time>2020-08-19T07:30:42Z</time>
      </trkpt>
      <trkpt lat="48.56877" lon="-4.50862">
        <ele>41.8</ele>
        <time>2020-08-19T07:30:47Z</time>
      </trkpt>
      <trkpt lat="48.56867" lon="-4.50879">
        <ele>41.7</ele>
        <time>2020-08-19T07:30:52Z</time>
      </trkpt>
      <trkpt lat="48.56845" lon="-4.50887">
        <ele>41.3</ele>
        <time>2020-08-19T07:30:57Z</time>
      </trkpt>
      <trkpt lat="48.56834" lon="-4.50881">
        <ele>41.4</ele>
        <time>2020-08-19T07:31:02Z</time>
      </trkpt>
      <trkpt lat="48.56819" lon="-4.5086">
        <ele>41.1</ele>
        <time>2020-08-19T07:31:07Z</time>
      </trkpt>
      <trkpt lat="48.56818" lon="-4.5084">
        <ele>41.4</ele>
        <time>2020-08-19T07:31:11Z</time>
      </trkpt>
      <trkpt lat="48.56781" lon="-4.50823">
        <ele>41.8</ele>
        <time>2020-08-19T07:31:19Z</time>
      </trkpt>
      <trkpt lat="48.56736" lon="-4.50804">
        <ele>41.5</ele>
        <time>2020-08-19T07:31:29Z</time>
      </trkpt>
      <trkpt lat="48.56702" lon="-4.50792">
        <ele>41.5</ele>
        <time>2020-08-19T07:31:38Z</time>
      </trkpt>
      <trkpt lat="48.56667" lon="-4.50779">
        <ele>41.5</ele>
        <time>2020-08-19T07:31:49Z</time>
      </trkpt>
      <trkpt lat="48.56637" lon="-4.50769">
        <ele>40.9</ele>
        <time>2020-08-19T07:31:59Z</time>
      </trkpt>
      <trkpt lat="48.56619" lon="-4.50763">
        <ele>40.8</ele>
        <time>2020-08-19T07:32:05Z</time>
      </trkpt>
      <trkpt lat="48.5659" lon="-4.50754">
        <ele>40.9</ele>
        <time>2020-08-19T07:32:15Z</time>
      </trkpt>
      <trkpt lat="48.56547" lon="-4.5074">
        <ele>41</ele>
        <time>2020-08-19T07:32:29Z</time>
      </trkpt>
      <trkpt lat="48.5651" lon="-4.50729">
        <ele>40.8</ele>
        <time>2020-08-19T07:32:41Z</time>
      </trkpt>
      <trkpt lat="48.56466" lon="-4.50716">
        <ele>40.7</ele>
        <time>2020-08-19T07:32:55Z</time>
      </trkpt>
      <trkpt lat="48.56415" lon="-4.50702">
        <ele>40.9</ele>
        <time>2020-08-19T07:33:10Z</time>
      </trkpt>
      <trkpt lat="48.56369" lon="-4.50688">
        <ele>41</ele>
        <time>2020-08-19T07:33:23Z</time>
      </trkpt>
      <trkpt lat="48.5633" lon="-4.50676">
        <ele>41.2</ele>
        <time>2020-08-19T07:33:35Z</time>
      </trkpt>
      <trkpt lat="48.56302" lon="-4.50667">
        <ele>41.4</ele>
        <time>2020-08-19T07:33:44Z</time>
      </trkpt>
      <trkpt lat="48.56283" lon="-4.50662">
        <ele>41</ele>
        <time>2020-08-19T07:33:50Z</time>
      </trkpt>
      <trkpt lat="48.56256" lon="-4.50654">
        <ele>41</ele>
        <time>2020-08-19T07:33:59Z</time>
      </trkpt>
      <trkpt lat="48.5623" lon="-4.50649">
        <ele>41.9</ele>
        <time>2020-08-19T07:34:08Z</time>
      </trkpt>
      <trkpt lat="48.56207" lon="-4.50644">
        <ele>42.4</ele>
        <time>2020-08-19T07:34:17Z</time>
      </trkpt>
      <trkpt lat="48.56182" lon="-4.50637">
        <ele>42.8</ele>
        <time>2020-08-19T07:34:27Z</time>
      </trkpt>
      <trkpt lat="48.56149" lon="-4.50627">
        <ele>43.8</ele>
        <time>2020-08-19T07:34:37Z</time>
      </trkpt>
      <trkpt lat="48.56142" lon="-4.50641">
        <ele>43.6</ele>
        <time>2020-08-19T07:34:43Z</time>
      </trkpt>
      <trkpt lat="48.56142" lon="-4.50655">
        <ele>43.5</ele>
        <time>2020-08-19T07:34:47Z</time>
      </trkpt>
      <trkpt lat="48.56141" lon="-4.50661">
        <ele>43.4</ele>
        <time>2020-08-19T07:34:49Z</time>
      </trkpt>
      <trkpt lat="48.56139" lon="-4.50684">
        <ele>43</ele>
        <time>2020-08-19T07:34:56Z</time>
      </trkpt>
      <trkpt lat="48.56138" lon="-4.5069">
        <ele>43</ele>
        <time>2020-08-19T07:35:06Z</time>
      </trkpt>
      <trkpt lat="48.56134" lon="-4.50764">
        <ele>43</ele>
        <time>2020-08-19T07:35:14Z</time>
      </trkpt>
      <trkpt lat="48.56125" lon="-4.5081">
        <ele>43</ele>
        <time>2020-08-19T07:35:23Z</time>
      </trkpt>
      <trkpt lat="48.56115" lon="-4.50835">
        <ele>43</ele>
        <time>2020-08-19T07:35:29Z</time>
      </trkpt>
      <trkpt lat="48.56107" lon="-4.50854">
        <ele>43</ele>
        <time>2020-08-19T07:35:35Z</time>
      </trkpt>
      <trkpt lat="48.56106" lon="-4.50856">
        <ele>43</ele>
        <time>2020-08-19T07:35:40Z</time>
      </trkpt>
      <trkpt lat="48.56106" lon="-4.50856">
        <ele>43</ele>
        <time>2020-08-19T07:36:25Z</time>
      </trkpt>
      <trkpt lat="48.56106" lon="-4.50856">
        <ele>43</ele>
        <time>2020-08-19T07:39:21Z</time>
      </trkpt>
      <trkpt lat="48.56115" lon="-4.50837">
        <ele>43</ele>
        <time>2020-08-19T07:39:30Z</time>
      </trkpt>
      <trkpt lat="48.56124" lon="-4.50814">
        <ele>43</ele>
        <time>2020-08-19T07:39:37Z</time>
      </trkpt>
      <trkpt lat="48.56127" lon="-4.50799">
        <ele>43</ele>
        <time>2020-08-19T07:39:42Z</time>
      </trkpt>
      <trkpt lat="48.56131" lon="-4.50782">
        <ele>43</ele>
        <time>2020-08-19T07:39:46Z</time>
      </trkpt>
      <trkpt lat="48.56136" lon="-4.50736">
        <ele>43</ele>
        <time>2020-08-19T07:39:55Z</time>
      </trkpt>
      <trkpt lat="48.56138" lon="-4.50697">
        <ele>43</ele>
        <time>2020-08-19T07:40:03Z</time>
      </trkpt>
      <trkpt lat="48.56134" lon="-4.50661">
        <ele>43.5</ele>
        <time>2020-08-19T07:40:10Z</time>
      </trkpt>
      <trkpt lat="48.56126" lon="-4.50641">
        <ele>43.6</ele>
        <time>2020-08-19T07:40:15Z</time>
      </trkpt>
      <trkpt lat="48.56118" lon="-4.50615">
        <ele>43.8</ele>
        <time>2020-08-19T07:40:21Z</time>
      </trkpt>
      <trkpt lat="48.56087" lon="-4.50607">
        <ele>43.8</ele>
        <time>2020-08-19T07:40:28Z</time>
      </trkpt>
      <trkpt lat="48.56047" lon="-4.50593">
        <ele>44</ele>
        <time>2020-08-19T07:40:40Z</time>
      </trkpt>
      <trkpt lat="48.56015" lon="-4.50583">
        <ele>44.2</ele>
        <time>2020-08-19T07:40:50Z</time>
      </trkpt>
      <trkpt lat="48.55971" lon="-4.50569">
        <ele>43.5</ele>
        <time>2020-08-19T07:41:03Z</time>
      </trkpt>
      <trkpt lat="48.55918" lon="-4.50552">
        <ele>43</ele>
        <time>2020-08-19T07:41:18Z</time>
      </trkpt>
      <trkpt lat="48.55878" lon="-4.50538">
        <ele>41.8</ele>
        <time>2020-08-19T07:41:29Z</time>
      </trkpt>
      <trkpt lat="48.55835" lon="-4.50523">
        <ele>41.4</ele>
        <time>2020-08-19T07:41:40Z</time>
      </trkpt>
      <trkpt lat="48.55795" lon="-4.50509">
        <ele>40.1</ele>
        <time>2020-08-19T07:41:49Z</time>
      </trkpt>
      <trkpt lat="48.55746" lon="-4.50493">
        <ele>38.6</ele>
        <time>2020-08-19T07:41:59Z</time>
      </trkpt>
      <trkpt lat="48.55698" lon="-4.50484">
        <ele>37</ele>
        <time>2020-08-19T07:42:07Z</time>
      </trkpt>
      <trkpt lat="48.55638" lon="-4.50489">
        <ele>34.3</ele>
        <time>2020-08-19T07:42:16Z</time>
      </trkpt>
      <trkpt lat="48.55586" lon="-4.50489">
        <ele>32.8</ele>
        <time>2020-08-19T07:42:24Z</time>
      </trkpt>
      <trkpt lat="48.55583" lon="-4.50487">
        <ele>31.9</ele>
        <time>2020-08-19T07:42:29Z</time>
      </trkpt>
      <trkpt lat="48.55495" lon="-4.50537">
        <ele>28.1</ele>
        <time>2020-08-19T07:42:38Z</time>
      </trkpt>
      <trkpt lat="48.5544" lon="-4.50572">
        <ele>25.9</ele>
        <time>2020-08-19T07:42:46Z</time>
      </trkpt>
      <trkpt lat="48.55383" lon="-4.50612">
        <ele>18.2</ele>
        <time>2020-08-19T07:42:54Z</time>
      </trkpt>
      <trkpt lat="48.55347" lon="-4.50641">
        <ele>15.1</ele>
        <time>2020-08-19T07:42:59Z</time>
      </trkpt>
      <trkpt lat="48.55302" lon="-4.50679">
        <ele>9.7</ele>
        <time>2020-08-19T07:43:06Z</time>
      </trkpt>
      <trkpt lat="48.55281" lon="-4.50696">
        <ele>9.5</ele>
        <time>2020-08-19T07:43:10Z</time>
      </trkpt>
      <trkpt lat="48.55281" lon="-4.50696">
        <ele>9.5</ele>
        <time>2020-08-19T07:43:14Z</time>
      </trkpt>
      <trkpt lat="48.55236" lon="-4.50726">
        <ele>11</ele>
        <time>2020-08-19T07:43:21Z</time>
      </trkpt>
      <trkpt lat="48.55205" lon="-4.5074">
        <ele>11.8</ele>
        <time>2020-08-19T07:43:29Z</time>
      </trkpt>
      <trkpt lat="48.5516" lon="-4.50752">
        <ele>10.3</ele>
        <time>2020-08-19T07:43:40Z</time>
      </trkpt>
      <trkpt lat="48.55115" lon="-4.50763">
        <ele>9.4</ele>
        <time>2020-08-19T07:43:51Z</time>
      </trkpt>
      <trkpt lat="48.55063" lon="-4.50776">
        <ele>10.1</ele>
        <time>2020-08-19T07:44:04Z</time>
      </trkpt>
      <trkpt lat="48.5503" lon="-4.50783">
        <ele>10</ele>
        <time>2020-08-19T07:44:14Z</time>
      </trkpt>
      <trkpt lat="48.54996" lon="-4.50786">
        <ele>10.6</ele>
        <time>2020-08-19T07:44:24Z</time>
      </trkpt>
      <trkpt lat="48.5495" lon="-4.50779">
        <ele>10.8</ele>
        <time>2020-08-19T07:44:37Z</time>
      </trkpt>
      <trkpt lat="48.54918" lon="-4.50768">
        <ele>12.3</ele>
        <time>2020-08-19T07:44:47Z</time>
      </trkpt>
      <trkpt lat="48.5488" lon="-4.50749">
        <ele>14.3</ele>
        <time>2020-08-19T07:44:58Z</time>
      </trkpt>
      <trkpt lat="48.54842" lon="-4.50721">
        <ele>13</ele>
        <time>2020-08-19T07:45:10Z</time>
      </trkpt>
      <trkpt lat="48.54802" lon="-4.50681">
        <ele>8.1</ele>
        <time>2020-08-19T07:45:23Z</time>
      </trkpt>
      <trkpt lat="48.54774" lon="-4.50642">
        <ele>11.8</ele>
        <time>2020-08-19T07:45:33Z</time>
      </trkpt>
      <trkpt lat="48.54737" lon="-4.50602">
        <ele>8.5</ele>
        <time>2020-08-19T07:45:44Z</time>
      </trkpt>
      <trkpt lat="48.54705" lon="-4.50573">
        <ele>10.2</ele>
        <time>2020-08-19T07:45:52Z</time>
      </trkpt>
      <trkpt lat="48.5465" lon="-4.5054">
        <ele>7.5</ele>
        <time>2020-08-19T07:46:04Z</time>
      </trkpt>
      <trkpt lat="48.54611" lon="-4.50519">
        <ele>7.6</ele>
        <time>2020-08-19T07:46:13Z</time>
      </trkpt>
      <trkpt lat="48.54589" lon="-4.50506">
        <ele>6.6</ele>
        <time>2020-08-19T07:46:19Z</time>
      </trkpt>
      <trkpt lat="48.54577" lon="-4.505">
        <ele>7.7</ele>
        <time>2020-08-19T07:46:23Z</time>
      </trkpt>
      <trkpt lat="48.54583" lon="-4.5048">
        <ele>9.8</ele>
        <time>2020-08-19T07:46:27Z</time>
      </trkpt>
      <trkpt lat="48.5458" lon="-4.50454">
        <ele>11.3</ele>
        <time>2020-08-19T07:46:32Z</time>
      </trkpt>
      <trkpt lat="48.54579" lon="-4.50451">
        <ele>11.4</ele>
        <time>2020-08-19T07:46:34Z</time>
      </trkpt>
      <trkpt lat="48.54551" lon="-4.50411">
        <ele>14</ele>
        <time>2020-08-19T07:46:42Z</time>
      </trkpt>
      <trkpt lat="48.5453" lon="-4.50385">
        <ele>14.7</ele>
        <time>2020-08-19T07:46:51Z</time>
      </trkpt>
      <trkpt lat="48.54511" lon="-4.50361">
        <ele>14.8</ele>
        <time>2020-08-19T07:47:00Z</time>
      </trkpt>
      <trkpt lat="48.54494" lon="-4.50339">
        <ele>12.7</ele>
        <time>2020-08-19T07:47:08Z</time>
      </trkpt>
      <trkpt lat="48.54479" lon="-4.50319">
        <ele>14.1</ele>
        <time>2020-08-19T07:47:16Z</time>
      </trkpt>
      <trkpt lat="48.54466" lon="-4.50298">
        <ele>14.6</ele>
        <time>2020-08-19T07:47:24Z</time>
      </trkpt>
      <trkpt lat="48.5445" lon="-4.50263">
        <ele>14.7</ele>
        <time>2020-08-19T07:47:34Z</time>
      </trkpt>
      <trkpt lat="48.5444" lon="-4.50226">
        <ele>18.2</ele>
        <time>2020-08-19T07:47:42Z</time>
      </trkpt>
      <trkpt lat="48.54434" lon="-4.50187">
        <ele>18.8</ele>
        <time>2020-08-19T07:47:50Z</time>
      </trkpt>
      <trkpt lat="48.54431" lon="-4.50137">
        <ele>20.4</ele>
        <time>2020-08-19T07:48:00Z</time>
      </trkpt>
      <trkpt lat="48.54427" lon="-4.50089">
        <ele>16.9</ele>
        <time>2020-08-19T07:48:09Z</time>
      </trkpt>
      <trkpt lat="48.54423" lon="-4.50049">
        <ele>19</ele>
        <time>2020-08-19T07:48:17Z</time>
      </trkpt>
      <trkpt lat="48.54411" lon="-4.49996">
        <ele>13.1</ele>
        <time>2020-08-19T07:48:27Z</time>
      </trkpt>
      <trkpt lat="48.54394" lon="-4.49953">
        <ele>13.8</ele>
        <time>2020-08-19T07:48:36Z</time>
      </trkpt>
      <trkpt lat="48.54376" lon="-4.49919">
        <ele>13.5</ele>
        <time>2020-08-19T07:48:44Z</time>
      </trkpt>
      <trkpt lat="48.54355" lon="-4.4988">
        <ele>13.4</ele>
        <time>2020-08-19T07:48:53Z</time>
      </trkpt>
      <trkpt lat="48.54328" lon="-4.49834">
        <ele>8.9</ele>
        <time>2020-08-19T07:49:02Z</time>
      </trkpt>
      <trkpt lat="48.54295" lon="-4.49773">
        <ele>9.3</ele>
        <time>2020-08-19T07:49:14Z</time>
      </trkpt>
      <trkpt lat="48.54265" lon="-4.49713">
        <ele>10.6</ele>
        <time>2020-08-19T07:49:26Z</time>
      </trkpt>
      <trkpt lat="48.54248" lon="-4.4966">
        <ele>9.5</ele>
        <time>2020-08-19T07:49:36Z</time>
      </trkpt>
      <trkpt lat="48.54235" lon="-4.49598">
        <ele>12.6</ele>
        <time>2020-08-19T07:49:48Z</time>
      </trkpt>
      <trkpt lat="48.54232" lon="-4.49537">
        <ele>14.2</ele>
        <time>2020-08-19T07:49:59Z</time>
      </trkpt>
      <trkpt lat="48.5423" lon="-4.49475">
        <ele>14.1</ele>
        <time>2020-08-19T07:50:10Z</time>
      </trkpt>
      <trkpt lat="48.54228" lon="-4.49412">
        <ele>13.2</ele>
        <time>2020-08-19T07:50:21Z</time>
      </trkpt>
      <trkpt lat="48.54224" lon="-4.49368">
        <ele>12.9</ele>
        <time>2020-08-19T07:50:29Z</time>
      </trkpt>
      <trkpt lat="48.54217" lon="-4.49326">
        <ele>14.4</ele>
        <time>2020-08-19T07:50:37Z</time>
      </trkpt>
      <trkpt lat="48.54206" lon="-4.49286">
        <ele>14.5</ele>
        <time>2020-08-19T07:50:45Z</time>
      </trkpt>
      <trkpt lat="48.5419" lon="-4.49238">
        <ele>16.6</ele>
        <time>2020-08-19T07:50:54Z</time>
      </trkpt>
      <trkpt lat="48.54169" lon="-4.49179">
        <ele>16.8</ele>
        <time>2020-08-19T07:51:05Z</time>
      </trkpt>
      <trkpt lat="48.54149" lon="-4.49133">
        <ele>16</ele>
        <time>2020-08-19T07:51:14Z</time>
      </trkpt>
      <trkpt lat="48.54129" lon="-4.49091">
        <ele>16.2</ele>
        <time>2020-08-19T07:51:23Z</time>
      </trkpt>
      <trkpt lat="48.54105" lon="-4.49045">
        <ele>17.2</ele>
        <time>2020-08-19T07:51:33Z</time>
      </trkpt>
      <trkpt lat="48.54082" lon="-4.49">
        <ele>15.2</ele>
        <time>2020-08-19T07:51:43Z</time>
      </trkpt>
      <trkpt lat="48.5406" lon="-4.48953">
        <ele>19.2</ele>
        <time>2020-08-19T07:51:53Z</time>
      </trkpt>
      <trkpt lat="48.54049" lon="-4.48916">
        <ele>22.1</ele>
        <time>2020-08-19T07:52:01Z</time>
      </trkpt>
      <trkpt lat="48.54038" lon="-4.48878">
        <ele>22.3</ele>
        <time>2020-08-19T07:52:09Z</time>
      </trkpt>
      <trkpt lat="48.54031" lon="-4.48841">
        <ele>22.3</ele>
        <time>2020-08-19T07:52:16Z</time>
      </trkpt>
      <trkpt lat="48.54023" lon="-4.48783">
        <ele>24.8</ele>
        <time>2020-08-19T07:52:27Z</time>
      </trkpt>
      <trkpt lat="48.54017" lon="-4.48728">
        <ele>25.6</ele>
        <time>2020-08-19T07:52:37Z</time>
      </trkpt>
      <trkpt lat="48.54009" lon="-4.48677">
        <ele>24</ele>
        <time>2020-08-19T07:52:46Z</time>
      </trkpt>
      <trkpt lat="48.53997" lon="-4.48616">
        <ele>22.1</ele>
        <time>2020-08-19T07:52:57Z</time>
      </trkpt>
      <trkpt lat="48.53982" lon="-4.48564">
        <ele>23.5</ele>
        <time>2020-08-19T07:53:07Z</time>
      </trkpt>
      <trkpt lat="48.53964" lon="-4.48517">
        <ele>23.8</ele>
        <time>2020-08-19T07:53:18Z</time>
      </trkpt>
      <trkpt lat="48.53945" lon="-4.48474">
        <ele>25.7</ele>
        <time>2020-08-19T07:53:27Z</time>
      </trkpt>
      <trkpt lat="48.53916" lon="-4.48422">
        <ele>25.4</ele>
        <time>2020-08-19T07:53:39Z</time>
      </trkpt>
      <trkpt lat="48.53888" lon="-4.48376">
        <ele>25.2</ele>
        <time>2020-08-19T07:53:50Z</time>
      </trkpt>
      <trkpt lat="48.53862" lon="-4.48334">
        <ele>24.6</ele>
        <time>2020-08-19T07:54:00Z</time>
      </trkpt>
      <trkpt lat="48.53839" lon="-4.48299">
        <ele>24.9</ele>
        <time>2020-08-19T07:54:08Z</time>
      </trkpt>
      <trkpt lat="48.53807" lon="-4.48248">
        <ele>25</ele>
        <time>2020-08-19T07:54:19Z</time>
      </trkpt>
      <trkpt lat="48.5379" lon="-4.48218">
        <ele>26</ele>
        <time>2020-08-19T07:54:26Z</time>
      </trkpt>
      <trkpt lat="48.53773" lon="-4.48182">
        <ele>25.6</ele>
        <time>2020-08-19T07:54:34Z</time>
      </trkpt>
      <trkpt lat="48.53756" lon="-4.48144">
        <ele>24.8</ele>
        <time>2020-08-19T07:54:43Z</time>
      </trkpt>
      <trkpt lat="48.53743" lon="-4.48111">
        <ele>26</ele>
        <time>2020-08-19T07:54:52Z</time>
      </trkpt>
      <trkpt lat="48.53724" lon="-4.48059">
        <ele>26.6</ele>
        <time>2020-08-19T07:55:07Z</time>
      </trkpt>
      <trkpt lat="48.53711" lon="-4.48023">
        <ele>27.5</ele>
        <time>2020-08-19T07:55:18Z</time>
      </trkpt>
      <trkpt lat="48.53705" lon="-4.48008">
        <ele>27.7</ele>
        <time>2020-08-19T07:55:23Z</time>
      </trkpt>
      <trkpt lat="48.53691" lon="-4.47973">
        <ele>30.2</ele>
        <time>2020-08-19T07:55:34Z</time>
      </trkpt>
      <trkpt lat="48.53674" lon="-4.47938">
        <ele>31.1</ele>
        <time>2020-08-19T07:55:45Z</time>
      </trkpt>
      <trkpt lat="48.53661" lon="-4.47911">
        <ele>32.8</ele>
        <time>2020-08-19T07:55:54Z</time>
      </trkpt>
      <trkpt lat="48.5365" lon="-4.4789">
        <ele>34.1</ele>
        <time>2020-08-19T07:56:02Z</time>
      </trkpt>
      <trkpt lat="48.53642" lon="-4.47874">
        <ele>34.6</ele>
        <time>2020-08-19T07:56:08Z</time>
      </trkpt>
      <trkpt lat="48.5363" lon="-4.47851">
        <ele>35</ele>
        <time>2020-08-19T07:56:18Z</time>
      </trkpt>
      <trkpt lat="48.53619" lon="-4.4783">
        <ele>36.4</ele>
        <time>2020-08-19T07:56:27Z</time>
      </trkpt>
      <trkpt lat="48.53608" lon="-4.47806">
        <ele>36.6</ele>
        <time>2020-08-19T07:56:37Z</time>
      </trkpt>
      <trkpt lat="48.53596" lon="-4.47779">
        <ele>37.1</ele>
        <time>2020-08-19T07:56:48Z</time>
      </trkpt>
      <trkpt lat="48.53585" lon="-4.47751">
        <ele>37.9</ele>
        <time>2020-08-19T07:56:59Z</time>
      </trkpt>
      <trkpt lat="48.53575" lon="-4.47725">
        <ele>38.7</ele>
        <time>2020-08-19T07:57:08Z</time>
      </trkpt>
      <trkpt lat="48.53565" lon="-4.47697">
        <ele>39.2</ele>
        <time>2020-08-19T07:57:17Z</time>
      </trkpt>
      <trkpt lat="48.53548" lon="-4.47654">
        <ele>40.5</ele>
        <time>2020-08-19T07:57:30Z</time>
      </trkpt>
      <trkpt lat="48.5353" lon="-4.47614">
        <ele>40.7</ele>
        <time>2020-08-19T07:57:43Z</time>
      </trkpt>
      <trkpt lat="48.53513" lon="-4.47581">
        <ele>41.1</ele>
        <time>2020-08-19T07:57:54Z</time>
      </trkpt>
      <trkpt lat="48.53494" lon="-4.47551">
        <ele>43.1</ele>
        <time>2020-08-19T07:58:04Z</time>
      </trkpt>
      <trkpt lat="48.53478" lon="-4.47528">
        <ele>44</ele>
        <time>2020-08-19T07:58:12Z</time>
      </trkpt>
      <trkpt lat="48.5345" lon="-4.47494">
        <ele>46</ele>
        <time>2020-08-19T07:58:24Z</time>
      </trkpt>
      <trkpt lat="48.53429" lon="-4.47472">
        <ele>46.4</ele>
        <time>2020-08-19T07:58:33Z</time>
      </trkpt>
      <trkpt lat="48.53405" lon="-4.47448">
        <ele>48.9</ele>
        <time>2020-08-19T07:58:43Z</time>
      </trkpt>
      <trkpt lat="48.53403" lon="-4.47446">
        <ele>48.9</ele>
        <time>2020-08-19T07:58:44Z</time>
      </trkpt>
      <trkpt lat="48.53371" lon="-4.47416">
        <ele>48.6</ele>
        <time>2020-08-19T07:58:57Z</time>
      </trkpt>
      <trkpt lat="48.53341" lon="-4.47388">
        <ele>48.9</ele>
        <time>2020-08-19T07:59:09Z</time>
      </trkpt>
      <trkpt lat="48.53319" lon="-4.47367">
        <ele>49.6</ele>
        <time>2020-08-19T07:59:19Z</time>
      </trkpt>
      <trkpt lat="48.53297" lon="-4.47346">
        <ele>49.6</ele>
        <time>2020-08-19T07:59:29Z</time>
      </trkpt>
      <trkpt lat="48.53281" lon="-4.4733">
        <ele>50.1</ele>
        <time>2020-08-19T07:59:37Z</time>
      </trkpt>
      <trkpt lat="48.53266" lon="-4.47315">
        <ele>50.3</ele>
        <time>2020-08-19T07:59:44Z</time>
      </trkpt>
      <trkpt lat="48.53253" lon="-4.473">
        <ele>50.7</ele>
        <time>2020-08-19T07:59:52Z</time>
      </trkpt>
      <trkpt lat="48.53246" lon="-4.4729">
        <ele>53.1</ele>
        <time>2020-08-19T07:59:59Z</time>
      </trkpt>
      <trkpt lat="48.53244" lon="-4.47288">
        <ele>53.2</ele>
        <time>2020-08-19T08:00:02Z</time>
      </trkpt>
      <trkpt lat="48.53243" lon="-4.47286">
        <ele>53.3</ele>
        <time>2020-08-19T08:00:44Z</time>
      </trkpt>
      <trkpt lat="48.53236" lon="-4.47276">
        <ele>53.5</ele>
        <time>2020-08-19T08:00:49Z</time>
      </trkpt>
      <trkpt lat="48.53223" lon="-4.47257">
        <ele>53.9</ele>
        <time>2020-08-19T08:00:57Z</time>
      </trkpt>
      <trkpt lat="48.5321" lon="-4.47236">
        <ele>55.8</ele>
        <time>2020-08-19T08:01:06Z</time>
      </trkpt>
      <trkpt lat="48.53195" lon="-4.4721">
        <ele>56.5</ele>
        <time>2020-08-19T08:01:17Z</time>
      </trkpt>
      <trkpt lat="48.53178" lon="-4.47178">
        <ele>57.7</ele>
        <time>2020-08-19T08:01:29Z</time>
      </trkpt>
      <trkpt lat="48.53166" lon="-4.47155">
        <ele>60.3</ele>
        <time>2020-08-19T08:01:38Z</time>
      </trkpt>
      <trkpt lat="48.53152" lon="-4.47129">
        <ele>61.7</ele>
        <time>2020-08-19T08:01:47Z</time>
      </trkpt>
      <trkpt lat="48.53137" lon="-4.47099">
        <ele>62.3</ele>
        <time>2020-08-19T08:01:57Z</time>
      </trkpt>
      <trkpt lat="48.53124" lon="-4.47076">
        <ele>63.4</ele>
        <time>2020-08-19T08:02:05Z</time>
      </trkpt>
      <trkpt lat="48.53107" lon="-4.47044">
        <ele>63.7</ele>
        <time>2020-08-19T08:02:15Z</time>
      </trkpt>
      <trkpt lat="48.53096" lon="-4.47024">
        <ele>64</ele>
        <time>2020-08-19T08:02:21Z</time>
      </trkpt>
      <trkpt lat="48.53087" lon="-4.47007">
        <ele>64.5</ele>
        <time>2020-08-19T08:02:26Z</time>
      </trkpt>
      <trkpt lat="48.53074" lon="-4.46984">
        <ele>65.4</ele>
        <time>2020-08-19T08:02:33Z</time>
      </trkpt>
      <trkpt lat="48.53062" lon="-4.46962">
        <ele>65.6</ele>
        <time>2020-08-19T08:02:39Z</time>
      </trkpt>
      <trkpt lat="48.53037" lon="-4.46916">
        <ele>65.4</ele>
        <time>2020-08-19T08:02:52Z</time>
      </trkpt>
      <trkpt lat="48.5303" lon="-4.46902">
        <ele>65.6</ele>
        <time>2020-08-19T08:02:57Z</time>
      </trkpt>
      <trkpt lat="48.53021" lon="-4.46883">
        <ele>65.6</ele>
        <time>2020-08-19T08:03:03Z</time>
      </trkpt>
      <trkpt lat="48.53012" lon="-4.46857">
        <ele>65.5</ele>
        <time>2020-08-19T08:03:10Z</time>
      </trkpt>
      <trkpt lat="48.53002" lon="-4.4683">
        <ele>65.8</ele>
        <time>2020-08-19T08:03:18Z</time>
      </trkpt>
      <trkpt lat="48.52998" lon="-4.46812">
        <ele>66.5</ele>
        <time>2020-08-19T08:03:26Z</time>
      </trkpt>
      <trkpt lat="48.53" lon="-4.4675">
        <ele>66</ele>
        <time>2020-08-19T08:03:34Z</time>
      </trkpt>
      <trkpt lat="48.52994" lon="-4.46691">
        <ele>65.6</ele>
        <time>2020-08-19T08:03:43Z</time>
      </trkpt>
      <trkpt lat="48.52977" lon="-4.46633">
        <ele>65.4</ele>
        <time>2020-08-19T08:03:53Z</time>
      </trkpt>
      <trkpt lat="48.52968" lon="-4.46567">
        <ele>65.4</ele>
        <time>2020-08-19T08:04:03Z</time>
      </trkpt>
      <trkpt lat="48.52967" lon="-4.46494">
        <ele>65.3</ele>
        <time>2020-08-19T08:04:13Z</time>
      </trkpt>
      <trkpt lat="48.52975" lon="-4.4641">
        <ele>65</ele>
        <time>2020-08-19T08:04:25Z</time>
      </trkpt>
      <trkpt lat="48.52982" lon="-4.46345">
        <ele>65.4</ele>
        <time>2020-08-19T08:04:34Z</time>
      </trkpt>
      <trkpt lat="48.52989" lon="-4.4629">
        <ele>65.7</ele>
        <time>2020-08-19T08:04:42Z</time>
      </trkpt>
      <trkpt lat="48.52991" lon="-4.46273">
        <ele>65.9</ele>
        <time>2020-08-19T08:04:51Z</time>
      </trkpt>
      <trkpt lat="48.53004" lon="-4.46156">
        <ele>65.3</ele>
        <time>2020-08-19T08:05:01Z</time>
      </trkpt>
      <trkpt lat="48.53013" lon="-4.46082">
        <ele>63.8</ele>
        <time>2020-08-19T08:05:10Z</time>
      </trkpt>
      <trkpt lat="48.53025" lon="-4.4599">
        <ele>63</ele>
        <time>2020-08-19T08:05:21Z</time>
      </trkpt>
      <trkpt lat="48.53031" lon="-4.45935">
        <ele>63</ele>
        <time>2020-08-19T08:05:27Z</time>
      </trkpt>
      <trkpt lat="48.53034" lon="-4.45842">
        <ele>61.9</ele>
        <time>2020-08-19T08:05:37Z</time>
      </trkpt>
      <trkpt lat="48.53028" lon="-4.45766">
        <ele>60.5</ele>
        <time>2020-08-19T08:05:46Z</time>
      </trkpt>
      <trkpt lat="48.53021" lon="-4.45702">
        <ele>59.5</ele>
        <time>2020-08-19T08:05:53Z</time>
      </trkpt>
      <trkpt lat="48.53013" lon="-4.45636">
        <ele>58</ele>
        <time>2020-08-19T08:06:00Z</time>
      </trkpt>
      <trkpt lat="48.53008" lon="-4.45571">
        <ele>56.3</ele>
        <time>2020-08-19T08:06:07Z</time>
      </trkpt>
      <trkpt lat="48.53009" lon="-4.45536">
        <ele>55.6</ele>
        <time>2020-08-19T08:06:12Z</time>
      </trkpt>
      <trkpt lat="48.5301" lon="-4.45522">
        <ele>55.4</ele>
        <time>2020-08-19T08:06:17Z</time>
      </trkpt>
      <trkpt lat="48.53037" lon="-4.45475">
        <ele>54.7</ele>
        <time>2020-08-19T08:06:25Z</time>
      </trkpt>
      <trkpt lat="48.53055" lon="-4.45449">
        <ele>54.8</ele>
        <time>2020-08-19T08:06:33Z</time>
      </trkpt>
      <trkpt lat="48.53059" lon="-4.45419">
        <ele>54.9</ele>
        <time>2020-08-19T08:06:38Z</time>
      </trkpt>
      <trkpt lat="48.5305" lon="-4.45397">
        <ele>56.3</ele>
        <time>2020-08-19T08:06:45Z</time>
      </trkpt>
      <trkpt lat="48.53042" lon="-4.45367">
        <ele>56.9</ele>
        <time>2020-08-19T08:06:54Z</time>
      </trkpt>
      <trkpt lat="48.5303" lon="-4.45328">
        <ele>58.7</ele>
        <time>2020-08-19T08:07:04Z</time>
      </trkpt>
      <trkpt lat="48.53027" lon="-4.45286">
        <ele>59</ele>
        <time>2020-08-19T08:07:13Z</time>
      </trkpt>
      <trkpt lat="48.53029" lon="-4.45246">
        <ele>59.8</ele>
        <time>2020-08-19T08:07:22Z</time>
      </trkpt>
      <trkpt lat="48.5303" lon="-4.45211">
        <ele>60.2</ele>
        <time>2020-08-19T08:07:31Z</time>
      </trkpt>
      <trkpt lat="48.53028" lon="-4.45196">
        <ele>60.3</ele>
        <time>2020-08-19T08:07:37Z</time>
      </trkpt>
      <trkpt lat="48.53026" lon="-4.45192">
        <ele>60.4</ele>
        <time>2020-08-19T08:07:45Z</time>
      </trkpt>
      <trkpt lat="48.53005" lon="-4.45179">
        <ele>60.7</ele>
        <time>2020-08-19T08:07:54Z</time>
      </trkpt>
      <trkpt lat="48.52999" lon="-4.45163">
        <ele>61</ele>
        <time>2020-08-19T08:07:59Z</time>
      </trkpt>
      <trkpt lat="48.53" lon="-4.45146">
        <ele>61.1</ele>
        <time>2020-08-19T08:08:05Z</time>
      </trkpt>
      <trkpt lat="48.53" lon="-4.45134">
        <ele>61.1</ele>
        <time>2020-08-19T08:08:11Z</time>
      </trkpt>
      <trkpt lat="48.53" lon="-4.45134">
        <ele>61.1</ele>
        <time>2020-08-19T08:08:12Z</time>
      </trkpt>
      <trkpt lat="48.53" lon="-4.45134">
        <ele>61.1</ele>
        <time>2020-08-19T08:21:44Z</time>
      </trkpt>
      <trkpt lat="48.53001" lon="-4.45124">
        <ele>61.2</ele>
        <time>2020-08-19T08:21:48Z</time>
      </trkpt>
      <trkpt lat="48.53006" lon="-4.45103">
        <ele>61.1</ele>
        <time>2020-08-19T08:21:54Z</time>
      </trkpt>
      <trkpt lat="48.53027" lon="-4.45065">
        <ele>61.4</ele>
        <time>2020-08-19T08:22:04Z</time>
      </trkpt>
      <trkpt lat="48.53025" lon="-4.44982">
        <ele>61.6</ele>
        <time>2020-08-19T08:22:11Z</time>
      </trkpt>
      <trkpt lat="48.53016" lon="-4.44989">
        <ele>61.7</ele>
        <time>2020-08-19T08:22:21Z</time>
      </trkpt>
      <trkpt lat="48.53016" lon="-4.44989">
        <ele>61.7</ele>
        <time>2020-08-19T08:22:29Z</time>
      </trkpt>
      <trkpt lat="48.53014" lon="-4.44976">
        <ele>61.7</ele>
        <time>2020-08-19T08:22:34Z</time>
      </trkpt>
      <trkpt lat="48.53073" lon="-4.44927">
        <ele>61.2</ele>
        <time>2020-08-19T08:22:41Z</time>
      </trkpt>
      <trkpt lat="48.5307" lon="-4.44883">
        <ele>61.2</ele>
        <time>2020-08-19T08:22:49Z</time>
      </trkpt>
      <trkpt lat="48.53076" lon="-4.44945">
        <ele>61.3</ele>
        <time>2020-08-19T08:22:55Z</time>
      </trkpt>
      <trkpt lat="48.53081" lon="-4.44872">
        <ele>61.2</ele>
        <time>2020-08-19T08:23:00Z</time>
      </trkpt>
      <trkpt lat="48.53076" lon="-4.44945">
        <ele>61.3</ele>
        <time>2020-08-19T08:23:03Z</time>
      </trkpt>
      <trkpt lat="48.53076" lon="-4.44945">
        <ele>61.3</ele>
        <time>2020-08-19T08:23:06Z</time>
      </trkpt>
      <trkpt lat="48.53069" lon="-4.44892">
        <ele>61.2</ele>
        <time>2020-08-19T08:23:15Z</time>
      </trkpt>
      <trkpt lat="48.53072" lon="-4.44922">
        <ele>61.2</ele>
        <time>2020-08-19T08:23:22Z</time>
      </trkpt>
      <trkpt lat="48.53074" lon="-4.44934">
        <ele>61.3</ele>
        <time>2020-08-19T08:23:25Z</time>
      </trkpt>
      <trkpt lat="48.53094" lon="-4.44932">
        <ele>61</ele>
        <time>2020-08-19T08:23:30Z</time>
      </trkpt>
      <trkpt lat="48.53096" lon="-4.44962">
        <ele>61</ele>
        <time>2020-08-19T08:23:34Z</time>
      </trkpt>
      <trkpt lat="48.53093" lon="-4.44933">
        <ele>61</ele>
        <time>2020-08-19T08:23:38Z</time>
      </trkpt>
      <trkpt lat="48.53088" lon="-4.44937">
        <ele>61</ele>
        <time>2020-08-19T08:23:42Z</time>
      </trkpt>
      <trkpt lat="48.53081" lon="-4.44942">
        <ele>61.3</ele>
        <time>2020-08-19T08:23:45Z</time>
      </trkpt>
      <trkpt lat="48.53062" lon="-4.44955">
        <ele>61.4</ele>
        <time>2020-08-19T08:23:53Z</time>
      </trkpt>
      <trkpt lat="48.53043" lon="-4.44969">
        <ele>61.5</ele>
        <time>2020-08-19T08:24:01Z</time>
      </trkpt>
      <trkpt lat="48.53026" lon="-4.44982">
        <ele>61.6</ele>
        <time>2020-08-19T08:24:10Z</time>
      </trkpt>
      <trkpt lat="48.53015" lon="-4.44978">
        <ele>61.7</ele>
        <time>2020-08-19T08:24:15Z</time>
      </trkpt>
      <trkpt lat="48.5301" lon="-4.44938">
        <ele>61.7</ele>
        <time>2020-08-19T08:24:23Z</time>
      </trkpt>
      <trkpt lat="48.53007" lon="-4.44902">
        <ele>61.6</ele>
        <time>2020-08-19T08:24:30Z</time>
      </trkpt>
      <trkpt lat="48.53004" lon="-4.44855">
        <ele>61.2</ele>
        <time>2020-08-19T08:24:39Z</time>
      </trkpt>
      <trkpt lat="48.53001" lon="-4.44802">
        <ele>60.6</ele>
        <time>2020-08-19T08:24:48Z</time>
      </trkpt>
      <trkpt lat="48.52996" lon="-4.44751">
        <ele>60.1</ele>
        <time>2020-08-19T08:24:57Z</time>
      </trkpt>
      <trkpt lat="48.52993" lon="-4.44703">
        <ele>60.7</ele>
        <time>2020-08-19T08:25:06Z</time>
      </trkpt>
      <trkpt lat="48.5299" lon="-4.44669">
        <ele>60.9</ele>
        <time>2020-08-19T08:25:13Z</time>
      </trkpt>
      <trkpt lat="48.52987" lon="-4.44635">
        <ele>61.6</ele>
        <time>2020-08-19T08:25:21Z</time>
      </trkpt>
      <trkpt lat="48.52986" lon="-4.44614">
        <ele>61.7</ele>
        <time>2020-08-19T08:25:26Z</time>
      </trkpt>
      <trkpt lat="48.52986" lon="-4.44574">
        <ele>62.1</ele>
        <time>2020-08-19T08:25:35Z</time>
      </trkpt>
      <trkpt lat="48.52984" lon="-4.44532">
        <ele>62.4</ele>
        <time>2020-08-19T08:25:44Z</time>
      </trkpt>
      <trkpt lat="48.52982" lon="-4.44496">
        <ele>62.6</ele>
        <time>2020-08-19T08:25:52Z</time>
      </trkpt>
      <trkpt lat="48.52978" lon="-4.44457">
        <ele>62.3</ele>
        <time>2020-08-19T08:26:00Z</time>
      </trkpt>
      <trkpt lat="48.52978" lon="-4.44451">
        <ele>62.3</ele>
        <time>2020-08-19T08:26:03Z</time>
      </trkpt>
      <trkpt lat="48.52986" lon="-4.44443">
        <ele>62.2</ele>
        <time>2020-08-19T08:26:07Z</time>
      </trkpt>
      <trkpt lat="48.52978" lon="-4.44451">
        <ele>62.3</ele>
        <time>2020-08-19T08:26:11Z</time>
      </trkpt>
      <trkpt lat="48.52978" lon="-4.44451">
        <ele>62.3</ele>
        <time>2020-08-19T08:26:12Z</time>
      </trkpt>
      <trkpt lat="48.52978" lon="-4.44451">
        <ele>62.3</ele>
        <time>2020-08-19T08:26:19Z</time>
      </trkpt>
      <trkpt lat="48.52982" lon="-4.44502">
        <ele>62.6</ele>
        <time>2020-08-19T08:26:23Z</time>
      </trkpt>
      <trkpt lat="48.52982" lon="-4.44502">
        <ele>62.6</ele>
        <time>2020-08-19T08:26:32Z</time>
      </trkpt>
      <trkpt lat="48.52982" lon="-4.44502">
        <ele>62.6</ele>
        <time>2020-08-19T08:26:59Z</time>
      </trkpt>
      <trkpt lat="48.52984" lon="-4.44525">
        <ele>62.4</ele>
        <time>2020-08-19T08:28:40Z</time>
      </trkpt>
      <trkpt lat="48.52986" lon="-4.44561">
        <ele>62.2</ele>
        <time>2020-08-19T08:28:46Z</time>
      </trkpt>
      <trkpt lat="48.52987" lon="-4.44634">
        <ele>61.6</ele>
        <time>2020-08-19T08:28:56Z</time>
      </trkpt>
      <trkpt lat="48.52991" lon="-4.44685">
        <ele>60.9</ele>
        <time>2020-08-19T08:29:03Z</time>
      </trkpt>
      <trkpt lat="48.52997" lon="-4.44764">
        <ele>60.2</ele>
        <time>2020-08-19T08:29:13Z</time>
      </trkpt>
      <trkpt lat="48.53002" lon="-4.44821">
        <ele>60.8</ele>
        <time>2020-08-19T08:29:21Z</time>
      </trkpt>
      <trkpt lat="48.53005" lon="-4.4487">
        <ele>61.3</ele>
        <time>2020-08-19T08:29:29Z</time>
      </trkpt>
      <trkpt lat="48.5301" lon="-4.4493">
        <ele>61.8</ele>
        <time>2020-08-19T08:29:39Z</time>
      </trkpt>
      <trkpt lat="48.53014" lon="-4.44971">
        <ele>61.7</ele>
        <time>2020-08-19T08:29:46Z</time>
      </trkpt>
      <trkpt lat="48.53015" lon="-4.4498">
        <ele>61.7</ele>
        <time>2020-08-19T08:29:48Z</time>
      </trkpt>
      <trkpt lat="48.53017" lon="-4.44989">
        <ele>61.7</ele>
        <time>2020-08-19T08:29:53Z</time>
      </trkpt>
      <trkpt lat="48.53" lon="-4.45">
        <ele>62</ele>
        <time>2020-08-19T08:30:00Z</time>
      </trkpt>
      <trkpt lat="48.52981" lon="-4.45011">
        <ele>61.5</ele>
        <time>2020-08-19T08:30:08Z</time>
      </trkpt>
      <trkpt lat="48.52968" lon="-4.45015">
        <ele>61.4</ele>
        <time>2020-08-19T08:30:14Z</time>
      </trkpt>
      <trkpt lat="48.52937" lon="-4.45025">
        <ele>61.2</ele>
        <time>2020-08-19T08:30:24Z</time>
      </trkpt>
      <trkpt lat="48.52906" lon="-4.45033">
        <ele>61</ele>
        <time>2020-08-19T08:30:34Z</time>
      </trkpt>
      <trkpt lat="48.52868" lon="-4.45043">
        <ele>61</ele>
        <time>2020-08-19T08:30:46Z</time>
      </trkpt>
      <trkpt lat="48.52841" lon="-4.4505">
        <ele>61</ele>
        <time>2020-08-19T08:30:55Z</time>
      </trkpt>
      <trkpt lat="48.5281" lon="-4.45058">
        <ele>61</ele>
        <time>2020-08-19T08:31:05Z</time>
      </trkpt>
      <trkpt lat="48.52782" lon="-4.45063">
        <ele>61</ele>
        <time>2020-08-19T08:31:14Z</time>
      </trkpt>
      <trkpt lat="48.52755" lon="-4.45069">
        <ele>61</ele>
        <time>2020-08-19T08:31:22Z</time>
      </trkpt>
      <trkpt lat="48.52737" lon="-4.45074">
        <ele>61.1</ele>
        <time>2020-08-19T08:31:28Z</time>
      </trkpt>
      <trkpt lat="48.52701" lon="-4.45083">
        <ele>61.4</ele>
        <time>2020-08-19T08:31:40Z</time>
      </trkpt>
      <trkpt lat="48.52681" lon="-4.45088">
        <ele>61.5</ele>
        <time>2020-08-19T08:31:47Z</time>
      </trkpt>
      <trkpt lat="48.52654" lon="-4.45094">
        <ele>62.2</ele>
        <time>2020-08-19T08:31:57Z</time>
      </trkpt>
      <trkpt lat="48.52619" lon="-4.45103">
        <ele>62.7</ele>
        <time>2020-08-19T08:32:10Z</time>
      </trkpt>
      <trkpt lat="48.52588" lon="-4.45111">
        <ele>63</ele>
        <time>2020-08-19T08:32:22Z</time>
      </trkpt>
      <trkpt lat="48.52561" lon="-4.45117">
        <ele>63.9</ele>
        <time>2020-08-19T08:32:32Z</time>
      </trkpt>
      <trkpt lat="48.52536" lon="-4.45126">
        <ele>64</ele>
        <time>2020-08-19T08:32:41Z</time>
      </trkpt>
      <trkpt lat="48.52529" lon="-4.4513">
        <ele>64</ele>
        <time>2020-08-19T08:32:45Z</time>
      </trkpt>
      <trkpt lat="48.5252" lon="-4.45147">
        <ele>64</ele>
        <time>2020-08-19T08:32:50Z</time>
      </trkpt>
      <trkpt lat="48.52518" lon="-4.45156">
        <ele>64</ele>
        <time>2020-08-19T08:32:54Z</time>
      </trkpt>
      <trkpt lat="48.52502" lon="-4.45157">
        <ele>64</ele>
        <time>2020-08-19T08:33:01Z</time>
      </trkpt>
      <trkpt lat="48.5249" lon="-4.45168">
        <ele>63.9</ele>
        <time>2020-08-19T08:33:07Z</time>
      </trkpt>
      <trkpt lat="48.5248" lon="-4.45179">
        <ele>63.7</ele>
        <time>2020-08-19T08:33:12Z</time>
      </trkpt>
      <trkpt lat="48.52476" lon="-4.45163">
        <ele>64.7</ele>
        <time>2020-08-19T08:33:16Z</time>
      </trkpt>
      <trkpt lat="48.52466" lon="-4.45142">
        <ele>65</ele>
        <time>2020-08-19T08:33:24Z</time>
      </trkpt>
      <trkpt lat="48.52439" lon="-4.45142">
        <ele>65.2</ele>
        <time>2020-08-19T08:33:34Z</time>
      </trkpt>
      <trkpt lat="48.52408" lon="-4.45144">
        <ele>65</ele>
        <time>2020-08-19T08:33:44Z</time>
      </trkpt>
      <trkpt lat="48.52377" lon="-4.45146">
        <ele>64.6</ele>
        <time>2020-08-19T08:33:54Z</time>
      </trkpt>
      <trkpt lat="48.52351" lon="-4.45149">
        <ele>64.1</ele>
        <time>2020-08-19T08:34:02Z</time>
      </trkpt>
      <trkpt lat="48.52318" lon="-4.45152">
        <ele>62.5</ele>
        <time>2020-08-19T08:34:10Z</time>
      </trkpt>
      <trkpt lat="48.52284" lon="-4.45157">
        <ele>61.9</ele>
        <time>2020-08-19T08:34:18Z</time>
      </trkpt>
      <trkpt lat="48.52274" lon="-4.45158">
        <ele>61.7</ele>
        <time>2020-08-19T08:34:20Z</time>
      </trkpt>
      <trkpt lat="48.52242" lon="-4.45162">
        <ele>60.5</ele>
        <time>2020-08-19T08:34:27Z</time>
      </trkpt>
      <trkpt lat="48.52197" lon="-4.45165">
        <ele>59.3</ele>
        <time>2020-08-19T08:34:37Z</time>
      </trkpt>
      <trkpt lat="48.52165" lon="-4.4517">
        <ele>59</ele>
        <time>2020-08-19T08:34:44Z</time>
      </trkpt>
      <trkpt lat="48.52138" lon="-4.45172">
        <ele>59.1</ele>
        <time>2020-08-19T08:34:50Z</time>
      </trkpt>
      <trkpt lat="48.52105" lon="-4.45173">
        <ele>58.7</ele>
        <time>2020-08-19T08:34:58Z</time>
      </trkpt>
      <trkpt lat="48.52078" lon="-4.45174">
        <ele>58.8</ele>
        <time>2020-08-19T08:35:06Z</time>
      </trkpt>
      <trkpt lat="48.52055" lon="-4.45173">
        <ele>60</ele>
        <time>2020-08-19T08:35:14Z</time>
      </trkpt>
      <trkpt lat="48.52038" lon="-4.45173">
        <ele>60.6</ele>
        <time>2020-08-19T08:35:20Z</time>
      </trkpt>
      <trkpt lat="48.52013" lon="-4.45173">
        <ele>61.4</ele>
        <time>2020-08-19T08:35:30Z</time>
      </trkpt>
      <trkpt lat="48.51987" lon="-4.45173">
        <ele>62.4</ele>
        <time>2020-08-19T08:35:40Z</time>
      </trkpt>
      <trkpt lat="48.51965" lon="-4.45173">
        <ele>62.6</ele>
        <time>2020-08-19T08:35:49Z</time>
      </trkpt>
      <trkpt lat="48.51941" lon="-4.45174">
        <ele>62.6</ele>
        <time>2020-08-19T08:35:58Z</time>
      </trkpt>
      <trkpt lat="48.51926" lon="-4.45176">
        <ele>62.4</ele>
        <time>2020-08-19T08:36:04Z</time>
      </trkpt>
      <trkpt lat="48.51906" lon="-4.45178">
        <ele>62.6</ele>
        <time>2020-08-19T08:36:12Z</time>
      </trkpt>
      <trkpt lat="48.51886" lon="-4.45183">
        <ele>62.8</ele>
        <time>2020-08-19T08:36:20Z</time>
      </trkpt>
      <trkpt lat="48.51862" lon="-4.45191">
        <ele>62.8</ele>
        <time>2020-08-19T08:36:29Z</time>
      </trkpt>
      <trkpt lat="48.51834" lon="-4.45203">
        <ele>63</ele>
        <time>2020-08-19T08:36:38Z</time>
      </trkpt>
      <trkpt lat="48.518" lon="-4.45222">
        <ele>62.2</ele>
        <time>2020-08-19T08:36:49Z</time>
      </trkpt>
      <trkpt lat="48.51775" lon="-4.45238">
        <ele>62</ele>
        <time>2020-08-19T08:36:57Z</time>
      </trkpt>
      <trkpt lat="48.51747" lon="-4.45261">
        <ele>61.7</ele>
        <time>2020-08-19T08:37:06Z</time>
      </trkpt>
      <trkpt lat="48.5173" lon="-4.4528">
        <ele>61.4</ele>
        <time>2020-08-19T08:37:12Z</time>
      </trkpt>
      <trkpt lat="48.5171" lon="-4.45303">
        <ele>61.1</ele>
        <time>2020-08-19T08:37:19Z</time>
      </trkpt>
      <trkpt lat="48.51695" lon="-4.45321">
        <ele>60.6</ele>
        <time>2020-08-19T08:37:24Z</time>
      </trkpt>
      <trkpt lat="48.51682" lon="-4.45334">
        <ele>60.8</ele>
        <time>2020-08-19T08:37:28Z</time>
      </trkpt>
      <trkpt lat="48.51667" lon="-4.45352">
        <ele>61</ele>
        <time>2020-08-19T08:37:32Z</time>
      </trkpt>
      <trkpt lat="48.51643" lon="-4.4538">
        <ele>58.4</ele>
        <time>2020-08-19T08:37:39Z</time>
      </trkpt>
      <trkpt lat="48.51624" lon="-4.45402">
        <ele>58.1</ele>
        <time>2020-08-19T08:37:45Z</time>
      </trkpt>
      <trkpt lat="48.51601" lon="-4.45425">
        <ele>58.8</ele>
        <time>2020-08-19T08:37:52Z</time>
      </trkpt>
      <trkpt lat="48.51576" lon="-4.45447">
        <ele>57.4</ele>
        <time>2020-08-19T08:37:59Z</time>
      </trkpt>
      <trkpt lat="48.51556" lon="-4.45465">
        <ele>57.9</ele>
        <time>2020-08-19T08:38:05Z</time>
      </trkpt>
      <trkpt lat="48.51533" lon="-4.45474">
        <ele>57.7</ele>
        <time>2020-08-19T08:38:11Z</time>
      </trkpt>
      <trkpt lat="48.51517" lon="-4.45479">
        <ele>57.7</ele>
        <time>2020-08-19T08:38:15Z</time>
      </trkpt>
      <trkpt lat="48.51484" lon="-4.45485">
        <ele>57.7</ele>
        <time>2020-08-19T08:38:22Z</time>
      </trkpt>
      <trkpt lat="48.51454" lon="-4.4549">
        <ele>57.7</ele>
        <time>2020-08-19T08:38:29Z</time>
      </trkpt>
      <trkpt lat="48.51425" lon="-4.45495">
        <ele>57.3</ele>
        <time>2020-08-19T08:38:36Z</time>
      </trkpt>
      <trkpt lat="48.51394" lon="-4.45499">
        <ele>59.4</ele>
        <time>2020-08-19T08:38:44Z</time>
      </trkpt>
      <trkpt lat="48.51382" lon="-4.45501">
        <ele>59.6</ele>
        <time>2020-08-19T08:38:48Z</time>
      </trkpt>
      <trkpt lat="48.51366" lon="-4.45499">
        <ele>60.8</ele>
        <time>2020-08-19T08:38:52Z</time>
      </trkpt>
      <trkpt lat="48.51365" lon="-4.45507">
        <ele>60.4</ele>
        <time>2020-08-19T08:38:56Z</time>
      </trkpt>
      <trkpt lat="48.51347" lon="-4.45511">
        <ele>61.1</ele>
        <time>2020-08-19T08:39:03Z</time>
      </trkpt>
      <trkpt lat="48.51326" lon="-4.45512">
        <ele>62.9</ele>
        <time>2020-08-19T08:39:11Z</time>
      </trkpt>
      <trkpt lat="48.51313" lon="-4.45514">
        <ele>63.3</ele>
        <time>2020-08-19T08:39:16Z</time>
      </trkpt>
      <trkpt lat="48.51299" lon="-4.45516">
        <ele>63.6</ele>
        <time>2020-08-19T08:39:21Z</time>
      </trkpt>
      <trkpt lat="48.51282" lon="-4.45518">
        <ele>63.9</ele>
        <time>2020-08-19T08:39:26Z</time>
      </trkpt>
      <trkpt lat="48.51261" lon="-4.45516">
        <ele>64</ele>
        <time>2020-08-19T08:39:33Z</time>
      </trkpt>
      <trkpt lat="48.51242" lon="-4.45509">
        <ele>64.5</ele>
        <time>2020-08-19T08:39:39Z</time>
      </trkpt>
      <trkpt lat="48.51225" lon="-4.455">
        <ele>64.8</ele>
        <time>2020-08-19T08:39:45Z</time>
      </trkpt>
      <trkpt lat="48.51213" lon="-4.4549">
        <ele>65</ele>
        <time>2020-08-19T08:39:50Z</time>
      </trkpt>
      <trkpt lat="48.51201" lon="-4.45478">
        <ele>65.1</ele>
        <time>2020-08-19T08:39:55Z</time>
      </trkpt>
      <trkpt lat="48.5119" lon="-4.45465">
        <ele>65.2</ele>
        <time>2020-08-19T08:39:59Z</time>
      </trkpt>
      <trkpt lat="48.51172" lon="-4.45438">
        <ele>65.6</ele>
        <time>2020-08-19T08:40:06Z</time>
      </trkpt>
      <trkpt lat="48.51163" lon="-4.45421">
        <ele>66.1</ele>
        <time>2020-08-19T08:40:10Z</time>
      </trkpt>
      <trkpt lat="48.51154" lon="-4.45406">
        <ele>66.3</ele>
        <time>2020-08-19T08:40:15Z</time>
      </trkpt>
      <trkpt lat="48.51144" lon="-4.45389">
        <ele>66.4</ele>
        <time>2020-08-19T08:40:21Z</time>
      </trkpt>
      <trkpt lat="48.51137" lon="-4.45379">
        <ele>66.4</ele>
        <time>2020-08-19T08:40:25Z</time>
      </trkpt>
      <trkpt lat="48.51127" lon="-4.45366">
        <ele>66.4</ele>
        <time>2020-08-19T08:40:30Z</time>
      </trkpt>
      <trkpt lat="48.51113" lon="-4.45349">
        <ele>66.4</ele>
        <time>2020-08-19T08:40:36Z</time>
      </trkpt>
      <trkpt lat="48.51102" lon="-4.45335">
        <ele>66.3</ele>
        <time>2020-08-19T08:40:41Z</time>
      </trkpt>
      <trkpt lat="48.51085" lon="-4.45312">
        <ele>65.4</ele>
        <time>2020-08-19T08:40:48Z</time>
      </trkpt>
      <trkpt lat="48.5107" lon="-4.45294">
        <ele>63.9</ele>
        <time>2020-08-19T08:40:53Z</time>
      </trkpt>
      <trkpt lat="48.51056" lon="-4.45277">
        <ele>63.4</ele>
        <time>2020-08-19T08:40:58Z</time>
      </trkpt>
      <trkpt lat="48.51039" lon="-4.4526">
        <ele>63.2</ele>
        <time>2020-08-19T08:41:04Z</time>
      </trkpt>
      <trkpt lat="48.51029" lon="-4.45248">
        <ele>62.3</ele>
        <time>2020-08-19T08:41:08Z</time>
      </trkpt>
      <trkpt lat="48.51014" lon="-4.45232">
        <ele>62.3</ele>
        <time>2020-08-19T08:41:14Z</time>
      </trkpt>
      <trkpt lat="48.51002" lon="-4.45218">
        <ele>62.3</ele>
        <time>2020-08-19T08:41:19Z</time>
      </trkpt>
      <trkpt lat="48.50987" lon="-4.45198">
        <ele>63.2</ele>
        <time>2020-08-19T08:41:25Z</time>
      </trkpt>
      <trkpt lat="48.50967" lon="-4.45171">
        <ele>63.4</ele>
        <time>2020-08-19T08:41:35Z</time>
      </trkpt>
      <trkpt lat="48.50953" lon="-4.45154">
        <ele>63.6</ele>
        <time>2020-08-19T08:41:42Z</time>
      </trkpt>
      <trkpt lat="48.50935" lon="-4.45131">
        <ele>63.7</ele>
        <time>2020-08-19T08:41:50Z</time>
      </trkpt>
      <trkpt lat="48.50918" lon="-4.45109">
        <ele>63.5</ele>
        <time>2020-08-19T08:41:58Z</time>
      </trkpt>
      <trkpt lat="48.50903" lon="-4.45088">
        <ele>64</ele>
        <time>2020-08-19T08:42:06Z</time>
      </trkpt>
      <trkpt lat="48.50894" lon="-4.45077">
        <ele>64.3</ele>
        <time>2020-08-19T08:42:11Z</time>
      </trkpt>
      <trkpt lat="48.50885" lon="-4.45067">
        <ele>64.6</ele>
        <time>2020-08-19T08:42:15Z</time>
      </trkpt>
      <trkpt lat="48.50867" lon="-4.45045">
        <ele>65.1</ele>
        <time>2020-08-19T08:42:23Z</time>
      </trkpt>
      <trkpt lat="48.50852" lon="-4.45027">
        <ele>65.3</ele>
        <time>2020-08-19T08:42:29Z</time>
      </trkpt>
      <trkpt lat="48.50835" lon="-4.45007">
        <ele>65.8</ele>
        <time>2020-08-19T08:42:36Z</time>
      </trkpt>
      <trkpt lat="48.50814" lon="-4.44987">
        <ele>66</ele>
        <time>2020-08-19T08:42:44Z</time>
      </trkpt>
      <trkpt lat="48.5079" lon="-4.44963">
        <ele>66</ele>
        <time>2020-08-19T08:42:53Z</time>
      </trkpt>
      <trkpt lat="48.50774" lon="-4.4495">
        <ele>66</ele>
        <time>2020-08-19T08:42:59Z</time>
      </trkpt>
      <trkpt lat="48.50758" lon="-4.44937">
        <ele>66</ele>
        <time>2020-08-19T08:43:05Z</time>
      </trkpt>
      <trkpt lat="48.50741" lon="-4.44923">
        <ele>66.4</ele>
        <time>2020-08-19T08:43:11Z</time>
      </trkpt>
      <trkpt lat="48.50723" lon="-4.4491">
        <ele>66.4</ele>
        <time>2020-08-19T08:43:17Z</time>
      </trkpt>
      <trkpt lat="48.50705" lon="-4.44898">
        <ele>66.5</ele>
        <time>2020-08-19T08:43:23Z</time>
      </trkpt>
      <trkpt lat="48.50685" lon="-4.44885">
        <ele>66.6</ele>
        <time>2020-08-19T08:43:30Z</time>
      </trkpt>
      <trkpt lat="48.5067" lon="-4.44878">
        <ele>66.7</ele>
        <time>2020-08-19T08:43:35Z</time>
      </trkpt>
      <trkpt lat="48.50656" lon="-4.44874">
        <ele>67</ele>
        <time>2020-08-19T08:43:40Z</time>
      </trkpt>
      <trkpt lat="48.50634" lon="-4.44863">
        <ele>67</ele>
        <time>2020-08-19T08:43:48Z</time>
      </trkpt>
      <trkpt lat="48.50614" lon="-4.44852">
        <ele>67</ele>
        <time>2020-08-19T08:43:55Z</time>
      </trkpt>
      <trkpt lat="48.50588" lon="-4.44837">
        <ele>67</ele>
        <time>2020-08-19T08:44:04Z</time>
      </trkpt>
      <trkpt lat="48.5056" lon="-4.44815">
        <ele>68.7</ele>
        <time>2020-08-19T08:44:14Z</time>
      </trkpt>
      <trkpt lat="48.50535" lon="-4.44792">
        <ele>69.3</ele>
        <time>2020-08-19T08:44:24Z</time>
      </trkpt>
      <trkpt lat="48.50512" lon="-4.44769">
        <ele>69.6</ele>
        <time>2020-08-19T08:44:34Z</time>
      </trkpt>
      <trkpt lat="48.50487" lon="-4.44739">
        <ele>71.1</ele>
        <time>2020-08-19T08:44:45Z</time>
      </trkpt>
      <trkpt lat="48.50466" lon="-4.4471">
        <ele>72</ele>
        <time>2020-08-19T08:44:56Z</time>
      </trkpt>
      <trkpt lat="48.50452" lon="-4.44688">
        <ele>72.5</ele>
        <time>2020-08-19T08:45:04Z</time>
      </trkpt>
      <trkpt lat="48.50437" lon="-4.44665">
        <ele>74.2</ele>
        <time>2020-08-19T08:45:13Z</time>
      </trkpt>
      <trkpt lat="48.5042" lon="-4.44641">
        <ele>74.6</ele>
        <time>2020-08-19T08:45:23Z</time>
      </trkpt>
      <trkpt lat="48.504" lon="-4.44615">
        <ele>76.9</ele>
        <time>2020-08-19T08:45:34Z</time>
      </trkpt>
      <trkpt lat="48.5038" lon="-4.44588">
        <ele>77.3</ele>
        <time>2020-08-19T08:45:45Z</time>
      </trkpt>
      <trkpt lat="48.50365" lon="-4.44568">
        <ele>78.9</ele>
        <time>2020-08-19T08:45:53Z</time>
      </trkpt>
      <trkpt lat="48.5035" lon="-4.44545">
        <ele>79.2</ele>
        <time>2020-08-19T08:46:02Z</time>
      </trkpt>
      <trkpt lat="48.50335" lon="-4.44521">
        <ele>79.9</ele>
        <time>2020-08-19T08:46:11Z</time>
      </trkpt>
      <trkpt lat="48.50324" lon="-4.44502">
        <ele>81.1</ele>
        <time>2020-08-19T08:46:18Z</time>
      </trkpt>
      <trkpt lat="48.50311" lon="-4.44473">
        <ele>82</ele>
        <time>2020-08-19T08:46:27Z</time>
      </trkpt>
      <trkpt lat="48.50303" lon="-4.44454">
        <ele>82.2</ele>
        <time>2020-08-19T08:46:33Z</time>
      </trkpt>
      <trkpt lat="48.50302" lon="-4.44451">
        <ele>82.3</ele>
        <time>2020-08-19T08:46:34Z</time>
      </trkpt>
      <trkpt lat="48.50295" lon="-4.44436">
        <ele>82.3</ele>
        <time>2020-08-19T08:46:40Z</time>
      </trkpt>
      <trkpt lat="48.50294" lon="-4.44434">
        <ele>82.3</ele>
        <time>2020-08-19T08:46:42Z</time>
      </trkpt>
      <trkpt lat="48.5029" lon="-4.44424">
        <ele>82.3</ele>
        <time>2020-08-19T08:47:49Z</time>
      </trkpt>
      <trkpt lat="48.50281" lon="-4.44404">
        <ele>81.6</ele>
        <time>2020-08-19T08:47:56Z</time>
      </trkpt>
      <trkpt lat="48.50272" lon="-4.44384">
        <ele>81.3</ele>
        <time>2020-08-19T08:48:03Z</time>
      </trkpt>
      <trkpt lat="48.50263" lon="-4.4436">
        <ele>80.9</ele>
        <time>2020-08-19T08:48:11Z</time>
      </trkpt>
      <trkpt lat="48.50253" lon="-4.44334">
        <ele>80.1</ele>
        <time>2020-08-19T08:48:17Z</time>
      </trkpt>
      <trkpt lat="48.50236" lon="-4.44291">
        <ele>78.6</ele>
        <time>2020-08-19T08:48:26Z</time>
      </trkpt>
      <trkpt lat="48.50216" lon="-4.4424">
        <ele>77.2</ele>
        <time>2020-08-19T08:48:35Z</time>
      </trkpt>
      <trkpt lat="48.50199" lon="-4.44189">
        <ele>76.9</ele>
        <time>2020-08-19T08:48:43Z</time>
      </trkpt>
      <trkpt lat="48.5018" lon="-4.44121">
        <ele>76.5</ele>
        <time>2020-08-19T08:48:50Z</time>
      </trkpt>
      <trkpt lat="48.50167" lon="-4.44052">
        <ele>75.9</ele>
        <time>2020-08-19T08:48:58Z</time>
      </trkpt>
      <trkpt lat="48.50162" lon="-4.43976">
        <ele>76.9</ele>
        <time>2020-08-19T08:49:06Z</time>
      </trkpt>
      <trkpt lat="48.50161" lon="-4.43905">
        <ele>75.7</ele>
        <time>2020-08-19T08:49:13Z</time>
      </trkpt>
      <trkpt lat="48.50164" lon="-4.43854">
        <ele>75.4</ele>
        <time>2020-08-19T08:49:18Z</time>
      </trkpt>
      <trkpt lat="48.50171" lon="-4.43789">
        <ele>71.2</ele>
        <time>2020-08-19T08:49:24Z</time>
      </trkpt>
      <trkpt lat="48.50172" lon="-4.43778">
        <ele>71</ele>
        <time>2020-08-19T08:49:25Z</time>
      </trkpt>
      <trkpt lat="48.50182" lon="-4.43704">
        <ele>69.4</ele>
        <time>2020-08-19T08:49:32Z</time>
      </trkpt>
      <trkpt lat="48.50191" lon="-4.43618">
        <ele>69.1</ele>
        <time>2020-08-19T08:49:40Z</time>
      </trkpt>
      <trkpt lat="48.50192" lon="-4.43537">
        <ele>67.8</ele>
        <time>2020-08-19T08:49:48Z</time>
      </trkpt>
      <trkpt lat="48.50184" lon="-4.43465">
        <ele>66.1</ele>
        <time>2020-08-19T08:49:56Z</time>
      </trkpt>
      <trkpt lat="48.50168" lon="-4.43404">
        <ele>66.2</ele>
        <time>2020-08-19T08:50:03Z</time>
      </trkpt>
      <trkpt lat="48.50143" lon="-4.43341">
        <ele>67</ele>
        <time>2020-08-19T08:50:11Z</time>
      </trkpt>
      <trkpt lat="48.50128" lon="-4.43304">
        <ele>66.7</ele>
        <time>2020-08-19T08:50:17Z</time>
      </trkpt>
      <trkpt lat="48.5012" lon="-4.43276">
        <ele>66.8</ele>
        <time>2020-08-19T08:50:23Z</time>
      </trkpt>
      <trkpt lat="48.50113" lon="-4.43243">
        <ele>68.1</ele>
        <time>2020-08-19T08:50:32Z</time>
      </trkpt>
      <trkpt lat="48.50111" lon="-4.43219">
        <ele>68.7</ele>
        <time>2020-08-19T08:50:39Z</time>
      </trkpt>
      <trkpt lat="48.50111" lon="-4.43203">
        <ele>69.1</ele>
        <time>2020-08-19T08:50:45Z</time>
      </trkpt>
      <trkpt lat="48.50112" lon="-4.43187">
        <ele>69.4</ele>
        <time>2020-08-19T08:50:50Z</time>
      </trkpt>
      <trkpt lat="48.50082" lon="-4.43181">
        <ele>68.6</ele>
        <time>2020-08-19T08:50:55Z</time>
      </trkpt>
      <trkpt lat="48.50054" lon="-4.43163">
        <ele>70.8</ele>
        <time>2020-08-19T08:51:03Z</time>
      </trkpt>
      <trkpt lat="48.50034" lon="-4.43152">
        <ele>71.1</ele>
        <time>2020-08-19T08:51:09Z</time>
      </trkpt>
      <trkpt lat="48.50014" lon="-4.43142">
        <ele>71.1</ele>
        <time>2020-08-19T08:51:16Z</time>
      </trkpt>
      <trkpt lat="48.49993" lon="-4.43135">
        <ele>70.3</ele>
        <time>2020-08-19T08:51:22Z</time>
      </trkpt>
      <trkpt lat="48.49975" lon="-4.43129">
        <ele>70.4</ele>
        <time>2020-08-19T08:51:28Z</time>
      </trkpt>
      <trkpt lat="48.49953" lon="-4.43122">
        <ele>70.2</ele>
        <time>2020-08-19T08:51:35Z</time>
      </trkpt>
      <trkpt lat="48.49937" lon="-4.43116">
        <ele>70.1</ele>
        <time>2020-08-19T08:51:41Z</time>
      </trkpt>
      <trkpt lat="48.49932" lon="-4.43114">
        <ele>70.1</ele>
        <time>2020-08-19T08:51:43Z</time>
      </trkpt>
      <trkpt lat="48.49914" lon="-4.43105">
        <ele>69</ele>
        <time>2020-08-19T08:51:50Z</time>
      </trkpt>
      <trkpt lat="48.49907" lon="-4.43101">
        <ele>69</ele>
        <time>2020-08-19T08:51:53Z</time>
      </trkpt>
      <trkpt lat="48.49881" lon="-4.43086">
        <ele>68.5</ele>
        <time>2020-08-19T08:52:02Z</time>
      </trkpt>
      <trkpt lat="48.49869" lon="-4.4308">
        <ele>69.6</ele>
        <time>2020-08-19T08:52:07Z</time>
      </trkpt>
      <trkpt lat="48.49869" lon="-4.4308">
        <ele>69.6</ele>
        <time>2020-08-19T08:52:08Z</time>
      </trkpt>
      <trkpt lat="48.49863" lon="-4.43076">
        <ele>69.4</ele>
        <time>2020-08-19T08:52:31Z</time>
      </trkpt>
      <trkpt lat="48.49846" lon="-4.43068">
        <ele>68.9</ele>
        <time>2020-08-19T08:52:38Z</time>
      </trkpt>
      <trkpt lat="48.49825" lon="-4.43059">
        <ele>67.7</ele>
        <time>2020-08-19T08:52:45Z</time>
      </trkpt>
      <trkpt lat="48.49802" lon="-4.43057">
        <ele>67.6</ele>
        <time>2020-08-19T08:52:52Z</time>
      </trkpt>
      <trkpt lat="48.49798" lon="-4.43059">
        <ele>67.6</ele>
        <time>2020-08-19T08:52:53Z</time>
      </trkpt>
      <trkpt lat="48.49785" lon="-4.43076">
        <ele>67.2</ele>
        <time>2020-08-19T08:52:58Z</time>
      </trkpt>
      <trkpt lat="48.49783" lon="-4.43083">
        <ele>67.2</ele>
        <time>2020-08-19T08:53:01Z</time>
      </trkpt>
      <trkpt lat="48.49783" lon="-4.43083">
        <ele>67.2</ele>
        <time>2020-08-19T08:53:05Z</time>
      </trkpt>
      <trkpt lat="48.49786" lon="-4.43116">
        <ele>67.4</ele>
        <time>2020-08-19T08:53:11Z</time>
      </trkpt>
      <trkpt lat="48.49786" lon="-4.43116">
        <ele>67.4</ele>
        <time>2020-08-19T08:53:14Z</time>
      </trkpt>
      <trkpt lat="48.49786" lon="-4.43116">
        <ele>67.4</ele>
        <time>2020-08-19T08:53:21Z</time>
      </trkpt>
      <trkpt lat="48.49757" lon="-4.43012">
        <ele>67.3</ele>
        <time>2020-08-19T08:53:29Z</time>
      </trkpt>
      <trkpt lat="48.49695" lon="-4.43032">
        <ele>66.9</ele>
        <time>2020-08-19T08:53:37Z</time>
      </trkpt>
      <trkpt lat="48.49687" lon="-4.43036">
        <ele>67</ele>
        <time>2020-08-19T08:53:42Z</time>
      </trkpt>
      <trkpt lat="48.49698" lon="-4.42993">
        <ele>67.8</ele>
        <time>2020-08-19T08:53:49Z</time>
      </trkpt>
      <trkpt lat="48.49698" lon="-4.42993">
        <ele>67.8</ele>
        <time>2020-08-19T08:53:54Z</time>
      </trkpt>
      <trkpt lat="48.49698" lon="-4.42993">
        <ele>67.8</ele>
        <time>2020-08-19T08:54:08Z</time>
      </trkpt>
      <trkpt lat="48.49698" lon="-4.42993">
        <ele>67.8</ele>
        <time>2020-08-19T08:54:18Z</time>
      </trkpt>
      <trkpt lat="48.49698" lon="-4.42993">
        <ele>67.8</ele>
        <time>2020-08-19T08:54:25Z</time>
      </trkpt>
      <trkpt lat="48.49693" lon="-4.42984">
        <ele>67.9</ele>
        <time>2020-08-19T08:54:31Z</time>
      </trkpt>
      <trkpt lat="48.49689" lon="-4.42977">
        <ele>68.1</ele>
        <time>2020-08-19T08:54:34Z</time>
      </trkpt>
      <trkpt lat="48.49669" lon="-4.42984">
        <ele>67</ele>
        <time>2020-08-19T08:54:40Z</time>
      </trkpt>
      <trkpt lat="48.49638" lon="-4.42971">
        <ele>67</ele>
        <time>2020-08-19T08:54:51Z</time>
      </trkpt>
      <trkpt lat="48.49611" lon="-4.42953">
        <ele>67.2</ele>
        <time>2020-08-19T08:55:01Z</time>
      </trkpt>
      <trkpt lat="48.49589" lon="-4.42933">
        <ele>67.2</ele>
        <time>2020-08-19T08:55:12Z</time>
      </trkpt>
      <trkpt lat="48.49574" lon="-4.42926">
        <ele>66.4</ele>
        <time>2020-08-19T08:55:19Z</time>
      </trkpt>
      <trkpt lat="48.4956" lon="-4.42927">
        <ele>66.1</ele>
        <time>2020-08-19T08:55:24Z</time>
      </trkpt>
      <trkpt lat="48.49548" lon="-4.42904">
        <ele>66.7</ele>
        <time>2020-08-19T08:55:29Z</time>
      </trkpt>
      <trkpt lat="48.49547" lon="-4.42917">
        <ele>65.8</ele>
        <time>2020-08-19T08:55:34Z</time>
      </trkpt>
      <trkpt lat="48.49532" lon="-4.42924">
        <ele>65.4</ele>
        <time>2020-08-19T08:55:40Z</time>
      </trkpt>
      <trkpt lat="48.4949" lon="-4.42866">
        <ele>65.7</ele>
        <time>2020-08-19T08:55:47Z</time>
      </trkpt>
      <trkpt lat="48.49462" lon="-4.4285">
        <ele>65.9</ele>
        <time>2020-08-19T08:55:54Z</time>
      </trkpt>
      <trkpt lat="48.4944" lon="-4.42833">
        <ele>67.6</ele>
        <time>2020-08-19T08:56:01Z</time>
      </trkpt>
      <trkpt lat="48.49429" lon="-4.42818">
        <ele>67.7</ele>
        <time>2020-08-19T08:56:07Z</time>
      </trkpt>
      <trkpt lat="48.49418" lon="-4.42798">
        <ele>68</ele>
        <time>2020-08-19T08:56:15Z</time>
      </trkpt>
      <trkpt lat="48.49377" lon="-4.42804">
        <ele>67.6</ele>
        <time>2020-08-19T08:56:24Z</time>
      </trkpt>
      <trkpt lat="48.49347" lon="-4.42788">
        <ele>67.7</ele>
        <time>2020-08-19T08:56:34Z</time>
      </trkpt>
      <trkpt lat="48.49316" lon="-4.42771">
        <ele>68.2</ele>
        <time>2020-08-19T08:56:43Z</time>
      </trkpt>
      <trkpt lat="48.49294" lon="-4.42759">
        <ele>68.3</ele>
        <time>2020-08-19T08:56:50Z</time>
      </trkpt>
      <trkpt lat="48.49265" lon="-4.42747">
        <ele>67.9</ele>
        <time>2020-08-19T08:56:59Z</time>
      </trkpt>
      <trkpt lat="48.49241" lon="-4.4273">
        <ele>68.2</ele>
        <time>2020-08-19T08:57:07Z</time>
      </trkpt>
      <trkpt lat="48.49212" lon="-4.42704">
        <ele>68.3</ele>
        <time>2020-08-19T08:57:16Z</time>
      </trkpt>
      <trkpt lat="48.49183" lon="-4.42671">
        <ele>68.2</ele>
        <time>2020-08-19T08:57:25Z</time>
      </trkpt>
      <trkpt lat="48.49174" lon="-4.42658">
        <ele>67.6</ele>
        <time>2020-08-19T08:57:35Z</time>
      </trkpt>
      <trkpt lat="48.49134" lon="-4.426">
        <ele>68</ele>
        <time>2020-08-19T08:57:42Z</time>
      </trkpt>
      <trkpt lat="48.49131" lon="-4.42596">
        <ele>68</ele>
        <time>2020-08-19T08:57:43Z</time>
      </trkpt>
      <trkpt lat="48.49109" lon="-4.4257">
        <ele>67.3</ele>
        <time>2020-08-19T08:57:50Z</time>
      </trkpt>
      <trkpt lat="48.49092" lon="-4.42553">
        <ele>67.2</ele>
        <time>2020-08-19T08:57:56Z</time>
      </trkpt>
      <trkpt lat="48.49081" lon="-4.42544">
        <ele>66.7</ele>
        <time>2020-08-19T08:58:00Z</time>
      </trkpt>
      <trkpt lat="48.49066" lon="-4.42538">
        <ele>66.6</ele>
        <time>2020-08-19T08:58:05Z</time>
      </trkpt>
      <trkpt lat="48.49045" lon="-4.42534">
        <ele>66.4</ele>
        <time>2020-08-19T08:58:11Z</time>
      </trkpt>
      <trkpt lat="48.49017" lon="-4.42538">
        <ele>66.3</ele>
        <time>2020-08-19T08:58:19Z</time>
      </trkpt>
      <trkpt lat="48.48992" lon="-4.42549">
        <ele>66</ele>
        <time>2020-08-19T08:58:26Z</time>
      </trkpt>
      <trkpt lat="48.48973" lon="-4.4256">
        <ele>66</ele>
        <time>2020-08-19T08:58:32Z</time>
      </trkpt>
      <trkpt lat="48.4895" lon="-4.42576">
        <ele>66</ele>
        <time>2020-08-19T08:58:39Z</time>
      </trkpt>
      <trkpt lat="48.48923" lon="-4.42596">
        <ele>66.9</ele>
        <time>2020-08-19T08:58:48Z</time>
      </trkpt>
      <trkpt lat="48.48897" lon="-4.42614">
        <ele>66.5</ele>
        <time>2020-08-19T08:58:56Z</time>
      </trkpt>
      <trkpt lat="48.48867" lon="-4.42635">
        <ele>66.5</ele>
        <time>2020-08-19T08:59:05Z</time>
      </trkpt>
      <trkpt lat="48.48855" lon="-4.42643">
        <ele>66.4</ele>
        <time>2020-08-19T08:59:09Z</time>
      </trkpt>
      <trkpt lat="48.48824" lon="-4.42662">
        <ele>65.9</ele>
        <time>2020-08-19T08:59:18Z</time>
      </trkpt>
      <trkpt lat="48.48792" lon="-4.42678">
        <ele>66</ele>
        <time>2020-08-19T08:59:26Z</time>
      </trkpt>
      <trkpt lat="48.48759" lon="-4.42691">
        <ele>65.9</ele>
        <time>2020-08-19T08:59:34Z</time>
      </trkpt>
      <trkpt lat="48.48714" lon="-4.42704">
        <ele>66.2</ele>
        <time>2020-08-19T08:59:45Z</time>
      </trkpt>
      <trkpt lat="48.48691" lon="-4.42708">
        <ele>66.4</ele>
        <time>2020-08-19T08:59:51Z</time>
      </trkpt>
      <trkpt lat="48.4867" lon="-4.42709">
        <ele>66.5</ele>
        <time>2020-08-19T08:59:56Z</time>
      </trkpt>
      <trkpt lat="48.48662" lon="-4.42709">
        <ele>66.7</ele>
        <time>2020-08-19T08:59:58Z</time>
      </trkpt>
      <trkpt lat="48.48641" lon="-4.4271">
        <ele>66.6</ele>
        <time>2020-08-19T09:00:03Z</time>
      </trkpt>
      <trkpt lat="48.48609" lon="-4.4271">
        <ele>66.4</ele>
        <time>2020-08-19T09:00:11Z</time>
      </trkpt>
      <trkpt lat="48.48581" lon="-4.42707">
        <ele>65.8</ele>
        <time>2020-08-19T09:00:18Z</time>
      </trkpt>
      <trkpt lat="48.48569" lon="-4.42705">
        <ele>65.8</ele>
        <time>2020-08-19T09:00:21Z</time>
      </trkpt>
      <trkpt lat="48.48536" lon="-4.42698">
        <ele>65.7</ele>
        <time>2020-08-19T09:00:29Z</time>
      </trkpt>
      <trkpt lat="48.48506" lon="-4.42689">
        <ele>65.5</ele>
        <time>2020-08-19T09:00:37Z</time>
      </trkpt>
      <trkpt lat="48.48478" lon="-4.42681">
        <ele>65.5</ele>
        <time>2020-08-19T09:00:45Z</time>
      </trkpt>
      <trkpt lat="48.48453" lon="-4.42669">
        <ele>65.5</ele>
        <time>2020-08-19T09:00:52Z</time>
      </trkpt>
      <trkpt lat="48.48416" lon="-4.42651">
        <ele>65</ele>
        <time>2020-08-19T09:01:02Z</time>
      </trkpt>
      <trkpt lat="48.48377" lon="-4.42629">
        <ele>65</ele>
        <time>2020-08-19T09:01:13Z</time>
      </trkpt>
      <trkpt lat="48.48331" lon="-4.42601">
        <ele>65.4</ele>
        <time>2020-08-19T09:01:26Z</time>
      </trkpt>
      <trkpt lat="48.48308" lon="-4.42585">
        <ele>65.8</ele>
        <time>2020-08-19T09:01:33Z</time>
      </trkpt>
      <trkpt lat="48.48288" lon="-4.4257">
        <ele>66.9</ele>
        <time>2020-08-19T09:01:40Z</time>
      </trkpt>
      <trkpt lat="48.48267" lon="-4.42555">
        <ele>67.2</ele>
        <time>2020-08-19T09:01:48Z</time>
      </trkpt>
      <trkpt lat="48.48237" lon="-4.42532">
        <ele>68.6</ele>
        <time>2020-08-19T09:01:58Z</time>
      </trkpt>
      <trkpt lat="48.4821" lon="-4.4251">
        <ele>69</ele>
        <time>2020-08-19T09:02:07Z</time>
      </trkpt>
      <trkpt lat="48.48184" lon="-4.4249">
        <ele>68.8</ele>
        <time>2020-08-19T09:02:16Z</time>
      </trkpt>
      <trkpt lat="48.48163" lon="-4.42474">
        <ele>69.6</ele>
        <time>2020-08-19T09:02:23Z</time>
      </trkpt>
      <trkpt lat="48.48134" lon="-4.42453">
        <ele>69.5</ele>
        <time>2020-08-19T09:02:33Z</time>
      </trkpt>
      <trkpt lat="48.48117" lon="-4.42441">
        <ele>69.6</ele>
        <time>2020-08-19T09:02:39Z</time>
      </trkpt>
      <trkpt lat="48.48092" lon="-4.42425">
        <ele>69.9</ele>
        <time>2020-08-19T09:02:47Z</time>
      </trkpt>
      <trkpt lat="48.48067" lon="-4.4241">
        <ele>69.9</ele>
        <time>2020-08-19T09:02:55Z</time>
      </trkpt>
      <trkpt lat="48.48042" lon="-4.42397">
        <ele>70.1</ele>
        <time>2020-08-19T09:03:03Z</time>
      </trkpt>
      <trkpt lat="48.48017" lon="-4.42384">
        <ele>70.3</ele>
        <time>2020-08-19T09:03:11Z</time>
      </trkpt>
      <trkpt lat="48.47997" lon="-4.42376">
        <ele>71.2</ele>
        <time>2020-08-19T09:03:17Z</time>
      </trkpt>
      <trkpt lat="48.47968" lon="-4.42371">
        <ele>71.2</ele>
        <time>2020-08-19T09:03:25Z</time>
      </trkpt>
      <trkpt lat="48.47942" lon="-4.42376">
        <ele>71.3</ele>
        <time>2020-08-19T09:03:32Z</time>
      </trkpt>
      <trkpt lat="48.47916" lon="-4.42389">
        <ele>71.8</ele>
        <time>2020-08-19T09:03:39Z</time>
      </trkpt>
      <trkpt lat="48.47899" lon="-4.42402">
        <ele>71.9</ele>
        <time>2020-08-19T09:03:44Z</time>
      </trkpt>
      <trkpt lat="48.47884" lon="-4.42418">
        <ele>73</ele>
        <time>2020-08-19T09:03:49Z</time>
      </trkpt>
      <trkpt lat="48.47862" lon="-4.42454">
        <ele>73.5</ele>
        <time>2020-08-19T09:03:57Z</time>
      </trkpt>
      <trkpt lat="48.47848" lon="-4.42487">
        <ele>74.2</ele>
        <time>2020-08-19T09:04:04Z</time>
      </trkpt>
      <trkpt lat="48.47832" lon="-4.42523">
        <ele>75.8</ele>
        <time>2020-08-19T09:04:12Z</time>
      </trkpt>
      <trkpt lat="48.4781" lon="-4.42564">
        <ele>76.3</ele>
        <time>2020-08-19T09:04:22Z</time>
      </trkpt>
      <trkpt lat="48.47791" lon="-4.4259">
        <ele>75.8</ele>
        <time>2020-08-19T09:04:30Z</time>
      </trkpt>
      <trkpt lat="48.47764" lon="-4.42615">
        <ele>75.4</ele>
        <time>2020-08-19T09:04:40Z</time>
      </trkpt>
      <trkpt lat="48.47734" lon="-4.42632">
        <ele>74.8</ele>
        <time>2020-08-19T09:04:50Z</time>
      </trkpt>
      <trkpt lat="48.47699" lon="-4.42644">
        <ele>75.1</ele>
        <time>2020-08-19T09:05:01Z</time>
      </trkpt>
      <trkpt lat="48.47678" lon="-4.42647">
        <ele>75.4</ele>
        <time>2020-08-19T09:05:07Z</time>
      </trkpt>
      <trkpt lat="48.47657" lon="-4.42649">
        <ele>76.1</ele>
        <time>2020-08-19T09:05:13Z</time>
      </trkpt>
      <trkpt lat="48.47641" lon="-4.42651">
        <ele>76.1</ele>
        <time>2020-08-19T09:05:18Z</time>
      </trkpt>
      <trkpt lat="48.47625" lon="-4.42653">
        <ele>76.2</ele>
        <time>2020-08-19T09:05:23Z</time>
      </trkpt>
      <trkpt lat="48.47609" lon="-4.42655">
        <ele>76.2</ele>
        <time>2020-08-19T09:05:28Z</time>
      </trkpt>
      <trkpt lat="48.47577" lon="-4.42658">
        <ele>76.4</ele>
        <time>2020-08-19T09:05:38Z</time>
      </trkpt>
      <trkpt lat="48.47553" lon="-4.42659">
        <ele>76.6</ele>
        <time>2020-08-19T09:05:46Z</time>
      </trkpt>
      <trkpt lat="48.47533" lon="-4.4266">
        <ele>76.6</ele>
        <time>2020-08-19T09:05:53Z</time>
      </trkpt>
      <trkpt lat="48.47516" lon="-4.42662">
        <ele>76.5</ele>
        <time>2020-08-19T09:05:59Z</time>
      </trkpt>
      <trkpt lat="48.47511" lon="-4.42663">
        <ele>76.4</ele>
        <time>2020-08-19T09:06:01Z</time>
      </trkpt>
      <trkpt lat="48.47502" lon="-4.42664">
        <ele>76.1</ele>
        <time>2020-08-19T09:06:05Z</time>
      </trkpt>
      <trkpt lat="48.47489" lon="-4.42665">
        <ele>76.3</ele>
        <time>2020-08-19T09:06:11Z</time>
      </trkpt>
      <trkpt lat="48.47473" lon="-4.42666">
        <ele>76.4</ele>
        <time>2020-08-19T09:06:17Z</time>
      </trkpt>
      <trkpt lat="48.47471" lon="-4.42666">
        <ele>76.4</ele>
        <time>2020-08-19T09:06:18Z</time>
      </trkpt>
      <trkpt lat="48.47461" lon="-4.42667">
        <ele>76.8</ele>
        <time>2020-08-19T09:06:23Z</time>
      </trkpt>
      <trkpt lat="48.4744" lon="-4.42668">
        <ele>76.7</ele>
        <time>2020-08-19T09:06:31Z</time>
      </trkpt>
      <trkpt lat="48.47425" lon="-4.42671">
        <ele>76.4</ele>
        <time>2020-08-19T09:06:37Z</time>
      </trkpt>
      <trkpt lat="48.47414" lon="-4.42674">
        <ele>76.3</ele>
        <time>2020-08-19T09:06:41Z</time>
      </trkpt>
      <trkpt lat="48.47401" lon="-4.42679">
        <ele>76.6</ele>
        <time>2020-08-19T09:06:46Z</time>
      </trkpt>
      <trkpt lat="48.47384" lon="-4.4269">
        <ele>76.9</ele>
        <time>2020-08-19T09:06:52Z</time>
      </trkpt>
      <trkpt lat="48.47372" lon="-4.42702">
        <ele>77</ele>
        <time>2020-08-19T09:06:57Z</time>
      </trkpt>
      <trkpt lat="48.47361" lon="-4.42715">
        <ele>77</ele>
        <time>2020-08-19T09:07:03Z</time>
      </trkpt>
      <trkpt lat="48.47355" lon="-4.42723">
        <ele>77</ele>
        <time>2020-08-19T09:07:06Z</time>
      </trkpt>
      <trkpt lat="48.47347" lon="-4.42734">
        <ele>77</ele>
        <time>2020-08-19T09:07:12Z</time>
      </trkpt>
      <trkpt lat="48.47344" lon="-4.42737">
        <ele>77</ele>
        <time>2020-08-19T09:07:15Z</time>
      </trkpt>
      <trkpt lat="48.47339" lon="-4.42744">
        <ele>77</ele>
        <time>2020-08-19T09:07:41Z</time>
      </trkpt>
      <trkpt lat="48.47334" lon="-4.42752">
        <ele>77</ele>
        <time>2020-08-19T09:07:48Z</time>
      </trkpt>
      <trkpt lat="48.47332" lon="-4.42763">
        <ele>77.2</ele>
        <time>2020-08-19T09:07:52Z</time>
      </trkpt>
      <trkpt lat="48.47326" lon="-4.42776">
        <ele>77.3</ele>
        <time>2020-08-19T09:07:59Z</time>
      </trkpt>
      <trkpt lat="48.47318" lon="-4.4278">
        <ele>77.3</ele>
        <time>2020-08-19T09:08:01Z</time>
      </trkpt>
      <trkpt lat="48.473" lon="-4.42755">
        <ele>77.3</ele>
        <time>2020-08-19T09:08:10Z</time>
      </trkpt>
      <trkpt lat="48.47281" lon="-4.42729">
        <ele>77.4</ele>
        <time>2020-08-19T09:08:18Z</time>
      </trkpt>
      <trkpt lat="48.47261" lon="-4.42704">
        <ele>77.7</ele>
        <time>2020-08-19T09:08:26Z</time>
      </trkpt>
      <trkpt lat="48.47243" lon="-4.42679">
        <ele>78.9</ele>
        <time>2020-08-19T09:08:34Z</time>
      </trkpt>
      <trkpt lat="48.47226" lon="-4.42656">
        <ele>80.1</ele>
        <time>2020-08-19T09:08:41Z</time>
      </trkpt>
      <trkpt lat="48.47207" lon="-4.4263">
        <ele>80.7</ele>
        <time>2020-08-19T09:08:49Z</time>
      </trkpt>
      <trkpt lat="48.47189" lon="-4.42609">
        <ele>81.1</ele>
        <time>2020-08-19T09:08:57Z</time>
      </trkpt>
      <trkpt lat="48.47168" lon="-4.42593">
        <ele>81.6</ele>
        <time>2020-08-19T09:09:05Z</time>
      </trkpt>
      <trkpt lat="48.47143" lon="-4.42574">
        <ele>82</ele>
        <time>2020-08-19T09:09:14Z</time>
      </trkpt>
      <trkpt lat="48.4711" lon="-4.42555">
        <ele>81.9</ele>
        <time>2020-08-19T09:09:25Z</time>
      </trkpt>
      <trkpt lat="48.47076" lon="-4.42538">
        <ele>82.2</ele>
        <time>2020-08-19T09:09:34Z</time>
      </trkpt>
      <trkpt lat="48.47058" lon="-4.42521">
        <ele>82.7</ele>
        <time>2020-08-19T09:09:44Z</time>
      </trkpt>
      <trkpt lat="48.47076" lon="-4.42531">
        <ele>82.4</ele>
        <time>2020-08-19T09:09:56Z</time>
      </trkpt>
      <trkpt lat="48.47076" lon="-4.42531">
        <ele>82.4</ele>
        <time>2020-08-19T09:10:06Z</time>
      </trkpt>
      <trkpt lat="48.47003" lon="-4.42488">
        <ele>85.3</ele>
        <time>2020-08-19T09:10:12Z</time>
      </trkpt>
      <trkpt lat="48.46984" lon="-4.42471">
        <ele>86</ele>
        <time>2020-08-19T09:10:21Z</time>
      </trkpt>
      <trkpt lat="48.4697" lon="-4.42457">
        <ele>86.3</ele>
        <time>2020-08-19T09:10:29Z</time>
      </trkpt>
      <trkpt lat="48.46957" lon="-4.4244">
        <ele>86.5</ele>
        <time>2020-08-19T09:10:37Z</time>
      </trkpt>
      <trkpt lat="48.46949" lon="-4.42423">
        <ele>86.6</ele>
        <time>2020-08-19T09:10:44Z</time>
      </trkpt>
      <trkpt lat="48.46932" lon="-4.42428">
        <ele>86.6</ele>
        <time>2020-08-19T09:10:50Z</time>
      </trkpt>
      <trkpt lat="48.46912" lon="-4.42434">
        <ele>86.5</ele>
        <time>2020-08-19T09:10:58Z</time>
      </trkpt>
      <trkpt lat="48.46886" lon="-4.42441">
        <ele>86.2</ele>
        <time>2020-08-19T09:11:07Z</time>
      </trkpt>
      <trkpt lat="48.46852" lon="-4.4245">
        <ele>86.1</ele>
        <time>2020-08-19T09:11:18Z</time>
      </trkpt>
      <trkpt lat="48.46836" lon="-4.42455">
        <ele>86.1</ele>
        <time>2020-08-19T09:11:24Z</time>
      </trkpt>
      <trkpt lat="48.46818" lon="-4.42459">
        <ele>85.8</ele>
        <time>2020-08-19T09:11:30Z</time>
      </trkpt>
      <trkpt lat="48.46798" lon="-4.42465">
        <ele>85.7</ele>
        <time>2020-08-19T09:11:36Z</time>
      </trkpt>
      <trkpt lat="48.46765" lon="-4.42472">
        <ele>85.4</ele>
        <time>2020-08-19T09:11:44Z</time>
      </trkpt>
      <trkpt lat="48.46738" lon="-4.42479">
        <ele>85.2</ele>
        <time>2020-08-19T09:11:49Z</time>
      </trkpt>
      <trkpt lat="48.46709" lon="-4.42495">
        <ele>85.5</ele>
        <time>2020-08-19T09:11:54Z</time>
      </trkpt>
      <trkpt lat="48.46692" lon="-4.42521">
        <ele>84.2</ele>
        <time>2020-08-19T09:11:58Z</time>
      </trkpt>
      <trkpt lat="48.46689" lon="-4.42527">
        <ele>84.1</ele>
        <time>2020-08-19T09:11:59Z</time>
      </trkpt>
      <trkpt lat="48.46676" lon="-4.42568">
        <ele>83.7</ele>
        <time>2020-08-19T09:12:07Z</time>
      </trkpt>
      <trkpt lat="48.46663" lon="-4.42605">
        <ele>83.3</ele>
        <time>2020-08-19T09:12:14Z</time>
      </trkpt>
      <trkpt lat="48.46658" lon="-4.42618">
        <ele>82.9</ele>
        <time>2020-08-19T09:12:16Z</time>
      </trkpt>
      <trkpt lat="48.4664" lon="-4.42649">
        <ele>82.2</ele>
        <time>2020-08-19T09:12:21Z</time>
      </trkpt>
      <trkpt lat="48.46635" lon="-4.42653">
        <ele>82.3</ele>
        <time>2020-08-19T09:12:22Z</time>
      </trkpt>
      <trkpt lat="48.46622" lon="-4.42659">
        <ele>82.6</ele>
        <time>2020-08-19T09:12:25Z</time>
      </trkpt>
      <trkpt lat="48.46589" lon="-4.4267">
        <ele>82.6</ele>
        <time>2020-08-19T09:12:34Z</time>
      </trkpt>
      <trkpt lat="48.46565" lon="-4.4268">
        <ele>83.6</ele>
        <time>2020-08-19T09:12:42Z</time>
      </trkpt>
      <trkpt lat="48.4655" lon="-4.42687">
        <ele>83.8</ele>
        <time>2020-08-19T09:12:48Z</time>
      </trkpt>
      <trkpt lat="48.46536" lon="-4.42696">
        <ele>84</ele>
        <time>2020-08-19T09:12:55Z</time>
      </trkpt>
      <trkpt lat="48.46521" lon="-4.42705">
        <ele>84.2</ele>
        <time>2020-08-19T09:13:03Z</time>
      </trkpt>
      <trkpt lat="48.46509" lon="-4.42712">
        <ele>84.4</ele>
        <time>2020-08-19T09:13:09Z</time>
      </trkpt>
      <trkpt lat="48.46498" lon="-4.42717">
        <ele>85.6</ele>
        <time>2020-08-19T09:13:15Z</time>
      </trkpt>
      <trkpt lat="48.46479" lon="-4.42725">
        <ele>85.7</ele>
        <time>2020-08-19T09:13:24Z</time>
      </trkpt>
      <trkpt lat="48.46461" lon="-4.42723">
        <ele>85.8</ele>
        <time>2020-08-19T09:13:32Z</time>
      </trkpt>
      <trkpt lat="48.46439" lon="-4.42714">
        <ele>85.9</ele>
        <time>2020-08-19T09:13:41Z</time>
      </trkpt>
      <trkpt lat="48.46414" lon="-4.42703">
        <ele>86.9</ele>
        <time>2020-08-19T09:13:51Z</time>
      </trkpt>
      <trkpt lat="48.46393" lon="-4.42693">
        <ele>87</ele>
        <time>2020-08-19T09:13:59Z</time>
      </trkpt>
      <trkpt lat="48.46368" lon="-4.42681">
        <ele>87.2</ele>
        <time>2020-08-19T09:14:09Z</time>
      </trkpt>
      <trkpt lat="48.46341" lon="-4.42669">
        <ele>87.7</ele>
        <time>2020-08-19T09:14:20Z</time>
      </trkpt>
      <trkpt lat="48.46316" lon="-4.42658">
        <ele>88.6</ele>
        <time>2020-08-19T09:14:30Z</time>
      </trkpt>
      <trkpt lat="48.46291" lon="-4.42646">
        <ele>89.1</ele>
        <time>2020-08-19T09:14:40Z</time>
      </trkpt>
      <trkpt lat="48.46269" lon="-4.42635">
        <ele>89.5</ele>
        <time>2020-08-19T09:14:49Z</time>
      </trkpt>
      <trkpt lat="48.46246" lon="-4.42624">
        <ele>90.5</ele>
        <time>2020-08-19T09:14:58Z</time>
      </trkpt>
      <trkpt lat="48.46221" lon="-4.42611">
        <ele>90.4</ele>
        <time>2020-08-19T09:15:07Z</time>
      </trkpt>
      <trkpt lat="48.46202" lon="-4.42602">
        <ele>90.4</ele>
        <time>2020-08-19T09:15:14Z</time>
      </trkpt>
      <trkpt lat="48.46177" lon="-4.4259">
        <ele>90.2</ele>
        <time>2020-08-19T09:15:24Z</time>
      </trkpt>
      <trkpt lat="48.46158" lon="-4.42581">
        <ele>89.5</ele>
        <time>2020-08-19T09:15:31Z</time>
      </trkpt>
      <trkpt lat="48.46152" lon="-4.42579">
        <ele>89.3</ele>
        <time>2020-08-19T09:15:33Z</time>
      </trkpt>
      <trkpt lat="48.46141" lon="-4.42593">
        <ele>90.1</ele>
        <time>2020-08-19T09:15:37Z</time>
      </trkpt>
      <trkpt lat="48.46143" lon="-4.42631">
        <ele>90.4</ele>
        <time>2020-08-19T09:15:45Z</time>
      </trkpt>
      <trkpt lat="48.46143" lon="-4.4268">
        <ele>90.7</ele>
        <time>2020-08-19T09:15:55Z</time>
      </trkpt>
      <trkpt lat="48.46141" lon="-4.42731">
        <ele>90.4</ele>
        <time>2020-08-19T09:16:04Z</time>
      </trkpt>
      <trkpt lat="48.46139" lon="-4.42775">
        <ele>90.4</ele>
        <time>2020-08-19T09:16:12Z</time>
      </trkpt>
      <trkpt lat="48.46137" lon="-4.42802">
        <ele>90.7</ele>
        <time>2020-08-19T09:16:17Z</time>
      </trkpt>
      <trkpt lat="48.4613" lon="-4.42861">
        <ele>92.1</ele>
        <time>2020-08-19T09:16:28Z</time>
      </trkpt>
      <trkpt lat="48.46122" lon="-4.42896">
        <ele>92.5</ele>
        <time>2020-08-19T09:16:36Z</time>
      </trkpt>
      <trkpt lat="48.46115" lon="-4.42931">
        <ele>94.1</ele>
        <time>2020-08-19T09:16:45Z</time>
      </trkpt>
      <trkpt lat="48.46104" lon="-4.42969">
        <ele>94.5</ele>
        <time>2020-08-19T09:16:55Z</time>
      </trkpt>
      <trkpt lat="48.46093" lon="-4.43002">
        <ele>95.3</ele>
        <time>2020-08-19T09:17:04Z</time>
      </trkpt>
      <trkpt lat="48.46086" lon="-4.43019">
        <ele>95.5</ele>
        <time>2020-08-19T09:17:09Z</time>
      </trkpt>
      <trkpt lat="48.46081" lon="-4.43033">
        <ele>94.8</ele>
        <time>2020-08-19T09:17:14Z</time>
      </trkpt>
      <trkpt lat="48.46076" lon="-4.43049">
        <ele>94.9</ele>
        <time>2020-08-19T09:17:20Z</time>
      </trkpt>
      <trkpt lat="48.46075" lon="-4.43052">
        <ele>95</ele>
        <time>2020-08-19T09:17:21Z</time>
      </trkpt>
      <trkpt lat="48.46067" lon="-4.43071">
        <ele>95.2</ele>
        <time>2020-08-19T09:17:28Z</time>
      </trkpt>
      <trkpt lat="48.46055" lon="-4.43098">
        <ele>95.9</ele>
        <time>2020-08-19T09:17:36Z</time>
      </trkpt>
      <trkpt lat="48.46039" lon="-4.43131">
        <ele>96.1</ele>
        <time>2020-08-19T09:17:45Z</time>
      </trkpt>
      <trkpt lat="48.46026" lon="-4.43159">
        <ele>96.4</ele>
        <time>2020-08-19T09:17:52Z</time>
      </trkpt>
      <trkpt lat="48.46008" lon="-4.43197">
        <ele>97.3</ele>
        <time>2020-08-19T09:18:01Z</time>
      </trkpt>
      <trkpt lat="48.45996" lon="-4.43225">
        <ele>96.8</ele>
        <time>2020-08-19T09:18:07Z</time>
      </trkpt>
      <trkpt lat="48.45986" lon="-4.4325">
        <ele>97.3</ele>
        <time>2020-08-19T09:18:14Z</time>
      </trkpt>
      <trkpt lat="48.4598" lon="-4.43267">
        <ele>97</ele>
        <time>2020-08-19T09:18:20Z</time>
      </trkpt>
      <trkpt lat="48.45972" lon="-4.43286">
        <ele>96.7</ele>
        <time>2020-08-19T09:18:26Z</time>
      </trkpt>
      <trkpt lat="48.45964" lon="-4.43305">
        <ele>96.6</ele>
        <time>2020-08-19T09:18:31Z</time>
      </trkpt>
      <trkpt lat="48.45952" lon="-4.43331">
        <ele>96.4</ele>
        <time>2020-08-19T09:18:38Z</time>
      </trkpt>
      <trkpt lat="48.45944" lon="-4.43347">
        <ele>95.7</ele>
        <time>2020-08-19T09:18:44Z</time>
      </trkpt>
      <trkpt lat="48.45932" lon="-4.43375">
        <ele>95.4</ele>
        <time>2020-08-19T09:18:51Z</time>
      </trkpt>
      <trkpt lat="48.45927" lon="-4.43389">
        <ele>95.1</ele>
        <time>2020-08-19T09:18:54Z</time>
      </trkpt>
      <trkpt lat="48.45908" lon="-4.43434">
        <ele>93</ele>
        <time>2020-08-19T09:19:02Z</time>
      </trkpt>
      <trkpt lat="48.4588" lon="-4.4349">
        <ele>92</ele>
        <time>2020-08-19T09:19:11Z</time>
      </trkpt>
      <trkpt lat="48.45872" lon="-4.43508">
        <ele>91.5</ele>
        <time>2020-08-19T09:19:14Z</time>
      </trkpt>
      <trkpt lat="48.45848" lon="-4.43554">
        <ele>91.6</ele>
        <time>2020-08-19T09:19:22Z</time>
      </trkpt>
      <trkpt lat="48.4583" lon="-4.43587">
        <ele>92</ele>
        <time>2020-08-19T09:19:28Z</time>
      </trkpt>
      <trkpt lat="48.45819" lon="-4.43624">
        <ele>92.2</ele>
        <time>2020-08-19T09:19:34Z</time>
      </trkpt>
      <trkpt lat="48.45809" lon="-4.43667">
        <ele>91.9</ele>
        <time>2020-08-19T09:19:40Z</time>
      </trkpt>
      <trkpt lat="48.45791" lon="-4.43712">
        <ele>91.7</ele>
        <time>2020-08-19T09:19:47Z</time>
      </trkpt>
      <trkpt lat="48.4578" lon="-4.43744">
        <ele>91.7</ele>
        <time>2020-08-19T09:19:52Z</time>
      </trkpt>
      <trkpt lat="48.45773" lon="-4.43794">
        <ele>90.4</ele>
        <time>2020-08-19T09:19:59Z</time>
      </trkpt>
      <trkpt lat="48.45772" lon="-4.43866">
        <ele>90.1</ele>
        <time>2020-08-19T09:20:09Z</time>
      </trkpt>
      <trkpt lat="48.45771" lon="-4.43873">
        <ele>90.2</ele>
        <time>2020-08-19T09:20:10Z</time>
      </trkpt>
      <trkpt lat="48.45766" lon="-4.43899">
        <ele>90.7</ele>
        <time>2020-08-19T09:20:14Z</time>
      </trkpt>
      <trkpt lat="48.45755" lon="-4.43927">
        <ele>91.6</ele>
        <time>2020-08-19T09:20:19Z</time>
      </trkpt>
      <trkpt lat="48.45738" lon="-4.43939">
        <ele>92.5</ele>
        <time>2020-08-19T09:20:23Z</time>
      </trkpt>
      <trkpt lat="48.45707" lon="-4.43945">
        <ele>92.8</ele>
        <time>2020-08-19T09:20:31Z</time>
      </trkpt>
      <trkpt lat="48.45687" lon="-4.43954">
        <ele>92.9</ele>
        <time>2020-08-19T09:20:37Z</time>
      </trkpt>
      <trkpt lat="48.45671" lon="-4.43972">
        <ele>92.6</ele>
        <time>2020-08-19T09:20:42Z</time>
      </trkpt>
      <trkpt lat="48.45654" lon="-4.44005">
        <ele>92.1</ele>
        <time>2020-08-19T09:20:49Z</time>
      </trkpt>
      <trkpt lat="48.4564" lon="-4.44028">
        <ele>92.2</ele>
        <time>2020-08-19T09:20:55Z</time>
      </trkpt>
      <trkpt lat="48.45617" lon="-4.44066">
        <ele>92.3</ele>
        <time>2020-08-19T09:21:04Z</time>
      </trkpt>
      <trkpt lat="48.45595" lon="-4.44093">
        <ele>92.5</ele>
        <time>2020-08-19T09:21:12Z</time>
      </trkpt>
      <trkpt lat="48.45581" lon="-4.44117">
        <ele>93.3</ele>
        <time>2020-08-19T09:21:19Z</time>
      </trkpt>
      <trkpt lat="48.45574" lon="-4.44146">
        <ele>93.2</ele>
        <time>2020-08-19T09:21:25Z</time>
      </trkpt>
      <trkpt lat="48.45572" lon="-4.44181">
        <ele>92.9</ele>
        <time>2020-08-19T09:21:31Z</time>
      </trkpt>
      <trkpt lat="48.45571" lon="-4.44223">
        <ele>92.8</ele>
        <time>2020-08-19T09:21:39Z</time>
      </trkpt>
      <trkpt lat="48.45566" lon="-4.44256">
        <ele>92.6</ele>
        <time>2020-08-19T09:21:46Z</time>
      </trkpt>
      <trkpt lat="48.45557" lon="-4.44288">
        <ele>92.2</ele>
        <time>2020-08-19T09:21:53Z</time>
      </trkpt>
      <trkpt lat="48.45545" lon="-4.44322">
        <ele>92.1</ele>
        <time>2020-08-19T09:22:00Z</time>
      </trkpt>
      <trkpt lat="48.45533" lon="-4.44354">
        <ele>92.5</ele>
        <time>2020-08-19T09:22:07Z</time>
      </trkpt>
      <trkpt lat="48.45524" lon="-4.44388">
        <ele>92.8</ele>
        <time>2020-08-19T09:22:14Z</time>
      </trkpt>
      <trkpt lat="48.45519" lon="-4.44425">
        <ele>93</ele>
        <time>2020-08-19T09:22:21Z</time>
      </trkpt>
      <trkpt lat="48.45518" lon="-4.44473">
        <ele>92.5</ele>
        <time>2020-08-19T09:22:29Z</time>
      </trkpt>
      <trkpt lat="48.45517" lon="-4.44537">
        <ele>91.8</ele>
        <time>2020-08-19T09:22:39Z</time>
      </trkpt>
      <trkpt lat="48.45516" lon="-4.44585">
        <ele>92.1</ele>
        <time>2020-08-19T09:22:47Z</time>
      </trkpt>
      <trkpt lat="48.45513" lon="-4.44638">
        <ele>92.5</ele>
        <time>2020-08-19T09:22:55Z</time>
      </trkpt>
      <trkpt lat="48.45512" lon="-4.44698">
        <ele>92.6</ele>
        <time>2020-08-19T09:23:04Z</time>
      </trkpt>
      <trkpt lat="48.45512" lon="-4.44723">
        <ele>92.4</ele>
        <time>2020-08-19T09:23:08Z</time>
      </trkpt>
      <trkpt lat="48.45512" lon="-4.44742">
        <ele>92.2</ele>
        <time>2020-08-19T09:23:14Z</time>
      </trkpt>
      <trkpt lat="48.45512" lon="-4.44779">
        <ele>91.6</ele>
        <time>2020-08-19T09:23:21Z</time>
      </trkpt>
      <trkpt lat="48.45513" lon="-4.44785">
        <ele>91.6</ele>
        <time>2020-08-19T09:23:23Z</time>
      </trkpt>
      <trkpt lat="48.45513" lon="-4.44788">
        <ele>91.5</ele>
        <time>2020-08-19T09:23:27Z</time>
      </trkpt>
      <trkpt lat="48.45513" lon="-4.44788">
        <ele>91.5</ele>
        <time>2020-08-19T09:23:49Z</time>
      </trkpt>
      <trkpt lat="48.45497" lon="-4.44788">
        <ele>91.8</ele>
        <time>2020-08-19T09:23:58Z</time>
      </trkpt>
      <trkpt lat="48.45497" lon="-4.44788">
        <ele>91.8</ele>
        <time>2020-08-19T09:24:05Z</time>
      </trkpt>
      <trkpt lat="48.45497" lon="-4.44788">
        <ele>91.8</ele>
        <time>2020-08-19T09:24:06Z</time>
      </trkpt>
      <trkpt lat="48.45497" lon="-4.44788">
        <ele>91.8</ele>
        <time>2020-08-19T09:24:44Z</time>
      </trkpt>
      <trkpt lat="48.45497" lon="-4.44788">
        <ele>91.8</ele>
        <time>2020-08-19T09:25:29Z</time>
      </trkpt>
      <trkpt lat="48.45497" lon="-4.44788">
        <ele>91.8</ele>
        <time>2020-08-19T09:25:40Z</time>
      </trkpt>
      <trkpt lat="48.45497" lon="-4.44788">
        <ele>91.8</ele>
        <time>2020-08-19T09:25:44Z</time>
      </trkpt>
      <trkpt lat="48.45497" lon="-4.44788">
        <ele>91.8</ele>
        <time>2020-08-19T09:26:09Z</time>
      </trkpt>
      <trkpt lat="48.45497" lon="-4.44788">
        <ele>91.8</ele>
        <time>2020-08-19T09:26:22Z</time>
      </trkpt>
      <trkpt lat="48.45497" lon="-4.44788">
        <ele>91.8</ele>
        <time>2020-08-19T09:26:30Z</time>
      </trkpt>
      <trkpt lat="48.45497" lon="-4.44788">
        <ele>91.8</ele>
        <time>2020-08-19T09:26:45Z</time>
      </trkpt>
      <trkpt lat="48.45497" lon="-4.44788">
        <ele>91.8</ele>
        <time>2020-08-19T09:26:51Z</time>
      </trkpt>
      <trkpt lat="48.45497" lon="-4.44788">
        <ele>91.8</ele>
        <time>2020-08-19T09:27:03Z</time>
      </trkpt>
      <trkpt lat="48.45511" lon="-4.44803">
        <ele>91.4</ele>
        <time>2020-08-19T09:27:07Z</time>
      </trkpt>
      <trkpt lat="48.45511" lon="-4.44803">
        <ele>91.4</ele>
        <time>2020-08-19T09:27:10Z</time>
      </trkpt>
      <trkpt lat="48.45511" lon="-4.44803">
        <ele>91.4</ele>
        <time>2020-08-19T09:27:15Z</time>
      </trkpt>
      <trkpt lat="48.45511" lon="-4.44803">
        <ele>91.4</ele>
        <time>2020-08-19T09:27:16Z</time>
      </trkpt>
      <trkpt lat="48.45511" lon="-4.44803">
        <ele>91.4</ele>
        <time>2020-08-19T09:27:22Z</time>
      </trkpt>
      <trkpt lat="48.45518" lon="-4.44785">
        <ele>91.6</ele>
        <time>2020-08-19T09:27:30Z</time>
      </trkpt>
      <trkpt lat="48.45518" lon="-4.44785">
        <ele>91.6</ele>
        <time>2020-08-19T09:27:48Z</time>
      </trkpt>
      <trkpt lat="48.45518" lon="-4.44785">
        <ele>91.6</ele>
        <time>2020-08-19T09:27:49Z</time>
      </trkpt>
      <trkpt lat="48.45518" lon="-4.44785">
        <ele>91.6</ele>
        <time>2020-08-19T09:27:55Z</time>
      </trkpt>
      <trkpt lat="48.45518" lon="-4.44785">
        <ele>91.6</ele>
        <time>2020-08-19T09:28:01Z</time>
      </trkpt>
      <trkpt lat="48.45518" lon="-4.44785">
        <ele>91.6</ele>
        <time>2020-08-19T09:28:04Z</time>
      </trkpt>
      <trkpt lat="48.45518" lon="-4.44785">
        <ele>91.6</ele>
        <time>2020-08-19T09:28:10Z</time>
      </trkpt>
      <trkpt lat="48.45518" lon="-4.44785">
        <ele>91.6</ele>
        <time>2020-08-19T09:28:21Z</time>
      </trkpt>
      <trkpt lat="48.455" lon="-4.44787">
        <ele>91.8</ele>
        <time>2020-08-19T09:28:32Z</time>
      </trkpt>
      <trkpt lat="48.455" lon="-4.44787">
        <ele>91.8</ele>
        <time>2020-08-19T09:28:40Z</time>
      </trkpt>
      <trkpt lat="48.455" lon="-4.44787">
        <ele>91.8</ele>
        <time>2020-08-19T09:29:02Z</time>
      </trkpt>
      <trkpt lat="48.455" lon="-4.44787">
        <ele>91.8</ele>
        <time>2020-08-19T09:29:11Z</time>
      </trkpt>
      <trkpt lat="48.455" lon="-4.44787">
        <ele>91.8</ele>
        <time>2020-08-19T09:29:13Z</time>
      </trkpt>
      <trkpt lat="48.455" lon="-4.44787">
        <ele>91.8</ele>
        <time>2020-08-19T09:29:20Z</time>
      </trkpt>
      <trkpt lat="48.45512" lon="-4.44802">
        <ele>91.4</ele>
        <time>2020-08-19T09:29:32Z</time>
      </trkpt>
      <trkpt lat="48.4551" lon="-4.44817">
        <ele>91.3</ele>
        <time>2020-08-19T09:29:37Z</time>
      </trkpt>
      <trkpt lat="48.4551" lon="-4.44821">
        <ele>91.2</ele>
        <time>2020-08-19T09:29:38Z</time>
      </trkpt>
      <trkpt lat="48.4551" lon="-4.44831">
        <ele>91.2</ele>
        <time>2020-08-19T09:29:42Z</time>
      </trkpt>
      <trkpt lat="48.45506" lon="-4.4485">
        <ele>90.7</ele>
        <time>2020-08-19T09:29:49Z</time>
      </trkpt>
      <trkpt lat="48.45501" lon="-4.44878">
        <ele>90.5</ele>
        <time>2020-08-19T09:29:57Z</time>
      </trkpt>
      <trkpt lat="48.45499" lon="-4.44903">
        <ele>90.5</ele>
        <time>2020-08-19T09:30:03Z</time>
      </trkpt>
      <trkpt lat="48.45502" lon="-4.44928">
        <ele>90</ele>
        <time>2020-08-19T09:30:08Z</time>
      </trkpt>
      <trkpt lat="48.45508" lon="-4.44971">
        <ele>90.3</ele>
        <time>2020-08-19T09:30:16Z</time>
      </trkpt>
      <trkpt lat="48.45512" lon="-4.45017">
        <ele>90.7</ele>
        <time>2020-08-19T09:30:24Z</time>
      </trkpt>
      <trkpt lat="48.45514" lon="-4.45039">
        <ele>90.8</ele>
        <time>2020-08-19T09:30:28Z</time>
      </trkpt>
      <trkpt lat="48.45528" lon="-4.45092">
        <ele>90.8</ele>
        <time>2020-08-19T09:30:37Z</time>
      </trkpt>
      <trkpt lat="48.45538" lon="-4.45125">
        <ele>90.3</ele>
        <time>2020-08-19T09:30:43Z</time>
      </trkpt>
      <trkpt lat="48.45542" lon="-4.45136">
        <ele>90.1</ele>
        <time>2020-08-19T09:30:45Z</time>
      </trkpt>
      <trkpt lat="48.45551" lon="-4.45166">
        <ele>89.9</ele>
        <time>2020-08-19T09:30:50Z</time>
      </trkpt>
      <trkpt lat="48.45562" lon="-4.45197">
        <ele>88.8</ele>
        <time>2020-08-19T09:30:55Z</time>
      </trkpt>
      <trkpt lat="48.45576" lon="-4.45239">
        <ele>88.3</ele>
        <time>2020-08-19T09:31:02Z</time>
      </trkpt>
      <trkpt lat="48.45596" lon="-4.45271">
        <ele>88.2</ele>
        <time>2020-08-19T09:31:08Z</time>
      </trkpt>
      <trkpt lat="48.45602" lon="-4.45275">
        <ele>88.2</ele>
        <time>2020-08-19T09:31:12Z</time>
      </trkpt>
      <trkpt lat="48.45608" lon="-4.45316">
        <ele>88.2</ele>
        <time>2020-08-19T09:31:19Z</time>
      </trkpt>
      <trkpt lat="48.45618" lon="-4.45361">
        <ele>88</ele>
        <time>2020-08-19T09:31:26Z</time>
      </trkpt>
      <trkpt lat="48.45631" lon="-4.45409">
        <ele>88</ele>
        <time>2020-08-19T09:31:34Z</time>
      </trkpt>
      <trkpt lat="48.45636" lon="-4.45427">
        <ele>88.5</ele>
        <time>2020-08-19T09:31:37Z</time>
      </trkpt>
      <trkpt lat="48.4564" lon="-4.45463">
        <ele>88.8</ele>
        <time>2020-08-19T09:31:42Z</time>
      </trkpt>
      <trkpt lat="48.45641" lon="-4.45486">
        <ele>89.1</ele>
        <time>2020-08-19T09:31:45Z</time>
      </trkpt>
      <trkpt lat="48.45636" lon="-4.45539">
        <ele>89.1</ele>
        <time>2020-08-19T09:31:51Z</time>
      </trkpt>
      <trkpt lat="48.45627" lon="-4.45619">
        <ele>87.6</ele>
        <time>2020-08-19T09:32:00Z</time>
      </trkpt>
      <trkpt lat="48.45627" lon="-4.45635">
        <ele>87.4</ele>
        <time>2020-08-19T09:32:02Z</time>
      </trkpt>
      <trkpt lat="48.45636" lon="-4.45708">
        <ele>86.2</ele>
        <time>2020-08-19T09:32:11Z</time>
      </trkpt>
      <trkpt lat="48.45638" lon="-4.45717">
        <ele>86.1</ele>
        <time>2020-08-19T09:32:12Z</time>
      </trkpt>
      <trkpt lat="48.45656" lon="-4.45789">
        <ele>86</ele>
        <time>2020-08-19T09:32:20Z</time>
      </trkpt>
      <trkpt lat="48.45672" lon="-4.4586">
        <ele>85.5</ele>
        <time>2020-08-19T09:32:28Z</time>
      </trkpt>
      <trkpt lat="48.45679" lon="-4.45918">
        <ele>85.9</ele>
        <time>2020-08-19T09:32:35Z</time>
      </trkpt>
      <trkpt lat="48.45684" lon="-4.45966">
        <ele>85.8</ele>
        <time>2020-08-19T09:32:42Z</time>
      </trkpt>
      <trkpt lat="48.45689" lon="-4.46012">
        <ele>86.1</ele>
        <time>2020-08-19T09:32:49Z</time>
      </trkpt>
      <trkpt lat="48.45695" lon="-4.4606">
        <ele>86.2</ele>
        <time>2020-08-19T09:32:57Z</time>
      </trkpt>
      <trkpt lat="48.45695" lon="-4.46061">
        <ele>86.2</ele>
        <time>2020-08-19T09:33:02Z</time>
      </trkpt>
      <trkpt lat="48.45695" lon="-4.46061">
        <ele>86.2</ele>
        <time>2020-08-19T09:33:03Z</time>
      </trkpt>
      <trkpt lat="48.45641" lon="-4.4611">
        <ele>86</ele>
        <time>2020-08-19T09:33:16Z</time>
      </trkpt>
      <trkpt lat="48.45609" lon="-4.46138">
        <ele>86</ele>
        <time>2020-08-19T09:33:26Z</time>
      </trkpt>
      <trkpt lat="48.45584" lon="-4.46161">
        <ele>86</ele>
        <time>2020-08-19T09:33:35Z</time>
      </trkpt>
      <trkpt lat="48.45553" lon="-4.46187">
        <ele>85.8</ele>
        <time>2020-08-19T09:33:46Z</time>
      </trkpt>
      <trkpt lat="48.45523" lon="-4.46211">
        <ele>85.5</ele>
        <time>2020-08-19T09:33:55Z</time>
      </trkpt>
      <trkpt lat="48.45496" lon="-4.46234">
        <ele>84.6</ele>
        <time>2020-08-19T09:34:03Z</time>
      </trkpt>
      <trkpt lat="48.45487" lon="-4.46243">
        <ele>84.5</ele>
        <time>2020-08-19T09:34:10Z</time>
      </trkpt>
      <trkpt lat="48.45453" lon="-4.46299">
        <ele>84.2</ele>
        <time>2020-08-19T09:34:17Z</time>
      </trkpt>
      <trkpt lat="48.45419" lon="-4.46342">
        <ele>83.1</ele>
        <time>2020-08-19T09:34:26Z</time>
      </trkpt>
      <trkpt lat="48.45393" lon="-4.46375">
        <ele>83.5</ele>
        <time>2020-08-19T09:34:33Z</time>
      </trkpt>
      <trkpt lat="48.45373" lon="-4.46402">
        <ele>83.6</ele>
        <time>2020-08-19T09:34:39Z</time>
      </trkpt>
      <trkpt lat="48.45349" lon="-4.46433">
        <ele>83.1</ele>
        <time>2020-08-19T09:34:46Z</time>
      </trkpt>
      <trkpt lat="48.45334" lon="-4.46451">
        <ele>82.8</ele>
        <time>2020-08-19T09:34:51Z</time>
      </trkpt>
      <trkpt lat="48.45333" lon="-4.46476">
        <ele>83.5</ele>
        <time>2020-08-19T09:34:55Z</time>
      </trkpt>
      <trkpt lat="48.45331" lon="-4.46503">
        <ele>82.1</ele>
        <time>2020-08-19T09:35:00Z</time>
      </trkpt>
      <trkpt lat="48.4532" lon="-4.46521">
        <ele>82.6</ele>
        <time>2020-08-19T09:35:04Z</time>
      </trkpt>
      <trkpt lat="48.45299" lon="-4.46529">
        <ele>82.9</ele>
        <time>2020-08-19T09:35:09Z</time>
      </trkpt>
      <trkpt lat="48.45282" lon="-4.46574">
        <ele>83.1</ele>
        <time>2020-08-19T09:35:18Z</time>
      </trkpt>
      <trkpt lat="48.45258" lon="-4.46629">
        <ele>81.9</ele>
        <time>2020-08-19T09:35:28Z</time>
      </trkpt>
      <trkpt lat="48.45235" lon="-4.46682">
        <ele>81.6</ele>
        <time>2020-08-19T09:35:38Z</time>
      </trkpt>
      <trkpt lat="48.45212" lon="-4.46725">
        <ele>81.8</ele>
        <time>2020-08-19T09:35:46Z</time>
      </trkpt>
      <trkpt lat="48.45197" lon="-4.46754">
        <ele>81.8</ele>
        <time>2020-08-19T09:35:51Z</time>
      </trkpt>
      <trkpt lat="48.45188" lon="-4.46772">
        <ele>81.9</ele>
        <time>2020-08-19T09:35:55Z</time>
      </trkpt>
      <trkpt lat="48.45197" lon="-4.46793">
        <ele>81.6</ele>
        <time>2020-08-19T09:35:57Z</time>
      </trkpt>
      <trkpt lat="48.45185" lon="-4.46775">
        <ele>81.9</ele>
        <time>2020-08-19T09:36:01Z</time>
      </trkpt>
      <trkpt lat="48.45174" lon="-4.46787">
        <ele>81.9</ele>
        <time>2020-08-19T09:36:09Z</time>
      </trkpt>
      <trkpt lat="48.45165" lon="-4.46796">
        <ele>81.7</ele>
        <time>2020-08-19T09:36:13Z</time>
      </trkpt>
      <trkpt lat="48.45138" lon="-4.4682">
        <ele>81.2</ele>
        <time>2020-08-19T09:36:22Z</time>
      </trkpt>
      <trkpt lat="48.45124" lon="-4.46831">
        <ele>80.8</ele>
        <time>2020-08-19T09:36:27Z</time>
      </trkpt>
      <trkpt lat="48.45121" lon="-4.46833">
        <ele>80.6</ele>
        <time>2020-08-19T09:36:29Z</time>
      </trkpt>
      <trkpt lat="48.4511" lon="-4.46841">
        <ele>79.5</ele>
        <time>2020-08-19T09:36:35Z</time>
      </trkpt>
      <trkpt lat="48.45102" lon="-4.46846">
        <ele>79.2</ele>
        <time>2020-08-19T09:36:38Z</time>
      </trkpt>
      <trkpt lat="48.45078" lon="-4.46861">
        <ele>77.1</ele>
        <time>2020-08-19T09:36:45Z</time>
      </trkpt>
      <trkpt lat="48.45051" lon="-4.46877">
        <ele>76.7</ele>
        <time>2020-08-19T09:36:53Z</time>
      </trkpt>
      <trkpt lat="48.45043" lon="-4.4688">
        <ele>76.5</ele>
        <time>2020-08-19T09:36:58Z</time>
      </trkpt>
      <trkpt lat="48.45033" lon="-4.46884">
        <ele>76.3</ele>
        <time>2020-08-19T09:37:02Z</time>
      </trkpt>
      <trkpt lat="48.44999" lon="-4.46903">
        <ele>74</ele>
        <time>2020-08-19T09:37:10Z</time>
      </trkpt>
      <trkpt lat="48.44951" lon="-4.46933">
        <ele>73.3</ele>
        <time>2020-08-19T09:37:21Z</time>
      </trkpt>
      <trkpt lat="48.44914" lon="-4.46958">
        <ele>73</ele>
        <time>2020-08-19T09:37:29Z</time>
      </trkpt>
      <trkpt lat="48.44901" lon="-4.46969">
        <ele>73.2</ele>
        <time>2020-08-19T09:37:32Z</time>
      </trkpt>
      <trkpt lat="48.44866" lon="-4.47012">
        <ele>74.7</ele>
        <time>2020-08-19T09:37:40Z</time>
      </trkpt>
      <trkpt lat="48.44857" lon="-4.47024">
        <ele>74.7</ele>
        <time>2020-08-19T09:37:42Z</time>
      </trkpt>
      <trkpt lat="48.44838" lon="-4.47051">
        <ele>74.9</ele>
        <time>2020-08-19T09:37:47Z</time>
      </trkpt>
      <trkpt lat="48.44829" lon="-4.47059">
        <ele>74.5</ele>
        <time>2020-08-19T09:37:49Z</time>
      </trkpt>
      <trkpt lat="48.44801" lon="-4.47072">
        <ele>74.5</ele>
        <time>2020-08-19T09:37:56Z</time>
      </trkpt>
      <trkpt lat="48.44774" lon="-4.47078">
        <ele>74.6</ele>
        <time>2020-08-19T09:38:05Z</time>
      </trkpt>
      <trkpt lat="48.44747" lon="-4.47083">
        <ele>74.8</ele>
        <time>2020-08-19T09:38:14Z</time>
      </trkpt>
      <trkpt lat="48.44719" lon="-4.4709">
        <ele>75.5</ele>
        <time>2020-08-19T09:38:22Z</time>
      </trkpt>
      <trkpt lat="48.44696" lon="-4.47088">
        <ele>75.3</ele>
        <time>2020-08-19T09:38:28Z</time>
      </trkpt>
      <trkpt lat="48.44672" lon="-4.4708">
        <ele>73.8</ele>
        <time>2020-08-19T09:38:34Z</time>
      </trkpt>
      <trkpt lat="48.44644" lon="-4.47074">
        <ele>73.1</ele>
        <time>2020-08-19T09:38:41Z</time>
      </trkpt>
      <trkpt lat="48.44643" lon="-4.47076">
        <ele>73.1</ele>
        <time>2020-08-19T09:38:44Z</time>
      </trkpt>
      <trkpt lat="48.4464" lon="-4.47079">
        <ele>73.1</ele>
        <time>2020-08-19T09:38:57Z</time>
      </trkpt>
      <trkpt lat="48.4463" lon="-4.47089">
        <ele>73.9</ele>
        <time>2020-08-19T09:39:01Z</time>
      </trkpt>
      <trkpt lat="48.44617" lon="-4.4711">
        <ele>73.9</ele>
        <time>2020-08-19T09:39:06Z</time>
      </trkpt>
      <trkpt lat="48.44609" lon="-4.47125">
        <ele>73.9</ele>
        <time>2020-08-19T09:39:09Z</time>
      </trkpt>
      <trkpt lat="48.44598" lon="-4.4715">
        <ele>73.8</ele>
        <time>2020-08-19T09:39:14Z</time>
      </trkpt>
      <trkpt lat="48.44584" lon="-4.47177">
        <ele>74.1</ele>
        <time>2020-08-19T09:39:19Z</time>
      </trkpt>
      <trkpt lat="48.4457" lon="-4.47207">
        <ele>75</ele>
        <time>2020-08-19T09:39:25Z</time>
      </trkpt>
      <trkpt lat="48.44556" lon="-4.47237">
        <ele>75.2</ele>
        <time>2020-08-19T09:39:31Z</time>
      </trkpt>
      <trkpt lat="48.44551" lon="-4.47248">
        <ele>75.3</ele>
        <time>2020-08-19T09:39:33Z</time>
      </trkpt>
      <trkpt lat="48.44546" lon="-4.47259">
        <ele>75.2</ele>
        <time>2020-08-19T09:39:35Z</time>
      </trkpt>
      <trkpt lat="48.44532" lon="-4.47292">
        <ele>75.2</ele>
        <time>2020-08-19T09:39:41Z</time>
      </trkpt>
      <trkpt lat="48.44524" lon="-4.47318">
        <ele>75</ele>
        <time>2020-08-19T09:39:46Z</time>
      </trkpt>
      <trkpt lat="48.44515" lon="-4.47345">
        <ele>74.2</ele>
        <time>2020-08-19T09:39:51Z</time>
      </trkpt>
      <trkpt lat="48.44511" lon="-4.47382">
        <ele>73.7</ele>
        <time>2020-08-19T09:39:56Z</time>
      </trkpt>
      <trkpt lat="48.44511" lon="-4.47436">
        <ele>72.2</ele>
        <time>2020-08-19T09:40:03Z</time>
      </trkpt>
      <trkpt lat="48.44514" lon="-4.47452">
        <ele>72.2</ele>
        <time>2020-08-19T09:40:05Z</time>
      </trkpt>
      <trkpt lat="48.44527" lon="-4.47498">
        <ele>72</ele>
        <time>2020-08-19T09:40:11Z</time>
      </trkpt>
      <trkpt lat="48.44541" lon="-4.47525">
        <ele>72.3</ele>
        <time>2020-08-19T09:40:16Z</time>
      </trkpt>
      <trkpt lat="48.44548" lon="-4.47536">
        <ele>72.3</ele>
        <time>2020-08-19T09:40:20Z</time>
      </trkpt>
      <trkpt lat="48.4455" lon="-4.47539">
        <ele>72.3</ele>
        <time>2020-08-19T09:40:22Z</time>
      </trkpt>
      <trkpt lat="48.44557" lon="-4.47548">
        <ele>72.2</ele>
        <time>2020-08-19T09:40:27Z</time>
      </trkpt>
      <trkpt lat="48.44557" lon="-4.47548">
        <ele>72.2</ele>
        <time>2020-08-19T09:40:30Z</time>
      </trkpt>
      <trkpt lat="48.44557" lon="-4.47548">
        <ele>72.2</ele>
        <time>2020-08-19T09:40:32Z</time>
      </trkpt>
      <trkpt lat="48.44576" lon="-4.47617">
        <ele>73.1</ele>
        <time>2020-08-19T09:40:39Z</time>
      </trkpt>
      <trkpt lat="48.44583" lon="-4.47665">
        <ele>71.3</ele>
        <time>2020-08-19T09:40:46Z</time>
      </trkpt>
      <trkpt lat="48.44594" lon="-4.47735">
        <ele>71.2</ele>
        <time>2020-08-19T09:40:56Z</time>
      </trkpt>
      <trkpt lat="48.44596" lon="-4.47742">
        <ele>71.3</ele>
        <time>2020-08-19T09:40:57Z</time>
      </trkpt>
      <trkpt lat="48.44604" lon="-4.47774">
        <ele>70.9</ele>
        <time>2020-08-19T09:41:02Z</time>
      </trkpt>
      <trkpt lat="48.44616" lon="-4.47809">
        <ele>70.7</ele>
        <time>2020-08-19T09:41:08Z</time>
      </trkpt>
      <trkpt lat="48.44637" lon="-4.47869">
        <ele>70.1</ele>
        <time>2020-08-19T09:41:17Z</time>
      </trkpt>
      <trkpt lat="48.44655" lon="-4.47929">
        <ele>69.4</ele>
        <time>2020-08-19T09:41:26Z</time>
      </trkpt>
      <trkpt lat="48.44662" lon="-4.47984">
        <ele>69.3</ele>
        <time>2020-08-19T09:41:34Z</time>
      </trkpt>
      <trkpt lat="48.44662" lon="-4.48034">
        <ele>69.2</ele>
        <time>2020-08-19T09:41:41Z</time>
      </trkpt>
      <trkpt lat="48.4466" lon="-4.48049">
        <ele>69.2</ele>
        <time>2020-08-19T09:41:43Z</time>
      </trkpt>
      <trkpt lat="48.44645" lon="-4.48102">
        <ele>69.2</ele>
        <time>2020-08-19T09:41:51Z</time>
      </trkpt>
      <trkpt lat="48.4463" lon="-4.48134">
        <ele>69.3</ele>
        <time>2020-08-19T09:41:56Z</time>
      </trkpt>
      <trkpt lat="48.44623" lon="-4.48147">
        <ele>69.3</ele>
        <time>2020-08-19T09:41:58Z</time>
      </trkpt>
      <trkpt lat="48.44604" lon="-4.48166">
        <ele>68.8</ele>
        <time>2020-08-19T09:42:02Z</time>
      </trkpt>
      <trkpt lat="48.44566" lon="-4.48193">
        <ele>68.1</ele>
        <time>2020-08-19T09:42:10Z</time>
      </trkpt>
      <trkpt lat="48.44539" lon="-4.48207">
        <ele>67.6</ele>
        <time>2020-08-19T09:42:16Z</time>
      </trkpt>
      <trkpt lat="48.44535" lon="-4.48209">
        <ele>67.5</ele>
        <time>2020-08-19T09:42:17Z</time>
      </trkpt>
      <trkpt lat="48.4452" lon="-4.48219">
        <ele>67.2</ele>
        <time>2020-08-19T09:42:21Z</time>
      </trkpt>
      <trkpt lat="48.44502" lon="-4.48232">
        <ele>66.8</ele>
        <time>2020-08-19T09:42:26Z</time>
      </trkpt>
      <trkpt lat="48.44493" lon="-4.4824">
        <ele>64.6</ele>
        <time>2020-08-19T09:42:29Z</time>
      </trkpt>
      <trkpt lat="48.44502" lon="-4.48232">
        <ele>66.8</ele>
        <time>2020-08-19T09:42:35Z</time>
      </trkpt>
      <trkpt lat="48.44502" lon="-4.48232">
        <ele>66.8</ele>
        <time>2020-08-19T09:42:41Z</time>
      </trkpt>
      <trkpt lat="48.4443" lon="-4.48341">
        <ele>62.2</ele>
        <time>2020-08-19T09:42:47Z</time>
      </trkpt>
      <trkpt lat="48.44425" lon="-4.48346">
        <ele>62.1</ele>
        <time>2020-08-19T09:42:48Z</time>
      </trkpt>
      <trkpt lat="48.4438" lon="-4.48387">
        <ele>60.8</ele>
        <time>2020-08-19T09:42:58Z</time>
      </trkpt>
      <trkpt lat="48.44343" lon="-4.48419">
        <ele>61.3</ele>
        <time>2020-08-19T09:43:06Z</time>
      </trkpt>
      <trkpt lat="48.4431" lon="-4.48441">
        <ele>62.3</ele>
        <time>2020-08-19T09:43:13Z</time>
      </trkpt>
      <trkpt lat="48.44277" lon="-4.48455">
        <ele>62.8</ele>
        <time>2020-08-19T09:43:20Z</time>
      </trkpt>
      <trkpt lat="48.44242" lon="-4.48458">
        <ele>63.3</ele>
        <time>2020-08-19T09:43:28Z</time>
      </trkpt>
      <trkpt lat="48.44207" lon="-4.48466">
        <ele>63.4</ele>
        <time>2020-08-19T09:43:36Z</time>
      </trkpt>
      <trkpt lat="48.44178" lon="-4.48483">
        <ele>64</ele>
        <time>2020-08-19T09:43:43Z</time>
      </trkpt>
      <trkpt lat="48.4416" lon="-4.485">
        <ele>64.8</ele>
        <time>2020-08-19T09:43:48Z</time>
      </trkpt>
      <trkpt lat="48.44135" lon="-4.48523">
        <ele>64.1</ele>
        <time>2020-08-19T09:43:55Z</time>
      </trkpt>
      <trkpt lat="48.44099" lon="-4.48548">
        <ele>63.5</ele>
        <time>2020-08-19T09:44:04Z</time>
      </trkpt>
      <trkpt lat="48.44077" lon="-4.48565">
        <ele>62.4</ele>
        <time>2020-08-19T09:44:10Z</time>
      </trkpt>
      <trkpt lat="48.4405" lon="-4.48594">
        <ele>62.7</ele>
        <time>2020-08-19T09:44:18Z</time>
      </trkpt>
      <trkpt lat="48.44039" lon="-4.4861">
        <ele>62.7</ele>
        <time>2020-08-19T09:44:22Z</time>
      </trkpt>
      <trkpt lat="48.44014" lon="-4.48657">
        <ele>62.4</ele>
        <time>2020-08-19T09:44:30Z</time>
      </trkpt>
      <trkpt lat="48.4398" lon="-4.4872">
        <ele>61.2</ele>
        <time>2020-08-19T09:44:40Z</time>
      </trkpt>
      <trkpt lat="48.43953" lon="-4.4876">
        <ele>62.2</ele>
        <time>2020-08-19T09:44:47Z</time>
      </trkpt>
      <trkpt lat="48.43927" lon="-4.48786">
        <ele>62.5</ele>
        <time>2020-08-19T09:44:53Z</time>
      </trkpt>
      <trkpt lat="48.43902" lon="-4.48811">
        <ele>62.6</ele>
        <time>2020-08-19T09:44:59Z</time>
      </trkpt>
      <trkpt lat="48.43882" lon="-4.48834">
        <ele>63.5</ele>
        <time>2020-08-19T09:45:05Z</time>
      </trkpt>
      <trkpt lat="48.43866" lon="-4.48859">
        <ele>63.3</ele>
        <time>2020-08-19T09:45:11Z</time>
      </trkpt>
      <trkpt lat="48.43853" lon="-4.48887">
        <ele>63.5</ele>
        <time>2020-08-19T09:45:17Z</time>
      </trkpt>
      <trkpt lat="48.43844" lon="-4.48914">
        <ele>63.3</ele>
        <time>2020-08-19T09:45:23Z</time>
      </trkpt>
      <trkpt lat="48.43836" lon="-4.48939">
        <ele>64.8</ele>
        <time>2020-08-19T09:45:29Z</time>
      </trkpt>
      <trkpt lat="48.4383" lon="-4.48972">
        <ele>64.1</ele>
        <time>2020-08-19T09:45:36Z</time>
      </trkpt>
      <trkpt lat="48.43829" lon="-4.49006">
        <ele>65</ele>
        <time>2020-08-19T09:45:41Z</time>
      </trkpt>
      <trkpt lat="48.4383" lon="-4.49025">
        <ele>65.1</ele>
        <time>2020-08-19T09:45:44Z</time>
      </trkpt>
      <trkpt lat="48.43832" lon="-4.49071">
        <ele>65.6</ele>
        <time>2020-08-19T09:45:51Z</time>
      </trkpt>
      <trkpt lat="48.43832" lon="-4.49105">
        <ele>65.6</ele>
        <time>2020-08-19T09:45:56Z</time>
      </trkpt>
      <trkpt lat="48.43826" lon="-4.49156">
        <ele>66.1</ele>
        <time>2020-08-19T09:46:03Z</time>
      </trkpt>
      <trkpt lat="48.4382" lon="-4.49183">
        <ele>65.8</ele>
        <time>2020-08-19T09:46:08Z</time>
      </trkpt>
      <trkpt lat="48.4382" lon="-4.49186">
        <ele>65.7</ele>
        <time>2020-08-19T09:46:10Z</time>
      </trkpt>
      <trkpt lat="48.43819" lon="-4.49188">
        <ele>65.6</ele>
        <time>2020-08-19T09:46:35Z</time>
      </trkpt>
      <trkpt lat="48.43813" lon="-4.4921">
        <ele>65.4</ele>
        <time>2020-08-19T09:46:40Z</time>
      </trkpt>
      <trkpt lat="48.43805" lon="-4.49228">
        <ele>65.4</ele>
        <time>2020-08-19T09:46:44Z</time>
      </trkpt>
      <trkpt lat="48.43797" lon="-4.49243">
        <ele>65.1</ele>
        <time>2020-08-19T09:46:49Z</time>
      </trkpt>
      <trkpt lat="48.43769" lon="-4.49292">
        <ele>64.6</ele>
        <time>2020-08-19T09:46:54Z</time>
      </trkpt>
      <trkpt lat="48.43751" lon="-4.49329">
        <ele>62.6</ele>
        <time>2020-08-19T09:46:59Z</time>
      </trkpt>
      <trkpt lat="48.43736" lon="-4.49377">
        <ele>62.4</ele>
        <time>2020-08-19T09:47:05Z</time>
      </trkpt>
      <trkpt lat="48.43728" lon="-4.49432">
        <ele>61.3</ele>
        <time>2020-08-19T09:47:11Z</time>
      </trkpt>
      <trkpt lat="48.43725" lon="-4.49459">
        <ele>61.3</ele>
        <time>2020-08-19T09:47:14Z</time>
      </trkpt>
      <trkpt lat="48.43726" lon="-4.49494">
        <ele>61</ele>
        <time>2020-08-19T09:47:18Z</time>
      </trkpt>
      <trkpt lat="48.43733" lon="-4.49554">
        <ele>60.8</ele>
        <time>2020-08-19T09:47:25Z</time>
      </trkpt>
      <trkpt lat="48.43738" lon="-4.49587">
        <ele>60.2</ele>
        <time>2020-08-19T09:47:29Z</time>
      </trkpt>
      <trkpt lat="48.43739" lon="-4.49604">
        <ele>60.8</ele>
        <time>2020-08-19T09:47:31Z</time>
      </trkpt>
      <trkpt lat="48.4374" lon="-4.4967">
        <ele>61.3</ele>
        <time>2020-08-19T09:47:39Z</time>
      </trkpt>
      <trkpt lat="48.43738" lon="-4.49686">
        <ele>62.2</ele>
        <time>2020-08-19T09:47:41Z</time>
      </trkpt>
      <trkpt lat="48.43733" lon="-4.49709">
        <ele>63.1</ele>
        <time>2020-08-19T09:47:44Z</time>
      </trkpt>
      <trkpt lat="48.43728" lon="-4.49722">
        <ele>63.4</ele>
        <time>2020-08-19T09:47:46Z</time>
      </trkpt>
      <trkpt lat="48.43721" lon="-4.49742">
        <ele>63.7</ele>
        <time>2020-08-19T09:47:49Z</time>
      </trkpt>
      <trkpt lat="48.43708" lon="-4.49763">
        <ele>64.2</ele>
        <time>2020-08-19T09:47:53Z</time>
      </trkpt>
      <trkpt lat="48.43682" lon="-4.498">
        <ele>63.7</ele>
        <time>2020-08-19T09:48:00Z</time>
      </trkpt>
      <trkpt lat="48.43661" lon="-4.49834">
        <ele>61.7</ele>
        <time>2020-08-19T09:48:07Z</time>
      </trkpt>
      <trkpt lat="48.43638" lon="-4.49869">
        <ele>60.6</ele>
        <time>2020-08-19T09:48:14Z</time>
      </trkpt>
      <trkpt lat="48.43612" lon="-4.49906">
        <ele>59.4</ele>
        <time>2020-08-19T09:48:23Z</time>
      </trkpt>
      <trkpt lat="48.43578" lon="-4.49957">
        <ele>58</ele>
        <time>2020-08-19T09:48:32Z</time>
      </trkpt>
      <trkpt lat="48.43553" lon="-4.49992">
        <ele>58.2</ele>
        <time>2020-08-19T09:48:39Z</time>
      </trkpt>
      <trkpt lat="48.43527" lon="-4.50026">
        <ele>58.6</ele>
        <time>2020-08-19T09:48:46Z</time>
      </trkpt>
      <trkpt lat="48.43495" lon="-4.50061">
        <ele>57.1</ele>
        <time>2020-08-19T09:48:55Z</time>
      </trkpt>
      <trkpt lat="48.43468" lon="-4.50091">
        <ele>56.6</ele>
        <time>2020-08-19T09:49:03Z</time>
      </trkpt>
      <trkpt lat="48.4346" lon="-4.501">
        <ele>56.1</ele>
        <time>2020-08-19T09:49:06Z</time>
      </trkpt>
      <trkpt lat="48.43453" lon="-4.50109">
        <ele>55.9</ele>
        <time>2020-08-19T09:49:11Z</time>
      </trkpt>
      <trkpt lat="48.43452" lon="-4.5011">
        <ele>55.8</ele>
        <time>2020-08-19T09:49:13Z</time>
      </trkpt>
      <trkpt lat="48.43445" lon="-4.50117">
        <ele>55.6</ele>
        <time>2020-08-19T09:49:19Z</time>
      </trkpt>
      <trkpt lat="48.43434" lon="-4.50128">
        <ele>55.4</ele>
        <time>2020-08-19T09:49:25Z</time>
      </trkpt>
      <trkpt lat="48.43419" lon="-4.50142">
        <ele>55.1</ele>
        <time>2020-08-19T09:49:31Z</time>
      </trkpt>
      <trkpt lat="48.43406" lon="-4.50155">
        <ele>54.1</ele>
        <time>2020-08-19T09:49:36Z</time>
      </trkpt>
      <trkpt lat="48.43393" lon="-4.50169">
        <ele>54.2</ele>
        <time>2020-08-19T09:49:41Z</time>
      </trkpt>
      <trkpt lat="48.43377" lon="-4.50186">
        <ele>54.3</ele>
        <time>2020-08-19T09:49:46Z</time>
      </trkpt>
      <trkpt lat="48.43355" lon="-4.50205">
        <ele>54.3</ele>
        <time>2020-08-19T09:49:53Z</time>
      </trkpt>
      <trkpt lat="48.43329" lon="-4.50226">
        <ele>55.4</ele>
        <time>2020-08-19T09:50:02Z</time>
      </trkpt>
      <trkpt lat="48.43311" lon="-4.50238">
        <ele>55.5</ele>
        <time>2020-08-19T09:50:08Z</time>
      </trkpt>
      <trkpt lat="48.43304" lon="-4.50242">
        <ele>55.7</ele>
        <time>2020-08-19T09:50:10Z</time>
      </trkpt>
      <trkpt lat="48.43297" lon="-4.50246">
        <ele>55.8</ele>
        <time>2020-08-19T09:50:12Z</time>
      </trkpt>
      <trkpt lat="48.43281" lon="-4.50254">
        <ele>55.3</ele>
        <time>2020-08-19T09:50:16Z</time>
      </trkpt>
      <trkpt lat="48.4326" lon="-4.5026">
        <ele>55.6</ele>
        <time>2020-08-19T09:50:21Z</time>
      </trkpt>
      <trkpt lat="48.43255" lon="-4.5026">
        <ele>55.7</ele>
        <time>2020-08-19T09:50:22Z</time>
      </trkpt>
      <trkpt lat="48.43233" lon="-4.50262">
        <ele>55.1</ele>
        <time>2020-08-19T09:50:27Z</time>
      </trkpt>
      <trkpt lat="48.43209" lon="-4.50265">
        <ele>54.5</ele>
        <time>2020-08-19T09:50:32Z</time>
      </trkpt>
      <trkpt lat="48.43167" lon="-4.5028">
        <ele>54</ele>
        <time>2020-08-19T09:50:41Z</time>
      </trkpt>
      <trkpt lat="48.4313" lon="-4.50295">
        <ele>52.8</ele>
        <time>2020-08-19T09:50:49Z</time>
      </trkpt>
      <trkpt lat="48.43087" lon="-4.50312">
        <ele>51.7</ele>
        <time>2020-08-19T09:50:58Z</time>
      </trkpt>
      <trkpt lat="48.43082" lon="-4.50314">
        <ele>51.4</ele>
        <time>2020-08-19T09:50:59Z</time>
      </trkpt>
      <trkpt lat="48.43064" lon="-4.50323">
        <ele>51.4</ele>
        <time>2020-08-19T09:51:03Z</time>
      </trkpt>
      <trkpt lat="48.43048" lon="-4.50336">
        <ele>50.8</ele>
        <time>2020-08-19T09:51:07Z</time>
      </trkpt>
      <trkpt lat="48.43029" lon="-4.50354">
        <ele>50.8</ele>
        <time>2020-08-19T09:51:12Z</time>
      </trkpt>
      <trkpt lat="48.43011" lon="-4.50378">
        <ele>50.5</ele>
        <time>2020-08-19T09:51:17Z</time>
      </trkpt>
      <trkpt lat="48.42994" lon="-4.50407">
        <ele>48.8</ele>
        <time>2020-08-19T09:51:22Z</time>
      </trkpt>
      <trkpt lat="48.42976" lon="-4.50444">
        <ele>49.1</ele>
        <time>2020-08-19T09:51:28Z</time>
      </trkpt>
      <trkpt lat="48.42965" lon="-4.50469">
        <ele>49.3</ele>
        <time>2020-08-19T09:51:32Z</time>
      </trkpt>
      <trkpt lat="48.42943" lon="-4.50502">
        <ele>49</ele>
        <time>2020-08-19T09:51:39Z</time>
      </trkpt>
      <trkpt lat="48.4291" lon="-4.50532">
        <ele>47.5</ele>
        <time>2020-08-19T09:51:48Z</time>
      </trkpt>
      <trkpt lat="48.42906" lon="-4.50535">
        <ele>47.4</ele>
        <time>2020-08-19T09:51:49Z</time>
      </trkpt>
      <trkpt lat="48.42877" lon="-4.50542">
        <ele>47.5</ele>
        <time>2020-08-19T09:51:56Z</time>
      </trkpt>
      <trkpt lat="48.42858" lon="-4.50544">
        <ele>47.6</ele>
        <time>2020-08-19T09:52:02Z</time>
      </trkpt>
      <trkpt lat="48.42841" lon="-4.50546">
        <ele>47.7</ele>
        <time>2020-08-19T09:52:09Z</time>
      </trkpt>
      <trkpt lat="48.42822" lon="-4.50546">
        <ele>48.5</ele>
        <time>2020-08-19T09:52:16Z</time>
      </trkpt>
      <trkpt lat="48.42805" lon="-4.50546">
        <ele>48.6</ele>
        <time>2020-08-19T09:52:22Z</time>
      </trkpt>
      <trkpt lat="48.42784" lon="-4.50547">
        <ele>48.8</ele>
        <time>2020-08-19T09:52:28Z</time>
      </trkpt>
      <trkpt lat="48.42772" lon="-4.50559">
        <ele>49</ele>
        <time>2020-08-19T09:52:33Z</time>
      </trkpt>
      <trkpt lat="48.42758" lon="-4.50563">
        <ele>49.3</ele>
        <time>2020-08-19T09:52:38Z</time>
      </trkpt>
      <trkpt lat="48.42734" lon="-4.50568">
        <ele>50.2</ele>
        <time>2020-08-19T09:52:46Z</time>
      </trkpt>
      <trkpt lat="48.42706" lon="-4.50577">
        <ele>50.5</ele>
        <time>2020-08-19T09:52:54Z</time>
      </trkpt>
      <trkpt lat="48.42665" lon="-4.50593">
        <ele>51.6</ele>
        <time>2020-08-19T09:53:05Z</time>
      </trkpt>
      <trkpt lat="48.42624" lon="-4.50609">
        <ele>52.5</ele>
        <time>2020-08-19T09:53:15Z</time>
      </trkpt>
      <trkpt lat="48.42588" lon="-4.50622">
        <ele>52.6</ele>
        <time>2020-08-19T09:53:24Z</time>
      </trkpt>
      <trkpt lat="48.42562" lon="-4.50629">
        <ele>53.5</ele>
        <time>2020-08-19T09:53:31Z</time>
      </trkpt>
      <trkpt lat="48.42535" lon="-4.50632">
        <ele>53.9</ele>
        <time>2020-08-19T09:53:39Z</time>
      </trkpt>
      <trkpt lat="48.42513" lon="-4.5063">
        <ele>54.2</ele>
        <time>2020-08-19T09:53:46Z</time>
      </trkpt>
      <trkpt lat="48.42487" lon="-4.50622">
        <ele>56.2</ele>
        <time>2020-08-19T09:53:54Z</time>
      </trkpt>
      <trkpt lat="48.42461" lon="-4.50608">
        <ele>56.5</ele>
        <time>2020-08-19T09:54:03Z</time>
      </trkpt>
      <trkpt lat="48.4244" lon="-4.50596">
        <ele>57.1</ele>
        <time>2020-08-19T09:54:11Z</time>
      </trkpt>
      <trkpt lat="48.42417" lon="-4.50582">
        <ele>57.9</ele>
        <time>2020-08-19T09:54:19Z</time>
      </trkpt>
      <trkpt lat="48.42397" lon="-4.50569">
        <ele>57.6</ele>
        <time>2020-08-19T09:54:26Z</time>
      </trkpt>
      <trkpt lat="48.42376" lon="-4.50555">
        <ele>57.4</ele>
        <time>2020-08-19T09:54:34Z</time>
      </trkpt>
      <trkpt lat="48.42358" lon="-4.50542">
        <ele>57.3</ele>
        <time>2020-08-19T09:54:43Z</time>
      </trkpt>
      <trkpt lat="48.42342" lon="-4.50536">
        <ele>57.2</ele>
        <time>2020-08-19T09:54:50Z</time>
      </trkpt>
      <trkpt lat="48.42328" lon="-4.50547">
        <ele>59.9</ele>
        <time>2020-08-19T09:54:59Z</time>
      </trkpt>
      <trkpt lat="48.42315" lon="-4.50539">
        <ele>60</ele>
        <time>2020-08-19T09:55:06Z</time>
      </trkpt>
      <trkpt lat="48.42306" lon="-4.50513">
        <ele>59.7</ele>
        <time>2020-08-19T09:55:14Z</time>
      </trkpt>
      <trkpt lat="48.42314" lon="-4.50539">
        <ele>60.1</ele>
        <time>2020-08-19T09:55:18Z</time>
      </trkpt>
      <trkpt lat="48.42263" lon="-4.50488">
        <ele>61.4</ele>
        <time>2020-08-19T09:55:24Z</time>
      </trkpt>
      <trkpt lat="48.42263" lon="-4.50488">
        <ele>61.4</ele>
        <time>2020-08-19T09:55:28Z</time>
      </trkpt>
      <trkpt lat="48.42263" lon="-4.50488">
        <ele>61.4</ele>
        <time>2020-08-19T09:55:36Z</time>
      </trkpt>
      <trkpt lat="48.42263" lon="-4.50488">
        <ele>61.4</ele>
        <time>2020-08-19T09:57:39Z</time>
      </trkpt>
      <trkpt lat="48.4225" lon="-4.5048">
        <ele>63.3</ele>
        <time>2020-08-19T09:57:47Z</time>
      </trkpt>
      <trkpt lat="48.42227" lon="-4.50464">
        <ele>62.9</ele>
        <time>2020-08-19T09:57:55Z</time>
      </trkpt>
      <trkpt lat="48.42197" lon="-4.50439">
        <ele>62.7</ele>
        <time>2020-08-19T09:58:05Z</time>
      </trkpt>
      <trkpt lat="48.42176" lon="-4.50416">
        <ele>61.5</ele>
        <time>2020-08-19T09:58:13Z</time>
      </trkpt>
      <trkpt lat="48.42151" lon="-4.50383">
        <ele>62</ele>
        <time>2020-08-19T09:58:23Z</time>
      </trkpt>
      <trkpt lat="48.42134" lon="-4.50349">
        <ele>61.9</ele>
        <time>2020-08-19T09:58:32Z</time>
      </trkpt>
      <trkpt lat="48.42133" lon="-4.50345">
        <ele>61.9</ele>
        <time>2020-08-19T09:58:33Z</time>
      </trkpt>
      <trkpt lat="48.42123" lon="-4.50341">
        <ele>62.2</ele>
        <time>2020-08-19T09:58:37Z</time>
      </trkpt>
      <trkpt lat="48.4211" lon="-4.50361">
        <ele>62.5</ele>
        <time>2020-08-19T09:58:44Z</time>
      </trkpt>
      <trkpt lat="48.42094" lon="-4.50388">
        <ele>62.6</ele>
        <time>2020-08-19T09:58:52Z</time>
      </trkpt>
      <trkpt lat="48.42074" lon="-4.5042">
        <ele>63.5</ele>
        <time>2020-08-19T09:59:01Z</time>
      </trkpt>
      <trkpt lat="48.42062" lon="-4.5044">
        <ele>64.2</ele>
        <time>2020-08-19T09:59:08Z</time>
      </trkpt>
      <trkpt lat="48.42053" lon="-4.50453">
        <ele>64.4</ele>
        <time>2020-08-19T09:59:14Z</time>
      </trkpt>
      <trkpt lat="48.42037" lon="-4.50481">
        <ele>64.6</ele>
        <time>2020-08-19T09:59:24Z</time>
      </trkpt>
      <trkpt lat="48.42023" lon="-4.50509">
        <ele>64.6</ele>
        <time>2020-08-19T09:59:33Z</time>
      </trkpt>
      <trkpt lat="48.42014" lon="-4.50529">
        <ele>64.5</ele>
        <time>2020-08-19T09:59:39Z</time>
      </trkpt>
      <trkpt lat="48.42004" lon="-4.50556">
        <ele>63.9</ele>
        <time>2020-08-19T09:59:43Z</time>
      </trkpt>
      <trkpt lat="48.41995" lon="-4.50583">
        <ele>62</ele>
        <time>2020-08-19T09:59:46Z</time>
      </trkpt>
      <trkpt lat="48.41971" lon="-4.50657">
        <ele>59.9</ele>
        <time>2020-08-19T09:59:54Z</time>
      </trkpt>
      <trkpt lat="48.41963" lon="-4.50712">
        <ele>58</ele>
        <time>2020-08-19T10:00:00Z</time>
      </trkpt>
      <trkpt lat="48.4196" lon="-4.50738">
        <ele>57.7</ele>
        <time>2020-08-19T10:00:04Z</time>
      </trkpt>
      <trkpt lat="48.41958" lon="-4.50751">
        <ele>56.1</ele>
        <time>2020-08-19T10:00:06Z</time>
      </trkpt>
      <trkpt lat="48.41954" lon="-4.50779">
        <ele>55.7</ele>
        <time>2020-08-19T10:00:10Z</time>
      </trkpt>
      <trkpt lat="48.41948" lon="-4.50817">
        <ele>55</ele>
        <time>2020-08-19T10:00:16Z</time>
      </trkpt>
      <trkpt lat="48.41945" lon="-4.50834">
        <ele>52.8</ele>
        <time>2020-08-19T10:00:21Z</time>
      </trkpt>
      <trkpt lat="48.41942" lon="-4.50848">
        <ele>52.7</ele>
        <time>2020-08-19T10:00:25Z</time>
      </trkpt>
      <trkpt lat="48.41938" lon="-4.50862">
        <ele>52.3</ele>
        <time>2020-08-19T10:00:29Z</time>
      </trkpt>
      <trkpt lat="48.41931" lon="-4.50887">
        <ele>51.4</ele>
        <time>2020-08-19T10:00:37Z</time>
      </trkpt>
      <trkpt lat="48.4193" lon="-4.5089">
        <ele>51.2</ele>
        <time>2020-08-19T10:00:38Z</time>
      </trkpt>
      <trkpt lat="48.41928" lon="-4.50896">
        <ele>50.9</ele>
        <time>2020-08-19T10:00:42Z</time>
      </trkpt>
      <trkpt lat="48.41925" lon="-4.50907">
        <ele>50.2</ele>
        <time>2020-08-19T10:01:33Z</time>
      </trkpt>
      <trkpt lat="48.41919" lon="-4.50929">
        <ele>49.1</ele>
        <time>2020-08-19T10:01:38Z</time>
      </trkpt>
      <trkpt lat="48.41907" lon="-4.50972">
        <ele>48</ele>
        <time>2020-08-19T10:01:44Z</time>
      </trkpt>
      <trkpt lat="48.41904" lon="-4.5098">
        <ele>47.9</ele>
        <time>2020-08-19T10:01:45Z</time>
      </trkpt>
      <trkpt lat="48.41899" lon="-4.50999">
        <ele>47.8</ele>
        <time>2020-08-19T10:01:47Z</time>
      </trkpt>
      <trkpt lat="48.41889" lon="-4.51035">
        <ele>46.5</ele>
        <time>2020-08-19T10:01:51Z</time>
      </trkpt>
      <trkpt lat="48.41885" lon="-4.51049">
        <ele>46.4</ele>
        <time>2020-08-19T10:01:53Z</time>
      </trkpt>
      <trkpt lat="48.41873" lon="-4.51085">
        <ele>47.1</ele>
        <time>2020-08-19T10:02:00Z</time>
      </trkpt>
      <trkpt lat="48.41869" lon="-4.51099">
        <ele>47.2</ele>
        <time>2020-08-19T10:02:04Z</time>
      </trkpt>
      <trkpt lat="48.4188" lon="-4.51105">
        <ele>47.4</ele>
        <time>2020-08-19T10:02:08Z</time>
      </trkpt>
      <trkpt lat="48.41866" lon="-4.51108">
        <ele>47.3</ele>
        <time>2020-08-19T10:02:09Z</time>
      </trkpt>
      <trkpt lat="48.41874" lon="-4.51082">
        <ele>46.1</ele>
        <time>2020-08-19T10:02:16Z</time>
      </trkpt>
      <trkpt lat="48.41883" lon="-4.51055">
        <ele>46.3</ele>
        <time>2020-08-19T10:02:22Z</time>
      </trkpt>
      <trkpt lat="48.41888" lon="-4.5104">
        <ele>46.4</ele>
        <time>2020-08-19T10:02:25Z</time>
      </trkpt>
      <trkpt lat="48.41891" lon="-4.51027">
        <ele>46.6</ele>
        <time>2020-08-19T10:02:27Z</time>
      </trkpt>
      <trkpt lat="48.41904" lon="-4.50982">
        <ele>47.9</ele>
        <time>2020-08-19T10:02:33Z</time>
      </trkpt>
      <trkpt lat="48.41913" lon="-4.50951">
        <ele>48.3</ele>
        <time>2020-08-19T10:02:39Z</time>
      </trkpt>
      <trkpt lat="48.41919" lon="-4.5093">
        <ele>49.1</ele>
        <time>2020-08-19T10:02:46Z</time>
      </trkpt>
      <trkpt lat="48.41927" lon="-4.50903">
        <ele>50.5</ele>
        <time>2020-08-19T10:02:56Z</time>
      </trkpt>
      <trkpt lat="48.41901" lon="-4.50878">
        <ele>51.7</ele>
        <time>2020-08-19T10:03:03Z</time>
      </trkpt>
      <trkpt lat="48.41928" lon="-4.509">
        <ele>50.7</ele>
        <time>2020-08-19T10:03:10Z</time>
      </trkpt>
      <trkpt lat="48.4192" lon="-4.50925">
        <ele>49.1</ele>
        <time>2020-08-19T10:03:20Z</time>
      </trkpt>
      <trkpt lat="48.41915" lon="-4.50943">
        <ele>48.4</ele>
        <time>2020-08-19T10:03:28Z</time>
      </trkpt>
      <trkpt lat="48.41796" lon="-4.50891">
        <ele>52.6</ele>
        <time>2020-08-19T10:03:39Z</time>
      </trkpt>
      <trkpt lat="48.41758" lon="-4.50884">
        <ele>52.9</ele>
        <time>2020-08-19T10:03:50Z</time>
      </trkpt>
      <trkpt lat="48.41721" lon="-4.50875">
        <ele>52.4</ele>
        <time>2020-08-19T10:03:59Z</time>
      </trkpt>
      <trkpt lat="48.41696" lon="-4.5087">
        <ele>52.2</ele>
        <time>2020-08-19T10:04:06Z</time>
      </trkpt>
      <trkpt lat="48.41694" lon="-4.50869">
        <ele>52.2</ele>
        <time>2020-08-19T10:04:09Z</time>
      </trkpt>
      <trkpt lat="48.41688" lon="-4.50867">
        <ele>52.2</ele>
        <time>2020-08-19T10:04:18Z</time>
      </trkpt>
      <trkpt lat="48.41669" lon="-4.50862">
        <ele>52.2</ele>
        <time>2020-08-19T10:04:23Z</time>
      </trkpt>
      <trkpt lat="48.41628" lon="-4.50853">
        <ele>49.6</ele>
        <time>2020-08-19T10:04:32Z</time>
      </trkpt>
      <trkpt lat="48.41586" lon="-4.50848">
        <ele>48.9</ele>
        <time>2020-08-19T10:04:41Z</time>
      </trkpt>
      <trkpt lat="48.41539" lon="-4.50848">
        <ele>48.5</ele>
        <time>2020-08-19T10:04:51Z</time>
      </trkpt>
      <trkpt lat="48.4146" lon="-4.50929">
        <ele>46.9</ele>
        <time>2020-08-19T10:05:01Z</time>
      </trkpt>
      <trkpt lat="48.4146" lon="-4.50929">
        <ele>46.9</ele>
        <time>2020-08-19T10:05:04Z</time>
      </trkpt>
      <trkpt lat="48.4146" lon="-4.50929">
        <ele>46.9</ele>
        <time>2020-08-19T10:05:08Z</time>
      </trkpt>
      <trkpt lat="48.41444" lon="-4.50869">
        <ele>47.3</ele>
        <time>2020-08-19T10:05:13Z</time>
      </trkpt>
      <trkpt lat="48.41442" lon="-4.50865">
        <ele>47.2</ele>
        <time>2020-08-19T10:05:14Z</time>
      </trkpt>
      <trkpt lat="48.41433" lon="-4.50854">
        <ele>47</ele>
        <time>2020-08-19T10:05:16Z</time>
      </trkpt>
      <trkpt lat="48.41404" lon="-4.50844">
        <ele>46.4</ele>
        <time>2020-08-19T10:05:22Z</time>
      </trkpt>
      <trkpt lat="48.41373" lon="-4.50833">
        <ele>47.5</ele>
        <time>2020-08-19T10:05:30Z</time>
      </trkpt>
      <trkpt lat="48.41354" lon="-4.50827">
        <ele>47.8</ele>
        <time>2020-08-19T10:05:37Z</time>
      </trkpt>
      <trkpt lat="48.41335" lon="-4.50826">
        <ele>48</ele>
        <time>2020-08-19T10:05:46Z</time>
      </trkpt>
      <trkpt lat="48.41314" lon="-4.5083">
        <ele>49</ele>
        <time>2020-08-19T10:05:54Z</time>
      </trkpt>
      <trkpt lat="48.4131" lon="-4.50836">
        <ele>48.5</ele>
        <time>2020-08-19T10:06:00Z</time>
      </trkpt>
      <trkpt lat="48.41305" lon="-4.5086">
        <ele>48.6</ele>
        <time>2020-08-19T10:06:05Z</time>
      </trkpt>
      <trkpt lat="48.41305" lon="-4.5086">
        <ele>48.6</ele>
        <time>2020-08-19T10:07:04Z</time>
      </trkpt>
      <trkpt lat="48.41305" lon="-4.5086">
        <ele>48.6</ele>
        <time>2020-08-19T10:07:07Z</time>
      </trkpt>
      <trkpt lat="48.41305" lon="-4.5086">
        <ele>48.6</ele>
        <time>2020-08-19T10:07:16Z</time>
      </trkpt>
      <trkpt lat="48.41305" lon="-4.5086">
        <ele>48.6</ele>
        <time>2020-08-19T10:07:24Z</time>
      </trkpt>
      <trkpt lat="48.41305" lon="-4.50843">
        <ele>48.6</ele>
        <time>2020-08-19T10:07:31Z</time>
      </trkpt>
      <trkpt lat="48.41296" lon="-4.50848">
        <ele>48.7</ele>
        <time>2020-08-19T10:07:38Z</time>
      </trkpt>
      <trkpt lat="48.41286" lon="-4.50849">
        <ele>48.9</ele>
        <time>2020-08-19T10:07:45Z</time>
      </trkpt>
      <trkpt lat="48.41279" lon="-4.50847">
        <ele>49.1</ele>
        <time>2020-08-19T10:07:52Z</time>
      </trkpt>
      <trkpt lat="48.41254" lon="-4.50882">
        <ele>49.2</ele>
        <time>2020-08-19T10:07:59Z</time>
      </trkpt>
      <trkpt lat="48.4124" lon="-4.50917">
        <ele>49.3</ele>
        <time>2020-08-19T10:08:06Z</time>
      </trkpt>
      <trkpt lat="48.41225" lon="-4.50963">
        <ele>47.9</ele>
        <time>2020-08-19T10:08:13Z</time>
      </trkpt>
      <trkpt lat="48.41205" lon="-4.51016">
        <ele>45.3</ele>
        <time>2020-08-19T10:08:20Z</time>
      </trkpt>
      <trkpt lat="48.41185" lon="-4.51063">
        <ele>44</ele>
        <time>2020-08-19T10:08:27Z</time>
      </trkpt>
      <trkpt lat="48.41156" lon="-4.51123">
        <ele>40.7</ele>
        <time>2020-08-19T10:08:36Z</time>
      </trkpt>
      <trkpt lat="48.41136" lon="-4.51166">
        <ele>40.1</ele>
        <time>2020-08-19T10:08:42Z</time>
      </trkpt>
      <trkpt lat="48.41113" lon="-4.5122">
        <ele>37.2</ele>
        <time>2020-08-19T10:08:49Z</time>
      </trkpt>
      <trkpt lat="48.41105" lon="-4.51238">
        <ele>36.4</ele>
        <time>2020-08-19T10:08:53Z</time>
      </trkpt>
      <trkpt lat="48.41102" lon="-4.51247">
        <ele>36</ele>
        <time>2020-08-19T10:08:57Z</time>
      </trkpt>
      <trkpt lat="48.41099" lon="-4.51253">
        <ele>35.4</ele>
        <time>2020-08-19T10:09:01Z</time>
      </trkpt>
      <trkpt lat="48.41085" lon="-4.51282">
        <ele>35.9</ele>
        <time>2020-08-19T10:09:10Z</time>
      </trkpt>
      <trkpt lat="48.41068" lon="-4.5132">
        <ele>35.9</ele>
        <time>2020-08-19T10:09:18Z</time>
      </trkpt>
      <trkpt lat="48.41052" lon="-4.51356">
        <ele>35.1</ele>
        <time>2020-08-19T10:09:26Z</time>
      </trkpt>
      <trkpt lat="48.4103" lon="-4.5139">
        <ele>34.9</ele>
        <time>2020-08-19T10:09:34Z</time>
      </trkpt>
      <trkpt lat="48.41009" lon="-4.51436">
        <ele>33.5</ele>
        <time>2020-08-19T10:09:44Z</time>
      </trkpt>
      <trkpt lat="48.41015" lon="-4.51478">
        <ele>33.3</ele>
        <time>2020-08-19T10:09:50Z</time>
      </trkpt>
      <trkpt lat="48.41015" lon="-4.51481">
        <ele>33.3</ele>
        <time>2020-08-19T10:09:54Z</time>
      </trkpt>
      <trkpt lat="48.41015" lon="-4.51481">
        <ele>33.3</ele>
        <time>2020-08-19T10:10:08Z</time>
      </trkpt>
      <trkpt lat="48.41015" lon="-4.51486">
        <ele>33.3</ele>
        <time>2020-08-19T10:10:48Z</time>
      </trkpt>
      <trkpt lat="48.4101" lon="-4.51498">
        <ele>33.6</ele>
        <time>2020-08-19T10:10:52Z</time>
      </trkpt>
      <trkpt lat="48.41016" lon="-4.51512">
        <ele>32.9</ele>
        <time>2020-08-19T10:10:57Z</time>
      </trkpt>
      <trkpt lat="48.41016" lon="-4.51512">
        <ele>32.9</ele>
        <time>2020-08-19T10:10:58Z</time>
      </trkpt>
      <trkpt lat="48.4099" lon="-4.51554">
        <ele>38.9</ele>
        <time>2020-08-19T10:11:05Z</time>
      </trkpt>
      <trkpt lat="48.40988" lon="-4.51585">
        <ele>37.7</ele>
        <time>2020-08-19T10:11:13Z</time>
      </trkpt>
      <trkpt lat="48.40986" lon="-4.51625">
        <ele>37.8</ele>
        <time>2020-08-19T10:11:23Z</time>
      </trkpt>
      <trkpt lat="48.40985" lon="-4.51632">
        <ele>37.6</ele>
        <time>2020-08-19T10:11:25Z</time>
      </trkpt>
      <trkpt lat="48.40982" lon="-4.51655">
        <ele>37</ele>
        <time>2020-08-19T10:11:31Z</time>
      </trkpt>
      <trkpt lat="48.40978" lon="-4.51684">
        <ele>35.8</ele>
        <time>2020-08-19T10:11:37Z</time>
      </trkpt>
      <trkpt lat="48.40973" lon="-4.51722">
        <ele>35.4</ele>
        <time>2020-08-19T10:11:43Z</time>
      </trkpt>
      <trkpt lat="48.40972" lon="-4.51728">
        <ele>35.3</ele>
        <time>2020-08-19T10:11:44Z</time>
      </trkpt>
      <trkpt lat="48.40983" lon="-4.51778">
        <ele>32.4</ele>
        <time>2020-08-19T10:11:52Z</time>
      </trkpt>
      <trkpt lat="48.4098" lon="-4.51799">
        <ele>32</ele>
        <time>2020-08-19T10:11:55Z</time>
      </trkpt>
      <trkpt lat="48.40976" lon="-4.51821">
        <ele>31.2</ele>
        <time>2020-08-19T10:11:58Z</time>
      </trkpt>
      <trkpt lat="48.40965" lon="-4.51855">
        <ele>28.7</ele>
        <time>2020-08-19T10:12:05Z</time>
      </trkpt>
      <trkpt lat="48.40927" lon="-4.51918">
        <ele>27.6</ele>
        <time>2020-08-19T10:12:13Z</time>
      </trkpt>
      <trkpt lat="48.40924" lon="-4.51925">
        <ele>27.6</ele>
        <time>2020-08-19T10:12:17Z</time>
      </trkpt>
      <trkpt lat="48.40924" lon="-4.51925">
        <ele>27.6</ele>
        <time>2020-08-19T10:12:18Z</time>
      </trkpt>
      <trkpt lat="48.40904" lon="-4.51977">
        <ele>31.8</ele>
        <time>2020-08-19T10:12:22Z</time>
      </trkpt>
      <trkpt lat="48.40896" lon="-4.51997">
        <ele>31.8</ele>
        <time>2020-08-19T10:12:27Z</time>
      </trkpt>
      <trkpt lat="48.40896" lon="-4.51997">
        <ele>31.8</ele>
        <time>2020-08-19T10:12:29Z</time>
      </trkpt>
      <trkpt lat="48.40872" lon="-4.52058">
        <ele>33.5</ele>
        <time>2020-08-19T10:12:36Z</time>
      </trkpt>
      <trkpt lat="48.40852" lon="-4.52101">
        <ele>32.5</ele>
        <time>2020-08-19T10:12:44Z</time>
      </trkpt>
      <trkpt lat="48.40825" lon="-4.5214">
        <ele>31.2</ele>
        <time>2020-08-19T10:12:53Z</time>
      </trkpt>
      <trkpt lat="48.40814" lon="-4.5215">
        <ele>30.9</ele>
        <time>2020-08-19T10:12:58Z</time>
      </trkpt>
      <trkpt lat="48.40775" lon="-4.52185">
        <ele>29</ele>
        <time>2020-08-19T10:13:08Z</time>
      </trkpt>
      <trkpt lat="48.40775" lon="-4.52185">
        <ele>29</ele>
        <time>2020-08-19T10:13:13Z</time>
      </trkpt>
      <trkpt lat="48.40741" lon="-4.52222">
        <ele>27.9</ele>
        <time>2020-08-19T10:13:19Z</time>
      </trkpt>
      <trkpt lat="48.40738" lon="-4.52225">
        <ele>27.9</ele>
        <time>2020-08-19T10:13:22Z</time>
      </trkpt>
      <trkpt lat="48.40738" lon="-4.52225">
        <ele>27.9</ele>
        <time>2020-08-19T10:14:02Z</time>
      </trkpt>
      <trkpt lat="48.40738" lon="-4.52225">
        <ele>27.9</ele>
        <time>2020-08-19T10:14:05Z</time>
      </trkpt>
      <trkpt lat="48.40721" lon="-4.5224">
        <ele>27.8</ele>
        <time>2020-08-19T10:14:14Z</time>
      </trkpt>
      <trkpt lat="48.40721" lon="-4.5224">
        <ele>27.8</ele>
        <time>2020-08-19T10:14:17Z</time>
      </trkpt>
      <trkpt lat="48.40721" lon="-4.52229">
        <ele>27.8</ele>
        <time>2020-08-19T10:14:21Z</time>
      </trkpt>
      <trkpt lat="48.40712" lon="-4.52233">
        <ele>27.7</ele>
        <time>2020-08-19T10:14:23Z</time>
      </trkpt>
      <trkpt lat="48.40679" lon="-4.52241">
        <ele>27.3</ele>
        <time>2020-08-19T10:14:30Z</time>
      </trkpt>
      <trkpt lat="48.40666" lon="-4.52241">
        <ele>26.3</ele>
        <time>2020-08-19T10:14:33Z</time>
      </trkpt>
      <trkpt lat="48.40633" lon="-4.52238">
        <ele>25</ele>
        <time>2020-08-19T10:14:40Z</time>
      </trkpt>
      <trkpt lat="48.40602" lon="-4.52237">
        <ele>23.7</ele>
        <time>2020-08-19T10:14:47Z</time>
      </trkpt>
      <trkpt lat="48.40572" lon="-4.52242">
        <ele>20.8</ele>
        <time>2020-08-19T10:14:54Z</time>
      </trkpt>
      <trkpt lat="48.4054" lon="-4.52256">
        <ele>16.3</ele>
        <time>2020-08-19T10:15:01Z</time>
      </trkpt>
      <trkpt lat="48.40538" lon="-4.52258">
        <ele>16.1</ele>
        <time>2020-08-19T10:15:10Z</time>
      </trkpt>
      <trkpt lat="48.40443" lon="-4.52321">
        <ele>13</ele>
        <time>2020-08-19T10:15:22Z</time>
      </trkpt>
      <trkpt lat="48.40404" lon="-4.5235">
        <ele>14.5</ele>
        <time>2020-08-19T10:15:31Z</time>
      </trkpt>
      <trkpt lat="48.40367" lon="-4.52376">
        <ele>15.1</ele>
        <time>2020-08-19T10:15:40Z</time>
      </trkpt>
      <trkpt lat="48.40363" lon="-4.52379">
        <ele>15.2</ele>
        <time>2020-08-19T10:15:41Z</time>
      </trkpt>
      <trkpt lat="48.40326" lon="-4.52389">
        <ele>16.9</ele>
        <time>2020-08-19T10:15:50Z</time>
      </trkpt>
      <trkpt lat="48.40303" lon="-4.52393">
        <ele>17.1</ele>
        <time>2020-08-19T10:15:56Z</time>
      </trkpt>
      <trkpt lat="48.40282" lon="-4.52396">
        <ele>17.6</ele>
        <time>2020-08-19T10:16:02Z</time>
      </trkpt>
      <trkpt lat="48.40269" lon="-4.52398">
        <ele>18.2</ele>
        <time>2020-08-19T10:16:06Z</time>
      </trkpt>
      <trkpt lat="48.40255" lon="-4.52401">
        <ele>18.9</ele>
        <time>2020-08-19T10:16:10Z</time>
      </trkpt>
      <trkpt lat="48.40226" lon="-4.52406">
        <ele>18.8</ele>
        <time>2020-08-19T10:16:18Z</time>
      </trkpt>
      <trkpt lat="48.40199" lon="-4.52414">
        <ele>18.3</ele>
        <time>2020-08-19T10:16:27Z</time>
      </trkpt>
      <trkpt lat="48.40174" lon="-4.52423">
        <ele>19.8</ele>
        <time>2020-08-19T10:16:36Z</time>
      </trkpt>
      <trkpt lat="48.40153" lon="-4.52433">
        <ele>21.4</ele>
        <time>2020-08-19T10:16:44Z</time>
      </trkpt>
      <trkpt lat="48.40129" lon="-4.52443">
        <ele>22.7</ele>
        <time>2020-08-19T10:16:53Z</time>
      </trkpt>
      <trkpt lat="48.4011" lon="-4.52449">
        <ele>23.4</ele>
        <time>2020-08-19T10:17:00Z</time>
      </trkpt>
      <trkpt lat="48.40089" lon="-4.52446">
        <ele>23.6</ele>
        <time>2020-08-19T10:17:07Z</time>
      </trkpt>
      <trkpt lat="48.40073" lon="-4.52456">
        <ele>27.1</ele>
        <time>2020-08-19T10:17:13Z</time>
      </trkpt>
      <trkpt lat="48.40063" lon="-4.5248">
        <ele>28</ele>
        <time>2020-08-19T10:17:19Z</time>
      </trkpt>
      <trkpt lat="48.40054" lon="-4.52507">
        <ele>31.4</ele>
        <time>2020-08-19T10:17:26Z</time>
      </trkpt>
      <trkpt lat="48.40033" lon="-4.52537">
        <ele>33</ele>
        <time>2020-08-19T10:17:36Z</time>
      </trkpt>
      <trkpt lat="48.40015" lon="-4.52564">
        <ele>34.5</ele>
        <time>2020-08-19T10:17:45Z</time>
      </trkpt>
      <trkpt lat="48.39997" lon="-4.52593">
        <ele>37.2</ele>
        <time>2020-08-19T10:17:55Z</time>
      </trkpt>
      <trkpt lat="48.39979" lon="-4.52626">
        <ele>37.6</ele>
        <time>2020-08-19T10:18:05Z</time>
      </trkpt>
      <trkpt lat="48.39962" lon="-4.52659">
        <ele>37.9</ele>
        <time>2020-08-19T10:18:15Z</time>
      </trkpt>
      <trkpt lat="48.39947" lon="-4.52687">
        <ele>38.6</ele>
        <time>2020-08-19T10:18:24Z</time>
      </trkpt>
      <trkpt lat="48.3993" lon="-4.5272">
        <ele>38.5</ele>
        <time>2020-08-19T10:18:34Z</time>
      </trkpt>
      <trkpt lat="48.39916" lon="-4.52747">
        <ele>38</ele>
        <time>2020-08-19T10:18:43Z</time>
      </trkpt>
      <trkpt lat="48.39905" lon="-4.52769">
        <ele>38.1</ele>
        <time>2020-08-19T10:18:51Z</time>
      </trkpt>
      <trkpt lat="48.39892" lon="-4.52793">
        <ele>38.3</ele>
        <time>2020-08-19T10:18:59Z</time>
      </trkpt>
      <trkpt lat="48.3988" lon="-4.52818">
        <ele>38.5</ele>
        <time>2020-08-19T10:19:07Z</time>
      </trkpt>
      <trkpt lat="48.39867" lon="-4.52843">
        <ele>39.2</ele>
        <time>2020-08-19T10:19:15Z</time>
      </trkpt>
      <trkpt lat="48.39852" lon="-4.52872">
        <ele>39.3</ele>
        <time>2020-08-19T10:19:24Z</time>
      </trkpt>
      <trkpt lat="48.3984" lon="-4.52894">
        <ele>39.5</ele>
        <time>2020-08-19T10:19:31Z</time>
      </trkpt>
      <trkpt lat="48.39824" lon="-4.52922">
        <ele>40.9</ele>
        <time>2020-08-19T10:19:40Z</time>
      </trkpt>
      <trkpt lat="48.39812" lon="-4.52942">
        <ele>41.9</ele>
        <time>2020-08-19T10:19:46Z</time>
      </trkpt>
      <trkpt lat="48.398" lon="-4.52964">
        <ele>42.5</ele>
        <time>2020-08-19T10:19:52Z</time>
      </trkpt>
      <trkpt lat="48.39786" lon="-4.52992">
        <ele>42.9</ele>
        <time>2020-08-19T10:19:59Z</time>
      </trkpt>
      <trkpt lat="48.39776" lon="-4.53012">
        <ele>43.6</ele>
        <time>2020-08-19T10:20:05Z</time>
      </trkpt>
      <trkpt lat="48.39764" lon="-4.53026">
        <ele>43.7</ele>
        <time>2020-08-19T10:20:12Z</time>
      </trkpt>
      <trkpt lat="48.39749" lon="-4.53046">
        <ele>43.8</ele>
        <time>2020-08-19T10:20:20Z</time>
      </trkpt>
      <trkpt lat="48.39742" lon="-4.53052">
        <ele>43.8</ele>
        <time>2020-08-19T10:20:25Z</time>
      </trkpt>
      <trkpt lat="48.39741" lon="-4.53049">
        <ele>43.8</ele>
        <time>2020-08-19T10:20:26Z</time>
      </trkpt>
      <trkpt lat="48.39737" lon="-4.53039">
        <ele>43.8</ele>
        <time>2020-08-19T10:20:31Z</time>
      </trkpt>
      <trkpt lat="48.39734" lon="-4.53031">
        <ele>43.8</ele>
        <time>2020-08-19T10:22:29Z</time>
      </trkpt>
      <trkpt lat="48.39721" lon="-4.53009">
        <ele>43.9</ele>
        <time>2020-08-19T10:22:36Z</time>
      </trkpt>
      <trkpt lat="48.39706" lon="-4.52983">
        <ele>43.8</ele>
        <time>2020-08-19T10:22:44Z</time>
      </trkpt>
      <trkpt lat="48.39683" lon="-4.52948">
        <ele>43.8</ele>
        <time>2020-08-19T10:22:55Z</time>
      </trkpt>
      <trkpt lat="48.39662" lon="-4.52915">
        <ele>44.1</ele>
        <time>2020-08-19T10:23:05Z</time>
      </trkpt>
      <trkpt lat="48.39645" lon="-4.52891">
        <ele>44.3</ele>
        <time>2020-08-19T10:23:13Z</time>
      </trkpt>
      <trkpt lat="48.39623" lon="-4.52866">
        <ele>44.5</ele>
        <time>2020-08-19T10:23:23Z</time>
      </trkpt>
      <trkpt lat="48.3961" lon="-4.52852">
        <ele>44.8</ele>
        <time>2020-08-19T10:23:29Z</time>
      </trkpt>
      <trkpt lat="48.39592" lon="-4.5285">
        <ele>45.2</ele>
        <time>2020-08-19T10:23:36Z</time>
      </trkpt>
      <trkpt lat="48.39586" lon="-4.52844">
        <ele>45.5</ele>
        <time>2020-08-19T10:23:43Z</time>
      </trkpt>
      <trkpt lat="48.39559" lon="-4.52844">
        <ele>46.3</ele>
        <time>2020-08-19T10:23:49Z</time>
      </trkpt>
      <trkpt lat="48.39542" lon="-4.52845">
        <ele>46.5</ele>
        <time>2020-08-19T10:23:57Z</time>
      </trkpt>
      <trkpt lat="48.39529" lon="-4.52847">
        <ele>46.7</ele>
        <time>2020-08-19T10:24:04Z</time>
      </trkpt>
      <trkpt lat="48.39503" lon="-4.52849">
        <ele>47.2</ele>
        <time>2020-08-19T10:24:13Z</time>
      </trkpt>
      <trkpt lat="48.39477" lon="-4.52853">
        <ele>48.4</ele>
        <time>2020-08-19T10:24:22Z</time>
      </trkpt>
      <trkpt lat="48.39454" lon="-4.52857">
        <ele>48.9</ele>
        <time>2020-08-19T10:24:30Z</time>
      </trkpt>
      <trkpt lat="48.39431" lon="-4.5286">
        <ele>49.5</ele>
        <time>2020-08-19T10:24:37Z</time>
      </trkpt>
      <trkpt lat="48.39413" lon="-4.52864">
        <ele>52.5</ele>
        <time>2020-08-19T10:24:43Z</time>
      </trkpt>
      <trkpt lat="48.39407" lon="-4.52866">
        <ele>52.6</ele>
        <time>2020-08-19T10:24:48Z</time>
      </trkpt>
      <trkpt lat="48.39388" lon="-4.52881">
        <ele>52.8</ele>
        <time>2020-08-19T10:24:52Z</time>
      </trkpt>
      <trkpt lat="48.3939" lon="-4.52859">
        <ele>53.2</ele>
        <time>2020-08-19T10:25:03Z</time>
      </trkpt>
      <trkpt lat="48.39377" lon="-4.52795">
        <ele>56.9</ele>
        <time>2020-08-19T10:25:13Z</time>
      </trkpt>
      <trkpt lat="48.39374" lon="-4.52764">
        <ele>57.5</ele>
        <time>2020-08-19T10:25:21Z</time>
      </trkpt>
      <trkpt lat="48.39371" lon="-4.52729">
        <ele>59.5</ele>
        <time>2020-08-19T10:25:30Z</time>
      </trkpt>
      <trkpt lat="48.39369" lon="-4.52703">
        <ele>59.8</ele>
        <time>2020-08-19T10:25:36Z</time>
      </trkpt>
      <trkpt lat="48.39367" lon="-4.52679">
        <ele>60.3</ele>
        <time>2020-08-19T10:25:44Z</time>
      </trkpt>
      <trkpt lat="48.39363" lon="-4.52624">
        <ele>62.3</ele>
        <time>2020-08-19T10:25:53Z</time>
      </trkpt>
      <trkpt lat="48.39359" lon="-4.52578">
        <ele>64.2</ele>
        <time>2020-08-19T10:26:03Z</time>
      </trkpt>
      <trkpt lat="48.39355" lon="-4.52524">
        <ele>64.1</ele>
        <time>2020-08-19T10:26:15Z</time>
      </trkpt>
      <trkpt lat="48.39352" lon="-4.52478">
        <ele>64.3</ele>
        <time>2020-08-19T10:26:25Z</time>
      </trkpt>
      <trkpt lat="48.39346" lon="-4.52428">
        <ele>65</ele>
        <time>2020-08-19T10:26:36Z</time>
      </trkpt>
      <trkpt lat="48.39338" lon="-4.52391">
        <ele>64.8</ele>
        <time>2020-08-19T10:26:45Z</time>
      </trkpt>
      <trkpt lat="48.39322" lon="-4.52359">
        <ele>68.2</ele>
        <time>2020-08-19T10:26:54Z</time>
      </trkpt>
      <trkpt lat="48.39303" lon="-4.52338">
        <ele>68.5</ele>
        <time>2020-08-19T10:27:02Z</time>
      </trkpt>
      <trkpt lat="48.39281" lon="-4.52326">
        <ele>68</ele>
        <time>2020-08-19T10:27:10Z</time>
      </trkpt>
      <trkpt lat="48.39257" lon="-4.52323">
        <ele>69</ele>
        <time>2020-08-19T10:27:18Z</time>
      </trkpt>
      <trkpt lat="48.39227" lon="-4.52325">
        <ele>70.5</ele>
        <time>2020-08-19T10:27:28Z</time>
      </trkpt>
      <trkpt lat="48.39205" lon="-4.52326">
        <ele>70.9</ele>
        <time>2020-08-19T10:27:36Z</time>
      </trkpt>
      <trkpt lat="48.39181" lon="-4.52328">
        <ele>71.8</ele>
        <time>2020-08-19T10:27:44Z</time>
      </trkpt>
      <trkpt lat="48.39156" lon="-4.5233">
        <ele>73.5</ele>
        <time>2020-08-19T10:27:53Z</time>
      </trkpt>
      <trkpt lat="48.39156" lon="-4.5233">
        <ele>73.5</ele>
        <time>2020-08-19T10:27:54Z</time>
      </trkpt>
      <trkpt lat="48.39148" lon="-4.52341">
        <ele>75</ele>
        <time>2020-08-19T10:28:00Z</time>
      </trkpt>
      <trkpt lat="48.39147" lon="-4.52339">
        <ele>75</ele>
        <time>2020-08-19T10:28:40Z</time>
      </trkpt>
      <trkpt lat="48.39147" lon="-4.52339">
        <ele>75</ele>
        <time>2020-08-19T10:29:27Z</time>
      </trkpt>
      <trkpt lat="48.39139" lon="-4.52332">
        <ele>74.1</ele>
        <time>2020-08-19T10:29:33Z</time>
      </trkpt>
      <trkpt lat="48.3912" lon="-4.52335">
        <ele>76.3</ele>
        <time>2020-08-19T10:29:40Z</time>
      </trkpt>
      <trkpt lat="48.39105" lon="-4.52339">
        <ele>76.9</ele>
        <time>2020-08-19T10:29:46Z</time>
      </trkpt>
      <trkpt lat="48.39102" lon="-4.52339">
        <ele>77.1</ele>
        <time>2020-08-19T10:29:48Z</time>
      </trkpt>
      <trkpt lat="48.3909" lon="-4.52368">
        <ele>77.1</ele>
        <time>2020-08-19T10:29:55Z</time>
      </trkpt>
      <trkpt lat="48.39084" lon="-4.524">
        <ele>77.9</ele>
        <time>2020-08-19T10:30:00Z</time>
      </trkpt>
      <trkpt lat="48.39082" lon="-4.52438">
        <ele>81</ele>
        <time>2020-08-19T10:30:09Z</time>
      </trkpt>
      <trkpt lat="48.3908" lon="-4.52466">
        <ele>82.2</ele>
        <time>2020-08-19T10:30:17Z</time>
      </trkpt>
      <trkpt lat="48.39079" lon="-4.52493">
        <ele>82.8</ele>
        <time>2020-08-19T10:30:25Z</time>
      </trkpt>
      <trkpt lat="48.39077" lon="-4.52523">
        <ele>84.1</ele>
        <time>2020-08-19T10:30:34Z</time>
      </trkpt>
      <trkpt lat="48.39076" lon="-4.52545">
        <ele>84.5</ele>
        <time>2020-08-19T10:30:41Z</time>
      </trkpt>
      <trkpt lat="48.39076" lon="-4.52548">
        <ele>84.6</ele>
        <time>2020-08-19T10:30:42Z</time>
      </trkpt>
      <trkpt lat="48.39075" lon="-4.52553">
        <ele>84.7</ele>
        <time>2020-08-19T10:30:47Z</time>
      </trkpt>
      <trkpt lat="48.39075" lon="-4.52553">
        <ele>84.7</ele>
        <time>2020-08-19T10:30:55Z</time>
      </trkpt>
      <trkpt lat="48.39075" lon="-4.52553">
        <ele>84.7</ele>
        <time>2020-08-19T10:31:02Z</time>
      </trkpt>
      <trkpt lat="48.39075" lon="-4.52553">
        <ele>84.7</ele>
        <time>2020-08-19T10:31:10Z</time>
      </trkpt>
      <trkpt lat="48.39123" lon="-4.52687">
        <ele>83.9</ele>
        <time>2020-08-19T10:31:20Z</time>
      </trkpt>
      <trkpt lat="48.39063" lon="-4.52693">
        <ele>86.6</ele>
        <time>2020-08-19T10:31:27Z</time>
      </trkpt>
      <trkpt lat="48.39047" lon="-4.52696">
        <ele>86.5</ele>
        <time>2020-08-19T10:31:33Z</time>
      </trkpt>
      <trkpt lat="48.3903" lon="-4.52708">
        <ele>86.4</ele>
        <time>2020-08-19T10:31:42Z</time>
      </trkpt>
      <trkpt lat="48.39027" lon="-4.5271">
        <ele>86.4</ele>
        <time>2020-08-19T10:31:43Z</time>
      </trkpt>
      <trkpt lat="48.39017" lon="-4.52705">
        <ele>86.4</ele>
        <time>2020-08-19T10:31:48Z</time>
      </trkpt>
      <trkpt lat="48.39015" lon="-4.52719">
        <ele>86.3</ele>
        <time>2020-08-19T10:31:53Z</time>
      </trkpt>
      <trkpt lat="48.39012" lon="-4.52721">
        <ele>86.3</ele>
        <time>2020-08-19T10:31:54Z</time>
      </trkpt>
      <trkpt lat="48.38991" lon="-4.52735">
        <ele>86</ele>
        <time>2020-08-19T10:32:03Z</time>
      </trkpt>
      <trkpt lat="48.38969" lon="-4.52743">
        <ele>85.9</ele>
        <time>2020-08-19T10:32:11Z</time>
      </trkpt>
      <trkpt lat="48.38943" lon="-4.52765">
        <ele>85</ele>
        <time>2020-08-19T10:32:20Z</time>
      </trkpt>
      <trkpt lat="48.38926" lon="-4.52779">
        <ele>84.7</ele>
        <time>2020-08-19T10:32:26Z</time>
      </trkpt>
      <trkpt lat="48.38915" lon="-4.52815">
        <ele>83.7</ele>
        <time>2020-08-19T10:32:33Z</time>
      </trkpt>
      <trkpt lat="48.38904" lon="-4.52832">
        <ele>83.3</ele>
        <time>2020-08-19T10:32:38Z</time>
      </trkpt>
      <trkpt lat="48.38886" lon="-4.52842">
        <ele>82.3</ele>
        <time>2020-08-19T10:32:44Z</time>
      </trkpt>
      <trkpt lat="48.38869" lon="-4.52845">
        <ele>82.6</ele>
        <time>2020-08-19T10:32:51Z</time>
      </trkpt>
      <trkpt lat="48.38852" lon="-4.52846">
        <ele>83.2</ele>
        <time>2020-08-19T10:32:56Z</time>
      </trkpt>
      <trkpt lat="48.38822" lon="-4.52845">
        <ele>85.3</ele>
        <time>2020-08-19T10:33:07Z</time>
      </trkpt>
      <trkpt lat="48.38802" lon="-4.52844">
        <ele>85.8</ele>
        <time>2020-08-19T10:33:15Z</time>
      </trkpt>
      <trkpt lat="48.38789" lon="-4.52843">
        <ele>86.3</ele>
        <time>2020-08-19T10:33:25Z</time>
      </trkpt>
      <trkpt lat="48.38761" lon="-4.52844">
        <ele>87.5</ele>
        <time>2020-08-19T10:33:33Z</time>
      </trkpt>
      <trkpt lat="48.38744" lon="-4.52845">
        <ele>89.7</ele>
        <time>2020-08-19T10:33:41Z</time>
      </trkpt>
      <trkpt lat="48.38729" lon="-4.52868">
        <ele>90.2</ele>
        <time>2020-08-19T10:33:47Z</time>
      </trkpt>
      <trkpt lat="48.38724" lon="-4.52886">
        <ele>90.1</ele>
        <time>2020-08-19T10:33:53Z</time>
      </trkpt>
      <trkpt lat="48.38714" lon="-4.5287">
        <ele>90.6</ele>
        <time>2020-08-19T10:33:59Z</time>
      </trkpt>
      <trkpt lat="48.38714" lon="-4.5287">
        <ele>90.6</ele>
        <time>2020-08-19T10:34:05Z</time>
      </trkpt>
      <trkpt lat="48.38714" lon="-4.5287">
        <ele>90.6</ele>
        <time>2020-08-19T10:34:11Z</time>
      </trkpt>
      <trkpt lat="48.38688" lon="-4.5291">
        <ele>91.5</ele>
        <time>2020-08-19T10:34:20Z</time>
      </trkpt>
      <trkpt lat="48.38688" lon="-4.5291">
        <ele>91.5</ele>
        <time>2020-08-19T10:34:21Z</time>
      </trkpt>
      <trkpt lat="48.38669" lon="-4.52914">
        <ele>92.7</ele>
        <time>2020-08-19T10:35:26Z</time>
      </trkpt>
      <trkpt lat="48.38663" lon="-4.52913">
        <ele>93.6</ele>
        <time>2020-08-19T10:35:28Z</time>
      </trkpt>
      <trkpt lat="48.38657" lon="-4.52911">
        <ele>94.2</ele>
        <time>2020-08-19T10:35:34Z</time>
      </trkpt>
      <trkpt lat="48.3864" lon="-4.52897">
        <ele>95.6</ele>
        <time>2020-08-19T10:35:45Z</time>
      </trkpt>
      <trkpt lat="48.38627" lon="-4.52868">
        <ele>95.8</ele>
        <time>2020-08-19T10:35:50Z</time>
      </trkpt>
      <trkpt lat="48.38625" lon="-4.52856">
        <ele>95.7</ele>
        <time>2020-08-19T10:35:54Z</time>
      </trkpt>
      <trkpt lat="48.38607" lon="-4.52855">
        <ele>95.9</ele>
        <time>2020-08-19T10:36:03Z</time>
      </trkpt>
      <trkpt lat="48.3858" lon="-4.5284">
        <ele>96.2</ele>
        <time>2020-08-19T10:36:13Z</time>
      </trkpt>
      <trkpt lat="48.38559" lon="-4.52833">
        <ele>96.4</ele>
        <time>2020-08-19T10:36:21Z</time>
      </trkpt>
      <trkpt lat="48.38551" lon="-4.5283">
        <ele>96.7</ele>
        <time>2020-08-19T10:36:25Z</time>
      </trkpt>
      <trkpt lat="48.38536" lon="-4.52819">
        <ele>97.2</ele>
        <time>2020-08-19T10:36:32Z</time>
      </trkpt>
      <trkpt lat="48.38534" lon="-4.52817">
        <ele>97.2</ele>
        <time>2020-08-19T10:36:39Z</time>
      </trkpt>
      <trkpt lat="48.38489" lon="-4.52801">
        <ele>99.2</ele>
        <time>2020-08-19T10:36:47Z</time>
      </trkpt>
      <trkpt lat="48.38466" lon="-4.52794">
        <ele>99.4</ele>
        <time>2020-08-19T10:36:54Z</time>
      </trkpt>
      <trkpt lat="48.38435" lon="-4.52787">
        <ele>99.7</ele>
        <time>2020-08-19T10:37:03Z</time>
      </trkpt>
      <trkpt lat="48.38404" lon="-4.52781">
        <ele>100.1</ele>
        <time>2020-08-19T10:37:12Z</time>
      </trkpt>
      <trkpt lat="48.38368" lon="-4.52774">
        <ele>99.8</ele>
        <time>2020-08-19T10:37:22Z</time>
      </trkpt>
      <trkpt lat="48.38343" lon="-4.52768">
        <ele>99.6</ele>
        <time>2020-08-19T10:37:29Z</time>
      </trkpt>
      <trkpt lat="48.38311" lon="-4.52762">
        <ele>99.6</ele>
        <time>2020-08-19T10:37:37Z</time>
      </trkpt>
      <trkpt lat="48.38272" lon="-4.52754">
        <ele>100.2</ele>
        <time>2020-08-19T10:37:47Z</time>
      </trkpt>
      <trkpt lat="48.38237" lon="-4.52748">
        <ele>99.8</ele>
        <time>2020-08-19T10:37:56Z</time>
      </trkpt>
      <trkpt lat="48.38211" lon="-4.52743">
        <ele>98.4</ele>
        <time>2020-08-19T10:38:03Z</time>
      </trkpt>
      <trkpt lat="48.38177" lon="-4.52734">
        <ele>97.5</ele>
        <time>2020-08-19T10:38:12Z</time>
      </trkpt>
      <trkpt lat="48.38163" lon="-4.52732">
        <ele>96.2</ele>
        <time>2020-08-19T10:38:16Z</time>
      </trkpt>
      <trkpt lat="48.38163" lon="-4.52732">
        <ele>96.2</ele>
        <time>2020-08-19T10:38:21Z</time>
      </trkpt>
      <trkpt lat="48.38116" lon="-4.52717">
        <ele>95.5</ele>
        <time>2020-08-19T10:38:29Z</time>
      </trkpt>
      <trkpt lat="48.38091" lon="-4.52712">
        <ele>95.3</ele>
        <time>2020-08-19T10:38:36Z</time>
      </trkpt>
      <trkpt lat="48.38062" lon="-4.5271">
        <ele>94.8</ele>
        <time>2020-08-19T10:38:44Z</time>
      </trkpt>
      <trkpt lat="48.38039" lon="-4.52709">
        <ele>94.7</ele>
        <time>2020-08-19T10:38:50Z</time>
      </trkpt>
      <trkpt lat="48.38011" lon="-4.52707">
        <ele>94.7</ele>
        <time>2020-08-19T10:38:58Z</time>
      </trkpt>
      <trkpt lat="48.37992" lon="-4.52706">
        <ele>93.2</ele>
        <time>2020-08-19T10:39:04Z</time>
      </trkpt>
      <trkpt lat="48.37977" lon="-4.52705">
        <ele>93</ele>
        <time>2020-08-19T10:39:09Z</time>
      </trkpt>
      <trkpt lat="48.37954" lon="-4.52703">
        <ele>92.4</ele>
        <time>2020-08-19T10:39:18Z</time>
      </trkpt>
      <trkpt lat="48.37928" lon="-4.52702">
        <ele>91.9</ele>
        <time>2020-08-19T10:39:28Z</time>
      </trkpt>
      <trkpt lat="48.37905" lon="-4.52699">
        <ele>89.6</ele>
        <time>2020-08-19T10:39:37Z</time>
      </trkpt>
      <trkpt lat="48.37891" lon="-4.52696">
        <ele>89.3</ele>
        <time>2020-08-19T10:39:43Z</time>
      </trkpt>
      <trkpt lat="48.37878" lon="-4.52694">
        <ele>89.1</ele>
        <time>2020-08-19T10:39:48Z</time>
      </trkpt>
      <trkpt lat="48.37872" lon="-4.52665">
        <ele>88.6</ele>
        <time>2020-08-19T10:39:53Z</time>
      </trkpt>
      <trkpt lat="48.37868" lon="-4.52624">
        <ele>88.3</ele>
        <time>2020-08-19T10:40:02Z</time>
      </trkpt>
      <trkpt lat="48.37864" lon="-4.52594">
        <ele>88</ele>
        <time>2020-08-19T10:40:08Z</time>
      </trkpt>
      <trkpt lat="48.3786" lon="-4.52572">
        <ele>86.6</ele>
        <time>2020-08-19T10:40:13Z</time>
      </trkpt>
      <trkpt lat="48.37853" lon="-4.52532">
        <ele>86.1</ele>
        <time>2020-08-19T10:40:22Z</time>
      </trkpt>
      <trkpt lat="48.37843" lon="-4.52486">
        <ele>84.2</ele>
        <time>2020-08-19T10:40:29Z</time>
      </trkpt>
      <trkpt lat="48.37829" lon="-4.52436">
        <ele>81.1</ele>
        <time>2020-08-19T10:40:36Z</time>
      </trkpt>
      <trkpt lat="48.37815" lon="-4.52392">
        <ele>78.7</ele>
        <time>2020-08-19T10:40:42Z</time>
      </trkpt>
      <trkpt lat="48.3781" lon="-4.52377">
        <ele>78.2</ele>
        <time>2020-08-19T10:40:44Z</time>
      </trkpt>
      <trkpt lat="48.3779" lon="-4.5232">
        <ele>75.1</ele>
        <time>2020-08-19T10:40:52Z</time>
      </trkpt>
      <trkpt lat="48.37783" lon="-4.52301">
        <ele>74.5</ele>
        <time>2020-08-19T10:40:56Z</time>
      </trkpt>
      <trkpt lat="48.37781" lon="-4.52293">
        <ele>74.3</ele>
        <time>2020-08-19T10:41:01Z</time>
      </trkpt>
      <trkpt lat="48.37782" lon="-4.52275">
        <ele>73.8</ele>
        <time>2020-08-19T10:41:06Z</time>
      </trkpt>
      <trkpt lat="48.37782" lon="-4.52273">
        <ele>73.7</ele>
        <time>2020-08-19T10:41:08Z</time>
      </trkpt>
      <trkpt lat="48.37787" lon="-4.52268">
        <ele>73.8</ele>
        <time>2020-08-19T10:41:12Z</time>
      </trkpt>
      <trkpt lat="48.37793" lon="-4.5226">
        <ele>73.9</ele>
        <time>2020-08-19T10:41:19Z</time>
      </trkpt>
      <trkpt lat="48.37793" lon="-4.5226">
        <ele>73.9</ele>
        <time>2020-08-19T10:41:21Z</time>
      </trkpt>
      <trkpt lat="48.37793" lon="-4.5226">
        <ele>73.9</ele>
        <time>2020-08-19T10:41:26Z</time>
      </trkpt>
      <trkpt lat="48.37793" lon="-4.5226">
        <ele>73.9</ele>
        <time>2020-08-19T10:42:05Z</time>
      </trkpt>
      <trkpt lat="48.37793" lon="-4.5226">
        <ele>73.9</ele>
        <time>2020-08-19T10:42:12Z</time>
      </trkpt>
      <trkpt lat="48.37825" lon="-4.52228">
        <ele>71.9</ele>
        <time>2020-08-19T10:42:19Z</time>
      </trkpt>
      <trkpt lat="48.37836" lon="-4.52221">
        <ele>73.3</ele>
        <time>2020-08-19T10:42:26Z</time>
      </trkpt>
      <trkpt lat="48.37847" lon="-4.52217">
        <ele>73.1</ele>
        <time>2020-08-19T10:42:31Z</time>
      </trkpt>
      <trkpt lat="48.37868" lon="-4.52216">
        <ele>73.2</ele>
        <time>2020-08-19T10:42:36Z</time>
      </trkpt>
      <trkpt lat="48.3788" lon="-4.52215">
        <ele>73.3</ele>
        <time>2020-08-19T10:42:41Z</time>
      </trkpt>
      <trkpt lat="48.37888" lon="-4.52214">
        <ele>73.4</ele>
        <time>2020-08-19T10:42:47Z</time>
      </trkpt>
      <trkpt lat="48.37889" lon="-4.522">
        <ele>72.8</ele>
        <time>2020-08-19T10:43:03Z</time>
      </trkpt>
      <trkpt lat="48.37888" lon="-4.52178">
        <ele>72.2</ele>
        <time>2020-08-19T10:43:09Z</time>
      </trkpt>
      <trkpt lat="48.37885" lon="-4.52141">
        <ele>67</ele>
        <time>2020-08-19T10:43:15Z</time>
      </trkpt>
      <trkpt lat="48.37884" lon="-4.52109">
        <ele>65.4</ele>
        <time>2020-08-19T10:43:20Z</time>
      </trkpt>
      <trkpt lat="48.37884" lon="-4.52074">
        <ele>60.6</ele>
        <time>2020-08-19T10:43:26Z</time>
      </trkpt>
      <trkpt lat="48.37883" lon="-4.52046">
        <ele>59.9</ele>
        <time>2020-08-19T10:43:31Z</time>
      </trkpt>
      <trkpt lat="48.37895" lon="-4.52038">
        <ele>59.3</ele>
        <time>2020-08-19T10:43:35Z</time>
      </trkpt>
      <trkpt lat="48.37924" lon="-4.52039">
        <ele>59</ele>
        <time>2020-08-19T10:43:41Z</time>
      </trkpt>
      <trkpt lat="48.37935" lon="-4.52039">
        <ele>59.2</ele>
        <time>2020-08-19T10:43:43Z</time>
      </trkpt>
      <trkpt lat="48.37947" lon="-4.52039">
        <ele>59.6</ele>
        <time>2020-08-19T10:43:46Z</time>
      </trkpt>
      <trkpt lat="48.37981" lon="-4.52014">
        <ele>59.9</ele>
        <time>2020-08-19T10:43:50Z</time>
      </trkpt>
      <trkpt lat="48.38003" lon="-4.51982">
        <ele>62.4</ele>
        <time>2020-08-19T10:43:56Z</time>
      </trkpt>
      <trkpt lat="48.38022" lon="-4.51947">
        <ele>63.8</ele>
        <time>2020-08-19T10:44:05Z</time>
      </trkpt>
      <trkpt lat="48.3804" lon="-4.51904">
        <ele>63.3</ele>
        <time>2020-08-19T10:44:15Z</time>
      </trkpt>
      <trkpt lat="48.38046" lon="-4.51889">
        <ele>63.5</ele>
        <time>2020-08-19T10:44:21Z</time>
      </trkpt>
      <trkpt lat="48.38048" lon="-4.51885">
        <ele>63.5</ele>
        <time>2020-08-19T10:44:24Z</time>
      </trkpt>
      <trkpt lat="48.38049" lon="-4.51882">
        <ele>63.5</ele>
        <time>2020-08-19T10:45:19Z</time>
      </trkpt>
      <trkpt lat="48.38053" lon="-4.51869">
        <ele>63.5</ele>
        <time>2020-08-19T10:45:23Z</time>
      </trkpt>
      <trkpt lat="48.38054" lon="-4.51866">
        <ele>63.5</ele>
        <time>2020-08-19T10:45:24Z</time>
      </trkpt>
      <trkpt lat="48.38054" lon="-4.51821">
        <ele>63</ele>
        <time>2020-08-19T10:45:30Z</time>
      </trkpt>
      <trkpt lat="48.38053" lon="-4.5176">
        <ele>63.2</ele>
        <time>2020-08-19T10:45:36Z</time>
      </trkpt>
      <trkpt lat="48.38052" lon="-4.51683">
        <ele>64.5</ele>
        <time>2020-08-19T10:45:43Z</time>
      </trkpt>
      <trkpt lat="48.38051" lon="-4.51633">
        <ele>65</ele>
        <time>2020-08-19T10:45:49Z</time>
      </trkpt>
      <trkpt lat="48.38051" lon="-4.51599">
        <ele>65</ele>
        <time>2020-08-19T10:45:54Z</time>
      </trkpt>
      <trkpt lat="48.3805" lon="-4.51549">
        <ele>65</ele>
        <time>2020-08-19T10:46:03Z</time>
      </trkpt>
      <trkpt lat="48.3807" lon="-4.51542">
        <ele>65.1</ele>
        <time>2020-08-19T10:46:08Z</time>
      </trkpt>
      <trkpt lat="48.38078" lon="-4.51541">
        <ele>65.2</ele>
        <time>2020-08-19T10:46:13Z</time>
      </trkpt>
      <trkpt lat="48.38076" lon="-4.51511">
        <ele>65.6</ele>
        <time>2020-08-19T10:46:19Z</time>
      </trkpt>
      <trkpt lat="48.38075" lon="-4.51478">
        <ele>64.3</ele>
        <time>2020-08-19T10:46:25Z</time>
      </trkpt>
      <trkpt lat="48.38074" lon="-4.51443">
        <ele>63</ele>
        <time>2020-08-19T10:46:30Z</time>
      </trkpt>
      <trkpt lat="48.38073" lon="-4.51409">
        <ele>61.6</ele>
        <time>2020-08-19T10:46:36Z</time>
      </trkpt>
      <trkpt lat="48.38072" lon="-4.51393">
        <ele>61.4</ele>
        <time>2020-08-19T10:46:41Z</time>
      </trkpt>
      <trkpt lat="48.38085" lon="-4.51381">
        <ele>63.1</ele>
        <time>2020-08-19T10:46:46Z</time>
      </trkpt>
      <trkpt lat="48.38109" lon="-4.5137">
        <ele>63.4</ele>
        <time>2020-08-19T10:46:54Z</time>
      </trkpt>
      <trkpt lat="48.38127" lon="-4.51366">
        <ele>63.8</ele>
        <time>2020-08-19T10:47:00Z</time>
      </trkpt>
      <trkpt lat="48.38136" lon="-4.51365">
        <ele>63.9</ele>
        <time>2020-08-19T10:47:05Z</time>
      </trkpt>
      <trkpt lat="48.38134" lon="-4.51405">
        <ele>64.1</ele>
        <time>2020-08-19T10:47:13Z</time>
      </trkpt>
      <trkpt lat="48.38136" lon="-4.51447">
        <ele>65.5</ele>
        <time>2020-08-19T10:47:21Z</time>
      </trkpt>
      <trkpt lat="48.38137" lon="-4.5149">
        <ele>66.3</ele>
        <time>2020-08-19T10:47:29Z</time>
      </trkpt>
      <trkpt lat="48.38139" lon="-4.51527">
        <ele>67</ele>
        <time>2020-08-19T10:47:36Z</time>
      </trkpt>
      <trkpt lat="48.3814" lon="-4.5154">
        <ele>67</ele>
        <time>2020-08-19T10:47:40Z</time>
      </trkpt>
      <trkpt lat="48.38166" lon="-4.51537">
        <ele>67.2</ele>
        <time>2020-08-19T10:47:49Z</time>
      </trkpt>
      <trkpt lat="48.38175" lon="-4.51537">
        <ele>69.6</ele>
        <time>2020-08-19T10:47:55Z</time>
      </trkpt>
      <trkpt lat="48.38189" lon="-4.51536">
        <ele>69.9</ele>
        <time>2020-08-19T10:48:19Z</time>
      </trkpt>
      <trkpt lat="48.38211" lon="-4.51536">
        <ele>70.5</ele>
        <time>2020-08-19T10:48:26Z</time>
      </trkpt>
      <trkpt lat="48.38241" lon="-4.51534">
        <ele>71.2</ele>
        <time>2020-08-19T10:48:33Z</time>
      </trkpt>
      <trkpt lat="48.38256" lon="-4.51533">
        <ele>74.9</ele>
        <time>2020-08-19T10:48:37Z</time>
      </trkpt>
      <trkpt lat="48.38268" lon="-4.51532">
        <ele>75.2</ele>
        <time>2020-08-19T10:48:41Z</time>
      </trkpt>
      <trkpt lat="48.38272" lon="-4.51515">
        <ele>74.8</ele>
        <time>2020-08-19T10:48:46Z</time>
      </trkpt>
      <trkpt lat="48.38271" lon="-4.51486">
        <ele>73.7</ele>
        <time>2020-08-19T10:48:53Z</time>
      </trkpt>
      <trkpt lat="48.38269" lon="-4.51459">
        <ele>73.7</ele>
        <time>2020-08-19T10:48:59Z</time>
      </trkpt>
      <trkpt lat="48.38269" lon="-4.51428">
        <ele>73.1</ele>
        <time>2020-08-19T10:49:07Z</time>
      </trkpt>
      <trkpt lat="48.38268" lon="-4.5142">
        <ele>72.9</ele>
        <time>2020-08-19T10:49:11Z</time>
      </trkpt>
      <trkpt lat="48.38269" lon="-4.51424">
        <ele>73</ele>
        <time>2020-08-19T10:49:21Z</time>
      </trkpt>
      <trkpt lat="48.38269" lon="-4.51447">
        <ele>73.6</ele>
        <time>2020-08-19T10:49:26Z</time>
      </trkpt>
      <trkpt lat="48.38269" lon="-4.51456">
        <ele>73.7</ele>
        <time>2020-08-19T10:49:30Z</time>
      </trkpt>
      <trkpt lat="48.38269" lon="-4.51456">
        <ele>73.7</ele>
        <time>2020-08-19T10:49:31Z</time>
      </trkpt>
      <trkpt lat="48.38269" lon="-4.51443">
        <ele>73.5</ele>
        <time>2020-08-19T10:54:11Z</time>
      </trkpt>
      <trkpt lat="48.38269" lon="-4.51443">
        <ele>73.5</ele>
        <time>2020-08-19T10:54:12Z</time>
      </trkpt>
      <trkpt lat="48.38269" lon="-4.51458">
        <ele>73.7</ele>
        <time>2020-08-19T10:54:18Z</time>
      </trkpt>
      <trkpt lat="48.3827" lon="-4.51478">
        <ele>73.7</ele>
        <time>2020-08-19T10:54:25Z</time>
      </trkpt>
      <trkpt lat="48.38272" lon="-4.51508">
        <ele>74.6</ele>
        <time>2020-08-19T10:54:33Z</time>
      </trkpt>
      <trkpt lat="48.38273" lon="-4.51543">
        <ele>75.6</ele>
        <time>2020-08-19T10:54:40Z</time>
      </trkpt>
      <trkpt lat="48.38275" lon="-4.51579">
        <ele>75.7</ele>
        <time>2020-08-19T10:54:47Z</time>
      </trkpt>
      <trkpt lat="48.38278" lon="-4.51625">
        <ele>78.2</ele>
        <time>2020-08-19T10:54:56Z</time>
      </trkpt>
      <trkpt lat="48.3828" lon="-4.51667">
        <ele>79.4</ele>
        <time>2020-08-19T10:55:05Z</time>
      </trkpt>
      <trkpt lat="48.38283" lon="-4.51706">
        <ele>80.1</ele>
        <time>2020-08-19T10:55:13Z</time>
      </trkpt>
      <trkpt lat="48.38285" lon="-4.51734">
        <ele>80.2</ele>
        <time>2020-08-19T10:55:19Z</time>
      </trkpt>
      <trkpt lat="48.38287" lon="-4.5177">
        <ele>81.5</ele>
        <time>2020-08-19T10:55:27Z</time>
      </trkpt>
      <trkpt lat="48.38289" lon="-4.51799">
        <ele>82</ele>
        <time>2020-08-19T10:55:34Z</time>
      </trkpt>
      <trkpt lat="48.38289" lon="-4.51804">
        <ele>82</ele>
        <time>2020-08-19T10:55:39Z</time>
      </trkpt>
      <trkpt lat="48.3829" lon="-4.51815">
        <ele>82.2</ele>
        <time>2020-08-19T10:55:44Z</time>
      </trkpt>
      <trkpt lat="48.3829" lon="-4.51821">
        <ele>82.2</ele>
        <time>2020-08-19T10:55:46Z</time>
      </trkpt>
      <trkpt lat="48.38292" lon="-4.51858">
        <ele>83.4</ele>
        <time>2020-08-19T10:55:56Z</time>
      </trkpt>
      <trkpt lat="48.38294" lon="-4.51892">
        <ele>83.7</ele>
        <time>2020-08-19T10:56:05Z</time>
      </trkpt>
      <trkpt lat="48.38295" lon="-4.51917">
        <ele>85.4</ele>
        <time>2020-08-19T10:56:13Z</time>
      </trkpt>
      <trkpt lat="48.38296" lon="-4.51938">
        <ele>85.7</ele>
        <time>2020-08-19T10:56:19Z</time>
      </trkpt>
      <trkpt lat="48.38296" lon="-4.51974">
        <ele>86.5</ele>
        <time>2020-08-19T10:56:28Z</time>
      </trkpt>
      <trkpt lat="48.38292" lon="-4.52007">
        <ele>88.3</ele>
        <time>2020-08-19T10:56:36Z</time>
      </trkpt>
      <trkpt lat="48.38285" lon="-4.52041">
        <ele>88.3</ele>
        <time>2020-08-19T10:56:44Z</time>
      </trkpt>
      <trkpt lat="48.38277" lon="-4.52081">
        <ele>88.2</ele>
        <time>2020-08-19T10:56:53Z</time>
      </trkpt>
      <trkpt lat="48.38268" lon="-4.52125">
        <ele>89.3</ele>
        <time>2020-08-19T10:57:03Z</time>
      </trkpt>
      <trkpt lat="48.38259" lon="-4.52158">
        <ele>89.3</ele>
        <time>2020-08-19T10:57:10Z</time>
      </trkpt>
      <trkpt lat="48.38252" lon="-4.52186">
        <ele>89.3</ele>
        <time>2020-08-19T10:57:17Z</time>
      </trkpt>
      <trkpt lat="48.38244" lon="-4.52218">
        <ele>87</ele>
        <time>2020-08-19T10:57:25Z</time>
      </trkpt>
      <trkpt lat="48.38238" lon="-4.52248">
        <ele>86.8</ele>
        <time>2020-08-19T10:57:32Z</time>
      </trkpt>
      <trkpt lat="48.38227" lon="-4.52302">
        <ele>84.5</ele>
        <time>2020-08-19T10:57:39Z</time>
      </trkpt>
      <trkpt lat="48.38223" lon="-4.52322">
        <ele>84.4</ele>
        <time>2020-08-19T10:57:43Z</time>
      </trkpt>
      <trkpt lat="48.38221" lon="-4.52329">
        <ele>84.4</ele>
        <time>2020-08-19T10:57:48Z</time>
      </trkpt>
      <trkpt lat="48.3822" lon="-4.52335">
        <ele>85.5</ele>
        <time>2020-08-19T10:57:59Z</time>
      </trkpt>
      <trkpt lat="48.3822" lon="-4.52335">
        <ele>85.5</ele>
        <time>2020-08-19T10:58:02Z</time>
      </trkpt>
      <trkpt lat="48.38216" lon="-4.52351">
        <ele>85.6</ele>
        <time>2020-08-19T10:58:35Z</time>
      </trkpt>
      <trkpt lat="48.38213" lon="-4.52366">
        <ele>85.8</ele>
        <time>2020-08-19T10:58:39Z</time>
      </trkpt>
      <trkpt lat="48.38213" lon="-4.52367">
        <ele>85.9</ele>
        <time>2020-08-19T10:58:44Z</time>
      </trkpt>
      <trkpt lat="48.38213" lon="-4.52367">
        <ele>85.9</ele>
        <time>2020-08-19T10:58:47Z</time>
      </trkpt>
      <trkpt lat="48.38167" lon="-4.52351">
        <ele>83.6</ele>
        <time>2020-08-19T10:58:52Z</time>
      </trkpt>
      <trkpt lat="48.38159" lon="-4.52328">
        <ele>81.2</ele>
        <time>2020-08-19T10:58:56Z</time>
      </trkpt>
      <trkpt lat="48.38152" lon="-4.52311">
        <ele>81.3</ele>
        <time>2020-08-19T10:58:59Z</time>
      </trkpt>
      <trkpt lat="48.3815" lon="-4.52305">
        <ele>81.3</ele>
        <time>2020-08-19T10:59:00Z</time>
      </trkpt>
      <trkpt lat="48.3813" lon="-4.52275">
        <ele>81.1</ele>
        <time>2020-08-19T10:59:06Z</time>
      </trkpt>
      <trkpt lat="48.38104" lon="-4.52247">
        <ele>79.2</ele>
        <time>2020-08-19T10:59:13Z</time>
      </trkpt>
      <trkpt lat="48.38086" lon="-4.52221">
        <ele>78.7</ele>
        <time>2020-08-19T10:59:17Z</time>
      </trkpt>
      <trkpt lat="48.38081" lon="-4.52212">
        <ele>77.4</ele>
        <time>2020-08-19T10:59:18Z</time>
      </trkpt>
      <trkpt lat="48.3806" lon="-4.52177">
        <ele>76.2</ele>
        <time>2020-08-19T10:59:22Z</time>
      </trkpt>
      <trkpt lat="48.38031" lon="-4.52129">
        <ele>72.8</ele>
        <time>2020-08-19T10:59:27Z</time>
      </trkpt>
      <trkpt lat="48.38009" lon="-4.5209">
        <ele>67.9</ele>
        <time>2020-08-19T10:59:31Z</time>
      </trkpt>
      <trkpt lat="48.37984" lon="-4.52055">
        <ele>61.3</ele>
        <time>2020-08-19T10:59:36Z</time>
      </trkpt>
      <trkpt lat="48.37976" lon="-4.52045">
        <ele>60.6</ele>
        <time>2020-08-19T10:59:38Z</time>
      </trkpt>
      <trkpt lat="48.37959" lon="-4.52024">
        <ele>59.4</ele>
        <time>2020-08-19T10:59:42Z</time>
      </trkpt>
      <trkpt lat="48.3792" lon="-4.52039">
        <ele>58.9</ele>
        <time>2020-08-19T10:59:50Z</time>
      </trkpt>
      <trkpt lat="48.37897" lon="-4.52038">
        <ele>59.2</ele>
        <time>2020-08-19T10:59:57Z</time>
      </trkpt>
      <trkpt lat="48.37883" lon="-4.52038">
        <ele>59.6</ele>
        <time>2020-08-19T11:00:02Z</time>
      </trkpt>
      <trkpt lat="48.37867" lon="-4.52039">
        <ele>60.2</ele>
        <time>2020-08-19T11:00:08Z</time>
      </trkpt>
      <trkpt lat="48.37843" lon="-4.5204">
        <ele>60.8</ele>
        <time>2020-08-19T11:00:17Z</time>
      </trkpt>
      <trkpt lat="48.37831" lon="-4.52041">
        <ele>62.3</ele>
        <time>2020-08-19T11:00:22Z</time>
      </trkpt>
      <trkpt lat="48.3781" lon="-4.52042">
        <ele>62.3</ele>
        <time>2020-08-19T11:00:31Z</time>
      </trkpt>
      <trkpt lat="48.3778" lon="-4.52046">
        <ele>62.2</ele>
        <time>2020-08-19T11:00:41Z</time>
      </trkpt>
      <trkpt lat="48.37761" lon="-4.52049">
        <ele>62.2</ele>
        <time>2020-08-19T11:00:48Z</time>
      </trkpt>
      <trkpt lat="48.37731" lon="-4.52055">
        <ele>62.2</ele>
        <time>2020-08-19T11:00:59Z</time>
      </trkpt>
      <trkpt lat="48.37706" lon="-4.52062">
        <ele>62.3</ele>
        <time>2020-08-19T11:01:08Z</time>
      </trkpt>
      <trkpt lat="48.3769" lon="-4.52069">
        <ele>62.5</ele>
        <time>2020-08-19T11:01:14Z</time>
      </trkpt>
      <trkpt lat="48.37679" lon="-4.52075">
        <ele>62.6</ele>
        <time>2020-08-19T11:01:20Z</time>
      </trkpt>
    </trkseg>
  </trk>
</gpx>